<?xml version="1.0" encoding="UTF-8" standalone="no" ?>
<gpx xmlns="http://www.topografix.com/GPX/1/1" xmlns:xsi="http://www.w3.org/2001/XMLSchema-instance" xsi:schemaLocation="http://www.topografix.com/GPX/1/1 http://www.topografix.com/GPX/1/1/gpx.xsd" version="1.1" creator="VisuGPX - https://www.visugpx.com">
  <metadata>
    <name>Ru Trégor, saint Jacques, Moulin de Kerellec</name>
    <desc><![CDATA[Poulgroum]]></desc>
  </metadata>
  <trk>
    <name><![CDATA[Ru Trégor, saint Jacques, Moulin de Kerellec_1]]></name>
    <trkseg>
      <trkpt lat="48.68293" lon="-4.03113">
        <ele>15.8</ele>
        <time>2022-06-10T10:04:30Z</time>
      </trkpt>
      <trkpt lat="48.68293" lon="-4.03113">
        <ele>15.8</ele>
        <time>2022-06-10T10:04:31Z</time>
      </trkpt>
      <trkpt lat="48.68293" lon="-4.03113">
        <ele>15.8</ele>
        <time>2022-06-10T10:04:32Z</time>
      </trkpt>
      <trkpt lat="48.68293" lon="-4.03113">
        <ele>15.8</ele>
        <time>2022-06-10T10:04:33Z</time>
      </trkpt>
      <trkpt lat="48.68293" lon="-4.03113">
        <ele>15.8</ele>
        <time>2022-06-10T10:04:34Z</time>
      </trkpt>
      <trkpt lat="48.68293" lon="-4.03113">
        <ele>15.8</ele>
        <time>2022-06-10T10:04:35Z</time>
      </trkpt>
      <trkpt lat="48.68293" lon="-4.03113">
        <ele>15.8</ele>
        <time>2022-06-10T10:04:36Z</time>
      </trkpt>
      <trkpt lat="48.68293" lon="-4.03113">
        <ele>15.8</ele>
        <time>2022-06-10T10:04:38Z</time>
      </trkpt>
      <trkpt lat="48.68293" lon="-4.03113">
        <ele>15.8</ele>
        <time>2022-06-10T10:04:39Z</time>
      </trkpt>
      <trkpt lat="48.68293" lon="-4.03113">
        <ele>15.8</ele>
        <time>2022-06-10T10:04:40Z</time>
      </trkpt>
      <trkpt lat="48.68293" lon="-4.03113">
        <ele>15.8</ele>
        <time>2022-06-10T10:04:41Z</time>
      </trkpt>
      <trkpt lat="48.68293" lon="-4.03113">
        <ele>15.8</ele>
        <time>2022-06-10T10:04:42Z</time>
      </trkpt>
      <trkpt lat="48.68293" lon="-4.03113">
        <ele>15.8</ele>
        <time>2022-06-10T10:04:43Z</time>
      </trkpt>
      <trkpt lat="48.68293" lon="-4.03113">
        <ele>15.8</ele>
        <time>2022-06-10T10:04:44Z</time>
      </trkpt>
      <trkpt lat="48.68293" lon="-4.03113">
        <ele>15.8</ele>
        <time>2022-06-10T10:04:45Z</time>
      </trkpt>
      <trkpt lat="48.68293" lon="-4.03113">
        <ele>15.8</ele>
        <time>2022-06-10T10:04:46Z</time>
      </trkpt>
      <trkpt lat="48.68293" lon="-4.03113">
        <ele>15.8</ele>
        <time>2022-06-10T10:04:47Z</time>
      </trkpt>
      <trkpt lat="48.68293" lon="-4.03113">
        <ele>15.8</ele>
        <time>2022-06-10T10:04:48Z</time>
      </trkpt>
      <trkpt lat="48.68293" lon="-4.03113">
        <ele>15.8</ele>
        <time>2022-06-10T10:04:49Z</time>
      </trkpt>
      <trkpt lat="48.68293" lon="-4.03113">
        <ele>15.8</ele>
        <time>2022-06-10T10:04:50Z</time>
      </trkpt>
      <trkpt lat="48.68293" lon="-4.03113">
        <ele>15.8</ele>
        <time>2022-06-10T10:04:51Z</time>
      </trkpt>
      <trkpt lat="48.68293" lon="-4.03113">
        <ele>15.8</ele>
        <time>2022-06-10T10:04:52Z</time>
      </trkpt>
      <trkpt lat="48.68293" lon="-4.03113">
        <ele>15.8</ele>
        <time>2022-06-10T10:04:53Z</time>
      </trkpt>
      <trkpt lat="48.68293" lon="-4.03113">
        <ele>15.8</ele>
        <time>2022-06-10T10:04:54Z</time>
      </trkpt>
      <trkpt lat="48.68293" lon="-4.03113">
        <ele>15.8</ele>
        <time>2022-06-10T10:04:55Z</time>
      </trkpt>
      <trkpt lat="48.68293" lon="-4.03113">
        <ele>15.8</ele>
        <time>2022-06-10T10:04:56Z</time>
      </trkpt>
      <trkpt lat="48.68293" lon="-4.03113">
        <ele>15.8</ele>
        <time>2022-06-10T10:04:57Z</time>
      </trkpt>
      <trkpt lat="48.68293" lon="-4.03113">
        <ele>15.8</ele>
        <time>2022-06-10T10:04:58Z</time>
      </trkpt>
      <trkpt lat="48.68293" lon="-4.03113">
        <ele>15.8</ele>
        <time>2022-06-10T10:04:59Z</time>
      </trkpt>
      <trkpt lat="48.68293" lon="-4.03113">
        <ele>15.8</ele>
        <time>2022-06-10T10:05:00Z</time>
      </trkpt>
      <trkpt lat="48.68293" lon="-4.03113">
        <ele>15.8</ele>
        <time>2022-06-10T10:05:01Z</time>
      </trkpt>
      <trkpt lat="48.68293" lon="-4.03113">
        <ele>15.8</ele>
        <time>2022-06-10T10:05:02Z</time>
      </trkpt>
      <trkpt lat="48.68293" lon="-4.03113">
        <ele>15.8</ele>
        <time>2022-06-10T10:05:03Z</time>
      </trkpt>
      <trkpt lat="48.68293" lon="-4.03113">
        <ele>15.8</ele>
        <time>2022-06-10T10:05:04Z</time>
      </trkpt>
      <trkpt lat="48.68293" lon="-4.03113">
        <ele>15.8</ele>
        <time>2022-06-10T10:05:05Z</time>
      </trkpt>
      <trkpt lat="48.68293" lon="-4.03113">
        <ele>15.8</ele>
        <time>2022-06-10T10:05:06Z</time>
      </trkpt>
      <trkpt lat="48.68293" lon="-4.03113">
        <ele>15.8</ele>
        <time>2022-06-10T10:05:07Z</time>
      </trkpt>
      <trkpt lat="48.68293" lon="-4.03113">
        <ele>15.8</ele>
        <time>2022-06-10T10:05:08Z</time>
      </trkpt>
      <trkpt lat="48.68293" lon="-4.03113">
        <ele>15.8</ele>
        <time>2022-06-10T10:05:09Z</time>
      </trkpt>
      <trkpt lat="48.68293" lon="-4.03113">
        <ele>15.8</ele>
        <time>2022-06-10T10:05:10Z</time>
      </trkpt>
      <trkpt lat="48.68293" lon="-4.03113">
        <ele>15.8</ele>
        <time>2022-06-10T10:05:11Z</time>
      </trkpt>
      <trkpt lat="48.68293" lon="-4.03113">
        <ele>15.8</ele>
        <time>2022-06-10T10:05:12Z</time>
      </trkpt>
      <trkpt lat="48.68293" lon="-4.03113">
        <ele>15.8</ele>
        <time>2022-06-10T10:05:13Z</time>
      </trkpt>
      <trkpt lat="48.68293" lon="-4.03113">
        <ele>15.8</ele>
        <time>2022-06-10T10:05:14Z</time>
      </trkpt>
      <trkpt lat="48.68293" lon="-4.03113">
        <ele>15.8</ele>
        <time>2022-06-10T10:05:15Z</time>
      </trkpt>
      <trkpt lat="48.68293" lon="-4.03113">
        <ele>15.8</ele>
        <time>2022-06-10T10:05:16Z</time>
      </trkpt>
      <trkpt lat="48.68293" lon="-4.03113">
        <ele>15.8</ele>
        <time>2022-06-10T10:05:17Z</time>
      </trkpt>
      <trkpt lat="48.68293" lon="-4.03113">
        <ele>15.8</ele>
        <time>2022-06-10T10:05:18Z</time>
      </trkpt>
      <trkpt lat="48.68293" lon="-4.03113">
        <ele>15.8</ele>
        <time>2022-06-10T10:05:19Z</time>
      </trkpt>
      <trkpt lat="48.68293" lon="-4.03113">
        <ele>15.8</ele>
        <time>2022-06-10T10:05:20Z</time>
      </trkpt>
      <trkpt lat="48.68293" lon="-4.03113">
        <ele>15.8</ele>
        <time>2022-06-10T10:05:21Z</time>
      </trkpt>
      <trkpt lat="48.68293" lon="-4.03113">
        <ele>15.8</ele>
        <time>2022-06-10T10:05:22Z</time>
      </trkpt>
      <trkpt lat="48.68293" lon="-4.03113">
        <ele>15.8</ele>
        <time>2022-06-10T10:05:23Z</time>
      </trkpt>
      <trkpt lat="48.68293" lon="-4.03113">
        <ele>15.8</ele>
        <time>2022-06-10T10:05:24Z</time>
      </trkpt>
      <trkpt lat="48.68293" lon="-4.03113">
        <ele>15.8</ele>
        <time>2022-06-10T10:05:25Z</time>
      </trkpt>
      <trkpt lat="48.68293" lon="-4.03113">
        <ele>15.8</ele>
        <time>2022-06-10T10:05:26Z</time>
      </trkpt>
      <trkpt lat="48.68293" lon="-4.03113">
        <ele>15.8</ele>
        <time>2022-06-10T10:05:27Z</time>
      </trkpt>
      <trkpt lat="48.68293" lon="-4.03113">
        <ele>15.8</ele>
        <time>2022-06-10T10:05:28Z</time>
      </trkpt>
      <trkpt lat="48.68293" lon="-4.03113">
        <ele>15.8</ele>
        <time>2022-06-10T10:05:29Z</time>
      </trkpt>
      <trkpt lat="48.68293" lon="-4.03113">
        <ele>15.8</ele>
        <time>2022-06-10T10:05:30Z</time>
      </trkpt>
      <trkpt lat="48.68293" lon="-4.03113">
        <ele>15.8</ele>
        <time>2022-06-10T10:05:31Z</time>
      </trkpt>
      <trkpt lat="48.68293" lon="-4.03113">
        <ele>15.8</ele>
        <time>2022-06-10T10:05:32Z</time>
      </trkpt>
      <trkpt lat="48.68293" lon="-4.03113">
        <ele>15.8</ele>
        <time>2022-06-10T10:05:33Z</time>
      </trkpt>
      <trkpt lat="48.68293" lon="-4.03113">
        <ele>15.8</ele>
        <time>2022-06-10T10:05:34Z</time>
      </trkpt>
      <trkpt lat="48.68293" lon="-4.03113">
        <ele>15.8</ele>
        <time>2022-06-10T10:05:35Z</time>
      </trkpt>
      <trkpt lat="48.68293" lon="-4.03113">
        <ele>15.8</ele>
        <time>2022-06-10T10:05:36Z</time>
      </trkpt>
      <trkpt lat="48.68293" lon="-4.03113">
        <ele>15.8</ele>
        <time>2022-06-10T10:05:37Z</time>
      </trkpt>
      <trkpt lat="48.68293" lon="-4.03113">
        <ele>15.8</ele>
        <time>2022-06-10T10:05:38Z</time>
      </trkpt>
      <trkpt lat="48.68293" lon="-4.03113">
        <ele>15.8</ele>
        <time>2022-06-10T10:05:39Z</time>
      </trkpt>
      <trkpt lat="48.68293" lon="-4.03113">
        <ele>15.8</ele>
        <time>2022-06-10T10:05:40Z</time>
      </trkpt>
      <trkpt lat="48.68293" lon="-4.03113">
        <ele>15.8</ele>
        <time>2022-06-10T10:05:41Z</time>
      </trkpt>
      <trkpt lat="48.68293" lon="-4.03113">
        <ele>15.8</ele>
        <time>2022-06-10T10:05:42Z</time>
      </trkpt>
      <trkpt lat="48.68293" lon="-4.03113">
        <ele>15.8</ele>
        <time>2022-06-10T10:05:43Z</time>
      </trkpt>
      <trkpt lat="48.68293" lon="-4.03113">
        <ele>15.8</ele>
        <time>2022-06-10T10:05:44Z</time>
      </trkpt>
      <trkpt lat="48.68293" lon="-4.03113">
        <ele>15.8</ele>
        <time>2022-06-10T10:05:45Z</time>
      </trkpt>
      <trkpt lat="48.68293" lon="-4.03113">
        <ele>15.8</ele>
        <time>2022-06-10T10:05:46Z</time>
      </trkpt>
      <trkpt lat="48.68293" lon="-4.03113">
        <ele>15.8</ele>
        <time>2022-06-10T10:05:47Z</time>
      </trkpt>
      <trkpt lat="48.68293" lon="-4.03113">
        <ele>15.8</ele>
        <time>2022-06-10T10:05:48Z</time>
      </trkpt>
      <trkpt lat="48.68293" lon="-4.03113">
        <ele>15.8</ele>
        <time>2022-06-10T10:05:49Z</time>
      </trkpt>
      <trkpt lat="48.68293" lon="-4.03113">
        <ele>15.8</ele>
        <time>2022-06-10T10:05:50Z</time>
      </trkpt>
      <trkpt lat="48.68293" lon="-4.03113">
        <ele>15.8</ele>
        <time>2022-06-10T10:05:51Z</time>
      </trkpt>
      <trkpt lat="48.68293" lon="-4.03113">
        <ele>15.8</ele>
        <time>2022-06-10T10:05:52Z</time>
      </trkpt>
      <trkpt lat="48.68293" lon="-4.03113">
        <ele>15.8</ele>
        <time>2022-06-10T10:05:53Z</time>
      </trkpt>
      <trkpt lat="48.68293" lon="-4.03113">
        <ele>15.8</ele>
        <time>2022-06-10T10:05:54Z</time>
      </trkpt>
      <trkpt lat="48.68293" lon="-4.03113">
        <ele>15.8</ele>
        <time>2022-06-10T10:05:55Z</time>
      </trkpt>
      <trkpt lat="48.68293" lon="-4.03113">
        <ele>15.8</ele>
        <time>2022-06-10T10:05:56Z</time>
      </trkpt>
      <trkpt lat="48.68293" lon="-4.03113">
        <ele>15.8</ele>
        <time>2022-06-10T10:05:57Z</time>
      </trkpt>
      <trkpt lat="48.68293" lon="-4.03113">
        <ele>15.8</ele>
        <time>2022-06-10T10:05:58Z</time>
      </trkpt>
      <trkpt lat="48.68293" lon="-4.03113">
        <ele>15.8</ele>
        <time>2022-06-10T10:05:59Z</time>
      </trkpt>
      <trkpt lat="48.68293" lon="-4.03113">
        <ele>15.8</ele>
        <time>2022-06-10T10:06:00Z</time>
      </trkpt>
      <trkpt lat="48.68293" lon="-4.03113">
        <ele>15.8</ele>
        <time>2022-06-10T10:06:01Z</time>
      </trkpt>
      <trkpt lat="48.68293" lon="-4.03113">
        <ele>15.8</ele>
        <time>2022-06-10T10:06:02Z</time>
      </trkpt>
      <trkpt lat="48.68293" lon="-4.03113">
        <ele>15.8</ele>
        <time>2022-06-10T10:06:03Z</time>
      </trkpt>
      <trkpt lat="48.68293" lon="-4.03113">
        <ele>15.8</ele>
        <time>2022-06-10T10:06:04Z</time>
      </trkpt>
      <trkpt lat="48.68293" lon="-4.03113">
        <ele>15.8</ele>
        <time>2022-06-10T10:06:05Z</time>
      </trkpt>
      <trkpt lat="48.68293" lon="-4.03113">
        <ele>15.8</ele>
        <time>2022-06-10T10:06:06Z</time>
      </trkpt>
      <trkpt lat="48.68293" lon="-4.03113">
        <ele>15.8</ele>
        <time>2022-06-10T10:06:07Z</time>
      </trkpt>
      <trkpt lat="48.68293" lon="-4.03113">
        <ele>15.8</ele>
        <time>2022-06-10T10:06:08Z</time>
      </trkpt>
      <trkpt lat="48.68293" lon="-4.03113">
        <ele>15.8</ele>
        <time>2022-06-10T10:06:09Z</time>
      </trkpt>
      <trkpt lat="48.68293" lon="-4.03113">
        <ele>15.8</ele>
        <time>2022-06-10T10:06:10Z</time>
      </trkpt>
      <trkpt lat="48.68293" lon="-4.03113">
        <ele>15.8</ele>
        <time>2022-06-10T10:06:11Z</time>
      </trkpt>
      <trkpt lat="48.68293" lon="-4.03113">
        <ele>15.8</ele>
        <time>2022-06-10T10:06:12Z</time>
      </trkpt>
      <trkpt lat="48.68293" lon="-4.03113">
        <ele>15.8</ele>
        <time>2022-06-10T10:06:13Z</time>
      </trkpt>
      <trkpt lat="48.68293" lon="-4.03113">
        <ele>15.8</ele>
        <time>2022-06-10T10:06:14Z</time>
      </trkpt>
      <trkpt lat="48.68293" lon="-4.03113">
        <ele>15.8</ele>
        <time>2022-06-10T10:06:15Z</time>
      </trkpt>
      <trkpt lat="48.68293" lon="-4.03113">
        <ele>15.8</ele>
        <time>2022-06-10T10:06:16Z</time>
      </trkpt>
      <trkpt lat="48.68293" lon="-4.03113">
        <ele>15.8</ele>
        <time>2022-06-10T10:06:17Z</time>
      </trkpt>
      <trkpt lat="48.68293" lon="-4.03113">
        <ele>15.8</ele>
        <time>2022-06-10T10:06:18Z</time>
      </trkpt>
      <trkpt lat="48.68293" lon="-4.03113">
        <ele>15.8</ele>
        <time>2022-06-10T10:06:19Z</time>
      </trkpt>
      <trkpt lat="48.68293" lon="-4.03113">
        <ele>15.8</ele>
        <time>2022-06-10T10:06:20Z</time>
      </trkpt>
      <trkpt lat="48.68293" lon="-4.03113">
        <ele>15.8</ele>
        <time>2022-06-10T10:06:21Z</time>
      </trkpt>
      <trkpt lat="48.68293" lon="-4.03113">
        <ele>15.8</ele>
        <time>2022-06-10T10:06:22Z</time>
      </trkpt>
      <trkpt lat="48.68293" lon="-4.03113">
        <ele>15.8</ele>
        <time>2022-06-10T10:06:23Z</time>
      </trkpt>
      <trkpt lat="48.68293" lon="-4.03113">
        <ele>15.8</ele>
        <time>2022-06-10T10:06:24Z</time>
      </trkpt>
      <trkpt lat="48.68293" lon="-4.03113">
        <ele>15.8</ele>
        <time>2022-06-10T10:06:25Z</time>
      </trkpt>
      <trkpt lat="48.68293" lon="-4.03113">
        <ele>15.8</ele>
        <time>2022-06-10T10:06:26Z</time>
      </trkpt>
      <trkpt lat="48.68293" lon="-4.03113">
        <ele>15.8</ele>
        <time>2022-06-10T10:06:27Z</time>
      </trkpt>
      <trkpt lat="48.68293" lon="-4.03113">
        <ele>15.8</ele>
        <time>2022-06-10T10:06:28Z</time>
      </trkpt>
      <trkpt lat="48.68293" lon="-4.03113">
        <ele>15.8</ele>
        <time>2022-06-10T10:06:29Z</time>
      </trkpt>
      <trkpt lat="48.68293" lon="-4.03113">
        <ele>15.8</ele>
        <time>2022-06-10T10:06:30Z</time>
      </trkpt>
      <trkpt lat="48.68293" lon="-4.03113">
        <ele>15.8</ele>
        <time>2022-06-10T10:06:31Z</time>
      </trkpt>
      <trkpt lat="48.68293" lon="-4.03113">
        <ele>15.8</ele>
        <time>2022-06-10T10:06:32Z</time>
      </trkpt>
      <trkpt lat="48.68293" lon="-4.03113">
        <ele>15.8</ele>
        <time>2022-06-10T10:06:33Z</time>
      </trkpt>
      <trkpt lat="48.68293" lon="-4.03113">
        <ele>15.8</ele>
        <time>2022-06-10T10:06:34Z</time>
      </trkpt>
      <trkpt lat="48.68293" lon="-4.03113">
        <ele>15.8</ele>
        <time>2022-06-10T10:06:35Z</time>
      </trkpt>
      <trkpt lat="48.68293" lon="-4.03113">
        <ele>15.8</ele>
        <time>2022-06-10T10:06:36Z</time>
      </trkpt>
      <trkpt lat="48.68293" lon="-4.03113">
        <ele>15.8</ele>
        <time>2022-06-10T10:06:37Z</time>
      </trkpt>
      <trkpt lat="48.68293" lon="-4.03113">
        <ele>15.8</ele>
        <time>2022-06-10T10:06:38Z</time>
      </trkpt>
      <trkpt lat="48.68293" lon="-4.03113">
        <ele>15.8</ele>
        <time>2022-06-10T10:06:39Z</time>
      </trkpt>
      <trkpt lat="48.68293" lon="-4.03113">
        <ele>15.8</ele>
        <time>2022-06-10T10:06:40Z</time>
      </trkpt>
      <trkpt lat="48.68293" lon="-4.03113">
        <ele>15.8</ele>
        <time>2022-06-10T10:06:41Z</time>
      </trkpt>
      <trkpt lat="48.68293" lon="-4.03113">
        <ele>15.8</ele>
        <time>2022-06-10T10:06:42Z</time>
      </trkpt>
      <trkpt lat="48.68293" lon="-4.03113">
        <ele>15.8</ele>
        <time>2022-06-10T10:06:43Z</time>
      </trkpt>
      <trkpt lat="48.68293" lon="-4.03113">
        <ele>15.8</ele>
        <time>2022-06-10T10:06:44Z</time>
      </trkpt>
      <trkpt lat="48.68293" lon="-4.03113">
        <ele>15.8</ele>
        <time>2022-06-10T10:06:45Z</time>
      </trkpt>
      <trkpt lat="48.68293" lon="-4.03113">
        <ele>15.8</ele>
        <time>2022-06-10T10:06:46Z</time>
      </trkpt>
      <trkpt lat="48.68293" lon="-4.03113">
        <ele>15.8</ele>
        <time>2022-06-10T10:06:47Z</time>
      </trkpt>
      <trkpt lat="48.68293" lon="-4.03113">
        <ele>15.8</ele>
        <time>2022-06-10T10:06:48Z</time>
      </trkpt>
      <trkpt lat="48.68293" lon="-4.03113">
        <ele>15.8</ele>
        <time>2022-06-10T10:06:49Z</time>
      </trkpt>
      <trkpt lat="48.68293" lon="-4.03113">
        <ele>15.8</ele>
        <time>2022-06-10T10:06:50Z</time>
      </trkpt>
      <trkpt lat="48.68293" lon="-4.03113">
        <ele>15.8</ele>
        <time>2022-06-10T10:06:51Z</time>
      </trkpt>
      <trkpt lat="48.68293" lon="-4.03113">
        <ele>15.8</ele>
        <time>2022-06-10T10:06:52Z</time>
      </trkpt>
      <trkpt lat="48.68293" lon="-4.03113">
        <ele>15.8</ele>
        <time>2022-06-10T10:06:53Z</time>
      </trkpt>
      <trkpt lat="48.68293" lon="-4.03113">
        <ele>15.8</ele>
        <time>2022-06-10T10:06:54Z</time>
      </trkpt>
      <trkpt lat="48.68293" lon="-4.03113">
        <ele>15.8</ele>
        <time>2022-06-10T10:06:55Z</time>
      </trkpt>
      <trkpt lat="48.68293" lon="-4.03113">
        <ele>15.8</ele>
        <time>2022-06-10T10:06:56Z</time>
      </trkpt>
      <trkpt lat="48.68293" lon="-4.03113">
        <ele>15.8</ele>
        <time>2022-06-10T10:06:57Z</time>
      </trkpt>
      <trkpt lat="48.68293" lon="-4.03113">
        <ele>15.8</ele>
        <time>2022-06-10T10:06:58Z</time>
      </trkpt>
      <trkpt lat="48.68293" lon="-4.03113">
        <ele>15.8</ele>
        <time>2022-06-10T10:06:59Z</time>
      </trkpt>
      <trkpt lat="48.68293" lon="-4.03113">
        <ele>15.8</ele>
        <time>2022-06-10T10:07:00Z</time>
      </trkpt>
      <trkpt lat="48.68293" lon="-4.03113">
        <ele>15.8</ele>
        <time>2022-06-10T10:07:01Z</time>
      </trkpt>
      <trkpt lat="48.68293" lon="-4.03113">
        <ele>15.8</ele>
        <time>2022-06-10T10:07:02Z</time>
      </trkpt>
      <trkpt lat="48.68293" lon="-4.03113">
        <ele>15.8</ele>
        <time>2022-06-10T10:07:03Z</time>
      </trkpt>
      <trkpt lat="48.68293" lon="-4.03113">
        <ele>15.8</ele>
        <time>2022-06-10T10:07:04Z</time>
      </trkpt>
      <trkpt lat="48.68293" lon="-4.03113">
        <ele>15.8</ele>
        <time>2022-06-10T10:07:05Z</time>
      </trkpt>
      <trkpt lat="48.68293" lon="-4.03113">
        <ele>15.8</ele>
        <time>2022-06-10T10:07:06Z</time>
      </trkpt>
      <trkpt lat="48.68293" lon="-4.03113">
        <ele>15.8</ele>
        <time>2022-06-10T10:07:07Z</time>
      </trkpt>
      <trkpt lat="48.68293" lon="-4.03113">
        <ele>15.8</ele>
        <time>2022-06-10T10:07:08Z</time>
      </trkpt>
      <trkpt lat="48.68293" lon="-4.03113">
        <ele>15.8</ele>
        <time>2022-06-10T10:07:09Z</time>
      </trkpt>
      <trkpt lat="48.68293" lon="-4.03113">
        <ele>15.8</ele>
        <time>2022-06-10T10:07:10Z</time>
      </trkpt>
      <trkpt lat="48.68293" lon="-4.03113">
        <ele>15.8</ele>
        <time>2022-06-10T10:07:11Z</time>
      </trkpt>
      <trkpt lat="48.68293" lon="-4.03113">
        <ele>15.8</ele>
        <time>2022-06-10T10:07:12Z</time>
      </trkpt>
      <trkpt lat="48.68293" lon="-4.03113">
        <ele>15.8</ele>
        <time>2022-06-10T10:07:13Z</time>
      </trkpt>
      <trkpt lat="48.68293" lon="-4.03113">
        <ele>15.8</ele>
        <time>2022-06-10T10:07:14Z</time>
      </trkpt>
      <trkpt lat="48.68293" lon="-4.03113">
        <ele>15.8</ele>
        <time>2022-06-10T10:07:15Z</time>
      </trkpt>
      <trkpt lat="48.68293" lon="-4.03113">
        <ele>15.8</ele>
        <time>2022-06-10T10:07:16Z</time>
      </trkpt>
      <trkpt lat="48.68293" lon="-4.03113">
        <ele>15.8</ele>
        <time>2022-06-10T10:07:17Z</time>
      </trkpt>
      <trkpt lat="48.68293" lon="-4.03113">
        <ele>15.8</ele>
        <time>2022-06-10T10:07:18Z</time>
      </trkpt>
      <trkpt lat="48.68293" lon="-4.03113">
        <ele>15.8</ele>
        <time>2022-06-10T10:07:19Z</time>
      </trkpt>
      <trkpt lat="48.68293" lon="-4.03113">
        <ele>15.8</ele>
        <time>2022-06-10T10:07:20Z</time>
      </trkpt>
      <trkpt lat="48.68293" lon="-4.03113">
        <ele>15.8</ele>
        <time>2022-06-10T10:07:21Z</time>
      </trkpt>
      <trkpt lat="48.68293" lon="-4.03113">
        <ele>15.8</ele>
        <time>2022-06-10T10:07:22Z</time>
      </trkpt>
      <trkpt lat="48.68293" lon="-4.03113">
        <ele>15.8</ele>
        <time>2022-06-10T10:07:23Z</time>
      </trkpt>
      <trkpt lat="48.68293" lon="-4.03113">
        <ele>15.8</ele>
        <time>2022-06-10T10:07:24Z</time>
      </trkpt>
      <trkpt lat="48.68293" lon="-4.03113">
        <ele>15.8</ele>
        <time>2022-06-10T10:07:25Z</time>
      </trkpt>
      <trkpt lat="48.68293" lon="-4.03113">
        <ele>15.8</ele>
        <time>2022-06-10T10:07:26Z</time>
      </trkpt>
      <trkpt lat="48.68293" lon="-4.03113">
        <ele>15.8</ele>
        <time>2022-06-10T10:07:27Z</time>
      </trkpt>
      <trkpt lat="48.68293" lon="-4.03113">
        <ele>15.8</ele>
        <time>2022-06-10T10:07:28Z</time>
      </trkpt>
      <trkpt lat="48.68293" lon="-4.03113">
        <ele>15.8</ele>
        <time>2022-06-10T10:07:29Z</time>
      </trkpt>
      <trkpt lat="48.68293" lon="-4.03113">
        <ele>15.8</ele>
        <time>2022-06-10T10:07:30Z</time>
      </trkpt>
      <trkpt lat="48.68293" lon="-4.03113">
        <ele>15.8</ele>
        <time>2022-06-10T10:07:31Z</time>
      </trkpt>
      <trkpt lat="48.68293" lon="-4.03113">
        <ele>15.8</ele>
        <time>2022-06-10T10:07:32Z</time>
      </trkpt>
      <trkpt lat="48.68293" lon="-4.03113">
        <ele>15.8</ele>
        <time>2022-06-10T10:07:33Z</time>
      </trkpt>
      <trkpt lat="48.68293" lon="-4.03113">
        <ele>15.8</ele>
        <time>2022-06-10T10:07:34Z</time>
      </trkpt>
      <trkpt lat="48.68293" lon="-4.03113">
        <ele>15.8</ele>
        <time>2022-06-10T10:07:35Z</time>
      </trkpt>
      <trkpt lat="48.68293" lon="-4.03113">
        <ele>15.8</ele>
        <time>2022-06-10T10:07:36Z</time>
      </trkpt>
      <trkpt lat="48.68293" lon="-4.03113">
        <ele>15.8</ele>
        <time>2022-06-10T10:07:37Z</time>
      </trkpt>
      <trkpt lat="48.68293" lon="-4.03113">
        <ele>15.8</ele>
        <time>2022-06-10T10:07:38Z</time>
      </trkpt>
      <trkpt lat="48.68293" lon="-4.03113">
        <ele>15.8</ele>
        <time>2022-06-10T10:07:39Z</time>
      </trkpt>
      <trkpt lat="48.68293" lon="-4.03113">
        <ele>15.8</ele>
        <time>2022-06-10T10:07:40Z</time>
      </trkpt>
      <trkpt lat="48.68293" lon="-4.03113">
        <ele>15.8</ele>
        <time>2022-06-10T10:07:41Z</time>
      </trkpt>
      <trkpt lat="48.68293" lon="-4.03113">
        <ele>15.8</ele>
        <time>2022-06-10T10:07:42Z</time>
      </trkpt>
      <trkpt lat="48.68293" lon="-4.03113">
        <ele>15.8</ele>
        <time>2022-06-10T10:07:43Z</time>
      </trkpt>
      <trkpt lat="48.68293" lon="-4.03113">
        <ele>15.8</ele>
        <time>2022-06-10T10:07:44Z</time>
      </trkpt>
      <trkpt lat="48.68293" lon="-4.03113">
        <ele>15.8</ele>
        <time>2022-06-10T10:07:45Z</time>
      </trkpt>
      <trkpt lat="48.68293" lon="-4.03113">
        <ele>15.8</ele>
        <time>2022-06-10T10:07:46Z</time>
      </trkpt>
      <trkpt lat="48.68293" lon="-4.03113">
        <ele>15.8</ele>
        <time>2022-06-10T10:07:48Z</time>
      </trkpt>
      <trkpt lat="48.68293" lon="-4.03113">
        <ele>15.8</ele>
        <time>2022-06-10T10:07:49Z</time>
      </trkpt>
      <trkpt lat="48.68293" lon="-4.03113">
        <ele>15.8</ele>
        <time>2022-06-10T10:07:50Z</time>
      </trkpt>
      <trkpt lat="48.68293" lon="-4.03113">
        <ele>15.8</ele>
        <time>2022-06-10T10:07:51Z</time>
      </trkpt>
      <trkpt lat="48.68293" lon="-4.03113">
        <ele>15.8</ele>
        <time>2022-06-10T10:07:52Z</time>
      </trkpt>
      <trkpt lat="48.68293" lon="-4.03113">
        <ele>15.8</ele>
        <time>2022-06-10T10:07:53Z</time>
      </trkpt>
      <trkpt lat="48.68293" lon="-4.03113">
        <ele>15.8</ele>
        <time>2022-06-10T10:07:54Z</time>
      </trkpt>
      <trkpt lat="48.68293" lon="-4.03113">
        <ele>15.8</ele>
        <time>2022-06-10T10:07:55Z</time>
      </trkpt>
      <trkpt lat="48.68293" lon="-4.03113">
        <ele>15.8</ele>
        <time>2022-06-10T10:07:56Z</time>
      </trkpt>
      <trkpt lat="48.68293" lon="-4.03113">
        <ele>15.8</ele>
        <time>2022-06-10T10:07:57Z</time>
      </trkpt>
      <trkpt lat="48.68293" lon="-4.03113">
        <ele>15.8</ele>
        <time>2022-06-10T10:07:58Z</time>
      </trkpt>
      <trkpt lat="48.68293" lon="-4.03113">
        <ele>15.8</ele>
        <time>2022-06-10T10:07:59Z</time>
      </trkpt>
      <trkpt lat="48.68293" lon="-4.03113">
        <ele>15.8</ele>
        <time>2022-06-10T10:08:00Z</time>
      </trkpt>
      <trkpt lat="48.68293" lon="-4.03113">
        <ele>15.8</ele>
        <time>2022-06-10T10:08:01Z</time>
      </trkpt>
      <trkpt lat="48.68293" lon="-4.03113">
        <ele>15.8</ele>
        <time>2022-06-10T10:08:02Z</time>
      </trkpt>
      <trkpt lat="48.68293" lon="-4.03113">
        <ele>15.8</ele>
        <time>2022-06-10T10:08:03Z</time>
      </trkpt>
      <trkpt lat="48.68293" lon="-4.03113">
        <ele>15.8</ele>
        <time>2022-06-10T10:08:04Z</time>
      </trkpt>
      <trkpt lat="48.68293" lon="-4.03113">
        <ele>15.8</ele>
        <time>2022-06-10T10:08:05Z</time>
      </trkpt>
      <trkpt lat="48.68293" lon="-4.03113">
        <ele>15.8</ele>
        <time>2022-06-10T10:08:06Z</time>
      </trkpt>
      <trkpt lat="48.68293" lon="-4.03113">
        <ele>15.8</ele>
        <time>2022-06-10T10:08:07Z</time>
      </trkpt>
      <trkpt lat="48.68293" lon="-4.03113">
        <ele>15.8</ele>
        <time>2022-06-10T10:08:08Z</time>
      </trkpt>
      <trkpt lat="48.68293" lon="-4.03113">
        <ele>15.8</ele>
        <time>2022-06-10T10:08:09Z</time>
      </trkpt>
      <trkpt lat="48.68293" lon="-4.03113">
        <ele>15.8</ele>
        <time>2022-06-10T10:08:10Z</time>
      </trkpt>
      <trkpt lat="48.68293" lon="-4.03113">
        <ele>15.8</ele>
        <time>2022-06-10T10:08:11Z</time>
      </trkpt>
      <trkpt lat="48.68293" lon="-4.03113">
        <ele>15.8</ele>
        <time>2022-06-10T10:08:12Z</time>
      </trkpt>
      <trkpt lat="48.68293" lon="-4.03113">
        <ele>15.8</ele>
        <time>2022-06-10T10:08:13Z</time>
      </trkpt>
      <trkpt lat="48.68293" lon="-4.03113">
        <ele>15.8</ele>
        <time>2022-06-10T10:08:14Z</time>
      </trkpt>
      <trkpt lat="48.68293" lon="-4.03113">
        <ele>15.8</ele>
        <time>2022-06-10T10:08:15Z</time>
      </trkpt>
      <trkpt lat="48.68293" lon="-4.03113">
        <ele>15.8</ele>
        <time>2022-06-10T10:08:16Z</time>
      </trkpt>
      <trkpt lat="48.68293" lon="-4.03113">
        <ele>15.8</ele>
        <time>2022-06-10T10:08:17Z</time>
      </trkpt>
      <trkpt lat="48.68293" lon="-4.03113">
        <ele>15.8</ele>
        <time>2022-06-10T10:08:18Z</time>
      </trkpt>
      <trkpt lat="48.68293" lon="-4.03113">
        <ele>15.8</ele>
        <time>2022-06-10T10:08:19Z</time>
      </trkpt>
      <trkpt lat="48.68293" lon="-4.03113">
        <ele>15.8</ele>
        <time>2022-06-10T10:08:20Z</time>
      </trkpt>
      <trkpt lat="48.68293" lon="-4.03113">
        <ele>15.8</ele>
        <time>2022-06-10T10:08:21Z</time>
      </trkpt>
      <trkpt lat="48.68293" lon="-4.03113">
        <ele>15.8</ele>
        <time>2022-06-10T10:08:22Z</time>
      </trkpt>
      <trkpt lat="48.68293" lon="-4.03113">
        <ele>15.8</ele>
        <time>2022-06-10T10:08:23Z</time>
      </trkpt>
      <trkpt lat="48.68293" lon="-4.03113">
        <ele>15.8</ele>
        <time>2022-06-10T10:08:24Z</time>
      </trkpt>
      <trkpt lat="48.68293" lon="-4.03113">
        <ele>15.8</ele>
        <time>2022-06-10T10:08:25Z</time>
      </trkpt>
      <trkpt lat="48.68293" lon="-4.03113">
        <ele>15.8</ele>
        <time>2022-06-10T10:08:26Z</time>
      </trkpt>
      <trkpt lat="48.68293" lon="-4.03113">
        <ele>15.8</ele>
        <time>2022-06-10T10:08:27Z</time>
      </trkpt>
      <trkpt lat="48.68293" lon="-4.03113">
        <ele>15.8</ele>
        <time>2022-06-10T10:08:28Z</time>
      </trkpt>
      <trkpt lat="48.68293" lon="-4.03113">
        <ele>15.8</ele>
        <time>2022-06-10T10:08:29Z</time>
      </trkpt>
      <trkpt lat="48.68293" lon="-4.03113">
        <ele>15.8</ele>
        <time>2022-06-10T10:08:30Z</time>
      </trkpt>
      <trkpt lat="48.68293" lon="-4.03113">
        <ele>15.8</ele>
        <time>2022-06-10T10:08:31Z</time>
      </trkpt>
      <trkpt lat="48.68293" lon="-4.03113">
        <ele>15.8</ele>
        <time>2022-06-10T10:08:32Z</time>
      </trkpt>
      <trkpt lat="48.68293" lon="-4.03113">
        <ele>15.8</ele>
        <time>2022-06-10T10:08:33Z</time>
      </trkpt>
      <trkpt lat="48.68293" lon="-4.03113">
        <ele>15.8</ele>
        <time>2022-06-10T10:08:34Z</time>
      </trkpt>
      <trkpt lat="48.68293" lon="-4.03113">
        <ele>15.8</ele>
        <time>2022-06-10T10:08:35Z</time>
      </trkpt>
      <trkpt lat="48.68293" lon="-4.03113">
        <ele>15.8</ele>
        <time>2022-06-10T10:08:36Z</time>
      </trkpt>
      <trkpt lat="48.68293" lon="-4.03113">
        <ele>15.8</ele>
        <time>2022-06-10T10:08:37Z</time>
      </trkpt>
      <trkpt lat="48.68293" lon="-4.03113">
        <ele>15.8</ele>
        <time>2022-06-10T10:08:38Z</time>
      </trkpt>
      <trkpt lat="48.68293" lon="-4.03113">
        <ele>15.8</ele>
        <time>2022-06-10T10:08:39Z</time>
      </trkpt>
      <trkpt lat="48.68293" lon="-4.03113">
        <ele>15.8</ele>
        <time>2022-06-10T10:08:40Z</time>
      </trkpt>
      <trkpt lat="48.68293" lon="-4.03113">
        <ele>15.8</ele>
        <time>2022-06-10T10:08:41Z</time>
      </trkpt>
      <trkpt lat="48.68293" lon="-4.03113">
        <ele>15.8</ele>
        <time>2022-06-10T10:08:42Z</time>
      </trkpt>
      <trkpt lat="48.68293" lon="-4.03113">
        <ele>15.8</ele>
        <time>2022-06-10T10:08:43Z</time>
      </trkpt>
      <trkpt lat="48.68293" lon="-4.03113">
        <ele>15.8</ele>
        <time>2022-06-10T10:08:44Z</time>
      </trkpt>
      <trkpt lat="48.68293" lon="-4.03113">
        <ele>15.8</ele>
        <time>2022-06-10T10:08:45Z</time>
      </trkpt>
      <trkpt lat="48.68293" lon="-4.03113">
        <ele>15.8</ele>
        <time>2022-06-10T10:08:46Z</time>
      </trkpt>
      <trkpt lat="48.68293" lon="-4.03113">
        <ele>15.8</ele>
        <time>2022-06-10T10:08:47Z</time>
      </trkpt>
      <trkpt lat="48.68293" lon="-4.03113">
        <ele>15.8</ele>
        <time>2022-06-10T10:08:48Z</time>
      </trkpt>
      <trkpt lat="48.68293" lon="-4.03113">
        <ele>15.8</ele>
        <time>2022-06-10T10:08:49Z</time>
      </trkpt>
      <trkpt lat="48.68293" lon="-4.03113">
        <ele>15.8</ele>
        <time>2022-06-10T10:08:50Z</time>
      </trkpt>
      <trkpt lat="48.68293" lon="-4.03113">
        <ele>15.8</ele>
        <time>2022-06-10T10:08:51Z</time>
      </trkpt>
      <trkpt lat="48.68293" lon="-4.03113">
        <ele>15.8</ele>
        <time>2022-06-10T10:08:52Z</time>
      </trkpt>
      <trkpt lat="48.68293" lon="-4.03113">
        <ele>15.8</ele>
        <time>2022-06-10T10:08:53Z</time>
      </trkpt>
      <trkpt lat="48.68293" lon="-4.03113">
        <ele>15.8</ele>
        <time>2022-06-10T10:08:54Z</time>
      </trkpt>
      <trkpt lat="48.68293" lon="-4.03113">
        <ele>15.8</ele>
        <time>2022-06-10T10:08:55Z</time>
      </trkpt>
      <trkpt lat="48.68293" lon="-4.03113">
        <ele>15.8</ele>
        <time>2022-06-10T10:08:56Z</time>
      </trkpt>
      <trkpt lat="48.68293" lon="-4.03113">
        <ele>15.8</ele>
        <time>2022-06-10T10:08:57Z</time>
      </trkpt>
      <trkpt lat="48.68293" lon="-4.03113">
        <ele>15.8</ele>
        <time>2022-06-10T10:08:58Z</time>
      </trkpt>
      <trkpt lat="48.68293" lon="-4.03113">
        <ele>15.8</ele>
        <time>2022-06-10T10:08:59Z</time>
      </trkpt>
      <trkpt lat="48.68293" lon="-4.03113">
        <ele>15.8</ele>
        <time>2022-06-10T10:09:00Z</time>
      </trkpt>
      <trkpt lat="48.68293" lon="-4.03113">
        <ele>15.8</ele>
        <time>2022-06-10T10:09:01Z</time>
      </trkpt>
      <trkpt lat="48.68293" lon="-4.03113">
        <ele>15.8</ele>
        <time>2022-06-10T10:09:02Z</time>
      </trkpt>
      <trkpt lat="48.68293" lon="-4.03113">
        <ele>15.8</ele>
        <time>2022-06-10T10:09:03Z</time>
      </trkpt>
      <trkpt lat="48.68293" lon="-4.03113">
        <ele>15.8</ele>
        <time>2022-06-10T10:09:04Z</time>
      </trkpt>
      <trkpt lat="48.68293" lon="-4.03113">
        <ele>15.8</ele>
        <time>2022-06-10T10:09:05Z</time>
      </trkpt>
      <trkpt lat="48.68293" lon="-4.03113">
        <ele>15.8</ele>
        <time>2022-06-10T10:09:06Z</time>
      </trkpt>
      <trkpt lat="48.68293" lon="-4.03113">
        <ele>15.8</ele>
        <time>2022-06-10T10:09:07Z</time>
      </trkpt>
      <trkpt lat="48.68293" lon="-4.03113">
        <ele>15.8</ele>
        <time>2022-06-10T10:09:08Z</time>
      </trkpt>
      <trkpt lat="48.68293" lon="-4.03113">
        <ele>15.8</ele>
        <time>2022-06-10T10:09:09Z</time>
      </trkpt>
      <trkpt lat="48.68293" lon="-4.03113">
        <ele>15.8</ele>
        <time>2022-06-10T10:09:10Z</time>
      </trkpt>
      <trkpt lat="48.68293" lon="-4.03113">
        <ele>15.8</ele>
        <time>2022-06-10T10:09:11Z</time>
      </trkpt>
      <trkpt lat="48.68293" lon="-4.03113">
        <ele>15.8</ele>
        <time>2022-06-10T10:09:12Z</time>
      </trkpt>
      <trkpt lat="48.68293" lon="-4.03113">
        <ele>15.8</ele>
        <time>2022-06-10T10:09:13Z</time>
      </trkpt>
      <trkpt lat="48.68293" lon="-4.03113">
        <ele>15.8</ele>
        <time>2022-06-10T10:09:14Z</time>
      </trkpt>
      <trkpt lat="48.68293" lon="-4.03113">
        <ele>15.8</ele>
        <time>2022-06-10T10:09:15Z</time>
      </trkpt>
      <trkpt lat="48.68293" lon="-4.03113">
        <ele>15.8</ele>
        <time>2022-06-10T10:09:16Z</time>
      </trkpt>
      <trkpt lat="48.68293" lon="-4.03113">
        <ele>15.8</ele>
        <time>2022-06-10T10:09:17Z</time>
      </trkpt>
      <trkpt lat="48.68293" lon="-4.03113">
        <ele>15.8</ele>
        <time>2022-06-10T10:09:18Z</time>
      </trkpt>
      <trkpt lat="48.68293" lon="-4.03113">
        <ele>15.8</ele>
        <time>2022-06-10T10:09:19Z</time>
      </trkpt>
      <trkpt lat="48.68293" lon="-4.03113">
        <ele>15.8</ele>
        <time>2022-06-10T10:09:20Z</time>
      </trkpt>
      <trkpt lat="48.68293" lon="-4.03113">
        <ele>15.8</ele>
        <time>2022-06-10T10:09:21Z</time>
      </trkpt>
      <trkpt lat="48.68293" lon="-4.03113">
        <ele>15.8</ele>
        <time>2022-06-10T10:09:22Z</time>
      </trkpt>
      <trkpt lat="48.68293" lon="-4.03113">
        <ele>15.8</ele>
        <time>2022-06-10T10:09:23Z</time>
      </trkpt>
      <trkpt lat="48.68293" lon="-4.03113">
        <ele>15.8</ele>
        <time>2022-06-10T10:09:24Z</time>
      </trkpt>
      <trkpt lat="48.68293" lon="-4.03113">
        <ele>15.8</ele>
        <time>2022-06-10T10:09:25Z</time>
      </trkpt>
      <trkpt lat="48.68293" lon="-4.03113">
        <ele>15.8</ele>
        <time>2022-06-10T10:09:26Z</time>
      </trkpt>
      <trkpt lat="48.68293" lon="-4.03113">
        <ele>15.8</ele>
        <time>2022-06-10T10:09:27Z</time>
      </trkpt>
      <trkpt lat="48.68293" lon="-4.03113">
        <ele>15.8</ele>
        <time>2022-06-10T10:09:28Z</time>
      </trkpt>
      <trkpt lat="48.68293" lon="-4.03113">
        <ele>15.8</ele>
        <time>2022-06-10T10:09:29Z</time>
      </trkpt>
      <trkpt lat="48.68293" lon="-4.03113">
        <ele>15.8</ele>
        <time>2022-06-10T10:09:30Z</time>
      </trkpt>
      <trkpt lat="48.68293" lon="-4.03113">
        <ele>15.8</ele>
        <time>2022-06-10T10:09:31Z</time>
      </trkpt>
      <trkpt lat="48.68293" lon="-4.03113">
        <ele>15.8</ele>
        <time>2022-06-10T10:09:32Z</time>
      </trkpt>
      <trkpt lat="48.68293" lon="-4.03113">
        <ele>15.8</ele>
        <time>2022-06-10T10:09:33Z</time>
      </trkpt>
      <trkpt lat="48.68293" lon="-4.03113">
        <ele>15.8</ele>
        <time>2022-06-10T10:09:34Z</time>
      </trkpt>
      <trkpt lat="48.68293" lon="-4.03113">
        <ele>15.8</ele>
        <time>2022-06-10T10:09:35Z</time>
      </trkpt>
      <trkpt lat="48.68293" lon="-4.03113">
        <ele>15.8</ele>
        <time>2022-06-10T10:09:36Z</time>
      </trkpt>
      <trkpt lat="48.68293" lon="-4.03113">
        <ele>15.8</ele>
        <time>2022-06-10T10:09:37Z</time>
      </trkpt>
      <trkpt lat="48.68293" lon="-4.03113">
        <ele>15.8</ele>
        <time>2022-06-10T10:09:38Z</time>
      </trkpt>
      <trkpt lat="48.68293" lon="-4.03113">
        <ele>15.8</ele>
        <time>2022-06-10T10:09:39Z</time>
      </trkpt>
      <trkpt lat="48.68293" lon="-4.03113">
        <ele>15.8</ele>
        <time>2022-06-10T10:09:40Z</time>
      </trkpt>
      <trkpt lat="48.68293" lon="-4.03113">
        <ele>15.8</ele>
        <time>2022-06-10T10:09:41Z</time>
      </trkpt>
      <trkpt lat="48.68293" lon="-4.03113">
        <ele>15.8</ele>
        <time>2022-06-10T10:09:42Z</time>
      </trkpt>
      <trkpt lat="48.68293" lon="-4.03113">
        <ele>15.8</ele>
        <time>2022-06-10T10:09:43Z</time>
      </trkpt>
      <trkpt lat="48.68293" lon="-4.03113">
        <ele>15.8</ele>
        <time>2022-06-10T10:09:44Z</time>
      </trkpt>
      <trkpt lat="48.68293" lon="-4.03113">
        <ele>15.8</ele>
        <time>2022-06-10T10:09:45Z</time>
      </trkpt>
      <trkpt lat="48.68293" lon="-4.03113">
        <ele>15.8</ele>
        <time>2022-06-10T10:09:46Z</time>
      </trkpt>
      <trkpt lat="48.68293" lon="-4.03113">
        <ele>15.8</ele>
        <time>2022-06-10T10:09:47Z</time>
      </trkpt>
      <trkpt lat="48.68293" lon="-4.03113">
        <ele>15.8</ele>
        <time>2022-06-10T10:09:48Z</time>
      </trkpt>
      <trkpt lat="48.68293" lon="-4.03113">
        <ele>15.8</ele>
        <time>2022-06-10T10:09:49Z</time>
      </trkpt>
      <trkpt lat="48.68293" lon="-4.03113">
        <ele>15.8</ele>
        <time>2022-06-10T10:09:50Z</time>
      </trkpt>
      <trkpt lat="48.68293" lon="-4.03113">
        <ele>15.8</ele>
        <time>2022-06-10T10:09:51Z</time>
      </trkpt>
      <trkpt lat="48.68293" lon="-4.03113">
        <ele>15.8</ele>
        <time>2022-06-10T10:09:52Z</time>
      </trkpt>
      <trkpt lat="48.68293" lon="-4.03113">
        <ele>15.8</ele>
        <time>2022-06-10T10:09:53Z</time>
      </trkpt>
      <trkpt lat="48.68293" lon="-4.03113">
        <ele>15.8</ele>
        <time>2022-06-10T10:09:54Z</time>
      </trkpt>
      <trkpt lat="48.68293" lon="-4.03113">
        <ele>15.8</ele>
        <time>2022-06-10T10:09:55Z</time>
      </trkpt>
      <trkpt lat="48.68293" lon="-4.03113">
        <ele>15.8</ele>
        <time>2022-06-10T10:09:56Z</time>
      </trkpt>
      <trkpt lat="48.68293" lon="-4.03113">
        <ele>15.8</ele>
        <time>2022-06-10T10:09:57Z</time>
      </trkpt>
      <trkpt lat="48.68293" lon="-4.03113">
        <ele>15.8</ele>
        <time>2022-06-10T10:09:58Z</time>
      </trkpt>
      <trkpt lat="48.68293" lon="-4.03113">
        <ele>15.8</ele>
        <time>2022-06-10T10:09:59Z</time>
      </trkpt>
      <trkpt lat="48.68293" lon="-4.03113">
        <ele>15.8</ele>
        <time>2022-06-10T10:10:00Z</time>
      </trkpt>
      <trkpt lat="48.68293" lon="-4.03113">
        <ele>15.8</ele>
        <time>2022-06-10T10:10:01Z</time>
      </trkpt>
      <trkpt lat="48.68293" lon="-4.03113">
        <ele>15.8</ele>
        <time>2022-06-10T10:10:02Z</time>
      </trkpt>
      <trkpt lat="48.68293" lon="-4.03113">
        <ele>15.8</ele>
        <time>2022-06-10T10:10:03Z</time>
      </trkpt>
      <trkpt lat="48.68293" lon="-4.03113">
        <ele>15.8</ele>
        <time>2022-06-10T10:10:04Z</time>
      </trkpt>
      <trkpt lat="48.68293" lon="-4.03113">
        <ele>15.8</ele>
        <time>2022-06-10T10:10:05Z</time>
      </trkpt>
      <trkpt lat="48.68293" lon="-4.03113">
        <ele>15.8</ele>
        <time>2022-06-10T10:10:06Z</time>
      </trkpt>
      <trkpt lat="48.68293" lon="-4.03113">
        <ele>15.8</ele>
        <time>2022-06-10T10:10:07Z</time>
      </trkpt>
      <trkpt lat="48.68293" lon="-4.03113">
        <ele>15.8</ele>
        <time>2022-06-10T10:10:08Z</time>
      </trkpt>
      <trkpt lat="48.68293" lon="-4.03113">
        <ele>15.8</ele>
        <time>2022-06-10T10:10:09Z</time>
      </trkpt>
      <trkpt lat="48.68293" lon="-4.03113">
        <ele>15.8</ele>
        <time>2022-06-10T10:10:10Z</time>
      </trkpt>
      <trkpt lat="48.68293" lon="-4.03113">
        <ele>15.8</ele>
        <time>2022-06-10T10:10:11Z</time>
      </trkpt>
      <trkpt lat="48.68293" lon="-4.03113">
        <ele>15.8</ele>
        <time>2022-06-10T10:10:12Z</time>
      </trkpt>
      <trkpt lat="48.68293" lon="-4.03113">
        <ele>15.8</ele>
        <time>2022-06-10T10:10:13Z</time>
      </trkpt>
      <trkpt lat="48.68293" lon="-4.03113">
        <ele>15.8</ele>
        <time>2022-06-10T10:10:14Z</time>
      </trkpt>
      <trkpt lat="48.68293" lon="-4.03113">
        <ele>15.8</ele>
        <time>2022-06-10T10:10:15Z</time>
      </trkpt>
      <trkpt lat="48.68293" lon="-4.03113">
        <ele>15.8</ele>
        <time>2022-06-10T10:10:16Z</time>
      </trkpt>
      <trkpt lat="48.68293" lon="-4.03113">
        <ele>15.8</ele>
        <time>2022-06-10T10:10:17Z</time>
      </trkpt>
      <trkpt lat="48.68293" lon="-4.03113">
        <ele>15.8</ele>
        <time>2022-06-10T10:10:18Z</time>
      </trkpt>
      <trkpt lat="48.68293" lon="-4.03113">
        <ele>15.8</ele>
        <time>2022-06-10T10:10:19Z</time>
      </trkpt>
      <trkpt lat="48.68293" lon="-4.03113">
        <ele>15.8</ele>
        <time>2022-06-10T10:10:20Z</time>
      </trkpt>
      <trkpt lat="48.68293" lon="-4.03113">
        <ele>15.8</ele>
        <time>2022-06-10T10:10:21Z</time>
      </trkpt>
      <trkpt lat="48.68293" lon="-4.03113">
        <ele>15.8</ele>
        <time>2022-06-10T10:10:22Z</time>
      </trkpt>
      <trkpt lat="48.68293" lon="-4.03113">
        <ele>15.8</ele>
        <time>2022-06-10T10:10:23Z</time>
      </trkpt>
      <trkpt lat="48.68293" lon="-4.03113">
        <ele>15.8</ele>
        <time>2022-06-10T10:10:24Z</time>
      </trkpt>
      <trkpt lat="48.68293" lon="-4.03113">
        <ele>15.8</ele>
        <time>2022-06-10T10:10:25Z</time>
      </trkpt>
      <trkpt lat="48.68293" lon="-4.03113">
        <ele>15.8</ele>
        <time>2022-06-10T10:10:26Z</time>
      </trkpt>
      <trkpt lat="48.68293" lon="-4.03113">
        <ele>15.8</ele>
        <time>2022-06-10T10:10:27Z</time>
      </trkpt>
      <trkpt lat="48.68293" lon="-4.03113">
        <ele>15.8</ele>
        <time>2022-06-10T10:10:28Z</time>
      </trkpt>
      <trkpt lat="48.68293" lon="-4.03113">
        <ele>15.8</ele>
        <time>2022-06-10T10:10:29Z</time>
      </trkpt>
      <trkpt lat="48.68293" lon="-4.03113">
        <ele>15.8</ele>
        <time>2022-06-10T10:10:30Z</time>
      </trkpt>
      <trkpt lat="48.68293" lon="-4.03113">
        <ele>15.8</ele>
        <time>2022-06-10T10:10:31Z</time>
      </trkpt>
      <trkpt lat="48.68293" lon="-4.03113">
        <ele>15.8</ele>
        <time>2022-06-10T10:10:32Z</time>
      </trkpt>
      <trkpt lat="48.68293" lon="-4.03113">
        <ele>15.8</ele>
        <time>2022-06-10T10:10:33Z</time>
      </trkpt>
      <trkpt lat="48.68293" lon="-4.03113">
        <ele>15.8</ele>
        <time>2022-06-10T10:10:34Z</time>
      </trkpt>
      <trkpt lat="48.68293" lon="-4.03113">
        <ele>15.8</ele>
        <time>2022-06-10T10:10:35Z</time>
      </trkpt>
      <trkpt lat="48.68293" lon="-4.03113">
        <ele>15.8</ele>
        <time>2022-06-10T10:10:36Z</time>
      </trkpt>
      <trkpt lat="48.68293" lon="-4.03113">
        <ele>15.8</ele>
        <time>2022-06-10T10:10:37Z</time>
      </trkpt>
      <trkpt lat="48.68293" lon="-4.03113">
        <ele>15.8</ele>
        <time>2022-06-10T10:10:38Z</time>
      </trkpt>
      <trkpt lat="48.68293" lon="-4.03113">
        <ele>15.8</ele>
        <time>2022-06-10T10:10:39Z</time>
      </trkpt>
      <trkpt lat="48.68293" lon="-4.03113">
        <ele>15.8</ele>
        <time>2022-06-10T10:10:40Z</time>
      </trkpt>
      <trkpt lat="48.68293" lon="-4.03113">
        <ele>15.8</ele>
        <time>2022-06-10T10:10:41Z</time>
      </trkpt>
      <trkpt lat="48.68293" lon="-4.03113">
        <ele>15.8</ele>
        <time>2022-06-10T10:10:42Z</time>
      </trkpt>
      <trkpt lat="48.68293" lon="-4.03113">
        <ele>15.8</ele>
        <time>2022-06-10T10:10:43Z</time>
      </trkpt>
      <trkpt lat="48.68293" lon="-4.03113">
        <ele>15.8</ele>
        <time>2022-06-10T10:10:44Z</time>
      </trkpt>
      <trkpt lat="48.68293" lon="-4.03113">
        <ele>15.8</ele>
        <time>2022-06-10T10:10:45Z</time>
      </trkpt>
      <trkpt lat="48.68293" lon="-4.03113">
        <ele>15.8</ele>
        <time>2022-06-10T10:10:46Z</time>
      </trkpt>
      <trkpt lat="48.68293" lon="-4.03113">
        <ele>15.8</ele>
        <time>2022-06-10T10:10:47Z</time>
      </trkpt>
      <trkpt lat="48.68293" lon="-4.03113">
        <ele>15.8</ele>
        <time>2022-06-10T10:10:48Z</time>
      </trkpt>
      <trkpt lat="48.68293" lon="-4.03113">
        <ele>15.8</ele>
        <time>2022-06-10T10:10:49Z</time>
      </trkpt>
      <trkpt lat="48.68293" lon="-4.03113">
        <ele>15.8</ele>
        <time>2022-06-10T10:10:50Z</time>
      </trkpt>
      <trkpt lat="48.68293" lon="-4.03113">
        <ele>15.8</ele>
        <time>2022-06-10T10:10:51Z</time>
      </trkpt>
      <trkpt lat="48.68293" lon="-4.03113">
        <ele>15.8</ele>
        <time>2022-06-10T10:10:52Z</time>
      </trkpt>
      <trkpt lat="48.68293" lon="-4.03113">
        <ele>15.8</ele>
        <time>2022-06-10T10:10:53Z</time>
      </trkpt>
      <trkpt lat="48.68293" lon="-4.03113">
        <ele>15.8</ele>
        <time>2022-06-10T10:10:54Z</time>
      </trkpt>
      <trkpt lat="48.68293" lon="-4.03113">
        <ele>15.8</ele>
        <time>2022-06-10T10:10:55Z</time>
      </trkpt>
      <trkpt lat="48.68293" lon="-4.03113">
        <ele>15.8</ele>
        <time>2022-06-10T10:10:56Z</time>
      </trkpt>
      <trkpt lat="48.68293" lon="-4.03113">
        <ele>15.8</ele>
        <time>2022-06-10T10:10:57Z</time>
      </trkpt>
      <trkpt lat="48.68293" lon="-4.03113">
        <ele>15.8</ele>
        <time>2022-06-10T10:10:58Z</time>
      </trkpt>
      <trkpt lat="48.68293" lon="-4.03113">
        <ele>15.8</ele>
        <time>2022-06-10T10:10:59Z</time>
      </trkpt>
      <trkpt lat="48.68293" lon="-4.03113">
        <ele>15.8</ele>
        <time>2022-06-10T10:11:00Z</time>
      </trkpt>
      <trkpt lat="48.68293" lon="-4.03113">
        <ele>15.8</ele>
        <time>2022-06-10T10:11:01Z</time>
      </trkpt>
      <trkpt lat="48.68293" lon="-4.03113">
        <ele>15.8</ele>
        <time>2022-06-10T10:11:02Z</time>
      </trkpt>
      <trkpt lat="48.68293" lon="-4.03113">
        <ele>15.8</ele>
        <time>2022-06-10T10:11:03Z</time>
      </trkpt>
      <trkpt lat="48.68293" lon="-4.03113">
        <ele>15.8</ele>
        <time>2022-06-10T10:11:04Z</time>
      </trkpt>
      <trkpt lat="48.68293" lon="-4.03113">
        <ele>15.8</ele>
        <time>2022-06-10T10:11:05Z</time>
      </trkpt>
      <trkpt lat="48.68293" lon="-4.03113">
        <ele>15.8</ele>
        <time>2022-06-10T10:11:06Z</time>
      </trkpt>
      <trkpt lat="48.68293" lon="-4.03113">
        <ele>15.8</ele>
        <time>2022-06-10T10:11:07Z</time>
      </trkpt>
      <trkpt lat="48.68293" lon="-4.03113">
        <ele>15.8</ele>
        <time>2022-06-10T10:11:08Z</time>
      </trkpt>
      <trkpt lat="48.68293" lon="-4.03113">
        <ele>15.8</ele>
        <time>2022-06-10T10:11:09Z</time>
      </trkpt>
      <trkpt lat="48.68293" lon="-4.03113">
        <ele>15.8</ele>
        <time>2022-06-10T10:11:10Z</time>
      </trkpt>
      <trkpt lat="48.68293" lon="-4.03113">
        <ele>15.8</ele>
        <time>2022-06-10T10:11:11Z</time>
      </trkpt>
      <trkpt lat="48.68293" lon="-4.03113">
        <ele>15.8</ele>
        <time>2022-06-10T10:11:12Z</time>
      </trkpt>
      <trkpt lat="48.68293" lon="-4.03113">
        <ele>15.8</ele>
        <time>2022-06-10T10:11:13Z</time>
      </trkpt>
      <trkpt lat="48.68293" lon="-4.03113">
        <ele>15.8</ele>
        <time>2022-06-10T10:11:14Z</time>
      </trkpt>
      <trkpt lat="48.68293" lon="-4.03113">
        <ele>15.8</ele>
        <time>2022-06-10T10:11:15Z</time>
      </trkpt>
      <trkpt lat="48.68293" lon="-4.03113">
        <ele>15.8</ele>
        <time>2022-06-10T10:11:16Z</time>
      </trkpt>
      <trkpt lat="48.68293" lon="-4.03113">
        <ele>15.8</ele>
        <time>2022-06-10T10:11:17Z</time>
      </trkpt>
      <trkpt lat="48.68293" lon="-4.03113">
        <ele>15.8</ele>
        <time>2022-06-10T10:11:18Z</time>
      </trkpt>
      <trkpt lat="48.68293" lon="-4.03113">
        <ele>15.8</ele>
        <time>2022-06-10T10:11:19Z</time>
      </trkpt>
      <trkpt lat="48.68293" lon="-4.03113">
        <ele>15.8</ele>
        <time>2022-06-10T10:11:20Z</time>
      </trkpt>
      <trkpt lat="48.68293" lon="-4.03113">
        <ele>15.8</ele>
        <time>2022-06-10T10:11:21Z</time>
      </trkpt>
      <trkpt lat="48.68293" lon="-4.03113">
        <ele>15.8</ele>
        <time>2022-06-10T10:11:22Z</time>
      </trkpt>
      <trkpt lat="48.68293" lon="-4.03113">
        <ele>15.8</ele>
        <time>2022-06-10T10:11:23Z</time>
      </trkpt>
      <trkpt lat="48.68293" lon="-4.03113">
        <ele>15.8</ele>
        <time>2022-06-10T10:11:24Z</time>
      </trkpt>
      <trkpt lat="48.68293" lon="-4.03113">
        <ele>15.8</ele>
        <time>2022-06-10T10:11:25Z</time>
      </trkpt>
      <trkpt lat="48.68293" lon="-4.03113">
        <ele>15.8</ele>
        <time>2022-06-10T10:11:26Z</time>
      </trkpt>
      <trkpt lat="48.68293" lon="-4.03113">
        <ele>15.8</ele>
        <time>2022-06-10T10:11:27Z</time>
      </trkpt>
      <trkpt lat="48.68293" lon="-4.03113">
        <ele>15.8</ele>
        <time>2022-06-10T10:11:28Z</time>
      </trkpt>
      <trkpt lat="48.68293" lon="-4.03113">
        <ele>15.8</ele>
        <time>2022-06-10T10:11:29Z</time>
      </trkpt>
      <trkpt lat="48.68293" lon="-4.03113">
        <ele>15.8</ele>
        <time>2022-06-10T10:11:30Z</time>
      </trkpt>
      <trkpt lat="48.68293" lon="-4.03113">
        <ele>15.8</ele>
        <time>2022-06-10T10:11:31Z</time>
      </trkpt>
      <trkpt lat="48.68293" lon="-4.03113">
        <ele>15.8</ele>
        <time>2022-06-10T10:11:32Z</time>
      </trkpt>
      <trkpt lat="48.68293" lon="-4.03113">
        <ele>15.8</ele>
        <time>2022-06-10T10:11:33Z</time>
      </trkpt>
      <trkpt lat="48.68293" lon="-4.03113">
        <ele>15.8</ele>
        <time>2022-06-10T10:11:34Z</time>
      </trkpt>
      <trkpt lat="48.68293" lon="-4.03113">
        <ele>15.8</ele>
        <time>2022-06-10T10:11:35Z</time>
      </trkpt>
      <trkpt lat="48.68293" lon="-4.03113">
        <ele>15.8</ele>
        <time>2022-06-10T10:11:36Z</time>
      </trkpt>
      <trkpt lat="48.68293" lon="-4.03113">
        <ele>15.8</ele>
        <time>2022-06-10T10:11:37Z</time>
      </trkpt>
      <trkpt lat="48.68293" lon="-4.03113">
        <ele>15.8</ele>
        <time>2022-06-10T10:11:38Z</time>
      </trkpt>
      <trkpt lat="48.68293" lon="-4.03113">
        <ele>15.8</ele>
        <time>2022-06-10T10:11:39Z</time>
      </trkpt>
      <trkpt lat="48.68293" lon="-4.03113">
        <ele>15.8</ele>
        <time>2022-06-10T10:11:40Z</time>
      </trkpt>
      <trkpt lat="48.68293" lon="-4.03113">
        <ele>15.8</ele>
        <time>2022-06-10T10:11:41Z</time>
      </trkpt>
      <trkpt lat="48.68293" lon="-4.03113">
        <ele>15.8</ele>
        <time>2022-06-10T10:11:42Z</time>
      </trkpt>
      <trkpt lat="48.68293" lon="-4.03113">
        <ele>15.8</ele>
        <time>2022-06-10T10:11:43Z</time>
      </trkpt>
      <trkpt lat="48.68293" lon="-4.03113">
        <ele>15.8</ele>
        <time>2022-06-10T10:11:44Z</time>
      </trkpt>
      <trkpt lat="48.68293" lon="-4.03113">
        <ele>15.8</ele>
        <time>2022-06-10T10:11:45Z</time>
      </trkpt>
      <trkpt lat="48.68293" lon="-4.03113">
        <ele>15.8</ele>
        <time>2022-06-10T10:11:46Z</time>
      </trkpt>
      <trkpt lat="48.68293" lon="-4.03113">
        <ele>15.8</ele>
        <time>2022-06-10T10:11:47Z</time>
      </trkpt>
      <trkpt lat="48.68293" lon="-4.03113">
        <ele>15.8</ele>
        <time>2022-06-10T10:11:48Z</time>
      </trkpt>
      <trkpt lat="48.68293" lon="-4.03113">
        <ele>15.8</ele>
        <time>2022-06-10T10:11:49Z</time>
      </trkpt>
      <trkpt lat="48.68293" lon="-4.03113">
        <ele>15.8</ele>
        <time>2022-06-10T10:11:50Z</time>
      </trkpt>
      <trkpt lat="48.68293" lon="-4.03113">
        <ele>15.8</ele>
        <time>2022-06-10T10:11:51Z</time>
      </trkpt>
      <trkpt lat="48.68293" lon="-4.03113">
        <ele>15.8</ele>
        <time>2022-06-10T10:11:52Z</time>
      </trkpt>
      <trkpt lat="48.68293" lon="-4.03113">
        <ele>15.8</ele>
        <time>2022-06-10T10:11:53Z</time>
      </trkpt>
      <trkpt lat="48.68293" lon="-4.03113">
        <ele>15.8</ele>
        <time>2022-06-10T10:11:54Z</time>
      </trkpt>
      <trkpt lat="48.68293" lon="-4.03113">
        <ele>15.8</ele>
        <time>2022-06-10T10:11:55Z</time>
      </trkpt>
      <trkpt lat="48.68293" lon="-4.03113">
        <ele>15.8</ele>
        <time>2022-06-10T10:11:56Z</time>
      </trkpt>
      <trkpt lat="48.68293" lon="-4.03113">
        <ele>15.8</ele>
        <time>2022-06-10T10:11:57Z</time>
      </trkpt>
      <trkpt lat="48.68293" lon="-4.03113">
        <ele>15.8</ele>
        <time>2022-06-10T10:11:58Z</time>
      </trkpt>
      <trkpt lat="48.68293" lon="-4.03113">
        <ele>15.8</ele>
        <time>2022-06-10T10:11:59Z</time>
      </trkpt>
      <trkpt lat="48.68293" lon="-4.03113">
        <ele>15.8</ele>
        <time>2022-06-10T10:12:00Z</time>
      </trkpt>
      <trkpt lat="48.68293" lon="-4.03113">
        <ele>15.8</ele>
        <time>2022-06-10T10:12:01Z</time>
      </trkpt>
      <trkpt lat="48.68293" lon="-4.03113">
        <ele>15.8</ele>
        <time>2022-06-10T10:12:02Z</time>
      </trkpt>
      <trkpt lat="48.68293" lon="-4.03113">
        <ele>15.8</ele>
        <time>2022-06-10T10:12:03Z</time>
      </trkpt>
      <trkpt lat="48.68293" lon="-4.03113">
        <ele>15.8</ele>
        <time>2022-06-10T10:12:04Z</time>
      </trkpt>
      <trkpt lat="48.68293" lon="-4.03113">
        <ele>15.8</ele>
        <time>2022-06-10T10:12:05Z</time>
      </trkpt>
      <trkpt lat="48.68293" lon="-4.03113">
        <ele>15.8</ele>
        <time>2022-06-10T10:12:06Z</time>
      </trkpt>
      <trkpt lat="48.68293" lon="-4.03113">
        <ele>15.8</ele>
        <time>2022-06-10T10:12:07Z</time>
      </trkpt>
      <trkpt lat="48.68293" lon="-4.03113">
        <ele>15.8</ele>
        <time>2022-06-10T10:12:08Z</time>
      </trkpt>
      <trkpt lat="48.68293" lon="-4.03113">
        <ele>15.8</ele>
        <time>2022-06-10T10:12:09Z</time>
      </trkpt>
      <trkpt lat="48.68293" lon="-4.03113">
        <ele>15.8</ele>
        <time>2022-06-10T10:12:10Z</time>
      </trkpt>
      <trkpt lat="48.68293" lon="-4.03113">
        <ele>15.8</ele>
        <time>2022-06-10T10:12:11Z</time>
      </trkpt>
      <trkpt lat="48.68293" lon="-4.03113">
        <ele>15.8</ele>
        <time>2022-06-10T10:12:12Z</time>
      </trkpt>
      <trkpt lat="48.68293" lon="-4.03113">
        <ele>15.8</ele>
        <time>2022-06-10T10:12:13Z</time>
      </trkpt>
      <trkpt lat="48.68293" lon="-4.03113">
        <ele>15.8</ele>
        <time>2022-06-10T10:12:14Z</time>
      </trkpt>
      <trkpt lat="48.68293" lon="-4.03113">
        <ele>15.8</ele>
        <time>2022-06-10T10:12:15Z</time>
      </trkpt>
      <trkpt lat="48.68293" lon="-4.03113">
        <ele>15.8</ele>
        <time>2022-06-10T10:12:16Z</time>
      </trkpt>
      <trkpt lat="48.68293" lon="-4.03113">
        <ele>15.8</ele>
        <time>2022-06-10T10:12:17Z</time>
      </trkpt>
      <trkpt lat="48.68293" lon="-4.03113">
        <ele>15.8</ele>
        <time>2022-06-10T10:12:18Z</time>
      </trkpt>
      <trkpt lat="48.68293" lon="-4.03113">
        <ele>15.8</ele>
        <time>2022-06-10T10:12:19Z</time>
      </trkpt>
      <trkpt lat="48.68293" lon="-4.03113">
        <ele>15.8</ele>
        <time>2022-06-10T10:12:20Z</time>
      </trkpt>
      <trkpt lat="48.68293" lon="-4.03113">
        <ele>15.8</ele>
        <time>2022-06-10T10:12:21Z</time>
      </trkpt>
      <trkpt lat="48.68293" lon="-4.03113">
        <ele>15.8</ele>
        <time>2022-06-10T10:12:22Z</time>
      </trkpt>
      <trkpt lat="48.68293" lon="-4.03113">
        <ele>15.8</ele>
        <time>2022-06-10T10:12:23Z</time>
      </trkpt>
      <trkpt lat="48.68293" lon="-4.03113">
        <ele>15.8</ele>
        <time>2022-06-10T10:12:24Z</time>
      </trkpt>
      <trkpt lat="48.68293" lon="-4.03113">
        <ele>15.8</ele>
        <time>2022-06-10T10:12:25Z</time>
      </trkpt>
      <trkpt lat="48.68293" lon="-4.03113">
        <ele>15.8</ele>
        <time>2022-06-10T10:12:26Z</time>
      </trkpt>
      <trkpt lat="48.68293" lon="-4.03113">
        <ele>15.8</ele>
        <time>2022-06-10T10:12:27Z</time>
      </trkpt>
      <trkpt lat="48.68293" lon="-4.03113">
        <ele>15.8</ele>
        <time>2022-06-10T10:12:28Z</time>
      </trkpt>
      <trkpt lat="48.68293" lon="-4.03113">
        <ele>15.8</ele>
        <time>2022-06-10T10:12:29Z</time>
      </trkpt>
      <trkpt lat="48.68293" lon="-4.03113">
        <ele>15.8</ele>
        <time>2022-06-10T10:12:30Z</time>
      </trkpt>
      <trkpt lat="48.68293" lon="-4.03113">
        <ele>15.8</ele>
        <time>2022-06-10T10:12:31Z</time>
      </trkpt>
      <trkpt lat="48.68293" lon="-4.03113">
        <ele>15.8</ele>
        <time>2022-06-10T10:12:32Z</time>
      </trkpt>
      <trkpt lat="48.68293" lon="-4.03113">
        <ele>15.8</ele>
        <time>2022-06-10T10:12:33Z</time>
      </trkpt>
      <trkpt lat="48.68293" lon="-4.03113">
        <ele>15.8</ele>
        <time>2022-06-10T10:12:34Z</time>
      </trkpt>
      <trkpt lat="48.68293" lon="-4.03113">
        <ele>15.8</ele>
        <time>2022-06-10T10:12:35Z</time>
      </trkpt>
      <trkpt lat="48.68293" lon="-4.03113">
        <ele>15.8</ele>
        <time>2022-06-10T10:12:36Z</time>
      </trkpt>
      <trkpt lat="48.68293" lon="-4.03113">
        <ele>15.8</ele>
        <time>2022-06-10T10:12:37Z</time>
      </trkpt>
      <trkpt lat="48.68293" lon="-4.03113">
        <ele>15.8</ele>
        <time>2022-06-10T10:12:38Z</time>
      </trkpt>
      <trkpt lat="48.68293" lon="-4.03113">
        <ele>15.8</ele>
        <time>2022-06-10T10:12:39Z</time>
      </trkpt>
      <trkpt lat="48.68293" lon="-4.03113">
        <ele>15.8</ele>
        <time>2022-06-10T10:12:40Z</time>
      </trkpt>
      <trkpt lat="48.68293" lon="-4.03113">
        <ele>15.8</ele>
        <time>2022-06-10T10:12:41Z</time>
      </trkpt>
      <trkpt lat="48.68293" lon="-4.03113">
        <ele>15.8</ele>
        <time>2022-06-10T10:12:42Z</time>
      </trkpt>
      <trkpt lat="48.68293" lon="-4.03113">
        <ele>15.8</ele>
        <time>2022-06-10T10:12:43Z</time>
      </trkpt>
      <trkpt lat="48.68293" lon="-4.03113">
        <ele>15.8</ele>
        <time>2022-06-10T10:12:44Z</time>
      </trkpt>
      <trkpt lat="48.68293" lon="-4.03113">
        <ele>15.8</ele>
        <time>2022-06-10T10:12:45Z</time>
      </trkpt>
      <trkpt lat="48.68293" lon="-4.03113">
        <ele>15.8</ele>
        <time>2022-06-10T10:12:46Z</time>
      </trkpt>
      <trkpt lat="48.68293" lon="-4.03113">
        <ele>15.8</ele>
        <time>2022-06-10T10:12:47Z</time>
      </trkpt>
      <trkpt lat="48.68293" lon="-4.03113">
        <ele>15.8</ele>
        <time>2022-06-10T10:12:48Z</time>
      </trkpt>
      <trkpt lat="48.68293" lon="-4.03113">
        <ele>15.8</ele>
        <time>2022-06-10T10:12:49Z</time>
      </trkpt>
      <trkpt lat="48.68293" lon="-4.03113">
        <ele>15.8</ele>
        <time>2022-06-10T10:12:50Z</time>
      </trkpt>
      <trkpt lat="48.68293" lon="-4.03113">
        <ele>15.8</ele>
        <time>2022-06-10T10:12:51Z</time>
      </trkpt>
      <trkpt lat="48.68293" lon="-4.03113">
        <ele>15.8</ele>
        <time>2022-06-10T10:12:52Z</time>
      </trkpt>
      <trkpt lat="48.68293" lon="-4.03113">
        <ele>15.8</ele>
        <time>2022-06-10T10:12:53Z</time>
      </trkpt>
      <trkpt lat="48.68293" lon="-4.03113">
        <ele>15.8</ele>
        <time>2022-06-10T10:12:54Z</time>
      </trkpt>
      <trkpt lat="48.68293" lon="-4.03113">
        <ele>15.8</ele>
        <time>2022-06-10T10:12:55Z</time>
      </trkpt>
      <trkpt lat="48.68293" lon="-4.03113">
        <ele>15.8</ele>
        <time>2022-06-10T10:12:56Z</time>
      </trkpt>
      <trkpt lat="48.68293" lon="-4.03113">
        <ele>15.8</ele>
        <time>2022-06-10T10:12:57Z</time>
      </trkpt>
      <trkpt lat="48.68293" lon="-4.03113">
        <ele>15.8</ele>
        <time>2022-06-10T10:12:58Z</time>
      </trkpt>
      <trkpt lat="48.68293" lon="-4.03113">
        <ele>15.8</ele>
        <time>2022-06-10T10:12:59Z</time>
      </trkpt>
      <trkpt lat="48.68293" lon="-4.03113">
        <ele>15.8</ele>
        <time>2022-06-10T10:13:00Z</time>
      </trkpt>
      <trkpt lat="48.68293" lon="-4.03113">
        <ele>15.8</ele>
        <time>2022-06-10T10:13:01Z</time>
      </trkpt>
      <trkpt lat="48.68293" lon="-4.03113">
        <ele>15.8</ele>
        <time>2022-06-10T10:13:02Z</time>
      </trkpt>
      <trkpt lat="48.68293" lon="-4.03113">
        <ele>15.8</ele>
        <time>2022-06-10T10:13:03Z</time>
      </trkpt>
      <trkpt lat="48.68293" lon="-4.03113">
        <ele>15.8</ele>
        <time>2022-06-10T10:13:04Z</time>
      </trkpt>
      <trkpt lat="48.68293" lon="-4.03113">
        <ele>15.8</ele>
        <time>2022-06-10T10:13:05Z</time>
      </trkpt>
      <trkpt lat="48.68293" lon="-4.03113">
        <ele>15.8</ele>
        <time>2022-06-10T10:13:06Z</time>
      </trkpt>
      <trkpt lat="48.68293" lon="-4.03113">
        <ele>15.8</ele>
        <time>2022-06-10T10:13:07Z</time>
      </trkpt>
      <trkpt lat="48.68293" lon="-4.03113">
        <ele>15.8</ele>
        <time>2022-06-10T10:13:08Z</time>
      </trkpt>
      <trkpt lat="48.68293" lon="-4.03113">
        <ele>15.8</ele>
        <time>2022-06-10T10:13:09Z</time>
      </trkpt>
      <trkpt lat="48.68293" lon="-4.03113">
        <ele>15.8</ele>
        <time>2022-06-10T10:13:10Z</time>
      </trkpt>
      <trkpt lat="48.68293" lon="-4.03113">
        <ele>15.8</ele>
        <time>2022-06-10T10:13:11Z</time>
      </trkpt>
      <trkpt lat="48.68293" lon="-4.03113">
        <ele>15.8</ele>
        <time>2022-06-10T10:13:12Z</time>
      </trkpt>
      <trkpt lat="48.68293" lon="-4.03113">
        <ele>15.8</ele>
        <time>2022-06-10T10:13:13Z</time>
      </trkpt>
      <trkpt lat="48.68293" lon="-4.03113">
        <ele>15.8</ele>
        <time>2022-06-10T10:13:14Z</time>
      </trkpt>
      <trkpt lat="48.68293" lon="-4.03113">
        <ele>15.8</ele>
        <time>2022-06-10T10:13:15Z</time>
      </trkpt>
      <trkpt lat="48.68293" lon="-4.03113">
        <ele>15.8</ele>
        <time>2022-06-10T10:13:16Z</time>
      </trkpt>
      <trkpt lat="48.68293" lon="-4.03113">
        <ele>15.8</ele>
        <time>2022-06-10T10:13:17Z</time>
      </trkpt>
      <trkpt lat="48.68293" lon="-4.03113">
        <ele>15.8</ele>
        <time>2022-06-10T10:13:18Z</time>
      </trkpt>
      <trkpt lat="48.68293" lon="-4.03113">
        <ele>15.8</ele>
        <time>2022-06-10T10:13:19Z</time>
      </trkpt>
      <trkpt lat="48.68293" lon="-4.03113">
        <ele>15.8</ele>
        <time>2022-06-10T10:13:20Z</time>
      </trkpt>
      <trkpt lat="48.68293" lon="-4.03113">
        <ele>15.8</ele>
        <time>2022-06-10T10:13:21Z</time>
      </trkpt>
      <trkpt lat="48.68293" lon="-4.03113">
        <ele>15.8</ele>
        <time>2022-06-10T10:13:22Z</time>
      </trkpt>
      <trkpt lat="48.68293" lon="-4.03113">
        <ele>15.8</ele>
        <time>2022-06-10T10:13:23Z</time>
      </trkpt>
      <trkpt lat="48.68293" lon="-4.03113">
        <ele>15.8</ele>
        <time>2022-06-10T10:13:24Z</time>
      </trkpt>
      <trkpt lat="48.68293" lon="-4.03113">
        <ele>15.8</ele>
        <time>2022-06-10T10:13:25Z</time>
      </trkpt>
      <trkpt lat="48.68293" lon="-4.03113">
        <ele>15.8</ele>
        <time>2022-06-10T10:13:26Z</time>
      </trkpt>
      <trkpt lat="48.68293" lon="-4.03113">
        <ele>15.8</ele>
        <time>2022-06-10T10:13:27Z</time>
      </trkpt>
      <trkpt lat="48.68293" lon="-4.03113">
        <ele>15.8</ele>
        <time>2022-06-10T10:13:28Z</time>
      </trkpt>
      <trkpt lat="48.68293" lon="-4.03113">
        <ele>15.8</ele>
        <time>2022-06-10T10:13:29Z</time>
      </trkpt>
      <trkpt lat="48.68293" lon="-4.03113">
        <ele>15.8</ele>
        <time>2022-06-10T10:13:30Z</time>
      </trkpt>
      <trkpt lat="48.68293" lon="-4.03113">
        <ele>15.8</ele>
        <time>2022-06-10T10:13:31Z</time>
      </trkpt>
      <trkpt lat="48.68293" lon="-4.03113">
        <ele>15.8</ele>
        <time>2022-06-10T10:13:32Z</time>
      </trkpt>
      <trkpt lat="48.68293" lon="-4.03113">
        <ele>15.8</ele>
        <time>2022-06-10T10:13:33Z</time>
      </trkpt>
      <trkpt lat="48.68293" lon="-4.03113">
        <ele>15.8</ele>
        <time>2022-06-10T10:13:34Z</time>
      </trkpt>
      <trkpt lat="48.68293" lon="-4.03113">
        <ele>15.8</ele>
        <time>2022-06-10T10:13:35Z</time>
      </trkpt>
      <trkpt lat="48.68293" lon="-4.03113">
        <ele>15.8</ele>
        <time>2022-06-10T10:13:36Z</time>
      </trkpt>
      <trkpt lat="48.68293" lon="-4.03113">
        <ele>15.8</ele>
        <time>2022-06-10T10:13:37Z</time>
      </trkpt>
      <trkpt lat="48.68293" lon="-4.03113">
        <ele>15.8</ele>
        <time>2022-06-10T10:13:38Z</time>
      </trkpt>
      <trkpt lat="48.68293" lon="-4.03113">
        <ele>15.8</ele>
        <time>2022-06-10T10:13:39Z</time>
      </trkpt>
      <trkpt lat="48.68293" lon="-4.03113">
        <ele>15.8</ele>
        <time>2022-06-10T10:13:40Z</time>
      </trkpt>
      <trkpt lat="48.68293" lon="-4.03113">
        <ele>15.8</ele>
        <time>2022-06-10T10:13:41Z</time>
      </trkpt>
      <trkpt lat="48.68293" lon="-4.03113">
        <ele>15.8</ele>
        <time>2022-06-10T10:13:42Z</time>
      </trkpt>
      <trkpt lat="48.68293" lon="-4.03113">
        <ele>15.8</ele>
        <time>2022-06-10T10:13:43Z</time>
      </trkpt>
      <trkpt lat="48.68293" lon="-4.03113">
        <ele>15.8</ele>
        <time>2022-06-10T10:13:44Z</time>
      </trkpt>
      <trkpt lat="48.68293" lon="-4.03113">
        <ele>15.8</ele>
        <time>2022-06-10T10:13:45Z</time>
      </trkpt>
      <trkpt lat="48.68293" lon="-4.03113">
        <ele>15.8</ele>
        <time>2022-06-10T10:13:46Z</time>
      </trkpt>
      <trkpt lat="48.68293" lon="-4.03113">
        <ele>15.8</ele>
        <time>2022-06-10T10:13:47Z</time>
      </trkpt>
      <trkpt lat="48.68293" lon="-4.03113">
        <ele>15.8</ele>
        <time>2022-06-10T10:13:48Z</time>
      </trkpt>
      <trkpt lat="48.68293" lon="-4.03113">
        <ele>15.8</ele>
        <time>2022-06-10T10:13:49Z</time>
      </trkpt>
      <trkpt lat="48.68293" lon="-4.03113">
        <ele>15.8</ele>
        <time>2022-06-10T10:13:50Z</time>
      </trkpt>
      <trkpt lat="48.68293" lon="-4.03113">
        <ele>15.8</ele>
        <time>2022-06-10T10:13:51Z</time>
      </trkpt>
      <trkpt lat="48.68293" lon="-4.03113">
        <ele>15.8</ele>
        <time>2022-06-10T10:13:52Z</time>
      </trkpt>
      <trkpt lat="48.68293" lon="-4.03113">
        <ele>15.8</ele>
        <time>2022-06-10T10:13:53Z</time>
      </trkpt>
      <trkpt lat="48.68293" lon="-4.03113">
        <ele>15.8</ele>
        <time>2022-06-10T10:13:54Z</time>
      </trkpt>
      <trkpt lat="48.68293" lon="-4.03113">
        <ele>15.8</ele>
        <time>2022-06-10T10:13:56Z</time>
      </trkpt>
      <trkpt lat="48.68293" lon="-4.03113">
        <ele>15.8</ele>
        <time>2022-06-10T10:13:57Z</time>
      </trkpt>
      <trkpt lat="48.68293" lon="-4.03113">
        <ele>15.8</ele>
        <time>2022-06-10T10:13:58Z</time>
      </trkpt>
      <trkpt lat="48.68293" lon="-4.03113">
        <ele>15.8</ele>
        <time>2022-06-10T10:13:59Z</time>
      </trkpt>
      <trkpt lat="48.68293" lon="-4.03113">
        <ele>15.8</ele>
        <time>2022-06-10T10:14:00Z</time>
      </trkpt>
      <trkpt lat="48.68293" lon="-4.03113">
        <ele>15.8</ele>
        <time>2022-06-10T10:14:01Z</time>
      </trkpt>
      <trkpt lat="48.68293" lon="-4.03113">
        <ele>15.8</ele>
        <time>2022-06-10T10:14:02Z</time>
      </trkpt>
      <trkpt lat="48.68293" lon="-4.03113">
        <ele>15.8</ele>
        <time>2022-06-10T10:14:03Z</time>
      </trkpt>
      <trkpt lat="48.68293" lon="-4.03113">
        <ele>15.8</ele>
        <time>2022-06-10T10:14:04Z</time>
      </trkpt>
      <trkpt lat="48.68293" lon="-4.03114">
        <ele>15.8</ele>
        <time>2022-06-10T10:14:05Z</time>
      </trkpt>
      <trkpt lat="48.68293" lon="-4.03113">
        <ele>15.8</ele>
        <time>2022-06-10T10:14:06Z</time>
      </trkpt>
      <trkpt lat="48.68293" lon="-4.03113">
        <ele>15.8</ele>
        <time>2022-06-10T10:14:07Z</time>
      </trkpt>
      <trkpt lat="48.68293" lon="-4.03113">
        <ele>15.8</ele>
        <time>2022-06-10T10:14:08Z</time>
      </trkpt>
      <trkpt lat="48.68293" lon="-4.03113">
        <ele>15.8</ele>
        <time>2022-06-10T10:14:09Z</time>
      </trkpt>
      <trkpt lat="48.68293" lon="-4.03112">
        <ele>15.8</ele>
        <time>2022-06-10T10:14:10Z</time>
      </trkpt>
      <trkpt lat="48.68293" lon="-4.03112">
        <ele>15.8</ele>
        <time>2022-06-10T10:14:11Z</time>
      </trkpt>
      <trkpt lat="48.68293" lon="-4.03112">
        <ele>15.8</ele>
        <time>2022-06-10T10:14:12Z</time>
      </trkpt>
      <trkpt lat="48.68293" lon="-4.03112">
        <ele>15.8</ele>
        <time>2022-06-10T10:14:13Z</time>
      </trkpt>
      <trkpt lat="48.68293" lon="-4.03112">
        <ele>15.8</ele>
        <time>2022-06-10T10:14:14Z</time>
      </trkpt>
      <trkpt lat="48.68293" lon="-4.03112">
        <ele>15.8</ele>
        <time>2022-06-10T10:14:16Z</time>
      </trkpt>
      <trkpt lat="48.68293" lon="-4.03111">
        <ele>15.8</ele>
        <time>2022-06-10T10:14:17Z</time>
      </trkpt>
      <trkpt lat="48.68294" lon="-4.03111">
        <ele>15.8</ele>
        <time>2022-06-10T10:14:18Z</time>
      </trkpt>
      <trkpt lat="48.68294" lon="-4.03111">
        <ele>15.8</ele>
        <time>2022-06-10T10:14:19Z</time>
      </trkpt>
      <trkpt lat="48.68295" lon="-4.03112">
        <ele>15.8</ele>
        <time>2022-06-10T10:14:20Z</time>
      </trkpt>
      <trkpt lat="48.68296" lon="-4.03114">
        <ele>15.8</ele>
        <time>2022-06-10T10:14:21Z</time>
      </trkpt>
      <trkpt lat="48.68298" lon="-4.03117">
        <ele>15.8</ele>
        <time>2022-06-10T10:14:23Z</time>
      </trkpt>
      <trkpt lat="48.68298" lon="-4.03119">
        <ele>15.8</ele>
        <time>2022-06-10T10:14:24Z</time>
      </trkpt>
      <trkpt lat="48.68299" lon="-4.03123">
        <ele>15.7</ele>
        <time>2022-06-10T10:14:25Z</time>
      </trkpt>
      <trkpt lat="48.68299" lon="-4.03125">
        <ele>15.7</ele>
        <time>2022-06-10T10:14:26Z</time>
      </trkpt>
      <trkpt lat="48.68299" lon="-4.03127">
        <ele>15.7</ele>
        <time>2022-06-10T10:14:27Z</time>
      </trkpt>
      <trkpt lat="48.68299" lon="-4.0313">
        <ele>15.7</ele>
        <time>2022-06-10T10:14:28Z</time>
      </trkpt>
      <trkpt lat="48.68299" lon="-4.03133">
        <ele>15.7</ele>
        <time>2022-06-10T10:14:29Z</time>
      </trkpt>
      <trkpt lat="48.68299" lon="-4.03134">
        <ele>15.7</ele>
        <time>2022-06-10T10:14:31Z</time>
      </trkpt>
      <trkpt lat="48.68299" lon="-4.03136">
        <ele>15.7</ele>
        <time>2022-06-10T10:14:32Z</time>
      </trkpt>
      <trkpt lat="48.68298" lon="-4.03138">
        <ele>15.7</ele>
        <time>2022-06-10T10:14:33Z</time>
      </trkpt>
      <trkpt lat="48.68298" lon="-4.03139">
        <ele>15.7</ele>
        <time>2022-06-10T10:14:34Z</time>
      </trkpt>
      <trkpt lat="48.68298" lon="-4.03141">
        <ele>15.7</ele>
        <time>2022-06-10T10:14:35Z</time>
      </trkpt>
      <trkpt lat="48.68298" lon="-4.03142">
        <ele>15.7</ele>
        <time>2022-06-10T10:14:36Z</time>
      </trkpt>
      <trkpt lat="48.68298" lon="-4.03144">
        <ele>15.7</ele>
        <time>2022-06-10T10:14:37Z</time>
      </trkpt>
      <trkpt lat="48.68298" lon="-4.03145">
        <ele>15.6</ele>
        <time>2022-06-10T10:14:39Z</time>
      </trkpt>
      <trkpt lat="48.68298" lon="-4.03147">
        <ele>15.6</ele>
        <time>2022-06-10T10:14:40Z</time>
      </trkpt>
      <trkpt lat="48.67986" lon="-4.04808">
        <ele>20.5</ele>
        <time>2022-06-10T11:26:29Z</time>
      </trkpt>
      <trkpt lat="48.67986" lon="-4.04808">
        <ele>20.5</ele>
        <time>2022-06-10T11:26:30Z</time>
      </trkpt>
      <trkpt lat="48.67986" lon="-4.04809">
        <ele>20.5</ele>
        <time>2022-06-10T11:26:31Z</time>
      </trkpt>
      <trkpt lat="48.67986" lon="-4.04809">
        <ele>20.5</ele>
        <time>2022-06-10T11:26:32Z</time>
      </trkpt>
      <trkpt lat="48.67986" lon="-4.04809">
        <ele>20.5</ele>
        <time>2022-06-10T11:26:33Z</time>
      </trkpt>
      <trkpt lat="48.67986" lon="-4.04809">
        <ele>20.5</ele>
        <time>2022-06-10T11:26:34Z</time>
      </trkpt>
      <trkpt lat="48.67987" lon="-4.04809">
        <ele>20.5</ele>
        <time>2022-06-10T11:26:35Z</time>
      </trkpt>
      <trkpt lat="48.67988" lon="-4.04809">
        <ele>20.5</ele>
        <time>2022-06-10T11:26:36Z</time>
      </trkpt>
      <trkpt lat="48.67989" lon="-4.04809">
        <ele>20.5</ele>
        <time>2022-06-10T11:26:37Z</time>
      </trkpt>
      <trkpt lat="48.67987" lon="-4.04808">
        <ele>20.5</ele>
        <time>2022-06-10T11:26:38Z</time>
      </trkpt>
      <trkpt lat="48.67988" lon="-4.04807">
        <ele>20.6</ele>
        <time>2022-06-10T11:26:39Z</time>
      </trkpt>
      <trkpt lat="48.67989" lon="-4.04807">
        <ele>20.6</ele>
        <time>2022-06-10T11:26:41Z</time>
      </trkpt>
      <trkpt lat="48.6799" lon="-4.04806">
        <ele>20.6</ele>
        <time>2022-06-10T11:26:42Z</time>
      </trkpt>
      <trkpt lat="48.67991" lon="-4.04805">
        <ele>20.6</ele>
        <time>2022-06-10T11:26:43Z</time>
      </trkpt>
      <trkpt lat="48.67991" lon="-4.04805">
        <ele>20.6</ele>
        <time>2022-06-10T11:26:44Z</time>
      </trkpt>
      <trkpt lat="48.67991" lon="-4.04805">
        <ele>20.6</ele>
        <time>2022-06-10T11:26:45Z</time>
      </trkpt>
      <trkpt lat="48.67991" lon="-4.04805">
        <ele>20.6</ele>
        <time>2022-06-10T11:26:46Z</time>
      </trkpt>
      <trkpt lat="48.67991" lon="-4.04805">
        <ele>20.6</ele>
        <time>2022-06-10T11:26:47Z</time>
      </trkpt>
      <trkpt lat="48.67991" lon="-4.04805">
        <ele>20.6</ele>
        <time>2022-06-10T11:26:48Z</time>
      </trkpt>
      <trkpt lat="48.67992" lon="-4.04805">
        <ele>20.6</ele>
        <time>2022-06-10T11:26:49Z</time>
      </trkpt>
      <trkpt lat="48.67992" lon="-4.04805">
        <ele>20.6</ele>
        <time>2022-06-10T11:26:50Z</time>
      </trkpt>
      <trkpt lat="48.67992" lon="-4.04805">
        <ele>20.6</ele>
        <time>2022-06-10T11:26:51Z</time>
      </trkpt>
      <trkpt lat="48.67992" lon="-4.04805">
        <ele>20.6</ele>
        <time>2022-06-10T11:26:52Z</time>
      </trkpt>
      <trkpt lat="48.67992" lon="-4.04805">
        <ele>20.6</ele>
        <time>2022-06-10T11:26:53Z</time>
      </trkpt>
      <trkpt lat="48.67993" lon="-4.04805">
        <ele>20.6</ele>
        <time>2022-06-10T11:26:55Z</time>
      </trkpt>
      <trkpt lat="48.67993" lon="-4.04804">
        <ele>20.6</ele>
        <time>2022-06-10T11:26:56Z</time>
      </trkpt>
      <trkpt lat="48.67994" lon="-4.04803">
        <ele>20.6</ele>
        <time>2022-06-10T11:26:57Z</time>
      </trkpt>
      <trkpt lat="48.67995" lon="-4.04801">
        <ele>20.7</ele>
        <time>2022-06-10T11:26:58Z</time>
      </trkpt>
      <trkpt lat="48.67996" lon="-4.048">
        <ele>20.7</ele>
        <time>2022-06-10T11:26:59Z</time>
      </trkpt>
      <trkpt lat="48.67998" lon="-4.04797">
        <ele>20.7</ele>
        <time>2022-06-10T11:27:00Z</time>
      </trkpt>
      <trkpt lat="48.67998" lon="-4.04796">
        <ele>20.7</ele>
        <time>2022-06-10T11:27:01Z</time>
      </trkpt>
      <trkpt lat="48.67999" lon="-4.04795">
        <ele>20.7</ele>
        <time>2022-06-10T11:27:02Z</time>
      </trkpt>
      <trkpt lat="48.68" lon="-4.04794">
        <ele>20.7</ele>
        <time>2022-06-10T11:27:03Z</time>
      </trkpt>
      <trkpt lat="48.68002" lon="-4.04792">
        <ele>20.7</ele>
        <time>2022-06-10T11:27:05Z</time>
      </trkpt>
      <trkpt lat="48.68002" lon="-4.04792">
        <ele>20.7</ele>
        <time>2022-06-10T11:27:06Z</time>
      </trkpt>
      <trkpt lat="48.68003" lon="-4.04792">
        <ele>20.8</ele>
        <time>2022-06-10T11:27:07Z</time>
      </trkpt>
      <trkpt lat="48.68004" lon="-4.04791">
        <ele>20.8</ele>
        <time>2022-06-10T11:27:08Z</time>
      </trkpt>
      <trkpt lat="48.68005" lon="-4.0479">
        <ele>20.8</ele>
        <time>2022-06-10T11:27:09Z</time>
      </trkpt>
      <trkpt lat="48.68006" lon="-4.0479">
        <ele>20.8</ele>
        <time>2022-06-10T11:27:10Z</time>
      </trkpt>
      <trkpt lat="48.68006" lon="-4.04789">
        <ele>20.8</ele>
        <time>2022-06-10T11:27:11Z</time>
      </trkpt>
      <trkpt lat="48.68007" lon="-4.04788">
        <ele>20.8</ele>
        <time>2022-06-10T11:27:12Z</time>
      </trkpt>
      <trkpt lat="48.68008" lon="-4.04788">
        <ele>20.8</ele>
        <time>2022-06-10T11:27:13Z</time>
      </trkpt>
      <trkpt lat="48.68009" lon="-4.04787">
        <ele>20.8</ele>
        <time>2022-06-10T11:27:14Z</time>
      </trkpt>
      <trkpt lat="48.6801" lon="-4.04786">
        <ele>20.8</ele>
        <time>2022-06-10T11:27:15Z</time>
      </trkpt>
      <trkpt lat="48.68011" lon="-4.04785">
        <ele>20.8</ele>
        <time>2022-06-10T11:27:16Z</time>
      </trkpt>
      <trkpt lat="48.68011" lon="-4.04785">
        <ele>20.8</ele>
        <time>2022-06-10T11:27:18Z</time>
      </trkpt>
      <trkpt lat="48.68012" lon="-4.04784">
        <ele>20.8</ele>
        <time>2022-06-10T11:27:19Z</time>
      </trkpt>
      <trkpt lat="48.68012" lon="-4.04784">
        <ele>20.8</ele>
        <time>2022-06-10T11:27:20Z</time>
      </trkpt>
      <trkpt lat="48.68012" lon="-4.04783">
        <ele>20.8</ele>
        <time>2022-06-10T11:27:21Z</time>
      </trkpt>
      <trkpt lat="48.68013" lon="-4.04783">
        <ele>20.8</ele>
        <time>2022-06-10T11:27:22Z</time>
      </trkpt>
      <trkpt lat="48.68013" lon="-4.04783">
        <ele>20.8</ele>
        <time>2022-06-10T11:27:23Z</time>
      </trkpt>
      <trkpt lat="48.68015" lon="-4.0478">
        <ele>20.8</ele>
        <time>2022-06-10T11:27:25Z</time>
      </trkpt>
      <trkpt lat="48.68015" lon="-4.04779">
        <ele>20.8</ele>
        <time>2022-06-10T11:27:26Z</time>
      </trkpt>
      <trkpt lat="48.68016" lon="-4.04779">
        <ele>20.8</ele>
        <time>2022-06-10T11:27:27Z</time>
      </trkpt>
      <trkpt lat="48.68017" lon="-4.04777">
        <ele>20.8</ele>
        <time>2022-06-10T11:27:28Z</time>
      </trkpt>
      <trkpt lat="48.68017" lon="-4.04776">
        <ele>20.8</ele>
        <time>2022-06-10T11:27:29Z</time>
      </trkpt>
      <trkpt lat="48.68018" lon="-4.04775">
        <ele>20.8</ele>
        <time>2022-06-10T11:27:30Z</time>
      </trkpt>
      <trkpt lat="48.68019" lon="-4.04774">
        <ele>20.8</ele>
        <time>2022-06-10T11:27:31Z</time>
      </trkpt>
      <trkpt lat="48.6802" lon="-4.04772">
        <ele>20.8</ele>
        <time>2022-06-10T11:27:32Z</time>
      </trkpt>
      <trkpt lat="48.6802" lon="-4.04771">
        <ele>20.8</ele>
        <time>2022-06-10T11:27:33Z</time>
      </trkpt>
      <trkpt lat="48.68021" lon="-4.0477">
        <ele>20.8</ele>
        <time>2022-06-10T11:27:34Z</time>
      </trkpt>
      <trkpt lat="48.68022" lon="-4.04769">
        <ele>20.8</ele>
        <time>2022-06-10T11:27:36Z</time>
      </trkpt>
      <trkpt lat="48.68022" lon="-4.04769">
        <ele>20.7</ele>
        <time>2022-06-10T11:27:37Z</time>
      </trkpt>
      <trkpt lat="48.68023" lon="-4.04769">
        <ele>20.7</ele>
        <time>2022-06-10T11:27:38Z</time>
      </trkpt>
      <trkpt lat="48.68024" lon="-4.04767">
        <ele>20.7</ele>
        <time>2022-06-10T11:27:39Z</time>
      </trkpt>
      <trkpt lat="48.68024" lon="-4.04766">
        <ele>20.7</ele>
        <time>2022-06-10T11:27:40Z</time>
      </trkpt>
      <trkpt lat="48.68025" lon="-4.04764">
        <ele>20.7</ele>
        <time>2022-06-10T11:27:41Z</time>
      </trkpt>
      <trkpt lat="48.68025" lon="-4.04762">
        <ele>20.7</ele>
        <time>2022-06-10T11:27:42Z</time>
      </trkpt>
      <trkpt lat="48.68026" lon="-4.04759">
        <ele>20.7</ele>
        <time>2022-06-10T11:27:43Z</time>
      </trkpt>
      <trkpt lat="48.68026" lon="-4.04757">
        <ele>20.6</ele>
        <time>2022-06-10T11:27:45Z</time>
      </trkpt>
      <trkpt lat="48.68027" lon="-4.04755">
        <ele>20.6</ele>
        <time>2022-06-10T11:27:46Z</time>
      </trkpt>
      <trkpt lat="48.68028" lon="-4.04753">
        <ele>20.6</ele>
        <time>2022-06-10T11:27:47Z</time>
      </trkpt>
      <trkpt lat="48.68029" lon="-4.04751">
        <ele>20.6</ele>
        <time>2022-06-10T11:27:48Z</time>
      </trkpt>
      <trkpt lat="48.6803" lon="-4.04749">
        <ele>20.5</ele>
        <time>2022-06-10T11:27:49Z</time>
      </trkpt>
      <trkpt lat="48.68031" lon="-4.04747">
        <ele>20.5</ele>
        <time>2022-06-10T11:27:50Z</time>
      </trkpt>
      <trkpt lat="48.68032" lon="-4.04746">
        <ele>20.5</ele>
        <time>2022-06-10T11:27:51Z</time>
      </trkpt>
      <trkpt lat="48.68033" lon="-4.04744">
        <ele>20.5</ele>
        <time>2022-06-10T11:27:52Z</time>
      </trkpt>
      <trkpt lat="48.68034" lon="-4.04743">
        <ele>20.5</ele>
        <time>2022-06-10T11:27:53Z</time>
      </trkpt>
      <trkpt lat="48.68035" lon="-4.04742">
        <ele>20.4</ele>
        <time>2022-06-10T11:27:55Z</time>
      </trkpt>
      <trkpt lat="48.68036" lon="-4.04741">
        <ele>20.4</ele>
        <time>2022-06-10T11:27:56Z</time>
      </trkpt>
      <trkpt lat="48.68037" lon="-4.04741">
        <ele>20.5</ele>
        <time>2022-06-10T11:27:57Z</time>
      </trkpt>
      <trkpt lat="48.68038" lon="-4.0474">
        <ele>20.5</ele>
        <time>2022-06-10T11:27:58Z</time>
      </trkpt>
      <trkpt lat="48.6804" lon="-4.0474">
        <ele>20.5</ele>
        <time>2022-06-10T11:27:59Z</time>
      </trkpt>
      <trkpt lat="48.68041" lon="-4.0474">
        <ele>20.5</ele>
        <time>2022-06-10T11:28:00Z</time>
      </trkpt>
      <trkpt lat="48.68042" lon="-4.0474">
        <ele>20.6</ele>
        <time>2022-06-10T11:28:01Z</time>
      </trkpt>
      <trkpt lat="48.68043" lon="-4.04741">
        <ele>20.6</ele>
        <time>2022-06-10T11:28:03Z</time>
      </trkpt>
      <trkpt lat="48.68044" lon="-4.04742">
        <ele>20.6</ele>
        <time>2022-06-10T11:28:04Z</time>
      </trkpt>
      <trkpt lat="48.68045" lon="-4.04743">
        <ele>20.6</ele>
        <time>2022-06-10T11:28:05Z</time>
      </trkpt>
      <trkpt lat="48.68047" lon="-4.04744">
        <ele>20.6</ele>
        <time>2022-06-10T11:28:06Z</time>
      </trkpt>
      <trkpt lat="48.68048" lon="-4.04745">
        <ele>20.6</ele>
        <time>2022-06-10T11:28:07Z</time>
      </trkpt>
      <trkpt lat="48.68049" lon="-4.04746">
        <ele>20.6</ele>
        <time>2022-06-10T11:28:08Z</time>
      </trkpt>
      <trkpt lat="48.6805" lon="-4.04747">
        <ele>20.6</ele>
        <time>2022-06-10T11:28:09Z</time>
      </trkpt>
      <trkpt lat="48.68051" lon="-4.04748">
        <ele>20.5</ele>
        <time>2022-06-10T11:28:10Z</time>
      </trkpt>
      <trkpt lat="48.68052" lon="-4.04749">
        <ele>20.5</ele>
        <time>2022-06-10T11:28:11Z</time>
      </trkpt>
      <trkpt lat="48.68047" lon="-4.04745">
        <ele>20.5</ele>
        <time>2022-06-10T11:29:46Z</time>
      </trkpt>
      <trkpt lat="48.68063" lon="-4.04761">
        <ele>20.3</ele>
        <time>2022-06-10T11:29:49Z</time>
      </trkpt>
      <trkpt lat="48.68073" lon="-4.04776">
        <ele>20.1</ele>
        <time>2022-06-10T11:29:50Z</time>
      </trkpt>
      <trkpt lat="48.68084" lon="-4.04796">
        <ele>19.9</ele>
        <time>2022-06-10T11:29:51Z</time>
      </trkpt>
      <trkpt lat="48.6809" lon="-4.04804">
        <ele>19.9</ele>
        <time>2022-06-10T11:29:52Z</time>
      </trkpt>
      <trkpt lat="48.68093" lon="-4.04811">
        <ele>19.9</ele>
        <time>2022-06-10T11:29:53Z</time>
      </trkpt>
      <trkpt lat="48.68096" lon="-4.04817">
        <ele>19.9</ele>
        <time>2022-06-10T11:29:55Z</time>
      </trkpt>
      <trkpt lat="48.681" lon="-4.04821">
        <ele>19.9</ele>
        <time>2022-06-10T11:29:56Z</time>
      </trkpt>
      <trkpt lat="48.68102" lon="-4.04826">
        <ele>19.9</ele>
        <time>2022-06-10T11:29:57Z</time>
      </trkpt>
      <trkpt lat="48.68109" lon="-4.04842">
        <ele>19.8</ele>
        <time>2022-06-10T11:29:58Z</time>
      </trkpt>
      <trkpt lat="48.68111" lon="-4.04848">
        <ele>19.8</ele>
        <time>2022-06-10T11:30:00Z</time>
      </trkpt>
      <trkpt lat="48.68111" lon="-4.04848">
        <ele>19.8</ele>
        <time>2022-06-10T11:30:01Z</time>
      </trkpt>
      <trkpt lat="48.68111" lon="-4.04848">
        <ele>19.8</ele>
        <time>2022-06-10T11:30:02Z</time>
      </trkpt>
      <trkpt lat="48.68111" lon="-4.04848">
        <ele>19.8</ele>
        <time>2022-06-10T11:30:03Z</time>
      </trkpt>
      <trkpt lat="48.68111" lon="-4.04848">
        <ele>19.8</ele>
        <time>2022-06-10T11:30:04Z</time>
      </trkpt>
      <trkpt lat="48.68111" lon="-4.04848">
        <ele>19.8</ele>
        <time>2022-06-10T11:30:05Z</time>
      </trkpt>
      <trkpt lat="48.68111" lon="-4.04848">
        <ele>19.8</ele>
        <time>2022-06-10T11:30:06Z</time>
      </trkpt>
      <trkpt lat="48.68111" lon="-4.04848">
        <ele>19.8</ele>
        <time>2022-06-10T11:30:07Z</time>
      </trkpt>
      <trkpt lat="48.68111" lon="-4.04848">
        <ele>19.8</ele>
        <time>2022-06-10T11:30:08Z</time>
      </trkpt>
      <trkpt lat="48.68111" lon="-4.04848">
        <ele>19.8</ele>
        <time>2022-06-10T11:30:09Z</time>
      </trkpt>
      <trkpt lat="48.68111" lon="-4.04848">
        <ele>19.8</ele>
        <time>2022-06-10T11:30:10Z</time>
      </trkpt>
      <trkpt lat="48.68111" lon="-4.04848">
        <ele>19.8</ele>
        <time>2022-06-10T11:30:11Z</time>
      </trkpt>
      <trkpt lat="48.68111" lon="-4.04848">
        <ele>19.8</ele>
        <time>2022-06-10T11:30:12Z</time>
      </trkpt>
      <trkpt lat="48.68111" lon="-4.04848">
        <ele>19.8</ele>
        <time>2022-06-10T11:30:13Z</time>
      </trkpt>
      <trkpt lat="48.68111" lon="-4.04848">
        <ele>19.8</ele>
        <time>2022-06-10T11:30:14Z</time>
      </trkpt>
      <trkpt lat="48.68111" lon="-4.04848">
        <ele>19.8</ele>
        <time>2022-06-10T11:30:15Z</time>
      </trkpt>
      <trkpt lat="48.68111" lon="-4.04848">
        <ele>19.8</ele>
        <time>2022-06-10T11:30:16Z</time>
      </trkpt>
      <trkpt lat="48.68111" lon="-4.04848">
        <ele>19.8</ele>
        <time>2022-06-10T11:30:17Z</time>
      </trkpt>
      <trkpt lat="48.68111" lon="-4.04848">
        <ele>19.8</ele>
        <time>2022-06-10T11:30:18Z</time>
      </trkpt>
      <trkpt lat="48.68111" lon="-4.04848">
        <ele>19.8</ele>
        <time>2022-06-10T11:30:19Z</time>
      </trkpt>
      <trkpt lat="48.68111" lon="-4.04848">
        <ele>19.8</ele>
        <time>2022-06-10T11:30:20Z</time>
      </trkpt>
      <trkpt lat="48.68111" lon="-4.04848">
        <ele>19.8</ele>
        <time>2022-06-10T11:30:21Z</time>
      </trkpt>
      <trkpt lat="48.68111" lon="-4.04848">
        <ele>19.8</ele>
        <time>2022-06-10T11:30:22Z</time>
      </trkpt>
      <trkpt lat="48.68111" lon="-4.04848">
        <ele>19.8</ele>
        <time>2022-06-10T11:30:23Z</time>
      </trkpt>
      <trkpt lat="48.68111" lon="-4.04848">
        <ele>19.8</ele>
        <time>2022-06-10T11:30:24Z</time>
      </trkpt>
      <trkpt lat="48.68111" lon="-4.04848">
        <ele>19.8</ele>
        <time>2022-06-10T11:30:25Z</time>
      </trkpt>
      <trkpt lat="48.68111" lon="-4.04848">
        <ele>19.8</ele>
        <time>2022-06-10T11:30:26Z</time>
      </trkpt>
      <trkpt lat="48.68111" lon="-4.04848">
        <ele>19.8</ele>
        <time>2022-06-10T11:30:27Z</time>
      </trkpt>
      <trkpt lat="48.68111" lon="-4.04848">
        <ele>19.8</ele>
        <time>2022-06-10T11:30:28Z</time>
      </trkpt>
      <trkpt lat="48.68111" lon="-4.04848">
        <ele>19.8</ele>
        <time>2022-06-10T11:30:29Z</time>
      </trkpt>
      <trkpt lat="48.68111" lon="-4.04848">
        <ele>19.8</ele>
        <time>2022-06-10T11:30:30Z</time>
      </trkpt>
      <trkpt lat="48.68111" lon="-4.04848">
        <ele>19.8</ele>
        <time>2022-06-10T11:30:31Z</time>
      </trkpt>
      <trkpt lat="48.68111" lon="-4.04848">
        <ele>19.8</ele>
        <time>2022-06-10T11:30:32Z</time>
      </trkpt>
      <trkpt lat="48.68111" lon="-4.04848">
        <ele>19.8</ele>
        <time>2022-06-10T11:30:33Z</time>
      </trkpt>
      <trkpt lat="48.68111" lon="-4.04848">
        <ele>19.8</ele>
        <time>2022-06-10T11:30:34Z</time>
      </trkpt>
      <trkpt lat="48.68111" lon="-4.04848">
        <ele>19.8</ele>
        <time>2022-06-10T11:30:35Z</time>
      </trkpt>
      <trkpt lat="48.68111" lon="-4.04848">
        <ele>19.8</ele>
        <time>2022-06-10T11:30:36Z</time>
      </trkpt>
      <trkpt lat="48.68111" lon="-4.04848">
        <ele>19.8</ele>
        <time>2022-06-10T11:30:37Z</time>
      </trkpt>
      <trkpt lat="48.68111" lon="-4.04848">
        <ele>19.8</ele>
        <time>2022-06-10T11:30:38Z</time>
      </trkpt>
      <trkpt lat="48.68111" lon="-4.04848">
        <ele>19.8</ele>
        <time>2022-06-10T11:30:39Z</time>
      </trkpt>
      <trkpt lat="48.68111" lon="-4.04848">
        <ele>19.8</ele>
        <time>2022-06-10T11:30:40Z</time>
      </trkpt>
      <trkpt lat="48.68111" lon="-4.04848">
        <ele>19.8</ele>
        <time>2022-06-10T11:30:41Z</time>
      </trkpt>
      <trkpt lat="48.68111" lon="-4.04848">
        <ele>19.8</ele>
        <time>2022-06-10T11:30:42Z</time>
      </trkpt>
      <trkpt lat="48.68111" lon="-4.04848">
        <ele>19.8</ele>
        <time>2022-06-10T11:30:43Z</time>
      </trkpt>
      <trkpt lat="48.68111" lon="-4.04848">
        <ele>19.8</ele>
        <time>2022-06-10T11:30:44Z</time>
      </trkpt>
      <trkpt lat="48.68111" lon="-4.04848">
        <ele>19.8</ele>
        <time>2022-06-10T11:30:45Z</time>
      </trkpt>
      <trkpt lat="48.68111" lon="-4.04848">
        <ele>19.8</ele>
        <time>2022-06-10T11:30:46Z</time>
      </trkpt>
      <trkpt lat="48.68111" lon="-4.04848">
        <ele>19.8</ele>
        <time>2022-06-10T11:30:47Z</time>
      </trkpt>
      <trkpt lat="48.68111" lon="-4.04848">
        <ele>19.8</ele>
        <time>2022-06-10T11:30:48Z</time>
      </trkpt>
      <trkpt lat="48.68111" lon="-4.04848">
        <ele>19.8</ele>
        <time>2022-06-10T11:30:49Z</time>
      </trkpt>
      <trkpt lat="48.68111" lon="-4.04848">
        <ele>19.8</ele>
        <time>2022-06-10T11:30:50Z</time>
      </trkpt>
      <trkpt lat="48.68111" lon="-4.04848">
        <ele>19.8</ele>
        <time>2022-06-10T11:30:51Z</time>
      </trkpt>
      <trkpt lat="48.68111" lon="-4.04848">
        <ele>19.8</ele>
        <time>2022-06-10T11:30:52Z</time>
      </trkpt>
      <trkpt lat="48.68111" lon="-4.04848">
        <ele>19.8</ele>
        <time>2022-06-10T11:30:53Z</time>
      </trkpt>
      <trkpt lat="48.68115" lon="-4.04848">
        <ele>19.8</ele>
        <time>2022-06-10T11:30:54Z</time>
      </trkpt>
      <trkpt lat="48.68117" lon="-4.04847">
        <ele>19.8</ele>
        <time>2022-06-10T11:30:55Z</time>
      </trkpt>
      <trkpt lat="48.68117" lon="-4.04848">
        <ele>19.8</ele>
        <time>2022-06-10T11:30:56Z</time>
      </trkpt>
      <trkpt lat="48.68116" lon="-4.04846">
        <ele>19.9</ele>
        <time>2022-06-10T11:30:57Z</time>
      </trkpt>
      <trkpt lat="48.68116" lon="-4.04845">
        <ele>19.9</ele>
        <time>2022-06-10T11:30:59Z</time>
      </trkpt>
      <trkpt lat="48.68115" lon="-4.04843">
        <ele>19.9</ele>
        <time>2022-06-10T11:31:00Z</time>
      </trkpt>
      <trkpt lat="48.68113" lon="-4.04841">
        <ele>19.9</ele>
        <time>2022-06-10T11:31:02Z</time>
      </trkpt>
      <trkpt lat="48.68112" lon="-4.04839">
        <ele>19.9</ele>
        <time>2022-06-10T11:31:03Z</time>
      </trkpt>
      <trkpt lat="48.6811" lon="-4.04838">
        <ele>19.9</ele>
        <time>2022-06-10T11:31:04Z</time>
      </trkpt>
      <trkpt lat="48.68109" lon="-4.04836">
        <ele>19.9</ele>
        <time>2022-06-10T11:31:05Z</time>
      </trkpt>
      <trkpt lat="48.68108" lon="-4.04835">
        <ele>19.9</ele>
        <time>2022-06-10T11:31:06Z</time>
      </trkpt>
      <trkpt lat="48.68107" lon="-4.04834">
        <ele>19.9</ele>
        <time>2022-06-10T11:31:07Z</time>
      </trkpt>
      <trkpt lat="48.68106" lon="-4.04833">
        <ele>19.9</ele>
        <time>2022-06-10T11:31:09Z</time>
      </trkpt>
      <trkpt lat="48.68105" lon="-4.04831">
        <ele>19.9</ele>
        <time>2022-06-10T11:31:10Z</time>
      </trkpt>
      <trkpt lat="48.68104" lon="-4.0483">
        <ele>19.9</ele>
        <time>2022-06-10T11:31:11Z</time>
      </trkpt>
      <trkpt lat="48.68105" lon="-4.04829">
        <ele>19.9</ele>
        <time>2022-06-10T11:31:12Z</time>
      </trkpt>
      <trkpt lat="48.68106" lon="-4.04831">
        <ele>19.9</ele>
        <time>2022-06-10T11:31:13Z</time>
      </trkpt>
      <trkpt lat="48.68106" lon="-4.04831">
        <ele>19.9</ele>
        <time>2022-06-10T11:31:14Z</time>
      </trkpt>
      <trkpt lat="48.68106" lon="-4.04831">
        <ele>19.9</ele>
        <time>2022-06-10T11:31:15Z</time>
      </trkpt>
      <trkpt lat="48.68106" lon="-4.04832">
        <ele>19.9</ele>
        <time>2022-06-10T11:31:16Z</time>
      </trkpt>
      <trkpt lat="48.68106" lon="-4.04832">
        <ele>19.9</ele>
        <time>2022-06-10T11:31:17Z</time>
      </trkpt>
      <trkpt lat="48.68106" lon="-4.04832">
        <ele>19.9</ele>
        <time>2022-06-10T11:31:18Z</time>
      </trkpt>
      <trkpt lat="48.68106" lon="-4.04832">
        <ele>19.9</ele>
        <time>2022-06-10T11:31:19Z</time>
      </trkpt>
      <trkpt lat="48.68106" lon="-4.04832">
        <ele>19.9</ele>
        <time>2022-06-10T11:31:21Z</time>
      </trkpt>
      <trkpt lat="48.68106" lon="-4.04832">
        <ele>19.9</ele>
        <time>2022-06-10T11:31:22Z</time>
      </trkpt>
      <trkpt lat="48.68106" lon="-4.04832">
        <ele>19.9</ele>
        <time>2022-06-10T11:31:23Z</time>
      </trkpt>
      <trkpt lat="48.68106" lon="-4.04832">
        <ele>19.9</ele>
        <time>2022-06-10T11:31:24Z</time>
      </trkpt>
      <trkpt lat="48.68105" lon="-4.04832">
        <ele>19.9</ele>
        <time>2022-06-10T11:31:25Z</time>
      </trkpt>
      <trkpt lat="48.68105" lon="-4.04832">
        <ele>19.9</ele>
        <time>2022-06-10T11:31:26Z</time>
      </trkpt>
      <trkpt lat="48.68105" lon="-4.04832">
        <ele>19.9</ele>
        <time>2022-06-10T11:31:27Z</time>
      </trkpt>
      <trkpt lat="48.68105" lon="-4.04832">
        <ele>19.9</ele>
        <time>2022-06-10T11:31:28Z</time>
      </trkpt>
      <trkpt lat="48.68105" lon="-4.04832">
        <ele>19.9</ele>
        <time>2022-06-10T11:31:29Z</time>
      </trkpt>
      <trkpt lat="48.68105" lon="-4.04832">
        <ele>19.9</ele>
        <time>2022-06-10T11:31:31Z</time>
      </trkpt>
      <trkpt lat="48.68105" lon="-4.04831">
        <ele>19.9</ele>
        <time>2022-06-10T11:31:32Z</time>
      </trkpt>
      <trkpt lat="48.68104" lon="-4.0483">
        <ele>19.9</ele>
        <time>2022-06-10T11:31:33Z</time>
      </trkpt>
      <trkpt lat="48.68103" lon="-4.04829">
        <ele>19.9</ele>
        <time>2022-06-10T11:31:34Z</time>
      </trkpt>
      <trkpt lat="48.68101" lon="-4.04826">
        <ele>19.9</ele>
        <time>2022-06-10T11:31:36Z</time>
      </trkpt>
      <trkpt lat="48.681" lon="-4.04825">
        <ele>19.9</ele>
        <time>2022-06-10T11:31:37Z</time>
      </trkpt>
      <trkpt lat="48.68099" lon="-4.04823">
        <ele>19.9</ele>
        <time>2022-06-10T11:31:38Z</time>
      </trkpt>
      <trkpt lat="48.68097" lon="-4.04821">
        <ele>19.9</ele>
        <time>2022-06-10T11:31:39Z</time>
      </trkpt>
      <trkpt lat="48.68096" lon="-4.0482">
        <ele>19.9</ele>
        <time>2022-06-10T11:31:40Z</time>
      </trkpt>
      <trkpt lat="48.68095" lon="-4.04818">
        <ele>19.9</ele>
        <time>2022-06-10T11:31:42Z</time>
      </trkpt>
      <trkpt lat="48.68094" lon="-4.04816">
        <ele>19.9</ele>
        <time>2022-06-10T11:31:43Z</time>
      </trkpt>
      <trkpt lat="48.68093" lon="-4.04815">
        <ele>19.9</ele>
        <time>2022-06-10T11:31:44Z</time>
      </trkpt>
      <trkpt lat="48.68092" lon="-4.04815">
        <ele>19.9</ele>
        <time>2022-06-10T11:31:45Z</time>
      </trkpt>
      <trkpt lat="48.68091" lon="-4.04815">
        <ele>19.9</ele>
        <time>2022-06-10T11:31:46Z</time>
      </trkpt>
      <trkpt lat="48.68091" lon="-4.04815">
        <ele>19.9</ele>
        <time>2022-06-10T11:31:47Z</time>
      </trkpt>
      <trkpt lat="48.68089" lon="-4.04813">
        <ele>19.9</ele>
        <time>2022-06-10T11:31:48Z</time>
      </trkpt>
      <trkpt lat="48.68089" lon="-4.04812">
        <ele>19.9</ele>
        <time>2022-06-10T11:31:50Z</time>
      </trkpt>
      <trkpt lat="48.68088" lon="-4.04811">
        <ele>19.9</ele>
        <time>2022-06-10T11:31:51Z</time>
      </trkpt>
      <trkpt lat="48.68087" lon="-4.0481">
        <ele>19.9</ele>
        <time>2022-06-10T11:31:52Z</time>
      </trkpt>
      <trkpt lat="48.68086" lon="-4.04809">
        <ele>19.9</ele>
        <time>2022-06-10T11:31:53Z</time>
      </trkpt>
      <trkpt lat="48.68086" lon="-4.04808">
        <ele>19.9</ele>
        <time>2022-06-10T11:31:54Z</time>
      </trkpt>
      <trkpt lat="48.68086" lon="-4.04808">
        <ele>19.9</ele>
        <time>2022-06-10T11:31:55Z</time>
      </trkpt>
      <trkpt lat="48.68085" lon="-4.04807">
        <ele>20</ele>
        <time>2022-06-10T11:31:56Z</time>
      </trkpt>
      <trkpt lat="48.68084" lon="-4.04805">
        <ele>20</ele>
        <time>2022-06-10T11:31:57Z</time>
      </trkpt>
      <trkpt lat="48.68083" lon="-4.04803">
        <ele>20</ele>
        <time>2022-06-10T11:31:59Z</time>
      </trkpt>
      <trkpt lat="48.68081" lon="-4.04801">
        <ele>20</ele>
        <time>2022-06-10T11:32:00Z</time>
      </trkpt>
      <trkpt lat="48.6808" lon="-4.048">
        <ele>20.1</ele>
        <time>2022-06-10T11:32:01Z</time>
      </trkpt>
      <trkpt lat="48.68079" lon="-4.04798">
        <ele>20.1</ele>
        <time>2022-06-10T11:32:02Z</time>
      </trkpt>
      <trkpt lat="48.68078" lon="-4.04795">
        <ele>20.1</ele>
        <time>2022-06-10T11:32:03Z</time>
      </trkpt>
      <trkpt lat="48.68078" lon="-4.04794">
        <ele>20.1</ele>
        <time>2022-06-10T11:32:04Z</time>
      </trkpt>
      <trkpt lat="48.68077" lon="-4.04793">
        <ele>20.1</ele>
        <time>2022-06-10T11:32:05Z</time>
      </trkpt>
      <trkpt lat="48.68076" lon="-4.04792">
        <ele>20.2</ele>
        <time>2022-06-10T11:32:07Z</time>
      </trkpt>
      <trkpt lat="48.68076" lon="-4.0479">
        <ele>20.2</ele>
        <time>2022-06-10T11:32:08Z</time>
      </trkpt>
      <trkpt lat="48.68075" lon="-4.04788">
        <ele>20.2</ele>
        <time>2022-06-10T11:32:09Z</time>
      </trkpt>
      <trkpt lat="48.68074" lon="-4.04786">
        <ele>20.2</ele>
        <time>2022-06-10T11:32:10Z</time>
      </trkpt>
      <trkpt lat="48.68073" lon="-4.04784">
        <ele>20.2</ele>
        <time>2022-06-10T11:32:11Z</time>
      </trkpt>
      <trkpt lat="48.68073" lon="-4.04783">
        <ele>20.3</ele>
        <time>2022-06-10T11:32:12Z</time>
      </trkpt>
      <trkpt lat="48.68072" lon="-4.04782">
        <ele>20.3</ele>
        <time>2022-06-10T11:32:13Z</time>
      </trkpt>
      <trkpt lat="48.68071" lon="-4.04781">
        <ele>20.3</ele>
        <time>2022-06-10T11:32:14Z</time>
      </trkpt>
      <trkpt lat="48.68069" lon="-4.04778">
        <ele>20.3</ele>
        <time>2022-06-10T11:32:15Z</time>
      </trkpt>
      <trkpt lat="48.68069" lon="-4.04777">
        <ele>20.3</ele>
        <time>2022-06-10T11:32:17Z</time>
      </trkpt>
      <trkpt lat="48.68068" lon="-4.04777">
        <ele>20.3</ele>
        <time>2022-06-10T11:32:18Z</time>
      </trkpt>
      <trkpt lat="48.68067" lon="-4.04775">
        <ele>20.3</ele>
        <time>2022-06-10T11:32:19Z</time>
      </trkpt>
      <trkpt lat="48.68066" lon="-4.04774">
        <ele>20.3</ele>
        <time>2022-06-10T11:32:20Z</time>
      </trkpt>
      <trkpt lat="48.68065" lon="-4.04773">
        <ele>20.3</ele>
        <time>2022-06-10T11:32:21Z</time>
      </trkpt>
      <trkpt lat="48.68064" lon="-4.04772">
        <ele>20.4</ele>
        <time>2022-06-10T11:32:22Z</time>
      </trkpt>
      <trkpt lat="48.68063" lon="-4.04771">
        <ele>20.4</ele>
        <time>2022-06-10T11:32:23Z</time>
      </trkpt>
      <trkpt lat="48.68062" lon="-4.0477">
        <ele>20.4</ele>
        <time>2022-06-10T11:32:25Z</time>
      </trkpt>
      <trkpt lat="48.68062" lon="-4.04768">
        <ele>20.4</ele>
        <time>2022-06-10T11:32:26Z</time>
      </trkpt>
      <trkpt lat="48.68061" lon="-4.04767">
        <ele>20.4</ele>
        <time>2022-06-10T11:32:27Z</time>
      </trkpt>
      <trkpt lat="48.6806" lon="-4.04766">
        <ele>20.4</ele>
        <time>2022-06-10T11:32:28Z</time>
      </trkpt>
      <trkpt lat="48.68059" lon="-4.04765">
        <ele>20.4</ele>
        <time>2022-06-10T11:32:29Z</time>
      </trkpt>
      <trkpt lat="48.68058" lon="-4.04764">
        <ele>20.4</ele>
        <time>2022-06-10T11:32:30Z</time>
      </trkpt>
      <trkpt lat="48.68057" lon="-4.04762">
        <ele>20.4</ele>
        <time>2022-06-10T11:32:31Z</time>
      </trkpt>
      <trkpt lat="48.68056" lon="-4.04761">
        <ele>20.4</ele>
        <time>2022-06-10T11:32:32Z</time>
      </trkpt>
      <trkpt lat="48.68055" lon="-4.0476">
        <ele>20.3</ele>
        <time>2022-06-10T11:32:34Z</time>
      </trkpt>
      <trkpt lat="48.68054" lon="-4.04759">
        <ele>20.3</ele>
        <time>2022-06-10T11:32:35Z</time>
      </trkpt>
      <trkpt lat="48.68053" lon="-4.04757">
        <ele>20.3</ele>
        <time>2022-06-10T11:32:36Z</time>
      </trkpt>
      <trkpt lat="48.68268" lon="-4.04534">
        <ele>15</ele>
        <time>2022-06-10T11:37:37Z</time>
      </trkpt>
      <trkpt lat="48.68325" lon="-4.04507">
        <ele>14.1</ele>
        <time>2022-06-10T11:37:40Z</time>
      </trkpt>
      <trkpt lat="48.68305" lon="-4.04514">
        <ele>14.5</ele>
        <time>2022-06-10T11:37:41Z</time>
      </trkpt>
      <trkpt lat="48.68288" lon="-4.0452">
        <ele>14.8</ele>
        <time>2022-06-10T11:37:42Z</time>
      </trkpt>
      <trkpt lat="48.68272" lon="-4.04526">
        <ele>14.9</ele>
        <time>2022-06-10T11:37:43Z</time>
      </trkpt>
      <trkpt lat="48.68265" lon="-4.04529">
        <ele>15</ele>
        <time>2022-06-10T11:37:44Z</time>
      </trkpt>
      <trkpt lat="48.68257" lon="-4.04531">
        <ele>15.1</ele>
        <time>2022-06-10T11:37:45Z</time>
      </trkpt>
      <trkpt lat="48.68255" lon="-4.04532">
        <ele>15.1</ele>
        <time>2022-06-10T11:37:46Z</time>
      </trkpt>
      <trkpt lat="48.68244" lon="-4.04537">
        <ele>15.2</ele>
        <time>2022-06-10T11:37:48Z</time>
      </trkpt>
      <trkpt lat="48.68242" lon="-4.04538">
        <ele>15.2</ele>
        <time>2022-06-10T11:37:49Z</time>
      </trkpt>
      <trkpt lat="48.68241" lon="-4.04539">
        <ele>15.2</ele>
        <time>2022-06-10T11:37:50Z</time>
      </trkpt>
      <trkpt lat="48.68242" lon="-4.04539">
        <ele>15.2</ele>
        <time>2022-06-10T11:37:51Z</time>
      </trkpt>
      <trkpt lat="48.68242" lon="-4.04539">
        <ele>15.3</ele>
        <time>2022-06-10T11:37:52Z</time>
      </trkpt>
      <trkpt lat="48.68243" lon="-4.04538">
        <ele>15.3</ele>
        <time>2022-06-10T11:37:53Z</time>
      </trkpt>
      <trkpt lat="48.68244" lon="-4.04538">
        <ele>15.3</ele>
        <time>2022-06-10T11:37:54Z</time>
      </trkpt>
      <trkpt lat="48.68244" lon="-4.04538">
        <ele>15.3</ele>
        <time>2022-06-10T11:37:55Z</time>
      </trkpt>
      <trkpt lat="48.68245" lon="-4.04538">
        <ele>15.3</ele>
        <time>2022-06-10T11:37:56Z</time>
      </trkpt>
      <trkpt lat="48.68246" lon="-4.04537">
        <ele>15.3</ele>
        <time>2022-06-10T11:37:57Z</time>
      </trkpt>
      <trkpt lat="48.68246" lon="-4.04537">
        <ele>15.3</ele>
        <time>2022-06-10T11:37:58Z</time>
      </trkpt>
      <trkpt lat="48.68247" lon="-4.04537">
        <ele>15.3</ele>
        <time>2022-06-10T11:38:00Z</time>
      </trkpt>
      <trkpt lat="48.68248" lon="-4.04537">
        <ele>15.3</ele>
        <time>2022-06-10T11:38:01Z</time>
      </trkpt>
      <trkpt lat="48.68249" lon="-4.04536">
        <ele>15.3</ele>
        <time>2022-06-10T11:38:02Z</time>
      </trkpt>
      <trkpt lat="48.68251" lon="-4.04535">
        <ele>15.3</ele>
        <time>2022-06-10T11:38:03Z</time>
      </trkpt>
      <trkpt lat="48.68254" lon="-4.04533">
        <ele>15.3</ele>
        <time>2022-06-10T11:38:05Z</time>
      </trkpt>
      <trkpt lat="48.68255" lon="-4.04533">
        <ele>15.3</ele>
        <time>2022-06-10T11:38:06Z</time>
      </trkpt>
      <trkpt lat="48.68256" lon="-4.04532">
        <ele>15.3</ele>
        <time>2022-06-10T11:38:07Z</time>
      </trkpt>
      <trkpt lat="48.68257" lon="-4.04531">
        <ele>15.3</ele>
        <time>2022-06-10T11:38:08Z</time>
      </trkpt>
      <trkpt lat="48.68258" lon="-4.04531">
        <ele>15.3</ele>
        <time>2022-06-10T11:38:09Z</time>
      </trkpt>
      <trkpt lat="48.68259" lon="-4.0453">
        <ele>15.2</ele>
        <time>2022-06-10T11:38:11Z</time>
      </trkpt>
      <trkpt lat="48.6826" lon="-4.04529">
        <ele>15.2</ele>
        <time>2022-06-10T11:38:12Z</time>
      </trkpt>
      <trkpt lat="48.6826" lon="-4.04527">
        <ele>15.2</ele>
        <time>2022-06-10T11:38:13Z</time>
      </trkpt>
      <trkpt lat="48.6826" lon="-4.04526">
        <ele>15.2</ele>
        <time>2022-06-10T11:38:14Z</time>
      </trkpt>
      <trkpt lat="48.6826" lon="-4.04525">
        <ele>15.2</ele>
        <time>2022-06-10T11:38:15Z</time>
      </trkpt>
      <trkpt lat="48.68261" lon="-4.04524">
        <ele>15.2</ele>
        <time>2022-06-10T11:38:17Z</time>
      </trkpt>
      <trkpt lat="48.68262" lon="-4.04523">
        <ele>15.2</ele>
        <time>2022-06-10T11:38:18Z</time>
      </trkpt>
      <trkpt lat="48.68262" lon="-4.04523">
        <ele>15.2</ele>
        <time>2022-06-10T11:38:19Z</time>
      </trkpt>
      <trkpt lat="48.68263" lon="-4.04522">
        <ele>15.2</ele>
        <time>2022-06-10T11:38:20Z</time>
      </trkpt>
      <trkpt lat="48.68264" lon="-4.04522">
        <ele>15.2</ele>
        <time>2022-06-10T11:38:21Z</time>
      </trkpt>
      <trkpt lat="48.68264" lon="-4.04522">
        <ele>15.1</ele>
        <time>2022-06-10T11:38:22Z</time>
      </trkpt>
      <trkpt lat="48.68265" lon="-4.04522">
        <ele>15.1</ele>
        <time>2022-06-10T11:38:23Z</time>
      </trkpt>
      <trkpt lat="48.68266" lon="-4.04522">
        <ele>15.1</ele>
        <time>2022-06-10T11:38:24Z</time>
      </trkpt>
      <trkpt lat="48.68266" lon="-4.04523">
        <ele>15.1</ele>
        <time>2022-06-10T11:38:25Z</time>
      </trkpt>
      <trkpt lat="48.68267" lon="-4.04523">
        <ele>15.1</ele>
        <time>2022-06-10T11:38:27Z</time>
      </trkpt>
      <trkpt lat="48.68267" lon="-4.04523">
        <ele>15.1</ele>
        <time>2022-06-10T11:38:28Z</time>
      </trkpt>
      <trkpt lat="48.68267" lon="-4.04524">
        <ele>15.1</ele>
        <time>2022-06-10T11:38:29Z</time>
      </trkpt>
      <trkpt lat="48.68267" lon="-4.04524">
        <ele>15.1</ele>
        <time>2022-06-10T11:38:30Z</time>
      </trkpt>
      <trkpt lat="48.68268" lon="-4.04525">
        <ele>15.1</ele>
        <time>2022-06-10T11:38:32Z</time>
      </trkpt>
      <trkpt lat="48.68268" lon="-4.04524">
        <ele>15.1</ele>
        <time>2022-06-10T11:38:33Z</time>
      </trkpt>
      <trkpt lat="48.68268" lon="-4.04524">
        <ele>15.1</ele>
        <time>2022-06-10T11:38:34Z</time>
      </trkpt>
      <trkpt lat="48.68269" lon="-4.04524">
        <ele>15.1</ele>
        <time>2022-06-10T11:38:35Z</time>
      </trkpt>
      <trkpt lat="48.68269" lon="-4.04524">
        <ele>15.1</ele>
        <time>2022-06-10T11:38:37Z</time>
      </trkpt>
      <trkpt lat="48.6827" lon="-4.04525">
        <ele>15.1</ele>
        <time>2022-06-10T11:38:38Z</time>
      </trkpt>
      <trkpt lat="48.6827" lon="-4.04525">
        <ele>15.1</ele>
        <time>2022-06-10T11:38:39Z</time>
      </trkpt>
      <trkpt lat="48.6827" lon="-4.04525">
        <ele>15.1</ele>
        <time>2022-06-10T11:38:40Z</time>
      </trkpt>
      <trkpt lat="48.6827" lon="-4.04525">
        <ele>15.1</ele>
        <time>2022-06-10T11:38:41Z</time>
      </trkpt>
      <trkpt lat="48.6827" lon="-4.04524">
        <ele>15.1</ele>
        <time>2022-06-10T11:38:42Z</time>
      </trkpt>
      <trkpt lat="48.68269" lon="-4.04524">
        <ele>15</ele>
        <time>2022-06-10T11:38:43Z</time>
      </trkpt>
      <trkpt lat="48.68269" lon="-4.04523">
        <ele>15</ele>
        <time>2022-06-10T11:38:44Z</time>
      </trkpt>
      <trkpt lat="48.68269" lon="-4.04523">
        <ele>15</ele>
        <time>2022-06-10T11:38:45Z</time>
      </trkpt>
      <trkpt lat="48.68269" lon="-4.04523">
        <ele>15</ele>
        <time>2022-06-10T11:38:46Z</time>
      </trkpt>
      <trkpt lat="48.68269" lon="-4.04523">
        <ele>15</ele>
        <time>2022-06-10T11:38:47Z</time>
      </trkpt>
      <trkpt lat="48.68269" lon="-4.04523">
        <ele>15</ele>
        <time>2022-06-10T11:38:48Z</time>
      </trkpt>
      <trkpt lat="48.68269" lon="-4.04523">
        <ele>15</ele>
        <time>2022-06-10T11:38:49Z</time>
      </trkpt>
      <trkpt lat="48.68269" lon="-4.04523">
        <ele>15</ele>
        <time>2022-06-10T11:38:50Z</time>
      </trkpt>
      <trkpt lat="48.68269" lon="-4.04523">
        <ele>15</ele>
        <time>2022-06-10T11:38:51Z</time>
      </trkpt>
      <trkpt lat="48.68269" lon="-4.04523">
        <ele>15</ele>
        <time>2022-06-10T11:38:52Z</time>
      </trkpt>
      <trkpt lat="48.68269" lon="-4.04523">
        <ele>15</ele>
        <time>2022-06-10T11:38:53Z</time>
      </trkpt>
      <trkpt lat="48.68269" lon="-4.04524">
        <ele>15</ele>
        <time>2022-06-10T11:38:54Z</time>
      </trkpt>
      <trkpt lat="48.68269" lon="-4.04524">
        <ele>15</ele>
        <time>2022-06-10T11:38:55Z</time>
      </trkpt>
      <trkpt lat="48.68269" lon="-4.04522">
        <ele>15</ele>
        <time>2022-06-10T11:38:56Z</time>
      </trkpt>
      <trkpt lat="48.68269" lon="-4.04522">
        <ele>15</ele>
        <time>2022-06-10T11:38:57Z</time>
      </trkpt>
      <trkpt lat="48.68269" lon="-4.04523">
        <ele>15</ele>
        <time>2022-06-10T11:38:58Z</time>
      </trkpt>
      <trkpt lat="48.6827" lon="-4.04522">
        <ele>15</ele>
        <time>2022-06-10T11:38:59Z</time>
      </trkpt>
      <trkpt lat="48.6827" lon="-4.04522">
        <ele>15</ele>
        <time>2022-06-10T11:39:00Z</time>
      </trkpt>
      <trkpt lat="48.6827" lon="-4.04522">
        <ele>15</ele>
        <time>2022-06-10T11:39:01Z</time>
      </trkpt>
      <trkpt lat="48.68271" lon="-4.04522">
        <ele>15</ele>
        <time>2022-06-10T11:39:02Z</time>
      </trkpt>
      <trkpt lat="48.6827" lon="-4.04522">
        <ele>15</ele>
        <time>2022-06-10T11:39:03Z</time>
      </trkpt>
      <trkpt lat="48.68271" lon="-4.04523">
        <ele>15</ele>
        <time>2022-06-10T11:39:04Z</time>
      </trkpt>
      <trkpt lat="48.68271" lon="-4.04524">
        <ele>15</ele>
        <time>2022-06-10T11:39:05Z</time>
      </trkpt>
      <trkpt lat="48.68271" lon="-4.04524">
        <ele>15</ele>
        <time>2022-06-10T11:39:06Z</time>
      </trkpt>
      <trkpt lat="48.68271" lon="-4.04524">
        <ele>15</ele>
        <time>2022-06-10T11:39:07Z</time>
      </trkpt>
      <trkpt lat="48.68271" lon="-4.04524">
        <ele>15</ele>
        <time>2022-06-10T11:39:08Z</time>
      </trkpt>
      <trkpt lat="48.68271" lon="-4.04524">
        <ele>15</ele>
        <time>2022-06-10T11:39:09Z</time>
      </trkpt>
      <trkpt lat="48.68271" lon="-4.04524">
        <ele>15</ele>
        <time>2022-06-10T11:39:10Z</time>
      </trkpt>
      <trkpt lat="48.68271" lon="-4.04524">
        <ele>15</ele>
        <time>2022-06-10T11:39:11Z</time>
      </trkpt>
      <trkpt lat="48.68271" lon="-4.04524">
        <ele>15</ele>
        <time>2022-06-10T11:39:12Z</time>
      </trkpt>
      <trkpt lat="48.68271" lon="-4.04523">
        <ele>15</ele>
        <time>2022-06-10T11:39:13Z</time>
      </trkpt>
      <trkpt lat="48.68271" lon="-4.04523">
        <ele>15</ele>
        <time>2022-06-10T11:39:14Z</time>
      </trkpt>
      <trkpt lat="48.68271" lon="-4.04523">
        <ele>15</ele>
        <time>2022-06-10T11:39:15Z</time>
      </trkpt>
      <trkpt lat="48.68271" lon="-4.04523">
        <ele>15</ele>
        <time>2022-06-10T11:39:16Z</time>
      </trkpt>
      <trkpt lat="48.68271" lon="-4.04523">
        <ele>15</ele>
        <time>2022-06-10T11:39:17Z</time>
      </trkpt>
      <trkpt lat="48.68271" lon="-4.04523">
        <ele>15</ele>
        <time>2022-06-10T11:39:18Z</time>
      </trkpt>
      <trkpt lat="48.6827" lon="-4.04522">
        <ele>15</ele>
        <time>2022-06-10T11:39:19Z</time>
      </trkpt>
      <trkpt lat="48.6827" lon="-4.04521">
        <ele>15</ele>
        <time>2022-06-10T11:39:20Z</time>
      </trkpt>
      <trkpt lat="48.6827" lon="-4.04521">
        <ele>15</ele>
        <time>2022-06-10T11:39:21Z</time>
      </trkpt>
      <trkpt lat="48.6827" lon="-4.04521">
        <ele>15</ele>
        <time>2022-06-10T11:39:22Z</time>
      </trkpt>
      <trkpt lat="48.6827" lon="-4.04521">
        <ele>15</ele>
        <time>2022-06-10T11:39:23Z</time>
      </trkpt>
      <trkpt lat="48.6827" lon="-4.04521">
        <ele>15</ele>
        <time>2022-06-10T11:39:24Z</time>
      </trkpt>
      <trkpt lat="48.6827" lon="-4.04521">
        <ele>15</ele>
        <time>2022-06-10T11:39:25Z</time>
      </trkpt>
      <trkpt lat="48.6827" lon="-4.04521">
        <ele>15</ele>
        <time>2022-06-10T11:39:26Z</time>
      </trkpt>
      <trkpt lat="48.6827" lon="-4.04521">
        <ele>15</ele>
        <time>2022-06-10T11:39:27Z</time>
      </trkpt>
      <trkpt lat="48.6827" lon="-4.04521">
        <ele>15</ele>
        <time>2022-06-10T11:39:28Z</time>
      </trkpt>
      <trkpt lat="48.6827" lon="-4.04521">
        <ele>15</ele>
        <time>2022-06-10T11:39:29Z</time>
      </trkpt>
      <trkpt lat="48.6827" lon="-4.04521">
        <ele>15</ele>
        <time>2022-06-10T11:39:30Z</time>
      </trkpt>
      <trkpt lat="48.6827" lon="-4.04521">
        <ele>15</ele>
        <time>2022-06-10T11:39:31Z</time>
      </trkpt>
      <trkpt lat="48.68271" lon="-4.04521">
        <ele>15</ele>
        <time>2022-06-10T11:39:32Z</time>
      </trkpt>
      <trkpt lat="48.68271" lon="-4.04521">
        <ele>15</ele>
        <time>2022-06-10T11:39:33Z</time>
      </trkpt>
      <trkpt lat="48.68271" lon="-4.04522">
        <ele>14.9</ele>
        <time>2022-06-10T11:39:34Z</time>
      </trkpt>
      <trkpt lat="48.68272" lon="-4.04522">
        <ele>14.9</ele>
        <time>2022-06-10T11:39:35Z</time>
      </trkpt>
      <trkpt lat="48.68272" lon="-4.04522">
        <ele>14.9</ele>
        <time>2022-06-10T11:39:36Z</time>
      </trkpt>
      <trkpt lat="48.68273" lon="-4.04522">
        <ele>14.9</ele>
        <time>2022-06-10T11:39:37Z</time>
      </trkpt>
      <trkpt lat="48.68275" lon="-4.04523">
        <ele>14.9</ele>
        <time>2022-06-10T11:39:38Z</time>
      </trkpt>
      <trkpt lat="48.68276" lon="-4.04525">
        <ele>14.9</ele>
        <time>2022-06-10T11:39:39Z</time>
      </trkpt>
      <trkpt lat="48.68277" lon="-4.04526">
        <ele>14.9</ele>
        <time>2022-06-10T11:39:40Z</time>
      </trkpt>
      <trkpt lat="48.68278" lon="-4.04527">
        <ele>14.8</ele>
        <time>2022-06-10T11:39:42Z</time>
      </trkpt>
      <trkpt lat="48.6828" lon="-4.04528">
        <ele>14.8</ele>
        <time>2022-06-10T11:39:43Z</time>
      </trkpt>
      <trkpt lat="48.6828" lon="-4.04528">
        <ele>14.8</ele>
        <time>2022-06-10T11:39:44Z</time>
      </trkpt>
      <trkpt lat="48.68281" lon="-4.04528">
        <ele>14.8</ele>
        <time>2022-06-10T11:39:45Z</time>
      </trkpt>
      <trkpt lat="48.68281" lon="-4.04529">
        <ele>14.8</ele>
        <time>2022-06-10T11:39:46Z</time>
      </trkpt>
      <trkpt lat="48.68283" lon="-4.0453">
        <ele>14.8</ele>
        <time>2022-06-10T11:39:48Z</time>
      </trkpt>
      <trkpt lat="48.68284" lon="-4.04531">
        <ele>14.7</ele>
        <time>2022-06-10T11:39:49Z</time>
      </trkpt>
      <trkpt lat="48.68286" lon="-4.04532">
        <ele>14.7</ele>
        <time>2022-06-10T11:39:50Z</time>
      </trkpt>
      <trkpt lat="48.68287" lon="-4.04532">
        <ele>14.7</ele>
        <time>2022-06-10T11:39:51Z</time>
      </trkpt>
      <trkpt lat="48.68287" lon="-4.04533">
        <ele>14.7</ele>
        <time>2022-06-10T11:39:52Z</time>
      </trkpt>
      <trkpt lat="48.68288" lon="-4.04534">
        <ele>14.7</ele>
        <time>2022-06-10T11:39:53Z</time>
      </trkpt>
      <trkpt lat="48.68289" lon="-4.04535">
        <ele>14.7</ele>
        <time>2022-06-10T11:39:55Z</time>
      </trkpt>
      <trkpt lat="48.6829" lon="-4.04536">
        <ele>14.6</ele>
        <time>2022-06-10T11:39:56Z</time>
      </trkpt>
      <trkpt lat="48.68291" lon="-4.04537">
        <ele>14.6</ele>
        <time>2022-06-10T11:39:57Z</time>
      </trkpt>
      <trkpt lat="48.68292" lon="-4.04538">
        <ele>14.6</ele>
        <time>2022-06-10T11:39:58Z</time>
      </trkpt>
      <trkpt lat="48.68292" lon="-4.04538">
        <ele>14.6</ele>
        <time>2022-06-10T11:39:59Z</time>
      </trkpt>
      <trkpt lat="48.68292" lon="-4.04538">
        <ele>14.6</ele>
        <time>2022-06-10T11:40:00Z</time>
      </trkpt>
      <trkpt lat="48.68293" lon="-4.04538">
        <ele>14.6</ele>
        <time>2022-06-10T11:40:01Z</time>
      </trkpt>
      <trkpt lat="48.68293" lon="-4.04538">
        <ele>14.6</ele>
        <time>2022-06-10T11:40:02Z</time>
      </trkpt>
      <trkpt lat="48.68293" lon="-4.04538">
        <ele>14.6</ele>
        <time>2022-06-10T11:40:03Z</time>
      </trkpt>
      <trkpt lat="48.68293" lon="-4.04538">
        <ele>14.6</ele>
        <time>2022-06-10T11:40:04Z</time>
      </trkpt>
      <trkpt lat="48.68294" lon="-4.04538">
        <ele>14.6</ele>
        <time>2022-06-10T11:40:05Z</time>
      </trkpt>
      <trkpt lat="48.68294" lon="-4.04538">
        <ele>14.6</ele>
        <time>2022-06-10T11:40:06Z</time>
      </trkpt>
      <trkpt lat="48.68294" lon="-4.04538">
        <ele>14.6</ele>
        <time>2022-06-10T11:40:07Z</time>
      </trkpt>
      <trkpt lat="48.68294" lon="-4.04538">
        <ele>14.6</ele>
        <time>2022-06-10T11:40:08Z</time>
      </trkpt>
      <trkpt lat="48.68295" lon="-4.04538">
        <ele>14.6</ele>
        <time>2022-06-10T11:40:09Z</time>
      </trkpt>
      <trkpt lat="48.68295" lon="-4.04538">
        <ele>14.6</ele>
        <time>2022-06-10T11:40:10Z</time>
      </trkpt>
      <trkpt lat="48.68295" lon="-4.04538">
        <ele>14.6</ele>
        <time>2022-06-10T11:40:11Z</time>
      </trkpt>
      <trkpt lat="48.68296" lon="-4.04538">
        <ele>14.6</ele>
        <time>2022-06-10T11:40:13Z</time>
      </trkpt>
      <trkpt lat="48.68296" lon="-4.04538">
        <ele>14.5</ele>
        <time>2022-06-10T11:40:14Z</time>
      </trkpt>
      <trkpt lat="48.68296" lon="-4.04538">
        <ele>14.5</ele>
        <time>2022-06-10T11:40:15Z</time>
      </trkpt>
      <trkpt lat="48.68299" lon="-4.04539">
        <ele>14.5</ele>
        <time>2022-06-10T11:40:16Z</time>
      </trkpt>
      <trkpt lat="48.683" lon="-4.04539">
        <ele>14.5</ele>
        <time>2022-06-10T11:40:17Z</time>
      </trkpt>
      <trkpt lat="48.68301" lon="-4.04539">
        <ele>14.5</ele>
        <time>2022-06-10T11:40:18Z</time>
      </trkpt>
      <trkpt lat="48.68302" lon="-4.0454">
        <ele>14.4</ele>
        <time>2022-06-10T11:40:20Z</time>
      </trkpt>
      <trkpt lat="48.68303" lon="-4.0454">
        <ele>14.4</ele>
        <time>2022-06-10T11:40:21Z</time>
      </trkpt>
      <trkpt lat="48.68303" lon="-4.0454">
        <ele>14.4</ele>
        <time>2022-06-10T11:40:22Z</time>
      </trkpt>
      <trkpt lat="48.68305" lon="-4.0454">
        <ele>14.4</ele>
        <time>2022-06-10T11:40:23Z</time>
      </trkpt>
      <trkpt lat="48.68306" lon="-4.04541">
        <ele>14.4</ele>
        <time>2022-06-10T11:40:24Z</time>
      </trkpt>
      <trkpt lat="48.68307" lon="-4.04541">
        <ele>14.3</ele>
        <time>2022-06-10T11:40:25Z</time>
      </trkpt>
      <trkpt lat="48.68309" lon="-4.04541">
        <ele>14.3</ele>
        <time>2022-06-10T11:40:27Z</time>
      </trkpt>
      <trkpt lat="48.6831" lon="-4.04541">
        <ele>14.3</ele>
        <time>2022-06-10T11:40:28Z</time>
      </trkpt>
      <trkpt lat="48.68312" lon="-4.04542">
        <ele>14.3</ele>
        <time>2022-06-10T11:40:29Z</time>
      </trkpt>
      <trkpt lat="48.68313" lon="-4.04542">
        <ele>14.2</ele>
        <time>2022-06-10T11:40:30Z</time>
      </trkpt>
      <trkpt lat="48.68314" lon="-4.04543">
        <ele>14.2</ele>
        <time>2022-06-10T11:40:31Z</time>
      </trkpt>
      <trkpt lat="48.68315" lon="-4.04544">
        <ele>14.2</ele>
        <time>2022-06-10T11:40:32Z</time>
      </trkpt>
      <trkpt lat="48.68317" lon="-4.04544">
        <ele>14.2</ele>
        <time>2022-06-10T11:40:34Z</time>
      </trkpt>
      <trkpt lat="48.68319" lon="-4.04546">
        <ele>14.1</ele>
        <time>2022-06-10T11:40:35Z</time>
      </trkpt>
      <trkpt lat="48.6832" lon="-4.04547">
        <ele>14.1</ele>
        <time>2022-06-10T11:40:36Z</time>
      </trkpt>
      <trkpt lat="48.68321" lon="-4.04547">
        <ele>14.1</ele>
        <time>2022-06-10T11:40:37Z</time>
      </trkpt>
      <trkpt lat="48.68322" lon="-4.04547">
        <ele>14</ele>
        <time>2022-06-10T11:40:38Z</time>
      </trkpt>
      <trkpt lat="48.68323" lon="-4.04547">
        <ele>14</ele>
        <time>2022-06-10T11:40:39Z</time>
      </trkpt>
      <trkpt lat="48.68325" lon="-4.04548">
        <ele>14</ele>
        <time>2022-06-10T11:40:41Z</time>
      </trkpt>
      <trkpt lat="48.68326" lon="-4.04549">
        <ele>14</ele>
        <time>2022-06-10T11:40:42Z</time>
      </trkpt>
      <trkpt lat="48.68327" lon="-4.04549">
        <ele>14</ele>
        <time>2022-06-10T11:40:43Z</time>
      </trkpt>
      <trkpt lat="48.68328" lon="-4.0455">
        <ele>13.9</ele>
        <time>2022-06-10T11:40:44Z</time>
      </trkpt>
      <trkpt lat="48.68329" lon="-4.0455">
        <ele>13.9</ele>
        <time>2022-06-10T11:40:45Z</time>
      </trkpt>
      <trkpt lat="48.6833" lon="-4.04551">
        <ele>13.9</ele>
        <time>2022-06-10T11:40:47Z</time>
      </trkpt>
      <trkpt lat="48.68331" lon="-4.04552">
        <ele>13.9</ele>
        <time>2022-06-10T11:40:48Z</time>
      </trkpt>
      <trkpt lat="48.68333" lon="-4.04553">
        <ele>13.9</ele>
        <time>2022-06-10T11:40:49Z</time>
      </trkpt>
      <trkpt lat="48.68334" lon="-4.04554">
        <ele>13.8</ele>
        <time>2022-06-10T11:40:50Z</time>
      </trkpt>
      <trkpt lat="48.68334" lon="-4.04555">
        <ele>13.8</ele>
        <time>2022-06-10T11:40:51Z</time>
      </trkpt>
      <trkpt lat="48.68335" lon="-4.04556">
        <ele>13.8</ele>
        <time>2022-06-10T11:40:52Z</time>
      </trkpt>
      <trkpt lat="48.68336" lon="-4.04557">
        <ele>13.8</ele>
        <time>2022-06-10T11:40:54Z</time>
      </trkpt>
      <trkpt lat="48.68338" lon="-4.04558">
        <ele>13.8</ele>
        <time>2022-06-10T11:40:55Z</time>
      </trkpt>
      <trkpt lat="48.68339" lon="-4.04558">
        <ele>13.7</ele>
        <time>2022-06-10T11:40:56Z</time>
      </trkpt>
      <trkpt lat="48.6834" lon="-4.04559">
        <ele>13.7</ele>
        <time>2022-06-10T11:40:57Z</time>
      </trkpt>
      <trkpt lat="48.68341" lon="-4.04559">
        <ele>13.7</ele>
        <time>2022-06-10T11:40:58Z</time>
      </trkpt>
      <trkpt lat="48.68343" lon="-4.04561">
        <ele>13.7</ele>
        <time>2022-06-10T11:41:00Z</time>
      </trkpt>
      <trkpt lat="48.68343" lon="-4.04562">
        <ele>13.7</ele>
        <time>2022-06-10T11:41:01Z</time>
      </trkpt>
      <trkpt lat="48.68344" lon="-4.04562">
        <ele>13.7</ele>
        <time>2022-06-10T11:41:02Z</time>
      </trkpt>
      <trkpt lat="48.68344" lon="-4.04564">
        <ele>13.6</ele>
        <time>2022-06-10T11:41:03Z</time>
      </trkpt>
      <trkpt lat="48.68345" lon="-4.04565">
        <ele>13.6</ele>
        <time>2022-06-10T11:41:04Z</time>
      </trkpt>
      <trkpt lat="48.68346" lon="-4.04567">
        <ele>13.6</ele>
        <time>2022-06-10T11:41:05Z</time>
      </trkpt>
      <trkpt lat="48.68348" lon="-4.04569">
        <ele>13.5</ele>
        <time>2022-06-10T11:41:07Z</time>
      </trkpt>
      <trkpt lat="48.68348" lon="-4.0457">
        <ele>13.5</ele>
        <time>2022-06-10T11:41:08Z</time>
      </trkpt>
      <trkpt lat="48.68349" lon="-4.0457">
        <ele>13.5</ele>
        <time>2022-06-10T11:41:09Z</time>
      </trkpt>
      <trkpt lat="48.68351" lon="-4.04573">
        <ele>13.5</ele>
        <time>2022-06-10T11:41:10Z</time>
      </trkpt>
      <trkpt lat="48.68351" lon="-4.04574">
        <ele>13.4</ele>
        <time>2022-06-10T11:41:11Z</time>
      </trkpt>
      <trkpt lat="48.68352" lon="-4.04575">
        <ele>13.4</ele>
        <time>2022-06-10T11:41:12Z</time>
      </trkpt>
      <trkpt lat="48.68353" lon="-4.04576">
        <ele>13.4</ele>
        <time>2022-06-10T11:41:14Z</time>
      </trkpt>
      <trkpt lat="48.68354" lon="-4.04577">
        <ele>13.4</ele>
        <time>2022-06-10T11:41:15Z</time>
      </trkpt>
      <trkpt lat="48.68533" lon="-4.04802">
        <ele>9</ele>
        <time>2022-06-10T11:46:46Z</time>
      </trkpt>
      <trkpt lat="48.68536" lon="-4.04796">
        <ele>8.9</ele>
        <time>2022-06-10T11:46:48Z</time>
      </trkpt>
      <trkpt lat="48.68537" lon="-4.04795">
        <ele>8.9</ele>
        <time>2022-06-10T11:46:49Z</time>
      </trkpt>
      <trkpt lat="48.68537" lon="-4.04795">
        <ele>8.9</ele>
        <time>2022-06-10T11:46:50Z</time>
      </trkpt>
      <trkpt lat="48.68537" lon="-4.04795">
        <ele>8.9</ele>
        <time>2022-06-10T11:46:51Z</time>
      </trkpt>
      <trkpt lat="48.68537" lon="-4.04794">
        <ele>8.9</ele>
        <time>2022-06-10T11:46:52Z</time>
      </trkpt>
      <trkpt lat="48.68537" lon="-4.04794">
        <ele>8.9</ele>
        <time>2022-06-10T11:46:53Z</time>
      </trkpt>
      <trkpt lat="48.68537" lon="-4.04794">
        <ele>8.9</ele>
        <time>2022-06-10T11:46:55Z</time>
      </trkpt>
      <trkpt lat="48.68537" lon="-4.04794">
        <ele>8.9</ele>
        <time>2022-06-10T11:46:56Z</time>
      </trkpt>
      <trkpt lat="48.68537" lon="-4.04794">
        <ele>8.9</ele>
        <time>2022-06-10T11:46:57Z</time>
      </trkpt>
      <trkpt lat="48.68537" lon="-4.04793">
        <ele>8.9</ele>
        <time>2022-06-10T11:46:58Z</time>
      </trkpt>
      <trkpt lat="48.68536" lon="-4.04793">
        <ele>8.9</ele>
        <time>2022-06-10T11:47:00Z</time>
      </trkpt>
      <trkpt lat="48.68536" lon="-4.04793">
        <ele>8.9</ele>
        <time>2022-06-10T11:47:01Z</time>
      </trkpt>
      <trkpt lat="48.68537" lon="-4.04794">
        <ele>8.9</ele>
        <time>2022-06-10T11:47:02Z</time>
      </trkpt>
      <trkpt lat="48.68537" lon="-4.04794">
        <ele>8.9</ele>
        <time>2022-06-10T11:47:03Z</time>
      </trkpt>
      <trkpt lat="48.68537" lon="-4.04794">
        <ele>8.9</ele>
        <time>2022-06-10T11:47:04Z</time>
      </trkpt>
      <trkpt lat="48.68537" lon="-4.04794">
        <ele>8.9</ele>
        <time>2022-06-10T11:47:05Z</time>
      </trkpt>
      <trkpt lat="48.68537" lon="-4.04794">
        <ele>8.9</ele>
        <time>2022-06-10T11:47:06Z</time>
      </trkpt>
      <trkpt lat="48.68537" lon="-4.04794">
        <ele>8.9</ele>
        <time>2022-06-10T11:47:07Z</time>
      </trkpt>
      <trkpt lat="48.68537" lon="-4.04794">
        <ele>8.9</ele>
        <time>2022-06-10T11:47:08Z</time>
      </trkpt>
      <trkpt lat="48.68537" lon="-4.04794">
        <ele>8.9</ele>
        <time>2022-06-10T11:47:09Z</time>
      </trkpt>
      <trkpt lat="48.68537" lon="-4.04794">
        <ele>8.9</ele>
        <time>2022-06-10T11:47:10Z</time>
      </trkpt>
      <trkpt lat="48.68537" lon="-4.04794">
        <ele>8.9</ele>
        <time>2022-06-10T11:47:11Z</time>
      </trkpt>
      <trkpt lat="48.68537" lon="-4.04794">
        <ele>8.9</ele>
        <time>2022-06-10T11:47:12Z</time>
      </trkpt>
      <trkpt lat="48.68537" lon="-4.04794">
        <ele>8.9</ele>
        <time>2022-06-10T11:47:13Z</time>
      </trkpt>
      <trkpt lat="48.68537" lon="-4.04794">
        <ele>8.9</ele>
        <time>2022-06-10T11:47:14Z</time>
      </trkpt>
      <trkpt lat="48.68537" lon="-4.04794">
        <ele>8.9</ele>
        <time>2022-06-10T11:47:15Z</time>
      </trkpt>
      <trkpt lat="48.68537" lon="-4.04794">
        <ele>8.9</ele>
        <time>2022-06-10T11:47:16Z</time>
      </trkpt>
      <trkpt lat="48.68537" lon="-4.04794">
        <ele>8.9</ele>
        <time>2022-06-10T11:47:17Z</time>
      </trkpt>
      <trkpt lat="48.68537" lon="-4.04794">
        <ele>8.9</ele>
        <time>2022-06-10T11:47:18Z</time>
      </trkpt>
      <trkpt lat="48.68537" lon="-4.04794">
        <ele>8.9</ele>
        <time>2022-06-10T11:47:19Z</time>
      </trkpt>
      <trkpt lat="48.68537" lon="-4.04794">
        <ele>8.9</ele>
        <time>2022-06-10T11:47:20Z</time>
      </trkpt>
      <trkpt lat="48.68537" lon="-4.04794">
        <ele>8.9</ele>
        <time>2022-06-10T11:47:21Z</time>
      </trkpt>
      <trkpt lat="48.68537" lon="-4.04794">
        <ele>8.9</ele>
        <time>2022-06-10T11:47:22Z</time>
      </trkpt>
      <trkpt lat="48.68537" lon="-4.04794">
        <ele>8.9</ele>
        <time>2022-06-10T11:47:23Z</time>
      </trkpt>
      <trkpt lat="48.68537" lon="-4.04794">
        <ele>8.9</ele>
        <time>2022-06-10T11:47:24Z</time>
      </trkpt>
      <trkpt lat="48.68537" lon="-4.04794">
        <ele>8.9</ele>
        <time>2022-06-10T11:47:25Z</time>
      </trkpt>
      <trkpt lat="48.68537" lon="-4.04794">
        <ele>8.9</ele>
        <time>2022-06-10T11:47:26Z</time>
      </trkpt>
      <trkpt lat="48.68537" lon="-4.04794">
        <ele>8.9</ele>
        <time>2022-06-10T11:47:27Z</time>
      </trkpt>
      <trkpt lat="48.68537" lon="-4.04794">
        <ele>8.9</ele>
        <time>2022-06-10T11:47:28Z</time>
      </trkpt>
      <trkpt lat="48.68537" lon="-4.04794">
        <ele>8.9</ele>
        <time>2022-06-10T11:47:29Z</time>
      </trkpt>
      <trkpt lat="48.68537" lon="-4.04794">
        <ele>8.9</ele>
        <time>2022-06-10T11:47:30Z</time>
      </trkpt>
      <trkpt lat="48.68537" lon="-4.04794">
        <ele>8.9</ele>
        <time>2022-06-10T11:47:31Z</time>
      </trkpt>
      <trkpt lat="48.68537" lon="-4.04794">
        <ele>8.9</ele>
        <time>2022-06-10T11:47:32Z</time>
      </trkpt>
      <trkpt lat="48.68537" lon="-4.04794">
        <ele>8.9</ele>
        <time>2022-06-10T11:47:33Z</time>
      </trkpt>
      <trkpt lat="48.68537" lon="-4.04794">
        <ele>8.9</ele>
        <time>2022-06-10T11:47:34Z</time>
      </trkpt>
      <trkpt lat="48.68537" lon="-4.04794">
        <ele>8.9</ele>
        <time>2022-06-10T11:47:35Z</time>
      </trkpt>
      <trkpt lat="48.68537" lon="-4.04794">
        <ele>8.9</ele>
        <time>2022-06-10T11:47:36Z</time>
      </trkpt>
      <trkpt lat="48.68537" lon="-4.04794">
        <ele>8.9</ele>
        <time>2022-06-10T11:47:37Z</time>
      </trkpt>
      <trkpt lat="48.68537" lon="-4.04794">
        <ele>8.9</ele>
        <time>2022-06-10T11:47:38Z</time>
      </trkpt>
      <trkpt lat="48.68537" lon="-4.04794">
        <ele>8.9</ele>
        <time>2022-06-10T11:47:39Z</time>
      </trkpt>
      <trkpt lat="48.68537" lon="-4.04794">
        <ele>8.9</ele>
        <time>2022-06-10T11:47:40Z</time>
      </trkpt>
      <trkpt lat="48.68537" lon="-4.04794">
        <ele>8.9</ele>
        <time>2022-06-10T11:47:41Z</time>
      </trkpt>
      <trkpt lat="48.68537" lon="-4.04794">
        <ele>8.9</ele>
        <time>2022-06-10T11:47:42Z</time>
      </trkpt>
      <trkpt lat="48.68537" lon="-4.04794">
        <ele>8.9</ele>
        <time>2022-06-10T11:47:43Z</time>
      </trkpt>
      <trkpt lat="48.68537" lon="-4.04794">
        <ele>8.9</ele>
        <time>2022-06-10T11:47:44Z</time>
      </trkpt>
      <trkpt lat="48.68537" lon="-4.04794">
        <ele>8.9</ele>
        <time>2022-06-10T11:47:45Z</time>
      </trkpt>
      <trkpt lat="48.68537" lon="-4.04794">
        <ele>8.9</ele>
        <time>2022-06-10T11:47:46Z</time>
      </trkpt>
      <trkpt lat="48.68537" lon="-4.04794">
        <ele>8.9</ele>
        <time>2022-06-10T11:47:47Z</time>
      </trkpt>
      <trkpt lat="48.68537" lon="-4.04794">
        <ele>8.9</ele>
        <time>2022-06-10T11:47:48Z</time>
      </trkpt>
      <trkpt lat="48.68537" lon="-4.04794">
        <ele>8.9</ele>
        <time>2022-06-10T11:47:49Z</time>
      </trkpt>
      <trkpt lat="48.68537" lon="-4.04794">
        <ele>8.9</ele>
        <time>2022-06-10T11:47:50Z</time>
      </trkpt>
      <trkpt lat="48.68537" lon="-4.04794">
        <ele>8.9</ele>
        <time>2022-06-10T11:47:51Z</time>
      </trkpt>
      <trkpt lat="48.68537" lon="-4.04794">
        <ele>8.9</ele>
        <time>2022-06-10T11:47:52Z</time>
      </trkpt>
      <trkpt lat="48.68537" lon="-4.04794">
        <ele>8.9</ele>
        <time>2022-06-10T11:47:53Z</time>
      </trkpt>
      <trkpt lat="48.68537" lon="-4.04794">
        <ele>8.9</ele>
        <time>2022-06-10T11:47:54Z</time>
      </trkpt>
      <trkpt lat="48.68537" lon="-4.04794">
        <ele>8.9</ele>
        <time>2022-06-10T11:47:55Z</time>
      </trkpt>
      <trkpt lat="48.68537" lon="-4.04794">
        <ele>8.9</ele>
        <time>2022-06-10T11:47:56Z</time>
      </trkpt>
      <trkpt lat="48.68537" lon="-4.04794">
        <ele>8.9</ele>
        <time>2022-06-10T11:47:57Z</time>
      </trkpt>
      <trkpt lat="48.68537" lon="-4.04794">
        <ele>8.9</ele>
        <time>2022-06-10T11:47:58Z</time>
      </trkpt>
      <trkpt lat="48.68537" lon="-4.04794">
        <ele>8.9</ele>
        <time>2022-06-10T11:47:59Z</time>
      </trkpt>
      <trkpt lat="48.68537" lon="-4.04794">
        <ele>8.9</ele>
        <time>2022-06-10T11:48:00Z</time>
      </trkpt>
      <trkpt lat="48.68537" lon="-4.04794">
        <ele>8.9</ele>
        <time>2022-06-10T11:48:01Z</time>
      </trkpt>
      <trkpt lat="48.68537" lon="-4.04794">
        <ele>8.9</ele>
        <time>2022-06-10T11:48:02Z</time>
      </trkpt>
      <trkpt lat="48.68537" lon="-4.04794">
        <ele>8.9</ele>
        <time>2022-06-10T11:48:03Z</time>
      </trkpt>
      <trkpt lat="48.68538" lon="-4.04794">
        <ele>8.9</ele>
        <time>2022-06-10T11:48:04Z</time>
      </trkpt>
      <trkpt lat="48.68539" lon="-4.04793">
        <ele>8.9</ele>
        <time>2022-06-10T11:48:05Z</time>
      </trkpt>
      <trkpt lat="48.68539" lon="-4.04793">
        <ele>8.9</ele>
        <time>2022-06-10T11:48:06Z</time>
      </trkpt>
      <trkpt lat="48.68541" lon="-4.04792">
        <ele>8.9</ele>
        <time>2022-06-10T11:48:07Z</time>
      </trkpt>
      <trkpt lat="48.68542" lon="-4.04792">
        <ele>8.9</ele>
        <time>2022-06-10T11:48:08Z</time>
      </trkpt>
      <trkpt lat="48.68543" lon="-4.04792">
        <ele>8.9</ele>
        <time>2022-06-10T11:48:09Z</time>
      </trkpt>
      <trkpt lat="48.68543" lon="-4.04792">
        <ele>8.9</ele>
        <time>2022-06-10T11:48:10Z</time>
      </trkpt>
      <trkpt lat="48.68544" lon="-4.04792">
        <ele>8.9</ele>
        <time>2022-06-10T11:48:11Z</time>
      </trkpt>
      <trkpt lat="48.68544" lon="-4.04792">
        <ele>8.9</ele>
        <time>2022-06-10T11:48:12Z</time>
      </trkpt>
      <trkpt lat="48.68544" lon="-4.04792">
        <ele>8.9</ele>
        <time>2022-06-10T11:48:13Z</time>
      </trkpt>
      <trkpt lat="48.68543" lon="-4.04792">
        <ele>8.9</ele>
        <time>2022-06-10T11:48:14Z</time>
      </trkpt>
      <trkpt lat="48.68543" lon="-4.04792">
        <ele>8.9</ele>
        <time>2022-06-10T11:48:15Z</time>
      </trkpt>
      <trkpt lat="48.68543" lon="-4.04792">
        <ele>8.9</ele>
        <time>2022-06-10T11:48:16Z</time>
      </trkpt>
      <trkpt lat="48.68543" lon="-4.04792">
        <ele>8.9</ele>
        <time>2022-06-10T11:48:17Z</time>
      </trkpt>
      <trkpt lat="48.68543" lon="-4.04792">
        <ele>8.9</ele>
        <time>2022-06-10T11:48:18Z</time>
      </trkpt>
      <trkpt lat="48.68543" lon="-4.04792">
        <ele>8.9</ele>
        <time>2022-06-10T11:48:19Z</time>
      </trkpt>
      <trkpt lat="48.68543" lon="-4.04792">
        <ele>8.9</ele>
        <time>2022-06-10T11:48:20Z</time>
      </trkpt>
      <trkpt lat="48.68543" lon="-4.04792">
        <ele>8.9</ele>
        <time>2022-06-10T11:48:21Z</time>
      </trkpt>
      <trkpt lat="48.68543" lon="-4.04792">
        <ele>8.9</ele>
        <time>2022-06-10T11:48:22Z</time>
      </trkpt>
      <trkpt lat="48.68543" lon="-4.04792">
        <ele>8.9</ele>
        <time>2022-06-10T11:48:24Z</time>
      </trkpt>
      <trkpt lat="48.68543" lon="-4.04792">
        <ele>8.9</ele>
        <time>2022-06-10T11:48:25Z</time>
      </trkpt>
      <trkpt lat="48.68543" lon="-4.04793">
        <ele>8.9</ele>
        <time>2022-06-10T11:48:26Z</time>
      </trkpt>
      <trkpt lat="48.68544" lon="-4.04793">
        <ele>8.9</ele>
        <time>2022-06-10T11:48:27Z</time>
      </trkpt>
      <trkpt lat="48.68544" lon="-4.04793">
        <ele>8.9</ele>
        <time>2022-06-10T11:48:28Z</time>
      </trkpt>
      <trkpt lat="48.68545" lon="-4.04794">
        <ele>8.9</ele>
        <time>2022-06-10T11:48:29Z</time>
      </trkpt>
      <trkpt lat="48.68545" lon="-4.04794">
        <ele>8.9</ele>
        <time>2022-06-10T11:48:30Z</time>
      </trkpt>
      <trkpt lat="48.68545" lon="-4.04795">
        <ele>8.9</ele>
        <time>2022-06-10T11:48:31Z</time>
      </trkpt>
      <trkpt lat="48.68545" lon="-4.04795">
        <ele>8.9</ele>
        <time>2022-06-10T11:48:32Z</time>
      </trkpt>
      <trkpt lat="48.68545" lon="-4.04796">
        <ele>8.9</ele>
        <time>2022-06-10T11:48:33Z</time>
      </trkpt>
      <trkpt lat="48.68545" lon="-4.04796">
        <ele>8.9</ele>
        <time>2022-06-10T11:48:34Z</time>
      </trkpt>
      <trkpt lat="48.68545" lon="-4.04797">
        <ele>8.9</ele>
        <time>2022-06-10T11:48:35Z</time>
      </trkpt>
      <trkpt lat="48.68545" lon="-4.04797">
        <ele>8.9</ele>
        <time>2022-06-10T11:48:36Z</time>
      </trkpt>
      <trkpt lat="48.68545" lon="-4.04798">
        <ele>8.9</ele>
        <time>2022-06-10T11:48:37Z</time>
      </trkpt>
      <trkpt lat="48.68545" lon="-4.04798">
        <ele>8.9</ele>
        <time>2022-06-10T11:48:38Z</time>
      </trkpt>
      <trkpt lat="48.68545" lon="-4.04799">
        <ele>8.9</ele>
        <time>2022-06-10T11:48:39Z</time>
      </trkpt>
      <trkpt lat="48.68545" lon="-4.04799">
        <ele>8.9</ele>
        <time>2022-06-10T11:48:40Z</time>
      </trkpt>
      <trkpt lat="48.68545" lon="-4.048">
        <ele>8.9</ele>
        <time>2022-06-10T11:48:41Z</time>
      </trkpt>
      <trkpt lat="48.68545" lon="-4.048">
        <ele>8.9</ele>
        <time>2022-06-10T11:48:42Z</time>
      </trkpt>
      <trkpt lat="48.68545" lon="-4.04801">
        <ele>8.9</ele>
        <time>2022-06-10T11:48:43Z</time>
      </trkpt>
      <trkpt lat="48.68545" lon="-4.04802">
        <ele>8.9</ele>
        <time>2022-06-10T11:48:44Z</time>
      </trkpt>
      <trkpt lat="48.68545" lon="-4.04802">
        <ele>8.9</ele>
        <time>2022-06-10T11:48:45Z</time>
      </trkpt>
      <trkpt lat="48.68544" lon="-4.04803">
        <ele>8.9</ele>
        <time>2022-06-10T11:48:46Z</time>
      </trkpt>
      <trkpt lat="48.68544" lon="-4.04803">
        <ele>8.9</ele>
        <time>2022-06-10T11:48:47Z</time>
      </trkpt>
      <trkpt lat="48.68544" lon="-4.04804">
        <ele>8.9</ele>
        <time>2022-06-10T11:48:48Z</time>
      </trkpt>
      <trkpt lat="48.68544" lon="-4.04804">
        <ele>8.9</ele>
        <time>2022-06-10T11:48:50Z</time>
      </trkpt>
      <trkpt lat="48.68544" lon="-4.04805">
        <ele>8.8</ele>
        <time>2022-06-10T11:48:51Z</time>
      </trkpt>
      <trkpt lat="48.68544" lon="-4.04805">
        <ele>8.8</ele>
        <time>2022-06-10T11:48:52Z</time>
      </trkpt>
      <trkpt lat="48.68544" lon="-4.04806">
        <ele>8.8</ele>
        <time>2022-06-10T11:48:53Z</time>
      </trkpt>
      <trkpt lat="48.68545" lon="-4.0481">
        <ele>8.7</ele>
        <time>2022-06-10T11:48:55Z</time>
      </trkpt>
      <trkpt lat="48.68545" lon="-4.04811">
        <ele>8.7</ele>
        <time>2022-06-10T11:48:56Z</time>
      </trkpt>
      <trkpt lat="48.68546" lon="-4.04813">
        <ele>8.6</ele>
        <time>2022-06-10T11:48:57Z</time>
      </trkpt>
      <trkpt lat="48.68547" lon="-4.04815">
        <ele>8.6</ele>
        <time>2022-06-10T11:48:58Z</time>
      </trkpt>
      <trkpt lat="48.68548" lon="-4.04816">
        <ele>8.5</ele>
        <time>2022-06-10T11:48:59Z</time>
      </trkpt>
      <trkpt lat="48.68549" lon="-4.04817">
        <ele>8.5</ele>
        <time>2022-06-10T11:49:00Z</time>
      </trkpt>
      <trkpt lat="48.6855" lon="-4.04819">
        <ele>8.5</ele>
        <time>2022-06-10T11:49:02Z</time>
      </trkpt>
      <trkpt lat="48.68551" lon="-4.04821">
        <ele>8.4</ele>
        <time>2022-06-10T11:49:03Z</time>
      </trkpt>
      <trkpt lat="48.68552" lon="-4.04823">
        <ele>8.4</ele>
        <time>2022-06-10T11:49:04Z</time>
      </trkpt>
      <trkpt lat="48.68553" lon="-4.04823">
        <ele>8.3</ele>
        <time>2022-06-10T11:49:05Z</time>
      </trkpt>
      <trkpt lat="48.68554" lon="-4.04824">
        <ele>8.3</ele>
        <time>2022-06-10T11:49:06Z</time>
      </trkpt>
      <trkpt lat="48.68555" lon="-4.04825">
        <ele>8.3</ele>
        <time>2022-06-10T11:49:08Z</time>
      </trkpt>
      <trkpt lat="48.68556" lon="-4.04826">
        <ele>8.3</ele>
        <time>2022-06-10T11:49:09Z</time>
      </trkpt>
      <trkpt lat="48.68652" lon="-4.04873">
        <ele>5</ele>
        <time>2022-06-10T11:51:23Z</time>
      </trkpt>
      <trkpt lat="48.68653" lon="-4.04882">
        <ele>4.7</ele>
        <time>2022-06-10T11:51:24Z</time>
      </trkpt>
      <trkpt lat="48.68654" lon="-4.04885">
        <ele>4.7</ele>
        <time>2022-06-10T11:51:25Z</time>
      </trkpt>
      <trkpt lat="48.68654" lon="-4.04886">
        <ele>4.6</ele>
        <time>2022-06-10T11:51:26Z</time>
      </trkpt>
      <trkpt lat="48.68654" lon="-4.04887">
        <ele>4.6</ele>
        <time>2022-06-10T11:51:27Z</time>
      </trkpt>
      <trkpt lat="48.68654" lon="-4.04888">
        <ele>4.6</ele>
        <time>2022-06-10T11:51:28Z</time>
      </trkpt>
      <trkpt lat="48.68654" lon="-4.04888">
        <ele>4.6</ele>
        <time>2022-06-10T11:51:29Z</time>
      </trkpt>
      <trkpt lat="48.68654" lon="-4.04888">
        <ele>4.6</ele>
        <time>2022-06-10T11:51:30Z</time>
      </trkpt>
      <trkpt lat="48.68654" lon="-4.04889">
        <ele>4.6</ele>
        <time>2022-06-10T11:51:31Z</time>
      </trkpt>
      <trkpt lat="48.68654" lon="-4.04889">
        <ele>4.6</ele>
        <time>2022-06-10T11:51:32Z</time>
      </trkpt>
      <trkpt lat="48.68654" lon="-4.04889">
        <ele>4.6</ele>
        <time>2022-06-10T11:51:33Z</time>
      </trkpt>
      <trkpt lat="48.68654" lon="-4.04889">
        <ele>4.6</ele>
        <time>2022-06-10T11:51:34Z</time>
      </trkpt>
      <trkpt lat="48.68654" lon="-4.04889">
        <ele>4.6</ele>
        <time>2022-06-10T11:51:35Z</time>
      </trkpt>
      <trkpt lat="48.68654" lon="-4.04889">
        <ele>4.6</ele>
        <time>2022-06-10T11:51:36Z</time>
      </trkpt>
      <trkpt lat="48.68654" lon="-4.04889">
        <ele>4.6</ele>
        <time>2022-06-10T11:51:37Z</time>
      </trkpt>
      <trkpt lat="48.68654" lon="-4.04889">
        <ele>4.6</ele>
        <time>2022-06-10T11:51:38Z</time>
      </trkpt>
      <trkpt lat="48.68654" lon="-4.04889">
        <ele>4.6</ele>
        <time>2022-06-10T11:51:39Z</time>
      </trkpt>
      <trkpt lat="48.68654" lon="-4.04889">
        <ele>4.6</ele>
        <time>2022-06-10T11:51:40Z</time>
      </trkpt>
      <trkpt lat="48.68654" lon="-4.04889">
        <ele>4.6</ele>
        <time>2022-06-10T11:51:41Z</time>
      </trkpt>
      <trkpt lat="48.68654" lon="-4.04889">
        <ele>4.6</ele>
        <time>2022-06-10T11:51:42Z</time>
      </trkpt>
      <trkpt lat="48.68654" lon="-4.04889">
        <ele>4.6</ele>
        <time>2022-06-10T11:51:43Z</time>
      </trkpt>
      <trkpt lat="48.68654" lon="-4.04889">
        <ele>4.6</ele>
        <time>2022-06-10T11:51:44Z</time>
      </trkpt>
      <trkpt lat="48.68654" lon="-4.04889">
        <ele>4.6</ele>
        <time>2022-06-10T11:51:45Z</time>
      </trkpt>
      <trkpt lat="48.68654" lon="-4.04889">
        <ele>4.6</ele>
        <time>2022-06-10T11:51:46Z</time>
      </trkpt>
      <trkpt lat="48.68654" lon="-4.04889">
        <ele>4.6</ele>
        <time>2022-06-10T11:51:47Z</time>
      </trkpt>
      <trkpt lat="48.68654" lon="-4.04889">
        <ele>4.6</ele>
        <time>2022-06-10T11:51:48Z</time>
      </trkpt>
      <trkpt lat="48.68655" lon="-4.04889">
        <ele>4.6</ele>
        <time>2022-06-10T11:51:49Z</time>
      </trkpt>
      <trkpt lat="48.68655" lon="-4.04889">
        <ele>4.6</ele>
        <time>2022-06-10T11:51:50Z</time>
      </trkpt>
      <trkpt lat="48.68655" lon="-4.04889">
        <ele>4.6</ele>
        <time>2022-06-10T11:51:52Z</time>
      </trkpt>
      <trkpt lat="48.68655" lon="-4.04889">
        <ele>4.6</ele>
        <time>2022-06-10T11:51:53Z</time>
      </trkpt>
      <trkpt lat="48.68655" lon="-4.04888">
        <ele>4.6</ele>
        <time>2022-06-10T11:51:54Z</time>
      </trkpt>
      <trkpt lat="48.68656" lon="-4.04888">
        <ele>4.5</ele>
        <time>2022-06-10T11:51:55Z</time>
      </trkpt>
      <trkpt lat="48.68657" lon="-4.04887">
        <ele>4.5</ele>
        <time>2022-06-10T11:51:56Z</time>
      </trkpt>
      <trkpt lat="48.68658" lon="-4.04887">
        <ele>4.5</ele>
        <time>2022-06-10T11:51:58Z</time>
      </trkpt>
      <trkpt lat="48.68659" lon="-4.04888">
        <ele>4.4</ele>
        <time>2022-06-10T11:51:59Z</time>
      </trkpt>
      <trkpt lat="48.68661" lon="-4.04889">
        <ele>4.4</ele>
        <time>2022-06-10T11:52:00Z</time>
      </trkpt>
      <trkpt lat="48.68663" lon="-4.0489">
        <ele>4.3</ele>
        <time>2022-06-10T11:52:01Z</time>
      </trkpt>
      <trkpt lat="48.68664" lon="-4.0489">
        <ele>4.3</ele>
        <time>2022-06-10T11:52:02Z</time>
      </trkpt>
      <trkpt lat="48.68665" lon="-4.04891">
        <ele>4.3</ele>
        <time>2022-06-10T11:52:03Z</time>
      </trkpt>
      <trkpt lat="48.68666" lon="-4.04891">
        <ele>4.2</ele>
        <time>2022-06-10T11:52:04Z</time>
      </trkpt>
      <trkpt lat="48.68667" lon="-4.04893">
        <ele>4.2</ele>
        <time>2022-06-10T11:52:05Z</time>
      </trkpt>
      <trkpt lat="48.68668" lon="-4.04894">
        <ele>4.2</ele>
        <time>2022-06-10T11:52:07Z</time>
      </trkpt>
      <trkpt lat="48.68669" lon="-4.04895">
        <ele>4.1</ele>
        <time>2022-06-10T11:52:08Z</time>
      </trkpt>
      <trkpt lat="48.6867" lon="-4.04896">
        <ele>4.1</ele>
        <time>2022-06-10T11:52:09Z</time>
      </trkpt>
      <trkpt lat="48.68671" lon="-4.04897">
        <ele>4.1</ele>
        <time>2022-06-10T11:52:10Z</time>
      </trkpt>
      <trkpt lat="48.68671" lon="-4.04897">
        <ele>4.1</ele>
        <time>2022-06-10T11:52:11Z</time>
      </trkpt>
      <trkpt lat="48.68671" lon="-4.04898">
        <ele>4.1</ele>
        <time>2022-06-10T11:52:13Z</time>
      </trkpt>
      <trkpt lat="48.68671" lon="-4.04898">
        <ele>4</ele>
        <time>2022-06-10T11:52:14Z</time>
      </trkpt>
      <trkpt lat="48.68672" lon="-4.04899">
        <ele>4</ele>
        <time>2022-06-10T11:52:15Z</time>
      </trkpt>
      <trkpt lat="48.68672" lon="-4.04899">
        <ele>4</ele>
        <time>2022-06-10T11:52:16Z</time>
      </trkpt>
      <trkpt lat="48.68673" lon="-4.049">
        <ele>4</ele>
        <time>2022-06-10T11:52:17Z</time>
      </trkpt>
      <trkpt lat="48.68674" lon="-4.04901">
        <ele>4</ele>
        <time>2022-06-10T11:52:19Z</time>
      </trkpt>
      <trkpt lat="48.68674" lon="-4.04901">
        <ele>4</ele>
        <time>2022-06-10T11:52:20Z</time>
      </trkpt>
      <trkpt lat="48.68674" lon="-4.04902">
        <ele>4</ele>
        <time>2022-06-10T11:52:21Z</time>
      </trkpt>
      <trkpt lat="48.68675" lon="-4.04902">
        <ele>3.9</ele>
        <time>2022-06-10T11:52:22Z</time>
      </trkpt>
      <trkpt lat="48.68675" lon="-4.04903">
        <ele>3.9</ele>
        <time>2022-06-10T11:52:23Z</time>
      </trkpt>
      <trkpt lat="48.68675" lon="-4.04905">
        <ele>3.9</ele>
        <time>2022-06-10T11:52:24Z</time>
      </trkpt>
      <trkpt lat="48.68676" lon="-4.04906">
        <ele>3.9</ele>
        <time>2022-06-10T11:52:25Z</time>
      </trkpt>
      <trkpt lat="48.68676" lon="-4.04907">
        <ele>3.9</ele>
        <time>2022-06-10T11:52:26Z</time>
      </trkpt>
      <trkpt lat="48.68676" lon="-4.04912">
        <ele>3.8</ele>
        <time>2022-06-10T11:52:28Z</time>
      </trkpt>
      <trkpt lat="48.68677" lon="-4.04913">
        <ele>3.8</ele>
        <time>2022-06-10T11:52:29Z</time>
      </trkpt>
      <trkpt lat="48.68676" lon="-4.04914">
        <ele>3.8</ele>
        <time>2022-06-10T11:52:30Z</time>
      </trkpt>
      <trkpt lat="48.68677" lon="-4.04916">
        <ele>3.8</ele>
        <time>2022-06-10T11:52:31Z</time>
      </trkpt>
      <trkpt lat="48.68677" lon="-4.04918">
        <ele>3.8</ele>
        <time>2022-06-10T11:52:32Z</time>
      </trkpt>
      <trkpt lat="48.68678" lon="-4.04921">
        <ele>3.7</ele>
        <time>2022-06-10T11:52:34Z</time>
      </trkpt>
      <trkpt lat="48.68678" lon="-4.04922">
        <ele>3.7</ele>
        <time>2022-06-10T11:52:35Z</time>
      </trkpt>
      <trkpt lat="48.68678" lon="-4.04923">
        <ele>3.7</ele>
        <time>2022-06-10T11:52:36Z</time>
      </trkpt>
      <trkpt lat="48.68679" lon="-4.04926">
        <ele>3.7</ele>
        <time>2022-06-10T11:52:37Z</time>
      </trkpt>
      <trkpt lat="48.68679" lon="-4.04928">
        <ele>3.7</ele>
        <time>2022-06-10T11:52:38Z</time>
      </trkpt>
      <trkpt lat="48.6868" lon="-4.04929">
        <ele>3.7</ele>
        <time>2022-06-10T11:52:39Z</time>
      </trkpt>
      <trkpt lat="48.6868" lon="-4.0493">
        <ele>3.7</ele>
        <time>2022-06-10T11:52:40Z</time>
      </trkpt>
      <trkpt lat="48.68681" lon="-4.04932">
        <ele>3.7</ele>
        <time>2022-06-10T11:52:41Z</time>
      </trkpt>
      <trkpt lat="48.68682" lon="-4.04934">
        <ele>3.7</ele>
        <time>2022-06-10T11:52:43Z</time>
      </trkpt>
      <trkpt lat="48.68683" lon="-4.04936">
        <ele>3.6</ele>
        <time>2022-06-10T11:52:44Z</time>
      </trkpt>
      <trkpt lat="48.68683" lon="-4.04937">
        <ele>3.6</ele>
        <time>2022-06-10T11:52:45Z</time>
      </trkpt>
      <trkpt lat="48.68685" lon="-4.0494">
        <ele>3.6</ele>
        <time>2022-06-10T11:52:46Z</time>
      </trkpt>
      <trkpt lat="48.68685" lon="-4.04941">
        <ele>3.6</ele>
        <time>2022-06-10T11:52:48Z</time>
      </trkpt>
      <trkpt lat="48.68686" lon="-4.04942">
        <ele>3.6</ele>
        <time>2022-06-10T11:52:49Z</time>
      </trkpt>
      <trkpt lat="48.68687" lon="-4.04942">
        <ele>3.6</ele>
        <time>2022-06-10T11:52:50Z</time>
      </trkpt>
      <trkpt lat="48.68688" lon="-4.04943">
        <ele>3.6</ele>
        <time>2022-06-10T11:52:51Z</time>
      </trkpt>
      <trkpt lat="48.68689" lon="-4.04943">
        <ele>3.6</ele>
        <time>2022-06-10T11:52:53Z</time>
      </trkpt>
      <trkpt lat="48.6869" lon="-4.04944">
        <ele>3.5</ele>
        <time>2022-06-10T11:52:54Z</time>
      </trkpt>
      <trkpt lat="48.68691" lon="-4.04944">
        <ele>3.5</ele>
        <time>2022-06-10T11:52:56Z</time>
      </trkpt>
      <trkpt lat="48.68692" lon="-4.04943">
        <ele>3.5</ele>
        <time>2022-06-10T11:52:57Z</time>
      </trkpt>
      <trkpt lat="48.68693" lon="-4.04942">
        <ele>3.5</ele>
        <time>2022-06-10T11:52:58Z</time>
      </trkpt>
      <trkpt lat="48.68685" lon="-4.04939">
        <ele>3.4</ele>
        <time>2022-06-10T11:53:43Z</time>
      </trkpt>
      <trkpt lat="48.68688" lon="-4.0494">
        <ele>3.4</ele>
        <time>2022-06-10T11:53:45Z</time>
      </trkpt>
      <trkpt lat="48.68692" lon="-4.04942">
        <ele>3.4</ele>
        <time>2022-06-10T11:53:46Z</time>
      </trkpt>
      <trkpt lat="48.68695" lon="-4.04942">
        <ele>3.4</ele>
        <time>2022-06-10T11:53:47Z</time>
      </trkpt>
      <trkpt lat="48.687" lon="-4.04942">
        <ele>3.3</ele>
        <time>2022-06-10T11:53:48Z</time>
      </trkpt>
      <trkpt lat="48.68699" lon="-4.04942">
        <ele>3.3</ele>
        <time>2022-06-10T11:53:50Z</time>
      </trkpt>
      <trkpt lat="48.68698" lon="-4.04944">
        <ele>3.3</ele>
        <time>2022-06-10T11:53:51Z</time>
      </trkpt>
      <trkpt lat="48.68699" lon="-4.04944">
        <ele>3.3</ele>
        <time>2022-06-10T11:53:52Z</time>
      </trkpt>
      <trkpt lat="48.68698" lon="-4.04944">
        <ele>3.3</ele>
        <time>2022-06-10T11:53:53Z</time>
      </trkpt>
      <trkpt lat="48.68698" lon="-4.04944">
        <ele>3.3</ele>
        <time>2022-06-10T11:53:54Z</time>
      </trkpt>
      <trkpt lat="48.68698" lon="-4.04944">
        <ele>3.3</ele>
        <time>2022-06-10T11:53:55Z</time>
      </trkpt>
      <trkpt lat="48.68698" lon="-4.04944">
        <ele>3.3</ele>
        <time>2022-06-10T11:53:56Z</time>
      </trkpt>
      <trkpt lat="48.68698" lon="-4.04944">
        <ele>3.3</ele>
        <time>2022-06-10T11:53:57Z</time>
      </trkpt>
      <trkpt lat="48.68698" lon="-4.04944">
        <ele>3.3</ele>
        <time>2022-06-10T11:53:58Z</time>
      </trkpt>
      <trkpt lat="48.68698" lon="-4.04944">
        <ele>3.3</ele>
        <time>2022-06-10T11:53:59Z</time>
      </trkpt>
      <trkpt lat="48.68698" lon="-4.04944">
        <ele>3.3</ele>
        <time>2022-06-10T11:54:00Z</time>
      </trkpt>
      <trkpt lat="48.68698" lon="-4.04944">
        <ele>3.3</ele>
        <time>2022-06-10T11:54:01Z</time>
      </trkpt>
      <trkpt lat="48.68698" lon="-4.04944">
        <ele>3.3</ele>
        <time>2022-06-10T11:54:02Z</time>
      </trkpt>
      <trkpt lat="48.68698" lon="-4.04944">
        <ele>3.3</ele>
        <time>2022-06-10T11:54:03Z</time>
      </trkpt>
      <trkpt lat="48.68698" lon="-4.04944">
        <ele>3.3</ele>
        <time>2022-06-10T11:54:04Z</time>
      </trkpt>
      <trkpt lat="48.68698" lon="-4.04944">
        <ele>3.3</ele>
        <time>2022-06-10T11:54:05Z</time>
      </trkpt>
      <trkpt lat="48.68698" lon="-4.04944">
        <ele>3.3</ele>
        <time>2022-06-10T11:54:06Z</time>
      </trkpt>
      <trkpt lat="48.68698" lon="-4.04944">
        <ele>3.3</ele>
        <time>2022-06-10T11:54:07Z</time>
      </trkpt>
      <trkpt lat="48.68698" lon="-4.04944">
        <ele>3.3</ele>
        <time>2022-06-10T11:54:08Z</time>
      </trkpt>
      <trkpt lat="48.68698" lon="-4.04944">
        <ele>3.3</ele>
        <time>2022-06-10T11:54:09Z</time>
      </trkpt>
      <trkpt lat="48.68698" lon="-4.04944">
        <ele>3.3</ele>
        <time>2022-06-10T11:54:10Z</time>
      </trkpt>
      <trkpt lat="48.68698" lon="-4.04944">
        <ele>3.3</ele>
        <time>2022-06-10T11:54:11Z</time>
      </trkpt>
      <trkpt lat="48.68698" lon="-4.04944">
        <ele>3.3</ele>
        <time>2022-06-10T11:54:12Z</time>
      </trkpt>
      <trkpt lat="48.68698" lon="-4.04944">
        <ele>3.3</ele>
        <time>2022-06-10T11:54:13Z</time>
      </trkpt>
      <trkpt lat="48.68698" lon="-4.04944">
        <ele>3.3</ele>
        <time>2022-06-10T11:54:14Z</time>
      </trkpt>
      <trkpt lat="48.68698" lon="-4.04944">
        <ele>3.3</ele>
        <time>2022-06-10T11:54:15Z</time>
      </trkpt>
      <trkpt lat="48.68698" lon="-4.04944">
        <ele>3.3</ele>
        <time>2022-06-10T11:54:16Z</time>
      </trkpt>
      <trkpt lat="48.68698" lon="-4.04944">
        <ele>3.3</ele>
        <time>2022-06-10T11:54:17Z</time>
      </trkpt>
      <trkpt lat="48.68698" lon="-4.04944">
        <ele>3.3</ele>
        <time>2022-06-10T11:54:18Z</time>
      </trkpt>
      <trkpt lat="48.68698" lon="-4.04944">
        <ele>3.3</ele>
        <time>2022-06-10T11:54:19Z</time>
      </trkpt>
      <trkpt lat="48.68698" lon="-4.04944">
        <ele>3.3</ele>
        <time>2022-06-10T11:54:20Z</time>
      </trkpt>
      <trkpt lat="48.68698" lon="-4.04944">
        <ele>3.3</ele>
        <time>2022-06-10T11:54:21Z</time>
      </trkpt>
      <trkpt lat="48.68698" lon="-4.04944">
        <ele>3.3</ele>
        <time>2022-06-10T11:54:22Z</time>
      </trkpt>
      <trkpt lat="48.68698" lon="-4.04944">
        <ele>3.3</ele>
        <time>2022-06-10T11:54:23Z</time>
      </trkpt>
      <trkpt lat="48.68698" lon="-4.04944">
        <ele>3.3</ele>
        <time>2022-06-10T11:54:24Z</time>
      </trkpt>
      <trkpt lat="48.68698" lon="-4.04944">
        <ele>3.3</ele>
        <time>2022-06-10T11:54:25Z</time>
      </trkpt>
      <trkpt lat="48.68698" lon="-4.04944">
        <ele>3.3</ele>
        <time>2022-06-10T11:54:26Z</time>
      </trkpt>
      <trkpt lat="48.68698" lon="-4.04944">
        <ele>3.3</ele>
        <time>2022-06-10T11:54:27Z</time>
      </trkpt>
      <trkpt lat="48.68698" lon="-4.04944">
        <ele>3.3</ele>
        <time>2022-06-10T11:54:28Z</time>
      </trkpt>
      <trkpt lat="48.68698" lon="-4.04944">
        <ele>3.3</ele>
        <time>2022-06-10T11:54:29Z</time>
      </trkpt>
      <trkpt lat="48.68698" lon="-4.04944">
        <ele>3.3</ele>
        <time>2022-06-10T11:54:30Z</time>
      </trkpt>
      <trkpt lat="48.68698" lon="-4.04944">
        <ele>3.3</ele>
        <time>2022-06-10T11:54:31Z</time>
      </trkpt>
      <trkpt lat="48.68698" lon="-4.04944">
        <ele>3.3</ele>
        <time>2022-06-10T11:54:32Z</time>
      </trkpt>
      <trkpt lat="48.68698" lon="-4.04944">
        <ele>3.3</ele>
        <time>2022-06-10T11:54:33Z</time>
      </trkpt>
      <trkpt lat="48.68698" lon="-4.04944">
        <ele>3.3</ele>
        <time>2022-06-10T11:54:34Z</time>
      </trkpt>
      <trkpt lat="48.68698" lon="-4.04944">
        <ele>3.3</ele>
        <time>2022-06-10T11:54:35Z</time>
      </trkpt>
      <trkpt lat="48.68698" lon="-4.04944">
        <ele>3.3</ele>
        <time>2022-06-10T11:54:36Z</time>
      </trkpt>
      <trkpt lat="48.68698" lon="-4.04944">
        <ele>3.3</ele>
        <time>2022-06-10T11:54:37Z</time>
      </trkpt>
      <trkpt lat="48.68698" lon="-4.04944">
        <ele>3.3</ele>
        <time>2022-06-10T11:54:38Z</time>
      </trkpt>
      <trkpt lat="48.68698" lon="-4.04944">
        <ele>3.3</ele>
        <time>2022-06-10T11:54:39Z</time>
      </trkpt>
      <trkpt lat="48.68698" lon="-4.04944">
        <ele>3.3</ele>
        <time>2022-06-10T11:54:40Z</time>
      </trkpt>
      <trkpt lat="48.68698" lon="-4.04944">
        <ele>3.3</ele>
        <time>2022-06-10T11:54:41Z</time>
      </trkpt>
      <trkpt lat="48.68698" lon="-4.04944">
        <ele>3.3</ele>
        <time>2022-06-10T11:54:42Z</time>
      </trkpt>
      <trkpt lat="48.68698" lon="-4.04944">
        <ele>3.3</ele>
        <time>2022-06-10T11:54:43Z</time>
      </trkpt>
      <trkpt lat="48.68698" lon="-4.04944">
        <ele>3.3</ele>
        <time>2022-06-10T11:54:44Z</time>
      </trkpt>
      <trkpt lat="48.68698" lon="-4.04944">
        <ele>3.3</ele>
        <time>2022-06-10T11:54:45Z</time>
      </trkpt>
      <trkpt lat="48.68698" lon="-4.04944">
        <ele>3.3</ele>
        <time>2022-06-10T11:54:46Z</time>
      </trkpt>
      <trkpt lat="48.68698" lon="-4.04944">
        <ele>3.3</ele>
        <time>2022-06-10T11:54:47Z</time>
      </trkpt>
      <trkpt lat="48.68698" lon="-4.04944">
        <ele>3.3</ele>
        <time>2022-06-10T11:54:48Z</time>
      </trkpt>
      <trkpt lat="48.68698" lon="-4.04944">
        <ele>3.3</ele>
        <time>2022-06-10T11:54:49Z</time>
      </trkpt>
      <trkpt lat="48.68698" lon="-4.04944">
        <ele>3.3</ele>
        <time>2022-06-10T11:54:50Z</time>
      </trkpt>
      <trkpt lat="48.68698" lon="-4.04944">
        <ele>3.3</ele>
        <time>2022-06-10T11:54:51Z</time>
      </trkpt>
      <trkpt lat="48.68698" lon="-4.04944">
        <ele>3.3</ele>
        <time>2022-06-10T11:54:52Z</time>
      </trkpt>
      <trkpt lat="48.68698" lon="-4.04944">
        <ele>3.3</ele>
        <time>2022-06-10T11:54:53Z</time>
      </trkpt>
      <trkpt lat="48.68698" lon="-4.04944">
        <ele>3.3</ele>
        <time>2022-06-10T11:54:54Z</time>
      </trkpt>
      <trkpt lat="48.68698" lon="-4.04944">
        <ele>3.3</ele>
        <time>2022-06-10T11:54:55Z</time>
      </trkpt>
      <trkpt lat="48.68698" lon="-4.04944">
        <ele>3.3</ele>
        <time>2022-06-10T11:54:56Z</time>
      </trkpt>
      <trkpt lat="48.68698" lon="-4.04944">
        <ele>3.3</ele>
        <time>2022-06-10T11:54:57Z</time>
      </trkpt>
      <trkpt lat="48.68698" lon="-4.04944">
        <ele>3.3</ele>
        <time>2022-06-10T11:54:58Z</time>
      </trkpt>
      <trkpt lat="48.68698" lon="-4.04944">
        <ele>3.3</ele>
        <time>2022-06-10T11:54:59Z</time>
      </trkpt>
      <trkpt lat="48.68698" lon="-4.04944">
        <ele>3.3</ele>
        <time>2022-06-10T11:55:00Z</time>
      </trkpt>
      <trkpt lat="48.68698" lon="-4.04944">
        <ele>3.3</ele>
        <time>2022-06-10T11:55:01Z</time>
      </trkpt>
      <trkpt lat="48.68698" lon="-4.04944">
        <ele>3.3</ele>
        <time>2022-06-10T11:55:02Z</time>
      </trkpt>
      <trkpt lat="48.68698" lon="-4.04944">
        <ele>3.3</ele>
        <time>2022-06-10T11:55:03Z</time>
      </trkpt>
      <trkpt lat="48.68698" lon="-4.04944">
        <ele>3.3</ele>
        <time>2022-06-10T11:55:04Z</time>
      </trkpt>
      <trkpt lat="48.68698" lon="-4.04944">
        <ele>3.3</ele>
        <time>2022-06-10T11:55:05Z</time>
      </trkpt>
      <trkpt lat="48.68698" lon="-4.04944">
        <ele>3.3</ele>
        <time>2022-06-10T11:55:06Z</time>
      </trkpt>
      <trkpt lat="48.68698" lon="-4.04944">
        <ele>3.3</ele>
        <time>2022-06-10T11:55:07Z</time>
      </trkpt>
      <trkpt lat="48.68698" lon="-4.04944">
        <ele>3.3</ele>
        <time>2022-06-10T11:55:08Z</time>
      </trkpt>
      <trkpt lat="48.68698" lon="-4.04944">
        <ele>3.3</ele>
        <time>2022-06-10T11:55:09Z</time>
      </trkpt>
      <trkpt lat="48.68698" lon="-4.04944">
        <ele>3.3</ele>
        <time>2022-06-10T11:55:10Z</time>
      </trkpt>
      <trkpt lat="48.68698" lon="-4.04944">
        <ele>3.3</ele>
        <time>2022-06-10T11:55:11Z</time>
      </trkpt>
      <trkpt lat="48.68698" lon="-4.04944">
        <ele>3.3</ele>
        <time>2022-06-10T11:55:12Z</time>
      </trkpt>
      <trkpt lat="48.68698" lon="-4.04944">
        <ele>3.3</ele>
        <time>2022-06-10T11:55:13Z</time>
      </trkpt>
      <trkpt lat="48.68698" lon="-4.04944">
        <ele>3.3</ele>
        <time>2022-06-10T11:55:14Z</time>
      </trkpt>
      <trkpt lat="48.68698" lon="-4.04944">
        <ele>3.3</ele>
        <time>2022-06-10T11:55:15Z</time>
      </trkpt>
      <trkpt lat="48.68698" lon="-4.04944">
        <ele>3.3</ele>
        <time>2022-06-10T11:55:16Z</time>
      </trkpt>
      <trkpt lat="48.68698" lon="-4.04944">
        <ele>3.3</ele>
        <time>2022-06-10T11:55:17Z</time>
      </trkpt>
      <trkpt lat="48.68698" lon="-4.04944">
        <ele>3.3</ele>
        <time>2022-06-10T11:55:18Z</time>
      </trkpt>
      <trkpt lat="48.68698" lon="-4.04944">
        <ele>3.3</ele>
        <time>2022-06-10T11:55:19Z</time>
      </trkpt>
      <trkpt lat="48.68698" lon="-4.04944">
        <ele>3.3</ele>
        <time>2022-06-10T11:55:20Z</time>
      </trkpt>
      <trkpt lat="48.68698" lon="-4.04944">
        <ele>3.3</ele>
        <time>2022-06-10T11:55:21Z</time>
      </trkpt>
      <trkpt lat="48.68698" lon="-4.04944">
        <ele>3.3</ele>
        <time>2022-06-10T11:55:22Z</time>
      </trkpt>
      <trkpt lat="48.68698" lon="-4.04944">
        <ele>3.3</ele>
        <time>2022-06-10T11:55:23Z</time>
      </trkpt>
      <trkpt lat="48.68698" lon="-4.04944">
        <ele>3.3</ele>
        <time>2022-06-10T11:55:24Z</time>
      </trkpt>
      <trkpt lat="48.68698" lon="-4.04944">
        <ele>3.3</ele>
        <time>2022-06-10T11:55:25Z</time>
      </trkpt>
      <trkpt lat="48.68698" lon="-4.04944">
        <ele>3.3</ele>
        <time>2022-06-10T11:55:27Z</time>
      </trkpt>
      <trkpt lat="48.68698" lon="-4.04944">
        <ele>3.3</ele>
        <time>2022-06-10T11:55:28Z</time>
      </trkpt>
      <trkpt lat="48.68698" lon="-4.04944">
        <ele>3.3</ele>
        <time>2022-06-10T11:55:29Z</time>
      </trkpt>
      <trkpt lat="48.68698" lon="-4.04944">
        <ele>3.3</ele>
        <time>2022-06-10T11:55:30Z</time>
      </trkpt>
      <trkpt lat="48.68698" lon="-4.04944">
        <ele>3.3</ele>
        <time>2022-06-10T11:55:31Z</time>
      </trkpt>
      <trkpt lat="48.68698" lon="-4.04944">
        <ele>3.3</ele>
        <time>2022-06-10T11:55:32Z</time>
      </trkpt>
      <trkpt lat="48.68698" lon="-4.04944">
        <ele>3.3</ele>
        <time>2022-06-10T11:55:33Z</time>
      </trkpt>
      <trkpt lat="48.68698" lon="-4.04944">
        <ele>3.3</ele>
        <time>2022-06-10T11:55:34Z</time>
      </trkpt>
      <trkpt lat="48.68698" lon="-4.04944">
        <ele>3.3</ele>
        <time>2022-06-10T11:55:35Z</time>
      </trkpt>
      <trkpt lat="48.68698" lon="-4.04944">
        <ele>3.3</ele>
        <time>2022-06-10T11:55:36Z</time>
      </trkpt>
      <trkpt lat="48.68698" lon="-4.04944">
        <ele>3.3</ele>
        <time>2022-06-10T11:55:37Z</time>
      </trkpt>
      <trkpt lat="48.68698" lon="-4.04944">
        <ele>3.3</ele>
        <time>2022-06-10T11:55:38Z</time>
      </trkpt>
      <trkpt lat="48.68698" lon="-4.04944">
        <ele>3.3</ele>
        <time>2022-06-10T11:55:39Z</time>
      </trkpt>
      <trkpt lat="48.68698" lon="-4.04944">
        <ele>3.3</ele>
        <time>2022-06-10T11:55:40Z</time>
      </trkpt>
      <trkpt lat="48.68698" lon="-4.04944">
        <ele>3.3</ele>
        <time>2022-06-10T11:55:41Z</time>
      </trkpt>
      <trkpt lat="48.68698" lon="-4.04944">
        <ele>3.3</ele>
        <time>2022-06-10T11:55:43Z</time>
      </trkpt>
      <trkpt lat="48.68698" lon="-4.04944">
        <ele>3.3</ele>
        <time>2022-06-10T11:55:44Z</time>
      </trkpt>
      <trkpt lat="48.68698" lon="-4.04944">
        <ele>3.3</ele>
        <time>2022-06-10T11:55:45Z</time>
      </trkpt>
      <trkpt lat="48.68698" lon="-4.04944">
        <ele>3.3</ele>
        <time>2022-06-10T11:55:47Z</time>
      </trkpt>
      <trkpt lat="48.68698" lon="-4.04944">
        <ele>3.3</ele>
        <time>2022-06-10T11:55:48Z</time>
      </trkpt>
      <trkpt lat="48.68698" lon="-4.04944">
        <ele>3.3</ele>
        <time>2022-06-10T11:55:49Z</time>
      </trkpt>
      <trkpt lat="48.68698" lon="-4.04944">
        <ele>3.3</ele>
        <time>2022-06-10T11:55:51Z</time>
      </trkpt>
      <trkpt lat="48.68697" lon="-4.04944">
        <ele>3.3</ele>
        <time>2022-06-10T11:55:52Z</time>
      </trkpt>
      <trkpt lat="48.68696" lon="-4.04944">
        <ele>3.3</ele>
        <time>2022-06-10T11:55:53Z</time>
      </trkpt>
      <trkpt lat="48.68694" lon="-4.04944">
        <ele>3.3</ele>
        <time>2022-06-10T11:55:54Z</time>
      </trkpt>
      <trkpt lat="48.68693" lon="-4.04944">
        <ele>3.3</ele>
        <time>2022-06-10T11:55:55Z</time>
      </trkpt>
      <trkpt lat="48.68691" lon="-4.04944">
        <ele>3.3</ele>
        <time>2022-06-10T11:55:56Z</time>
      </trkpt>
      <trkpt lat="48.68689" lon="-4.04944">
        <ele>3.2</ele>
        <time>2022-06-10T11:55:57Z</time>
      </trkpt>
      <trkpt lat="48.68688" lon="-4.04945">
        <ele>3.2</ele>
        <time>2022-06-10T11:55:59Z</time>
      </trkpt>
      <trkpt lat="48.68686" lon="-4.04945">
        <ele>3.2</ele>
        <time>2022-06-10T11:56:00Z</time>
      </trkpt>
      <trkpt lat="48.68685" lon="-4.04946">
        <ele>3.2</ele>
        <time>2022-06-10T11:56:01Z</time>
      </trkpt>
      <trkpt lat="48.68685" lon="-4.04947">
        <ele>3.2</ele>
        <time>2022-06-10T11:56:02Z</time>
      </trkpt>
      <trkpt lat="48.68684" lon="-4.04948">
        <ele>3.2</ele>
        <time>2022-06-10T11:56:03Z</time>
      </trkpt>
      <trkpt lat="48.68682" lon="-4.0495">
        <ele>3.2</ele>
        <time>2022-06-10T11:56:05Z</time>
      </trkpt>
      <trkpt lat="48.68682" lon="-4.04951">
        <ele>3.2</ele>
        <time>2022-06-10T11:56:06Z</time>
      </trkpt>
      <trkpt lat="48.68681" lon="-4.04952">
        <ele>3.3</ele>
        <time>2022-06-10T11:56:07Z</time>
      </trkpt>
      <trkpt lat="48.68681" lon="-4.04953">
        <ele>3.3</ele>
        <time>2022-06-10T11:56:08Z</time>
      </trkpt>
      <trkpt lat="48.6868" lon="-4.04955">
        <ele>3.3</ele>
        <time>2022-06-10T11:56:10Z</time>
      </trkpt>
      <trkpt lat="48.68679" lon="-4.04956">
        <ele>3.3</ele>
        <time>2022-06-10T11:56:11Z</time>
      </trkpt>
      <trkpt lat="48.68679" lon="-4.04958">
        <ele>3.3</ele>
        <time>2022-06-10T11:56:12Z</time>
      </trkpt>
      <trkpt lat="48.68678" lon="-4.04959">
        <ele>3.3</ele>
        <time>2022-06-10T11:56:13Z</time>
      </trkpt>
      <trkpt lat="48.68678" lon="-4.04961">
        <ele>3.3</ele>
        <time>2022-06-10T11:56:15Z</time>
      </trkpt>
      <trkpt lat="48.68678" lon="-4.04963">
        <ele>3.3</ele>
        <time>2022-06-10T11:56:16Z</time>
      </trkpt>
      <trkpt lat="48.68677" lon="-4.04964">
        <ele>3.3</ele>
        <time>2022-06-10T11:56:17Z</time>
      </trkpt>
      <trkpt lat="48.68677" lon="-4.04965">
        <ele>3.3</ele>
        <time>2022-06-10T11:56:18Z</time>
      </trkpt>
      <trkpt lat="48.68676" lon="-4.04967">
        <ele>3.3</ele>
        <time>2022-06-10T11:56:19Z</time>
      </trkpt>
      <trkpt lat="48.68676" lon="-4.04968">
        <ele>3.3</ele>
        <time>2022-06-10T11:56:20Z</time>
      </trkpt>
      <trkpt lat="48.68675" lon="-4.04969">
        <ele>3.3</ele>
        <time>2022-06-10T11:56:21Z</time>
      </trkpt>
      <trkpt lat="48.68674" lon="-4.0497">
        <ele>3.3</ele>
        <time>2022-06-10T11:56:22Z</time>
      </trkpt>
      <trkpt lat="48.68673" lon="-4.04971">
        <ele>3.3</ele>
        <time>2022-06-10T11:56:24Z</time>
      </trkpt>
      <trkpt lat="48.68672" lon="-4.04973">
        <ele>3.3</ele>
        <time>2022-06-10T11:56:25Z</time>
      </trkpt>
      <trkpt lat="48.68671" lon="-4.04974">
        <ele>3.3</ele>
        <time>2022-06-10T11:56:26Z</time>
      </trkpt>
      <trkpt lat="48.68671" lon="-4.04975">
        <ele>3.3</ele>
        <time>2022-06-10T11:56:27Z</time>
      </trkpt>
      <trkpt lat="48.6867" lon="-4.04977">
        <ele>3.3</ele>
        <time>2022-06-10T11:56:28Z</time>
      </trkpt>
      <trkpt lat="48.68669" lon="-4.04979">
        <ele>3.3</ele>
        <time>2022-06-10T11:56:29Z</time>
      </trkpt>
      <trkpt lat="48.68668" lon="-4.0498">
        <ele>3.3</ele>
        <time>2022-06-10T11:56:31Z</time>
      </trkpt>
      <trkpt lat="48.68667" lon="-4.04982">
        <ele>3.3</ele>
        <time>2022-06-10T11:56:32Z</time>
      </trkpt>
      <trkpt lat="48.68666" lon="-4.04983">
        <ele>3.3</ele>
        <time>2022-06-10T11:56:33Z</time>
      </trkpt>
      <trkpt lat="48.68665" lon="-4.04985">
        <ele>3.3</ele>
        <time>2022-06-10T11:56:34Z</time>
      </trkpt>
      <trkpt lat="48.68663" lon="-4.04987">
        <ele>3.2</ele>
        <time>2022-06-10T11:56:35Z</time>
      </trkpt>
      <trkpt lat="48.68663" lon="-4.04988">
        <ele>3.2</ele>
        <time>2022-06-10T11:56:37Z</time>
      </trkpt>
      <trkpt lat="48.68662" lon="-4.04989">
        <ele>3.2</ele>
        <time>2022-06-10T11:56:38Z</time>
      </trkpt>
      <trkpt lat="48.68661" lon="-4.04991">
        <ele>3.2</ele>
        <time>2022-06-10T11:56:39Z</time>
      </trkpt>
      <trkpt lat="48.68522" lon="-4.05493">
        <ele>4.5</ele>
        <time>2022-06-10T12:02:57Z</time>
      </trkpt>
      <trkpt lat="48.68519" lon="-4.05454">
        <ele>4.6</ele>
        <time>2022-06-10T12:03:00Z</time>
      </trkpt>
      <trkpt lat="48.68519" lon="-4.0545">
        <ele>4.6</ele>
        <time>2022-06-10T12:03:02Z</time>
      </trkpt>
      <trkpt lat="48.6852" lon="-4.05449">
        <ele>4.6</ele>
        <time>2022-06-10T12:03:03Z</time>
      </trkpt>
      <trkpt lat="48.6852" lon="-4.05449">
        <ele>4.6</ele>
        <time>2022-06-10T12:03:04Z</time>
      </trkpt>
      <trkpt lat="48.6852" lon="-4.05449">
        <ele>4.6</ele>
        <time>2022-06-10T12:03:05Z</time>
      </trkpt>
      <trkpt lat="48.6852" lon="-4.05449">
        <ele>4.6</ele>
        <time>2022-06-10T12:03:06Z</time>
      </trkpt>
      <trkpt lat="48.6852" lon="-4.05449">
        <ele>4.6</ele>
        <time>2022-06-10T12:03:07Z</time>
      </trkpt>
      <trkpt lat="48.6852" lon="-4.05449">
        <ele>4.6</ele>
        <time>2022-06-10T12:03:08Z</time>
      </trkpt>
      <trkpt lat="48.6852" lon="-4.05449">
        <ele>4.6</ele>
        <time>2022-06-10T12:03:09Z</time>
      </trkpt>
      <trkpt lat="48.6852" lon="-4.05449">
        <ele>4.6</ele>
        <time>2022-06-10T12:03:10Z</time>
      </trkpt>
      <trkpt lat="48.6852" lon="-4.05449">
        <ele>4.6</ele>
        <time>2022-06-10T12:03:11Z</time>
      </trkpt>
      <trkpt lat="48.6852" lon="-4.05449">
        <ele>4.6</ele>
        <time>2022-06-10T12:03:13Z</time>
      </trkpt>
      <trkpt lat="48.6852" lon="-4.05449">
        <ele>4.6</ele>
        <time>2022-06-10T12:03:14Z</time>
      </trkpt>
      <trkpt lat="48.6852" lon="-4.05449">
        <ele>4.6</ele>
        <time>2022-06-10T12:03:15Z</time>
      </trkpt>
      <trkpt lat="48.6852" lon="-4.05449">
        <ele>4.6</ele>
        <time>2022-06-10T12:03:16Z</time>
      </trkpt>
      <trkpt lat="48.6852" lon="-4.05449">
        <ele>4.6</ele>
        <time>2022-06-10T12:03:17Z</time>
      </trkpt>
      <trkpt lat="48.6852" lon="-4.05449">
        <ele>4.6</ele>
        <time>2022-06-10T12:03:18Z</time>
      </trkpt>
      <trkpt lat="48.6852" lon="-4.05449">
        <ele>4.6</ele>
        <time>2022-06-10T12:03:19Z</time>
      </trkpt>
      <trkpt lat="48.6852" lon="-4.05449">
        <ele>4.6</ele>
        <time>2022-06-10T12:03:20Z</time>
      </trkpt>
      <trkpt lat="48.6852" lon="-4.05449">
        <ele>4.6</ele>
        <time>2022-06-10T12:03:21Z</time>
      </trkpt>
      <trkpt lat="48.6852" lon="-4.05449">
        <ele>4.6</ele>
        <time>2022-06-10T12:03:22Z</time>
      </trkpt>
      <trkpt lat="48.6852" lon="-4.05449">
        <ele>4.6</ele>
        <time>2022-06-10T12:03:23Z</time>
      </trkpt>
      <trkpt lat="48.6852" lon="-4.05449">
        <ele>4.6</ele>
        <time>2022-06-10T12:03:24Z</time>
      </trkpt>
      <trkpt lat="48.6852" lon="-4.05449">
        <ele>4.6</ele>
        <time>2022-06-10T12:03:25Z</time>
      </trkpt>
      <trkpt lat="48.6852" lon="-4.05449">
        <ele>4.6</ele>
        <time>2022-06-10T12:03:26Z</time>
      </trkpt>
      <trkpt lat="48.68519" lon="-4.0545">
        <ele>4.6</ele>
        <time>2022-06-10T12:03:27Z</time>
      </trkpt>
      <trkpt lat="48.68519" lon="-4.0545">
        <ele>4.6</ele>
        <time>2022-06-10T12:03:29Z</time>
      </trkpt>
      <trkpt lat="48.68518" lon="-4.0545">
        <ele>4.6</ele>
        <time>2022-06-10T12:03:30Z</time>
      </trkpt>
      <trkpt lat="48.68517" lon="-4.05451">
        <ele>4.6</ele>
        <time>2022-06-10T12:03:31Z</time>
      </trkpt>
      <trkpt lat="48.68516" lon="-4.05452">
        <ele>4.6</ele>
        <time>2022-06-10T12:03:32Z</time>
      </trkpt>
      <trkpt lat="48.68514" lon="-4.05456">
        <ele>4.6</ele>
        <time>2022-06-10T12:03:33Z</time>
      </trkpt>
      <trkpt lat="48.68513" lon="-4.05457">
        <ele>4.6</ele>
        <time>2022-06-10T12:03:35Z</time>
      </trkpt>
      <trkpt lat="48.68513" lon="-4.05459">
        <ele>4.6</ele>
        <time>2022-06-10T12:03:36Z</time>
      </trkpt>
      <trkpt lat="48.68511" lon="-4.05462">
        <ele>4.6</ele>
        <time>2022-06-10T12:03:37Z</time>
      </trkpt>
      <trkpt lat="48.6851" lon="-4.05464">
        <ele>4.6</ele>
        <time>2022-06-10T12:03:38Z</time>
      </trkpt>
      <trkpt lat="48.68509" lon="-4.05465">
        <ele>4.6</ele>
        <time>2022-06-10T12:03:40Z</time>
      </trkpt>
      <trkpt lat="48.68508" lon="-4.05465">
        <ele>4.6</ele>
        <time>2022-06-10T12:03:41Z</time>
      </trkpt>
      <trkpt lat="48.68506" lon="-4.05466">
        <ele>4.6</ele>
        <time>2022-06-10T12:03:42Z</time>
      </trkpt>
      <trkpt lat="48.68506" lon="-4.05466">
        <ele>4.6</ele>
        <time>2022-06-10T12:03:44Z</time>
      </trkpt>
      <trkpt lat="48.68505" lon="-4.05467">
        <ele>4.6</ele>
        <time>2022-06-10T12:03:45Z</time>
      </trkpt>
      <trkpt lat="48.68503" lon="-4.05468">
        <ele>4.7</ele>
        <time>2022-06-10T12:03:46Z</time>
      </trkpt>
      <trkpt lat="48.68502" lon="-4.05468">
        <ele>4.7</ele>
        <time>2022-06-10T12:03:47Z</time>
      </trkpt>
      <trkpt lat="48.68501" lon="-4.05468">
        <ele>4.7</ele>
        <time>2022-06-10T12:03:48Z</time>
      </trkpt>
      <trkpt lat="48.685" lon="-4.05468">
        <ele>4.7</ele>
        <time>2022-06-10T12:03:50Z</time>
      </trkpt>
      <trkpt lat="48.68499" lon="-4.05469">
        <ele>4.7</ele>
        <time>2022-06-10T12:03:51Z</time>
      </trkpt>
      <trkpt lat="48.68498" lon="-4.05469">
        <ele>4.7</ele>
        <time>2022-06-10T12:03:52Z</time>
      </trkpt>
      <trkpt lat="48.68497" lon="-4.05471">
        <ele>4.7</ele>
        <time>2022-06-10T12:03:53Z</time>
      </trkpt>
      <trkpt lat="48.68496" lon="-4.05472">
        <ele>4.7</ele>
        <time>2022-06-10T12:03:55Z</time>
      </trkpt>
      <trkpt lat="48.68495" lon="-4.05472">
        <ele>4.7</ele>
        <time>2022-06-10T12:03:56Z</time>
      </trkpt>
      <trkpt lat="48.68494" lon="-4.05472">
        <ele>4.7</ele>
        <time>2022-06-10T12:03:57Z</time>
      </trkpt>
      <trkpt lat="48.68493" lon="-4.05471">
        <ele>4.7</ele>
        <time>2022-06-10T12:03:58Z</time>
      </trkpt>
      <trkpt lat="48.68493" lon="-4.05471">
        <ele>4.7</ele>
        <time>2022-06-10T12:04:00Z</time>
      </trkpt>
      <trkpt lat="48.68492" lon="-4.05471">
        <ele>4.7</ele>
        <time>2022-06-10T12:04:01Z</time>
      </trkpt>
      <trkpt lat="48.68492" lon="-4.05471">
        <ele>4.7</ele>
        <time>2022-06-10T12:04:02Z</time>
      </trkpt>
      <trkpt lat="48.68491" lon="-4.05472">
        <ele>4.7</ele>
        <time>2022-06-10T12:04:03Z</time>
      </trkpt>
      <trkpt lat="48.6849" lon="-4.05473">
        <ele>4.7</ele>
        <time>2022-06-10T12:04:05Z</time>
      </trkpt>
      <trkpt lat="48.68489" lon="-4.05473">
        <ele>4.7</ele>
        <time>2022-06-10T12:04:06Z</time>
      </trkpt>
      <trkpt lat="48.68489" lon="-4.05473">
        <ele>4.7</ele>
        <time>2022-06-10T12:04:07Z</time>
      </trkpt>
      <trkpt lat="48.68488" lon="-4.05474">
        <ele>4.7</ele>
        <time>2022-06-10T12:04:08Z</time>
      </trkpt>
      <trkpt lat="48.68487" lon="-4.05475">
        <ele>4.7</ele>
        <time>2022-06-10T12:04:09Z</time>
      </trkpt>
      <trkpt lat="48.68485" lon="-4.05476">
        <ele>4.7</ele>
        <time>2022-06-10T12:04:10Z</time>
      </trkpt>
      <trkpt lat="48.68484" lon="-4.05477">
        <ele>4.9</ele>
        <time>2022-06-10T12:04:11Z</time>
      </trkpt>
      <trkpt lat="48.68484" lon="-4.05478">
        <ele>4.9</ele>
        <time>2022-06-10T12:04:12Z</time>
      </trkpt>
      <trkpt lat="48.68484" lon="-4.0548">
        <ele>4.9</ele>
        <time>2022-06-10T12:04:13Z</time>
      </trkpt>
      <trkpt lat="48.68484" lon="-4.05481">
        <ele>4.9</ele>
        <time>2022-06-10T12:04:14Z</time>
      </trkpt>
      <trkpt lat="48.68484" lon="-4.05483">
        <ele>4.9</ele>
        <time>2022-06-10T12:04:15Z</time>
      </trkpt>
      <trkpt lat="48.68484" lon="-4.05484">
        <ele>4.9</ele>
        <time>2022-06-10T12:04:17Z</time>
      </trkpt>
      <trkpt lat="48.68486" lon="-4.05485">
        <ele>4.9</ele>
        <time>2022-06-10T12:04:18Z</time>
      </trkpt>
      <trkpt lat="48.68486" lon="-4.05486">
        <ele>4.9</ele>
        <time>2022-06-10T12:04:19Z</time>
      </trkpt>
      <trkpt lat="48.68487" lon="-4.05487">
        <ele>4.9</ele>
        <time>2022-06-10T12:04:20Z</time>
      </trkpt>
      <trkpt lat="48.68487" lon="-4.05488">
        <ele>4.8</ele>
        <time>2022-06-10T12:04:22Z</time>
      </trkpt>
      <trkpt lat="48.68488" lon="-4.05489">
        <ele>4.8</ele>
        <time>2022-06-10T12:04:23Z</time>
      </trkpt>
      <trkpt lat="48.68489" lon="-4.0549">
        <ele>4.8</ele>
        <time>2022-06-10T12:04:24Z</time>
      </trkpt>
      <trkpt lat="48.68489" lon="-4.05491">
        <ele>4.8</ele>
        <time>2022-06-10T12:04:25Z</time>
      </trkpt>
      <trkpt lat="48.6849" lon="-4.05492">
        <ele>4.8</ele>
        <time>2022-06-10T12:04:26Z</time>
      </trkpt>
      <trkpt lat="48.68491" lon="-4.05493">
        <ele>4.8</ele>
        <time>2022-06-10T12:04:27Z</time>
      </trkpt>
      <trkpt lat="48.68492" lon="-4.05494">
        <ele>4.8</ele>
        <time>2022-06-10T12:04:29Z</time>
      </trkpt>
      <trkpt lat="48.68493" lon="-4.05495">
        <ele>4.8</ele>
        <time>2022-06-10T12:04:30Z</time>
      </trkpt>
      <trkpt lat="48.68494" lon="-4.05496">
        <ele>4.8</ele>
        <time>2022-06-10T12:04:31Z</time>
      </trkpt>
      <trkpt lat="48.68496" lon="-4.05503">
        <ele>4.8</ele>
        <time>2022-06-10T12:04:32Z</time>
      </trkpt>
      <trkpt lat="48.68497" lon="-4.05509">
        <ele>4.8</ele>
        <time>2022-06-10T12:05:15Z</time>
      </trkpt>
      <trkpt lat="48.68498" lon="-4.05516">
        <ele>4.8</ele>
        <time>2022-06-10T12:05:16Z</time>
      </trkpt>
      <trkpt lat="48.685" lon="-4.05521">
        <ele>4.8</ele>
        <time>2022-06-10T12:05:17Z</time>
      </trkpt>
      <trkpt lat="48.68501" lon="-4.05528">
        <ele>4.8</ele>
        <time>2022-06-10T12:05:18Z</time>
      </trkpt>
      <trkpt lat="48.68503" lon="-4.05532">
        <ele>4.8</ele>
        <time>2022-06-10T12:05:19Z</time>
      </trkpt>
      <trkpt lat="48.68503" lon="-4.05533">
        <ele>4.8</ele>
        <time>2022-06-10T12:05:20Z</time>
      </trkpt>
      <trkpt lat="48.68504" lon="-4.05533">
        <ele>4.8</ele>
        <time>2022-06-10T12:05:21Z</time>
      </trkpt>
      <trkpt lat="48.68504" lon="-4.05534">
        <ele>4.8</ele>
        <time>2022-06-10T12:05:22Z</time>
      </trkpt>
      <trkpt lat="48.68504" lon="-4.05534">
        <ele>4.8</ele>
        <time>2022-06-10T12:05:23Z</time>
      </trkpt>
      <trkpt lat="48.68504" lon="-4.05534">
        <ele>4.8</ele>
        <time>2022-06-10T12:05:24Z</time>
      </trkpt>
      <trkpt lat="48.68505" lon="-4.05536">
        <ele>4.8</ele>
        <time>2022-06-10T12:05:26Z</time>
      </trkpt>
      <trkpt lat="48.68507" lon="-4.0554">
        <ele>4.8</ele>
        <time>2022-06-10T12:05:27Z</time>
      </trkpt>
      <trkpt lat="48.68508" lon="-4.05542">
        <ele>4.8</ele>
        <time>2022-06-10T12:05:28Z</time>
      </trkpt>
      <trkpt lat="48.68508" lon="-4.05543">
        <ele>4.8</ele>
        <time>2022-06-10T12:05:29Z</time>
      </trkpt>
      <trkpt lat="48.68508" lon="-4.05543">
        <ele>4.8</ele>
        <time>2022-06-10T12:05:30Z</time>
      </trkpt>
      <trkpt lat="48.68508" lon="-4.05544">
        <ele>4.8</ele>
        <time>2022-06-10T12:05:31Z</time>
      </trkpt>
      <trkpt lat="48.68508" lon="-4.05545">
        <ele>4.8</ele>
        <time>2022-06-10T12:05:32Z</time>
      </trkpt>
      <trkpt lat="48.68508" lon="-4.05546">
        <ele>4.8</ele>
        <time>2022-06-10T12:05:33Z</time>
      </trkpt>
      <trkpt lat="48.68508" lon="-4.05547">
        <ele>4.8</ele>
        <time>2022-06-10T12:05:34Z</time>
      </trkpt>
      <trkpt lat="48.68508" lon="-4.05547">
        <ele>4.8</ele>
        <time>2022-06-10T12:05:36Z</time>
      </trkpt>
      <trkpt lat="48.68508" lon="-4.05548">
        <ele>4.8</ele>
        <time>2022-06-10T12:05:37Z</time>
      </trkpt>
      <trkpt lat="48.68508" lon="-4.05549">
        <ele>4.9</ele>
        <time>2022-06-10T12:05:39Z</time>
      </trkpt>
      <trkpt lat="48.68508" lon="-4.0555">
        <ele>4.9</ele>
        <time>2022-06-10T12:05:40Z</time>
      </trkpt>
      <trkpt lat="48.68509" lon="-4.0555">
        <ele>4.9</ele>
        <time>2022-06-10T12:05:41Z</time>
      </trkpt>
      <trkpt lat="48.6851" lon="-4.05554">
        <ele>4.9</ele>
        <time>2022-06-10T12:05:43Z</time>
      </trkpt>
      <trkpt lat="48.6851" lon="-4.05555">
        <ele>4.9</ele>
        <time>2022-06-10T12:05:44Z</time>
      </trkpt>
      <trkpt lat="48.68511" lon="-4.05557">
        <ele>4.9</ele>
        <time>2022-06-10T12:05:45Z</time>
      </trkpt>
      <trkpt lat="48.68512" lon="-4.05557">
        <ele>4.9</ele>
        <time>2022-06-10T12:05:46Z</time>
      </trkpt>
      <trkpt lat="48.68513" lon="-4.05558">
        <ele>4.9</ele>
        <time>2022-06-10T12:05:47Z</time>
      </trkpt>
      <trkpt lat="48.68514" lon="-4.05559">
        <ele>5.2</ele>
        <time>2022-06-10T12:05:49Z</time>
      </trkpt>
      <trkpt lat="48.68516" lon="-4.0556">
        <ele>5.2</ele>
        <time>2022-06-10T12:05:50Z</time>
      </trkpt>
      <trkpt lat="48.68516" lon="-4.05561">
        <ele>5.2</ele>
        <time>2022-06-10T12:05:51Z</time>
      </trkpt>
      <trkpt lat="48.68517" lon="-4.05562">
        <ele>5.3</ele>
        <time>2022-06-10T12:05:52Z</time>
      </trkpt>
      <trkpt lat="48.68518" lon="-4.05563">
        <ele>5.3</ele>
        <time>2022-06-10T12:05:53Z</time>
      </trkpt>
      <trkpt lat="48.6852" lon="-4.05564">
        <ele>5.4</ele>
        <time>2022-06-10T12:05:54Z</time>
      </trkpt>
      <trkpt lat="48.6852" lon="-4.05565">
        <ele>5.4</ele>
        <time>2022-06-10T12:05:55Z</time>
      </trkpt>
      <trkpt lat="48.68521" lon="-4.05566">
        <ele>5.4</ele>
        <time>2022-06-10T12:05:56Z</time>
      </trkpt>
      <trkpt lat="48.68522" lon="-4.05567">
        <ele>5.5</ele>
        <time>2022-06-10T12:05:57Z</time>
      </trkpt>
      <trkpt lat="48.68522" lon="-4.05565">
        <ele>5.5</ele>
        <time>2022-06-10T12:05:58Z</time>
      </trkpt>
      <trkpt lat="48.68521" lon="-4.05565">
        <ele>5.6</ele>
        <time>2022-06-10T12:05:59Z</time>
      </trkpt>
      <trkpt lat="48.68521" lon="-4.05564">
        <ele>5.6</ele>
        <time>2022-06-10T12:06:00Z</time>
      </trkpt>
      <trkpt lat="48.68521" lon="-4.05565">
        <ele>5.6</ele>
        <time>2022-06-10T12:06:01Z</time>
      </trkpt>
      <trkpt lat="48.68522" lon="-4.05564">
        <ele>5.6</ele>
        <time>2022-06-10T12:06:02Z</time>
      </trkpt>
      <trkpt lat="48.68523" lon="-4.05565">
        <ele>5.7</ele>
        <time>2022-06-10T12:06:04Z</time>
      </trkpt>
      <trkpt lat="48.68524" lon="-4.05565">
        <ele>5.7</ele>
        <time>2022-06-10T12:06:05Z</time>
      </trkpt>
      <trkpt lat="48.68525" lon="-4.05565">
        <ele>5.7</ele>
        <time>2022-06-10T12:06:06Z</time>
      </trkpt>
      <trkpt lat="48.68526" lon="-4.05565">
        <ele>5.8</ele>
        <time>2022-06-10T12:06:07Z</time>
      </trkpt>
      <trkpt lat="48.68526" lon="-4.05565">
        <ele>5.8</ele>
        <time>2022-06-10T12:06:09Z</time>
      </trkpt>
      <trkpt lat="48.68526" lon="-4.05567">
        <ele>5.8</ele>
        <time>2022-06-10T12:06:10Z</time>
      </trkpt>
      <trkpt lat="48.68527" lon="-4.05567">
        <ele>5.8</ele>
        <time>2022-06-10T12:06:12Z</time>
      </trkpt>
      <trkpt lat="48.68527" lon="-4.05568">
        <ele>5.9</ele>
        <time>2022-06-10T12:06:13Z</time>
      </trkpt>
      <trkpt lat="48.68526" lon="-4.05568">
        <ele>5.9</ele>
        <time>2022-06-10T12:06:14Z</time>
      </trkpt>
      <trkpt lat="48.68526" lon="-4.05569">
        <ele>5.9</ele>
        <time>2022-06-10T12:06:15Z</time>
      </trkpt>
      <trkpt lat="48.68525" lon="-4.0557">
        <ele>6</ele>
        <time>2022-06-10T12:06:16Z</time>
      </trkpt>
      <trkpt lat="48.68524" lon="-4.05571">
        <ele>6</ele>
        <time>2022-06-10T12:06:18Z</time>
      </trkpt>
      <trkpt lat="48.68524" lon="-4.05572">
        <ele>6</ele>
        <time>2022-06-10T12:06:19Z</time>
      </trkpt>
      <trkpt lat="48.68524" lon="-4.05572">
        <ele>6.1</ele>
        <time>2022-06-10T12:06:20Z</time>
      </trkpt>
      <trkpt lat="48.68524" lon="-4.05574">
        <ele>6.1</ele>
        <time>2022-06-10T12:06:22Z</time>
      </trkpt>
      <trkpt lat="48.68524" lon="-4.05575">
        <ele>6.1</ele>
        <time>2022-06-10T12:06:23Z</time>
      </trkpt>
      <trkpt lat="48.68524" lon="-4.05575">
        <ele>6.1</ele>
        <time>2022-06-10T12:06:25Z</time>
      </trkpt>
      <trkpt lat="48.68524" lon="-4.05575">
        <ele>6.1</ele>
        <time>2022-06-10T12:06:26Z</time>
      </trkpt>
      <trkpt lat="48.68524" lon="-4.05574">
        <ele>6.2</ele>
        <time>2022-06-10T12:06:27Z</time>
      </trkpt>
      <trkpt lat="48.68524" lon="-4.05575">
        <ele>6.2</ele>
        <time>2022-06-10T12:06:28Z</time>
      </trkpt>
      <trkpt lat="48.68524" lon="-4.05573">
        <ele>6.2</ele>
        <time>2022-06-10T12:06:29Z</time>
      </trkpt>
      <trkpt lat="48.68524" lon="-4.05574">
        <ele>6.3</ele>
        <time>2022-06-10T12:06:30Z</time>
      </trkpt>
      <trkpt lat="48.68523" lon="-4.05576">
        <ele>6.3</ele>
        <time>2022-06-10T12:06:32Z</time>
      </trkpt>
      <trkpt lat="48.68523" lon="-4.05578">
        <ele>6.4</ele>
        <time>2022-06-10T12:06:33Z</time>
      </trkpt>
      <trkpt lat="48.68523" lon="-4.0558">
        <ele>6.4</ele>
        <time>2022-06-10T12:06:34Z</time>
      </trkpt>
      <trkpt lat="48.68523" lon="-4.05583">
        <ele>6.5</ele>
        <time>2022-06-10T12:06:35Z</time>
      </trkpt>
      <trkpt lat="48.68523" lon="-4.05584">
        <ele>6.5</ele>
        <time>2022-06-10T12:06:36Z</time>
      </trkpt>
      <trkpt lat="48.68523" lon="-4.05585">
        <ele>6.6</ele>
        <time>2022-06-10T12:06:37Z</time>
      </trkpt>
      <trkpt lat="48.68523" lon="-4.05587">
        <ele>6.6</ele>
        <time>2022-06-10T12:06:38Z</time>
      </trkpt>
      <trkpt lat="48.68523" lon="-4.05588">
        <ele>6.6</ele>
        <time>2022-06-10T12:06:39Z</time>
      </trkpt>
      <trkpt lat="48.68523" lon="-4.05591">
        <ele>6.7</ele>
        <time>2022-06-10T12:06:40Z</time>
      </trkpt>
      <trkpt lat="48.68523" lon="-4.05592">
        <ele>6.7</ele>
        <time>2022-06-10T12:06:42Z</time>
      </trkpt>
      <trkpt lat="48.68523" lon="-4.05593">
        <ele>6.7</ele>
        <time>2022-06-10T12:06:43Z</time>
      </trkpt>
      <trkpt lat="48.68523" lon="-4.05595">
        <ele>6.8</ele>
        <time>2022-06-10T12:06:44Z</time>
      </trkpt>
      <trkpt lat="48.68523" lon="-4.05596">
        <ele>6.8</ele>
        <time>2022-06-10T12:06:45Z</time>
      </trkpt>
      <trkpt lat="48.68523" lon="-4.05597">
        <ele>6.8</ele>
        <time>2022-06-10T12:06:46Z</time>
      </trkpt>
      <trkpt lat="48.68523" lon="-4.05597">
        <ele>6.8</ele>
        <time>2022-06-10T12:06:47Z</time>
      </trkpt>
      <trkpt lat="48.68523" lon="-4.05598">
        <ele>6.8</ele>
        <time>2022-06-10T12:06:49Z</time>
      </trkpt>
      <trkpt lat="48.68523" lon="-4.056">
        <ele>6.9</ele>
        <time>2022-06-10T12:06:50Z</time>
      </trkpt>
      <trkpt lat="48.68523" lon="-4.056">
        <ele>6.9</ele>
        <time>2022-06-10T12:06:51Z</time>
      </trkpt>
      <trkpt lat="48.68524" lon="-4.05601">
        <ele>6.9</ele>
        <time>2022-06-10T12:06:52Z</time>
      </trkpt>
      <trkpt lat="48.68524" lon="-4.05602">
        <ele>6.9</ele>
        <time>2022-06-10T12:06:53Z</time>
      </trkpt>
      <trkpt lat="48.68525" lon="-4.05603">
        <ele>7</ele>
        <time>2022-06-10T12:06:54Z</time>
      </trkpt>
      <trkpt lat="48.68525" lon="-4.05604">
        <ele>7</ele>
        <time>2022-06-10T12:06:55Z</time>
      </trkpt>
      <trkpt lat="48.68526" lon="-4.05603">
        <ele>7</ele>
        <time>2022-06-10T12:06:56Z</time>
      </trkpt>
      <trkpt lat="48.68526" lon="-4.05603">
        <ele>7.1</ele>
        <time>2022-06-10T12:06:57Z</time>
      </trkpt>
      <trkpt lat="48.68528" lon="-4.05606">
        <ele>7.1</ele>
        <time>2022-06-10T12:06:58Z</time>
      </trkpt>
      <trkpt lat="48.68528" lon="-4.05607">
        <ele>7.2</ele>
        <time>2022-06-10T12:06:59Z</time>
      </trkpt>
      <trkpt lat="48.68529" lon="-4.05609">
        <ele>7.2</ele>
        <time>2022-06-10T12:07:01Z</time>
      </trkpt>
      <trkpt lat="48.68529" lon="-4.0561">
        <ele>7.2</ele>
        <time>2022-06-10T12:07:02Z</time>
      </trkpt>
      <trkpt lat="48.6853" lon="-4.05612">
        <ele>7.3</ele>
        <time>2022-06-10T12:07:03Z</time>
      </trkpt>
      <trkpt lat="48.6853" lon="-4.05613">
        <ele>7.3</ele>
        <time>2022-06-10T12:07:04Z</time>
      </trkpt>
      <trkpt lat="48.68531" lon="-4.05615">
        <ele>7.4</ele>
        <time>2022-06-10T12:07:05Z</time>
      </trkpt>
      <trkpt lat="48.68532" lon="-4.05616">
        <ele>7.4</ele>
        <time>2022-06-10T12:07:06Z</time>
      </trkpt>
      <trkpt lat="48.68533" lon="-4.05618">
        <ele>7.5</ele>
        <time>2022-06-10T12:07:08Z</time>
      </trkpt>
      <trkpt lat="48.68534" lon="-4.05619">
        <ele>7.5</ele>
        <time>2022-06-10T12:07:09Z</time>
      </trkpt>
      <trkpt lat="48.68535" lon="-4.0562">
        <ele>7.5</ele>
        <time>2022-06-10T12:07:10Z</time>
      </trkpt>
      <trkpt lat="48.68539" lon="-4.05625">
        <ele>7.7</ele>
        <time>2022-06-10T12:07:11Z</time>
      </trkpt>
      <trkpt lat="48.68543" lon="-4.05629">
        <ele>7.8</ele>
        <time>2022-06-10T12:08:53Z</time>
      </trkpt>
      <trkpt lat="48.68547" lon="-4.05632">
        <ele>7.9</ele>
        <time>2022-06-10T12:08:54Z</time>
      </trkpt>
      <trkpt lat="48.6855" lon="-4.05636">
        <ele>8</ele>
        <time>2022-06-10T12:08:55Z</time>
      </trkpt>
      <trkpt lat="48.6856" lon="-4.05651">
        <ele>8.1</ele>
        <time>2022-06-10T12:08:56Z</time>
      </trkpt>
      <trkpt lat="48.68563" lon="-4.05657">
        <ele>8.1</ele>
        <time>2022-06-10T12:08:57Z</time>
      </trkpt>
      <trkpt lat="48.68573" lon="-4.05673">
        <ele>8.1</ele>
        <time>2022-06-10T12:08:58Z</time>
      </trkpt>
      <trkpt lat="48.68576" lon="-4.05678">
        <ele>8</ele>
        <time>2022-06-10T12:08:59Z</time>
      </trkpt>
      <trkpt lat="48.68579" lon="-4.05682">
        <ele>7.9</ele>
        <time>2022-06-10T12:09:00Z</time>
      </trkpt>
      <trkpt lat="48.6858" lon="-4.05684">
        <ele>7.9</ele>
        <time>2022-06-10T12:09:02Z</time>
      </trkpt>
      <trkpt lat="48.6858" lon="-4.05685">
        <ele>7.9</ele>
        <time>2022-06-10T12:09:03Z</time>
      </trkpt>
      <trkpt lat="48.68581" lon="-4.05685">
        <ele>7.9</ele>
        <time>2022-06-10T12:09:04Z</time>
      </trkpt>
      <trkpt lat="48.68581" lon="-4.05685">
        <ele>7.9</ele>
        <time>2022-06-10T12:09:05Z</time>
      </trkpt>
      <trkpt lat="48.68581" lon="-4.05685">
        <ele>7.9</ele>
        <time>2022-06-10T12:09:06Z</time>
      </trkpt>
      <trkpt lat="48.68581" lon="-4.05685">
        <ele>7.9</ele>
        <time>2022-06-10T12:09:07Z</time>
      </trkpt>
      <trkpt lat="48.68581" lon="-4.05685">
        <ele>7.9</ele>
        <time>2022-06-10T12:09:08Z</time>
      </trkpt>
      <trkpt lat="48.68581" lon="-4.05685">
        <ele>7.9</ele>
        <time>2022-06-10T12:09:09Z</time>
      </trkpt>
      <trkpt lat="48.68581" lon="-4.05685">
        <ele>7.9</ele>
        <time>2022-06-10T12:09:10Z</time>
      </trkpt>
      <trkpt lat="48.68581" lon="-4.05685">
        <ele>7.9</ele>
        <time>2022-06-10T12:09:11Z</time>
      </trkpt>
      <trkpt lat="48.68581" lon="-4.05685">
        <ele>7.9</ele>
        <time>2022-06-10T12:09:12Z</time>
      </trkpt>
      <trkpt lat="48.68581" lon="-4.05685">
        <ele>7.9</ele>
        <time>2022-06-10T12:09:14Z</time>
      </trkpt>
      <trkpt lat="48.68581" lon="-4.05685">
        <ele>7.9</ele>
        <time>2022-06-10T12:09:15Z</time>
      </trkpt>
      <trkpt lat="48.68581" lon="-4.05685">
        <ele>7.9</ele>
        <time>2022-06-10T12:09:16Z</time>
      </trkpt>
      <trkpt lat="48.68581" lon="-4.05685">
        <ele>7.9</ele>
        <time>2022-06-10T12:09:17Z</time>
      </trkpt>
      <trkpt lat="48.68581" lon="-4.05685">
        <ele>7.9</ele>
        <time>2022-06-10T12:09:18Z</time>
      </trkpt>
      <trkpt lat="48.68581" lon="-4.05685">
        <ele>7.9</ele>
        <time>2022-06-10T12:09:19Z</time>
      </trkpt>
      <trkpt lat="48.68581" lon="-4.05685">
        <ele>7.9</ele>
        <time>2022-06-10T12:09:20Z</time>
      </trkpt>
      <trkpt lat="48.68581" lon="-4.05685">
        <ele>7.9</ele>
        <time>2022-06-10T12:09:21Z</time>
      </trkpt>
      <trkpt lat="48.68581" lon="-4.05685">
        <ele>7.9</ele>
        <time>2022-06-10T12:09:22Z</time>
      </trkpt>
      <trkpt lat="48.68581" lon="-4.05685">
        <ele>7.9</ele>
        <time>2022-06-10T12:09:23Z</time>
      </trkpt>
      <trkpt lat="48.68581" lon="-4.05685">
        <ele>7.9</ele>
        <time>2022-06-10T12:09:24Z</time>
      </trkpt>
      <trkpt lat="48.68581" lon="-4.05685">
        <ele>7.9</ele>
        <time>2022-06-10T12:09:25Z</time>
      </trkpt>
      <trkpt lat="48.68581" lon="-4.05685">
        <ele>7.9</ele>
        <time>2022-06-10T12:09:26Z</time>
      </trkpt>
      <trkpt lat="48.68581" lon="-4.05685">
        <ele>7.9</ele>
        <time>2022-06-10T12:09:27Z</time>
      </trkpt>
      <trkpt lat="48.68581" lon="-4.05685">
        <ele>7.9</ele>
        <time>2022-06-10T12:09:28Z</time>
      </trkpt>
      <trkpt lat="48.68581" lon="-4.05685">
        <ele>7.9</ele>
        <time>2022-06-10T12:09:29Z</time>
      </trkpt>
      <trkpt lat="48.68581" lon="-4.05685">
        <ele>7.9</ele>
        <time>2022-06-10T12:09:30Z</time>
      </trkpt>
      <trkpt lat="48.68581" lon="-4.05685">
        <ele>7.9</ele>
        <time>2022-06-10T12:09:31Z</time>
      </trkpt>
      <trkpt lat="48.68581" lon="-4.05685">
        <ele>7.9</ele>
        <time>2022-06-10T12:09:32Z</time>
      </trkpt>
      <trkpt lat="48.68581" lon="-4.05685">
        <ele>7.9</ele>
        <time>2022-06-10T12:09:33Z</time>
      </trkpt>
      <trkpt lat="48.68581" lon="-4.05685">
        <ele>7.9</ele>
        <time>2022-06-10T12:09:34Z</time>
      </trkpt>
      <trkpt lat="48.68581" lon="-4.05685">
        <ele>7.9</ele>
        <time>2022-06-10T12:09:35Z</time>
      </trkpt>
      <trkpt lat="48.68581" lon="-4.05685">
        <ele>7.9</ele>
        <time>2022-06-10T12:09:36Z</time>
      </trkpt>
      <trkpt lat="48.68581" lon="-4.05685">
        <ele>7.9</ele>
        <time>2022-06-10T12:09:37Z</time>
      </trkpt>
      <trkpt lat="48.68581" lon="-4.05685">
        <ele>7.9</ele>
        <time>2022-06-10T12:09:38Z</time>
      </trkpt>
      <trkpt lat="48.68581" lon="-4.05685">
        <ele>7.9</ele>
        <time>2022-06-10T12:09:39Z</time>
      </trkpt>
      <trkpt lat="48.68581" lon="-4.05685">
        <ele>7.9</ele>
        <time>2022-06-10T12:09:40Z</time>
      </trkpt>
      <trkpt lat="48.68581" lon="-4.05685">
        <ele>7.9</ele>
        <time>2022-06-10T12:09:41Z</time>
      </trkpt>
      <trkpt lat="48.68581" lon="-4.05685">
        <ele>7.9</ele>
        <time>2022-06-10T12:09:42Z</time>
      </trkpt>
      <trkpt lat="48.68581" lon="-4.05685">
        <ele>7.9</ele>
        <time>2022-06-10T12:09:43Z</time>
      </trkpt>
      <trkpt lat="48.68581" lon="-4.05685">
        <ele>7.9</ele>
        <time>2022-06-10T12:09:44Z</time>
      </trkpt>
      <trkpt lat="48.68581" lon="-4.05685">
        <ele>7.9</ele>
        <time>2022-06-10T12:09:45Z</time>
      </trkpt>
      <trkpt lat="48.68581" lon="-4.05685">
        <ele>7.9</ele>
        <time>2022-06-10T12:09:46Z</time>
      </trkpt>
      <trkpt lat="48.68581" lon="-4.05685">
        <ele>7.9</ele>
        <time>2022-06-10T12:09:47Z</time>
      </trkpt>
      <trkpt lat="48.68581" lon="-4.05685">
        <ele>7.9</ele>
        <time>2022-06-10T12:09:48Z</time>
      </trkpt>
      <trkpt lat="48.68581" lon="-4.05685">
        <ele>7.9</ele>
        <time>2022-06-10T12:09:49Z</time>
      </trkpt>
      <trkpt lat="48.68581" lon="-4.05685">
        <ele>7.9</ele>
        <time>2022-06-10T12:09:50Z</time>
      </trkpt>
      <trkpt lat="48.68581" lon="-4.05685">
        <ele>7.9</ele>
        <time>2022-06-10T12:09:51Z</time>
      </trkpt>
      <trkpt lat="48.68581" lon="-4.05685">
        <ele>7.9</ele>
        <time>2022-06-10T12:09:52Z</time>
      </trkpt>
      <trkpt lat="48.68581" lon="-4.05685">
        <ele>7.9</ele>
        <time>2022-06-10T12:09:53Z</time>
      </trkpt>
      <trkpt lat="48.68581" lon="-4.05685">
        <ele>7.9</ele>
        <time>2022-06-10T12:09:54Z</time>
      </trkpt>
      <trkpt lat="48.68581" lon="-4.05685">
        <ele>7.9</ele>
        <time>2022-06-10T12:09:55Z</time>
      </trkpt>
      <trkpt lat="48.68581" lon="-4.05685">
        <ele>7.9</ele>
        <time>2022-06-10T12:09:56Z</time>
      </trkpt>
      <trkpt lat="48.68581" lon="-4.05685">
        <ele>7.9</ele>
        <time>2022-06-10T12:09:57Z</time>
      </trkpt>
      <trkpt lat="48.68581" lon="-4.05685">
        <ele>7.9</ele>
        <time>2022-06-10T12:09:58Z</time>
      </trkpt>
      <trkpt lat="48.68581" lon="-4.05685">
        <ele>7.9</ele>
        <time>2022-06-10T12:09:59Z</time>
      </trkpt>
      <trkpt lat="48.68581" lon="-4.05685">
        <ele>7.9</ele>
        <time>2022-06-10T12:10:00Z</time>
      </trkpt>
      <trkpt lat="48.68581" lon="-4.05685">
        <ele>7.9</ele>
        <time>2022-06-10T12:10:01Z</time>
      </trkpt>
      <trkpt lat="48.68581" lon="-4.05685">
        <ele>7.9</ele>
        <time>2022-06-10T12:10:02Z</time>
      </trkpt>
      <trkpt lat="48.68581" lon="-4.05685">
        <ele>7.9</ele>
        <time>2022-06-10T12:10:03Z</time>
      </trkpt>
      <trkpt lat="48.68581" lon="-4.05685">
        <ele>7.9</ele>
        <time>2022-06-10T12:10:04Z</time>
      </trkpt>
      <trkpt lat="48.68581" lon="-4.05685">
        <ele>7.9</ele>
        <time>2022-06-10T12:10:05Z</time>
      </trkpt>
      <trkpt lat="48.68581" lon="-4.05685">
        <ele>7.9</ele>
        <time>2022-06-10T12:10:06Z</time>
      </trkpt>
      <trkpt lat="48.68581" lon="-4.05685">
        <ele>7.9</ele>
        <time>2022-06-10T12:10:07Z</time>
      </trkpt>
      <trkpt lat="48.68581" lon="-4.05685">
        <ele>7.9</ele>
        <time>2022-06-10T12:10:08Z</time>
      </trkpt>
      <trkpt lat="48.68581" lon="-4.05685">
        <ele>7.9</ele>
        <time>2022-06-10T12:10:09Z</time>
      </trkpt>
      <trkpt lat="48.68581" lon="-4.05685">
        <ele>7.9</ele>
        <time>2022-06-10T12:10:10Z</time>
      </trkpt>
      <trkpt lat="48.68581" lon="-4.05685">
        <ele>7.9</ele>
        <time>2022-06-10T12:10:11Z</time>
      </trkpt>
      <trkpt lat="48.68581" lon="-4.05685">
        <ele>7.9</ele>
        <time>2022-06-10T12:10:12Z</time>
      </trkpt>
      <trkpt lat="48.68581" lon="-4.05685">
        <ele>7.9</ele>
        <time>2022-06-10T12:10:13Z</time>
      </trkpt>
      <trkpt lat="48.68581" lon="-4.05685">
        <ele>7.9</ele>
        <time>2022-06-10T12:10:14Z</time>
      </trkpt>
      <trkpt lat="48.68581" lon="-4.05685">
        <ele>7.9</ele>
        <time>2022-06-10T12:10:15Z</time>
      </trkpt>
      <trkpt lat="48.68581" lon="-4.05685">
        <ele>7.9</ele>
        <time>2022-06-10T12:10:16Z</time>
      </trkpt>
      <trkpt lat="48.68581" lon="-4.05685">
        <ele>7.9</ele>
        <time>2022-06-10T12:10:17Z</time>
      </trkpt>
      <trkpt lat="48.68581" lon="-4.05685">
        <ele>7.9</ele>
        <time>2022-06-10T12:10:18Z</time>
      </trkpt>
      <trkpt lat="48.68581" lon="-4.05685">
        <ele>7.9</ele>
        <time>2022-06-10T12:10:19Z</time>
      </trkpt>
      <trkpt lat="48.68581" lon="-4.05685">
        <ele>7.9</ele>
        <time>2022-06-10T12:10:20Z</time>
      </trkpt>
      <trkpt lat="48.68581" lon="-4.05685">
        <ele>7.9</ele>
        <time>2022-06-10T12:10:21Z</time>
      </trkpt>
      <trkpt lat="48.68581" lon="-4.05685">
        <ele>7.9</ele>
        <time>2022-06-10T12:10:22Z</time>
      </trkpt>
      <trkpt lat="48.68581" lon="-4.05685">
        <ele>7.9</ele>
        <time>2022-06-10T12:10:23Z</time>
      </trkpt>
      <trkpt lat="48.68581" lon="-4.05685">
        <ele>7.9</ele>
        <time>2022-06-10T12:10:24Z</time>
      </trkpt>
      <trkpt lat="48.68581" lon="-4.05685">
        <ele>7.9</ele>
        <time>2022-06-10T12:10:25Z</time>
      </trkpt>
      <trkpt lat="48.68581" lon="-4.05685">
        <ele>7.9</ele>
        <time>2022-06-10T12:10:26Z</time>
      </trkpt>
      <trkpt lat="48.68581" lon="-4.05685">
        <ele>7.9</ele>
        <time>2022-06-10T12:10:27Z</time>
      </trkpt>
      <trkpt lat="48.68581" lon="-4.05685">
        <ele>7.9</ele>
        <time>2022-06-10T12:10:28Z</time>
      </trkpt>
      <trkpt lat="48.68581" lon="-4.05685">
        <ele>7.9</ele>
        <time>2022-06-10T12:10:29Z</time>
      </trkpt>
      <trkpt lat="48.68581" lon="-4.05685">
        <ele>7.9</ele>
        <time>2022-06-10T12:10:30Z</time>
      </trkpt>
      <trkpt lat="48.68581" lon="-4.05685">
        <ele>7.9</ele>
        <time>2022-06-10T12:10:31Z</time>
      </trkpt>
      <trkpt lat="48.68581" lon="-4.05685">
        <ele>7.9</ele>
        <time>2022-06-10T12:10:32Z</time>
      </trkpt>
      <trkpt lat="48.68581" lon="-4.05685">
        <ele>7.9</ele>
        <time>2022-06-10T12:10:33Z</time>
      </trkpt>
      <trkpt lat="48.68581" lon="-4.05685">
        <ele>7.9</ele>
        <time>2022-06-10T12:10:34Z</time>
      </trkpt>
      <trkpt lat="48.68581" lon="-4.05685">
        <ele>7.9</ele>
        <time>2022-06-10T12:10:35Z</time>
      </trkpt>
      <trkpt lat="48.68581" lon="-4.05685">
        <ele>7.9</ele>
        <time>2022-06-10T12:10:36Z</time>
      </trkpt>
      <trkpt lat="48.68581" lon="-4.05685">
        <ele>7.9</ele>
        <time>2022-06-10T12:10:37Z</time>
      </trkpt>
      <trkpt lat="48.68581" lon="-4.05685">
        <ele>7.9</ele>
        <time>2022-06-10T12:10:38Z</time>
      </trkpt>
      <trkpt lat="48.68581" lon="-4.05685">
        <ele>7.9</ele>
        <time>2022-06-10T12:10:39Z</time>
      </trkpt>
      <trkpt lat="48.68581" lon="-4.05685">
        <ele>7.9</ele>
        <time>2022-06-10T12:10:40Z</time>
      </trkpt>
      <trkpt lat="48.68581" lon="-4.05685">
        <ele>7.9</ele>
        <time>2022-06-10T12:10:41Z</time>
      </trkpt>
      <trkpt lat="48.68581" lon="-4.05685">
        <ele>7.9</ele>
        <time>2022-06-10T12:10:42Z</time>
      </trkpt>
      <trkpt lat="48.68581" lon="-4.05685">
        <ele>7.9</ele>
        <time>2022-06-10T12:10:43Z</time>
      </trkpt>
      <trkpt lat="48.68581" lon="-4.05685">
        <ele>7.9</ele>
        <time>2022-06-10T12:10:44Z</time>
      </trkpt>
      <trkpt lat="48.68581" lon="-4.05685">
        <ele>7.9</ele>
        <time>2022-06-10T12:10:45Z</time>
      </trkpt>
      <trkpt lat="48.68581" lon="-4.05685">
        <ele>7.9</ele>
        <time>2022-06-10T12:10:46Z</time>
      </trkpt>
      <trkpt lat="48.68581" lon="-4.05685">
        <ele>7.9</ele>
        <time>2022-06-10T12:10:47Z</time>
      </trkpt>
      <trkpt lat="48.68581" lon="-4.05685">
        <ele>7.9</ele>
        <time>2022-06-10T12:10:48Z</time>
      </trkpt>
      <trkpt lat="48.68581" lon="-4.05685">
        <ele>7.9</ele>
        <time>2022-06-10T12:10:49Z</time>
      </trkpt>
      <trkpt lat="48.68581" lon="-4.05685">
        <ele>7.9</ele>
        <time>2022-06-10T12:10:50Z</time>
      </trkpt>
      <trkpt lat="48.68581" lon="-4.05685">
        <ele>7.9</ele>
        <time>2022-06-10T12:10:51Z</time>
      </trkpt>
      <trkpt lat="48.68581" lon="-4.05685">
        <ele>7.9</ele>
        <time>2022-06-10T12:10:52Z</time>
      </trkpt>
      <trkpt lat="48.68581" lon="-4.05685">
        <ele>7.8</ele>
        <time>2022-06-10T12:10:53Z</time>
      </trkpt>
      <trkpt lat="48.68582" lon="-4.05685">
        <ele>7.8</ele>
        <time>2022-06-10T12:10:55Z</time>
      </trkpt>
      <trkpt lat="48.68582" lon="-4.05685">
        <ele>7.8</ele>
        <time>2022-06-10T12:10:56Z</time>
      </trkpt>
      <trkpt lat="48.68583" lon="-4.05685">
        <ele>7.8</ele>
        <time>2022-06-10T12:10:57Z</time>
      </trkpt>
      <trkpt lat="48.68584" lon="-4.05685">
        <ele>7.8</ele>
        <time>2022-06-10T12:10:58Z</time>
      </trkpt>
      <trkpt lat="48.68585" lon="-4.05685">
        <ele>7.7</ele>
        <time>2022-06-10T12:10:59Z</time>
      </trkpt>
      <trkpt lat="48.68587" lon="-4.05686">
        <ele>7.7</ele>
        <time>2022-06-10T12:11:00Z</time>
      </trkpt>
      <trkpt lat="48.68587" lon="-4.05687">
        <ele>7.7</ele>
        <time>2022-06-10T12:11:02Z</time>
      </trkpt>
      <trkpt lat="48.68587" lon="-4.05688">
        <ele>7.6</ele>
        <time>2022-06-10T12:11:03Z</time>
      </trkpt>
      <trkpt lat="48.68588" lon="-4.0569">
        <ele>7.6</ele>
        <time>2022-06-10T12:11:04Z</time>
      </trkpt>
      <trkpt lat="48.68587" lon="-4.05692">
        <ele>7.5</ele>
        <time>2022-06-10T12:11:05Z</time>
      </trkpt>
      <trkpt lat="48.68587" lon="-4.05693">
        <ele>7.5</ele>
        <time>2022-06-10T12:11:06Z</time>
      </trkpt>
      <trkpt lat="48.68587" lon="-4.05694">
        <ele>7.5</ele>
        <time>2022-06-10T12:11:07Z</time>
      </trkpt>
      <trkpt lat="48.68587" lon="-4.05695">
        <ele>7.5</ele>
        <time>2022-06-10T12:11:08Z</time>
      </trkpt>
      <trkpt lat="48.68587" lon="-4.05696">
        <ele>7.4</ele>
        <time>2022-06-10T12:11:09Z</time>
      </trkpt>
      <trkpt lat="48.68587" lon="-4.05698">
        <ele>7.4</ele>
        <time>2022-06-10T12:11:10Z</time>
      </trkpt>
      <trkpt lat="48.68587" lon="-4.05699">
        <ele>7.4</ele>
        <time>2022-06-10T12:11:11Z</time>
      </trkpt>
      <trkpt lat="48.68587" lon="-4.057">
        <ele>7.3</ele>
        <time>2022-06-10T12:11:13Z</time>
      </trkpt>
      <trkpt lat="48.68587" lon="-4.05701">
        <ele>7.3</ele>
        <time>2022-06-10T12:11:14Z</time>
      </trkpt>
      <trkpt lat="48.68587" lon="-4.05703">
        <ele>7.3</ele>
        <time>2022-06-10T12:11:15Z</time>
      </trkpt>
      <trkpt lat="48.68586" lon="-4.05704">
        <ele>7.3</ele>
        <time>2022-06-10T12:11:16Z</time>
      </trkpt>
      <trkpt lat="48.68586" lon="-4.05705">
        <ele>7.2</ele>
        <time>2022-06-10T12:11:17Z</time>
      </trkpt>
      <trkpt lat="48.68585" lon="-4.05706">
        <ele>7.2</ele>
        <time>2022-06-10T12:11:18Z</time>
      </trkpt>
      <trkpt lat="48.68585" lon="-4.05706">
        <ele>7.2</ele>
        <time>2022-06-10T12:11:19Z</time>
      </trkpt>
      <trkpt lat="48.68585" lon="-4.05706">
        <ele>7.2</ele>
        <time>2022-06-10T12:11:21Z</time>
      </trkpt>
      <trkpt lat="48.68585" lon="-4.05707">
        <ele>7.2</ele>
        <time>2022-06-10T12:11:22Z</time>
      </trkpt>
      <trkpt lat="48.68585" lon="-4.05708">
        <ele>7.2</ele>
        <time>2022-06-10T12:11:23Z</time>
      </trkpt>
      <trkpt lat="48.68585" lon="-4.05709">
        <ele>7.1</ele>
        <time>2022-06-10T12:11:24Z</time>
      </trkpt>
      <trkpt lat="48.68585" lon="-4.0571">
        <ele>7.1</ele>
        <time>2022-06-10T12:11:25Z</time>
      </trkpt>
      <trkpt lat="48.68585" lon="-4.05713">
        <ele>7.1</ele>
        <time>2022-06-10T12:11:26Z</time>
      </trkpt>
      <trkpt lat="48.68585" lon="-4.05715">
        <ele>7</ele>
        <time>2022-06-10T12:11:27Z</time>
      </trkpt>
      <trkpt lat="48.68585" lon="-4.05716">
        <ele>7</ele>
        <time>2022-06-10T12:11:28Z</time>
      </trkpt>
      <trkpt lat="48.68585" lon="-4.05718">
        <ele>7</ele>
        <time>2022-06-10T12:11:30Z</time>
      </trkpt>
      <trkpt lat="48.68585" lon="-4.05721">
        <ele>7</ele>
        <time>2022-06-10T12:11:31Z</time>
      </trkpt>
      <trkpt lat="48.68585" lon="-4.05723">
        <ele>6.9</ele>
        <time>2022-06-10T12:11:32Z</time>
      </trkpt>
      <trkpt lat="48.68584" lon="-4.05724">
        <ele>6.9</ele>
        <time>2022-06-10T12:11:33Z</time>
      </trkpt>
      <trkpt lat="48.68584" lon="-4.05726">
        <ele>6.9</ele>
        <time>2022-06-10T12:11:34Z</time>
      </trkpt>
      <trkpt lat="48.68584" lon="-4.05728">
        <ele>6.9</ele>
        <time>2022-06-10T12:11:36Z</time>
      </trkpt>
      <trkpt lat="48.68584" lon="-4.05729">
        <ele>6.9</ele>
        <time>2022-06-10T12:11:37Z</time>
      </trkpt>
      <trkpt lat="48.68584" lon="-4.05731">
        <ele>6.9</ele>
        <time>2022-06-10T12:11:38Z</time>
      </trkpt>
      <trkpt lat="48.68583" lon="-4.05732">
        <ele>6.9</ele>
        <time>2022-06-10T12:11:39Z</time>
      </trkpt>
      <trkpt lat="48.68583" lon="-4.05734">
        <ele>6.9</ele>
        <time>2022-06-10T12:11:40Z</time>
      </trkpt>
      <trkpt lat="48.68583" lon="-4.05735">
        <ele>6.9</ele>
        <time>2022-06-10T12:11:42Z</time>
      </trkpt>
      <trkpt lat="48.68583" lon="-4.05737">
        <ele>6.9</ele>
        <time>2022-06-10T12:11:43Z</time>
      </trkpt>
      <trkpt lat="48.68582" lon="-4.05739">
        <ele>6.9</ele>
        <time>2022-06-10T12:11:44Z</time>
      </trkpt>
      <trkpt lat="48.68582" lon="-4.0574">
        <ele>6.9</ele>
        <time>2022-06-10T12:11:45Z</time>
      </trkpt>
      <trkpt lat="48.68583" lon="-4.05744">
        <ele>6.9</ele>
        <time>2022-06-10T12:11:46Z</time>
      </trkpt>
      <trkpt lat="48.68583" lon="-4.05745">
        <ele>6.9</ele>
        <time>2022-06-10T12:11:48Z</time>
      </trkpt>
      <trkpt lat="48.68583" lon="-4.05746">
        <ele>6.9</ele>
        <time>2022-06-10T12:11:49Z</time>
      </trkpt>
      <trkpt lat="48.68583" lon="-4.05749">
        <ele>6.9</ele>
        <time>2022-06-10T12:11:50Z</time>
      </trkpt>
      <trkpt lat="48.68583" lon="-4.0575">
        <ele>6.9</ele>
        <time>2022-06-10T12:11:51Z</time>
      </trkpt>
      <trkpt lat="48.68583" lon="-4.05751">
        <ele>6.9</ele>
        <time>2022-06-10T12:11:52Z</time>
      </trkpt>
      <trkpt lat="48.68584" lon="-4.05755">
        <ele>6.9</ele>
        <time>2022-06-10T12:11:53Z</time>
      </trkpt>
      <trkpt lat="48.68584" lon="-4.05756">
        <ele>6.9</ele>
        <time>2022-06-10T12:11:55Z</time>
      </trkpt>
      <trkpt lat="48.68584" lon="-4.05757">
        <ele>6.9</ele>
        <time>2022-06-10T12:11:56Z</time>
      </trkpt>
      <trkpt lat="48.68584" lon="-4.05759">
        <ele>7</ele>
        <time>2022-06-10T12:11:57Z</time>
      </trkpt>
      <trkpt lat="48.68584" lon="-4.05761">
        <ele>7</ele>
        <time>2022-06-10T12:11:58Z</time>
      </trkpt>
      <trkpt lat="48.68771" lon="-4.06188">
        <ele>9.5</ele>
        <time>2022-06-10T12:20:40Z</time>
      </trkpt>
      <trkpt lat="48.68769" lon="-4.06185">
        <ele>9.5</ele>
        <time>2022-06-10T12:20:41Z</time>
      </trkpt>
      <trkpt lat="48.68769" lon="-4.06185">
        <ele>9.5</ele>
        <time>2022-06-10T12:20:42Z</time>
      </trkpt>
      <trkpt lat="48.68769" lon="-4.06185">
        <ele>9.5</ele>
        <time>2022-06-10T12:20:43Z</time>
      </trkpt>
      <trkpt lat="48.68769" lon="-4.06185">
        <ele>9.6</ele>
        <time>2022-06-10T12:20:45Z</time>
      </trkpt>
      <trkpt lat="48.68769" lon="-4.06185">
        <ele>9.6</ele>
        <time>2022-06-10T12:20:46Z</time>
      </trkpt>
      <trkpt lat="48.68769" lon="-4.06184">
        <ele>9.6</ele>
        <time>2022-06-10T12:20:47Z</time>
      </trkpt>
      <trkpt lat="48.68769" lon="-4.06184">
        <ele>9.6</ele>
        <time>2022-06-10T12:20:48Z</time>
      </trkpt>
      <trkpt lat="48.68769" lon="-4.06184">
        <ele>9.6</ele>
        <time>2022-06-10T12:20:49Z</time>
      </trkpt>
      <trkpt lat="48.68769" lon="-4.06185">
        <ele>9.6</ele>
        <time>2022-06-10T12:20:50Z</time>
      </trkpt>
      <trkpt lat="48.68769" lon="-4.06185">
        <ele>9.6</ele>
        <time>2022-06-10T12:20:51Z</time>
      </trkpt>
      <trkpt lat="48.68769" lon="-4.06185">
        <ele>9.6</ele>
        <time>2022-06-10T12:20:52Z</time>
      </trkpt>
      <trkpt lat="48.68769" lon="-4.06185">
        <ele>9.6</ele>
        <time>2022-06-10T12:20:53Z</time>
      </trkpt>
      <trkpt lat="48.68769" lon="-4.06185">
        <ele>9.6</ele>
        <time>2022-06-10T12:20:54Z</time>
      </trkpt>
      <trkpt lat="48.68769" lon="-4.06185">
        <ele>9.6</ele>
        <time>2022-06-10T12:20:55Z</time>
      </trkpt>
      <trkpt lat="48.68769" lon="-4.06185">
        <ele>9.6</ele>
        <time>2022-06-10T12:20:56Z</time>
      </trkpt>
      <trkpt lat="48.68769" lon="-4.06185">
        <ele>9.6</ele>
        <time>2022-06-10T12:20:57Z</time>
      </trkpt>
      <trkpt lat="48.68769" lon="-4.06185">
        <ele>9.6</ele>
        <time>2022-06-10T12:20:58Z</time>
      </trkpt>
      <trkpt lat="48.68769" lon="-4.06185">
        <ele>9.6</ele>
        <time>2022-06-10T12:20:59Z</time>
      </trkpt>
      <trkpt lat="48.68769" lon="-4.06185">
        <ele>9.6</ele>
        <time>2022-06-10T12:21:00Z</time>
      </trkpt>
      <trkpt lat="48.68769" lon="-4.06185">
        <ele>9.6</ele>
        <time>2022-06-10T12:21:01Z</time>
      </trkpt>
      <trkpt lat="48.68769" lon="-4.06185">
        <ele>9.6</ele>
        <time>2022-06-10T12:21:02Z</time>
      </trkpt>
      <trkpt lat="48.68769" lon="-4.06185">
        <ele>9.6</ele>
        <time>2022-06-10T12:21:03Z</time>
      </trkpt>
      <trkpt lat="48.68769" lon="-4.06185">
        <ele>9.6</ele>
        <time>2022-06-10T12:21:04Z</time>
      </trkpt>
      <trkpt lat="48.68769" lon="-4.06185">
        <ele>9.6</ele>
        <time>2022-06-10T12:21:05Z</time>
      </trkpt>
      <trkpt lat="48.68769" lon="-4.06185">
        <ele>9.6</ele>
        <time>2022-06-10T12:21:06Z</time>
      </trkpt>
      <trkpt lat="48.68769" lon="-4.06185">
        <ele>9.6</ele>
        <time>2022-06-10T12:21:07Z</time>
      </trkpt>
      <trkpt lat="48.68769" lon="-4.06185">
        <ele>9.6</ele>
        <time>2022-06-10T12:21:08Z</time>
      </trkpt>
      <trkpt lat="48.68769" lon="-4.06185">
        <ele>9.6</ele>
        <time>2022-06-10T12:21:09Z</time>
      </trkpt>
      <trkpt lat="48.68769" lon="-4.06185">
        <ele>9.6</ele>
        <time>2022-06-10T12:21:10Z</time>
      </trkpt>
      <trkpt lat="48.68769" lon="-4.06185">
        <ele>9.6</ele>
        <time>2022-06-10T12:21:11Z</time>
      </trkpt>
      <trkpt lat="48.68769" lon="-4.06185">
        <ele>9.6</ele>
        <time>2022-06-10T12:21:12Z</time>
      </trkpt>
      <trkpt lat="48.68769" lon="-4.06185">
        <ele>9.6</ele>
        <time>2022-06-10T12:21:13Z</time>
      </trkpt>
      <trkpt lat="48.68769" lon="-4.06185">
        <ele>9.6</ele>
        <time>2022-06-10T12:21:14Z</time>
      </trkpt>
      <trkpt lat="48.68769" lon="-4.06185">
        <ele>9.6</ele>
        <time>2022-06-10T12:21:15Z</time>
      </trkpt>
      <trkpt lat="48.68769" lon="-4.06185">
        <ele>9.6</ele>
        <time>2022-06-10T12:21:16Z</time>
      </trkpt>
      <trkpt lat="48.68769" lon="-4.06185">
        <ele>9.6</ele>
        <time>2022-06-10T12:21:17Z</time>
      </trkpt>
      <trkpt lat="48.68769" lon="-4.06185">
        <ele>9.6</ele>
        <time>2022-06-10T12:21:18Z</time>
      </trkpt>
      <trkpt lat="48.68769" lon="-4.06185">
        <ele>9.6</ele>
        <time>2022-06-10T12:21:19Z</time>
      </trkpt>
      <trkpt lat="48.68769" lon="-4.06185">
        <ele>9.6</ele>
        <time>2022-06-10T12:21:20Z</time>
      </trkpt>
      <trkpt lat="48.68769" lon="-4.06185">
        <ele>9.6</ele>
        <time>2022-06-10T12:21:21Z</time>
      </trkpt>
      <trkpt lat="48.68769" lon="-4.06185">
        <ele>9.6</ele>
        <time>2022-06-10T12:21:22Z</time>
      </trkpt>
      <trkpt lat="48.68769" lon="-4.06185">
        <ele>9.6</ele>
        <time>2022-06-10T12:21:23Z</time>
      </trkpt>
      <trkpt lat="48.68769" lon="-4.06185">
        <ele>9.6</ele>
        <time>2022-06-10T12:21:24Z</time>
      </trkpt>
      <trkpt lat="48.68769" lon="-4.06185">
        <ele>9.6</ele>
        <time>2022-06-10T12:21:25Z</time>
      </trkpt>
      <trkpt lat="48.68769" lon="-4.06185">
        <ele>9.6</ele>
        <time>2022-06-10T12:21:26Z</time>
      </trkpt>
      <trkpt lat="48.68769" lon="-4.06185">
        <ele>9.6</ele>
        <time>2022-06-10T12:21:27Z</time>
      </trkpt>
      <trkpt lat="48.68769" lon="-4.06185">
        <ele>9.6</ele>
        <time>2022-06-10T12:21:28Z</time>
      </trkpt>
      <trkpt lat="48.68769" lon="-4.06185">
        <ele>9.6</ele>
        <time>2022-06-10T12:21:29Z</time>
      </trkpt>
      <trkpt lat="48.68769" lon="-4.06185">
        <ele>9.6</ele>
        <time>2022-06-10T12:21:30Z</time>
      </trkpt>
      <trkpt lat="48.68769" lon="-4.06185">
        <ele>9.6</ele>
        <time>2022-06-10T12:21:31Z</time>
      </trkpt>
      <trkpt lat="48.68769" lon="-4.06185">
        <ele>9.6</ele>
        <time>2022-06-10T12:21:32Z</time>
      </trkpt>
      <trkpt lat="48.68769" lon="-4.06185">
        <ele>9.6</ele>
        <time>2022-06-10T12:21:33Z</time>
      </trkpt>
      <trkpt lat="48.68769" lon="-4.06185">
        <ele>9.6</ele>
        <time>2022-06-10T12:21:34Z</time>
      </trkpt>
      <trkpt lat="48.68769" lon="-4.06185">
        <ele>9.6</ele>
        <time>2022-06-10T12:21:35Z</time>
      </trkpt>
      <trkpt lat="48.68769" lon="-4.06185">
        <ele>9.6</ele>
        <time>2022-06-10T12:21:36Z</time>
      </trkpt>
      <trkpt lat="48.68769" lon="-4.06185">
        <ele>9.6</ele>
        <time>2022-06-10T12:21:37Z</time>
      </trkpt>
      <trkpt lat="48.68769" lon="-4.06185">
        <ele>9.6</ele>
        <time>2022-06-10T12:21:38Z</time>
      </trkpt>
      <trkpt lat="48.68769" lon="-4.06185">
        <ele>9.6</ele>
        <time>2022-06-10T12:21:39Z</time>
      </trkpt>
      <trkpt lat="48.68769" lon="-4.06185">
        <ele>9.6</ele>
        <time>2022-06-10T12:21:40Z</time>
      </trkpt>
      <trkpt lat="48.68769" lon="-4.06185">
        <ele>9.6</ele>
        <time>2022-06-10T12:21:41Z</time>
      </trkpt>
      <trkpt lat="48.68769" lon="-4.06185">
        <ele>9.6</ele>
        <time>2022-06-10T12:21:42Z</time>
      </trkpt>
      <trkpt lat="48.68769" lon="-4.06185">
        <ele>9.6</ele>
        <time>2022-06-10T12:21:43Z</time>
      </trkpt>
      <trkpt lat="48.68769" lon="-4.06185">
        <ele>9.6</ele>
        <time>2022-06-10T12:21:44Z</time>
      </trkpt>
      <trkpt lat="48.68769" lon="-4.06185">
        <ele>9.6</ele>
        <time>2022-06-10T12:21:45Z</time>
      </trkpt>
      <trkpt lat="48.68769" lon="-4.06185">
        <ele>9.6</ele>
        <time>2022-06-10T12:21:46Z</time>
      </trkpt>
      <trkpt lat="48.68769" lon="-4.06185">
        <ele>9.6</ele>
        <time>2022-06-10T12:21:47Z</time>
      </trkpt>
      <trkpt lat="48.68769" lon="-4.06185">
        <ele>9.6</ele>
        <time>2022-06-10T12:21:48Z</time>
      </trkpt>
      <trkpt lat="48.68769" lon="-4.06185">
        <ele>9.6</ele>
        <time>2022-06-10T12:21:49Z</time>
      </trkpt>
      <trkpt lat="48.68769" lon="-4.06185">
        <ele>9.6</ele>
        <time>2022-06-10T12:21:50Z</time>
      </trkpt>
      <trkpt lat="48.68769" lon="-4.06185">
        <ele>9.6</ele>
        <time>2022-06-10T12:21:51Z</time>
      </trkpt>
      <trkpt lat="48.68769" lon="-4.06185">
        <ele>9.6</ele>
        <time>2022-06-10T12:21:52Z</time>
      </trkpt>
      <trkpt lat="48.68769" lon="-4.06185">
        <ele>9.6</ele>
        <time>2022-06-10T12:21:53Z</time>
      </trkpt>
      <trkpt lat="48.68769" lon="-4.06185">
        <ele>9.6</ele>
        <time>2022-06-10T12:21:54Z</time>
      </trkpt>
      <trkpt lat="48.68769" lon="-4.06185">
        <ele>9.6</ele>
        <time>2022-06-10T12:21:55Z</time>
      </trkpt>
      <trkpt lat="48.68769" lon="-4.06185">
        <ele>9.6</ele>
        <time>2022-06-10T12:21:56Z</time>
      </trkpt>
      <trkpt lat="48.68769" lon="-4.06185">
        <ele>9.6</ele>
        <time>2022-06-10T12:21:57Z</time>
      </trkpt>
      <trkpt lat="48.68769" lon="-4.06185">
        <ele>9.6</ele>
        <time>2022-06-10T12:21:58Z</time>
      </trkpt>
      <trkpt lat="48.68769" lon="-4.06184">
        <ele>9.6</ele>
        <time>2022-06-10T12:21:59Z</time>
      </trkpt>
      <trkpt lat="48.68768" lon="-4.06184">
        <ele>9.6</ele>
        <time>2022-06-10T12:22:00Z</time>
      </trkpt>
      <trkpt lat="48.68768" lon="-4.06184">
        <ele>9.6</ele>
        <time>2022-06-10T12:22:01Z</time>
      </trkpt>
      <trkpt lat="48.68768" lon="-4.06185">
        <ele>9.6</ele>
        <time>2022-06-10T12:22:02Z</time>
      </trkpt>
      <trkpt lat="48.68768" lon="-4.06185">
        <ele>9.6</ele>
        <time>2022-06-10T12:22:03Z</time>
      </trkpt>
      <trkpt lat="48.68768" lon="-4.06185">
        <ele>9.6</ele>
        <time>2022-06-10T12:22:04Z</time>
      </trkpt>
      <trkpt lat="48.68768" lon="-4.06185">
        <ele>9.6</ele>
        <time>2022-06-10T12:22:05Z</time>
      </trkpt>
      <trkpt lat="48.68768" lon="-4.06185">
        <ele>9.6</ele>
        <time>2022-06-10T12:22:07Z</time>
      </trkpt>
      <trkpt lat="48.68768" lon="-4.06185">
        <ele>9.6</ele>
        <time>2022-06-10T12:22:08Z</time>
      </trkpt>
      <trkpt lat="48.68768" lon="-4.06184">
        <ele>9.6</ele>
        <time>2022-06-10T12:22:09Z</time>
      </trkpt>
      <trkpt lat="48.68769" lon="-4.06184">
        <ele>9.6</ele>
        <time>2022-06-10T12:22:10Z</time>
      </trkpt>
      <trkpt lat="48.68769" lon="-4.06184">
        <ele>9.6</ele>
        <time>2022-06-10T12:22:11Z</time>
      </trkpt>
      <trkpt lat="48.68768" lon="-4.06184">
        <ele>9.6</ele>
        <time>2022-06-10T12:22:12Z</time>
      </trkpt>
      <trkpt lat="48.68769" lon="-4.06184">
        <ele>9.6</ele>
        <time>2022-06-10T12:22:13Z</time>
      </trkpt>
      <trkpt lat="48.68769" lon="-4.06185">
        <ele>9.6</ele>
        <time>2022-06-10T12:22:14Z</time>
      </trkpt>
      <trkpt lat="48.68769" lon="-4.06185">
        <ele>9.6</ele>
        <time>2022-06-10T12:22:15Z</time>
      </trkpt>
      <trkpt lat="48.68769" lon="-4.06185">
        <ele>9.6</ele>
        <time>2022-06-10T12:22:16Z</time>
      </trkpt>
      <trkpt lat="48.68769" lon="-4.06185">
        <ele>9.6</ele>
        <time>2022-06-10T12:22:17Z</time>
      </trkpt>
      <trkpt lat="48.68769" lon="-4.06185">
        <ele>9.6</ele>
        <time>2022-06-10T12:22:18Z</time>
      </trkpt>
      <trkpt lat="48.68769" lon="-4.06185">
        <ele>9.6</ele>
        <time>2022-06-10T12:22:19Z</time>
      </trkpt>
      <trkpt lat="48.68769" lon="-4.06185">
        <ele>9.6</ele>
        <time>2022-06-10T12:22:20Z</time>
      </trkpt>
      <trkpt lat="48.68769" lon="-4.06185">
        <ele>9.6</ele>
        <time>2022-06-10T12:22:21Z</time>
      </trkpt>
      <trkpt lat="48.68769" lon="-4.06185">
        <ele>9.6</ele>
        <time>2022-06-10T12:22:22Z</time>
      </trkpt>
      <trkpt lat="48.68769" lon="-4.06185">
        <ele>9.6</ele>
        <time>2022-06-10T12:22:23Z</time>
      </trkpt>
      <trkpt lat="48.68769" lon="-4.06185">
        <ele>9.6</ele>
        <time>2022-06-10T12:22:24Z</time>
      </trkpt>
      <trkpt lat="48.68769" lon="-4.06185">
        <ele>9.6</ele>
        <time>2022-06-10T12:22:25Z</time>
      </trkpt>
      <trkpt lat="48.68769" lon="-4.06185">
        <ele>9.6</ele>
        <time>2022-06-10T12:22:26Z</time>
      </trkpt>
      <trkpt lat="48.68769" lon="-4.06185">
        <ele>9.6</ele>
        <time>2022-06-10T12:22:27Z</time>
      </trkpt>
      <trkpt lat="48.68769" lon="-4.06185">
        <ele>9.6</ele>
        <time>2022-06-10T12:22:28Z</time>
      </trkpt>
      <trkpt lat="48.68769" lon="-4.06185">
        <ele>9.6</ele>
        <time>2022-06-10T12:22:29Z</time>
      </trkpt>
      <trkpt lat="48.68769" lon="-4.06185">
        <ele>9.6</ele>
        <time>2022-06-10T12:22:30Z</time>
      </trkpt>
      <trkpt lat="48.68769" lon="-4.06185">
        <ele>9.6</ele>
        <time>2022-06-10T12:22:31Z</time>
      </trkpt>
      <trkpt lat="48.68769" lon="-4.06185">
        <ele>9.6</ele>
        <time>2022-06-10T12:22:32Z</time>
      </trkpt>
      <trkpt lat="48.68769" lon="-4.06185">
        <ele>9.6</ele>
        <time>2022-06-10T12:22:33Z</time>
      </trkpt>
      <trkpt lat="48.68769" lon="-4.06185">
        <ele>9.6</ele>
        <time>2022-06-10T12:22:34Z</time>
      </trkpt>
      <trkpt lat="48.68769" lon="-4.06185">
        <ele>9.6</ele>
        <time>2022-06-10T12:22:35Z</time>
      </trkpt>
      <trkpt lat="48.68769" lon="-4.06185">
        <ele>9.6</ele>
        <time>2022-06-10T12:22:36Z</time>
      </trkpt>
      <trkpt lat="48.68769" lon="-4.06185">
        <ele>9.6</ele>
        <time>2022-06-10T12:22:37Z</time>
      </trkpt>
      <trkpt lat="48.68769" lon="-4.06185">
        <ele>9.6</ele>
        <time>2022-06-10T12:22:38Z</time>
      </trkpt>
      <trkpt lat="48.68769" lon="-4.06185">
        <ele>9.6</ele>
        <time>2022-06-10T12:22:39Z</time>
      </trkpt>
      <trkpt lat="48.68769" lon="-4.06185">
        <ele>9.6</ele>
        <time>2022-06-10T12:22:40Z</time>
      </trkpt>
      <trkpt lat="48.68769" lon="-4.06185">
        <ele>9.6</ele>
        <time>2022-06-10T12:22:41Z</time>
      </trkpt>
      <trkpt lat="48.68769" lon="-4.06185">
        <ele>9.6</ele>
        <time>2022-06-10T12:22:42Z</time>
      </trkpt>
      <trkpt lat="48.68769" lon="-4.06185">
        <ele>9.6</ele>
        <time>2022-06-10T12:22:43Z</time>
      </trkpt>
      <trkpt lat="48.68769" lon="-4.06185">
        <ele>9.6</ele>
        <time>2022-06-10T12:22:44Z</time>
      </trkpt>
      <trkpt lat="48.68769" lon="-4.06185">
        <ele>9.6</ele>
        <time>2022-06-10T12:22:45Z</time>
      </trkpt>
      <trkpt lat="48.68769" lon="-4.06185">
        <ele>9.6</ele>
        <time>2022-06-10T12:22:46Z</time>
      </trkpt>
      <trkpt lat="48.68769" lon="-4.06185">
        <ele>9.6</ele>
        <time>2022-06-10T12:22:47Z</time>
      </trkpt>
      <trkpt lat="48.68769" lon="-4.06185">
        <ele>9.6</ele>
        <time>2022-06-10T12:22:48Z</time>
      </trkpt>
      <trkpt lat="48.68769" lon="-4.06185">
        <ele>9.6</ele>
        <time>2022-06-10T12:22:49Z</time>
      </trkpt>
      <trkpt lat="48.68769" lon="-4.06185">
        <ele>9.6</ele>
        <time>2022-06-10T12:22:50Z</time>
      </trkpt>
      <trkpt lat="48.68769" lon="-4.06185">
        <ele>9.6</ele>
        <time>2022-06-10T12:22:51Z</time>
      </trkpt>
      <trkpt lat="48.68769" lon="-4.06185">
        <ele>9.6</ele>
        <time>2022-06-10T12:22:52Z</time>
      </trkpt>
      <trkpt lat="48.68769" lon="-4.06185">
        <ele>9.6</ele>
        <time>2022-06-10T12:22:53Z</time>
      </trkpt>
      <trkpt lat="48.68769" lon="-4.06185">
        <ele>9.6</ele>
        <time>2022-06-10T12:22:54Z</time>
      </trkpt>
      <trkpt lat="48.68769" lon="-4.06185">
        <ele>9.6</ele>
        <time>2022-06-10T12:22:55Z</time>
      </trkpt>
      <trkpt lat="48.68769" lon="-4.06185">
        <ele>9.6</ele>
        <time>2022-06-10T12:22:56Z</time>
      </trkpt>
      <trkpt lat="48.68769" lon="-4.06185">
        <ele>9.6</ele>
        <time>2022-06-10T12:22:57Z</time>
      </trkpt>
      <trkpt lat="48.68769" lon="-4.06185">
        <ele>9.6</ele>
        <time>2022-06-10T12:22:58Z</time>
      </trkpt>
      <trkpt lat="48.68769" lon="-4.06185">
        <ele>9.6</ele>
        <time>2022-06-10T12:22:59Z</time>
      </trkpt>
      <trkpt lat="48.68769" lon="-4.06185">
        <ele>9.6</ele>
        <time>2022-06-10T12:23:00Z</time>
      </trkpt>
      <trkpt lat="48.68769" lon="-4.06185">
        <ele>9.6</ele>
        <time>2022-06-10T12:23:01Z</time>
      </trkpt>
      <trkpt lat="48.68769" lon="-4.06185">
        <ele>9.6</ele>
        <time>2022-06-10T12:23:02Z</time>
      </trkpt>
      <trkpt lat="48.68769" lon="-4.06185">
        <ele>9.6</ele>
        <time>2022-06-10T12:23:03Z</time>
      </trkpt>
      <trkpt lat="48.68769" lon="-4.06185">
        <ele>9.6</ele>
        <time>2022-06-10T12:23:04Z</time>
      </trkpt>
      <trkpt lat="48.68769" lon="-4.06185">
        <ele>9.6</ele>
        <time>2022-06-10T12:23:05Z</time>
      </trkpt>
      <trkpt lat="48.68769" lon="-4.06185">
        <ele>9.6</ele>
        <time>2022-06-10T12:23:06Z</time>
      </trkpt>
      <trkpt lat="48.68769" lon="-4.06185">
        <ele>9.6</ele>
        <time>2022-06-10T12:23:07Z</time>
      </trkpt>
      <trkpt lat="48.68769" lon="-4.06185">
        <ele>9.6</ele>
        <time>2022-06-10T12:23:08Z</time>
      </trkpt>
      <trkpt lat="48.68769" lon="-4.06185">
        <ele>9.6</ele>
        <time>2022-06-10T12:23:09Z</time>
      </trkpt>
      <trkpt lat="48.68769" lon="-4.06185">
        <ele>9.6</ele>
        <time>2022-06-10T12:23:10Z</time>
      </trkpt>
      <trkpt lat="48.68769" lon="-4.06185">
        <ele>9.6</ele>
        <time>2022-06-10T12:23:11Z</time>
      </trkpt>
      <trkpt lat="48.68769" lon="-4.06185">
        <ele>9.6</ele>
        <time>2022-06-10T12:23:12Z</time>
      </trkpt>
      <trkpt lat="48.68769" lon="-4.06185">
        <ele>9.6</ele>
        <time>2022-06-10T12:23:13Z</time>
      </trkpt>
      <trkpt lat="48.68769" lon="-4.06185">
        <ele>9.6</ele>
        <time>2022-06-10T12:23:14Z</time>
      </trkpt>
      <trkpt lat="48.68769" lon="-4.06185">
        <ele>9.6</ele>
        <time>2022-06-10T12:23:15Z</time>
      </trkpt>
      <trkpt lat="48.68769" lon="-4.06185">
        <ele>9.6</ele>
        <time>2022-06-10T12:23:16Z</time>
      </trkpt>
      <trkpt lat="48.68769" lon="-4.06185">
        <ele>9.6</ele>
        <time>2022-06-10T12:23:17Z</time>
      </trkpt>
      <trkpt lat="48.68769" lon="-4.06185">
        <ele>9.6</ele>
        <time>2022-06-10T12:23:18Z</time>
      </trkpt>
      <trkpt lat="48.68769" lon="-4.06185">
        <ele>9.6</ele>
        <time>2022-06-10T12:23:19Z</time>
      </trkpt>
      <trkpt lat="48.68769" lon="-4.06185">
        <ele>9.6</ele>
        <time>2022-06-10T12:23:20Z</time>
      </trkpt>
      <trkpt lat="48.68769" lon="-4.06185">
        <ele>9.6</ele>
        <time>2022-06-10T12:23:21Z</time>
      </trkpt>
      <trkpt lat="48.68769" lon="-4.06185">
        <ele>9.6</ele>
        <time>2022-06-10T12:23:22Z</time>
      </trkpt>
      <trkpt lat="48.68769" lon="-4.06185">
        <ele>9.6</ele>
        <time>2022-06-10T12:23:23Z</time>
      </trkpt>
      <trkpt lat="48.68769" lon="-4.06185">
        <ele>9.6</ele>
        <time>2022-06-10T12:23:24Z</time>
      </trkpt>
      <trkpt lat="48.68769" lon="-4.06185">
        <ele>9.6</ele>
        <time>2022-06-10T12:23:25Z</time>
      </trkpt>
      <trkpt lat="48.68769" lon="-4.06185">
        <ele>9.6</ele>
        <time>2022-06-10T12:23:26Z</time>
      </trkpt>
      <trkpt lat="48.68769" lon="-4.06185">
        <ele>9.6</ele>
        <time>2022-06-10T12:23:27Z</time>
      </trkpt>
      <trkpt lat="48.68769" lon="-4.06185">
        <ele>9.6</ele>
        <time>2022-06-10T12:23:28Z</time>
      </trkpt>
      <trkpt lat="48.68769" lon="-4.06185">
        <ele>9.6</ele>
        <time>2022-06-10T12:23:29Z</time>
      </trkpt>
      <trkpt lat="48.68769" lon="-4.06185">
        <ele>9.6</ele>
        <time>2022-06-10T12:23:30Z</time>
      </trkpt>
      <trkpt lat="48.68769" lon="-4.06185">
        <ele>9.6</ele>
        <time>2022-06-10T12:23:31Z</time>
      </trkpt>
      <trkpt lat="48.68769" lon="-4.06185">
        <ele>9.6</ele>
        <time>2022-06-10T12:23:32Z</time>
      </trkpt>
      <trkpt lat="48.68769" lon="-4.06185">
        <ele>9.6</ele>
        <time>2022-06-10T12:23:33Z</time>
      </trkpt>
      <trkpt lat="48.68769" lon="-4.06185">
        <ele>9.6</ele>
        <time>2022-06-10T12:23:34Z</time>
      </trkpt>
      <trkpt lat="48.68769" lon="-4.06185">
        <ele>9.6</ele>
        <time>2022-06-10T12:23:35Z</time>
      </trkpt>
      <trkpt lat="48.68769" lon="-4.06185">
        <ele>9.6</ele>
        <time>2022-06-10T12:23:36Z</time>
      </trkpt>
      <trkpt lat="48.68769" lon="-4.06185">
        <ele>9.6</ele>
        <time>2022-06-10T12:23:37Z</time>
      </trkpt>
      <trkpt lat="48.68769" lon="-4.06185">
        <ele>9.6</ele>
        <time>2022-06-10T12:23:38Z</time>
      </trkpt>
      <trkpt lat="48.68769" lon="-4.06185">
        <ele>9.6</ele>
        <time>2022-06-10T12:23:39Z</time>
      </trkpt>
      <trkpt lat="48.68769" lon="-4.06185">
        <ele>9.6</ele>
        <time>2022-06-10T12:23:40Z</time>
      </trkpt>
      <trkpt lat="48.68769" lon="-4.06185">
        <ele>9.6</ele>
        <time>2022-06-10T12:23:41Z</time>
      </trkpt>
      <trkpt lat="48.68769" lon="-4.06185">
        <ele>9.6</ele>
        <time>2022-06-10T12:23:42Z</time>
      </trkpt>
      <trkpt lat="48.68769" lon="-4.06185">
        <ele>9.6</ele>
        <time>2022-06-10T12:23:43Z</time>
      </trkpt>
      <trkpt lat="48.68769" lon="-4.06185">
        <ele>9.6</ele>
        <time>2022-06-10T12:23:44Z</time>
      </trkpt>
      <trkpt lat="48.68769" lon="-4.06185">
        <ele>9.6</ele>
        <time>2022-06-10T12:23:45Z</time>
      </trkpt>
      <trkpt lat="48.68769" lon="-4.06185">
        <ele>9.6</ele>
        <time>2022-06-10T12:23:46Z</time>
      </trkpt>
      <trkpt lat="48.68769" lon="-4.06185">
        <ele>9.6</ele>
        <time>2022-06-10T12:23:47Z</time>
      </trkpt>
      <trkpt lat="48.68769" lon="-4.06185">
        <ele>9.6</ele>
        <time>2022-06-10T12:23:48Z</time>
      </trkpt>
      <trkpt lat="48.68769" lon="-4.06185">
        <ele>9.6</ele>
        <time>2022-06-10T12:23:49Z</time>
      </trkpt>
      <trkpt lat="48.68769" lon="-4.06185">
        <ele>9.6</ele>
        <time>2022-06-10T12:23:50Z</time>
      </trkpt>
      <trkpt lat="48.68769" lon="-4.06185">
        <ele>9.6</ele>
        <time>2022-06-10T12:23:51Z</time>
      </trkpt>
      <trkpt lat="48.68769" lon="-4.06185">
        <ele>9.6</ele>
        <time>2022-06-10T12:23:52Z</time>
      </trkpt>
      <trkpt lat="48.68769" lon="-4.06185">
        <ele>9.6</ele>
        <time>2022-06-10T12:23:53Z</time>
      </trkpt>
      <trkpt lat="48.68769" lon="-4.06185">
        <ele>9.6</ele>
        <time>2022-06-10T12:23:54Z</time>
      </trkpt>
      <trkpt lat="48.68769" lon="-4.06185">
        <ele>9.6</ele>
        <time>2022-06-10T12:23:55Z</time>
      </trkpt>
      <trkpt lat="48.68769" lon="-4.06185">
        <ele>9.6</ele>
        <time>2022-06-10T12:23:56Z</time>
      </trkpt>
      <trkpt lat="48.68769" lon="-4.06185">
        <ele>9.6</ele>
        <time>2022-06-10T12:23:57Z</time>
      </trkpt>
      <trkpt lat="48.68769" lon="-4.06185">
        <ele>9.6</ele>
        <time>2022-06-10T12:23:58Z</time>
      </trkpt>
      <trkpt lat="48.68769" lon="-4.06185">
        <ele>9.6</ele>
        <time>2022-06-10T12:23:59Z</time>
      </trkpt>
      <trkpt lat="48.68769" lon="-4.06185">
        <ele>9.6</ele>
        <time>2022-06-10T12:24:00Z</time>
      </trkpt>
      <trkpt lat="48.68769" lon="-4.06185">
        <ele>9.6</ele>
        <time>2022-06-10T12:24:01Z</time>
      </trkpt>
      <trkpt lat="48.68769" lon="-4.06185">
        <ele>9.6</ele>
        <time>2022-06-10T12:24:02Z</time>
      </trkpt>
      <trkpt lat="48.68769" lon="-4.06185">
        <ele>9.6</ele>
        <time>2022-06-10T12:24:03Z</time>
      </trkpt>
      <trkpt lat="48.68769" lon="-4.06185">
        <ele>9.6</ele>
        <time>2022-06-10T12:24:04Z</time>
      </trkpt>
      <trkpt lat="48.68769" lon="-4.06185">
        <ele>9.6</ele>
        <time>2022-06-10T12:24:05Z</time>
      </trkpt>
      <trkpt lat="48.68769" lon="-4.06185">
        <ele>9.6</ele>
        <time>2022-06-10T12:24:06Z</time>
      </trkpt>
      <trkpt lat="48.68769" lon="-4.06185">
        <ele>9.6</ele>
        <time>2022-06-10T12:24:07Z</time>
      </trkpt>
      <trkpt lat="48.68769" lon="-4.06185">
        <ele>9.6</ele>
        <time>2022-06-10T12:24:08Z</time>
      </trkpt>
      <trkpt lat="48.68769" lon="-4.06185">
        <ele>9.6</ele>
        <time>2022-06-10T12:24:09Z</time>
      </trkpt>
      <trkpt lat="48.68769" lon="-4.06185">
        <ele>9.6</ele>
        <time>2022-06-10T12:24:10Z</time>
      </trkpt>
      <trkpt lat="48.68769" lon="-4.06185">
        <ele>9.6</ele>
        <time>2022-06-10T12:24:11Z</time>
      </trkpt>
      <trkpt lat="48.68769" lon="-4.06185">
        <ele>9.6</ele>
        <time>2022-06-10T12:24:12Z</time>
      </trkpt>
      <trkpt lat="48.68769" lon="-4.06185">
        <ele>9.6</ele>
        <time>2022-06-10T12:24:13Z</time>
      </trkpt>
      <trkpt lat="48.68769" lon="-4.06185">
        <ele>9.6</ele>
        <time>2022-06-10T12:24:14Z</time>
      </trkpt>
      <trkpt lat="48.68769" lon="-4.06185">
        <ele>9.6</ele>
        <time>2022-06-10T12:24:15Z</time>
      </trkpt>
      <trkpt lat="48.68769" lon="-4.06185">
        <ele>9.6</ele>
        <time>2022-06-10T12:24:16Z</time>
      </trkpt>
      <trkpt lat="48.68769" lon="-4.06185">
        <ele>9.6</ele>
        <time>2022-06-10T12:24:17Z</time>
      </trkpt>
      <trkpt lat="48.68769" lon="-4.06185">
        <ele>9.6</ele>
        <time>2022-06-10T12:24:18Z</time>
      </trkpt>
      <trkpt lat="48.68769" lon="-4.06185">
        <ele>9.6</ele>
        <time>2022-06-10T12:24:19Z</time>
      </trkpt>
      <trkpt lat="48.68769" lon="-4.06185">
        <ele>9.6</ele>
        <time>2022-06-10T12:24:20Z</time>
      </trkpt>
      <trkpt lat="48.68769" lon="-4.06185">
        <ele>9.6</ele>
        <time>2022-06-10T12:24:21Z</time>
      </trkpt>
      <trkpt lat="48.68769" lon="-4.06185">
        <ele>9.6</ele>
        <time>2022-06-10T12:24:22Z</time>
      </trkpt>
      <trkpt lat="48.68769" lon="-4.06185">
        <ele>9.6</ele>
        <time>2022-06-10T12:24:23Z</time>
      </trkpt>
      <trkpt lat="48.68769" lon="-4.06185">
        <ele>9.6</ele>
        <time>2022-06-10T12:24:24Z</time>
      </trkpt>
      <trkpt lat="48.68769" lon="-4.06185">
        <ele>9.6</ele>
        <time>2022-06-10T12:24:25Z</time>
      </trkpt>
      <trkpt lat="48.68769" lon="-4.06185">
        <ele>9.6</ele>
        <time>2022-06-10T12:24:26Z</time>
      </trkpt>
      <trkpt lat="48.68769" lon="-4.06185">
        <ele>9.6</ele>
        <time>2022-06-10T12:24:27Z</time>
      </trkpt>
      <trkpt lat="48.68769" lon="-4.06185">
        <ele>9.6</ele>
        <time>2022-06-10T12:24:28Z</time>
      </trkpt>
      <trkpt lat="48.68769" lon="-4.06185">
        <ele>9.6</ele>
        <time>2022-06-10T12:24:29Z</time>
      </trkpt>
      <trkpt lat="48.68769" lon="-4.06185">
        <ele>9.6</ele>
        <time>2022-06-10T12:24:30Z</time>
      </trkpt>
      <trkpt lat="48.68769" lon="-4.06185">
        <ele>9.6</ele>
        <time>2022-06-10T12:24:31Z</time>
      </trkpt>
      <trkpt lat="48.68769" lon="-4.06185">
        <ele>9.6</ele>
        <time>2022-06-10T12:24:32Z</time>
      </trkpt>
      <trkpt lat="48.68769" lon="-4.06185">
        <ele>9.6</ele>
        <time>2022-06-10T12:24:33Z</time>
      </trkpt>
      <trkpt lat="48.68769" lon="-4.06185">
        <ele>9.6</ele>
        <time>2022-06-10T12:24:34Z</time>
      </trkpt>
      <trkpt lat="48.68769" lon="-4.06185">
        <ele>9.6</ele>
        <time>2022-06-10T12:24:35Z</time>
      </trkpt>
      <trkpt lat="48.68769" lon="-4.06185">
        <ele>9.6</ele>
        <time>2022-06-10T12:24:36Z</time>
      </trkpt>
      <trkpt lat="48.68769" lon="-4.06185">
        <ele>9.6</ele>
        <time>2022-06-10T12:24:37Z</time>
      </trkpt>
      <trkpt lat="48.68769" lon="-4.06185">
        <ele>9.6</ele>
        <time>2022-06-10T12:24:38Z</time>
      </trkpt>
      <trkpt lat="48.68769" lon="-4.06185">
        <ele>9.6</ele>
        <time>2022-06-10T12:24:39Z</time>
      </trkpt>
      <trkpt lat="48.68769" lon="-4.06185">
        <ele>9.6</ele>
        <time>2022-06-10T12:24:40Z</time>
      </trkpt>
      <trkpt lat="48.68769" lon="-4.06185">
        <ele>9.6</ele>
        <time>2022-06-10T12:24:41Z</time>
      </trkpt>
      <trkpt lat="48.68769" lon="-4.06185">
        <ele>9.6</ele>
        <time>2022-06-10T12:24:42Z</time>
      </trkpt>
      <trkpt lat="48.68769" lon="-4.06185">
        <ele>9.6</ele>
        <time>2022-06-10T12:24:43Z</time>
      </trkpt>
      <trkpt lat="48.68769" lon="-4.06185">
        <ele>9.6</ele>
        <time>2022-06-10T12:24:44Z</time>
      </trkpt>
      <trkpt lat="48.68769" lon="-4.06185">
        <ele>9.6</ele>
        <time>2022-06-10T12:24:45Z</time>
      </trkpt>
      <trkpt lat="48.68769" lon="-4.06185">
        <ele>9.6</ele>
        <time>2022-06-10T12:24:46Z</time>
      </trkpt>
      <trkpt lat="48.68769" lon="-4.06185">
        <ele>9.6</ele>
        <time>2022-06-10T12:24:47Z</time>
      </trkpt>
      <trkpt lat="48.68769" lon="-4.06185">
        <ele>9.6</ele>
        <time>2022-06-10T12:24:48Z</time>
      </trkpt>
      <trkpt lat="48.68769" lon="-4.06185">
        <ele>9.6</ele>
        <time>2022-06-10T12:24:49Z</time>
      </trkpt>
      <trkpt lat="48.68769" lon="-4.06185">
        <ele>9.6</ele>
        <time>2022-06-10T12:24:50Z</time>
      </trkpt>
      <trkpt lat="48.68769" lon="-4.06185">
        <ele>9.6</ele>
        <time>2022-06-10T12:24:51Z</time>
      </trkpt>
      <trkpt lat="48.68769" lon="-4.06185">
        <ele>9.6</ele>
        <time>2022-06-10T12:24:52Z</time>
      </trkpt>
      <trkpt lat="48.68769" lon="-4.06185">
        <ele>9.6</ele>
        <time>2022-06-10T12:24:53Z</time>
      </trkpt>
      <trkpt lat="48.68769" lon="-4.06185">
        <ele>9.6</ele>
        <time>2022-06-10T12:24:54Z</time>
      </trkpt>
      <trkpt lat="48.68815" lon="-4.06893">
        <ele>8.3</ele>
        <time>2022-06-10T12:38:36Z</time>
      </trkpt>
      <trkpt lat="48.68816" lon="-4.0689">
        <ele>8.3</ele>
        <time>2022-06-10T12:38:37Z</time>
      </trkpt>
      <trkpt lat="48.68817" lon="-4.0689">
        <ele>8.3</ele>
        <time>2022-06-10T12:38:38Z</time>
      </trkpt>
      <trkpt lat="48.68818" lon="-4.06891">
        <ele>8.4</ele>
        <time>2022-06-10T12:38:39Z</time>
      </trkpt>
      <trkpt lat="48.68818" lon="-4.06892">
        <ele>8.4</ele>
        <time>2022-06-10T12:38:40Z</time>
      </trkpt>
      <trkpt lat="48.68818" lon="-4.06892">
        <ele>8.4</ele>
        <time>2022-06-10T12:38:41Z</time>
      </trkpt>
      <trkpt lat="48.68818" lon="-4.06892">
        <ele>8.4</ele>
        <time>2022-06-10T12:38:42Z</time>
      </trkpt>
      <trkpt lat="48.68818" lon="-4.06892">
        <ele>8.4</ele>
        <time>2022-06-10T12:38:43Z</time>
      </trkpt>
      <trkpt lat="48.68818" lon="-4.06892">
        <ele>8.4</ele>
        <time>2022-06-10T12:38:44Z</time>
      </trkpt>
      <trkpt lat="48.68818" lon="-4.06892">
        <ele>8.4</ele>
        <time>2022-06-10T12:38:45Z</time>
      </trkpt>
      <trkpt lat="48.68818" lon="-4.06892">
        <ele>8.4</ele>
        <time>2022-06-10T12:38:46Z</time>
      </trkpt>
      <trkpt lat="48.68818" lon="-4.06892">
        <ele>8.4</ele>
        <time>2022-06-10T12:38:47Z</time>
      </trkpt>
      <trkpt lat="48.68818" lon="-4.06892">
        <ele>8.4</ele>
        <time>2022-06-10T12:38:48Z</time>
      </trkpt>
      <trkpt lat="48.68818" lon="-4.06892">
        <ele>8.4</ele>
        <time>2022-06-10T12:38:49Z</time>
      </trkpt>
      <trkpt lat="48.68818" lon="-4.06892">
        <ele>8.4</ele>
        <time>2022-06-10T12:38:50Z</time>
      </trkpt>
      <trkpt lat="48.68818" lon="-4.06892">
        <ele>8.4</ele>
        <time>2022-06-10T12:38:51Z</time>
      </trkpt>
      <trkpt lat="48.68818" lon="-4.06892">
        <ele>8.4</ele>
        <time>2022-06-10T12:38:52Z</time>
      </trkpt>
      <trkpt lat="48.68818" lon="-4.06892">
        <ele>8.4</ele>
        <time>2022-06-10T12:38:53Z</time>
      </trkpt>
      <trkpt lat="48.68818" lon="-4.06892">
        <ele>8.4</ele>
        <time>2022-06-10T12:38:54Z</time>
      </trkpt>
      <trkpt lat="48.68818" lon="-4.06892">
        <ele>8.4</ele>
        <time>2022-06-10T12:38:55Z</time>
      </trkpt>
      <trkpt lat="48.68818" lon="-4.06892">
        <ele>8.4</ele>
        <time>2022-06-10T12:38:56Z</time>
      </trkpt>
      <trkpt lat="48.68818" lon="-4.06892">
        <ele>8.4</ele>
        <time>2022-06-10T12:38:57Z</time>
      </trkpt>
      <trkpt lat="48.68818" lon="-4.06892">
        <ele>8.4</ele>
        <time>2022-06-10T12:38:58Z</time>
      </trkpt>
      <trkpt lat="48.68818" lon="-4.06892">
        <ele>8.4</ele>
        <time>2022-06-10T12:38:59Z</time>
      </trkpt>
      <trkpt lat="48.68818" lon="-4.06892">
        <ele>8.4</ele>
        <time>2022-06-10T12:39:00Z</time>
      </trkpt>
      <trkpt lat="48.68818" lon="-4.06892">
        <ele>8.4</ele>
        <time>2022-06-10T12:39:01Z</time>
      </trkpt>
      <trkpt lat="48.68818" lon="-4.06892">
        <ele>8.4</ele>
        <time>2022-06-10T12:39:02Z</time>
      </trkpt>
      <trkpt lat="48.68818" lon="-4.06892">
        <ele>8.4</ele>
        <time>2022-06-10T12:39:03Z</time>
      </trkpt>
      <trkpt lat="48.68818" lon="-4.06892">
        <ele>8.4</ele>
        <time>2022-06-10T12:39:04Z</time>
      </trkpt>
      <trkpt lat="48.68818" lon="-4.06892">
        <ele>8.4</ele>
        <time>2022-06-10T12:39:05Z</time>
      </trkpt>
      <trkpt lat="48.68818" lon="-4.06892">
        <ele>8.4</ele>
        <time>2022-06-10T12:39:06Z</time>
      </trkpt>
      <trkpt lat="48.68818" lon="-4.06892">
        <ele>8.4</ele>
        <time>2022-06-10T12:39:07Z</time>
      </trkpt>
      <trkpt lat="48.68818" lon="-4.06892">
        <ele>8.4</ele>
        <time>2022-06-10T12:39:08Z</time>
      </trkpt>
      <trkpt lat="48.68818" lon="-4.06892">
        <ele>8.4</ele>
        <time>2022-06-10T12:39:09Z</time>
      </trkpt>
      <trkpt lat="48.68818" lon="-4.06892">
        <ele>8.4</ele>
        <time>2022-06-10T12:39:10Z</time>
      </trkpt>
      <trkpt lat="48.68818" lon="-4.06892">
        <ele>8.4</ele>
        <time>2022-06-10T12:39:11Z</time>
      </trkpt>
      <trkpt lat="48.68818" lon="-4.06892">
        <ele>8.4</ele>
        <time>2022-06-10T12:39:12Z</time>
      </trkpt>
      <trkpt lat="48.68818" lon="-4.06892">
        <ele>8.4</ele>
        <time>2022-06-10T12:39:13Z</time>
      </trkpt>
      <trkpt lat="48.68818" lon="-4.06892">
        <ele>8.4</ele>
        <time>2022-06-10T12:39:14Z</time>
      </trkpt>
      <trkpt lat="48.68818" lon="-4.06892">
        <ele>8.4</ele>
        <time>2022-06-10T12:39:15Z</time>
      </trkpt>
      <trkpt lat="48.68818" lon="-4.06892">
        <ele>8.4</ele>
        <time>2022-06-10T12:39:16Z</time>
      </trkpt>
      <trkpt lat="48.68818" lon="-4.06892">
        <ele>8.4</ele>
        <time>2022-06-10T12:39:17Z</time>
      </trkpt>
      <trkpt lat="48.68818" lon="-4.06892">
        <ele>8.4</ele>
        <time>2022-06-10T12:39:18Z</time>
      </trkpt>
      <trkpt lat="48.68818" lon="-4.06892">
        <ele>8.4</ele>
        <time>2022-06-10T12:39:19Z</time>
      </trkpt>
      <trkpt lat="48.68818" lon="-4.06892">
        <ele>8.4</ele>
        <time>2022-06-10T12:39:20Z</time>
      </trkpt>
      <trkpt lat="48.68818" lon="-4.06892">
        <ele>8.4</ele>
        <time>2022-06-10T12:39:21Z</time>
      </trkpt>
      <trkpt lat="48.68818" lon="-4.06892">
        <ele>8.4</ele>
        <time>2022-06-10T12:39:22Z</time>
      </trkpt>
      <trkpt lat="48.68818" lon="-4.06892">
        <ele>8.4</ele>
        <time>2022-06-10T12:39:23Z</time>
      </trkpt>
      <trkpt lat="48.68818" lon="-4.06892">
        <ele>8.4</ele>
        <time>2022-06-10T12:39:24Z</time>
      </trkpt>
      <trkpt lat="48.68818" lon="-4.06892">
        <ele>8.4</ele>
        <time>2022-06-10T12:39:25Z</time>
      </trkpt>
      <trkpt lat="48.68818" lon="-4.06892">
        <ele>8.4</ele>
        <time>2022-06-10T12:39:26Z</time>
      </trkpt>
      <trkpt lat="48.68818" lon="-4.06892">
        <ele>8.4</ele>
        <time>2022-06-10T12:39:27Z</time>
      </trkpt>
      <trkpt lat="48.68818" lon="-4.06892">
        <ele>8.4</ele>
        <time>2022-06-10T12:39:28Z</time>
      </trkpt>
      <trkpt lat="48.68818" lon="-4.06892">
        <ele>8.4</ele>
        <time>2022-06-10T12:39:29Z</time>
      </trkpt>
      <trkpt lat="48.68818" lon="-4.06892">
        <ele>8.4</ele>
        <time>2022-06-10T12:39:30Z</time>
      </trkpt>
      <trkpt lat="48.68818" lon="-4.06892">
        <ele>8.4</ele>
        <time>2022-06-10T12:39:31Z</time>
      </trkpt>
      <trkpt lat="48.68818" lon="-4.06892">
        <ele>8.4</ele>
        <time>2022-06-10T12:39:32Z</time>
      </trkpt>
      <trkpt lat="48.68818" lon="-4.06892">
        <ele>8.4</ele>
        <time>2022-06-10T12:39:33Z</time>
      </trkpt>
      <trkpt lat="48.68818" lon="-4.06892">
        <ele>8.4</ele>
        <time>2022-06-10T12:39:34Z</time>
      </trkpt>
      <trkpt lat="48.68818" lon="-4.06892">
        <ele>8.4</ele>
        <time>2022-06-10T12:39:35Z</time>
      </trkpt>
      <trkpt lat="48.68818" lon="-4.06892">
        <ele>8.4</ele>
        <time>2022-06-10T12:39:36Z</time>
      </trkpt>
      <trkpt lat="48.68818" lon="-4.06892">
        <ele>8.4</ele>
        <time>2022-06-10T12:39:37Z</time>
      </trkpt>
      <trkpt lat="48.68818" lon="-4.06892">
        <ele>8.4</ele>
        <time>2022-06-10T12:39:38Z</time>
      </trkpt>
      <trkpt lat="48.68818" lon="-4.06892">
        <ele>8.4</ele>
        <time>2022-06-10T12:39:39Z</time>
      </trkpt>
      <trkpt lat="48.68818" lon="-4.06892">
        <ele>8.4</ele>
        <time>2022-06-10T12:39:40Z</time>
      </trkpt>
      <trkpt lat="48.68818" lon="-4.06892">
        <ele>8.4</ele>
        <time>2022-06-10T12:39:41Z</time>
      </trkpt>
      <trkpt lat="48.68818" lon="-4.06892">
        <ele>8.4</ele>
        <time>2022-06-10T12:39:42Z</time>
      </trkpt>
      <trkpt lat="48.68818" lon="-4.06892">
        <ele>8.4</ele>
        <time>2022-06-10T12:39:43Z</time>
      </trkpt>
      <trkpt lat="48.68818" lon="-4.06892">
        <ele>8.4</ele>
        <time>2022-06-10T12:39:44Z</time>
      </trkpt>
      <trkpt lat="48.68818" lon="-4.06892">
        <ele>8.4</ele>
        <time>2022-06-10T12:39:45Z</time>
      </trkpt>
      <trkpt lat="48.68818" lon="-4.06892">
        <ele>8.4</ele>
        <time>2022-06-10T12:39:46Z</time>
      </trkpt>
      <trkpt lat="48.68818" lon="-4.06892">
        <ele>8.4</ele>
        <time>2022-06-10T12:39:47Z</time>
      </trkpt>
      <trkpt lat="48.68818" lon="-4.06892">
        <ele>8.4</ele>
        <time>2022-06-10T12:39:48Z</time>
      </trkpt>
      <trkpt lat="48.68818" lon="-4.06892">
        <ele>8.4</ele>
        <time>2022-06-10T12:39:49Z</time>
      </trkpt>
      <trkpt lat="48.68818" lon="-4.06892">
        <ele>8.4</ele>
        <time>2022-06-10T12:39:50Z</time>
      </trkpt>
      <trkpt lat="48.68818" lon="-4.06892">
        <ele>8.4</ele>
        <time>2022-06-10T12:39:51Z</time>
      </trkpt>
      <trkpt lat="48.68818" lon="-4.06892">
        <ele>8.4</ele>
        <time>2022-06-10T12:39:52Z</time>
      </trkpt>
      <trkpt lat="48.68818" lon="-4.06892">
        <ele>8.4</ele>
        <time>2022-06-10T12:39:53Z</time>
      </trkpt>
      <trkpt lat="48.68818" lon="-4.06892">
        <ele>8.4</ele>
        <time>2022-06-10T12:39:54Z</time>
      </trkpt>
      <trkpt lat="48.68818" lon="-4.06892">
        <ele>8.4</ele>
        <time>2022-06-10T12:39:55Z</time>
      </trkpt>
      <trkpt lat="48.68818" lon="-4.06892">
        <ele>8.4</ele>
        <time>2022-06-10T12:39:56Z</time>
      </trkpt>
      <trkpt lat="48.68818" lon="-4.06892">
        <ele>8.4</ele>
        <time>2022-06-10T12:39:57Z</time>
      </trkpt>
      <trkpt lat="48.68818" lon="-4.06892">
        <ele>8.4</ele>
        <time>2022-06-10T12:39:58Z</time>
      </trkpt>
      <trkpt lat="48.68818" lon="-4.06892">
        <ele>8.4</ele>
        <time>2022-06-10T12:39:59Z</time>
      </trkpt>
      <trkpt lat="48.68818" lon="-4.06892">
        <ele>8.4</ele>
        <time>2022-06-10T12:40:00Z</time>
      </trkpt>
      <trkpt lat="48.68818" lon="-4.06892">
        <ele>8.4</ele>
        <time>2022-06-10T12:40:01Z</time>
      </trkpt>
      <trkpt lat="48.68818" lon="-4.06892">
        <ele>8.4</ele>
        <time>2022-06-10T12:40:02Z</time>
      </trkpt>
      <trkpt lat="48.68818" lon="-4.06892">
        <ele>8.4</ele>
        <time>2022-06-10T12:40:03Z</time>
      </trkpt>
      <trkpt lat="48.68818" lon="-4.06892">
        <ele>8.4</ele>
        <time>2022-06-10T12:40:04Z</time>
      </trkpt>
      <trkpt lat="48.68818" lon="-4.06892">
        <ele>8.4</ele>
        <time>2022-06-10T12:40:05Z</time>
      </trkpt>
      <trkpt lat="48.68818" lon="-4.06892">
        <ele>8.4</ele>
        <time>2022-06-10T12:40:06Z</time>
      </trkpt>
      <trkpt lat="48.68818" lon="-4.06892">
        <ele>8.4</ele>
        <time>2022-06-10T12:40:07Z</time>
      </trkpt>
      <trkpt lat="48.68818" lon="-4.06892">
        <ele>8.4</ele>
        <time>2022-06-10T12:40:08Z</time>
      </trkpt>
      <trkpt lat="48.68819" lon="-4.06892">
        <ele>8.4</ele>
        <time>2022-06-10T12:40:09Z</time>
      </trkpt>
      <trkpt lat="48.68819" lon="-4.06891">
        <ele>8.4</ele>
        <time>2022-06-10T12:40:10Z</time>
      </trkpt>
      <trkpt lat="48.68819" lon="-4.06891">
        <ele>8.4</ele>
        <time>2022-06-10T12:40:11Z</time>
      </trkpt>
      <trkpt lat="48.68819" lon="-4.06891">
        <ele>8.4</ele>
        <time>2022-06-10T12:40:12Z</time>
      </trkpt>
      <trkpt lat="48.68819" lon="-4.06891">
        <ele>8.4</ele>
        <time>2022-06-10T12:40:13Z</time>
      </trkpt>
      <trkpt lat="48.68819" lon="-4.06891">
        <ele>8.4</ele>
        <time>2022-06-10T12:40:14Z</time>
      </trkpt>
      <trkpt lat="48.68819" lon="-4.06891">
        <ele>8.4</ele>
        <time>2022-06-10T12:40:15Z</time>
      </trkpt>
      <trkpt lat="48.68819" lon="-4.06891">
        <ele>8.4</ele>
        <time>2022-06-10T12:40:16Z</time>
      </trkpt>
      <trkpt lat="48.68819" lon="-4.06891">
        <ele>8.4</ele>
        <time>2022-06-10T12:40:17Z</time>
      </trkpt>
      <trkpt lat="48.68819" lon="-4.06891">
        <ele>8.4</ele>
        <time>2022-06-10T12:40:18Z</time>
      </trkpt>
      <trkpt lat="48.68819" lon="-4.06891">
        <ele>8.4</ele>
        <time>2022-06-10T12:40:19Z</time>
      </trkpt>
      <trkpt lat="48.68819" lon="-4.06891">
        <ele>8.4</ele>
        <time>2022-06-10T12:40:20Z</time>
      </trkpt>
      <trkpt lat="48.68819" lon="-4.06891">
        <ele>8.4</ele>
        <time>2022-06-10T12:40:21Z</time>
      </trkpt>
      <trkpt lat="48.68819" lon="-4.06891">
        <ele>8.4</ele>
        <time>2022-06-10T12:40:22Z</time>
      </trkpt>
      <trkpt lat="48.68819" lon="-4.06891">
        <ele>8.4</ele>
        <time>2022-06-10T12:40:23Z</time>
      </trkpt>
      <trkpt lat="48.68819" lon="-4.06891">
        <ele>8.4</ele>
        <time>2022-06-10T12:40:24Z</time>
      </trkpt>
      <trkpt lat="48.68819" lon="-4.06891">
        <ele>8.4</ele>
        <time>2022-06-10T12:40:25Z</time>
      </trkpt>
      <trkpt lat="48.68819" lon="-4.06891">
        <ele>8.4</ele>
        <time>2022-06-10T12:40:26Z</time>
      </trkpt>
      <trkpt lat="48.68819" lon="-4.06891">
        <ele>8.4</ele>
        <time>2022-06-10T12:40:27Z</time>
      </trkpt>
      <trkpt lat="48.68819" lon="-4.06891">
        <ele>8.4</ele>
        <time>2022-06-10T12:40:28Z</time>
      </trkpt>
      <trkpt lat="48.68819" lon="-4.06891">
        <ele>8.4</ele>
        <time>2022-06-10T12:40:29Z</time>
      </trkpt>
      <trkpt lat="48.68819" lon="-4.06891">
        <ele>8.4</ele>
        <time>2022-06-10T12:40:30Z</time>
      </trkpt>
      <trkpt lat="48.68819" lon="-4.06891">
        <ele>8.4</ele>
        <time>2022-06-10T12:40:31Z</time>
      </trkpt>
      <trkpt lat="48.68819" lon="-4.06891">
        <ele>8.4</ele>
        <time>2022-06-10T12:40:32Z</time>
      </trkpt>
      <trkpt lat="48.68819" lon="-4.06891">
        <ele>8.4</ele>
        <time>2022-06-10T12:40:33Z</time>
      </trkpt>
      <trkpt lat="48.68819" lon="-4.06891">
        <ele>8.4</ele>
        <time>2022-06-10T12:40:34Z</time>
      </trkpt>
      <trkpt lat="48.68819" lon="-4.06891">
        <ele>8.4</ele>
        <time>2022-06-10T12:40:35Z</time>
      </trkpt>
      <trkpt lat="48.68819" lon="-4.06891">
        <ele>8.4</ele>
        <time>2022-06-10T12:40:36Z</time>
      </trkpt>
      <trkpt lat="48.68819" lon="-4.06891">
        <ele>8.4</ele>
        <time>2022-06-10T12:40:37Z</time>
      </trkpt>
      <trkpt lat="48.68819" lon="-4.06891">
        <ele>8.4</ele>
        <time>2022-06-10T12:40:38Z</time>
      </trkpt>
      <trkpt lat="48.68819" lon="-4.06891">
        <ele>8.4</ele>
        <time>2022-06-10T12:40:39Z</time>
      </trkpt>
      <trkpt lat="48.68819" lon="-4.06891">
        <ele>8.4</ele>
        <time>2022-06-10T12:40:40Z</time>
      </trkpt>
      <trkpt lat="48.68819" lon="-4.06891">
        <ele>8.4</ele>
        <time>2022-06-10T12:40:41Z</time>
      </trkpt>
      <trkpt lat="48.68819" lon="-4.06891">
        <ele>8.4</ele>
        <time>2022-06-10T12:40:42Z</time>
      </trkpt>
      <trkpt lat="48.68819" lon="-4.06891">
        <ele>8.4</ele>
        <time>2022-06-10T12:40:43Z</time>
      </trkpt>
      <trkpt lat="48.68819" lon="-4.06891">
        <ele>8.4</ele>
        <time>2022-06-10T12:40:44Z</time>
      </trkpt>
      <trkpt lat="48.68819" lon="-4.06891">
        <ele>8.4</ele>
        <time>2022-06-10T12:40:45Z</time>
      </trkpt>
      <trkpt lat="48.68819" lon="-4.06891">
        <ele>8.4</ele>
        <time>2022-06-10T12:40:46Z</time>
      </trkpt>
      <trkpt lat="48.68819" lon="-4.06891">
        <ele>8.4</ele>
        <time>2022-06-10T12:40:47Z</time>
      </trkpt>
      <trkpt lat="48.68819" lon="-4.06891">
        <ele>8.4</ele>
        <time>2022-06-10T12:40:48Z</time>
      </trkpt>
      <trkpt lat="48.68819" lon="-4.06891">
        <ele>8.4</ele>
        <time>2022-06-10T12:40:49Z</time>
      </trkpt>
      <trkpt lat="48.68819" lon="-4.06891">
        <ele>8.4</ele>
        <time>2022-06-10T12:40:50Z</time>
      </trkpt>
      <trkpt lat="48.68819" lon="-4.06891">
        <ele>8.4</ele>
        <time>2022-06-10T12:40:51Z</time>
      </trkpt>
      <trkpt lat="48.68819" lon="-4.06891">
        <ele>8.4</ele>
        <time>2022-06-10T12:40:52Z</time>
      </trkpt>
      <trkpt lat="48.68819" lon="-4.06891">
        <ele>8.4</ele>
        <time>2022-06-10T12:40:53Z</time>
      </trkpt>
      <trkpt lat="48.68819" lon="-4.06891">
        <ele>8.4</ele>
        <time>2022-06-10T12:40:54Z</time>
      </trkpt>
      <trkpt lat="48.68819" lon="-4.06891">
        <ele>8.4</ele>
        <time>2022-06-10T12:40:55Z</time>
      </trkpt>
      <trkpt lat="48.68819" lon="-4.06891">
        <ele>8.4</ele>
        <time>2022-06-10T12:40:56Z</time>
      </trkpt>
      <trkpt lat="48.68819" lon="-4.06891">
        <ele>8.4</ele>
        <time>2022-06-10T12:40:57Z</time>
      </trkpt>
      <trkpt lat="48.68819" lon="-4.06891">
        <ele>8.4</ele>
        <time>2022-06-10T12:40:58Z</time>
      </trkpt>
      <trkpt lat="48.68819" lon="-4.06891">
        <ele>8.4</ele>
        <time>2022-06-10T12:40:59Z</time>
      </trkpt>
      <trkpt lat="48.68819" lon="-4.06891">
        <ele>8.4</ele>
        <time>2022-06-10T12:41:00Z</time>
      </trkpt>
      <trkpt lat="48.68819" lon="-4.06891">
        <ele>8.4</ele>
        <time>2022-06-10T12:41:01Z</time>
      </trkpt>
      <trkpt lat="48.68819" lon="-4.06891">
        <ele>8.4</ele>
        <time>2022-06-10T12:41:02Z</time>
      </trkpt>
      <trkpt lat="48.68819" lon="-4.06891">
        <ele>8.4</ele>
        <time>2022-06-10T12:41:03Z</time>
      </trkpt>
      <trkpt lat="48.68819" lon="-4.06891">
        <ele>8.4</ele>
        <time>2022-06-10T12:41:04Z</time>
      </trkpt>
      <trkpt lat="48.68819" lon="-4.06891">
        <ele>8.4</ele>
        <time>2022-06-10T12:41:05Z</time>
      </trkpt>
      <trkpt lat="48.68819" lon="-4.06891">
        <ele>8.4</ele>
        <time>2022-06-10T12:41:06Z</time>
      </trkpt>
      <trkpt lat="48.68819" lon="-4.06891">
        <ele>8.4</ele>
        <time>2022-06-10T12:41:07Z</time>
      </trkpt>
      <trkpt lat="48.68819" lon="-4.06891">
        <ele>8.4</ele>
        <time>2022-06-10T12:41:08Z</time>
      </trkpt>
      <trkpt lat="48.68819" lon="-4.06891">
        <ele>8.4</ele>
        <time>2022-06-10T12:41:09Z</time>
      </trkpt>
      <trkpt lat="48.68819" lon="-4.06891">
        <ele>8.4</ele>
        <time>2022-06-10T12:41:10Z</time>
      </trkpt>
      <trkpt lat="48.68819" lon="-4.06891">
        <ele>8.4</ele>
        <time>2022-06-10T12:41:11Z</time>
      </trkpt>
      <trkpt lat="48.68819" lon="-4.06891">
        <ele>8.4</ele>
        <time>2022-06-10T12:41:12Z</time>
      </trkpt>
      <trkpt lat="48.68819" lon="-4.06891">
        <ele>8.4</ele>
        <time>2022-06-10T12:41:13Z</time>
      </trkpt>
      <trkpt lat="48.68819" lon="-4.06891">
        <ele>8.4</ele>
        <time>2022-06-10T12:41:14Z</time>
      </trkpt>
      <trkpt lat="48.68819" lon="-4.06891">
        <ele>8.4</ele>
        <time>2022-06-10T12:41:15Z</time>
      </trkpt>
      <trkpt lat="48.68819" lon="-4.06891">
        <ele>8.4</ele>
        <time>2022-06-10T12:41:16Z</time>
      </trkpt>
      <trkpt lat="48.68819" lon="-4.06891">
        <ele>8.4</ele>
        <time>2022-06-10T12:41:17Z</time>
      </trkpt>
      <trkpt lat="48.68819" lon="-4.06891">
        <ele>8.4</ele>
        <time>2022-06-10T12:41:18Z</time>
      </trkpt>
      <trkpt lat="48.68819" lon="-4.06891">
        <ele>8.4</ele>
        <time>2022-06-10T12:41:19Z</time>
      </trkpt>
      <trkpt lat="48.68819" lon="-4.06891">
        <ele>8.4</ele>
        <time>2022-06-10T12:41:20Z</time>
      </trkpt>
      <trkpt lat="48.68819" lon="-4.06891">
        <ele>8.4</ele>
        <time>2022-06-10T12:41:21Z</time>
      </trkpt>
      <trkpt lat="48.68819" lon="-4.06891">
        <ele>8.4</ele>
        <time>2022-06-10T12:41:22Z</time>
      </trkpt>
      <trkpt lat="48.68819" lon="-4.06891">
        <ele>8.4</ele>
        <time>2022-06-10T12:41:23Z</time>
      </trkpt>
      <trkpt lat="48.68819" lon="-4.06891">
        <ele>8.4</ele>
        <time>2022-06-10T12:41:24Z</time>
      </trkpt>
      <trkpt lat="48.68819" lon="-4.06891">
        <ele>8.4</ele>
        <time>2022-06-10T12:41:25Z</time>
      </trkpt>
      <trkpt lat="48.68819" lon="-4.06891">
        <ele>8.4</ele>
        <time>2022-06-10T12:41:26Z</time>
      </trkpt>
      <trkpt lat="48.68819" lon="-4.06891">
        <ele>8.4</ele>
        <time>2022-06-10T12:41:27Z</time>
      </trkpt>
      <trkpt lat="48.68819" lon="-4.06891">
        <ele>8.4</ele>
        <time>2022-06-10T12:41:28Z</time>
      </trkpt>
      <trkpt lat="48.68819" lon="-4.06891">
        <ele>8.4</ele>
        <time>2022-06-10T12:41:29Z</time>
      </trkpt>
      <trkpt lat="48.68819" lon="-4.06891">
        <ele>8.4</ele>
        <time>2022-06-10T12:41:30Z</time>
      </trkpt>
      <trkpt lat="48.68819" lon="-4.06891">
        <ele>8.4</ele>
        <time>2022-06-10T12:41:31Z</time>
      </trkpt>
      <trkpt lat="48.68819" lon="-4.06891">
        <ele>8.4</ele>
        <time>2022-06-10T12:41:32Z</time>
      </trkpt>
      <trkpt lat="48.68819" lon="-4.06891">
        <ele>8.4</ele>
        <time>2022-06-10T12:41:33Z</time>
      </trkpt>
      <trkpt lat="48.68819" lon="-4.06891">
        <ele>8.4</ele>
        <time>2022-06-10T12:41:34Z</time>
      </trkpt>
      <trkpt lat="48.68819" lon="-4.06891">
        <ele>8.4</ele>
        <time>2022-06-10T12:41:35Z</time>
      </trkpt>
      <trkpt lat="48.68819" lon="-4.06891">
        <ele>8.4</ele>
        <time>2022-06-10T12:41:36Z</time>
      </trkpt>
      <trkpt lat="48.68726" lon="-4.06973">
        <ele>9.6</ele>
        <time>2022-06-10T12:48:45Z</time>
      </trkpt>
      <trkpt lat="48.68725" lon="-4.06969">
        <ele>9.7</ele>
        <time>2022-06-10T12:48:46Z</time>
      </trkpt>
      <trkpt lat="48.68725" lon="-4.06968">
        <ele>9.8</ele>
        <time>2022-06-10T12:48:47Z</time>
      </trkpt>
      <trkpt lat="48.68724" lon="-4.06966">
        <ele>9.8</ele>
        <time>2022-06-10T12:48:48Z</time>
      </trkpt>
      <trkpt lat="48.68724" lon="-4.06966">
        <ele>9.8</ele>
        <time>2022-06-10T12:48:49Z</time>
      </trkpt>
      <trkpt lat="48.68724" lon="-4.06966">
        <ele>9.8</ele>
        <time>2022-06-10T12:48:50Z</time>
      </trkpt>
      <trkpt lat="48.68724" lon="-4.06966">
        <ele>9.8</ele>
        <time>2022-06-10T12:48:51Z</time>
      </trkpt>
      <trkpt lat="48.68724" lon="-4.06966">
        <ele>9.8</ele>
        <time>2022-06-10T12:48:52Z</time>
      </trkpt>
      <trkpt lat="48.68724" lon="-4.06966">
        <ele>9.8</ele>
        <time>2022-06-10T12:48:53Z</time>
      </trkpt>
      <trkpt lat="48.68724" lon="-4.06966">
        <ele>9.8</ele>
        <time>2022-06-10T12:48:54Z</time>
      </trkpt>
      <trkpt lat="48.68724" lon="-4.06966">
        <ele>9.8</ele>
        <time>2022-06-10T12:48:55Z</time>
      </trkpt>
      <trkpt lat="48.68724" lon="-4.06966">
        <ele>9.8</ele>
        <time>2022-06-10T12:48:56Z</time>
      </trkpt>
      <trkpt lat="48.68724" lon="-4.06966">
        <ele>9.8</ele>
        <time>2022-06-10T12:48:57Z</time>
      </trkpt>
      <trkpt lat="48.68724" lon="-4.06966">
        <ele>9.8</ele>
        <time>2022-06-10T12:48:58Z</time>
      </trkpt>
      <trkpt lat="48.68724" lon="-4.06966">
        <ele>9.8</ele>
        <time>2022-06-10T12:48:59Z</time>
      </trkpt>
      <trkpt lat="48.68724" lon="-4.06966">
        <ele>9.8</ele>
        <time>2022-06-10T12:49:00Z</time>
      </trkpt>
      <trkpt lat="48.68724" lon="-4.06966">
        <ele>9.8</ele>
        <time>2022-06-10T12:49:01Z</time>
      </trkpt>
      <trkpt lat="48.68724" lon="-4.06966">
        <ele>9.8</ele>
        <time>2022-06-10T12:49:02Z</time>
      </trkpt>
      <trkpt lat="48.68724" lon="-4.06966">
        <ele>9.8</ele>
        <time>2022-06-10T12:49:03Z</time>
      </trkpt>
      <trkpt lat="48.68724" lon="-4.06966">
        <ele>9.8</ele>
        <time>2022-06-10T12:49:04Z</time>
      </trkpt>
      <trkpt lat="48.68724" lon="-4.06966">
        <ele>9.8</ele>
        <time>2022-06-10T12:49:05Z</time>
      </trkpt>
      <trkpt lat="48.68724" lon="-4.06966">
        <ele>9.8</ele>
        <time>2022-06-10T12:49:06Z</time>
      </trkpt>
      <trkpt lat="48.68724" lon="-4.06966">
        <ele>9.8</ele>
        <time>2022-06-10T12:49:07Z</time>
      </trkpt>
      <trkpt lat="48.68724" lon="-4.06966">
        <ele>9.8</ele>
        <time>2022-06-10T12:49:08Z</time>
      </trkpt>
      <trkpt lat="48.68724" lon="-4.06966">
        <ele>9.8</ele>
        <time>2022-06-10T12:49:09Z</time>
      </trkpt>
      <trkpt lat="48.68724" lon="-4.06966">
        <ele>9.8</ele>
        <time>2022-06-10T12:49:10Z</time>
      </trkpt>
      <trkpt lat="48.68724" lon="-4.06966">
        <ele>9.8</ele>
        <time>2022-06-10T12:49:11Z</time>
      </trkpt>
      <trkpt lat="48.68724" lon="-4.06966">
        <ele>9.8</ele>
        <time>2022-06-10T12:49:12Z</time>
      </trkpt>
      <trkpt lat="48.68724" lon="-4.06966">
        <ele>9.8</ele>
        <time>2022-06-10T12:49:13Z</time>
      </trkpt>
      <trkpt lat="48.68724" lon="-4.06966">
        <ele>9.8</ele>
        <time>2022-06-10T12:49:14Z</time>
      </trkpt>
      <trkpt lat="48.68723" lon="-4.06965">
        <ele>9.9</ele>
        <time>2022-06-10T12:49:15Z</time>
      </trkpt>
      <trkpt lat="48.68723" lon="-4.06964">
        <ele>9.9</ele>
        <time>2022-06-10T12:49:16Z</time>
      </trkpt>
      <trkpt lat="48.68723" lon="-4.06964">
        <ele>9.9</ele>
        <time>2022-06-10T12:49:17Z</time>
      </trkpt>
      <trkpt lat="48.68723" lon="-4.06963">
        <ele>9.9</ele>
        <time>2022-06-10T12:49:18Z</time>
      </trkpt>
      <trkpt lat="48.68723" lon="-4.06963">
        <ele>9.9</ele>
        <time>2022-06-10T12:49:19Z</time>
      </trkpt>
      <trkpt lat="48.68723" lon="-4.06963">
        <ele>9.9</ele>
        <time>2022-06-10T12:49:20Z</time>
      </trkpt>
      <trkpt lat="48.68723" lon="-4.06963">
        <ele>9.9</ele>
        <time>2022-06-10T12:49:21Z</time>
      </trkpt>
      <trkpt lat="48.68723" lon="-4.06963">
        <ele>9.9</ele>
        <time>2022-06-10T12:49:22Z</time>
      </trkpt>
      <trkpt lat="48.68723" lon="-4.06963">
        <ele>9.9</ele>
        <time>2022-06-10T12:49:23Z</time>
      </trkpt>
      <trkpt lat="48.68723" lon="-4.06963">
        <ele>9.9</ele>
        <time>2022-06-10T12:49:24Z</time>
      </trkpt>
      <trkpt lat="48.68723" lon="-4.06963">
        <ele>9.9</ele>
        <time>2022-06-10T12:49:25Z</time>
      </trkpt>
      <trkpt lat="48.68723" lon="-4.06963">
        <ele>9.9</ele>
        <time>2022-06-10T12:49:26Z</time>
      </trkpt>
      <trkpt lat="48.68723" lon="-4.06963">
        <ele>9.9</ele>
        <time>2022-06-10T12:49:27Z</time>
      </trkpt>
      <trkpt lat="48.68723" lon="-4.06963">
        <ele>9.9</ele>
        <time>2022-06-10T12:49:28Z</time>
      </trkpt>
      <trkpt lat="48.68723" lon="-4.06963">
        <ele>9.9</ele>
        <time>2022-06-10T12:49:29Z</time>
      </trkpt>
      <trkpt lat="48.68723" lon="-4.06963">
        <ele>9.9</ele>
        <time>2022-06-10T12:49:30Z</time>
      </trkpt>
      <trkpt lat="48.68723" lon="-4.06963">
        <ele>9.9</ele>
        <time>2022-06-10T12:49:31Z</time>
      </trkpt>
      <trkpt lat="48.68723" lon="-4.06963">
        <ele>9.9</ele>
        <time>2022-06-10T12:49:32Z</time>
      </trkpt>
      <trkpt lat="48.68723" lon="-4.06963">
        <ele>9.9</ele>
        <time>2022-06-10T12:49:33Z</time>
      </trkpt>
      <trkpt lat="48.68723" lon="-4.06963">
        <ele>9.9</ele>
        <time>2022-06-10T12:49:34Z</time>
      </trkpt>
      <trkpt lat="48.68723" lon="-4.06963">
        <ele>9.9</ele>
        <time>2022-06-10T12:49:35Z</time>
      </trkpt>
      <trkpt lat="48.68723" lon="-4.06963">
        <ele>9.9</ele>
        <time>2022-06-10T12:49:36Z</time>
      </trkpt>
      <trkpt lat="48.68723" lon="-4.06964">
        <ele>9.9</ele>
        <time>2022-06-10T12:49:37Z</time>
      </trkpt>
      <trkpt lat="48.68724" lon="-4.06964">
        <ele>9.9</ele>
        <time>2022-06-10T12:49:38Z</time>
      </trkpt>
      <trkpt lat="48.68724" lon="-4.06964">
        <ele>9.9</ele>
        <time>2022-06-10T12:49:39Z</time>
      </trkpt>
      <trkpt lat="48.68724" lon="-4.06964">
        <ele>10</ele>
        <time>2022-06-10T12:49:40Z</time>
      </trkpt>
      <trkpt lat="48.68724" lon="-4.06964">
        <ele>10</ele>
        <time>2022-06-10T12:49:41Z</time>
      </trkpt>
      <trkpt lat="48.68724" lon="-4.06964">
        <ele>10</ele>
        <time>2022-06-10T12:49:42Z</time>
      </trkpt>
      <trkpt lat="48.68724" lon="-4.06964">
        <ele>10</ele>
        <time>2022-06-10T12:49:44Z</time>
      </trkpt>
      <trkpt lat="48.68724" lon="-4.06964">
        <ele>10</ele>
        <time>2022-06-10T12:49:45Z</time>
      </trkpt>
      <trkpt lat="48.68724" lon="-4.06964">
        <ele>10</ele>
        <time>2022-06-10T12:49:46Z</time>
      </trkpt>
      <trkpt lat="48.68724" lon="-4.06964">
        <ele>10</ele>
        <time>2022-06-10T12:49:47Z</time>
      </trkpt>
      <trkpt lat="48.68724" lon="-4.06964">
        <ele>10</ele>
        <time>2022-06-10T12:49:48Z</time>
      </trkpt>
      <trkpt lat="48.68724" lon="-4.06964">
        <ele>10</ele>
        <time>2022-06-10T12:49:49Z</time>
      </trkpt>
      <trkpt lat="48.68724" lon="-4.06964">
        <ele>10</ele>
        <time>2022-06-10T12:49:50Z</time>
      </trkpt>
      <trkpt lat="48.68724" lon="-4.06964">
        <ele>10</ele>
        <time>2022-06-10T12:49:51Z</time>
      </trkpt>
      <trkpt lat="48.68724" lon="-4.06964">
        <ele>10</ele>
        <time>2022-06-10T12:49:52Z</time>
      </trkpt>
      <trkpt lat="48.68724" lon="-4.06964">
        <ele>10</ele>
        <time>2022-06-10T12:49:53Z</time>
      </trkpt>
      <trkpt lat="48.68724" lon="-4.06964">
        <ele>10</ele>
        <time>2022-06-10T12:49:54Z</time>
      </trkpt>
      <trkpt lat="48.68724" lon="-4.06964">
        <ele>10</ele>
        <time>2022-06-10T12:49:55Z</time>
      </trkpt>
      <trkpt lat="48.68724" lon="-4.06964">
        <ele>10</ele>
        <time>2022-06-10T12:49:56Z</time>
      </trkpt>
      <trkpt lat="48.68724" lon="-4.06964">
        <ele>10</ele>
        <time>2022-06-10T12:49:57Z</time>
      </trkpt>
      <trkpt lat="48.68724" lon="-4.06964">
        <ele>10</ele>
        <time>2022-06-10T12:49:58Z</time>
      </trkpt>
      <trkpt lat="48.68724" lon="-4.06964">
        <ele>10</ele>
        <time>2022-06-10T12:49:59Z</time>
      </trkpt>
      <trkpt lat="48.68724" lon="-4.06964">
        <ele>10</ele>
        <time>2022-06-10T12:50:00Z</time>
      </trkpt>
      <trkpt lat="48.68724" lon="-4.06964">
        <ele>10</ele>
        <time>2022-06-10T12:50:01Z</time>
      </trkpt>
      <trkpt lat="48.68724" lon="-4.06964">
        <ele>10</ele>
        <time>2022-06-10T12:50:02Z</time>
      </trkpt>
      <trkpt lat="48.68724" lon="-4.06964">
        <ele>10</ele>
        <time>2022-06-10T12:50:03Z</time>
      </trkpt>
      <trkpt lat="48.68724" lon="-4.06964">
        <ele>10</ele>
        <time>2022-06-10T12:50:04Z</time>
      </trkpt>
      <trkpt lat="48.68724" lon="-4.06964">
        <ele>10</ele>
        <time>2022-06-10T12:50:05Z</time>
      </trkpt>
      <trkpt lat="48.68724" lon="-4.06964">
        <ele>10</ele>
        <time>2022-06-10T12:50:06Z</time>
      </trkpt>
      <trkpt lat="48.68724" lon="-4.06964">
        <ele>10</ele>
        <time>2022-06-10T12:50:08Z</time>
      </trkpt>
      <trkpt lat="48.68724" lon="-4.06964">
        <ele>10</ele>
        <time>2022-06-10T12:50:09Z</time>
      </trkpt>
      <trkpt lat="48.68724" lon="-4.06964">
        <ele>10</ele>
        <time>2022-06-10T12:50:10Z</time>
      </trkpt>
      <trkpt lat="48.68724" lon="-4.06964">
        <ele>10</ele>
        <time>2022-06-10T12:50:11Z</time>
      </trkpt>
      <trkpt lat="48.68724" lon="-4.06964">
        <ele>10</ele>
        <time>2022-06-10T12:50:12Z</time>
      </trkpt>
      <trkpt lat="48.68724" lon="-4.06964">
        <ele>10</ele>
        <time>2022-06-10T12:50:13Z</time>
      </trkpt>
      <trkpt lat="48.68724" lon="-4.06964">
        <ele>10</ele>
        <time>2022-06-10T12:50:14Z</time>
      </trkpt>
      <trkpt lat="48.68724" lon="-4.06964">
        <ele>10</ele>
        <time>2022-06-10T12:50:15Z</time>
      </trkpt>
      <trkpt lat="48.68723" lon="-4.06963">
        <ele>10</ele>
        <time>2022-06-10T12:50:16Z</time>
      </trkpt>
      <trkpt lat="48.68723" lon="-4.06963">
        <ele>10</ele>
        <time>2022-06-10T12:50:17Z</time>
      </trkpt>
      <trkpt lat="48.68722" lon="-4.06963">
        <ele>10</ele>
        <time>2022-06-10T12:50:18Z</time>
      </trkpt>
      <trkpt lat="48.68722" lon="-4.06963">
        <ele>10</ele>
        <time>2022-06-10T12:50:19Z</time>
      </trkpt>
      <trkpt lat="48.68722" lon="-4.06963">
        <ele>10</ele>
        <time>2022-06-10T12:50:20Z</time>
      </trkpt>
      <trkpt lat="48.68722" lon="-4.06964">
        <ele>10</ele>
        <time>2022-06-10T12:50:21Z</time>
      </trkpt>
      <trkpt lat="48.68722" lon="-4.06964">
        <ele>10</ele>
        <time>2022-06-10T12:50:23Z</time>
      </trkpt>
      <trkpt lat="48.68722" lon="-4.06964">
        <ele>10</ele>
        <time>2022-06-10T12:50:24Z</time>
      </trkpt>
      <trkpt lat="48.68722" lon="-4.06964">
        <ele>10</ele>
        <time>2022-06-10T12:50:25Z</time>
      </trkpt>
      <trkpt lat="48.68722" lon="-4.06964">
        <ele>10</ele>
        <time>2022-06-10T12:50:26Z</time>
      </trkpt>
      <trkpt lat="48.68722" lon="-4.06964">
        <ele>10</ele>
        <time>2022-06-10T12:50:27Z</time>
      </trkpt>
      <trkpt lat="48.68722" lon="-4.06964">
        <ele>10</ele>
        <time>2022-06-10T12:50:28Z</time>
      </trkpt>
      <trkpt lat="48.68722" lon="-4.06964">
        <ele>10</ele>
        <time>2022-06-10T12:50:29Z</time>
      </trkpt>
      <trkpt lat="48.68722" lon="-4.06964">
        <ele>10</ele>
        <time>2022-06-10T12:50:30Z</time>
      </trkpt>
      <trkpt lat="48.68722" lon="-4.06964">
        <ele>10</ele>
        <time>2022-06-10T12:50:31Z</time>
      </trkpt>
      <trkpt lat="48.68722" lon="-4.06964">
        <ele>10</ele>
        <time>2022-06-10T12:50:32Z</time>
      </trkpt>
      <trkpt lat="48.68722" lon="-4.06964">
        <ele>10</ele>
        <time>2022-06-10T12:50:33Z</time>
      </trkpt>
      <trkpt lat="48.68722" lon="-4.06964">
        <ele>10</ele>
        <time>2022-06-10T12:50:34Z</time>
      </trkpt>
      <trkpt lat="48.68722" lon="-4.06964">
        <ele>10</ele>
        <time>2022-06-10T12:50:35Z</time>
      </trkpt>
      <trkpt lat="48.68722" lon="-4.06964">
        <ele>10</ele>
        <time>2022-06-10T12:50:36Z</time>
      </trkpt>
      <trkpt lat="48.68722" lon="-4.06964">
        <ele>10</ele>
        <time>2022-06-10T12:50:37Z</time>
      </trkpt>
      <trkpt lat="48.68722" lon="-4.06964">
        <ele>10</ele>
        <time>2022-06-10T12:50:38Z</time>
      </trkpt>
      <trkpt lat="48.68722" lon="-4.06964">
        <ele>10</ele>
        <time>2022-06-10T12:50:39Z</time>
      </trkpt>
      <trkpt lat="48.68722" lon="-4.06964">
        <ele>10</ele>
        <time>2022-06-10T12:50:40Z</time>
      </trkpt>
      <trkpt lat="48.68722" lon="-4.06964">
        <ele>10</ele>
        <time>2022-06-10T12:50:41Z</time>
      </trkpt>
      <trkpt lat="48.68722" lon="-4.06964">
        <ele>10</ele>
        <time>2022-06-10T12:50:42Z</time>
      </trkpt>
      <trkpt lat="48.68722" lon="-4.06964">
        <ele>10</ele>
        <time>2022-06-10T12:50:43Z</time>
      </trkpt>
      <trkpt lat="48.68722" lon="-4.06964">
        <ele>10</ele>
        <time>2022-06-10T12:50:44Z</time>
      </trkpt>
      <trkpt lat="48.68722" lon="-4.06964">
        <ele>10</ele>
        <time>2022-06-10T12:50:45Z</time>
      </trkpt>
      <trkpt lat="48.68722" lon="-4.06964">
        <ele>10</ele>
        <time>2022-06-10T12:50:46Z</time>
      </trkpt>
      <trkpt lat="48.68722" lon="-4.06964">
        <ele>10</ele>
        <time>2022-06-10T12:50:47Z</time>
      </trkpt>
      <trkpt lat="48.68722" lon="-4.06964">
        <ele>10</ele>
        <time>2022-06-10T12:50:48Z</time>
      </trkpt>
      <trkpt lat="48.68722" lon="-4.06964">
        <ele>10</ele>
        <time>2022-06-10T12:50:49Z</time>
      </trkpt>
      <trkpt lat="48.68722" lon="-4.06964">
        <ele>10</ele>
        <time>2022-06-10T12:50:50Z</time>
      </trkpt>
      <trkpt lat="48.68722" lon="-4.06964">
        <ele>10</ele>
        <time>2022-06-10T12:50:51Z</time>
      </trkpt>
      <trkpt lat="48.68722" lon="-4.06964">
        <ele>10</ele>
        <time>2022-06-10T12:50:52Z</time>
      </trkpt>
      <trkpt lat="48.68722" lon="-4.06964">
        <ele>10</ele>
        <time>2022-06-10T12:50:53Z</time>
      </trkpt>
      <trkpt lat="48.68722" lon="-4.06964">
        <ele>10</ele>
        <time>2022-06-10T12:50:54Z</time>
      </trkpt>
      <trkpt lat="48.68722" lon="-4.06964">
        <ele>10</ele>
        <time>2022-06-10T12:50:55Z</time>
      </trkpt>
      <trkpt lat="48.68722" lon="-4.06964">
        <ele>10</ele>
        <time>2022-06-10T12:50:56Z</time>
      </trkpt>
      <trkpt lat="48.68722" lon="-4.06964">
        <ele>10</ele>
        <time>2022-06-10T12:50:57Z</time>
      </trkpt>
      <trkpt lat="48.68722" lon="-4.06964">
        <ele>10</ele>
        <time>2022-06-10T12:50:58Z</time>
      </trkpt>
      <trkpt lat="48.68722" lon="-4.06964">
        <ele>10</ele>
        <time>2022-06-10T12:50:59Z</time>
      </trkpt>
      <trkpt lat="48.68722" lon="-4.06964">
        <ele>10</ele>
        <time>2022-06-10T12:51:00Z</time>
      </trkpt>
      <trkpt lat="48.68722" lon="-4.06964">
        <ele>10</ele>
        <time>2022-06-10T12:51:01Z</time>
      </trkpt>
      <trkpt lat="48.68722" lon="-4.06964">
        <ele>10</ele>
        <time>2022-06-10T12:51:02Z</time>
      </trkpt>
      <trkpt lat="48.68722" lon="-4.06964">
        <ele>10</ele>
        <time>2022-06-10T12:51:03Z</time>
      </trkpt>
      <trkpt lat="48.68722" lon="-4.06964">
        <ele>10</ele>
        <time>2022-06-10T12:51:04Z</time>
      </trkpt>
      <trkpt lat="48.68722" lon="-4.06964">
        <ele>10</ele>
        <time>2022-06-10T12:51:05Z</time>
      </trkpt>
      <trkpt lat="48.68721" lon="-4.06963">
        <ele>10</ele>
        <time>2022-06-10T12:51:06Z</time>
      </trkpt>
      <trkpt lat="48.68721" lon="-4.06962">
        <ele>10</ele>
        <time>2022-06-10T12:51:07Z</time>
      </trkpt>
      <trkpt lat="48.6872" lon="-4.06961">
        <ele>10</ele>
        <time>2022-06-10T12:51:08Z</time>
      </trkpt>
      <trkpt lat="48.6872" lon="-4.0696">
        <ele>10</ele>
        <time>2022-06-10T12:51:09Z</time>
      </trkpt>
      <trkpt lat="48.68719" lon="-4.06959">
        <ele>10</ele>
        <time>2022-06-10T12:51:10Z</time>
      </trkpt>
      <trkpt lat="48.68719" lon="-4.06958">
        <ele>10</ele>
        <time>2022-06-10T12:51:11Z</time>
      </trkpt>
      <trkpt lat="48.68719" lon="-4.06957">
        <ele>10</ele>
        <time>2022-06-10T12:51:12Z</time>
      </trkpt>
      <trkpt lat="48.68718" lon="-4.06956">
        <ele>10</ele>
        <time>2022-06-10T12:51:13Z</time>
      </trkpt>
      <trkpt lat="48.68718" lon="-4.06954">
        <ele>10</ele>
        <time>2022-06-10T12:51:14Z</time>
      </trkpt>
      <trkpt lat="48.68718" lon="-4.06953">
        <ele>10</ele>
        <time>2022-06-10T12:51:15Z</time>
      </trkpt>
      <trkpt lat="48.68718" lon="-4.06952">
        <ele>10</ele>
        <time>2022-06-10T12:51:16Z</time>
      </trkpt>
      <trkpt lat="48.68717" lon="-4.0695">
        <ele>9.9</ele>
        <time>2022-06-10T12:51:17Z</time>
      </trkpt>
      <trkpt lat="48.68717" lon="-4.06949">
        <ele>9.9</ele>
        <time>2022-06-10T12:51:18Z</time>
      </trkpt>
      <trkpt lat="48.68716" lon="-4.06948">
        <ele>9.9</ele>
        <time>2022-06-10T12:51:19Z</time>
      </trkpt>
      <trkpt lat="48.68716" lon="-4.06947">
        <ele>9.8</ele>
        <time>2022-06-10T12:51:20Z</time>
      </trkpt>
      <trkpt lat="48.68716" lon="-4.06946">
        <ele>9.8</ele>
        <time>2022-06-10T12:51:21Z</time>
      </trkpt>
      <trkpt lat="48.68716" lon="-4.06945">
        <ele>9.8</ele>
        <time>2022-06-10T12:51:22Z</time>
      </trkpt>
      <trkpt lat="48.68716" lon="-4.06945">
        <ele>9.8</ele>
        <time>2022-06-10T12:51:23Z</time>
      </trkpt>
      <trkpt lat="48.68716" lon="-4.06944">
        <ele>9.8</ele>
        <time>2022-06-10T12:51:24Z</time>
      </trkpt>
      <trkpt lat="48.68716" lon="-4.06944">
        <ele>9.7</ele>
        <time>2022-06-10T12:51:25Z</time>
      </trkpt>
      <trkpt lat="48.68716" lon="-4.06944">
        <ele>9.7</ele>
        <time>2022-06-10T12:51:26Z</time>
      </trkpt>
      <trkpt lat="48.68716" lon="-4.06944">
        <ele>9.7</ele>
        <time>2022-06-10T12:51:27Z</time>
      </trkpt>
      <trkpt lat="48.68716" lon="-4.06943">
        <ele>9.7</ele>
        <time>2022-06-10T12:51:28Z</time>
      </trkpt>
      <trkpt lat="48.68715" lon="-4.06942">
        <ele>9.7</ele>
        <time>2022-06-10T12:51:29Z</time>
      </trkpt>
      <trkpt lat="48.68715" lon="-4.06941">
        <ele>9.6</ele>
        <time>2022-06-10T12:51:30Z</time>
      </trkpt>
      <trkpt lat="48.68715" lon="-4.0694">
        <ele>9.6</ele>
        <time>2022-06-10T12:51:31Z</time>
      </trkpt>
      <trkpt lat="48.68714" lon="-4.06939">
        <ele>9.6</ele>
        <time>2022-06-10T12:51:32Z</time>
      </trkpt>
      <trkpt lat="48.68714" lon="-4.06938">
        <ele>9.5</ele>
        <time>2022-06-10T12:51:33Z</time>
      </trkpt>
      <trkpt lat="48.68714" lon="-4.06937">
        <ele>9.5</ele>
        <time>2022-06-10T12:51:35Z</time>
      </trkpt>
      <trkpt lat="48.68714" lon="-4.06937">
        <ele>9.5</ele>
        <time>2022-06-10T12:51:36Z</time>
      </trkpt>
      <trkpt lat="48.68714" lon="-4.06937">
        <ele>9.5</ele>
        <time>2022-06-10T12:51:37Z</time>
      </trkpt>
      <trkpt lat="48.68714" lon="-4.06937">
        <ele>9.5</ele>
        <time>2022-06-10T12:51:38Z</time>
      </trkpt>
      <trkpt lat="48.68714" lon="-4.06937">
        <ele>9.5</ele>
        <time>2022-06-10T12:51:39Z</time>
      </trkpt>
      <trkpt lat="48.68714" lon="-4.06937">
        <ele>9.5</ele>
        <time>2022-06-10T12:51:40Z</time>
      </trkpt>
      <trkpt lat="48.68714" lon="-4.06937">
        <ele>9.5</ele>
        <time>2022-06-10T12:51:41Z</time>
      </trkpt>
      <trkpt lat="48.68714" lon="-4.06937">
        <ele>9.5</ele>
        <time>2022-06-10T12:51:42Z</time>
      </trkpt>
      <trkpt lat="48.68714" lon="-4.06937">
        <ele>9.5</ele>
        <time>2022-06-10T12:51:43Z</time>
      </trkpt>
      <trkpt lat="48.68714" lon="-4.06937">
        <ele>9.4</ele>
        <time>2022-06-10T12:51:44Z</time>
      </trkpt>
      <trkpt lat="48.68714" lon="-4.06937">
        <ele>9.4</ele>
        <time>2022-06-10T12:51:45Z</time>
      </trkpt>
      <trkpt lat="48.68714" lon="-4.06937">
        <ele>9.4</ele>
        <time>2022-06-10T12:51:46Z</time>
      </trkpt>
      <trkpt lat="48.68714" lon="-4.06937">
        <ele>9.4</ele>
        <time>2022-06-10T12:51:47Z</time>
      </trkpt>
      <trkpt lat="48.68714" lon="-4.06937">
        <ele>9.4</ele>
        <time>2022-06-10T12:51:48Z</time>
      </trkpt>
      <trkpt lat="48.68714" lon="-4.06937">
        <ele>9.4</ele>
        <time>2022-06-10T12:51:49Z</time>
      </trkpt>
      <trkpt lat="48.68714" lon="-4.06937">
        <ele>9.4</ele>
        <time>2022-06-10T12:51:51Z</time>
      </trkpt>
      <trkpt lat="48.68714" lon="-4.06937">
        <ele>9.4</ele>
        <time>2022-06-10T12:51:52Z</time>
      </trkpt>
      <trkpt lat="48.68714" lon="-4.06937">
        <ele>9.4</ele>
        <time>2022-06-10T12:51:53Z</time>
      </trkpt>
      <trkpt lat="48.68715" lon="-4.06936">
        <ele>9.4</ele>
        <time>2022-06-10T12:51:54Z</time>
      </trkpt>
      <trkpt lat="48.68715" lon="-4.06935">
        <ele>9.4</ele>
        <time>2022-06-10T12:51:55Z</time>
      </trkpt>
      <trkpt lat="48.68715" lon="-4.06934">
        <ele>9.3</ele>
        <time>2022-06-10T12:51:57Z</time>
      </trkpt>
      <trkpt lat="48.68715" lon="-4.06933">
        <ele>9.3</ele>
        <time>2022-06-10T12:51:58Z</time>
      </trkpt>
      <trkpt lat="48.68716" lon="-4.0693">
        <ele>9.2</ele>
        <time>2022-06-10T12:51:59Z</time>
      </trkpt>
      <trkpt lat="48.68716" lon="-4.06929">
        <ele>9.2</ele>
        <time>2022-06-10T12:52:00Z</time>
      </trkpt>
      <trkpt lat="48.68716" lon="-4.06927">
        <ele>9.1</ele>
        <time>2022-06-10T12:52:01Z</time>
      </trkpt>
      <trkpt lat="48.68717" lon="-4.06925">
        <ele>9</ele>
        <time>2022-06-10T12:52:02Z</time>
      </trkpt>
      <trkpt lat="48.68718" lon="-4.06924">
        <ele>9</ele>
        <time>2022-06-10T12:52:04Z</time>
      </trkpt>
      <trkpt lat="48.68718" lon="-4.06922">
        <ele>8.9</ele>
        <time>2022-06-10T12:52:05Z</time>
      </trkpt>
      <trkpt lat="48.68719" lon="-4.06921">
        <ele>8.9</ele>
        <time>2022-06-10T12:52:06Z</time>
      </trkpt>
      <trkpt lat="48.6872" lon="-4.06919">
        <ele>8.8</ele>
        <time>2022-06-10T12:52:07Z</time>
      </trkpt>
      <trkpt lat="48.6872" lon="-4.06917">
        <ele>8.8</ele>
        <time>2022-06-10T12:52:08Z</time>
      </trkpt>
      <trkpt lat="48.68721" lon="-4.06915">
        <ele>8.7</ele>
        <time>2022-06-10T12:52:10Z</time>
      </trkpt>
      <trkpt lat="48.68722" lon="-4.06913">
        <ele>8.7</ele>
        <time>2022-06-10T12:52:11Z</time>
      </trkpt>
      <trkpt lat="48.68722" lon="-4.06911">
        <ele>8.6</ele>
        <time>2022-06-10T12:52:12Z</time>
      </trkpt>
      <trkpt lat="48.68379" lon="-4.06504">
        <ele>6.6</ele>
        <time>2022-06-10T13:03:22Z</time>
      </trkpt>
      <trkpt lat="48.68375" lon="-4.06504">
        <ele>6.5</ele>
        <time>2022-06-10T13:03:23Z</time>
      </trkpt>
      <trkpt lat="48.68374" lon="-4.06504">
        <ele>6.5</ele>
        <time>2022-06-10T13:03:24Z</time>
      </trkpt>
      <trkpt lat="48.68373" lon="-4.06505">
        <ele>6.5</ele>
        <time>2022-06-10T13:03:25Z</time>
      </trkpt>
      <trkpt lat="48.68373" lon="-4.06506">
        <ele>6.5</ele>
        <time>2022-06-10T13:03:26Z</time>
      </trkpt>
      <trkpt lat="48.68373" lon="-4.06507">
        <ele>6.5</ele>
        <time>2022-06-10T13:03:27Z</time>
      </trkpt>
      <trkpt lat="48.68372" lon="-4.06507">
        <ele>6.5</ele>
        <time>2022-06-10T13:03:28Z</time>
      </trkpt>
      <trkpt lat="48.68372" lon="-4.06508">
        <ele>6.5</ele>
        <time>2022-06-10T13:03:29Z</time>
      </trkpt>
      <trkpt lat="48.68372" lon="-4.06508">
        <ele>6.5</ele>
        <time>2022-06-10T13:03:30Z</time>
      </trkpt>
      <trkpt lat="48.68372" lon="-4.06508">
        <ele>6.5</ele>
        <time>2022-06-10T13:03:31Z</time>
      </trkpt>
      <trkpt lat="48.68372" lon="-4.06508">
        <ele>6.5</ele>
        <time>2022-06-10T13:03:32Z</time>
      </trkpt>
      <trkpt lat="48.68372" lon="-4.06508">
        <ele>6.5</ele>
        <time>2022-06-10T13:03:33Z</time>
      </trkpt>
      <trkpt lat="48.68372" lon="-4.06508">
        <ele>6.5</ele>
        <time>2022-06-10T13:03:34Z</time>
      </trkpt>
      <trkpt lat="48.68372" lon="-4.06508">
        <ele>6.5</ele>
        <time>2022-06-10T13:03:35Z</time>
      </trkpt>
      <trkpt lat="48.68372" lon="-4.06508">
        <ele>6.5</ele>
        <time>2022-06-10T13:03:36Z</time>
      </trkpt>
      <trkpt lat="48.68372" lon="-4.06508">
        <ele>6.5</ele>
        <time>2022-06-10T13:03:37Z</time>
      </trkpt>
      <trkpt lat="48.68372" lon="-4.06508">
        <ele>6.5</ele>
        <time>2022-06-10T13:03:38Z</time>
      </trkpt>
      <trkpt lat="48.68372" lon="-4.06508">
        <ele>6.5</ele>
        <time>2022-06-10T13:03:39Z</time>
      </trkpt>
      <trkpt lat="48.68372" lon="-4.06508">
        <ele>6.5</ele>
        <time>2022-06-10T13:03:40Z</time>
      </trkpt>
      <trkpt lat="48.68372" lon="-4.06508">
        <ele>6.5</ele>
        <time>2022-06-10T13:03:41Z</time>
      </trkpt>
      <trkpt lat="48.68372" lon="-4.06508">
        <ele>6.5</ele>
        <time>2022-06-10T13:03:42Z</time>
      </trkpt>
      <trkpt lat="48.68372" lon="-4.06508">
        <ele>6.5</ele>
        <time>2022-06-10T13:03:43Z</time>
      </trkpt>
      <trkpt lat="48.68372" lon="-4.06508">
        <ele>6.5</ele>
        <time>2022-06-10T13:03:44Z</time>
      </trkpt>
      <trkpt lat="48.68372" lon="-4.06508">
        <ele>6.5</ele>
        <time>2022-06-10T13:03:45Z</time>
      </trkpt>
      <trkpt lat="48.68372" lon="-4.06508">
        <ele>6.5</ele>
        <time>2022-06-10T13:03:46Z</time>
      </trkpt>
      <trkpt lat="48.68372" lon="-4.06508">
        <ele>6.5</ele>
        <time>2022-06-10T13:03:47Z</time>
      </trkpt>
      <trkpt lat="48.68372" lon="-4.06508">
        <ele>6.5</ele>
        <time>2022-06-10T13:03:48Z</time>
      </trkpt>
      <trkpt lat="48.68372" lon="-4.06508">
        <ele>6.5</ele>
        <time>2022-06-10T13:03:49Z</time>
      </trkpt>
      <trkpt lat="48.68372" lon="-4.06508">
        <ele>6.5</ele>
        <time>2022-06-10T13:03:50Z</time>
      </trkpt>
      <trkpt lat="48.68372" lon="-4.06508">
        <ele>6.5</ele>
        <time>2022-06-10T13:03:51Z</time>
      </trkpt>
      <trkpt lat="48.68372" lon="-4.06508">
        <ele>6.5</ele>
        <time>2022-06-10T13:03:52Z</time>
      </trkpt>
      <trkpt lat="48.68372" lon="-4.06508">
        <ele>6.5</ele>
        <time>2022-06-10T13:03:53Z</time>
      </trkpt>
      <trkpt lat="48.68372" lon="-4.06508">
        <ele>6.5</ele>
        <time>2022-06-10T13:03:54Z</time>
      </trkpt>
      <trkpt lat="48.68372" lon="-4.06508">
        <ele>6.5</ele>
        <time>2022-06-10T13:03:55Z</time>
      </trkpt>
      <trkpt lat="48.68372" lon="-4.06508">
        <ele>6.5</ele>
        <time>2022-06-10T13:03:56Z</time>
      </trkpt>
      <trkpt lat="48.68372" lon="-4.06508">
        <ele>6.5</ele>
        <time>2022-06-10T13:03:57Z</time>
      </trkpt>
      <trkpt lat="48.68372" lon="-4.06508">
        <ele>6.5</ele>
        <time>2022-06-10T13:03:58Z</time>
      </trkpt>
      <trkpt lat="48.68372" lon="-4.06508">
        <ele>6.5</ele>
        <time>2022-06-10T13:03:59Z</time>
      </trkpt>
      <trkpt lat="48.68372" lon="-4.06508">
        <ele>6.5</ele>
        <time>2022-06-10T13:04:00Z</time>
      </trkpt>
      <trkpt lat="48.68372" lon="-4.06508">
        <ele>6.5</ele>
        <time>2022-06-10T13:04:01Z</time>
      </trkpt>
      <trkpt lat="48.68372" lon="-4.06508">
        <ele>6.5</ele>
        <time>2022-06-10T13:04:02Z</time>
      </trkpt>
      <trkpt lat="48.68372" lon="-4.06508">
        <ele>6.5</ele>
        <time>2022-06-10T13:04:03Z</time>
      </trkpt>
      <trkpt lat="48.68372" lon="-4.06508">
        <ele>6.5</ele>
        <time>2022-06-10T13:04:04Z</time>
      </trkpt>
      <trkpt lat="48.68372" lon="-4.06508">
        <ele>6.5</ele>
        <time>2022-06-10T13:04:05Z</time>
      </trkpt>
      <trkpt lat="48.68372" lon="-4.06508">
        <ele>6.5</ele>
        <time>2022-06-10T13:04:06Z</time>
      </trkpt>
      <trkpt lat="48.68372" lon="-4.06508">
        <ele>6.5</ele>
        <time>2022-06-10T13:04:07Z</time>
      </trkpt>
      <trkpt lat="48.68372" lon="-4.06508">
        <ele>6.5</ele>
        <time>2022-06-10T13:04:08Z</time>
      </trkpt>
      <trkpt lat="48.68372" lon="-4.06508">
        <ele>6.5</ele>
        <time>2022-06-10T13:04:09Z</time>
      </trkpt>
      <trkpt lat="48.68372" lon="-4.06508">
        <ele>6.5</ele>
        <time>2022-06-10T13:04:10Z</time>
      </trkpt>
      <trkpt lat="48.68372" lon="-4.06508">
        <ele>6.5</ele>
        <time>2022-06-10T13:04:11Z</time>
      </trkpt>
      <trkpt lat="48.68372" lon="-4.06508">
        <ele>6.5</ele>
        <time>2022-06-10T13:04:12Z</time>
      </trkpt>
      <trkpt lat="48.68372" lon="-4.06508">
        <ele>6.5</ele>
        <time>2022-06-10T13:04:13Z</time>
      </trkpt>
      <trkpt lat="48.68372" lon="-4.06508">
        <ele>6.5</ele>
        <time>2022-06-10T13:04:14Z</time>
      </trkpt>
      <trkpt lat="48.68372" lon="-4.06508">
        <ele>6.5</ele>
        <time>2022-06-10T13:04:15Z</time>
      </trkpt>
      <trkpt lat="48.68372" lon="-4.06508">
        <ele>6.5</ele>
        <time>2022-06-10T13:04:16Z</time>
      </trkpt>
      <trkpt lat="48.68372" lon="-4.06508">
        <ele>6.5</ele>
        <time>2022-06-10T13:04:17Z</time>
      </trkpt>
      <trkpt lat="48.68372" lon="-4.06508">
        <ele>6.5</ele>
        <time>2022-06-10T13:04:18Z</time>
      </trkpt>
      <trkpt lat="48.68372" lon="-4.06508">
        <ele>6.5</ele>
        <time>2022-06-10T13:04:19Z</time>
      </trkpt>
      <trkpt lat="48.68372" lon="-4.06508">
        <ele>6.5</ele>
        <time>2022-06-10T13:04:20Z</time>
      </trkpt>
      <trkpt lat="48.68372" lon="-4.06508">
        <ele>6.5</ele>
        <time>2022-06-10T13:04:21Z</time>
      </trkpt>
      <trkpt lat="48.68372" lon="-4.06508">
        <ele>6.5</ele>
        <time>2022-06-10T13:04:22Z</time>
      </trkpt>
      <trkpt lat="48.68372" lon="-4.06508">
        <ele>6.5</ele>
        <time>2022-06-10T13:04:23Z</time>
      </trkpt>
      <trkpt lat="48.68372" lon="-4.06508">
        <ele>6.5</ele>
        <time>2022-06-10T13:04:24Z</time>
      </trkpt>
      <trkpt lat="48.68372" lon="-4.06508">
        <ele>6.5</ele>
        <time>2022-06-10T13:04:25Z</time>
      </trkpt>
      <trkpt lat="48.68372" lon="-4.06508">
        <ele>6.5</ele>
        <time>2022-06-10T13:04:26Z</time>
      </trkpt>
      <trkpt lat="48.68372" lon="-4.06508">
        <ele>6.5</ele>
        <time>2022-06-10T13:04:27Z</time>
      </trkpt>
      <trkpt lat="48.68372" lon="-4.06508">
        <ele>6.5</ele>
        <time>2022-06-10T13:04:28Z</time>
      </trkpt>
      <trkpt lat="48.68372" lon="-4.06508">
        <ele>6.5</ele>
        <time>2022-06-10T13:04:29Z</time>
      </trkpt>
      <trkpt lat="48.68372" lon="-4.06508">
        <ele>6.5</ele>
        <time>2022-06-10T13:04:30Z</time>
      </trkpt>
      <trkpt lat="48.68372" lon="-4.06508">
        <ele>6.5</ele>
        <time>2022-06-10T13:04:31Z</time>
      </trkpt>
      <trkpt lat="48.68372" lon="-4.06508">
        <ele>6.5</ele>
        <time>2022-06-10T13:04:32Z</time>
      </trkpt>
      <trkpt lat="48.68372" lon="-4.06508">
        <ele>6.5</ele>
        <time>2022-06-10T13:04:33Z</time>
      </trkpt>
      <trkpt lat="48.68372" lon="-4.06508">
        <ele>6.5</ele>
        <time>2022-06-10T13:04:34Z</time>
      </trkpt>
      <trkpt lat="48.68372" lon="-4.06508">
        <ele>6.5</ele>
        <time>2022-06-10T13:04:35Z</time>
      </trkpt>
      <trkpt lat="48.68372" lon="-4.06508">
        <ele>6.5</ele>
        <time>2022-06-10T13:04:36Z</time>
      </trkpt>
      <trkpt lat="48.68372" lon="-4.06508">
        <ele>6.5</ele>
        <time>2022-06-10T13:04:37Z</time>
      </trkpt>
      <trkpt lat="48.68372" lon="-4.06508">
        <ele>6.5</ele>
        <time>2022-06-10T13:04:38Z</time>
      </trkpt>
      <trkpt lat="48.68372" lon="-4.06508">
        <ele>6.5</ele>
        <time>2022-06-10T13:04:39Z</time>
      </trkpt>
      <trkpt lat="48.68372" lon="-4.06508">
        <ele>6.5</ele>
        <time>2022-06-10T13:04:40Z</time>
      </trkpt>
      <trkpt lat="48.68372" lon="-4.06508">
        <ele>6.5</ele>
        <time>2022-06-10T13:04:41Z</time>
      </trkpt>
      <trkpt lat="48.68372" lon="-4.06508">
        <ele>6.5</ele>
        <time>2022-06-10T13:04:42Z</time>
      </trkpt>
      <trkpt lat="48.68372" lon="-4.06508">
        <ele>6.5</ele>
        <time>2022-06-10T13:04:43Z</time>
      </trkpt>
      <trkpt lat="48.68372" lon="-4.06508">
        <ele>6.5</ele>
        <time>2022-06-10T13:04:44Z</time>
      </trkpt>
      <trkpt lat="48.68372" lon="-4.06508">
        <ele>6.5</ele>
        <time>2022-06-10T13:04:45Z</time>
      </trkpt>
      <trkpt lat="48.68372" lon="-4.06508">
        <ele>6.5</ele>
        <time>2022-06-10T13:04:46Z</time>
      </trkpt>
      <trkpt lat="48.68372" lon="-4.06508">
        <ele>6.5</ele>
        <time>2022-06-10T13:04:47Z</time>
      </trkpt>
      <trkpt lat="48.68372" lon="-4.06508">
        <ele>6.5</ele>
        <time>2022-06-10T13:04:48Z</time>
      </trkpt>
      <trkpt lat="48.68372" lon="-4.06508">
        <ele>6.5</ele>
        <time>2022-06-10T13:04:49Z</time>
      </trkpt>
      <trkpt lat="48.68372" lon="-4.06508">
        <ele>6.5</ele>
        <time>2022-06-10T13:04:50Z</time>
      </trkpt>
      <trkpt lat="48.68372" lon="-4.06508">
        <ele>6.5</ele>
        <time>2022-06-10T13:04:51Z</time>
      </trkpt>
      <trkpt lat="48.68372" lon="-4.06508">
        <ele>6.5</ele>
        <time>2022-06-10T13:04:52Z</time>
      </trkpt>
      <trkpt lat="48.68372" lon="-4.06508">
        <ele>6.5</ele>
        <time>2022-06-10T13:04:53Z</time>
      </trkpt>
      <trkpt lat="48.68372" lon="-4.06508">
        <ele>6.5</ele>
        <time>2022-06-10T13:04:54Z</time>
      </trkpt>
      <trkpt lat="48.68372" lon="-4.06508">
        <ele>6.5</ele>
        <time>2022-06-10T13:04:55Z</time>
      </trkpt>
      <trkpt lat="48.68372" lon="-4.06508">
        <ele>6.5</ele>
        <time>2022-06-10T13:04:56Z</time>
      </trkpt>
      <trkpt lat="48.68372" lon="-4.06508">
        <ele>6.5</ele>
        <time>2022-06-10T13:04:57Z</time>
      </trkpt>
      <trkpt lat="48.68372" lon="-4.06508">
        <ele>6.5</ele>
        <time>2022-06-10T13:04:58Z</time>
      </trkpt>
      <trkpt lat="48.68372" lon="-4.06508">
        <ele>6.5</ele>
        <time>2022-06-10T13:04:59Z</time>
      </trkpt>
      <trkpt lat="48.68372" lon="-4.06508">
        <ele>6.5</ele>
        <time>2022-06-10T13:05:00Z</time>
      </trkpt>
      <trkpt lat="48.68372" lon="-4.06508">
        <ele>6.5</ele>
        <time>2022-06-10T13:05:01Z</time>
      </trkpt>
      <trkpt lat="48.68372" lon="-4.06508">
        <ele>6.5</ele>
        <time>2022-06-10T13:05:02Z</time>
      </trkpt>
      <trkpt lat="48.68372" lon="-4.06508">
        <ele>6.5</ele>
        <time>2022-06-10T13:05:03Z</time>
      </trkpt>
      <trkpt lat="48.68372" lon="-4.06508">
        <ele>6.5</ele>
        <time>2022-06-10T13:05:04Z</time>
      </trkpt>
      <trkpt lat="48.68372" lon="-4.06508">
        <ele>6.5</ele>
        <time>2022-06-10T13:05:05Z</time>
      </trkpt>
      <trkpt lat="48.68372" lon="-4.06508">
        <ele>6.5</ele>
        <time>2022-06-10T13:05:06Z</time>
      </trkpt>
      <trkpt lat="48.68372" lon="-4.06508">
        <ele>6.5</ele>
        <time>2022-06-10T13:05:07Z</time>
      </trkpt>
      <trkpt lat="48.68372" lon="-4.06508">
        <ele>6.5</ele>
        <time>2022-06-10T13:05:08Z</time>
      </trkpt>
      <trkpt lat="48.68372" lon="-4.06508">
        <ele>6.5</ele>
        <time>2022-06-10T13:05:09Z</time>
      </trkpt>
      <trkpt lat="48.68372" lon="-4.06508">
        <ele>6.5</ele>
        <time>2022-06-10T13:05:10Z</time>
      </trkpt>
      <trkpt lat="48.68372" lon="-4.06508">
        <ele>6.5</ele>
        <time>2022-06-10T13:05:11Z</time>
      </trkpt>
      <trkpt lat="48.68372" lon="-4.06508">
        <ele>6.5</ele>
        <time>2022-06-10T13:05:12Z</time>
      </trkpt>
      <trkpt lat="48.68372" lon="-4.06508">
        <ele>6.5</ele>
        <time>2022-06-10T13:05:13Z</time>
      </trkpt>
      <trkpt lat="48.68372" lon="-4.06508">
        <ele>6.5</ele>
        <time>2022-06-10T13:05:14Z</time>
      </trkpt>
      <trkpt lat="48.68372" lon="-4.06508">
        <ele>6.5</ele>
        <time>2022-06-10T13:05:15Z</time>
      </trkpt>
      <trkpt lat="48.68372" lon="-4.06508">
        <ele>6.5</ele>
        <time>2022-06-10T13:05:16Z</time>
      </trkpt>
      <trkpt lat="48.68372" lon="-4.06508">
        <ele>6.5</ele>
        <time>2022-06-10T13:05:17Z</time>
      </trkpt>
      <trkpt lat="48.68372" lon="-4.06508">
        <ele>6.5</ele>
        <time>2022-06-10T13:05:18Z</time>
      </trkpt>
      <trkpt lat="48.68372" lon="-4.06508">
        <ele>6.5</ele>
        <time>2022-06-10T13:05:19Z</time>
      </trkpt>
      <trkpt lat="48.68372" lon="-4.06508">
        <ele>6.5</ele>
        <time>2022-06-10T13:05:20Z</time>
      </trkpt>
      <trkpt lat="48.68372" lon="-4.06508">
        <ele>6.5</ele>
        <time>2022-06-10T13:05:21Z</time>
      </trkpt>
      <trkpt lat="48.68372" lon="-4.06508">
        <ele>6.5</ele>
        <time>2022-06-10T13:05:22Z</time>
      </trkpt>
      <trkpt lat="48.68372" lon="-4.06508">
        <ele>6.5</ele>
        <time>2022-06-10T13:05:23Z</time>
      </trkpt>
      <trkpt lat="48.68372" lon="-4.06508">
        <ele>6.5</ele>
        <time>2022-06-10T13:05:24Z</time>
      </trkpt>
      <trkpt lat="48.68372" lon="-4.06508">
        <ele>6.5</ele>
        <time>2022-06-10T13:05:25Z</time>
      </trkpt>
      <trkpt lat="48.68372" lon="-4.06508">
        <ele>6.5</ele>
        <time>2022-06-10T13:05:26Z</time>
      </trkpt>
      <trkpt lat="48.68372" lon="-4.06508">
        <ele>6.5</ele>
        <time>2022-06-10T13:05:27Z</time>
      </trkpt>
      <trkpt lat="48.68372" lon="-4.06508">
        <ele>6.5</ele>
        <time>2022-06-10T13:05:28Z</time>
      </trkpt>
      <trkpt lat="48.68372" lon="-4.06508">
        <ele>6.5</ele>
        <time>2022-06-10T13:05:29Z</time>
      </trkpt>
      <trkpt lat="48.68372" lon="-4.06508">
        <ele>6.5</ele>
        <time>2022-06-10T13:05:30Z</time>
      </trkpt>
      <trkpt lat="48.68372" lon="-4.06508">
        <ele>6.5</ele>
        <time>2022-06-10T13:05:31Z</time>
      </trkpt>
      <trkpt lat="48.68372" lon="-4.06508">
        <ele>6.5</ele>
        <time>2022-06-10T13:05:32Z</time>
      </trkpt>
      <trkpt lat="48.68373" lon="-4.06509">
        <ele>6.5</ele>
        <time>2022-06-10T13:05:33Z</time>
      </trkpt>
      <trkpt lat="48.68373" lon="-4.0651">
        <ele>6.5</ele>
        <time>2022-06-10T13:05:34Z</time>
      </trkpt>
      <trkpt lat="48.68373" lon="-4.06511">
        <ele>6.4</ele>
        <time>2022-06-10T13:05:35Z</time>
      </trkpt>
      <trkpt lat="48.68372" lon="-4.06512">
        <ele>6.4</ele>
        <time>2022-06-10T13:05:36Z</time>
      </trkpt>
      <trkpt lat="48.68372" lon="-4.06512">
        <ele>5.9</ele>
        <time>2022-06-10T13:05:37Z</time>
      </trkpt>
      <trkpt lat="48.6837" lon="-4.06513">
        <ele>5.9</ele>
        <time>2022-06-10T13:05:39Z</time>
      </trkpt>
      <trkpt lat="48.6837" lon="-4.06514">
        <ele>5.9</ele>
        <time>2022-06-10T13:05:40Z</time>
      </trkpt>
      <trkpt lat="48.6837" lon="-4.06515">
        <ele>5.9</ele>
        <time>2022-06-10T13:05:41Z</time>
      </trkpt>
      <trkpt lat="48.68369" lon="-4.06515">
        <ele>5.9</ele>
        <time>2022-06-10T13:05:42Z</time>
      </trkpt>
      <trkpt lat="48.68369" lon="-4.06515">
        <ele>5.9</ele>
        <time>2022-06-10T13:05:43Z</time>
      </trkpt>
      <trkpt lat="48.68368" lon="-4.06515">
        <ele>5.9</ele>
        <time>2022-06-10T13:05:44Z</time>
      </trkpt>
      <trkpt lat="48.68368" lon="-4.06515">
        <ele>5.9</ele>
        <time>2022-06-10T13:05:45Z</time>
      </trkpt>
      <trkpt lat="48.68368" lon="-4.06515">
        <ele>5.9</ele>
        <time>2022-06-10T13:05:46Z</time>
      </trkpt>
      <trkpt lat="48.68368" lon="-4.06515">
        <ele>5.9</ele>
        <time>2022-06-10T13:05:47Z</time>
      </trkpt>
      <trkpt lat="48.68368" lon="-4.06514">
        <ele>5.9</ele>
        <time>2022-06-10T13:05:48Z</time>
      </trkpt>
      <trkpt lat="48.68369" lon="-4.06514">
        <ele>5.9</ele>
        <time>2022-06-10T13:05:49Z</time>
      </trkpt>
      <trkpt lat="48.68369" lon="-4.06514">
        <ele>5.9</ele>
        <time>2022-06-10T13:05:51Z</time>
      </trkpt>
      <trkpt lat="48.68369" lon="-4.06514">
        <ele>5.9</ele>
        <time>2022-06-10T13:05:52Z</time>
      </trkpt>
      <trkpt lat="48.68369" lon="-4.06513">
        <ele>5.9</ele>
        <time>2022-06-10T13:05:53Z</time>
      </trkpt>
      <trkpt lat="48.68369" lon="-4.06513">
        <ele>5.9</ele>
        <time>2022-06-10T13:05:54Z</time>
      </trkpt>
      <trkpt lat="48.68369" lon="-4.06514">
        <ele>5.9</ele>
        <time>2022-06-10T13:05:56Z</time>
      </trkpt>
      <trkpt lat="48.68369" lon="-4.06514">
        <ele>5.9</ele>
        <time>2022-06-10T13:05:57Z</time>
      </trkpt>
      <trkpt lat="48.68368" lon="-4.06514">
        <ele>5.9</ele>
        <time>2022-06-10T13:05:58Z</time>
      </trkpt>
      <trkpt lat="48.68368" lon="-4.06514">
        <ele>5.9</ele>
        <time>2022-06-10T13:05:59Z</time>
      </trkpt>
      <trkpt lat="48.68367" lon="-4.06515">
        <ele>5.9</ele>
        <time>2022-06-10T13:06:01Z</time>
      </trkpt>
      <trkpt lat="48.68367" lon="-4.06515">
        <ele>5.9</ele>
        <time>2022-06-10T13:06:02Z</time>
      </trkpt>
      <trkpt lat="48.68366" lon="-4.06514">
        <ele>5.9</ele>
        <time>2022-06-10T13:06:03Z</time>
      </trkpt>
      <trkpt lat="48.68366" lon="-4.06514">
        <ele>5.9</ele>
        <time>2022-06-10T13:06:04Z</time>
      </trkpt>
      <trkpt lat="48.68366" lon="-4.06514">
        <ele>5.9</ele>
        <time>2022-06-10T13:06:05Z</time>
      </trkpt>
      <trkpt lat="48.68367" lon="-4.06514">
        <ele>5.9</ele>
        <time>2022-06-10T13:06:06Z</time>
      </trkpt>
      <trkpt lat="48.68367" lon="-4.06514">
        <ele>5.9</ele>
        <time>2022-06-10T13:06:07Z</time>
      </trkpt>
      <trkpt lat="48.68367" lon="-4.06514">
        <ele>5.9</ele>
        <time>2022-06-10T13:06:08Z</time>
      </trkpt>
      <trkpt lat="48.68367" lon="-4.06514">
        <ele>5.9</ele>
        <time>2022-06-10T13:06:09Z</time>
      </trkpt>
      <trkpt lat="48.68367" lon="-4.06514">
        <ele>5.9</ele>
        <time>2022-06-10T13:06:10Z</time>
      </trkpt>
      <trkpt lat="48.68367" lon="-4.06514">
        <ele>5.9</ele>
        <time>2022-06-10T13:06:11Z</time>
      </trkpt>
      <trkpt lat="48.68367" lon="-4.06514">
        <ele>5.9</ele>
        <time>2022-06-10T13:06:12Z</time>
      </trkpt>
      <trkpt lat="48.68367" lon="-4.06514">
        <ele>5.9</ele>
        <time>2022-06-10T13:06:13Z</time>
      </trkpt>
      <trkpt lat="48.68368" lon="-4.06514">
        <ele>5.9</ele>
        <time>2022-06-10T13:06:14Z</time>
      </trkpt>
      <trkpt lat="48.68368" lon="-4.06514">
        <ele>5.9</ele>
        <time>2022-06-10T13:06:15Z</time>
      </trkpt>
      <trkpt lat="48.68368" lon="-4.06514">
        <ele>5.9</ele>
        <time>2022-06-10T13:06:17Z</time>
      </trkpt>
      <trkpt lat="48.68368" lon="-4.06514">
        <ele>5.9</ele>
        <time>2022-06-10T13:06:18Z</time>
      </trkpt>
      <trkpt lat="48.68368" lon="-4.06514">
        <ele>5.9</ele>
        <time>2022-06-10T13:06:19Z</time>
      </trkpt>
      <trkpt lat="48.68368" lon="-4.06515">
        <ele>5.9</ele>
        <time>2022-06-10T13:06:20Z</time>
      </trkpt>
      <trkpt lat="48.68368" lon="-4.06515">
        <ele>5.9</ele>
        <time>2022-06-10T13:06:21Z</time>
      </trkpt>
      <trkpt lat="48.68368" lon="-4.06515">
        <ele>5.9</ele>
        <time>2022-06-10T13:06:22Z</time>
      </trkpt>
      <trkpt lat="48.68368" lon="-4.06515">
        <ele>5.9</ele>
        <time>2022-06-10T13:06:23Z</time>
      </trkpt>
      <trkpt lat="48.68368" lon="-4.06515">
        <ele>5.9</ele>
        <time>2022-06-10T13:06:24Z</time>
      </trkpt>
      <trkpt lat="48.68368" lon="-4.06515">
        <ele>5.9</ele>
        <time>2022-06-10T13:06:25Z</time>
      </trkpt>
      <trkpt lat="48.68368" lon="-4.06515">
        <ele>5.9</ele>
        <time>2022-06-10T13:06:26Z</time>
      </trkpt>
      <trkpt lat="48.68368" lon="-4.06515">
        <ele>5.9</ele>
        <time>2022-06-10T13:06:27Z</time>
      </trkpt>
      <trkpt lat="48.68368" lon="-4.06515">
        <ele>5.9</ele>
        <time>2022-06-10T13:06:28Z</time>
      </trkpt>
      <trkpt lat="48.68368" lon="-4.06515">
        <ele>5.9</ele>
        <time>2022-06-10T13:06:29Z</time>
      </trkpt>
      <trkpt lat="48.68368" lon="-4.06515">
        <ele>5.9</ele>
        <time>2022-06-10T13:06:30Z</time>
      </trkpt>
      <trkpt lat="48.68368" lon="-4.06515">
        <ele>5.9</ele>
        <time>2022-06-10T13:06:31Z</time>
      </trkpt>
      <trkpt lat="48.68368" lon="-4.06515">
        <ele>5.9</ele>
        <time>2022-06-10T13:06:32Z</time>
      </trkpt>
      <trkpt lat="48.68368" lon="-4.06515">
        <ele>5.9</ele>
        <time>2022-06-10T13:06:33Z</time>
      </trkpt>
      <trkpt lat="48.68368" lon="-4.06514">
        <ele>5.9</ele>
        <time>2022-06-10T13:06:34Z</time>
      </trkpt>
      <trkpt lat="48.68367" lon="-4.06513">
        <ele>5.9</ele>
        <time>2022-06-10T13:06:35Z</time>
      </trkpt>
      <trkpt lat="48.68367" lon="-4.06511">
        <ele>5.9</ele>
        <time>2022-06-10T13:06:37Z</time>
      </trkpt>
      <trkpt lat="48.68366" lon="-4.0651">
        <ele>5.9</ele>
        <time>2022-06-10T13:06:38Z</time>
      </trkpt>
      <trkpt lat="48.68365" lon="-4.06509">
        <ele>5.9</ele>
        <time>2022-06-10T13:06:39Z</time>
      </trkpt>
      <trkpt lat="48.68364" lon="-4.06508">
        <ele>5.9</ele>
        <time>2022-06-10T13:06:40Z</time>
      </trkpt>
      <trkpt lat="48.68363" lon="-4.06506">
        <ele>5.9</ele>
        <time>2022-06-10T13:06:41Z</time>
      </trkpt>
      <trkpt lat="48.68363" lon="-4.06504">
        <ele>5.9</ele>
        <time>2022-06-10T13:06:43Z</time>
      </trkpt>
      <trkpt lat="48.68363" lon="-4.06502">
        <ele>5.9</ele>
        <time>2022-06-10T13:06:44Z</time>
      </trkpt>
      <trkpt lat="48.68363" lon="-4.065">
        <ele>5.9</ele>
        <time>2022-06-10T13:06:45Z</time>
      </trkpt>
      <trkpt lat="48.68363" lon="-4.06498">
        <ele>5.9</ele>
        <time>2022-06-10T13:06:46Z</time>
      </trkpt>
      <trkpt lat="48.68362" lon="-4.06497">
        <ele>6</ele>
        <time>2022-06-10T13:06:48Z</time>
      </trkpt>
      <trkpt lat="48.68362" lon="-4.06495">
        <ele>6</ele>
        <time>2022-06-10T13:06:49Z</time>
      </trkpt>
      <trkpt lat="48.68362" lon="-4.06494">
        <ele>6</ele>
        <time>2022-06-10T13:06:50Z</time>
      </trkpt>
      <trkpt lat="48.68362" lon="-4.06493">
        <ele>6</ele>
        <time>2022-06-10T13:06:51Z</time>
      </trkpt>
      <trkpt lat="48.68361" lon="-4.06492">
        <ele>6</ele>
        <time>2022-06-10T13:06:53Z</time>
      </trkpt>
      <trkpt lat="48.6836" lon="-4.06491">
        <ele>6</ele>
        <time>2022-06-10T13:06:54Z</time>
      </trkpt>
      <trkpt lat="48.6836" lon="-4.0649">
        <ele>6</ele>
        <time>2022-06-10T13:06:55Z</time>
      </trkpt>
      <trkpt lat="48.68359" lon="-4.06489">
        <ele>6</ele>
        <time>2022-06-10T13:06:56Z</time>
      </trkpt>
      <trkpt lat="48.68359" lon="-4.06486">
        <ele>6</ele>
        <time>2022-06-10T13:06:57Z</time>
      </trkpt>
      <trkpt lat="48.68358" lon="-4.06484">
        <ele>6</ele>
        <time>2022-06-10T13:06:58Z</time>
      </trkpt>
      <trkpt lat="48.68358" lon="-4.06483">
        <ele>6</ele>
        <time>2022-06-10T13:06:59Z</time>
      </trkpt>
      <trkpt lat="48.68358" lon="-4.06481">
        <ele>6</ele>
        <time>2022-06-10T13:07:01Z</time>
      </trkpt>
      <trkpt lat="48.68357" lon="-4.06479">
        <ele>6</ele>
        <time>2022-06-10T13:07:02Z</time>
      </trkpt>
      <trkpt lat="48.68357" lon="-4.06478">
        <ele>6.1</ele>
        <time>2022-06-10T13:07:03Z</time>
      </trkpt>
      <trkpt lat="48.68356" lon="-4.06476">
        <ele>6.1</ele>
        <time>2022-06-10T13:07:04Z</time>
      </trkpt>
      <trkpt lat="48.68356" lon="-4.06475">
        <ele>6.1</ele>
        <time>2022-06-10T13:07:05Z</time>
      </trkpt>
      <trkpt lat="48.68355" lon="-4.06473">
        <ele>6.1</ele>
        <time>2022-06-10T13:07:07Z</time>
      </trkpt>
      <trkpt lat="48.68355" lon="-4.06471">
        <ele>6.1</ele>
        <time>2022-06-10T13:07:08Z</time>
      </trkpt>
      <trkpt lat="48.68354" lon="-4.06468">
        <ele>6.1</ele>
        <time>2022-06-10T13:07:09Z</time>
      </trkpt>
      <trkpt lat="48.68353" lon="-4.06467">
        <ele>6.1</ele>
        <time>2022-06-10T13:07:10Z</time>
      </trkpt>
      <trkpt lat="48.68353" lon="-4.06467">
        <ele>6.2</ele>
        <time>2022-06-10T13:07:11Z</time>
      </trkpt>
      <trkpt lat="48.68352" lon="-4.06468">
        <ele>6.2</ele>
        <time>2022-06-10T13:07:12Z</time>
      </trkpt>
      <trkpt lat="48.68352" lon="-4.06469">
        <ele>6.2</ele>
        <time>2022-06-10T13:07:13Z</time>
      </trkpt>
      <trkpt lat="48.68351" lon="-4.0647">
        <ele>6.2</ele>
        <time>2022-06-10T13:07:14Z</time>
      </trkpt>
      <trkpt lat="48.68351" lon="-4.0647">
        <ele>6.2</ele>
        <time>2022-06-10T13:07:15Z</time>
      </trkpt>
      <trkpt lat="48.68351" lon="-4.06471">
        <ele>6.2</ele>
        <time>2022-06-10T13:07:16Z</time>
      </trkpt>
      <trkpt lat="48.68351" lon="-4.06471">
        <ele>6.2</ele>
        <time>2022-06-10T13:07:17Z</time>
      </trkpt>
      <trkpt lat="48.68351" lon="-4.06471">
        <ele>6.2</ele>
        <time>2022-06-10T13:07:18Z</time>
      </trkpt>
      <trkpt lat="48.68352" lon="-4.06471">
        <ele>6.2</ele>
        <time>2022-06-10T13:07:20Z</time>
      </trkpt>
      <trkpt lat="48.68352" lon="-4.0647">
        <ele>6.2</ele>
        <time>2022-06-10T13:07:21Z</time>
      </trkpt>
      <trkpt lat="48.68352" lon="-4.06469">
        <ele>6.2</ele>
        <time>2022-06-10T13:07:22Z</time>
      </trkpt>
      <trkpt lat="48.68352" lon="-4.06467">
        <ele>6.2</ele>
        <time>2022-06-10T13:07:24Z</time>
      </trkpt>
      <trkpt lat="48.68352" lon="-4.06466">
        <ele>6.2</ele>
        <time>2022-06-10T13:07:25Z</time>
      </trkpt>
      <trkpt lat="48.68353" lon="-4.06463">
        <ele>6.2</ele>
        <time>2022-06-10T13:07:26Z</time>
      </trkpt>
      <trkpt lat="48.68354" lon="-4.06462">
        <ele>6.3</ele>
        <time>2022-06-10T13:07:27Z</time>
      </trkpt>
      <trkpt lat="48.68354" lon="-4.06461">
        <ele>6.3</ele>
        <time>2022-06-10T13:07:28Z</time>
      </trkpt>
      <trkpt lat="48.68355" lon="-4.06458">
        <ele>6.3</ele>
        <time>2022-06-10T13:07:29Z</time>
      </trkpt>
      <trkpt lat="48.68355" lon="-4.06457">
        <ele>6.3</ele>
        <time>2022-06-10T13:07:30Z</time>
      </trkpt>
      <trkpt lat="48.68356" lon="-4.06456">
        <ele>6.3</ele>
        <time>2022-06-10T13:07:31Z</time>
      </trkpt>
      <trkpt lat="48.68356" lon="-4.06454">
        <ele>6.3</ele>
        <time>2022-06-10T13:07:33Z</time>
      </trkpt>
      <trkpt lat="48.68357" lon="-4.06452">
        <ele>6.3</ele>
        <time>2022-06-10T13:07:34Z</time>
      </trkpt>
      <trkpt lat="48.68358" lon="-4.0645">
        <ele>6.3</ele>
        <time>2022-06-10T13:07:35Z</time>
      </trkpt>
      <trkpt lat="48.68358" lon="-4.06448">
        <ele>6.3</ele>
        <time>2022-06-10T13:07:37Z</time>
      </trkpt>
      <trkpt lat="48.68358" lon="-4.06447">
        <ele>6.3</ele>
        <time>2022-06-10T13:07:38Z</time>
      </trkpt>
      <trkpt lat="48.68358" lon="-4.06445">
        <ele>6.4</ele>
        <time>2022-06-10T13:07:39Z</time>
      </trkpt>
      <trkpt lat="48.68358" lon="-4.06444">
        <ele>6.4</ele>
        <time>2022-06-10T13:07:40Z</time>
      </trkpt>
      <trkpt lat="48.68358" lon="-4.06442">
        <ele>6.4</ele>
        <time>2022-06-10T13:07:42Z</time>
      </trkpt>
      <trkpt lat="48.68358" lon="-4.0644">
        <ele>6.4</ele>
        <time>2022-06-10T13:07:43Z</time>
      </trkpt>
      <trkpt lat="48.68357" lon="-4.06438">
        <ele>6.4</ele>
        <time>2022-06-10T13:07:44Z</time>
      </trkpt>
      <trkpt lat="48.68087" lon="-4.0628">
        <ele>5.5</ele>
        <time>2022-06-10T13:14:07Z</time>
      </trkpt>
      <trkpt lat="48.68086" lon="-4.06281">
        <ele>5.5</ele>
        <time>2022-06-10T13:14:09Z</time>
      </trkpt>
      <trkpt lat="48.68086" lon="-4.06282">
        <ele>5.5</ele>
        <time>2022-06-10T13:14:10Z</time>
      </trkpt>
      <trkpt lat="48.68086" lon="-4.06282">
        <ele>5.5</ele>
        <time>2022-06-10T13:14:11Z</time>
      </trkpt>
      <trkpt lat="48.68086" lon="-4.06282">
        <ele>5.5</ele>
        <time>2022-06-10T13:14:12Z</time>
      </trkpt>
      <trkpt lat="48.68086" lon="-4.06282">
        <ele>5.5</ele>
        <time>2022-06-10T13:14:13Z</time>
      </trkpt>
      <trkpt lat="48.68086" lon="-4.06282">
        <ele>5.5</ele>
        <time>2022-06-10T13:14:14Z</time>
      </trkpt>
      <trkpt lat="48.68086" lon="-4.06282">
        <ele>5.5</ele>
        <time>2022-06-10T13:14:15Z</time>
      </trkpt>
      <trkpt lat="48.68086" lon="-4.06282">
        <ele>5.5</ele>
        <time>2022-06-10T13:14:17Z</time>
      </trkpt>
      <trkpt lat="48.68086" lon="-4.06282">
        <ele>5.5</ele>
        <time>2022-06-10T13:14:18Z</time>
      </trkpt>
      <trkpt lat="48.68086" lon="-4.06282">
        <ele>5.5</ele>
        <time>2022-06-10T13:14:19Z</time>
      </trkpt>
      <trkpt lat="48.68086" lon="-4.06282">
        <ele>5.5</ele>
        <time>2022-06-10T13:14:20Z</time>
      </trkpt>
      <trkpt lat="48.68086" lon="-4.06282">
        <ele>5.5</ele>
        <time>2022-06-10T13:14:21Z</time>
      </trkpt>
      <trkpt lat="48.68086" lon="-4.06282">
        <ele>5.5</ele>
        <time>2022-06-10T13:14:22Z</time>
      </trkpt>
      <trkpt lat="48.68086" lon="-4.06282">
        <ele>5.5</ele>
        <time>2022-06-10T13:14:23Z</time>
      </trkpt>
      <trkpt lat="48.68086" lon="-4.06282">
        <ele>5.5</ele>
        <time>2022-06-10T13:14:24Z</time>
      </trkpt>
      <trkpt lat="48.68086" lon="-4.06282">
        <ele>5.5</ele>
        <time>2022-06-10T13:14:25Z</time>
      </trkpt>
      <trkpt lat="48.68086" lon="-4.06282">
        <ele>5.5</ele>
        <time>2022-06-10T13:14:26Z</time>
      </trkpt>
      <trkpt lat="48.68086" lon="-4.06282">
        <ele>5.5</ele>
        <time>2022-06-10T13:14:27Z</time>
      </trkpt>
      <trkpt lat="48.68086" lon="-4.06282">
        <ele>5.5</ele>
        <time>2022-06-10T13:14:28Z</time>
      </trkpt>
      <trkpt lat="48.68086" lon="-4.06282">
        <ele>5.5</ele>
        <time>2022-06-10T13:14:29Z</time>
      </trkpt>
      <trkpt lat="48.68086" lon="-4.06282">
        <ele>5.5</ele>
        <time>2022-06-10T13:14:30Z</time>
      </trkpt>
      <trkpt lat="48.68086" lon="-4.06282">
        <ele>5.5</ele>
        <time>2022-06-10T13:14:31Z</time>
      </trkpt>
      <trkpt lat="48.68086" lon="-4.06282">
        <ele>5.5</ele>
        <time>2022-06-10T13:14:32Z</time>
      </trkpt>
      <trkpt lat="48.68086" lon="-4.06282">
        <ele>5.5</ele>
        <time>2022-06-10T13:14:33Z</time>
      </trkpt>
      <trkpt lat="48.68086" lon="-4.06282">
        <ele>5.5</ele>
        <time>2022-06-10T13:14:34Z</time>
      </trkpt>
      <trkpt lat="48.68086" lon="-4.06282">
        <ele>5.5</ele>
        <time>2022-06-10T13:14:35Z</time>
      </trkpt>
      <trkpt lat="48.68086" lon="-4.06282">
        <ele>5.5</ele>
        <time>2022-06-10T13:14:36Z</time>
      </trkpt>
      <trkpt lat="48.68086" lon="-4.06282">
        <ele>5.5</ele>
        <time>2022-06-10T13:14:37Z</time>
      </trkpt>
      <trkpt lat="48.68086" lon="-4.06282">
        <ele>5.5</ele>
        <time>2022-06-10T13:14:38Z</time>
      </trkpt>
      <trkpt lat="48.68086" lon="-4.06282">
        <ele>5.5</ele>
        <time>2022-06-10T13:14:39Z</time>
      </trkpt>
      <trkpt lat="48.68086" lon="-4.06282">
        <ele>5.5</ele>
        <time>2022-06-10T13:14:40Z</time>
      </trkpt>
      <trkpt lat="48.68086" lon="-4.06282">
        <ele>5.5</ele>
        <time>2022-06-10T13:14:41Z</time>
      </trkpt>
      <trkpt lat="48.68086" lon="-4.06282">
        <ele>5.5</ele>
        <time>2022-06-10T13:14:42Z</time>
      </trkpt>
      <trkpt lat="48.68086" lon="-4.06282">
        <ele>5.5</ele>
        <time>2022-06-10T13:14:43Z</time>
      </trkpt>
      <trkpt lat="48.68086" lon="-4.06282">
        <ele>5.5</ele>
        <time>2022-06-10T13:14:44Z</time>
      </trkpt>
      <trkpt lat="48.68086" lon="-4.06282">
        <ele>5.5</ele>
        <time>2022-06-10T13:14:45Z</time>
      </trkpt>
      <trkpt lat="48.68086" lon="-4.06282">
        <ele>5.5</ele>
        <time>2022-06-10T13:14:46Z</time>
      </trkpt>
      <trkpt lat="48.68086" lon="-4.06282">
        <ele>5.5</ele>
        <time>2022-06-10T13:14:47Z</time>
      </trkpt>
      <trkpt lat="48.68086" lon="-4.06282">
        <ele>5.5</ele>
        <time>2022-06-10T13:14:48Z</time>
      </trkpt>
      <trkpt lat="48.68086" lon="-4.06282">
        <ele>5.5</ele>
        <time>2022-06-10T13:14:49Z</time>
      </trkpt>
      <trkpt lat="48.68086" lon="-4.06282">
        <ele>5.5</ele>
        <time>2022-06-10T13:14:50Z</time>
      </trkpt>
      <trkpt lat="48.68086" lon="-4.06282">
        <ele>5.5</ele>
        <time>2022-06-10T13:14:51Z</time>
      </trkpt>
      <trkpt lat="48.68086" lon="-4.06282">
        <ele>5.5</ele>
        <time>2022-06-10T13:14:52Z</time>
      </trkpt>
      <trkpt lat="48.68086" lon="-4.06282">
        <ele>5.5</ele>
        <time>2022-06-10T13:14:53Z</time>
      </trkpt>
      <trkpt lat="48.68086" lon="-4.06282">
        <ele>5.5</ele>
        <time>2022-06-10T13:14:54Z</time>
      </trkpt>
      <trkpt lat="48.68086" lon="-4.06282">
        <ele>5.5</ele>
        <time>2022-06-10T13:14:55Z</time>
      </trkpt>
      <trkpt lat="48.68086" lon="-4.06282">
        <ele>5.5</ele>
        <time>2022-06-10T13:14:56Z</time>
      </trkpt>
      <trkpt lat="48.68086" lon="-4.06282">
        <ele>5.5</ele>
        <time>2022-06-10T13:14:57Z</time>
      </trkpt>
      <trkpt lat="48.68086" lon="-4.06282">
        <ele>5.5</ele>
        <time>2022-06-10T13:14:58Z</time>
      </trkpt>
      <trkpt lat="48.68086" lon="-4.06282">
        <ele>5.5</ele>
        <time>2022-06-10T13:14:59Z</time>
      </trkpt>
      <trkpt lat="48.68086" lon="-4.06282">
        <ele>5.5</ele>
        <time>2022-06-10T13:15:00Z</time>
      </trkpt>
      <trkpt lat="48.68086" lon="-4.06282">
        <ele>5.5</ele>
        <time>2022-06-10T13:15:01Z</time>
      </trkpt>
      <trkpt lat="48.68086" lon="-4.06282">
        <ele>5.5</ele>
        <time>2022-06-10T13:15:02Z</time>
      </trkpt>
      <trkpt lat="48.68086" lon="-4.06282">
        <ele>5.5</ele>
        <time>2022-06-10T13:15:03Z</time>
      </trkpt>
      <trkpt lat="48.68086" lon="-4.06282">
        <ele>5.5</ele>
        <time>2022-06-10T13:15:04Z</time>
      </trkpt>
      <trkpt lat="48.68086" lon="-4.06282">
        <ele>5.5</ele>
        <time>2022-06-10T13:15:05Z</time>
      </trkpt>
      <trkpt lat="48.68086" lon="-4.06282">
        <ele>5.5</ele>
        <time>2022-06-10T13:15:06Z</time>
      </trkpt>
      <trkpt lat="48.68086" lon="-4.06282">
        <ele>5.5</ele>
        <time>2022-06-10T13:15:07Z</time>
      </trkpt>
      <trkpt lat="48.68086" lon="-4.06283">
        <ele>5.5</ele>
        <time>2022-06-10T13:15:09Z</time>
      </trkpt>
      <trkpt lat="48.68086" lon="-4.06282">
        <ele>5.5</ele>
        <time>2022-06-10T13:15:10Z</time>
      </trkpt>
      <trkpt lat="48.68086" lon="-4.06282">
        <ele>5.5</ele>
        <time>2022-06-10T13:15:11Z</time>
      </trkpt>
      <trkpt lat="48.68086" lon="-4.06282">
        <ele>5.5</ele>
        <time>2022-06-10T13:15:12Z</time>
      </trkpt>
      <trkpt lat="48.68085" lon="-4.06282">
        <ele>5.5</ele>
        <time>2022-06-10T13:15:13Z</time>
      </trkpt>
      <trkpt lat="48.68085" lon="-4.06282">
        <ele>5.5</ele>
        <time>2022-06-10T13:15:14Z</time>
      </trkpt>
      <trkpt lat="48.68085" lon="-4.06282">
        <ele>5.5</ele>
        <time>2022-06-10T13:15:15Z</time>
      </trkpt>
      <trkpt lat="48.68085" lon="-4.06282">
        <ele>5.5</ele>
        <time>2022-06-10T13:15:16Z</time>
      </trkpt>
      <trkpt lat="48.68085" lon="-4.06282">
        <ele>5.5</ele>
        <time>2022-06-10T13:15:17Z</time>
      </trkpt>
      <trkpt lat="48.68085" lon="-4.06282">
        <ele>5.5</ele>
        <time>2022-06-10T13:15:18Z</time>
      </trkpt>
      <trkpt lat="48.68085" lon="-4.06282">
        <ele>5.5</ele>
        <time>2022-06-10T13:15:19Z</time>
      </trkpt>
      <trkpt lat="48.68085" lon="-4.06283">
        <ele>5.5</ele>
        <time>2022-06-10T13:15:20Z</time>
      </trkpt>
      <trkpt lat="48.68085" lon="-4.06283">
        <ele>5.5</ele>
        <time>2022-06-10T13:15:22Z</time>
      </trkpt>
      <trkpt lat="48.68085" lon="-4.06283">
        <ele>5.5</ele>
        <time>2022-06-10T13:15:23Z</time>
      </trkpt>
      <trkpt lat="48.68086" lon="-4.06284">
        <ele>5.5</ele>
        <time>2022-06-10T13:15:24Z</time>
      </trkpt>
      <trkpt lat="48.68085" lon="-4.06284">
        <ele>5.5</ele>
        <time>2022-06-10T13:15:25Z</time>
      </trkpt>
      <trkpt lat="48.68085" lon="-4.06286">
        <ele>5.5</ele>
        <time>2022-06-10T13:15:27Z</time>
      </trkpt>
      <trkpt lat="48.68084" lon="-4.06287">
        <ele>5.5</ele>
        <time>2022-06-10T13:15:28Z</time>
      </trkpt>
      <trkpt lat="48.68083" lon="-4.06288">
        <ele>5.5</ele>
        <time>2022-06-10T13:15:30Z</time>
      </trkpt>
      <trkpt lat="48.68082" lon="-4.06289">
        <ele>5.5</ele>
        <time>2022-06-10T13:15:31Z</time>
      </trkpt>
      <trkpt lat="48.68081" lon="-4.0629">
        <ele>5.5</ele>
        <time>2022-06-10T13:15:32Z</time>
      </trkpt>
      <trkpt lat="48.6808" lon="-4.06291">
        <ele>5.5</ele>
        <time>2022-06-10T13:15:33Z</time>
      </trkpt>
      <trkpt lat="48.68079" lon="-4.06292">
        <ele>5.4</ele>
        <time>2022-06-10T13:15:34Z</time>
      </trkpt>
      <trkpt lat="48.68078" lon="-4.06294">
        <ele>5.4</ele>
        <time>2022-06-10T13:15:36Z</time>
      </trkpt>
      <trkpt lat="48.68077" lon="-4.06295">
        <ele>5.4</ele>
        <time>2022-06-10T13:15:37Z</time>
      </trkpt>
      <trkpt lat="48.68077" lon="-4.06296">
        <ele>5.4</ele>
        <time>2022-06-10T13:15:39Z</time>
      </trkpt>
      <trkpt lat="48.68076" lon="-4.06296">
        <ele>5.4</ele>
        <time>2022-06-10T13:15:40Z</time>
      </trkpt>
      <trkpt lat="48.68075" lon="-4.06296">
        <ele>5.4</ele>
        <time>2022-06-10T13:15:41Z</time>
      </trkpt>
      <trkpt lat="48.68074" lon="-4.06296">
        <ele>5.4</ele>
        <time>2022-06-10T13:15:42Z</time>
      </trkpt>
      <trkpt lat="48.68074" lon="-4.06296">
        <ele>5.3</ele>
        <time>2022-06-10T13:15:44Z</time>
      </trkpt>
      <trkpt lat="48.68073" lon="-4.06295">
        <ele>5.3</ele>
        <time>2022-06-10T13:15:45Z</time>
      </trkpt>
      <trkpt lat="48.68073" lon="-4.06294">
        <ele>5.3</ele>
        <time>2022-06-10T13:15:46Z</time>
      </trkpt>
      <trkpt lat="48.68072" lon="-4.06293">
        <ele>5.3</ele>
        <time>2022-06-10T13:15:47Z</time>
      </trkpt>
      <trkpt lat="48.68071" lon="-4.06293">
        <ele>5.3</ele>
        <time>2022-06-10T13:15:49Z</time>
      </trkpt>
      <trkpt lat="48.6807" lon="-4.06292">
        <ele>5.3</ele>
        <time>2022-06-10T13:15:50Z</time>
      </trkpt>
      <trkpt lat="48.68069" lon="-4.06292">
        <ele>5.3</ele>
        <time>2022-06-10T13:15:51Z</time>
      </trkpt>
      <trkpt lat="48.68068" lon="-4.06292">
        <ele>5.3</ele>
        <time>2022-06-10T13:15:52Z</time>
      </trkpt>
      <trkpt lat="48.68068" lon="-4.06292">
        <ele>5.3</ele>
        <time>2022-06-10T13:15:53Z</time>
      </trkpt>
      <trkpt lat="48.68067" lon="-4.06292">
        <ele>5.3</ele>
        <time>2022-06-10T13:15:54Z</time>
      </trkpt>
      <trkpt lat="48.68066" lon="-4.06292">
        <ele>5.3</ele>
        <time>2022-06-10T13:15:55Z</time>
      </trkpt>
      <trkpt lat="48.68065" lon="-4.06291">
        <ele>5.3</ele>
        <time>2022-06-10T13:15:56Z</time>
      </trkpt>
      <trkpt lat="48.68064" lon="-4.0629">
        <ele>5.2</ele>
        <time>2022-06-10T13:15:58Z</time>
      </trkpt>
      <trkpt lat="48.68063" lon="-4.06289">
        <ele>5.2</ele>
        <time>2022-06-10T13:15:59Z</time>
      </trkpt>
      <trkpt lat="48.68063" lon="-4.06288">
        <ele>5.2</ele>
        <time>2022-06-10T13:16:00Z</time>
      </trkpt>
      <trkpt lat="48.68062" lon="-4.06287">
        <ele>5.2</ele>
        <time>2022-06-10T13:16:01Z</time>
      </trkpt>
      <trkpt lat="48.68061" lon="-4.06286">
        <ele>5.2</ele>
        <time>2022-06-10T13:16:02Z</time>
      </trkpt>
      <trkpt lat="48.68061" lon="-4.06284">
        <ele>5.2</ele>
        <time>2022-06-10T13:16:03Z</time>
      </trkpt>
      <trkpt lat="48.6806" lon="-4.06283">
        <ele>5.2</ele>
        <time>2022-06-10T13:16:04Z</time>
      </trkpt>
      <trkpt lat="48.6806" lon="-4.06281">
        <ele>5.1</ele>
        <time>2022-06-10T13:16:06Z</time>
      </trkpt>
      <trkpt lat="48.68059" lon="-4.0628">
        <ele>5.1</ele>
        <time>2022-06-10T13:16:07Z</time>
      </trkpt>
      <trkpt lat="48.68058" lon="-4.06279">
        <ele>5.1</ele>
        <time>2022-06-10T13:16:08Z</time>
      </trkpt>
      <trkpt lat="48.68058" lon="-4.06278">
        <ele>5.1</ele>
        <time>2022-06-10T13:16:09Z</time>
      </trkpt>
      <trkpt lat="48.68057" lon="-4.06277">
        <ele>5.1</ele>
        <time>2022-06-10T13:16:10Z</time>
      </trkpt>
      <trkpt lat="48.68057" lon="-4.06278">
        <ele>5.1</ele>
        <time>2022-06-10T13:16:12Z</time>
      </trkpt>
      <trkpt lat="48.68057" lon="-4.0628">
        <ele>5</ele>
        <time>2022-06-10T13:16:13Z</time>
      </trkpt>
      <trkpt lat="48.68057" lon="-4.06281">
        <ele>5</ele>
        <time>2022-06-10T13:16:14Z</time>
      </trkpt>
      <trkpt lat="48.68056" lon="-4.06282">
        <ele>5</ele>
        <time>2022-06-10T13:16:16Z</time>
      </trkpt>
      <trkpt lat="48.68056" lon="-4.06282">
        <ele>5</ele>
        <time>2022-06-10T13:16:17Z</time>
      </trkpt>
      <trkpt lat="48.68055" lon="-4.06282">
        <ele>5</ele>
        <time>2022-06-10T13:16:18Z</time>
      </trkpt>
      <trkpt lat="48.68055" lon="-4.06282">
        <ele>5</ele>
        <time>2022-06-10T13:16:19Z</time>
      </trkpt>
      <trkpt lat="48.68056" lon="-4.06282">
        <ele>5</ele>
        <time>2022-06-10T13:16:20Z</time>
      </trkpt>
      <trkpt lat="48.68056" lon="-4.06282">
        <ele>5</ele>
        <time>2022-06-10T13:16:21Z</time>
      </trkpt>
      <trkpt lat="48.68056" lon="-4.06282">
        <ele>5</ele>
        <time>2022-06-10T13:16:22Z</time>
      </trkpt>
      <trkpt lat="48.68056" lon="-4.06282">
        <ele>5</ele>
        <time>2022-06-10T13:16:23Z</time>
      </trkpt>
      <trkpt lat="48.68056" lon="-4.06282">
        <ele>5</ele>
        <time>2022-06-10T13:16:24Z</time>
      </trkpt>
      <trkpt lat="48.68056" lon="-4.06282">
        <ele>5</ele>
        <time>2022-06-10T13:16:25Z</time>
      </trkpt>
      <trkpt lat="48.68057" lon="-4.06281">
        <ele>4.9</ele>
        <time>2022-06-10T13:16:26Z</time>
      </trkpt>
      <trkpt lat="48.68057" lon="-4.06281">
        <ele>4.9</ele>
        <time>2022-06-10T13:16:27Z</time>
      </trkpt>
      <trkpt lat="48.68057" lon="-4.06281">
        <ele>4.9</ele>
        <time>2022-06-10T13:16:28Z</time>
      </trkpt>
      <trkpt lat="48.68057" lon="-4.06281">
        <ele>4.9</ele>
        <time>2022-06-10T13:16:29Z</time>
      </trkpt>
      <trkpt lat="48.68058" lon="-4.0628">
        <ele>4.9</ele>
        <time>2022-06-10T13:16:30Z</time>
      </trkpt>
      <trkpt lat="48.68058" lon="-4.0628">
        <ele>4.9</ele>
        <time>2022-06-10T13:16:31Z</time>
      </trkpt>
      <trkpt lat="48.68059" lon="-4.06279">
        <ele>4.9</ele>
        <time>2022-06-10T13:16:33Z</time>
      </trkpt>
      <trkpt lat="48.68059" lon="-4.06278">
        <ele>4.9</ele>
        <time>2022-06-10T13:16:34Z</time>
      </trkpt>
      <trkpt lat="48.68059" lon="-4.06276">
        <ele>4.8</ele>
        <time>2022-06-10T13:16:35Z</time>
      </trkpt>
      <trkpt lat="48.68059" lon="-4.06275">
        <ele>4.8</ele>
        <time>2022-06-10T13:16:36Z</time>
      </trkpt>
      <trkpt lat="48.68059" lon="-4.06271">
        <ele>4.8</ele>
        <time>2022-06-10T13:16:38Z</time>
      </trkpt>
      <trkpt lat="48.68058" lon="-4.0627">
        <ele>4.8</ele>
        <time>2022-06-10T13:16:39Z</time>
      </trkpt>
      <trkpt lat="48.68058" lon="-4.06269">
        <ele>4.7</ele>
        <time>2022-06-10T13:16:40Z</time>
      </trkpt>
      <trkpt lat="48.68058" lon="-4.06267">
        <ele>4.7</ele>
        <time>2022-06-10T13:16:42Z</time>
      </trkpt>
      <trkpt lat="48.68057" lon="-4.06265">
        <ele>4.7</ele>
        <time>2022-06-10T13:16:43Z</time>
      </trkpt>
      <trkpt lat="48.67735" lon="-4.059">
        <ele>7.7</ele>
        <time>2022-06-10T13:27:28Z</time>
      </trkpt>
      <trkpt lat="48.67736" lon="-4.05906">
        <ele>7.9</ele>
        <time>2022-06-10T13:27:30Z</time>
      </trkpt>
      <trkpt lat="48.67737" lon="-4.05907">
        <ele>8</ele>
        <time>2022-06-10T13:27:31Z</time>
      </trkpt>
      <trkpt lat="48.67737" lon="-4.05908">
        <ele>8.1</ele>
        <time>2022-06-10T13:27:33Z</time>
      </trkpt>
      <trkpt lat="48.67737" lon="-4.05908">
        <ele>8.1</ele>
        <time>2022-06-10T13:27:34Z</time>
      </trkpt>
      <trkpt lat="48.67737" lon="-4.05908">
        <ele>8.1</ele>
        <time>2022-06-10T13:27:35Z</time>
      </trkpt>
      <trkpt lat="48.67737" lon="-4.05909">
        <ele>8.1</ele>
        <time>2022-06-10T13:27:36Z</time>
      </trkpt>
      <trkpt lat="48.67737" lon="-4.05909">
        <ele>8.1</ele>
        <time>2022-06-10T13:27:37Z</time>
      </trkpt>
      <trkpt lat="48.67737" lon="-4.05909">
        <ele>8.1</ele>
        <time>2022-06-10T13:27:38Z</time>
      </trkpt>
      <trkpt lat="48.67737" lon="-4.05909">
        <ele>8.1</ele>
        <time>2022-06-10T13:27:39Z</time>
      </trkpt>
      <trkpt lat="48.67737" lon="-4.05909">
        <ele>8.1</ele>
        <time>2022-06-10T13:27:40Z</time>
      </trkpt>
      <trkpt lat="48.67737" lon="-4.05909">
        <ele>8.1</ele>
        <time>2022-06-10T13:27:41Z</time>
      </trkpt>
      <trkpt lat="48.67737" lon="-4.05909">
        <ele>8.1</ele>
        <time>2022-06-10T13:27:42Z</time>
      </trkpt>
      <trkpt lat="48.67737" lon="-4.05909">
        <ele>8.1</ele>
        <time>2022-06-10T13:27:43Z</time>
      </trkpt>
      <trkpt lat="48.67737" lon="-4.05909">
        <ele>8.1</ele>
        <time>2022-06-10T13:27:44Z</time>
      </trkpt>
      <trkpt lat="48.67737" lon="-4.05909">
        <ele>8.1</ele>
        <time>2022-06-10T13:27:45Z</time>
      </trkpt>
      <trkpt lat="48.67737" lon="-4.05909">
        <ele>8.1</ele>
        <time>2022-06-10T13:27:46Z</time>
      </trkpt>
      <trkpt lat="48.67737" lon="-4.05909">
        <ele>8.1</ele>
        <time>2022-06-10T13:27:47Z</time>
      </trkpt>
      <trkpt lat="48.67737" lon="-4.05909">
        <ele>8.1</ele>
        <time>2022-06-10T13:27:48Z</time>
      </trkpt>
      <trkpt lat="48.67737" lon="-4.05909">
        <ele>8.1</ele>
        <time>2022-06-10T13:27:49Z</time>
      </trkpt>
      <trkpt lat="48.67737" lon="-4.05909">
        <ele>8.1</ele>
        <time>2022-06-10T13:27:50Z</time>
      </trkpt>
      <trkpt lat="48.67737" lon="-4.05909">
        <ele>8.1</ele>
        <time>2022-06-10T13:27:51Z</time>
      </trkpt>
      <trkpt lat="48.67737" lon="-4.05909">
        <ele>8.1</ele>
        <time>2022-06-10T13:27:52Z</time>
      </trkpt>
      <trkpt lat="48.67737" lon="-4.05909">
        <ele>8.1</ele>
        <time>2022-06-10T13:27:53Z</time>
      </trkpt>
      <trkpt lat="48.67737" lon="-4.05909">
        <ele>8.1</ele>
        <time>2022-06-10T13:27:54Z</time>
      </trkpt>
      <trkpt lat="48.67737" lon="-4.05909">
        <ele>8.1</ele>
        <time>2022-06-10T13:27:55Z</time>
      </trkpt>
      <trkpt lat="48.67737" lon="-4.05909">
        <ele>8.1</ele>
        <time>2022-06-10T13:27:56Z</time>
      </trkpt>
      <trkpt lat="48.67737" lon="-4.05909">
        <ele>8.1</ele>
        <time>2022-06-10T13:27:57Z</time>
      </trkpt>
      <trkpt lat="48.67737" lon="-4.05909">
        <ele>8.1</ele>
        <time>2022-06-10T13:27:58Z</time>
      </trkpt>
      <trkpt lat="48.67737" lon="-4.0591">
        <ele>8.2</ele>
        <time>2022-06-10T13:27:59Z</time>
      </trkpt>
      <trkpt lat="48.67737" lon="-4.0591">
        <ele>8.2</ele>
        <time>2022-06-10T13:28:00Z</time>
      </trkpt>
      <trkpt lat="48.67737" lon="-4.0591">
        <ele>8.2</ele>
        <time>2022-06-10T13:28:01Z</time>
      </trkpt>
      <trkpt lat="48.67737" lon="-4.0591">
        <ele>8.2</ele>
        <time>2022-06-10T13:28:02Z</time>
      </trkpt>
      <trkpt lat="48.67737" lon="-4.0591">
        <ele>8.2</ele>
        <time>2022-06-10T13:28:03Z</time>
      </trkpt>
      <trkpt lat="48.67737" lon="-4.0591">
        <ele>8.2</ele>
        <time>2022-06-10T13:28:04Z</time>
      </trkpt>
      <trkpt lat="48.67737" lon="-4.0591">
        <ele>8.2</ele>
        <time>2022-06-10T13:28:06Z</time>
      </trkpt>
      <trkpt lat="48.67737" lon="-4.0591">
        <ele>8.2</ele>
        <time>2022-06-10T13:28:07Z</time>
      </trkpt>
      <trkpt lat="48.67736" lon="-4.05908">
        <ele>8.3</ele>
        <time>2022-06-10T13:28:08Z</time>
      </trkpt>
      <trkpt lat="48.67735" lon="-4.05906">
        <ele>8.4</ele>
        <time>2022-06-10T13:28:09Z</time>
      </trkpt>
      <trkpt lat="48.67733" lon="-4.05903">
        <ele>8.6</ele>
        <time>2022-06-10T13:28:10Z</time>
      </trkpt>
      <trkpt lat="48.67732" lon="-4.05901">
        <ele>8.6</ele>
        <time>2022-06-10T13:28:11Z</time>
      </trkpt>
      <trkpt lat="48.67731" lon="-4.05898">
        <ele>8.6</ele>
        <time>2022-06-10T13:28:13Z</time>
      </trkpt>
      <trkpt lat="48.6773" lon="-4.05897">
        <ele>8.6</ele>
        <time>2022-06-10T13:28:14Z</time>
      </trkpt>
      <trkpt lat="48.6773" lon="-4.05896">
        <ele>8.6</ele>
        <time>2022-06-10T13:28:15Z</time>
      </trkpt>
      <trkpt lat="48.6773" lon="-4.05895">
        <ele>8.6</ele>
        <time>2022-06-10T13:28:16Z</time>
      </trkpt>
      <trkpt lat="48.67729" lon="-4.05894">
        <ele>8.6</ele>
        <time>2022-06-10T13:28:17Z</time>
      </trkpt>
      <trkpt lat="48.67729" lon="-4.05893">
        <ele>8.6</ele>
        <time>2022-06-10T13:28:18Z</time>
      </trkpt>
      <trkpt lat="48.67729" lon="-4.05892">
        <ele>8.6</ele>
        <time>2022-06-10T13:28:20Z</time>
      </trkpt>
      <trkpt lat="48.67729" lon="-4.05891">
        <ele>8.6</ele>
        <time>2022-06-10T13:28:21Z</time>
      </trkpt>
      <trkpt lat="48.67729" lon="-4.05891">
        <ele>8.6</ele>
        <time>2022-06-10T13:28:22Z</time>
      </trkpt>
      <trkpt lat="48.67729" lon="-4.05891">
        <ele>8.6</ele>
        <time>2022-06-10T13:28:23Z</time>
      </trkpt>
      <trkpt lat="48.6773" lon="-4.05891">
        <ele>8.6</ele>
        <time>2022-06-10T13:28:24Z</time>
      </trkpt>
      <trkpt lat="48.6773" lon="-4.05891">
        <ele>8.6</ele>
        <time>2022-06-10T13:28:25Z</time>
      </trkpt>
      <trkpt lat="48.6773" lon="-4.0589">
        <ele>8.6</ele>
        <time>2022-06-10T13:28:26Z</time>
      </trkpt>
      <trkpt lat="48.67731" lon="-4.0589">
        <ele>8.6</ele>
        <time>2022-06-10T13:28:27Z</time>
      </trkpt>
      <trkpt lat="48.67732" lon="-4.05892">
        <ele>8.5</ele>
        <time>2022-06-10T13:28:28Z</time>
      </trkpt>
      <trkpt lat="48.67733" lon="-4.05893">
        <ele>8.5</ele>
        <time>2022-06-10T13:28:30Z</time>
      </trkpt>
      <trkpt lat="48.67734" lon="-4.05893">
        <ele>8.5</ele>
        <time>2022-06-10T13:28:31Z</time>
      </trkpt>
      <trkpt lat="48.67734" lon="-4.05894">
        <ele>8.5</ele>
        <time>2022-06-10T13:28:32Z</time>
      </trkpt>
      <trkpt lat="48.67734" lon="-4.05894">
        <ele>8.5</ele>
        <time>2022-06-10T13:28:33Z</time>
      </trkpt>
      <trkpt lat="48.67735" lon="-4.05894">
        <ele>8.5</ele>
        <time>2022-06-10T13:28:34Z</time>
      </trkpt>
      <trkpt lat="48.67735" lon="-4.05895">
        <ele>8.5</ele>
        <time>2022-06-10T13:28:35Z</time>
      </trkpt>
      <trkpt lat="48.67735" lon="-4.05895">
        <ele>8.5</ele>
        <time>2022-06-10T13:28:36Z</time>
      </trkpt>
      <trkpt lat="48.67735" lon="-4.05895">
        <ele>8.5</ele>
        <time>2022-06-10T13:28:37Z</time>
      </trkpt>
      <trkpt lat="48.67735" lon="-4.05895">
        <ele>8.5</ele>
        <time>2022-06-10T13:28:38Z</time>
      </trkpt>
      <trkpt lat="48.67735" lon="-4.05894">
        <ele>8.5</ele>
        <time>2022-06-10T13:28:39Z</time>
      </trkpt>
      <trkpt lat="48.67735" lon="-4.05893">
        <ele>8.5</ele>
        <time>2022-06-10T13:28:41Z</time>
      </trkpt>
      <trkpt lat="48.67735" lon="-4.05893">
        <ele>8.5</ele>
        <time>2022-06-10T13:28:42Z</time>
      </trkpt>
      <trkpt lat="48.67736" lon="-4.05892">
        <ele>8.5</ele>
        <time>2022-06-10T13:28:43Z</time>
      </trkpt>
      <trkpt lat="48.67736" lon="-4.05891">
        <ele>8.5</ele>
        <time>2022-06-10T13:28:44Z</time>
      </trkpt>
      <trkpt lat="48.67736" lon="-4.05891">
        <ele>8.5</ele>
        <time>2022-06-10T13:28:45Z</time>
      </trkpt>
      <trkpt lat="48.67735" lon="-4.05892">
        <ele>8.5</ele>
        <time>2022-06-10T13:28:46Z</time>
      </trkpt>
      <trkpt lat="48.67733" lon="-4.05894">
        <ele>8.5</ele>
        <time>2022-06-10T13:28:47Z</time>
      </trkpt>
      <trkpt lat="48.67732" lon="-4.05894">
        <ele>8.5</ele>
        <time>2022-06-10T13:28:49Z</time>
      </trkpt>
      <trkpt lat="48.67731" lon="-4.05895">
        <ele>8.5</ele>
        <time>2022-06-10T13:28:50Z</time>
      </trkpt>
      <trkpt lat="48.67731" lon="-4.05893">
        <ele>8.5</ele>
        <time>2022-06-10T13:28:51Z</time>
      </trkpt>
      <trkpt lat="48.67731" lon="-4.05893">
        <ele>8.4</ele>
        <time>2022-06-10T13:28:52Z</time>
      </trkpt>
      <trkpt lat="48.67731" lon="-4.05892">
        <ele>8.4</ele>
        <time>2022-06-10T13:28:53Z</time>
      </trkpt>
      <trkpt lat="48.67731" lon="-4.05891">
        <ele>8.4</ele>
        <time>2022-06-10T13:28:55Z</time>
      </trkpt>
      <trkpt lat="48.6773" lon="-4.05891">
        <ele>8.4</ele>
        <time>2022-06-10T13:28:56Z</time>
      </trkpt>
      <trkpt lat="48.67727" lon="-4.05893">
        <ele>8.4</ele>
        <time>2022-06-10T13:28:57Z</time>
      </trkpt>
      <trkpt lat="48.67723" lon="-4.05898">
        <ele>8.3</ele>
        <time>2022-06-10T13:28:59Z</time>
      </trkpt>
      <trkpt lat="48.67717" lon="-4.05905">
        <ele>8.2</ele>
        <time>2022-06-10T13:29:00Z</time>
      </trkpt>
      <trkpt lat="48.67588" lon="-4.05739">
        <ele>7.1</ele>
        <time>2022-06-10T13:32:58Z</time>
      </trkpt>
      <trkpt lat="48.67594" lon="-4.05748">
        <ele>7.1</ele>
        <time>2022-06-10T13:33:00Z</time>
      </trkpt>
      <trkpt lat="48.67596" lon="-4.05752">
        <ele>7.2</ele>
        <time>2022-06-10T13:33:01Z</time>
      </trkpt>
      <trkpt lat="48.67593" lon="-4.05745">
        <ele>7.2</ele>
        <time>2022-06-10T13:33:02Z</time>
      </trkpt>
      <trkpt lat="48.67591" lon="-4.0574">
        <ele>7.2</ele>
        <time>2022-06-10T13:33:03Z</time>
      </trkpt>
      <trkpt lat="48.67589" lon="-4.05736">
        <ele>7.2</ele>
        <time>2022-06-10T13:33:04Z</time>
      </trkpt>
      <trkpt lat="48.67587" lon="-4.05732">
        <ele>7.3</ele>
        <time>2022-06-10T13:33:05Z</time>
      </trkpt>
      <trkpt lat="48.67584" lon="-4.05726">
        <ele>7.3</ele>
        <time>2022-06-10T13:33:06Z</time>
      </trkpt>
      <trkpt lat="48.67584" lon="-4.05725">
        <ele>7.3</ele>
        <time>2022-06-10T13:33:07Z</time>
      </trkpt>
      <trkpt lat="48.67584" lon="-4.05725">
        <ele>7.3</ele>
        <time>2022-06-10T13:33:08Z</time>
      </trkpt>
      <trkpt lat="48.67583" lon="-4.05725">
        <ele>7.3</ele>
        <time>2022-06-10T13:33:09Z</time>
      </trkpt>
      <trkpt lat="48.67583" lon="-4.05725">
        <ele>7.3</ele>
        <time>2022-06-10T13:33:10Z</time>
      </trkpt>
      <trkpt lat="48.67583" lon="-4.05725">
        <ele>7.3</ele>
        <time>2022-06-10T13:33:11Z</time>
      </trkpt>
      <trkpt lat="48.67583" lon="-4.05725">
        <ele>7.3</ele>
        <time>2022-06-10T13:33:12Z</time>
      </trkpt>
      <trkpt lat="48.67583" lon="-4.05724">
        <ele>7.3</ele>
        <time>2022-06-10T13:33:13Z</time>
      </trkpt>
      <trkpt lat="48.67583" lon="-4.05724">
        <ele>7.3</ele>
        <time>2022-06-10T13:33:14Z</time>
      </trkpt>
      <trkpt lat="48.67582" lon="-4.05724">
        <ele>7.4</ele>
        <time>2022-06-10T13:33:15Z</time>
      </trkpt>
      <trkpt lat="48.67582" lon="-4.05724">
        <ele>7.4</ele>
        <time>2022-06-10T13:33:16Z</time>
      </trkpt>
      <trkpt lat="48.67582" lon="-4.05724">
        <ele>7.4</ele>
        <time>2022-06-10T13:33:17Z</time>
      </trkpt>
      <trkpt lat="48.67582" lon="-4.05724">
        <ele>7.4</ele>
        <time>2022-06-10T13:33:18Z</time>
      </trkpt>
      <trkpt lat="48.67582" lon="-4.05724">
        <ele>7.4</ele>
        <time>2022-06-10T13:33:20Z</time>
      </trkpt>
      <trkpt lat="48.67581" lon="-4.05723">
        <ele>7.4</ele>
        <time>2022-06-10T13:33:21Z</time>
      </trkpt>
      <trkpt lat="48.67581" lon="-4.05723">
        <ele>7.4</ele>
        <time>2022-06-10T13:33:22Z</time>
      </trkpt>
      <trkpt lat="48.67581" lon="-4.05723">
        <ele>7.4</ele>
        <time>2022-06-10T13:33:23Z</time>
      </trkpt>
      <trkpt lat="48.67581" lon="-4.05723">
        <ele>7.4</ele>
        <time>2022-06-10T13:33:24Z</time>
      </trkpt>
      <trkpt lat="48.67581" lon="-4.05723">
        <ele>7.4</ele>
        <time>2022-06-10T13:33:25Z</time>
      </trkpt>
      <trkpt lat="48.67581" lon="-4.05723">
        <ele>7.4</ele>
        <time>2022-06-10T13:33:26Z</time>
      </trkpt>
      <trkpt lat="48.6758" lon="-4.05722">
        <ele>7.4</ele>
        <time>2022-06-10T13:33:27Z</time>
      </trkpt>
      <trkpt lat="48.67578" lon="-4.0572">
        <ele>7.4</ele>
        <time>2022-06-10T13:33:28Z</time>
      </trkpt>
      <trkpt lat="48.67577" lon="-4.05719">
        <ele>7.4</ele>
        <time>2022-06-10T13:33:29Z</time>
      </trkpt>
      <trkpt lat="48.67576" lon="-4.05717">
        <ele>7.5</ele>
        <time>2022-06-10T13:33:30Z</time>
      </trkpt>
      <trkpt lat="48.67575" lon="-4.05716">
        <ele>7.5</ele>
        <time>2022-06-10T13:33:31Z</time>
      </trkpt>
      <trkpt lat="48.67573" lon="-4.05715">
        <ele>7.5</ele>
        <time>2022-06-10T13:33:32Z</time>
      </trkpt>
      <trkpt lat="48.6757" lon="-4.0571">
        <ele>7.6</ele>
        <time>2022-06-10T13:33:33Z</time>
      </trkpt>
      <trkpt lat="48.67569" lon="-4.05708">
        <ele>7.6</ele>
        <time>2022-06-10T13:33:34Z</time>
      </trkpt>
      <trkpt lat="48.67568" lon="-4.05707">
        <ele>7.6</ele>
        <time>2022-06-10T13:33:35Z</time>
      </trkpt>
      <trkpt lat="48.67566" lon="-4.05705">
        <ele>7.6</ele>
        <time>2022-06-10T13:33:36Z</time>
      </trkpt>
      <trkpt lat="48.67565" lon="-4.05705">
        <ele>7.6</ele>
        <time>2022-06-10T13:33:38Z</time>
      </trkpt>
      <trkpt lat="48.67564" lon="-4.05704">
        <ele>7.7</ele>
        <time>2022-06-10T13:33:39Z</time>
      </trkpt>
      <trkpt lat="48.67564" lon="-4.05703">
        <ele>7.7</ele>
        <time>2022-06-10T13:33:40Z</time>
      </trkpt>
      <trkpt lat="48.67563" lon="-4.05703">
        <ele>7.7</ele>
        <time>2022-06-10T13:33:41Z</time>
      </trkpt>
      <trkpt lat="48.67563" lon="-4.05703">
        <ele>7.7</ele>
        <time>2022-06-10T13:33:42Z</time>
      </trkpt>
      <trkpt lat="48.67562" lon="-4.05703">
        <ele>7.7</ele>
        <time>2022-06-10T13:33:43Z</time>
      </trkpt>
      <trkpt lat="48.67562" lon="-4.05702">
        <ele>7.7</ele>
        <time>2022-06-10T13:33:44Z</time>
      </trkpt>
      <trkpt lat="48.67562" lon="-4.05702">
        <ele>7.7</ele>
        <time>2022-06-10T13:33:45Z</time>
      </trkpt>
      <trkpt lat="48.67562" lon="-4.05702">
        <ele>7.7</ele>
        <time>2022-06-10T13:33:46Z</time>
      </trkpt>
      <trkpt lat="48.67562" lon="-4.05701">
        <ele>7.7</ele>
        <time>2022-06-10T13:33:48Z</time>
      </trkpt>
      <trkpt lat="48.67561" lon="-4.057">
        <ele>7.7</ele>
        <time>2022-06-10T13:33:49Z</time>
      </trkpt>
      <trkpt lat="48.67561" lon="-4.05699">
        <ele>7.7</ele>
        <time>2022-06-10T13:33:50Z</time>
      </trkpt>
      <trkpt lat="48.6756" lon="-4.05698">
        <ele>7.7</ele>
        <time>2022-06-10T13:33:51Z</time>
      </trkpt>
      <trkpt lat="48.6756" lon="-4.05697">
        <ele>7.7</ele>
        <time>2022-06-10T13:33:52Z</time>
      </trkpt>
      <trkpt lat="48.67559" lon="-4.05697">
        <ele>7.7</ele>
        <time>2022-06-10T13:33:53Z</time>
      </trkpt>
      <trkpt lat="48.67559" lon="-4.05697">
        <ele>7.7</ele>
        <time>2022-06-10T13:33:54Z</time>
      </trkpt>
      <trkpt lat="48.67559" lon="-4.05697">
        <ele>7.7</ele>
        <time>2022-06-10T13:33:55Z</time>
      </trkpt>
      <trkpt lat="48.67559" lon="-4.05697">
        <ele>7.7</ele>
        <time>2022-06-10T13:33:56Z</time>
      </trkpt>
      <trkpt lat="48.67559" lon="-4.05696">
        <ele>7.7</ele>
        <time>2022-06-10T13:33:58Z</time>
      </trkpt>
      <trkpt lat="48.67559" lon="-4.05696">
        <ele>7.7</ele>
        <time>2022-06-10T13:33:59Z</time>
      </trkpt>
      <trkpt lat="48.67558" lon="-4.05696">
        <ele>7.8</ele>
        <time>2022-06-10T13:34:00Z</time>
      </trkpt>
      <trkpt lat="48.67557" lon="-4.05696">
        <ele>7.8</ele>
        <time>2022-06-10T13:34:01Z</time>
      </trkpt>
      <trkpt lat="48.67556" lon="-4.05696">
        <ele>7.8</ele>
        <time>2022-06-10T13:34:02Z</time>
      </trkpt>
      <trkpt lat="48.67554" lon="-4.05696">
        <ele>7.8</ele>
        <time>2022-06-10T13:34:04Z</time>
      </trkpt>
      <trkpt lat="48.67554" lon="-4.05698">
        <ele>7.8</ele>
        <time>2022-06-10T13:34:05Z</time>
      </trkpt>
      <trkpt lat="48.67552" lon="-4.05699">
        <ele>7.8</ele>
        <time>2022-06-10T13:34:06Z</time>
      </trkpt>
      <trkpt lat="48.67551" lon="-4.057">
        <ele>7.8</ele>
        <time>2022-06-10T13:34:08Z</time>
      </trkpt>
      <trkpt lat="48.6755" lon="-4.057">
        <ele>7.8</ele>
        <time>2022-06-10T13:34:09Z</time>
      </trkpt>
      <trkpt lat="48.6755" lon="-4.05701">
        <ele>7.8</ele>
        <time>2022-06-10T13:34:10Z</time>
      </trkpt>
      <trkpt lat="48.67549" lon="-4.05701">
        <ele>7.8</ele>
        <time>2022-06-10T13:34:12Z</time>
      </trkpt>
      <trkpt lat="48.67548" lon="-4.057">
        <ele>7.8</ele>
        <time>2022-06-10T13:34:13Z</time>
      </trkpt>
      <trkpt lat="48.67547" lon="-4.057">
        <ele>7.7</ele>
        <time>2022-06-10T13:34:14Z</time>
      </trkpt>
      <trkpt lat="48.67547" lon="-4.057">
        <ele>7.7</ele>
        <time>2022-06-10T13:34:15Z</time>
      </trkpt>
      <trkpt lat="48.67546" lon="-4.05699">
        <ele>7.7</ele>
        <time>2022-06-10T13:34:16Z</time>
      </trkpt>
      <trkpt lat="48.67546" lon="-4.05699">
        <ele>7.7</ele>
        <time>2022-06-10T13:34:17Z</time>
      </trkpt>
      <trkpt lat="48.67545" lon="-4.057">
        <ele>7.7</ele>
        <time>2022-06-10T13:34:21Z</time>
      </trkpt>
      <trkpt lat="48.67545" lon="-4.05701">
        <ele>7.7</ele>
        <time>2022-06-10T13:34:23Z</time>
      </trkpt>
      <trkpt lat="48.67539" lon="-4.05701">
        <ele>7.7</ele>
        <time>2022-06-10T13:34:34Z</time>
      </trkpt>
      <trkpt lat="48.67539" lon="-4.05701">
        <ele>7.7</ele>
        <time>2022-06-10T13:34:35Z</time>
      </trkpt>
      <trkpt lat="48.67533" lon="-4.05703">
        <ele>7.6</ele>
        <time>2022-06-10T13:34:37Z</time>
      </trkpt>
      <trkpt lat="48.67532" lon="-4.057">
        <ele>7.6</ele>
        <time>2022-06-10T13:34:38Z</time>
      </trkpt>
      <trkpt lat="48.67532" lon="-4.05698">
        <ele>7.6</ele>
        <time>2022-06-10T13:34:39Z</time>
      </trkpt>
      <trkpt lat="48.67533" lon="-4.05696">
        <ele>7.6</ele>
        <time>2022-06-10T13:34:40Z</time>
      </trkpt>
      <trkpt lat="48.67533" lon="-4.05694">
        <ele>7.6</ele>
        <time>2022-06-10T13:34:41Z</time>
      </trkpt>
      <trkpt lat="48.67533" lon="-4.05691">
        <ele>7.6</ele>
        <time>2022-06-10T13:34:42Z</time>
      </trkpt>
      <trkpt lat="48.67533" lon="-4.05688">
        <ele>7.6</ele>
        <time>2022-06-10T13:34:43Z</time>
      </trkpt>
      <trkpt lat="48.67532" lon="-4.05686">
        <ele>7.6</ele>
        <time>2022-06-10T13:34:44Z</time>
      </trkpt>
      <trkpt lat="48.67532" lon="-4.05685">
        <ele>7.5</ele>
        <time>2022-06-10T13:34:45Z</time>
      </trkpt>
      <trkpt lat="48.67532" lon="-4.05685">
        <ele>7.5</ele>
        <time>2022-06-10T13:34:46Z</time>
      </trkpt>
      <trkpt lat="48.67532" lon="-4.05686">
        <ele>7.5</ele>
        <time>2022-06-10T13:34:47Z</time>
      </trkpt>
      <trkpt lat="48.67532" lon="-4.05686">
        <ele>7.5</ele>
        <time>2022-06-10T13:34:48Z</time>
      </trkpt>
      <trkpt lat="48.67533" lon="-4.05686">
        <ele>7.5</ele>
        <time>2022-06-10T13:34:49Z</time>
      </trkpt>
      <trkpt lat="48.67533" lon="-4.05687">
        <ele>7.5</ele>
        <time>2022-06-10T13:34:50Z</time>
      </trkpt>
      <trkpt lat="48.67533" lon="-4.05687">
        <ele>7.5</ele>
        <time>2022-06-10T13:34:51Z</time>
      </trkpt>
      <trkpt lat="48.67533" lon="-4.05687">
        <ele>7.5</ele>
        <time>2022-06-10T13:34:52Z</time>
      </trkpt>
      <trkpt lat="48.67533" lon="-4.05687">
        <ele>7.5</ele>
        <time>2022-06-10T13:34:53Z</time>
      </trkpt>
      <trkpt lat="48.67533" lon="-4.05688">
        <ele>7.5</ele>
        <time>2022-06-10T13:34:54Z</time>
      </trkpt>
      <trkpt lat="48.67533" lon="-4.05688">
        <ele>7.5</ele>
        <time>2022-06-10T13:34:55Z</time>
      </trkpt>
      <trkpt lat="48.67533" lon="-4.05688">
        <ele>7.5</ele>
        <time>2022-06-10T13:34:56Z</time>
      </trkpt>
      <trkpt lat="48.67533" lon="-4.05689">
        <ele>7.5</ele>
        <time>2022-06-10T13:34:57Z</time>
      </trkpt>
      <trkpt lat="48.67533" lon="-4.05689">
        <ele>7.5</ele>
        <time>2022-06-10T13:34:58Z</time>
      </trkpt>
      <trkpt lat="48.67533" lon="-4.05689">
        <ele>7.5</ele>
        <time>2022-06-10T13:34:59Z</time>
      </trkpt>
      <trkpt lat="48.67533" lon="-4.05689">
        <ele>7.5</ele>
        <time>2022-06-10T13:35:00Z</time>
      </trkpt>
      <trkpt lat="48.67533" lon="-4.0569">
        <ele>7.5</ele>
        <time>2022-06-10T13:35:01Z</time>
      </trkpt>
      <trkpt lat="48.67533" lon="-4.0569">
        <ele>7.5</ele>
        <time>2022-06-10T13:35:02Z</time>
      </trkpt>
      <trkpt lat="48.67533" lon="-4.0569">
        <ele>7.5</ele>
        <time>2022-06-10T13:35:03Z</time>
      </trkpt>
      <trkpt lat="48.67533" lon="-4.05691">
        <ele>7.5</ele>
        <time>2022-06-10T13:35:04Z</time>
      </trkpt>
      <trkpt lat="48.67533" lon="-4.05691">
        <ele>7.5</ele>
        <time>2022-06-10T13:35:05Z</time>
      </trkpt>
      <trkpt lat="48.67533" lon="-4.05691">
        <ele>7.5</ele>
        <time>2022-06-10T13:35:06Z</time>
      </trkpt>
      <trkpt lat="48.67533" lon="-4.05691">
        <ele>7.5</ele>
        <time>2022-06-10T13:35:07Z</time>
      </trkpt>
      <trkpt lat="48.67533" lon="-4.05692">
        <ele>7.5</ele>
        <time>2022-06-10T13:35:08Z</time>
      </trkpt>
      <trkpt lat="48.67533" lon="-4.05692">
        <ele>7.5</ele>
        <time>2022-06-10T13:35:09Z</time>
      </trkpt>
      <trkpt lat="48.67533" lon="-4.05692">
        <ele>7.5</ele>
        <time>2022-06-10T13:35:10Z</time>
      </trkpt>
      <trkpt lat="48.67533" lon="-4.05693">
        <ele>7.5</ele>
        <time>2022-06-10T13:35:11Z</time>
      </trkpt>
      <trkpt lat="48.67533" lon="-4.05693">
        <ele>7.5</ele>
        <time>2022-06-10T13:35:12Z</time>
      </trkpt>
      <trkpt lat="48.67534" lon="-4.05693">
        <ele>7.5</ele>
        <time>2022-06-10T13:35:13Z</time>
      </trkpt>
      <trkpt lat="48.67534" lon="-4.05694">
        <ele>7.5</ele>
        <time>2022-06-10T13:35:14Z</time>
      </trkpt>
      <trkpt lat="48.67534" lon="-4.05694">
        <ele>7.5</ele>
        <time>2022-06-10T13:35:15Z</time>
      </trkpt>
      <trkpt lat="48.67534" lon="-4.05694">
        <ele>7.5</ele>
        <time>2022-06-10T13:35:16Z</time>
      </trkpt>
      <trkpt lat="48.67535" lon="-4.05696">
        <ele>7.5</ele>
        <time>2022-06-10T13:35:18Z</time>
      </trkpt>
      <trkpt lat="48.67535" lon="-4.05697">
        <ele>7.5</ele>
        <time>2022-06-10T13:35:19Z</time>
      </trkpt>
      <trkpt lat="48.67535" lon="-4.05698">
        <ele>7.5</ele>
        <time>2022-06-10T13:35:20Z</time>
      </trkpt>
      <trkpt lat="48.67536" lon="-4.05699">
        <ele>7.5</ele>
        <time>2022-06-10T13:35:22Z</time>
      </trkpt>
      <trkpt lat="48.67536" lon="-4.057">
        <ele>7.5</ele>
        <time>2022-06-10T13:35:23Z</time>
      </trkpt>
      <trkpt lat="48.67536" lon="-4.05701">
        <ele>7.5</ele>
        <time>2022-06-10T13:35:24Z</time>
      </trkpt>
      <trkpt lat="48.67536" lon="-4.05702">
        <ele>7.5</ele>
        <time>2022-06-10T13:35:25Z</time>
      </trkpt>
      <trkpt lat="48.67537" lon="-4.05703">
        <ele>7.5</ele>
        <time>2022-06-10T13:35:27Z</time>
      </trkpt>
      <trkpt lat="48.67537" lon="-4.05704">
        <ele>7.5</ele>
        <time>2022-06-10T13:35:28Z</time>
      </trkpt>
      <trkpt lat="48.67537" lon="-4.05706">
        <ele>7.5</ele>
        <time>2022-06-10T13:35:29Z</time>
      </trkpt>
      <trkpt lat="48.67537" lon="-4.05707">
        <ele>7.5</ele>
        <time>2022-06-10T13:35:30Z</time>
      </trkpt>
      <trkpt lat="48.67537" lon="-4.05707">
        <ele>7.5</ele>
        <time>2022-06-10T13:35:31Z</time>
      </trkpt>
      <trkpt lat="48.67537" lon="-4.05707">
        <ele>7.5</ele>
        <time>2022-06-10T13:35:32Z</time>
      </trkpt>
      <trkpt lat="48.67536" lon="-4.05706">
        <ele>7.5</ele>
        <time>2022-06-10T13:35:33Z</time>
      </trkpt>
      <trkpt lat="48.67536" lon="-4.05706">
        <ele>7.5</ele>
        <time>2022-06-10T13:35:34Z</time>
      </trkpt>
      <trkpt lat="48.67536" lon="-4.05706">
        <ele>7.5</ele>
        <time>2022-06-10T13:35:35Z</time>
      </trkpt>
      <trkpt lat="48.67536" lon="-4.05706">
        <ele>7.5</ele>
        <time>2022-06-10T13:35:37Z</time>
      </trkpt>
      <trkpt lat="48.67536" lon="-4.05706">
        <ele>7.5</ele>
        <time>2022-06-10T13:35:38Z</time>
      </trkpt>
      <trkpt lat="48.67536" lon="-4.05706">
        <ele>7.5</ele>
        <time>2022-06-10T13:35:39Z</time>
      </trkpt>
      <trkpt lat="48.67536" lon="-4.05706">
        <ele>7.5</ele>
        <time>2022-06-10T13:35:40Z</time>
      </trkpt>
      <trkpt lat="48.67536" lon="-4.05706">
        <ele>7.5</ele>
        <time>2022-06-10T13:35:42Z</time>
      </trkpt>
      <trkpt lat="48.67536" lon="-4.05706">
        <ele>7.5</ele>
        <time>2022-06-10T13:35:43Z</time>
      </trkpt>
      <trkpt lat="48.67536" lon="-4.05706">
        <ele>7.5</ele>
        <time>2022-06-10T13:35:44Z</time>
      </trkpt>
      <trkpt lat="48.67537" lon="-4.05706">
        <ele>7.5</ele>
        <time>2022-06-10T13:35:45Z</time>
      </trkpt>
      <trkpt lat="48.67537" lon="-4.05705">
        <ele>7.5</ele>
        <time>2022-06-10T13:35:46Z</time>
      </trkpt>
      <trkpt lat="48.67537" lon="-4.05705">
        <ele>7.5</ele>
        <time>2022-06-10T13:35:48Z</time>
      </trkpt>
      <trkpt lat="48.67537" lon="-4.05705">
        <ele>7.5</ele>
        <time>2022-06-10T13:35:49Z</time>
      </trkpt>
      <trkpt lat="48.67537" lon="-4.05704">
        <ele>7.5</ele>
        <time>2022-06-10T13:35:50Z</time>
      </trkpt>
      <trkpt lat="48.67538" lon="-4.05703">
        <ele>7.5</ele>
        <time>2022-06-10T13:35:51Z</time>
      </trkpt>
      <trkpt lat="48.67538" lon="-4.05703">
        <ele>7.5</ele>
        <time>2022-06-10T13:35:53Z</time>
      </trkpt>
      <trkpt lat="48.67538" lon="-4.05702">
        <ele>7.5</ele>
        <time>2022-06-10T13:35:54Z</time>
      </trkpt>
      <trkpt lat="48.67538" lon="-4.05701">
        <ele>7.5</ele>
        <time>2022-06-10T13:35:55Z</time>
      </trkpt>
      <trkpt lat="48.67538" lon="-4.05699">
        <ele>7.6</ele>
        <time>2022-06-10T13:35:57Z</time>
      </trkpt>
      <trkpt lat="48.67537" lon="-4.05698">
        <ele>7.6</ele>
        <time>2022-06-10T13:35:58Z</time>
      </trkpt>
      <trkpt lat="48.67537" lon="-4.05695">
        <ele>7.6</ele>
        <time>2022-06-10T13:35:59Z</time>
      </trkpt>
      <trkpt lat="48.67537" lon="-4.05694">
        <ele>7.6</ele>
        <time>2022-06-10T13:36:00Z</time>
      </trkpt>
      <trkpt lat="48.67536" lon="-4.05693">
        <ele>7.6</ele>
        <time>2022-06-10T13:36:01Z</time>
      </trkpt>
      <trkpt lat="48.67536" lon="-4.05692">
        <ele>7.6</ele>
        <time>2022-06-10T13:36:02Z</time>
      </trkpt>
      <trkpt lat="48.67536" lon="-4.05691">
        <ele>7.6</ele>
        <time>2022-06-10T13:36:03Z</time>
      </trkpt>
      <trkpt lat="48.67535" lon="-4.0569">
        <ele>7.6</ele>
        <time>2022-06-10T13:36:04Z</time>
      </trkpt>
      <trkpt lat="48.67533" lon="-4.05691">
        <ele>7.6</ele>
        <time>2022-06-10T13:36:05Z</time>
      </trkpt>
      <trkpt lat="48.67531" lon="-4.05693">
        <ele>7.6</ele>
        <time>2022-06-10T13:36:07Z</time>
      </trkpt>
      <trkpt lat="48.6753" lon="-4.05696">
        <ele>7.6</ele>
        <time>2022-06-10T13:36:08Z</time>
      </trkpt>
      <trkpt lat="48.67528" lon="-4.057">
        <ele>7.7</ele>
        <time>2022-06-10T13:36:09Z</time>
      </trkpt>
      <trkpt lat="48.67527" lon="-4.05705">
        <ele>7.7</ele>
        <time>2022-06-10T13:36:10Z</time>
      </trkpt>
      <trkpt lat="48.67525" lon="-4.05709">
        <ele>7.8</ele>
        <time>2022-06-10T13:36:11Z</time>
      </trkpt>
      <trkpt lat="48.67524" lon="-4.05711">
        <ele>7.8</ele>
        <time>2022-06-10T13:36:12Z</time>
      </trkpt>
      <trkpt lat="48.67524" lon="-4.05713">
        <ele>7.8</ele>
        <time>2022-06-10T13:36:13Z</time>
      </trkpt>
      <trkpt lat="48.67523" lon="-4.05714">
        <ele>7.8</ele>
        <time>2022-06-10T13:36:14Z</time>
      </trkpt>
      <trkpt lat="48.67523" lon="-4.05715">
        <ele>7.8</ele>
        <time>2022-06-10T13:36:15Z</time>
      </trkpt>
      <trkpt lat="48.67522" lon="-4.05715">
        <ele>7.8</ele>
        <time>2022-06-10T13:36:17Z</time>
      </trkpt>
      <trkpt lat="48.67522" lon="-4.05716">
        <ele>7.8</ele>
        <time>2022-06-10T13:36:18Z</time>
      </trkpt>
      <trkpt lat="48.67521" lon="-4.05716">
        <ele>7.8</ele>
        <time>2022-06-10T13:36:19Z</time>
      </trkpt>
      <trkpt lat="48.67521" lon="-4.05717">
        <ele>7.8</ele>
        <time>2022-06-10T13:36:20Z</time>
      </trkpt>
      <trkpt lat="48.6752" lon="-4.05718">
        <ele>7.8</ele>
        <time>2022-06-10T13:36:21Z</time>
      </trkpt>
      <trkpt lat="48.67519" lon="-4.0572">
        <ele>7.9</ele>
        <time>2022-06-10T13:36:22Z</time>
      </trkpt>
      <trkpt lat="48.67519" lon="-4.0572">
        <ele>7.9</ele>
        <time>2022-06-10T13:36:23Z</time>
      </trkpt>
      <trkpt lat="48.67518" lon="-4.0572">
        <ele>7.9</ele>
        <time>2022-06-10T13:36:24Z</time>
      </trkpt>
      <trkpt lat="48.67516" lon="-4.05721">
        <ele>7.9</ele>
        <time>2022-06-10T13:36:26Z</time>
      </trkpt>
      <trkpt lat="48.67515" lon="-4.0572">
        <ele>7.9</ele>
        <time>2022-06-10T13:36:27Z</time>
      </trkpt>
      <trkpt lat="48.67514" lon="-4.0572">
        <ele>7.9</ele>
        <time>2022-06-10T13:36:28Z</time>
      </trkpt>
      <trkpt lat="48.67514" lon="-4.0572">
        <ele>7.9</ele>
        <time>2022-06-10T13:36:29Z</time>
      </trkpt>
      <trkpt lat="48.67514" lon="-4.05719">
        <ele>7.9</ele>
        <time>2022-06-10T13:36:30Z</time>
      </trkpt>
      <trkpt lat="48.67513" lon="-4.05717">
        <ele>7.9</ele>
        <time>2022-06-10T13:36:31Z</time>
      </trkpt>
      <trkpt lat="48.67512" lon="-4.05717">
        <ele>7.9</ele>
        <time>2022-06-10T13:36:33Z</time>
      </trkpt>
      <trkpt lat="48.67512" lon="-4.05716">
        <ele>8</ele>
        <time>2022-06-10T13:36:34Z</time>
      </trkpt>
      <trkpt lat="48.67511" lon="-4.05716">
        <ele>8</ele>
        <time>2022-06-10T13:36:35Z</time>
      </trkpt>
      <trkpt lat="48.6751" lon="-4.05715">
        <ele>8</ele>
        <time>2022-06-10T13:36:36Z</time>
      </trkpt>
      <trkpt lat="48.67508" lon="-4.05713">
        <ele>8</ele>
        <time>2022-06-10T13:36:37Z</time>
      </trkpt>
      <trkpt lat="48.67507" lon="-4.05712">
        <ele>8</ele>
        <time>2022-06-10T13:36:39Z</time>
      </trkpt>
      <trkpt lat="48.67506" lon="-4.05711">
        <ele>8</ele>
        <time>2022-06-10T13:36:40Z</time>
      </trkpt>
      <trkpt lat="48.67505" lon="-4.05709">
        <ele>7.9</ele>
        <time>2022-06-10T13:36:41Z</time>
      </trkpt>
      <trkpt lat="48.67504" lon="-4.05708">
        <ele>7.9</ele>
        <time>2022-06-10T13:36:42Z</time>
      </trkpt>
      <trkpt lat="48.67503" lon="-4.05707">
        <ele>7.9</ele>
        <time>2022-06-10T13:36:43Z</time>
      </trkpt>
      <trkpt lat="48.67502" lon="-4.05706">
        <ele>7.9</ele>
        <time>2022-06-10T13:36:44Z</time>
      </trkpt>
      <trkpt lat="48.675" lon="-4.05704">
        <ele>7.9</ele>
        <time>2022-06-10T13:36:45Z</time>
      </trkpt>
      <trkpt lat="48.67499" lon="-4.05704">
        <ele>7.9</ele>
        <time>2022-06-10T13:36:46Z</time>
      </trkpt>
      <trkpt lat="48.67497" lon="-4.05702">
        <ele>7.8</ele>
        <time>2022-06-10T13:36:48Z</time>
      </trkpt>
      <trkpt lat="48.67497" lon="-4.05701">
        <ele>7.8</ele>
        <time>2022-06-10T13:36:49Z</time>
      </trkpt>
      <trkpt lat="48.67496" lon="-4.05701">
        <ele>7.8</ele>
        <time>2022-06-10T13:36:50Z</time>
      </trkpt>
      <trkpt lat="48.67494" lon="-4.05699">
        <ele>7.7</ele>
        <time>2022-06-10T13:36:51Z</time>
      </trkpt>
      <trkpt lat="48.67493" lon="-4.05698">
        <ele>7.7</ele>
        <time>2022-06-10T13:36:52Z</time>
      </trkpt>
      <trkpt lat="48.67493" lon="-4.05697">
        <ele>7.7</ele>
        <time>2022-06-10T13:36:53Z</time>
      </trkpt>
      <trkpt lat="48.67492" lon="-4.05695">
        <ele>7.6</ele>
        <time>2022-06-10T13:36:55Z</time>
      </trkpt>
      <trkpt lat="48.67491" lon="-4.05694">
        <ele>7.6</ele>
        <time>2022-06-10T13:36:56Z</time>
      </trkpt>
      <trkpt lat="48.6749" lon="-4.05693">
        <ele>7.6</ele>
        <time>2022-06-10T13:36:57Z</time>
      </trkpt>
      <trkpt lat="48.67259" lon="-4.05623">
        <ele>6.2</ele>
        <time>2022-06-10T13:41:35Z</time>
      </trkpt>
      <trkpt lat="48.67263" lon="-4.05633">
        <ele>6.4</ele>
        <time>2022-06-10T13:41:36Z</time>
      </trkpt>
      <trkpt lat="48.67261" lon="-4.05624">
        <ele>6.7</ele>
        <time>2022-06-10T13:41:37Z</time>
      </trkpt>
      <trkpt lat="48.67258" lon="-4.05616">
        <ele>6.9</ele>
        <time>2022-06-10T13:41:38Z</time>
      </trkpt>
      <trkpt lat="48.67257" lon="-4.05614">
        <ele>7.1</ele>
        <time>2022-06-10T13:41:39Z</time>
      </trkpt>
      <trkpt lat="48.67256" lon="-4.05613">
        <ele>7.1</ele>
        <time>2022-06-10T13:41:40Z</time>
      </trkpt>
      <trkpt lat="48.67254" lon="-4.0561">
        <ele>7.3</ele>
        <time>2022-06-10T13:41:41Z</time>
      </trkpt>
      <trkpt lat="48.67253" lon="-4.05609">
        <ele>7.3</ele>
        <time>2022-06-10T13:41:42Z</time>
      </trkpt>
      <trkpt lat="48.67252" lon="-4.05607">
        <ele>7.4</ele>
        <time>2022-06-10T13:41:43Z</time>
      </trkpt>
      <trkpt lat="48.67252" lon="-4.05607">
        <ele>7.4</ele>
        <time>2022-06-10T13:41:44Z</time>
      </trkpt>
      <trkpt lat="48.67252" lon="-4.05607">
        <ele>7.4</ele>
        <time>2022-06-10T13:41:45Z</time>
      </trkpt>
      <trkpt lat="48.67252" lon="-4.05607">
        <ele>7.5</ele>
        <time>2022-06-10T13:41:46Z</time>
      </trkpt>
      <trkpt lat="48.67252" lon="-4.05607">
        <ele>7.5</ele>
        <time>2022-06-10T13:41:47Z</time>
      </trkpt>
      <trkpt lat="48.67252" lon="-4.05607">
        <ele>7.5</ele>
        <time>2022-06-10T13:41:48Z</time>
      </trkpt>
      <trkpt lat="48.67252" lon="-4.05607">
        <ele>7.5</ele>
        <time>2022-06-10T13:41:49Z</time>
      </trkpt>
      <trkpt lat="48.67252" lon="-4.05607">
        <ele>7.5</ele>
        <time>2022-06-10T13:41:50Z</time>
      </trkpt>
      <trkpt lat="48.67252" lon="-4.05607">
        <ele>7.5</ele>
        <time>2022-06-10T13:41:51Z</time>
      </trkpt>
      <trkpt lat="48.67252" lon="-4.05607">
        <ele>7.5</ele>
        <time>2022-06-10T13:41:52Z</time>
      </trkpt>
      <trkpt lat="48.67252" lon="-4.05607">
        <ele>7.5</ele>
        <time>2022-06-10T13:41:53Z</time>
      </trkpt>
      <trkpt lat="48.67252" lon="-4.05607">
        <ele>7.5</ele>
        <time>2022-06-10T13:41:54Z</time>
      </trkpt>
      <trkpt lat="48.67252" lon="-4.05607">
        <ele>7.5</ele>
        <time>2022-06-10T13:41:55Z</time>
      </trkpt>
      <trkpt lat="48.67252" lon="-4.05607">
        <ele>7.5</ele>
        <time>2022-06-10T13:41:56Z</time>
      </trkpt>
      <trkpt lat="48.67252" lon="-4.05607">
        <ele>7.5</ele>
        <time>2022-06-10T13:41:57Z</time>
      </trkpt>
      <trkpt lat="48.67252" lon="-4.05607">
        <ele>7.5</ele>
        <time>2022-06-10T13:41:58Z</time>
      </trkpt>
      <trkpt lat="48.67252" lon="-4.05607">
        <ele>7.5</ele>
        <time>2022-06-10T13:41:59Z</time>
      </trkpt>
      <trkpt lat="48.67252" lon="-4.05607">
        <ele>7.5</ele>
        <time>2022-06-10T13:42:00Z</time>
      </trkpt>
      <trkpt lat="48.67252" lon="-4.05607">
        <ele>7.5</ele>
        <time>2022-06-10T13:42:01Z</time>
      </trkpt>
      <trkpt lat="48.67252" lon="-4.05607">
        <ele>7.5</ele>
        <time>2022-06-10T13:42:02Z</time>
      </trkpt>
      <trkpt lat="48.67252" lon="-4.05607">
        <ele>7.5</ele>
        <time>2022-06-10T13:42:03Z</time>
      </trkpt>
      <trkpt lat="48.67252" lon="-4.05607">
        <ele>7.5</ele>
        <time>2022-06-10T13:42:04Z</time>
      </trkpt>
      <trkpt lat="48.67252" lon="-4.05607">
        <ele>7.5</ele>
        <time>2022-06-10T13:42:05Z</time>
      </trkpt>
      <trkpt lat="48.67252" lon="-4.05607">
        <ele>7.5</ele>
        <time>2022-06-10T13:42:06Z</time>
      </trkpt>
      <trkpt lat="48.67252" lon="-4.05607">
        <ele>7.5</ele>
        <time>2022-06-10T13:42:07Z</time>
      </trkpt>
      <trkpt lat="48.67252" lon="-4.05607">
        <ele>7.5</ele>
        <time>2022-06-10T13:42:08Z</time>
      </trkpt>
      <trkpt lat="48.67252" lon="-4.05607">
        <ele>7.5</ele>
        <time>2022-06-10T13:42:09Z</time>
      </trkpt>
      <trkpt lat="48.67252" lon="-4.05607">
        <ele>7.5</ele>
        <time>2022-06-10T13:42:10Z</time>
      </trkpt>
      <trkpt lat="48.67252" lon="-4.05607">
        <ele>7.5</ele>
        <time>2022-06-10T13:42:11Z</time>
      </trkpt>
      <trkpt lat="48.67252" lon="-4.05607">
        <ele>7.5</ele>
        <time>2022-06-10T13:42:12Z</time>
      </trkpt>
      <trkpt lat="48.67252" lon="-4.05607">
        <ele>7.5</ele>
        <time>2022-06-10T13:42:13Z</time>
      </trkpt>
      <trkpt lat="48.67252" lon="-4.05607">
        <ele>7.5</ele>
        <time>2022-06-10T13:42:14Z</time>
      </trkpt>
      <trkpt lat="48.67252" lon="-4.05607">
        <ele>7.5</ele>
        <time>2022-06-10T13:42:15Z</time>
      </trkpt>
      <trkpt lat="48.67252" lon="-4.05607">
        <ele>7.5</ele>
        <time>2022-06-10T13:42:16Z</time>
      </trkpt>
      <trkpt lat="48.67252" lon="-4.05607">
        <ele>7.5</ele>
        <time>2022-06-10T13:42:17Z</time>
      </trkpt>
      <trkpt lat="48.67252" lon="-4.05607">
        <ele>7.5</ele>
        <time>2022-06-10T13:42:18Z</time>
      </trkpt>
      <trkpt lat="48.67252" lon="-4.05607">
        <ele>7.5</ele>
        <time>2022-06-10T13:42:19Z</time>
      </trkpt>
      <trkpt lat="48.67252" lon="-4.05607">
        <ele>7.5</ele>
        <time>2022-06-10T13:42:20Z</time>
      </trkpt>
      <trkpt lat="48.67252" lon="-4.05607">
        <ele>7.5</ele>
        <time>2022-06-10T13:42:21Z</time>
      </trkpt>
      <trkpt lat="48.67252" lon="-4.05607">
        <ele>7.5</ele>
        <time>2022-06-10T13:42:22Z</time>
      </trkpt>
      <trkpt lat="48.67252" lon="-4.05607">
        <ele>7.5</ele>
        <time>2022-06-10T13:42:23Z</time>
      </trkpt>
      <trkpt lat="48.67252" lon="-4.05607">
        <ele>7.5</ele>
        <time>2022-06-10T13:42:24Z</time>
      </trkpt>
      <trkpt lat="48.67252" lon="-4.05607">
        <ele>7.5</ele>
        <time>2022-06-10T13:42:25Z</time>
      </trkpt>
      <trkpt lat="48.67252" lon="-4.05607">
        <ele>7.5</ele>
        <time>2022-06-10T13:42:26Z</time>
      </trkpt>
      <trkpt lat="48.67252" lon="-4.05607">
        <ele>7.5</ele>
        <time>2022-06-10T13:42:27Z</time>
      </trkpt>
      <trkpt lat="48.67252" lon="-4.05607">
        <ele>7.5</ele>
        <time>2022-06-10T13:42:28Z</time>
      </trkpt>
      <trkpt lat="48.67252" lon="-4.05607">
        <ele>7.5</ele>
        <time>2022-06-10T13:42:29Z</time>
      </trkpt>
      <trkpt lat="48.67252" lon="-4.05607">
        <ele>7.5</ele>
        <time>2022-06-10T13:42:30Z</time>
      </trkpt>
      <trkpt lat="48.67252" lon="-4.05607">
        <ele>7.5</ele>
        <time>2022-06-10T13:42:31Z</time>
      </trkpt>
      <trkpt lat="48.67252" lon="-4.05607">
        <ele>7.5</ele>
        <time>2022-06-10T13:42:32Z</time>
      </trkpt>
      <trkpt lat="48.67252" lon="-4.05607">
        <ele>7.5</ele>
        <time>2022-06-10T13:42:33Z</time>
      </trkpt>
      <trkpt lat="48.67252" lon="-4.05607">
        <ele>7.5</ele>
        <time>2022-06-10T13:42:34Z</time>
      </trkpt>
      <trkpt lat="48.67252" lon="-4.05607">
        <ele>7.5</ele>
        <time>2022-06-10T13:42:35Z</time>
      </trkpt>
      <trkpt lat="48.67252" lon="-4.05607">
        <ele>7.5</ele>
        <time>2022-06-10T13:42:36Z</time>
      </trkpt>
      <trkpt lat="48.67252" lon="-4.05607">
        <ele>7.5</ele>
        <time>2022-06-10T13:42:37Z</time>
      </trkpt>
      <trkpt lat="48.67252" lon="-4.05607">
        <ele>7.5</ele>
        <time>2022-06-10T13:42:38Z</time>
      </trkpt>
      <trkpt lat="48.67252" lon="-4.05607">
        <ele>7.5</ele>
        <time>2022-06-10T13:42:40Z</time>
      </trkpt>
      <trkpt lat="48.67252" lon="-4.05607">
        <ele>7.5</ele>
        <time>2022-06-10T13:42:41Z</time>
      </trkpt>
      <trkpt lat="48.67252" lon="-4.05607">
        <ele>7.5</ele>
        <time>2022-06-10T13:42:42Z</time>
      </trkpt>
      <trkpt lat="48.67252" lon="-4.05607">
        <ele>7.5</ele>
        <time>2022-06-10T13:42:43Z</time>
      </trkpt>
      <trkpt lat="48.67252" lon="-4.05607">
        <ele>7.5</ele>
        <time>2022-06-10T13:42:44Z</time>
      </trkpt>
      <trkpt lat="48.67252" lon="-4.05607">
        <ele>7.5</ele>
        <time>2022-06-10T13:42:45Z</time>
      </trkpt>
      <trkpt lat="48.67252" lon="-4.05607">
        <ele>7.5</ele>
        <time>2022-06-10T13:42:46Z</time>
      </trkpt>
      <trkpt lat="48.67252" lon="-4.05607">
        <ele>7.5</ele>
        <time>2022-06-10T13:42:47Z</time>
      </trkpt>
      <trkpt lat="48.67252" lon="-4.05607">
        <ele>7.5</ele>
        <time>2022-06-10T13:42:48Z</time>
      </trkpt>
      <trkpt lat="48.67252" lon="-4.05607">
        <ele>7.5</ele>
        <time>2022-06-10T13:42:50Z</time>
      </trkpt>
      <trkpt lat="48.67252" lon="-4.05607">
        <ele>7.5</ele>
        <time>2022-06-10T13:42:51Z</time>
      </trkpt>
      <trkpt lat="48.67252" lon="-4.05607">
        <ele>7.5</ele>
        <time>2022-06-10T13:42:52Z</time>
      </trkpt>
      <trkpt lat="48.67252" lon="-4.05607">
        <ele>7.5</ele>
        <time>2022-06-10T13:42:53Z</time>
      </trkpt>
      <trkpt lat="48.67252" lon="-4.05607">
        <ele>7.5</ele>
        <time>2022-06-10T13:42:55Z</time>
      </trkpt>
      <trkpt lat="48.67252" lon="-4.05607">
        <ele>7.5</ele>
        <time>2022-06-10T13:42:56Z</time>
      </trkpt>
      <trkpt lat="48.67252" lon="-4.05607">
        <ele>7.5</ele>
        <time>2022-06-10T13:42:57Z</time>
      </trkpt>
      <trkpt lat="48.67252" lon="-4.05607">
        <ele>7.5</ele>
        <time>2022-06-10T13:42:58Z</time>
      </trkpt>
      <trkpt lat="48.67252" lon="-4.05607">
        <ele>7.5</ele>
        <time>2022-06-10T13:42:59Z</time>
      </trkpt>
      <trkpt lat="48.67252" lon="-4.05607">
        <ele>7.5</ele>
        <time>2022-06-10T13:43:00Z</time>
      </trkpt>
      <trkpt lat="48.67252" lon="-4.05607">
        <ele>7.5</ele>
        <time>2022-06-10T13:43:01Z</time>
      </trkpt>
      <trkpt lat="48.67252" lon="-4.05607">
        <ele>7.5</ele>
        <time>2022-06-10T13:43:02Z</time>
      </trkpt>
      <trkpt lat="48.67252" lon="-4.05607">
        <ele>7.5</ele>
        <time>2022-06-10T13:43:03Z</time>
      </trkpt>
      <trkpt lat="48.67252" lon="-4.05607">
        <ele>7.6</ele>
        <time>2022-06-10T13:43:04Z</time>
      </trkpt>
      <trkpt lat="48.67251" lon="-4.05607">
        <ele>7.6</ele>
        <time>2022-06-10T13:43:05Z</time>
      </trkpt>
      <trkpt lat="48.67252" lon="-4.05607">
        <ele>7.6</ele>
        <time>2022-06-10T13:43:06Z</time>
      </trkpt>
      <trkpt lat="48.67252" lon="-4.05607">
        <ele>7.6</ele>
        <time>2022-06-10T13:43:08Z</time>
      </trkpt>
      <trkpt lat="48.67252" lon="-4.05607">
        <ele>7.6</ele>
        <time>2022-06-10T13:43:09Z</time>
      </trkpt>
      <trkpt lat="48.67251" lon="-4.05607">
        <ele>7.6</ele>
        <time>2022-06-10T13:43:10Z</time>
      </trkpt>
      <trkpt lat="48.67251" lon="-4.05609">
        <ele>7.7</ele>
        <time>2022-06-10T13:43:12Z</time>
      </trkpt>
      <trkpt lat="48.6725" lon="-4.0561">
        <ele>7.7</ele>
        <time>2022-06-10T13:43:13Z</time>
      </trkpt>
      <trkpt lat="48.67249" lon="-4.05611">
        <ele>7.8</ele>
        <time>2022-06-10T13:43:14Z</time>
      </trkpt>
      <trkpt lat="48.67247" lon="-4.05612">
        <ele>8</ele>
        <time>2022-06-10T13:43:15Z</time>
      </trkpt>
      <trkpt lat="48.67245" lon="-4.05612">
        <ele>8.1</ele>
        <time>2022-06-10T13:43:16Z</time>
      </trkpt>
      <trkpt lat="48.67244" lon="-4.05611">
        <ele>8.2</ele>
        <time>2022-06-10T13:43:18Z</time>
      </trkpt>
      <trkpt lat="48.67243" lon="-4.05611">
        <ele>8.2</ele>
        <time>2022-06-10T13:43:19Z</time>
      </trkpt>
      <trkpt lat="48.67242" lon="-4.0561">
        <ele>8.3</ele>
        <time>2022-06-10T13:43:20Z</time>
      </trkpt>
      <trkpt lat="48.67242" lon="-4.0561">
        <ele>8.3</ele>
        <time>2022-06-10T13:43:22Z</time>
      </trkpt>
      <trkpt lat="48.67241" lon="-4.05609">
        <ele>8.4</ele>
        <time>2022-06-10T13:43:23Z</time>
      </trkpt>
      <trkpt lat="48.67241" lon="-4.05609">
        <ele>8.4</ele>
        <time>2022-06-10T13:43:24Z</time>
      </trkpt>
      <trkpt lat="48.67241" lon="-4.05608">
        <ele>8.4</ele>
        <time>2022-06-10T13:43:25Z</time>
      </trkpt>
      <trkpt lat="48.6724" lon="-4.05607">
        <ele>8.5</ele>
        <time>2022-06-10T13:43:27Z</time>
      </trkpt>
      <trkpt lat="48.67239" lon="-4.05607">
        <ele>8.6</ele>
        <time>2022-06-10T13:43:28Z</time>
      </trkpt>
      <trkpt lat="48.67239" lon="-4.05607">
        <ele>8.6</ele>
        <time>2022-06-10T13:43:29Z</time>
      </trkpt>
      <trkpt lat="48.67238" lon="-4.05606">
        <ele>8.7</ele>
        <time>2022-06-10T13:43:30Z</time>
      </trkpt>
      <trkpt lat="48.67237" lon="-4.05606">
        <ele>8.7</ele>
        <time>2022-06-10T13:43:31Z</time>
      </trkpt>
      <trkpt lat="48.67236" lon="-4.05605">
        <ele>8.8</ele>
        <time>2022-06-10T13:43:33Z</time>
      </trkpt>
      <trkpt lat="48.67237" lon="-4.05604">
        <ele>8.9</ele>
        <time>2022-06-10T13:43:34Z</time>
      </trkpt>
      <trkpt lat="48.67239" lon="-4.05601">
        <ele>9.1</ele>
        <time>2022-06-10T13:43:35Z</time>
      </trkpt>
      <trkpt lat="48.67242" lon="-4.05598">
        <ele>9.4</ele>
        <time>2022-06-10T13:43:37Z</time>
      </trkpt>
      <trkpt lat="48.67243" lon="-4.05597">
        <ele>9.5</ele>
        <time>2022-06-10T13:43:38Z</time>
      </trkpt>
      <trkpt lat="48.67245" lon="-4.05595">
        <ele>9.7</ele>
        <time>2022-06-10T13:43:39Z</time>
      </trkpt>
      <trkpt lat="48.67246" lon="-4.05594">
        <ele>9.8</ele>
        <time>2022-06-10T13:43:41Z</time>
      </trkpt>
      <trkpt lat="48.67248" lon="-4.05595">
        <ele>10</ele>
        <time>2022-06-10T13:43:42Z</time>
      </trkpt>
      <trkpt lat="48.6725" lon="-4.05595">
        <ele>10.1</ele>
        <time>2022-06-10T13:43:44Z</time>
      </trkpt>
      <trkpt lat="48.6725" lon="-4.05594">
        <ele>10.2</ele>
        <time>2022-06-10T13:43:45Z</time>
      </trkpt>
      <trkpt lat="48.6725" lon="-4.05593">
        <ele>10.2</ele>
        <time>2022-06-10T13:43:46Z</time>
      </trkpt>
      <trkpt lat="48.6725" lon="-4.05593">
        <ele>10.3</ele>
        <time>2022-06-10T13:43:47Z</time>
      </trkpt>
      <trkpt lat="48.6725" lon="-4.05592">
        <ele>10.3</ele>
        <time>2022-06-10T13:43:48Z</time>
      </trkpt>
      <trkpt lat="48.67251" lon="-4.05591">
        <ele>10.4</ele>
        <time>2022-06-10T13:43:50Z</time>
      </trkpt>
      <trkpt lat="48.67251" lon="-4.0559">
        <ele>10.5</ele>
        <time>2022-06-10T13:43:51Z</time>
      </trkpt>
      <trkpt lat="48.67251" lon="-4.05588">
        <ele>10.6</ele>
        <time>2022-06-10T13:43:53Z</time>
      </trkpt>
      <trkpt lat="48.67252" lon="-4.05587">
        <ele>10.6</ele>
        <time>2022-06-10T13:43:54Z</time>
      </trkpt>
      <trkpt lat="48.67252" lon="-4.05585">
        <ele>10.7</ele>
        <time>2022-06-10T13:43:55Z</time>
      </trkpt>
      <trkpt lat="48.67252" lon="-4.05584">
        <ele>10.8</ele>
        <time>2022-06-10T13:43:56Z</time>
      </trkpt>
      <trkpt lat="48.67253" lon="-4.05582">
        <ele>10.9</ele>
        <time>2022-06-10T13:43:57Z</time>
      </trkpt>
      <trkpt lat="48.67253" lon="-4.0558">
        <ele>11</ele>
        <time>2022-06-10T13:43:58Z</time>
      </trkpt>
      <trkpt lat="48.67253" lon="-4.05578">
        <ele>11.1</ele>
        <time>2022-06-10T13:43:59Z</time>
      </trkpt>
      <trkpt lat="48.67254" lon="-4.05576">
        <ele>11.3</ele>
        <time>2022-06-10T13:44:01Z</time>
      </trkpt>
      <trkpt lat="48.67254" lon="-4.05574">
        <ele>11.4</ele>
        <time>2022-06-10T13:44:02Z</time>
      </trkpt>
      <trkpt lat="48.67256" lon="-4.0557">
        <ele>11.6</ele>
        <time>2022-06-10T13:44:04Z</time>
      </trkpt>
      <trkpt lat="48.67256" lon="-4.05569">
        <ele>11.7</ele>
        <time>2022-06-10T13:44:05Z</time>
      </trkpt>
      <trkpt lat="48.67257" lon="-4.05566">
        <ele>11.8</ele>
        <time>2022-06-10T13:44:07Z</time>
      </trkpt>
      <trkpt lat="48.67257" lon="-4.05564">
        <ele>11.9</ele>
        <time>2022-06-10T13:44:08Z</time>
      </trkpt>
      <trkpt lat="48.67258" lon="-4.05562">
        <ele>12</ele>
        <time>2022-06-10T13:44:09Z</time>
      </trkpt>
      <trkpt lat="48.67259" lon="-4.0556">
        <ele>12.1</ele>
        <time>2022-06-10T13:44:10Z</time>
      </trkpt>
      <trkpt lat="48.67259" lon="-4.05558">
        <ele>12.2</ele>
        <time>2022-06-10T13:44:12Z</time>
      </trkpt>
      <trkpt lat="48.67254" lon="-4.05556">
        <ele>12.6</ele>
        <time>2022-06-10T13:44:28Z</time>
      </trkpt>
      <trkpt lat="48.67252" lon="-4.05542">
        <ele>13.1</ele>
        <time>2022-06-10T13:44:30Z</time>
      </trkpt>
      <trkpt lat="48.67254" lon="-4.05545">
        <ele>12.9</ele>
        <time>2022-06-10T13:44:31Z</time>
      </trkpt>
      <trkpt lat="48.67255" lon="-4.05546">
        <ele>12.8</ele>
        <time>2022-06-10T13:44:32Z</time>
      </trkpt>
      <trkpt lat="48.67256" lon="-4.05546">
        <ele>12.8</ele>
        <time>2022-06-10T13:44:33Z</time>
      </trkpt>
      <trkpt lat="48.67256" lon="-4.05546">
        <ele>12.8</ele>
        <time>2022-06-10T13:44:34Z</time>
      </trkpt>
      <trkpt lat="48.67257" lon="-4.05547">
        <ele>12.7</ele>
        <time>2022-06-10T13:44:35Z</time>
      </trkpt>
      <trkpt lat="48.67257" lon="-4.05547">
        <ele>12.7</ele>
        <time>2022-06-10T13:44:36Z</time>
      </trkpt>
      <trkpt lat="48.67258" lon="-4.05547">
        <ele>12.6</ele>
        <time>2022-06-10T13:44:37Z</time>
      </trkpt>
      <trkpt lat="48.67258" lon="-4.05547">
        <ele>12.6</ele>
        <time>2022-06-10T13:44:38Z</time>
      </trkpt>
      <trkpt lat="48.67258" lon="-4.05547">
        <ele>12.6</ele>
        <time>2022-06-10T13:44:39Z</time>
      </trkpt>
      <trkpt lat="48.67259" lon="-4.05548">
        <ele>12.5</ele>
        <time>2022-06-10T13:44:40Z</time>
      </trkpt>
      <trkpt lat="48.67259" lon="-4.05548">
        <ele>12.5</ele>
        <time>2022-06-10T13:44:41Z</time>
      </trkpt>
      <trkpt lat="48.67259" lon="-4.05548">
        <ele>12.5</ele>
        <time>2022-06-10T13:44:42Z</time>
      </trkpt>
      <trkpt lat="48.67259" lon="-4.05548">
        <ele>12.5</ele>
        <time>2022-06-10T13:44:43Z</time>
      </trkpt>
      <trkpt lat="48.67259" lon="-4.05548">
        <ele>12.5</ele>
        <time>2022-06-10T13:44:44Z</time>
      </trkpt>
      <trkpt lat="48.67259" lon="-4.05548">
        <ele>12.5</ele>
        <time>2022-06-10T13:44:45Z</time>
      </trkpt>
      <trkpt lat="48.67259" lon="-4.05548">
        <ele>12.5</ele>
        <time>2022-06-10T13:44:46Z</time>
      </trkpt>
      <trkpt lat="48.67259" lon="-4.05548">
        <ele>12.5</ele>
        <time>2022-06-10T13:44:47Z</time>
      </trkpt>
      <trkpt lat="48.67259" lon="-4.05548">
        <ele>12.5</ele>
        <time>2022-06-10T13:44:48Z</time>
      </trkpt>
      <trkpt lat="48.67259" lon="-4.05548">
        <ele>12.5</ele>
        <time>2022-06-10T13:44:49Z</time>
      </trkpt>
      <trkpt lat="48.67259" lon="-4.05548">
        <ele>12.5</ele>
        <time>2022-06-10T13:44:50Z</time>
      </trkpt>
      <trkpt lat="48.67259" lon="-4.05548">
        <ele>12.5</ele>
        <time>2022-06-10T13:44:51Z</time>
      </trkpt>
      <trkpt lat="48.67259" lon="-4.05548">
        <ele>12.5</ele>
        <time>2022-06-10T13:44:52Z</time>
      </trkpt>
      <trkpt lat="48.67259" lon="-4.05548">
        <ele>12.5</ele>
        <time>2022-06-10T13:44:53Z</time>
      </trkpt>
      <trkpt lat="48.67259" lon="-4.05548">
        <ele>12.5</ele>
        <time>2022-06-10T13:44:54Z</time>
      </trkpt>
      <trkpt lat="48.67259" lon="-4.05548">
        <ele>12.5</ele>
        <time>2022-06-10T13:44:55Z</time>
      </trkpt>
      <trkpt lat="48.67259" lon="-4.05548">
        <ele>12.5</ele>
        <time>2022-06-10T13:44:56Z</time>
      </trkpt>
      <trkpt lat="48.67259" lon="-4.05548">
        <ele>12.5</ele>
        <time>2022-06-10T13:44:57Z</time>
      </trkpt>
      <trkpt lat="48.67259" lon="-4.05548">
        <ele>12.5</ele>
        <time>2022-06-10T13:44:58Z</time>
      </trkpt>
      <trkpt lat="48.67259" lon="-4.05548">
        <ele>12.5</ele>
        <time>2022-06-10T13:44:59Z</time>
      </trkpt>
      <trkpt lat="48.67259" lon="-4.05548">
        <ele>12.5</ele>
        <time>2022-06-10T13:45:00Z</time>
      </trkpt>
      <trkpt lat="48.67259" lon="-4.05548">
        <ele>12.5</ele>
        <time>2022-06-10T13:45:01Z</time>
      </trkpt>
      <trkpt lat="48.67259" lon="-4.05548">
        <ele>12.5</ele>
        <time>2022-06-10T13:45:02Z</time>
      </trkpt>
      <trkpt lat="48.67259" lon="-4.05548">
        <ele>12.5</ele>
        <time>2022-06-10T13:45:03Z</time>
      </trkpt>
      <trkpt lat="48.67259" lon="-4.05548">
        <ele>12.5</ele>
        <time>2022-06-10T13:45:04Z</time>
      </trkpt>
      <trkpt lat="48.67259" lon="-4.05548">
        <ele>12.5</ele>
        <time>2022-06-10T13:45:05Z</time>
      </trkpt>
      <trkpt lat="48.67259" lon="-4.05548">
        <ele>12.5</ele>
        <time>2022-06-10T13:45:06Z</time>
      </trkpt>
      <trkpt lat="48.67259" lon="-4.05548">
        <ele>12.5</ele>
        <time>2022-06-10T13:45:07Z</time>
      </trkpt>
      <trkpt lat="48.67259" lon="-4.05548">
        <ele>12.5</ele>
        <time>2022-06-10T13:45:08Z</time>
      </trkpt>
      <trkpt lat="48.67259" lon="-4.05548">
        <ele>12.5</ele>
        <time>2022-06-10T13:45:09Z</time>
      </trkpt>
      <trkpt lat="48.67259" lon="-4.05548">
        <ele>12.5</ele>
        <time>2022-06-10T13:45:10Z</time>
      </trkpt>
      <trkpt lat="48.67259" lon="-4.05548">
        <ele>12.5</ele>
        <time>2022-06-10T13:45:11Z</time>
      </trkpt>
      <trkpt lat="48.67259" lon="-4.05548">
        <ele>12.5</ele>
        <time>2022-06-10T13:45:12Z</time>
      </trkpt>
      <trkpt lat="48.67259" lon="-4.05548">
        <ele>12.5</ele>
        <time>2022-06-10T13:45:13Z</time>
      </trkpt>
      <trkpt lat="48.67259" lon="-4.05548">
        <ele>12.5</ele>
        <time>2022-06-10T13:45:14Z</time>
      </trkpt>
      <trkpt lat="48.67259" lon="-4.05548">
        <ele>12.5</ele>
        <time>2022-06-10T13:45:15Z</time>
      </trkpt>
      <trkpt lat="48.67259" lon="-4.05548">
        <ele>12.5</ele>
        <time>2022-06-10T13:45:16Z</time>
      </trkpt>
      <trkpt lat="48.67259" lon="-4.05548">
        <ele>12.5</ele>
        <time>2022-06-10T13:45:17Z</time>
      </trkpt>
      <trkpt lat="48.67259" lon="-4.05548">
        <ele>12.5</ele>
        <time>2022-06-10T13:45:18Z</time>
      </trkpt>
      <trkpt lat="48.67259" lon="-4.05548">
        <ele>12.5</ele>
        <time>2022-06-10T13:45:19Z</time>
      </trkpt>
      <trkpt lat="48.67259" lon="-4.05548">
        <ele>12.5</ele>
        <time>2022-06-10T13:45:20Z</time>
      </trkpt>
      <trkpt lat="48.67259" lon="-4.05548">
        <ele>12.5</ele>
        <time>2022-06-10T13:45:21Z</time>
      </trkpt>
      <trkpt lat="48.67259" lon="-4.05548">
        <ele>12.5</ele>
        <time>2022-06-10T13:45:22Z</time>
      </trkpt>
      <trkpt lat="48.67259" lon="-4.05548">
        <ele>12.5</ele>
        <time>2022-06-10T13:45:23Z</time>
      </trkpt>
      <trkpt lat="48.67259" lon="-4.05548">
        <ele>12.5</ele>
        <time>2022-06-10T13:45:24Z</time>
      </trkpt>
      <trkpt lat="48.67259" lon="-4.05548">
        <ele>12.5</ele>
        <time>2022-06-10T13:45:25Z</time>
      </trkpt>
      <trkpt lat="48.67259" lon="-4.05548">
        <ele>12.5</ele>
        <time>2022-06-10T13:45:26Z</time>
      </trkpt>
      <trkpt lat="48.67259" lon="-4.05548">
        <ele>12.5</ele>
        <time>2022-06-10T13:45:27Z</time>
      </trkpt>
      <trkpt lat="48.67259" lon="-4.05548">
        <ele>12.5</ele>
        <time>2022-06-10T13:45:28Z</time>
      </trkpt>
      <trkpt lat="48.67259" lon="-4.05548">
        <ele>12.5</ele>
        <time>2022-06-10T13:45:29Z</time>
      </trkpt>
      <trkpt lat="48.67259" lon="-4.05548">
        <ele>12.5</ele>
        <time>2022-06-10T13:45:30Z</time>
      </trkpt>
      <trkpt lat="48.67259" lon="-4.05548">
        <ele>12.5</ele>
        <time>2022-06-10T13:45:31Z</time>
      </trkpt>
      <trkpt lat="48.67259" lon="-4.05548">
        <ele>12.5</ele>
        <time>2022-06-10T13:45:32Z</time>
      </trkpt>
      <trkpt lat="48.67259" lon="-4.05548">
        <ele>12.5</ele>
        <time>2022-06-10T13:45:33Z</time>
      </trkpt>
      <trkpt lat="48.67259" lon="-4.05548">
        <ele>12.5</ele>
        <time>2022-06-10T13:45:34Z</time>
      </trkpt>
      <trkpt lat="48.67259" lon="-4.05548">
        <ele>12.5</ele>
        <time>2022-06-10T13:45:35Z</time>
      </trkpt>
      <trkpt lat="48.67259" lon="-4.05548">
        <ele>12.5</ele>
        <time>2022-06-10T13:45:36Z</time>
      </trkpt>
      <trkpt lat="48.67259" lon="-4.05548">
        <ele>12.5</ele>
        <time>2022-06-10T13:45:37Z</time>
      </trkpt>
      <trkpt lat="48.67259" lon="-4.05548">
        <ele>12.5</ele>
        <time>2022-06-10T13:45:38Z</time>
      </trkpt>
      <trkpt lat="48.67259" lon="-4.05548">
        <ele>12.5</ele>
        <time>2022-06-10T13:45:39Z</time>
      </trkpt>
      <trkpt lat="48.67259" lon="-4.05548">
        <ele>12.5</ele>
        <time>2022-06-10T13:45:40Z</time>
      </trkpt>
      <trkpt lat="48.67259" lon="-4.05548">
        <ele>12.5</ele>
        <time>2022-06-10T13:45:41Z</time>
      </trkpt>
      <trkpt lat="48.67259" lon="-4.05548">
        <ele>12.5</ele>
        <time>2022-06-10T13:45:42Z</time>
      </trkpt>
      <trkpt lat="48.67259" lon="-4.05548">
        <ele>12.5</ele>
        <time>2022-06-10T13:45:43Z</time>
      </trkpt>
      <trkpt lat="48.67259" lon="-4.05548">
        <ele>12.5</ele>
        <time>2022-06-10T13:45:44Z</time>
      </trkpt>
      <trkpt lat="48.67259" lon="-4.05548">
        <ele>12.5</ele>
        <time>2022-06-10T13:45:45Z</time>
      </trkpt>
      <trkpt lat="48.67259" lon="-4.05548">
        <ele>12.5</ele>
        <time>2022-06-10T13:45:46Z</time>
      </trkpt>
      <trkpt lat="48.67259" lon="-4.05548">
        <ele>12.5</ele>
        <time>2022-06-10T13:45:47Z</time>
      </trkpt>
      <trkpt lat="48.67259" lon="-4.05548">
        <ele>12.5</ele>
        <time>2022-06-10T13:45:48Z</time>
      </trkpt>
      <trkpt lat="48.67259" lon="-4.05548">
        <ele>12.5</ele>
        <time>2022-06-10T13:45:49Z</time>
      </trkpt>
      <trkpt lat="48.67259" lon="-4.05548">
        <ele>12.5</ele>
        <time>2022-06-10T13:45:50Z</time>
      </trkpt>
      <trkpt lat="48.67259" lon="-4.05548">
        <ele>12.5</ele>
        <time>2022-06-10T13:45:51Z</time>
      </trkpt>
      <trkpt lat="48.67259" lon="-4.05548">
        <ele>12.5</ele>
        <time>2022-06-10T13:45:52Z</time>
      </trkpt>
      <trkpt lat="48.67259" lon="-4.05548">
        <ele>12.5</ele>
        <time>2022-06-10T13:45:53Z</time>
      </trkpt>
      <trkpt lat="48.67259" lon="-4.05548">
        <ele>12.5</ele>
        <time>2022-06-10T13:45:54Z</time>
      </trkpt>
      <trkpt lat="48.67259" lon="-4.05548">
        <ele>12.5</ele>
        <time>2022-06-10T13:45:55Z</time>
      </trkpt>
      <trkpt lat="48.67259" lon="-4.05548">
        <ele>12.5</ele>
        <time>2022-06-10T13:45:56Z</time>
      </trkpt>
      <trkpt lat="48.67259" lon="-4.05548">
        <ele>12.5</ele>
        <time>2022-06-10T13:45:57Z</time>
      </trkpt>
      <trkpt lat="48.67259" lon="-4.05548">
        <ele>12.5</ele>
        <time>2022-06-10T13:45:58Z</time>
      </trkpt>
      <trkpt lat="48.67259" lon="-4.05548">
        <ele>12.5</ele>
        <time>2022-06-10T13:45:59Z</time>
      </trkpt>
      <trkpt lat="48.67259" lon="-4.05548">
        <ele>12.5</ele>
        <time>2022-06-10T13:46:00Z</time>
      </trkpt>
      <trkpt lat="48.67259" lon="-4.05548">
        <ele>12.5</ele>
        <time>2022-06-10T13:46:01Z</time>
      </trkpt>
      <trkpt lat="48.67259" lon="-4.05548">
        <ele>12.5</ele>
        <time>2022-06-10T13:46:02Z</time>
      </trkpt>
      <trkpt lat="48.67259" lon="-4.05548">
        <ele>12.5</ele>
        <time>2022-06-10T13:46:03Z</time>
      </trkpt>
      <trkpt lat="48.67259" lon="-4.05548">
        <ele>12.5</ele>
        <time>2022-06-10T13:46:04Z</time>
      </trkpt>
      <trkpt lat="48.67259" lon="-4.05548">
        <ele>12.5</ele>
        <time>2022-06-10T13:46:05Z</time>
      </trkpt>
      <trkpt lat="48.67259" lon="-4.05548">
        <ele>12.5</ele>
        <time>2022-06-10T13:46:06Z</time>
      </trkpt>
      <trkpt lat="48.67259" lon="-4.05548">
        <ele>12.5</ele>
        <time>2022-06-10T13:46:07Z</time>
      </trkpt>
      <trkpt lat="48.67259" lon="-4.05548">
        <ele>12.5</ele>
        <time>2022-06-10T13:46:08Z</time>
      </trkpt>
      <trkpt lat="48.67259" lon="-4.05548">
        <ele>12.5</ele>
        <time>2022-06-10T13:46:09Z</time>
      </trkpt>
      <trkpt lat="48.67259" lon="-4.05548">
        <ele>12.5</ele>
        <time>2022-06-10T13:46:10Z</time>
      </trkpt>
      <trkpt lat="48.67259" lon="-4.05548">
        <ele>12.5</ele>
        <time>2022-06-10T13:46:11Z</time>
      </trkpt>
      <trkpt lat="48.67259" lon="-4.05548">
        <ele>12.5</ele>
        <time>2022-06-10T13:46:12Z</time>
      </trkpt>
      <trkpt lat="48.67259" lon="-4.05548">
        <ele>12.5</ele>
        <time>2022-06-10T13:46:13Z</time>
      </trkpt>
      <trkpt lat="48.67259" lon="-4.05548">
        <ele>12.5</ele>
        <time>2022-06-10T13:46:14Z</time>
      </trkpt>
      <trkpt lat="48.67259" lon="-4.05548">
        <ele>12.5</ele>
        <time>2022-06-10T13:46:15Z</time>
      </trkpt>
      <trkpt lat="48.67259" lon="-4.05548">
        <ele>12.5</ele>
        <time>2022-06-10T13:46:16Z</time>
      </trkpt>
      <trkpt lat="48.67259" lon="-4.05548">
        <ele>12.5</ele>
        <time>2022-06-10T13:46:17Z</time>
      </trkpt>
      <trkpt lat="48.67259" lon="-4.05548">
        <ele>12.5</ele>
        <time>2022-06-10T13:46:18Z</time>
      </trkpt>
      <trkpt lat="48.67259" lon="-4.05548">
        <ele>12.5</ele>
        <time>2022-06-10T13:46:19Z</time>
      </trkpt>
      <trkpt lat="48.67259" lon="-4.05548">
        <ele>12.5</ele>
        <time>2022-06-10T13:46:20Z</time>
      </trkpt>
      <trkpt lat="48.67259" lon="-4.05548">
        <ele>12.5</ele>
        <time>2022-06-10T13:46:21Z</time>
      </trkpt>
      <trkpt lat="48.67259" lon="-4.05548">
        <ele>12.5</ele>
        <time>2022-06-10T13:46:22Z</time>
      </trkpt>
      <trkpt lat="48.6726" lon="-4.05548">
        <ele>12.5</ele>
        <time>2022-06-10T13:46:23Z</time>
      </trkpt>
      <trkpt lat="48.67259" lon="-4.05548">
        <ele>12.5</ele>
        <time>2022-06-10T13:46:24Z</time>
      </trkpt>
      <trkpt lat="48.67259" lon="-4.05547">
        <ele>12.4</ele>
        <time>2022-06-10T13:46:25Z</time>
      </trkpt>
      <trkpt lat="48.67258" lon="-4.05546">
        <ele>12.4</ele>
        <time>2022-06-10T13:46:27Z</time>
      </trkpt>
      <trkpt lat="48.67257" lon="-4.05545">
        <ele>12.3</ele>
        <time>2022-06-10T13:46:28Z</time>
      </trkpt>
      <trkpt lat="48.67257" lon="-4.05544">
        <ele>12.2</ele>
        <time>2022-06-10T13:46:29Z</time>
      </trkpt>
      <trkpt lat="48.67256" lon="-4.05543">
        <ele>12.2</ele>
        <time>2022-06-10T13:46:30Z</time>
      </trkpt>
      <trkpt lat="48.67256" lon="-4.05542">
        <ele>12.1</ele>
        <time>2022-06-10T13:46:31Z</time>
      </trkpt>
      <trkpt lat="48.67255" lon="-4.05541">
        <ele>12.1</ele>
        <time>2022-06-10T13:46:33Z</time>
      </trkpt>
      <trkpt lat="48.67255" lon="-4.0554">
        <ele>12</ele>
        <time>2022-06-10T13:46:34Z</time>
      </trkpt>
      <trkpt lat="48.67255" lon="-4.0554">
        <ele>12</ele>
        <time>2022-06-10T13:46:35Z</time>
      </trkpt>
      <trkpt lat="48.67255" lon="-4.05539">
        <ele>12</ele>
        <time>2022-06-10T13:46:36Z</time>
      </trkpt>
      <trkpt lat="48.67255" lon="-4.05539">
        <ele>12</ele>
        <time>2022-06-10T13:46:37Z</time>
      </trkpt>
      <trkpt lat="48.67255" lon="-4.05538">
        <ele>11.9</ele>
        <time>2022-06-10T13:46:38Z</time>
      </trkpt>
      <trkpt lat="48.67255" lon="-4.05538">
        <ele>11.9</ele>
        <time>2022-06-10T13:46:39Z</time>
      </trkpt>
      <trkpt lat="48.67256" lon="-4.05538">
        <ele>11.9</ele>
        <time>2022-06-10T13:46:40Z</time>
      </trkpt>
      <trkpt lat="48.67256" lon="-4.05539">
        <ele>11.9</ele>
        <time>2022-06-10T13:46:41Z</time>
      </trkpt>
      <trkpt lat="48.67256" lon="-4.0554">
        <ele>11.8</ele>
        <time>2022-06-10T13:46:43Z</time>
      </trkpt>
      <trkpt lat="48.67255" lon="-4.0554">
        <ele>11.8</ele>
        <time>2022-06-10T13:46:44Z</time>
      </trkpt>
      <trkpt lat="48.67255" lon="-4.0554">
        <ele>11.8</ele>
        <time>2022-06-10T13:46:45Z</time>
      </trkpt>
      <trkpt lat="48.67255" lon="-4.0554">
        <ele>11.7</ele>
        <time>2022-06-10T13:46:46Z</time>
      </trkpt>
      <trkpt lat="48.67254" lon="-4.0554">
        <ele>11.7</ele>
        <time>2022-06-10T13:46:47Z</time>
      </trkpt>
      <trkpt lat="48.67254" lon="-4.0554">
        <ele>11.7</ele>
        <time>2022-06-10T13:46:48Z</time>
      </trkpt>
      <trkpt lat="48.67254" lon="-4.0554">
        <ele>11.7</ele>
        <time>2022-06-10T13:46:50Z</time>
      </trkpt>
      <trkpt lat="48.67253" lon="-4.0554">
        <ele>11.6</ele>
        <time>2022-06-10T13:46:51Z</time>
      </trkpt>
      <trkpt lat="48.67253" lon="-4.0554">
        <ele>11.6</ele>
        <time>2022-06-10T13:46:52Z</time>
      </trkpt>
      <trkpt lat="48.67252" lon="-4.0554">
        <ele>11.5</ele>
        <time>2022-06-10T13:46:53Z</time>
      </trkpt>
      <trkpt lat="48.67252" lon="-4.0554">
        <ele>11.5</ele>
        <time>2022-06-10T13:46:54Z</time>
      </trkpt>
      <trkpt lat="48.67251" lon="-4.05539">
        <ele>11.5</ele>
        <time>2022-06-10T13:46:56Z</time>
      </trkpt>
      <trkpt lat="48.6725" lon="-4.05539">
        <ele>11.4</ele>
        <time>2022-06-10T13:46:57Z</time>
      </trkpt>
      <trkpt lat="48.67249" lon="-4.05538">
        <ele>11.3</ele>
        <time>2022-06-10T13:46:58Z</time>
      </trkpt>
      <trkpt lat="48.67248" lon="-4.05538">
        <ele>11.3</ele>
        <time>2022-06-10T13:46:59Z</time>
      </trkpt>
      <trkpt lat="48.67247" lon="-4.05537">
        <ele>11.2</ele>
        <time>2022-06-10T13:47:00Z</time>
      </trkpt>
      <trkpt lat="48.67246" lon="-4.05537">
        <ele>11.1</ele>
        <time>2022-06-10T13:47:01Z</time>
      </trkpt>
      <trkpt lat="48.67245" lon="-4.05538">
        <ele>11</ele>
        <time>2022-06-10T13:47:02Z</time>
      </trkpt>
      <trkpt lat="48.67244" lon="-4.05538">
        <ele>11</ele>
        <time>2022-06-10T13:47:04Z</time>
      </trkpt>
      <trkpt lat="48.67243" lon="-4.05538">
        <ele>10.9</ele>
        <time>2022-06-10T13:47:05Z</time>
      </trkpt>
      <trkpt lat="48.67242" lon="-4.05537">
        <ele>10.8</ele>
        <time>2022-06-10T13:47:06Z</time>
      </trkpt>
      <trkpt lat="48.67241" lon="-4.05537">
        <ele>10.7</ele>
        <time>2022-06-10T13:47:07Z</time>
      </trkpt>
      <trkpt lat="48.6724" lon="-4.05537">
        <ele>10.7</ele>
        <time>2022-06-10T13:47:08Z</time>
      </trkpt>
      <trkpt lat="48.67238" lon="-4.05537">
        <ele>10.5</ele>
        <time>2022-06-10T13:47:09Z</time>
      </trkpt>
      <trkpt lat="48.67237" lon="-4.05537">
        <ele>10.5</ele>
        <time>2022-06-10T13:47:10Z</time>
      </trkpt>
      <trkpt lat="48.67236" lon="-4.05536">
        <ele>10.4</ele>
        <time>2022-06-10T13:47:12Z</time>
      </trkpt>
      <trkpt lat="48.67235" lon="-4.05536">
        <ele>10.3</ele>
        <time>2022-06-10T13:47:13Z</time>
      </trkpt>
      <trkpt lat="48.67234" lon="-4.05536">
        <ele>10.3</ele>
        <time>2022-06-10T13:47:14Z</time>
      </trkpt>
      <trkpt lat="48.67233" lon="-4.05536">
        <ele>10.2</ele>
        <time>2022-06-10T13:47:15Z</time>
      </trkpt>
      <trkpt lat="48.67231" lon="-4.05535">
        <ele>10.1</ele>
        <time>2022-06-10T13:47:16Z</time>
      </trkpt>
      <trkpt lat="48.6723" lon="-4.05535">
        <ele>10</ele>
        <time>2022-06-10T13:47:17Z</time>
      </trkpt>
      <trkpt lat="48.67229" lon="-4.05535">
        <ele>9.9</ele>
        <time>2022-06-10T13:47:18Z</time>
      </trkpt>
      <trkpt lat="48.67227" lon="-4.05535">
        <ele>9.8</ele>
        <time>2022-06-10T13:47:19Z</time>
      </trkpt>
      <trkpt lat="48.67226" lon="-4.05535">
        <ele>9.7</ele>
        <time>2022-06-10T13:47:20Z</time>
      </trkpt>
      <trkpt lat="48.67224" lon="-4.05534">
        <ele>9.6</ele>
        <time>2022-06-10T13:47:21Z</time>
      </trkpt>
      <trkpt lat="48.67223" lon="-4.05533">
        <ele>9.5</ele>
        <time>2022-06-10T13:47:23Z</time>
      </trkpt>
      <trkpt lat="48.67222" lon="-4.05533">
        <ele>9.5</ele>
        <time>2022-06-10T13:47:24Z</time>
      </trkpt>
      <trkpt lat="48.67221" lon="-4.05532">
        <ele>9.4</ele>
        <time>2022-06-10T13:47:25Z</time>
      </trkpt>
      <trkpt lat="48.67219" lon="-4.05532">
        <ele>9.3</ele>
        <time>2022-06-10T13:47:26Z</time>
      </trkpt>
      <trkpt lat="48.67218" lon="-4.05531">
        <ele>9.2</ele>
        <time>2022-06-10T13:47:27Z</time>
      </trkpt>
      <trkpt lat="48.67217" lon="-4.0553">
        <ele>9.1</ele>
        <time>2022-06-10T13:47:28Z</time>
      </trkpt>
      <trkpt lat="48.67215" lon="-4.05529">
        <ele>9</ele>
        <time>2022-06-10T13:47:29Z</time>
      </trkpt>
      <trkpt lat="48.67214" lon="-4.05528">
        <ele>8.9</ele>
        <time>2022-06-10T13:47:30Z</time>
      </trkpt>
      <trkpt lat="48.67213" lon="-4.05527">
        <ele>8.8</ele>
        <time>2022-06-10T13:47:31Z</time>
      </trkpt>
      <trkpt lat="48.67212" lon="-4.05527">
        <ele>8.8</ele>
        <time>2022-06-10T13:47:33Z</time>
      </trkpt>
      <trkpt lat="48.6721" lon="-4.05526">
        <ele>8.7</ele>
        <time>2022-06-10T13:47:34Z</time>
      </trkpt>
      <trkpt lat="48.669" lon="-4.05544">
        <ele>7.3</ele>
        <time>2022-06-10T13:54:32Z</time>
      </trkpt>
      <trkpt lat="48.66892" lon="-4.05525">
        <ele>7.2</ele>
        <time>2022-06-10T13:54:36Z</time>
      </trkpt>
      <trkpt lat="48.66898" lon="-4.05519">
        <ele>7.2</ele>
        <time>2022-06-10T13:54:37Z</time>
      </trkpt>
      <trkpt lat="48.66905" lon="-4.05515">
        <ele>7.2</ele>
        <time>2022-06-10T13:54:38Z</time>
      </trkpt>
      <trkpt lat="48.66912" lon="-4.05511">
        <ele>7.1</ele>
        <time>2022-06-10T13:54:39Z</time>
      </trkpt>
      <trkpt lat="48.66915" lon="-4.05511">
        <ele>7</ele>
        <time>2022-06-10T13:54:40Z</time>
      </trkpt>
      <trkpt lat="48.66915" lon="-4.05511">
        <ele>7</ele>
        <time>2022-06-10T13:54:41Z</time>
      </trkpt>
      <trkpt lat="48.66915" lon="-4.05511">
        <ele>7</ele>
        <time>2022-06-10T13:54:42Z</time>
      </trkpt>
      <trkpt lat="48.66916" lon="-4.05511">
        <ele>7</ele>
        <time>2022-06-10T13:54:43Z</time>
      </trkpt>
      <trkpt lat="48.66916" lon="-4.05511">
        <ele>7</ele>
        <time>2022-06-10T13:54:44Z</time>
      </trkpt>
      <trkpt lat="48.66916" lon="-4.05511">
        <ele>7</ele>
        <time>2022-06-10T13:54:45Z</time>
      </trkpt>
      <trkpt lat="48.66916" lon="-4.05511">
        <ele>7</ele>
        <time>2022-06-10T13:54:46Z</time>
      </trkpt>
      <trkpt lat="48.66916" lon="-4.05511">
        <ele>7</ele>
        <time>2022-06-10T13:54:47Z</time>
      </trkpt>
      <trkpt lat="48.66916" lon="-4.05511">
        <ele>7</ele>
        <time>2022-06-10T13:54:48Z</time>
      </trkpt>
      <trkpt lat="48.66916" lon="-4.05511">
        <ele>7</ele>
        <time>2022-06-10T13:54:49Z</time>
      </trkpt>
      <trkpt lat="48.66916" lon="-4.05511">
        <ele>7</ele>
        <time>2022-06-10T13:54:50Z</time>
      </trkpt>
      <trkpt lat="48.66916" lon="-4.05511">
        <ele>7</ele>
        <time>2022-06-10T13:54:51Z</time>
      </trkpt>
      <trkpt lat="48.66916" lon="-4.05511">
        <ele>7</ele>
        <time>2022-06-10T13:54:52Z</time>
      </trkpt>
      <trkpt lat="48.66916" lon="-4.05511">
        <ele>7</ele>
        <time>2022-06-10T13:54:53Z</time>
      </trkpt>
      <trkpt lat="48.66916" lon="-4.05511">
        <ele>7</ele>
        <time>2022-06-10T13:54:54Z</time>
      </trkpt>
      <trkpt lat="48.66916" lon="-4.05511">
        <ele>7</ele>
        <time>2022-06-10T13:54:55Z</time>
      </trkpt>
      <trkpt lat="48.66916" lon="-4.05511">
        <ele>7</ele>
        <time>2022-06-10T13:54:56Z</time>
      </trkpt>
      <trkpt lat="48.66916" lon="-4.05511">
        <ele>7</ele>
        <time>2022-06-10T13:54:57Z</time>
      </trkpt>
      <trkpt lat="48.66916" lon="-4.05511">
        <ele>7</ele>
        <time>2022-06-10T13:54:58Z</time>
      </trkpt>
      <trkpt lat="48.66916" lon="-4.05511">
        <ele>7</ele>
        <time>2022-06-10T13:54:59Z</time>
      </trkpt>
      <trkpt lat="48.66916" lon="-4.05511">
        <ele>7</ele>
        <time>2022-06-10T13:55:00Z</time>
      </trkpt>
      <trkpt lat="48.66916" lon="-4.05511">
        <ele>7</ele>
        <time>2022-06-10T13:55:01Z</time>
      </trkpt>
      <trkpt lat="48.66916" lon="-4.05511">
        <ele>7</ele>
        <time>2022-06-10T13:55:02Z</time>
      </trkpt>
      <trkpt lat="48.66916" lon="-4.05511">
        <ele>7</ele>
        <time>2022-06-10T13:55:03Z</time>
      </trkpt>
      <trkpt lat="48.66916" lon="-4.05511">
        <ele>7</ele>
        <time>2022-06-10T13:55:04Z</time>
      </trkpt>
      <trkpt lat="48.66916" lon="-4.05511">
        <ele>7</ele>
        <time>2022-06-10T13:55:05Z</time>
      </trkpt>
      <trkpt lat="48.66916" lon="-4.05511">
        <ele>7</ele>
        <time>2022-06-10T13:55:06Z</time>
      </trkpt>
      <trkpt lat="48.66916" lon="-4.05511">
        <ele>7</ele>
        <time>2022-06-10T13:55:07Z</time>
      </trkpt>
      <trkpt lat="48.66916" lon="-4.05511">
        <ele>7</ele>
        <time>2022-06-10T13:55:08Z</time>
      </trkpt>
      <trkpt lat="48.66916" lon="-4.05511">
        <ele>7</ele>
        <time>2022-06-10T13:55:09Z</time>
      </trkpt>
      <trkpt lat="48.66916" lon="-4.05511">
        <ele>7</ele>
        <time>2022-06-10T13:55:10Z</time>
      </trkpt>
      <trkpt lat="48.66916" lon="-4.05511">
        <ele>7</ele>
        <time>2022-06-10T13:55:11Z</time>
      </trkpt>
      <trkpt lat="48.66916" lon="-4.05511">
        <ele>7</ele>
        <time>2022-06-10T13:55:12Z</time>
      </trkpt>
      <trkpt lat="48.66916" lon="-4.05511">
        <ele>7</ele>
        <time>2022-06-10T13:55:13Z</time>
      </trkpt>
      <trkpt lat="48.66916" lon="-4.05511">
        <ele>7</ele>
        <time>2022-06-10T13:55:14Z</time>
      </trkpt>
      <trkpt lat="48.66916" lon="-4.05511">
        <ele>7</ele>
        <time>2022-06-10T13:55:15Z</time>
      </trkpt>
      <trkpt lat="48.66916" lon="-4.05511">
        <ele>7</ele>
        <time>2022-06-10T13:55:16Z</time>
      </trkpt>
      <trkpt lat="48.66916" lon="-4.05511">
        <ele>7</ele>
        <time>2022-06-10T13:55:17Z</time>
      </trkpt>
      <trkpt lat="48.66916" lon="-4.05511">
        <ele>7</ele>
        <time>2022-06-10T13:55:18Z</time>
      </trkpt>
      <trkpt lat="48.66916" lon="-4.05511">
        <ele>7</ele>
        <time>2022-06-10T13:55:19Z</time>
      </trkpt>
      <trkpt lat="48.66916" lon="-4.05511">
        <ele>7</ele>
        <time>2022-06-10T13:55:20Z</time>
      </trkpt>
      <trkpt lat="48.66916" lon="-4.05511">
        <ele>7</ele>
        <time>2022-06-10T13:55:21Z</time>
      </trkpt>
      <trkpt lat="48.66916" lon="-4.05511">
        <ele>7</ele>
        <time>2022-06-10T13:55:22Z</time>
      </trkpt>
      <trkpt lat="48.66916" lon="-4.05511">
        <ele>7</ele>
        <time>2022-06-10T13:55:23Z</time>
      </trkpt>
      <trkpt lat="48.66916" lon="-4.05511">
        <ele>7</ele>
        <time>2022-06-10T13:55:24Z</time>
      </trkpt>
      <trkpt lat="48.66916" lon="-4.05511">
        <ele>7</ele>
        <time>2022-06-10T13:55:25Z</time>
      </trkpt>
      <trkpt lat="48.66916" lon="-4.05511">
        <ele>7</ele>
        <time>2022-06-10T13:55:26Z</time>
      </trkpt>
      <trkpt lat="48.66916" lon="-4.05511">
        <ele>7</ele>
        <time>2022-06-10T13:55:27Z</time>
      </trkpt>
      <trkpt lat="48.66916" lon="-4.05511">
        <ele>7</ele>
        <time>2022-06-10T13:55:28Z</time>
      </trkpt>
      <trkpt lat="48.66916" lon="-4.05511">
        <ele>7</ele>
        <time>2022-06-10T13:55:29Z</time>
      </trkpt>
      <trkpt lat="48.66916" lon="-4.05511">
        <ele>7</ele>
        <time>2022-06-10T13:55:30Z</time>
      </trkpt>
      <trkpt lat="48.66916" lon="-4.05511">
        <ele>7</ele>
        <time>2022-06-10T13:55:31Z</time>
      </trkpt>
      <trkpt lat="48.66916" lon="-4.05511">
        <ele>7</ele>
        <time>2022-06-10T13:55:32Z</time>
      </trkpt>
      <trkpt lat="48.66916" lon="-4.05511">
        <ele>7</ele>
        <time>2022-06-10T13:55:33Z</time>
      </trkpt>
      <trkpt lat="48.66916" lon="-4.05511">
        <ele>7</ele>
        <time>2022-06-10T13:55:34Z</time>
      </trkpt>
      <trkpt lat="48.66916" lon="-4.05511">
        <ele>7</ele>
        <time>2022-06-10T13:55:35Z</time>
      </trkpt>
      <trkpt lat="48.66916" lon="-4.05511">
        <ele>7</ele>
        <time>2022-06-10T13:55:36Z</time>
      </trkpt>
      <trkpt lat="48.66916" lon="-4.05511">
        <ele>7</ele>
        <time>2022-06-10T13:55:37Z</time>
      </trkpt>
      <trkpt lat="48.66916" lon="-4.05511">
        <ele>7</ele>
        <time>2022-06-10T13:55:38Z</time>
      </trkpt>
      <trkpt lat="48.66916" lon="-4.05511">
        <ele>7</ele>
        <time>2022-06-10T13:55:39Z</time>
      </trkpt>
      <trkpt lat="48.66916" lon="-4.05511">
        <ele>7</ele>
        <time>2022-06-10T13:55:40Z</time>
      </trkpt>
      <trkpt lat="48.66916" lon="-4.05511">
        <ele>7</ele>
        <time>2022-06-10T13:55:41Z</time>
      </trkpt>
      <trkpt lat="48.66916" lon="-4.05511">
        <ele>7</ele>
        <time>2022-06-10T13:55:42Z</time>
      </trkpt>
      <trkpt lat="48.66916" lon="-4.05511">
        <ele>7</ele>
        <time>2022-06-10T13:55:43Z</time>
      </trkpt>
      <trkpt lat="48.66916" lon="-4.05511">
        <ele>7</ele>
        <time>2022-06-10T13:55:44Z</time>
      </trkpt>
      <trkpt lat="48.66916" lon="-4.05511">
        <ele>7</ele>
        <time>2022-06-10T13:55:45Z</time>
      </trkpt>
      <trkpt lat="48.66916" lon="-4.05511">
        <ele>7</ele>
        <time>2022-06-10T13:55:46Z</time>
      </trkpt>
      <trkpt lat="48.66916" lon="-4.05511">
        <ele>7</ele>
        <time>2022-06-10T13:55:47Z</time>
      </trkpt>
      <trkpt lat="48.66916" lon="-4.05511">
        <ele>7</ele>
        <time>2022-06-10T13:55:48Z</time>
      </trkpt>
      <trkpt lat="48.66916" lon="-4.05511">
        <ele>7</ele>
        <time>2022-06-10T13:55:49Z</time>
      </trkpt>
      <trkpt lat="48.66916" lon="-4.05511">
        <ele>7</ele>
        <time>2022-06-10T13:55:50Z</time>
      </trkpt>
      <trkpt lat="48.66916" lon="-4.05511">
        <ele>7</ele>
        <time>2022-06-10T13:55:51Z</time>
      </trkpt>
      <trkpt lat="48.66916" lon="-4.05511">
        <ele>7.1</ele>
        <time>2022-06-10T13:55:52Z</time>
      </trkpt>
      <trkpt lat="48.66916" lon="-4.05511">
        <ele>7.1</ele>
        <time>2022-06-10T13:55:53Z</time>
      </trkpt>
      <trkpt lat="48.66916" lon="-4.05511">
        <ele>7.1</ele>
        <time>2022-06-10T13:55:54Z</time>
      </trkpt>
      <trkpt lat="48.66916" lon="-4.05511">
        <ele>7.1</ele>
        <time>2022-06-10T13:55:55Z</time>
      </trkpt>
      <trkpt lat="48.66916" lon="-4.05511">
        <ele>7.1</ele>
        <time>2022-06-10T13:55:56Z</time>
      </trkpt>
      <trkpt lat="48.66916" lon="-4.05511">
        <ele>7.1</ele>
        <time>2022-06-10T13:55:57Z</time>
      </trkpt>
      <trkpt lat="48.66916" lon="-4.05511">
        <ele>7.1</ele>
        <time>2022-06-10T13:55:58Z</time>
      </trkpt>
      <trkpt lat="48.66916" lon="-4.05511">
        <ele>7.1</ele>
        <time>2022-06-10T13:55:59Z</time>
      </trkpt>
      <trkpt lat="48.66916" lon="-4.05511">
        <ele>7.1</ele>
        <time>2022-06-10T13:56:00Z</time>
      </trkpt>
      <trkpt lat="48.66916" lon="-4.05511">
        <ele>7.1</ele>
        <time>2022-06-10T13:56:01Z</time>
      </trkpt>
      <trkpt lat="48.66916" lon="-4.05511">
        <ele>7.1</ele>
        <time>2022-06-10T13:56:02Z</time>
      </trkpt>
      <trkpt lat="48.66916" lon="-4.05511">
        <ele>7.1</ele>
        <time>2022-06-10T13:56:03Z</time>
      </trkpt>
      <trkpt lat="48.66916" lon="-4.05511">
        <ele>7.1</ele>
        <time>2022-06-10T13:56:04Z</time>
      </trkpt>
      <trkpt lat="48.66916" lon="-4.05511">
        <ele>7.1</ele>
        <time>2022-06-10T13:56:05Z</time>
      </trkpt>
      <trkpt lat="48.66916" lon="-4.05511">
        <ele>7.1</ele>
        <time>2022-06-10T13:56:06Z</time>
      </trkpt>
      <trkpt lat="48.66916" lon="-4.05511">
        <ele>7.1</ele>
        <time>2022-06-10T13:56:07Z</time>
      </trkpt>
      <trkpt lat="48.66916" lon="-4.05511">
        <ele>7.1</ele>
        <time>2022-06-10T13:56:08Z</time>
      </trkpt>
      <trkpt lat="48.66916" lon="-4.05511">
        <ele>7.1</ele>
        <time>2022-06-10T13:56:09Z</time>
      </trkpt>
      <trkpt lat="48.66916" lon="-4.05511">
        <ele>7.1</ele>
        <time>2022-06-10T13:56:10Z</time>
      </trkpt>
      <trkpt lat="48.66916" lon="-4.05511">
        <ele>7.1</ele>
        <time>2022-06-10T13:56:11Z</time>
      </trkpt>
      <trkpt lat="48.66916" lon="-4.05511">
        <ele>7.1</ele>
        <time>2022-06-10T13:56:12Z</time>
      </trkpt>
      <trkpt lat="48.66916" lon="-4.05511">
        <ele>7.1</ele>
        <time>2022-06-10T13:56:13Z</time>
      </trkpt>
      <trkpt lat="48.66916" lon="-4.05511">
        <ele>7.1</ele>
        <time>2022-06-10T13:56:14Z</time>
      </trkpt>
      <trkpt lat="48.66916" lon="-4.05511">
        <ele>7.1</ele>
        <time>2022-06-10T13:56:15Z</time>
      </trkpt>
      <trkpt lat="48.66916" lon="-4.05511">
        <ele>7.1</ele>
        <time>2022-06-10T13:56:16Z</time>
      </trkpt>
      <trkpt lat="48.66916" lon="-4.05511">
        <ele>7.1</ele>
        <time>2022-06-10T13:56:17Z</time>
      </trkpt>
      <trkpt lat="48.66916" lon="-4.05511">
        <ele>7.1</ele>
        <time>2022-06-10T13:56:18Z</time>
      </trkpt>
      <trkpt lat="48.66916" lon="-4.05511">
        <ele>7.1</ele>
        <time>2022-06-10T13:56:19Z</time>
      </trkpt>
      <trkpt lat="48.66916" lon="-4.05511">
        <ele>7.1</ele>
        <time>2022-06-10T13:56:20Z</time>
      </trkpt>
      <trkpt lat="48.66916" lon="-4.05511">
        <ele>7.1</ele>
        <time>2022-06-10T13:56:21Z</time>
      </trkpt>
      <trkpt lat="48.66916" lon="-4.05511">
        <ele>7.1</ele>
        <time>2022-06-10T13:56:22Z</time>
      </trkpt>
      <trkpt lat="48.66916" lon="-4.05511">
        <ele>7.1</ele>
        <time>2022-06-10T13:56:23Z</time>
      </trkpt>
      <trkpt lat="48.66916" lon="-4.05511">
        <ele>7.1</ele>
        <time>2022-06-10T13:56:24Z</time>
      </trkpt>
      <trkpt lat="48.66916" lon="-4.05511">
        <ele>7.1</ele>
        <time>2022-06-10T13:56:25Z</time>
      </trkpt>
      <trkpt lat="48.66916" lon="-4.05511">
        <ele>7.1</ele>
        <time>2022-06-10T13:56:26Z</time>
      </trkpt>
      <trkpt lat="48.66916" lon="-4.05511">
        <ele>7.1</ele>
        <time>2022-06-10T13:56:27Z</time>
      </trkpt>
      <trkpt lat="48.66916" lon="-4.05511">
        <ele>7.1</ele>
        <time>2022-06-10T13:56:28Z</time>
      </trkpt>
      <trkpt lat="48.66916" lon="-4.05511">
        <ele>7.1</ele>
        <time>2022-06-10T13:56:29Z</time>
      </trkpt>
      <trkpt lat="48.66916" lon="-4.05511">
        <ele>7.1</ele>
        <time>2022-06-10T13:56:30Z</time>
      </trkpt>
      <trkpt lat="48.66916" lon="-4.05511">
        <ele>7.1</ele>
        <time>2022-06-10T13:56:31Z</time>
      </trkpt>
      <trkpt lat="48.66916" lon="-4.05511">
        <ele>7.1</ele>
        <time>2022-06-10T13:56:32Z</time>
      </trkpt>
      <trkpt lat="48.66916" lon="-4.05511">
        <ele>7.1</ele>
        <time>2022-06-10T13:56:33Z</time>
      </trkpt>
      <trkpt lat="48.66916" lon="-4.05511">
        <ele>7.1</ele>
        <time>2022-06-10T13:56:34Z</time>
      </trkpt>
      <trkpt lat="48.66916" lon="-4.05511">
        <ele>7.1</ele>
        <time>2022-06-10T13:56:35Z</time>
      </trkpt>
      <trkpt lat="48.66916" lon="-4.05511">
        <ele>7.1</ele>
        <time>2022-06-10T13:56:36Z</time>
      </trkpt>
      <trkpt lat="48.66916" lon="-4.05511">
        <ele>7.1</ele>
        <time>2022-06-10T13:56:37Z</time>
      </trkpt>
      <trkpt lat="48.66916" lon="-4.05511">
        <ele>7.1</ele>
        <time>2022-06-10T13:56:38Z</time>
      </trkpt>
      <trkpt lat="48.66916" lon="-4.05511">
        <ele>7.1</ele>
        <time>2022-06-10T13:56:39Z</time>
      </trkpt>
      <trkpt lat="48.66916" lon="-4.05511">
        <ele>7.1</ele>
        <time>2022-06-10T13:56:40Z</time>
      </trkpt>
      <trkpt lat="48.66916" lon="-4.05511">
        <ele>7.1</ele>
        <time>2022-06-10T13:56:41Z</time>
      </trkpt>
      <trkpt lat="48.66916" lon="-4.05511">
        <ele>7.2</ele>
        <time>2022-06-10T13:56:42Z</time>
      </trkpt>
      <trkpt lat="48.66916" lon="-4.05511">
        <ele>7.2</ele>
        <time>2022-06-10T13:56:43Z</time>
      </trkpt>
      <trkpt lat="48.66916" lon="-4.05511">
        <ele>7.2</ele>
        <time>2022-06-10T13:56:44Z</time>
      </trkpt>
      <trkpt lat="48.66916" lon="-4.05511">
        <ele>7.2</ele>
        <time>2022-06-10T13:56:45Z</time>
      </trkpt>
      <trkpt lat="48.66916" lon="-4.05511">
        <ele>7.2</ele>
        <time>2022-06-10T13:56:46Z</time>
      </trkpt>
      <trkpt lat="48.66916" lon="-4.05511">
        <ele>7.2</ele>
        <time>2022-06-10T13:56:47Z</time>
      </trkpt>
      <trkpt lat="48.66916" lon="-4.05511">
        <ele>7.2</ele>
        <time>2022-06-10T13:56:48Z</time>
      </trkpt>
      <trkpt lat="48.66916" lon="-4.05511">
        <ele>7.2</ele>
        <time>2022-06-10T13:56:49Z</time>
      </trkpt>
      <trkpt lat="48.66916" lon="-4.05511">
        <ele>7.2</ele>
        <time>2022-06-10T13:56:50Z</time>
      </trkpt>
      <trkpt lat="48.66916" lon="-4.05511">
        <ele>7.2</ele>
        <time>2022-06-10T13:56:51Z</time>
      </trkpt>
      <trkpt lat="48.66916" lon="-4.05511">
        <ele>7.2</ele>
        <time>2022-06-10T13:56:52Z</time>
      </trkpt>
      <trkpt lat="48.66916" lon="-4.05511">
        <ele>7.2</ele>
        <time>2022-06-10T13:56:53Z</time>
      </trkpt>
      <trkpt lat="48.66916" lon="-4.05511">
        <ele>7.2</ele>
        <time>2022-06-10T13:56:54Z</time>
      </trkpt>
      <trkpt lat="48.66916" lon="-4.05511">
        <ele>7.2</ele>
        <time>2022-06-10T13:56:55Z</time>
      </trkpt>
      <trkpt lat="48.66916" lon="-4.05511">
        <ele>7.2</ele>
        <time>2022-06-10T13:56:56Z</time>
      </trkpt>
      <trkpt lat="48.66916" lon="-4.05511">
        <ele>7.2</ele>
        <time>2022-06-10T13:56:57Z</time>
      </trkpt>
      <trkpt lat="48.66916" lon="-4.05511">
        <ele>7.2</ele>
        <time>2022-06-10T13:56:58Z</time>
      </trkpt>
      <trkpt lat="48.66916" lon="-4.05511">
        <ele>7.2</ele>
        <time>2022-06-10T13:56:59Z</time>
      </trkpt>
      <trkpt lat="48.66916" lon="-4.05511">
        <ele>7.2</ele>
        <time>2022-06-10T13:57:00Z</time>
      </trkpt>
      <trkpt lat="48.66916" lon="-4.05511">
        <ele>7.2</ele>
        <time>2022-06-10T13:57:01Z</time>
      </trkpt>
      <trkpt lat="48.66916" lon="-4.05511">
        <ele>7.2</ele>
        <time>2022-06-10T13:57:02Z</time>
      </trkpt>
      <trkpt lat="48.66916" lon="-4.05511">
        <ele>7.2</ele>
        <time>2022-06-10T13:57:03Z</time>
      </trkpt>
      <trkpt lat="48.66916" lon="-4.05511">
        <ele>7.2</ele>
        <time>2022-06-10T13:57:04Z</time>
      </trkpt>
      <trkpt lat="48.66916" lon="-4.05511">
        <ele>7.2</ele>
        <time>2022-06-10T13:57:05Z</time>
      </trkpt>
      <trkpt lat="48.66916" lon="-4.05511">
        <ele>7.2</ele>
        <time>2022-06-10T13:57:06Z</time>
      </trkpt>
      <trkpt lat="48.66916" lon="-4.05511">
        <ele>7.2</ele>
        <time>2022-06-10T13:57:07Z</time>
      </trkpt>
      <trkpt lat="48.66916" lon="-4.05511">
        <ele>7.2</ele>
        <time>2022-06-10T13:57:08Z</time>
      </trkpt>
      <trkpt lat="48.66916" lon="-4.05511">
        <ele>7.2</ele>
        <time>2022-06-10T13:57:09Z</time>
      </trkpt>
      <trkpt lat="48.66916" lon="-4.05511">
        <ele>7.2</ele>
        <time>2022-06-10T13:57:10Z</time>
      </trkpt>
      <trkpt lat="48.66916" lon="-4.05511">
        <ele>7.2</ele>
        <time>2022-06-10T13:57:11Z</time>
      </trkpt>
      <trkpt lat="48.66916" lon="-4.05511">
        <ele>7.2</ele>
        <time>2022-06-10T13:57:12Z</time>
      </trkpt>
      <trkpt lat="48.66916" lon="-4.05511">
        <ele>7.2</ele>
        <time>2022-06-10T13:57:13Z</time>
      </trkpt>
      <trkpt lat="48.66916" lon="-4.05511">
        <ele>7.2</ele>
        <time>2022-06-10T13:57:14Z</time>
      </trkpt>
      <trkpt lat="48.66916" lon="-4.05511">
        <ele>7.2</ele>
        <time>2022-06-10T13:57:15Z</time>
      </trkpt>
      <trkpt lat="48.66916" lon="-4.05511">
        <ele>7.2</ele>
        <time>2022-06-10T13:57:16Z</time>
      </trkpt>
      <trkpt lat="48.66916" lon="-4.05511">
        <ele>7.2</ele>
        <time>2022-06-10T13:57:17Z</time>
      </trkpt>
      <trkpt lat="48.66916" lon="-4.05511">
        <ele>7.2</ele>
        <time>2022-06-10T13:57:18Z</time>
      </trkpt>
      <trkpt lat="48.66916" lon="-4.05511">
        <ele>7.2</ele>
        <time>2022-06-10T13:57:19Z</time>
      </trkpt>
      <trkpt lat="48.66916" lon="-4.05511">
        <ele>7.2</ele>
        <time>2022-06-10T13:57:20Z</time>
      </trkpt>
      <trkpt lat="48.66916" lon="-4.05511">
        <ele>7.2</ele>
        <time>2022-06-10T13:57:21Z</time>
      </trkpt>
      <trkpt lat="48.66916" lon="-4.05511">
        <ele>7.2</ele>
        <time>2022-06-10T13:57:22Z</time>
      </trkpt>
      <trkpt lat="48.66916" lon="-4.05511">
        <ele>7.2</ele>
        <time>2022-06-10T13:57:23Z</time>
      </trkpt>
      <trkpt lat="48.66916" lon="-4.05511">
        <ele>7.2</ele>
        <time>2022-06-10T13:57:24Z</time>
      </trkpt>
      <trkpt lat="48.66916" lon="-4.05511">
        <ele>7.2</ele>
        <time>2022-06-10T13:57:25Z</time>
      </trkpt>
      <trkpt lat="48.66916" lon="-4.05511">
        <ele>7.2</ele>
        <time>2022-06-10T13:57:26Z</time>
      </trkpt>
      <trkpt lat="48.66916" lon="-4.05511">
        <ele>7.2</ele>
        <time>2022-06-10T13:57:27Z</time>
      </trkpt>
      <trkpt lat="48.66916" lon="-4.05511">
        <ele>7.2</ele>
        <time>2022-06-10T13:57:28Z</time>
      </trkpt>
      <trkpt lat="48.66916" lon="-4.05511">
        <ele>7.2</ele>
        <time>2022-06-10T13:57:29Z</time>
      </trkpt>
      <trkpt lat="48.66916" lon="-4.05511">
        <ele>7.2</ele>
        <time>2022-06-10T13:57:30Z</time>
      </trkpt>
      <trkpt lat="48.66916" lon="-4.05511">
        <ele>7.2</ele>
        <time>2022-06-10T13:57:31Z</time>
      </trkpt>
      <trkpt lat="48.66916" lon="-4.05511">
        <ele>7.2</ele>
        <time>2022-06-10T13:57:32Z</time>
      </trkpt>
      <trkpt lat="48.66916" lon="-4.05511">
        <ele>7.2</ele>
        <time>2022-06-10T13:57:33Z</time>
      </trkpt>
      <trkpt lat="48.66916" lon="-4.05511">
        <ele>7.2</ele>
        <time>2022-06-10T13:57:34Z</time>
      </trkpt>
      <trkpt lat="48.66916" lon="-4.05511">
        <ele>7.2</ele>
        <time>2022-06-10T13:57:35Z</time>
      </trkpt>
      <trkpt lat="48.66916" lon="-4.05511">
        <ele>7.2</ele>
        <time>2022-06-10T13:57:36Z</time>
      </trkpt>
      <trkpt lat="48.66916" lon="-4.05511">
        <ele>7.2</ele>
        <time>2022-06-10T13:57:37Z</time>
      </trkpt>
      <trkpt lat="48.66916" lon="-4.05511">
        <ele>7.2</ele>
        <time>2022-06-10T13:57:38Z</time>
      </trkpt>
      <trkpt lat="48.66916" lon="-4.05511">
        <ele>7.2</ele>
        <time>2022-06-10T13:57:39Z</time>
      </trkpt>
      <trkpt lat="48.66916" lon="-4.05511">
        <ele>7.2</ele>
        <time>2022-06-10T13:57:40Z</time>
      </trkpt>
      <trkpt lat="48.66916" lon="-4.05511">
        <ele>7.2</ele>
        <time>2022-06-10T13:57:41Z</time>
      </trkpt>
      <trkpt lat="48.66916" lon="-4.05511">
        <ele>7.2</ele>
        <time>2022-06-10T13:57:42Z</time>
      </trkpt>
      <trkpt lat="48.66916" lon="-4.05511">
        <ele>7.2</ele>
        <time>2022-06-10T13:57:43Z</time>
      </trkpt>
      <trkpt lat="48.66916" lon="-4.05511">
        <ele>7.2</ele>
        <time>2022-06-10T13:57:44Z</time>
      </trkpt>
      <trkpt lat="48.66916" lon="-4.05511">
        <ele>7.2</ele>
        <time>2022-06-10T13:57:45Z</time>
      </trkpt>
      <trkpt lat="48.66916" lon="-4.05511">
        <ele>7.2</ele>
        <time>2022-06-10T13:57:46Z</time>
      </trkpt>
      <trkpt lat="48.66916" lon="-4.05511">
        <ele>7.2</ele>
        <time>2022-06-10T13:57:47Z</time>
      </trkpt>
      <trkpt lat="48.66916" lon="-4.05511">
        <ele>7.2</ele>
        <time>2022-06-10T13:57:48Z</time>
      </trkpt>
      <trkpt lat="48.66916" lon="-4.05511">
        <ele>7.2</ele>
        <time>2022-06-10T13:57:49Z</time>
      </trkpt>
      <trkpt lat="48.66916" lon="-4.05511">
        <ele>7.2</ele>
        <time>2022-06-10T13:57:50Z</time>
      </trkpt>
      <trkpt lat="48.66916" lon="-4.05511">
        <ele>7.2</ele>
        <time>2022-06-10T13:57:51Z</time>
      </trkpt>
      <trkpt lat="48.66916" lon="-4.05511">
        <ele>7.2</ele>
        <time>2022-06-10T13:57:52Z</time>
      </trkpt>
      <trkpt lat="48.66916" lon="-4.05511">
        <ele>7.2</ele>
        <time>2022-06-10T13:57:53Z</time>
      </trkpt>
      <trkpt lat="48.66916" lon="-4.05511">
        <ele>7.2</ele>
        <time>2022-06-10T13:57:54Z</time>
      </trkpt>
      <trkpt lat="48.66916" lon="-4.05511">
        <ele>7.2</ele>
        <time>2022-06-10T13:57:55Z</time>
      </trkpt>
      <trkpt lat="48.66916" lon="-4.05511">
        <ele>7.2</ele>
        <time>2022-06-10T13:57:56Z</time>
      </trkpt>
      <trkpt lat="48.66916" lon="-4.05511">
        <ele>7.2</ele>
        <time>2022-06-10T13:57:57Z</time>
      </trkpt>
      <trkpt lat="48.66916" lon="-4.05511">
        <ele>7.2</ele>
        <time>2022-06-10T13:57:58Z</time>
      </trkpt>
      <trkpt lat="48.66916" lon="-4.05511">
        <ele>7.2</ele>
        <time>2022-06-10T13:57:59Z</time>
      </trkpt>
      <trkpt lat="48.66916" lon="-4.05511">
        <ele>7.2</ele>
        <time>2022-06-10T13:58:00Z</time>
      </trkpt>
      <trkpt lat="48.66916" lon="-4.05511">
        <ele>7.2</ele>
        <time>2022-06-10T13:58:01Z</time>
      </trkpt>
      <trkpt lat="48.66916" lon="-4.05511">
        <ele>7.2</ele>
        <time>2022-06-10T13:58:02Z</time>
      </trkpt>
      <trkpt lat="48.67228" lon="-4.05613">
        <ele>8.7</ele>
        <time>2022-06-10T14:08:27Z</time>
      </trkpt>
      <trkpt lat="48.67222" lon="-4.05609">
        <ele>9.2</ele>
        <time>2022-06-10T14:08:29Z</time>
      </trkpt>
      <trkpt lat="48.6722" lon="-4.05607">
        <ele>9.4</ele>
        <time>2022-06-10T14:08:30Z</time>
      </trkpt>
      <trkpt lat="48.67225" lon="-4.05598">
        <ele>9.9</ele>
        <time>2022-06-10T14:08:31Z</time>
      </trkpt>
      <trkpt lat="48.67229" lon="-4.05591">
        <ele>10.4</ele>
        <time>2022-06-10T14:08:32Z</time>
      </trkpt>
      <trkpt lat="48.67231" lon="-4.05588">
        <ele>10.6</ele>
        <time>2022-06-10T14:08:33Z</time>
      </trkpt>
      <trkpt lat="48.67233" lon="-4.05585">
        <ele>10.8</ele>
        <time>2022-06-10T14:08:34Z</time>
      </trkpt>
      <trkpt lat="48.67233" lon="-4.05584">
        <ele>10.9</ele>
        <time>2022-06-10T14:08:35Z</time>
      </trkpt>
      <trkpt lat="48.67236" lon="-4.0558">
        <ele>11.1</ele>
        <time>2022-06-10T14:08:36Z</time>
      </trkpt>
      <trkpt lat="48.67239" lon="-4.05575">
        <ele>11.5</ele>
        <time>2022-06-10T14:08:37Z</time>
      </trkpt>
      <trkpt lat="48.67241" lon="-4.05573">
        <ele>11.6</ele>
        <time>2022-06-10T14:08:38Z</time>
      </trkpt>
      <trkpt lat="48.67244" lon="-4.05568">
        <ele>11.9</ele>
        <time>2022-06-10T14:08:39Z</time>
      </trkpt>
      <trkpt lat="48.67245" lon="-4.05566">
        <ele>12</ele>
        <time>2022-06-10T14:08:40Z</time>
      </trkpt>
      <trkpt lat="48.67246" lon="-4.05566">
        <ele>12</ele>
        <time>2022-06-10T14:08:41Z</time>
      </trkpt>
      <trkpt lat="48.67246" lon="-4.05565">
        <ele>12</ele>
        <time>2022-06-10T14:08:42Z</time>
      </trkpt>
      <trkpt lat="48.67246" lon="-4.05565">
        <ele>12.1</ele>
        <time>2022-06-10T14:08:43Z</time>
      </trkpt>
      <trkpt lat="48.67246" lon="-4.05565">
        <ele>12.1</ele>
        <time>2022-06-10T14:08:44Z</time>
      </trkpt>
      <trkpt lat="48.67246" lon="-4.05565">
        <ele>12.1</ele>
        <time>2022-06-10T14:08:45Z</time>
      </trkpt>
      <trkpt lat="48.67246" lon="-4.05565">
        <ele>12.1</ele>
        <time>2022-06-10T14:08:46Z</time>
      </trkpt>
      <trkpt lat="48.67246" lon="-4.05564">
        <ele>12.1</ele>
        <time>2022-06-10T14:08:47Z</time>
      </trkpt>
      <trkpt lat="48.67246" lon="-4.05564">
        <ele>12.1</ele>
        <time>2022-06-10T14:08:48Z</time>
      </trkpt>
      <trkpt lat="48.67246" lon="-4.05564">
        <ele>12.1</ele>
        <time>2022-06-10T14:08:49Z</time>
      </trkpt>
      <trkpt lat="48.67246" lon="-4.05564">
        <ele>12.1</ele>
        <time>2022-06-10T14:08:50Z</time>
      </trkpt>
      <trkpt lat="48.67246" lon="-4.05564">
        <ele>12.1</ele>
        <time>2022-06-10T14:08:51Z</time>
      </trkpt>
      <trkpt lat="48.67246" lon="-4.05564">
        <ele>12.1</ele>
        <time>2022-06-10T14:08:52Z</time>
      </trkpt>
      <trkpt lat="48.67246" lon="-4.05563">
        <ele>12.1</ele>
        <time>2022-06-10T14:08:53Z</time>
      </trkpt>
      <trkpt lat="48.67246" lon="-4.05563">
        <ele>12.1</ele>
        <time>2022-06-10T14:08:54Z</time>
      </trkpt>
      <trkpt lat="48.67247" lon="-4.05563">
        <ele>12.2</ele>
        <time>2022-06-10T14:08:55Z</time>
      </trkpt>
      <trkpt lat="48.67247" lon="-4.05563">
        <ele>12.2</ele>
        <time>2022-06-10T14:08:56Z</time>
      </trkpt>
      <trkpt lat="48.67247" lon="-4.05563">
        <ele>12.2</ele>
        <time>2022-06-10T14:08:57Z</time>
      </trkpt>
      <trkpt lat="48.67247" lon="-4.05563">
        <ele>12.2</ele>
        <time>2022-06-10T14:08:58Z</time>
      </trkpt>
      <trkpt lat="48.67247" lon="-4.05562">
        <ele>12.2</ele>
        <time>2022-06-10T14:08:59Z</time>
      </trkpt>
      <trkpt lat="48.67247" lon="-4.05562">
        <ele>12.2</ele>
        <time>2022-06-10T14:09:00Z</time>
      </trkpt>
      <trkpt lat="48.67247" lon="-4.05562">
        <ele>12.2</ele>
        <time>2022-06-10T14:09:01Z</time>
      </trkpt>
      <trkpt lat="48.67247" lon="-4.05562">
        <ele>12.2</ele>
        <time>2022-06-10T14:09:02Z</time>
      </trkpt>
      <trkpt lat="48.67247" lon="-4.05562">
        <ele>12.2</ele>
        <time>2022-06-10T14:09:03Z</time>
      </trkpt>
      <trkpt lat="48.67247" lon="-4.05561">
        <ele>12.2</ele>
        <time>2022-06-10T14:09:04Z</time>
      </trkpt>
      <trkpt lat="48.67247" lon="-4.05561">
        <ele>12.2</ele>
        <time>2022-06-10T14:09:05Z</time>
      </trkpt>
      <trkpt lat="48.67247" lon="-4.05561">
        <ele>12.2</ele>
        <time>2022-06-10T14:09:06Z</time>
      </trkpt>
      <trkpt lat="48.67247" lon="-4.05561">
        <ele>12.3</ele>
        <time>2022-06-10T14:09:08Z</time>
      </trkpt>
      <trkpt lat="48.67247" lon="-4.05561">
        <ele>12.3</ele>
        <time>2022-06-10T14:09:09Z</time>
      </trkpt>
      <trkpt lat="48.67247" lon="-4.05561">
        <ele>12.3</ele>
        <time>2022-06-10T14:09:10Z</time>
      </trkpt>
      <trkpt lat="48.67248" lon="-4.0556">
        <ele>12.3</ele>
        <time>2022-06-10T14:09:11Z</time>
      </trkpt>
      <trkpt lat="48.67248" lon="-4.0556">
        <ele>12.3</ele>
        <time>2022-06-10T14:09:12Z</time>
      </trkpt>
      <trkpt lat="48.67248" lon="-4.0556">
        <ele>12.3</ele>
        <time>2022-06-10T14:09:13Z</time>
      </trkpt>
      <trkpt lat="48.67248" lon="-4.0556">
        <ele>12.3</ele>
        <time>2022-06-10T14:09:14Z</time>
      </trkpt>
      <trkpt lat="48.67248" lon="-4.0556">
        <ele>12.3</ele>
        <time>2022-06-10T14:09:15Z</time>
      </trkpt>
      <trkpt lat="48.6725" lon="-4.05554">
        <ele>12.5</ele>
        <time>2022-06-10T14:09:16Z</time>
      </trkpt>
      <trkpt lat="48.67251" lon="-4.05551">
        <ele>13.1</ele>
        <time>2022-06-10T14:09:17Z</time>
      </trkpt>
      <trkpt lat="48.67251" lon="-4.0555">
        <ele>13.1</ele>
        <time>2022-06-10T14:09:18Z</time>
      </trkpt>
      <trkpt lat="48.67251" lon="-4.05549">
        <ele>13.1</ele>
        <time>2022-06-10T14:09:19Z</time>
      </trkpt>
      <trkpt lat="48.67251" lon="-4.05549">
        <ele>13.1</ele>
        <time>2022-06-10T14:09:20Z</time>
      </trkpt>
      <trkpt lat="48.67251" lon="-4.05549">
        <ele>13.1</ele>
        <time>2022-06-10T14:09:21Z</time>
      </trkpt>
      <trkpt lat="48.67251" lon="-4.05549">
        <ele>13.1</ele>
        <time>2022-06-10T14:09:22Z</time>
      </trkpt>
      <trkpt lat="48.67251" lon="-4.05549">
        <ele>13.1</ele>
        <time>2022-06-10T14:09:23Z</time>
      </trkpt>
      <trkpt lat="48.6725" lon="-4.05549">
        <ele>13.1</ele>
        <time>2022-06-10T14:09:24Z</time>
      </trkpt>
      <trkpt lat="48.6725" lon="-4.05548">
        <ele>13.1</ele>
        <time>2022-06-10T14:09:25Z</time>
      </trkpt>
      <trkpt lat="48.67249" lon="-4.05546">
        <ele>13.1</ele>
        <time>2022-06-10T14:09:26Z</time>
      </trkpt>
      <trkpt lat="48.67249" lon="-4.05545">
        <ele>13.1</ele>
        <time>2022-06-10T14:09:27Z</time>
      </trkpt>
      <trkpt lat="48.67249" lon="-4.05545">
        <ele>13.1</ele>
        <time>2022-06-10T14:09:29Z</time>
      </trkpt>
      <trkpt lat="48.67249" lon="-4.05545">
        <ele>13.1</ele>
        <time>2022-06-10T14:09:30Z</time>
      </trkpt>
      <trkpt lat="48.67249" lon="-4.05545">
        <ele>13.1</ele>
        <time>2022-06-10T14:09:31Z</time>
      </trkpt>
      <trkpt lat="48.67249" lon="-4.05544">
        <ele>13.1</ele>
        <time>2022-06-10T14:09:32Z</time>
      </trkpt>
      <trkpt lat="48.67249" lon="-4.05544">
        <ele>13.1</ele>
        <time>2022-06-10T14:09:33Z</time>
      </trkpt>
      <trkpt lat="48.67249" lon="-4.05544">
        <ele>13.1</ele>
        <time>2022-06-10T14:09:34Z</time>
      </trkpt>
      <trkpt lat="48.67249" lon="-4.05543">
        <ele>13.1</ele>
        <time>2022-06-10T14:09:35Z</time>
      </trkpt>
      <trkpt lat="48.67248" lon="-4.05542">
        <ele>13.1</ele>
        <time>2022-06-10T14:09:36Z</time>
      </trkpt>
      <trkpt lat="48.67249" lon="-4.05542">
        <ele>13.1</ele>
        <time>2022-06-10T14:09:38Z</time>
      </trkpt>
      <trkpt lat="48.67249" lon="-4.05541">
        <ele>13.1</ele>
        <time>2022-06-10T14:09:39Z</time>
      </trkpt>
      <trkpt lat="48.67249" lon="-4.05541">
        <ele>13.1</ele>
        <time>2022-06-10T14:09:40Z</time>
      </trkpt>
      <trkpt lat="48.67249" lon="-4.0554">
        <ele>13.1</ele>
        <time>2022-06-10T14:09:41Z</time>
      </trkpt>
      <trkpt lat="48.67249" lon="-4.05539">
        <ele>14.6</ele>
        <time>2022-06-10T14:09:42Z</time>
      </trkpt>
      <trkpt lat="48.67249" lon="-4.05538">
        <ele>14.7</ele>
        <time>2022-06-10T14:09:43Z</time>
      </trkpt>
      <trkpt lat="48.67249" lon="-4.05538">
        <ele>14.8</ele>
        <time>2022-06-10T14:09:44Z</time>
      </trkpt>
      <trkpt lat="48.6725" lon="-4.05537">
        <ele>14.8</ele>
        <time>2022-06-10T14:09:46Z</time>
      </trkpt>
      <trkpt lat="48.6725" lon="-4.05536">
        <ele>14.9</ele>
        <time>2022-06-10T14:09:47Z</time>
      </trkpt>
      <trkpt lat="48.6725" lon="-4.05536">
        <ele>15</ele>
        <time>2022-06-10T14:09:48Z</time>
      </trkpt>
      <trkpt lat="48.6725" lon="-4.05535">
        <ele>15</ele>
        <time>2022-06-10T14:09:49Z</time>
      </trkpt>
      <trkpt lat="48.6725" lon="-4.05534">
        <ele>15.1</ele>
        <time>2022-06-10T14:09:51Z</time>
      </trkpt>
      <trkpt lat="48.6725" lon="-4.05533">
        <ele>15.2</ele>
        <time>2022-06-10T14:09:52Z</time>
      </trkpt>
      <trkpt lat="48.67251" lon="-4.05533">
        <ele>15.2</ele>
        <time>2022-06-10T14:09:53Z</time>
      </trkpt>
      <trkpt lat="48.67252" lon="-4.0553">
        <ele>15.5</ele>
        <time>2022-06-10T14:09:55Z</time>
      </trkpt>
      <trkpt lat="48.67253" lon="-4.05528">
        <ele>15.7</ele>
        <time>2022-06-10T14:09:56Z</time>
      </trkpt>
      <trkpt lat="48.67253" lon="-4.05526">
        <ele>16</ele>
        <time>2022-06-10T14:09:58Z</time>
      </trkpt>
      <trkpt lat="48.67253" lon="-4.05524">
        <ele>16.1</ele>
        <time>2022-06-10T14:09:59Z</time>
      </trkpt>
      <trkpt lat="48.67252" lon="-4.05521">
        <ele>16.5</ele>
        <time>2022-06-10T14:10:00Z</time>
      </trkpt>
      <trkpt lat="48.67252" lon="-4.05519">
        <ele>16.8</ele>
        <time>2022-06-10T14:10:02Z</time>
      </trkpt>
      <trkpt lat="48.67251" lon="-4.05518">
        <ele>16.8</ele>
        <time>2022-06-10T14:10:03Z</time>
      </trkpt>
      <trkpt lat="48.67251" lon="-4.05518">
        <ele>16.9</ele>
        <time>2022-06-10T14:10:04Z</time>
      </trkpt>
      <trkpt lat="48.67251" lon="-4.05518">
        <ele>17</ele>
        <time>2022-06-10T14:10:05Z</time>
      </trkpt>
      <trkpt lat="48.6725" lon="-4.05516">
        <ele>17.2</ele>
        <time>2022-06-10T14:10:07Z</time>
      </trkpt>
      <trkpt lat="48.6725" lon="-4.05515">
        <ele>17.3</ele>
        <time>2022-06-10T14:10:08Z</time>
      </trkpt>
      <trkpt lat="48.67249" lon="-4.05514">
        <ele>17.4</ele>
        <time>2022-06-10T14:10:09Z</time>
      </trkpt>
      <trkpt lat="48.67249" lon="-4.05513">
        <ele>17.6</ele>
        <time>2022-06-10T14:10:10Z</time>
      </trkpt>
      <trkpt lat="48.67248" lon="-4.05511">
        <ele>17.8</ele>
        <time>2022-06-10T14:10:12Z</time>
      </trkpt>
      <trkpt lat="48.67248" lon="-4.0551">
        <ele>17.9</ele>
        <time>2022-06-10T14:10:13Z</time>
      </trkpt>
      <trkpt lat="48.67248" lon="-4.05509">
        <ele>18</ele>
        <time>2022-06-10T14:10:14Z</time>
      </trkpt>
      <trkpt lat="48.67248" lon="-4.05508">
        <ele>18.1</ele>
        <time>2022-06-10T14:10:15Z</time>
      </trkpt>
      <trkpt lat="48.67247" lon="-4.05508">
        <ele>18.1</ele>
        <time>2022-06-10T14:10:16Z</time>
      </trkpt>
      <trkpt lat="48.67247" lon="-4.05507">
        <ele>18.2</ele>
        <time>2022-06-10T14:10:17Z</time>
      </trkpt>
      <trkpt lat="48.67247" lon="-4.05512">
        <ele>18.6</ele>
        <time>2022-06-10T14:10:19Z</time>
      </trkpt>
      <trkpt lat="48.67246" lon="-4.05512">
        <ele>18.7</ele>
        <time>2022-06-10T14:10:20Z</time>
      </trkpt>
      <trkpt lat="48.67246" lon="-4.0551">
        <ele>18.9</ele>
        <time>2022-06-10T14:10:21Z</time>
      </trkpt>
      <trkpt lat="48.67246" lon="-4.05509">
        <ele>19</ele>
        <time>2022-06-10T14:10:23Z</time>
      </trkpt>
      <trkpt lat="48.67245" lon="-4.05508">
        <ele>19.2</ele>
        <time>2022-06-10T14:10:24Z</time>
      </trkpt>
      <trkpt lat="48.67244" lon="-4.05507">
        <ele>19.3</ele>
        <time>2022-06-10T14:10:25Z</time>
      </trkpt>
      <trkpt lat="48.67244" lon="-4.05507">
        <ele>19.4</ele>
        <time>2022-06-10T14:10:26Z</time>
      </trkpt>
      <trkpt lat="48.67244" lon="-4.05506">
        <ele>19.5</ele>
        <time>2022-06-10T14:10:28Z</time>
      </trkpt>
      <trkpt lat="48.67244" lon="-4.05504">
        <ele>19.7</ele>
        <time>2022-06-10T14:10:29Z</time>
      </trkpt>
      <trkpt lat="48.67244" lon="-4.05503">
        <ele>19.8</ele>
        <time>2022-06-10T14:10:30Z</time>
      </trkpt>
      <trkpt lat="48.67244" lon="-4.05502">
        <ele>19.9</ele>
        <time>2022-06-10T14:10:31Z</time>
      </trkpt>
      <trkpt lat="48.67244" lon="-4.05501">
        <ele>20</ele>
        <time>2022-06-10T14:10:32Z</time>
      </trkpt>
      <trkpt lat="48.67244" lon="-4.05499">
        <ele>20.2</ele>
        <time>2022-06-10T14:10:33Z</time>
      </trkpt>
      <trkpt lat="48.67244" lon="-4.05497">
        <ele>20.4</ele>
        <time>2022-06-10T14:10:35Z</time>
      </trkpt>
      <trkpt lat="48.67244" lon="-4.05495">
        <ele>20.6</ele>
        <time>2022-06-10T14:10:36Z</time>
      </trkpt>
      <trkpt lat="48.67244" lon="-4.05493">
        <ele>20.9</ele>
        <time>2022-06-10T14:10:38Z</time>
      </trkpt>
      <trkpt lat="48.67244" lon="-4.0549">
        <ele>21.2</ele>
        <time>2022-06-10T14:10:39Z</time>
      </trkpt>
      <trkpt lat="48.67244" lon="-4.05488">
        <ele>21.4</ele>
        <time>2022-06-10T14:10:41Z</time>
      </trkpt>
      <trkpt lat="48.67243" lon="-4.05486">
        <ele>21.6</ele>
        <time>2022-06-10T14:10:42Z</time>
      </trkpt>
      <trkpt lat="48.67246" lon="-4.05468">
        <ele>23.9</ele>
        <time>2022-06-10T14:10:44Z</time>
      </trkpt>
      <trkpt lat="48.67248" lon="-4.05452">
        <ele>26</ele>
        <time>2022-06-10T14:10:46Z</time>
      </trkpt>
      <trkpt lat="48.6725" lon="-4.05436">
        <ele>28.2</ele>
        <time>2022-06-10T14:10:47Z</time>
      </trkpt>
      <trkpt lat="48.67253" lon="-4.0542">
        <ele>30.8</ele>
        <time>2022-06-10T14:10:49Z</time>
      </trkpt>
      <trkpt lat="48.67255" lon="-4.05404">
        <ele>33.4</ele>
        <time>2022-06-10T14:16:38Z</time>
      </trkpt>
      <trkpt lat="48.67258" lon="-4.05388">
        <ele>34.6</ele>
        <time>2022-06-10T14:16:40Z</time>
      </trkpt>
      <trkpt lat="48.67258" lon="-4.0538">
        <ele>35.2</ele>
        <time>2022-06-10T14:16:41Z</time>
      </trkpt>
      <trkpt lat="48.67258" lon="-4.05375">
        <ele>35.7</ele>
        <time>2022-06-10T14:16:42Z</time>
      </trkpt>
      <trkpt lat="48.67258" lon="-4.0537">
        <ele>36.4</ele>
        <time>2022-06-10T14:16:43Z</time>
      </trkpt>
      <trkpt lat="48.67258" lon="-4.05368">
        <ele>36.7</ele>
        <time>2022-06-10T14:16:44Z</time>
      </trkpt>
      <trkpt lat="48.67259" lon="-4.05361">
        <ele>37.5</ele>
        <time>2022-06-10T14:16:45Z</time>
      </trkpt>
      <trkpt lat="48.67259" lon="-4.05358">
        <ele>37.8</ele>
        <time>2022-06-10T14:16:46Z</time>
      </trkpt>
      <trkpt lat="48.6726" lon="-4.05356">
        <ele>38.3</ele>
        <time>2022-06-10T14:16:47Z</time>
      </trkpt>
      <trkpt lat="48.67261" lon="-4.05354">
        <ele>38.5</ele>
        <time>2022-06-10T14:16:48Z</time>
      </trkpt>
      <trkpt lat="48.67262" lon="-4.05352">
        <ele>39.1</ele>
        <time>2022-06-10T14:16:49Z</time>
      </trkpt>
      <trkpt lat="48.67264" lon="-4.05349">
        <ele>39.3</ele>
        <time>2022-06-10T14:16:50Z</time>
      </trkpt>
      <trkpt lat="48.67265" lon="-4.05347">
        <ele>39.8</ele>
        <time>2022-06-10T14:16:51Z</time>
      </trkpt>
      <trkpt lat="48.67268" lon="-4.05343">
        <ele>40.3</ele>
        <time>2022-06-10T14:16:52Z</time>
      </trkpt>
      <trkpt lat="48.67271" lon="-4.0534">
        <ele>40.5</ele>
        <time>2022-06-10T14:16:53Z</time>
      </trkpt>
      <trkpt lat="48.67272" lon="-4.05339">
        <ele>40.5</ele>
        <time>2022-06-10T14:16:54Z</time>
      </trkpt>
      <trkpt lat="48.67272" lon="-4.05339">
        <ele>40.5</ele>
        <time>2022-06-10T14:16:55Z</time>
      </trkpt>
      <trkpt lat="48.67272" lon="-4.05339">
        <ele>40.5</ele>
        <time>2022-06-10T14:16:57Z</time>
      </trkpt>
      <trkpt lat="48.67272" lon="-4.05339">
        <ele>40.5</ele>
        <time>2022-06-10T14:16:58Z</time>
      </trkpt>
      <trkpt lat="48.67272" lon="-4.05339">
        <ele>40.5</ele>
        <time>2022-06-10T14:16:59Z</time>
      </trkpt>
      <trkpt lat="48.67272" lon="-4.05339">
        <ele>40.5</ele>
        <time>2022-06-10T14:17:00Z</time>
      </trkpt>
      <trkpt lat="48.67272" lon="-4.05339">
        <ele>40.5</ele>
        <time>2022-06-10T14:17:01Z</time>
      </trkpt>
      <trkpt lat="48.67272" lon="-4.05339">
        <ele>40.5</ele>
        <time>2022-06-10T14:17:02Z</time>
      </trkpt>
      <trkpt lat="48.67272" lon="-4.05339">
        <ele>40.5</ele>
        <time>2022-06-10T14:17:04Z</time>
      </trkpt>
      <trkpt lat="48.67272" lon="-4.05339">
        <ele>40.5</ele>
        <time>2022-06-10T14:17:05Z</time>
      </trkpt>
      <trkpt lat="48.67272" lon="-4.0534">
        <ele>40.5</ele>
        <time>2022-06-10T14:17:06Z</time>
      </trkpt>
      <trkpt lat="48.67272" lon="-4.0534">
        <ele>40.5</ele>
        <time>2022-06-10T14:17:07Z</time>
      </trkpt>
      <trkpt lat="48.67272" lon="-4.0534">
        <ele>40.6</ele>
        <time>2022-06-10T14:17:08Z</time>
      </trkpt>
      <trkpt lat="48.67272" lon="-4.0534">
        <ele>40.6</ele>
        <time>2022-06-10T14:17:09Z</time>
      </trkpt>
      <trkpt lat="48.67272" lon="-4.0534">
        <ele>40.6</ele>
        <time>2022-06-10T14:17:10Z</time>
      </trkpt>
      <trkpt lat="48.67272" lon="-4.0534">
        <ele>40.6</ele>
        <time>2022-06-10T14:17:11Z</time>
      </trkpt>
      <trkpt lat="48.67272" lon="-4.0534">
        <ele>40.6</ele>
        <time>2022-06-10T14:17:12Z</time>
      </trkpt>
      <trkpt lat="48.67272" lon="-4.0534">
        <ele>40.6</ele>
        <time>2022-06-10T14:17:13Z</time>
      </trkpt>
      <trkpt lat="48.67272" lon="-4.0534">
        <ele>40.6</ele>
        <time>2022-06-10T14:17:14Z</time>
      </trkpt>
      <trkpt lat="48.67272" lon="-4.0534">
        <ele>40.6</ele>
        <time>2022-06-10T14:17:15Z</time>
      </trkpt>
      <trkpt lat="48.67272" lon="-4.0534">
        <ele>40.6</ele>
        <time>2022-06-10T14:17:16Z</time>
      </trkpt>
      <trkpt lat="48.67272" lon="-4.0534">
        <ele>40.6</ele>
        <time>2022-06-10T14:17:17Z</time>
      </trkpt>
      <trkpt lat="48.67272" lon="-4.0534">
        <ele>40.6</ele>
        <time>2022-06-10T14:17:18Z</time>
      </trkpt>
      <trkpt lat="48.67272" lon="-4.0534">
        <ele>40.6</ele>
        <time>2022-06-10T14:17:19Z</time>
      </trkpt>
      <trkpt lat="48.67272" lon="-4.05341">
        <ele>40.6</ele>
        <time>2022-06-10T14:17:20Z</time>
      </trkpt>
      <trkpt lat="48.67272" lon="-4.05341">
        <ele>40.6</ele>
        <time>2022-06-10T14:17:21Z</time>
      </trkpt>
      <trkpt lat="48.67272" lon="-4.05341">
        <ele>40.6</ele>
        <time>2022-06-10T14:17:22Z</time>
      </trkpt>
      <trkpt lat="48.67272" lon="-4.05341">
        <ele>40.6</ele>
        <time>2022-06-10T14:17:23Z</time>
      </trkpt>
      <trkpt lat="48.67272" lon="-4.05341">
        <ele>40.6</ele>
        <time>2022-06-10T14:17:24Z</time>
      </trkpt>
      <trkpt lat="48.67272" lon="-4.05341">
        <ele>40.6</ele>
        <time>2022-06-10T14:17:25Z</time>
      </trkpt>
      <trkpt lat="48.67272" lon="-4.05341">
        <ele>40.6</ele>
        <time>2022-06-10T14:17:26Z</time>
      </trkpt>
      <trkpt lat="48.67272" lon="-4.05341">
        <ele>40.6</ele>
        <time>2022-06-10T14:17:27Z</time>
      </trkpt>
      <trkpt lat="48.67272" lon="-4.05341">
        <ele>40.6</ele>
        <time>2022-06-10T14:17:28Z</time>
      </trkpt>
      <trkpt lat="48.67272" lon="-4.05341">
        <ele>40.6</ele>
        <time>2022-06-10T14:17:29Z</time>
      </trkpt>
      <trkpt lat="48.67272" lon="-4.05341">
        <ele>40.6</ele>
        <time>2022-06-10T14:17:30Z</time>
      </trkpt>
      <trkpt lat="48.67272" lon="-4.05341">
        <ele>40.6</ele>
        <time>2022-06-10T14:17:31Z</time>
      </trkpt>
      <trkpt lat="48.67273" lon="-4.05341">
        <ele>40.6</ele>
        <time>2022-06-10T14:17:32Z</time>
      </trkpt>
      <trkpt lat="48.67273" lon="-4.05341">
        <ele>40.6</ele>
        <time>2022-06-10T14:17:33Z</time>
      </trkpt>
      <trkpt lat="48.67273" lon="-4.05342">
        <ele>40.6</ele>
        <time>2022-06-10T14:17:34Z</time>
      </trkpt>
      <trkpt lat="48.67273" lon="-4.05342">
        <ele>40.6</ele>
        <time>2022-06-10T14:17:35Z</time>
      </trkpt>
      <trkpt lat="48.67273" lon="-4.05342">
        <ele>40.6</ele>
        <time>2022-06-10T14:17:36Z</time>
      </trkpt>
      <trkpt lat="48.67273" lon="-4.05342">
        <ele>40.6</ele>
        <time>2022-06-10T14:17:37Z</time>
      </trkpt>
      <trkpt lat="48.67273" lon="-4.05342">
        <ele>40.7</ele>
        <time>2022-06-10T14:17:38Z</time>
      </trkpt>
      <trkpt lat="48.67273" lon="-4.05342">
        <ele>40.7</ele>
        <time>2022-06-10T14:17:39Z</time>
      </trkpt>
      <trkpt lat="48.67273" lon="-4.05342">
        <ele>40.7</ele>
        <time>2022-06-10T14:17:40Z</time>
      </trkpt>
      <trkpt lat="48.67273" lon="-4.05342">
        <ele>40.7</ele>
        <time>2022-06-10T14:17:41Z</time>
      </trkpt>
      <trkpt lat="48.67273" lon="-4.05342">
        <ele>40.7</ele>
        <time>2022-06-10T14:17:42Z</time>
      </trkpt>
      <trkpt lat="48.67273" lon="-4.05342">
        <ele>40.7</ele>
        <time>2022-06-10T14:17:43Z</time>
      </trkpt>
      <trkpt lat="48.67273" lon="-4.05342">
        <ele>40.7</ele>
        <time>2022-06-10T14:17:44Z</time>
      </trkpt>
      <trkpt lat="48.67273" lon="-4.05342">
        <ele>40.7</ele>
        <time>2022-06-10T14:17:45Z</time>
      </trkpt>
      <trkpt lat="48.67273" lon="-4.05342">
        <ele>40.7</ele>
        <time>2022-06-10T14:17:46Z</time>
      </trkpt>
      <trkpt lat="48.67273" lon="-4.05342">
        <ele>40.7</ele>
        <time>2022-06-10T14:17:47Z</time>
      </trkpt>
      <trkpt lat="48.67273" lon="-4.05343">
        <ele>40.7</ele>
        <time>2022-06-10T14:17:48Z</time>
      </trkpt>
      <trkpt lat="48.67273" lon="-4.05343">
        <ele>40.7</ele>
        <time>2022-06-10T14:17:49Z</time>
      </trkpt>
      <trkpt lat="48.67273" lon="-4.05343">
        <ele>40.7</ele>
        <time>2022-06-10T14:17:50Z</time>
      </trkpt>
      <trkpt lat="48.67273" lon="-4.05343">
        <ele>40.7</ele>
        <time>2022-06-10T14:17:51Z</time>
      </trkpt>
      <trkpt lat="48.67273" lon="-4.05343">
        <ele>40.7</ele>
        <time>2022-06-10T14:17:52Z</time>
      </trkpt>
      <trkpt lat="48.67273" lon="-4.05343">
        <ele>40.7</ele>
        <time>2022-06-10T14:17:53Z</time>
      </trkpt>
      <trkpt lat="48.67273" lon="-4.05343">
        <ele>40.7</ele>
        <time>2022-06-10T14:17:54Z</time>
      </trkpt>
      <trkpt lat="48.67273" lon="-4.05343">
        <ele>40.7</ele>
        <time>2022-06-10T14:17:55Z</time>
      </trkpt>
      <trkpt lat="48.67273" lon="-4.05343">
        <ele>40.7</ele>
        <time>2022-06-10T14:17:56Z</time>
      </trkpt>
      <trkpt lat="48.67273" lon="-4.05343">
        <ele>40.7</ele>
        <time>2022-06-10T14:17:57Z</time>
      </trkpt>
      <trkpt lat="48.67273" lon="-4.05343">
        <ele>40.7</ele>
        <time>2022-06-10T14:17:58Z</time>
      </trkpt>
      <trkpt lat="48.67273" lon="-4.05343">
        <ele>40.7</ele>
        <time>2022-06-10T14:17:59Z</time>
      </trkpt>
      <trkpt lat="48.67273" lon="-4.05343">
        <ele>40.7</ele>
        <time>2022-06-10T14:18:01Z</time>
      </trkpt>
      <trkpt lat="48.67273" lon="-4.05344">
        <ele>40.7</ele>
        <time>2022-06-10T14:18:02Z</time>
      </trkpt>
      <trkpt lat="48.67273" lon="-4.05344">
        <ele>40.7</ele>
        <time>2022-06-10T14:18:03Z</time>
      </trkpt>
      <trkpt lat="48.67273" lon="-4.05344">
        <ele>40.7</ele>
        <time>2022-06-10T14:18:04Z</time>
      </trkpt>
      <trkpt lat="48.67273" lon="-4.05344">
        <ele>40.7</ele>
        <time>2022-06-10T14:18:05Z</time>
      </trkpt>
      <trkpt lat="48.67273" lon="-4.05344">
        <ele>40.7</ele>
        <time>2022-06-10T14:18:07Z</time>
      </trkpt>
      <trkpt lat="48.67273" lon="-4.05344">
        <ele>40.7</ele>
        <time>2022-06-10T14:18:08Z</time>
      </trkpt>
      <trkpt lat="48.67273" lon="-4.05344">
        <ele>40.7</ele>
        <time>2022-06-10T14:18:09Z</time>
      </trkpt>
      <trkpt lat="48.67273" lon="-4.05344">
        <ele>40.8</ele>
        <time>2022-06-10T14:18:10Z</time>
      </trkpt>
      <trkpt lat="48.67273" lon="-4.05344">
        <ele>40.8</ele>
        <time>2022-06-10T14:18:11Z</time>
      </trkpt>
      <trkpt lat="48.67273" lon="-4.05345">
        <ele>40.8</ele>
        <time>2022-06-10T14:18:12Z</time>
      </trkpt>
      <trkpt lat="48.67272" lon="-4.05343">
        <ele>40.9</ele>
        <time>2022-06-10T14:18:14Z</time>
      </trkpt>
      <trkpt lat="48.6727" lon="-4.05342">
        <ele>41</ele>
        <time>2022-06-10T14:18:15Z</time>
      </trkpt>
      <trkpt lat="48.6727" lon="-4.05341">
        <ele>41</ele>
        <time>2022-06-10T14:18:16Z</time>
      </trkpt>
      <trkpt lat="48.6727" lon="-4.0534">
        <ele>41.1</ele>
        <time>2022-06-10T14:18:17Z</time>
      </trkpt>
      <trkpt lat="48.67269" lon="-4.05339">
        <ele>41.1</ele>
        <time>2022-06-10T14:18:18Z</time>
      </trkpt>
      <trkpt lat="48.67268" lon="-4.05339">
        <ele>41.1</ele>
        <time>2022-06-10T14:18:20Z</time>
      </trkpt>
      <trkpt lat="48.67267" lon="-4.05339">
        <ele>41.2</ele>
        <time>2022-06-10T14:18:21Z</time>
      </trkpt>
      <trkpt lat="48.67267" lon="-4.05338">
        <ele>41.2</ele>
        <time>2022-06-10T14:18:22Z</time>
      </trkpt>
      <trkpt lat="48.67265" lon="-4.05338">
        <ele>41.3</ele>
        <time>2022-06-10T14:18:24Z</time>
      </trkpt>
      <trkpt lat="48.67264" lon="-4.05338">
        <ele>41.4</ele>
        <time>2022-06-10T14:18:25Z</time>
      </trkpt>
      <trkpt lat="48.67263" lon="-4.05336">
        <ele>41.4</ele>
        <time>2022-06-10T14:18:26Z</time>
      </trkpt>
      <trkpt lat="48.67261" lon="-4.05335">
        <ele>41.5</ele>
        <time>2022-06-10T14:18:28Z</time>
      </trkpt>
      <trkpt lat="48.6726" lon="-4.05334">
        <ele>41.6</ele>
        <time>2022-06-10T14:18:29Z</time>
      </trkpt>
      <trkpt lat="48.67258" lon="-4.05333">
        <ele>41.7</ele>
        <time>2022-06-10T14:18:30Z</time>
      </trkpt>
      <trkpt lat="48.67257" lon="-4.05333">
        <ele>41.8</ele>
        <time>2022-06-10T14:18:32Z</time>
      </trkpt>
      <trkpt lat="48.67256" lon="-4.05333">
        <ele>41.8</ele>
        <time>2022-06-10T14:18:33Z</time>
      </trkpt>
      <trkpt lat="48.67255" lon="-4.05332">
        <ele>41.9</ele>
        <time>2022-06-10T14:18:34Z</time>
      </trkpt>
      <trkpt lat="48.67255" lon="-4.05332">
        <ele>41.9</ele>
        <time>2022-06-10T14:18:35Z</time>
      </trkpt>
      <trkpt lat="48.67254" lon="-4.05331">
        <ele>41.9</ele>
        <time>2022-06-10T14:18:37Z</time>
      </trkpt>
      <trkpt lat="48.67253" lon="-4.0533">
        <ele>42</ele>
        <time>2022-06-10T14:18:38Z</time>
      </trkpt>
      <trkpt lat="48.67252" lon="-4.05329">
        <ele>42</ele>
        <time>2022-06-10T14:18:39Z</time>
      </trkpt>
      <trkpt lat="48.67251" lon="-4.05329">
        <ele>42.1</ele>
        <time>2022-06-10T14:18:41Z</time>
      </trkpt>
      <trkpt lat="48.6725" lon="-4.05329">
        <ele>42.1</ele>
        <time>2022-06-10T14:18:42Z</time>
      </trkpt>
      <trkpt lat="48.67251" lon="-4.0533">
        <ele>42.2</ele>
        <time>2022-06-10T14:18:43Z</time>
      </trkpt>
      <trkpt lat="48.67251" lon="-4.05329">
        <ele>42.3</ele>
        <time>2022-06-10T14:18:45Z</time>
      </trkpt>
      <trkpt lat="48.6725" lon="-4.05328">
        <ele>42.3</ele>
        <time>2022-06-10T14:18:46Z</time>
      </trkpt>
      <trkpt lat="48.6725" lon="-4.05327">
        <ele>42.3</ele>
        <time>2022-06-10T14:18:47Z</time>
      </trkpt>
      <trkpt lat="48.67249" lon="-4.05327">
        <ele>42.4</ele>
        <time>2022-06-10T14:18:48Z</time>
      </trkpt>
      <trkpt lat="48.67249" lon="-4.05327">
        <ele>42.4</ele>
        <time>2022-06-10T14:18:49Z</time>
      </trkpt>
      <trkpt lat="48.67249" lon="-4.05327">
        <ele>42.4</ele>
        <time>2022-06-10T14:18:50Z</time>
      </trkpt>
      <trkpt lat="48.67248" lon="-4.05328">
        <ele>42.4</ele>
        <time>2022-06-10T14:18:51Z</time>
      </trkpt>
      <trkpt lat="48.67248" lon="-4.05328">
        <ele>42.4</ele>
        <time>2022-06-10T14:18:52Z</time>
      </trkpt>
      <trkpt lat="48.67249" lon="-4.05329">
        <ele>42.5</ele>
        <time>2022-06-10T14:18:53Z</time>
      </trkpt>
      <trkpt lat="48.67248" lon="-4.05329">
        <ele>42.5</ele>
        <time>2022-06-10T14:18:54Z</time>
      </trkpt>
      <trkpt lat="48.67248" lon="-4.05329">
        <ele>42.5</ele>
        <time>2022-06-10T14:18:56Z</time>
      </trkpt>
      <trkpt lat="48.67247" lon="-4.05329">
        <ele>42.5</ele>
        <time>2022-06-10T14:18:57Z</time>
      </trkpt>
      <trkpt lat="48.67247" lon="-4.05329">
        <ele>42.5</ele>
        <time>2022-06-10T14:18:58Z</time>
      </trkpt>
      <trkpt lat="48.67246" lon="-4.05328">
        <ele>42.6</ele>
        <time>2022-06-10T14:19:00Z</time>
      </trkpt>
      <trkpt lat="48.67245" lon="-4.05328">
        <ele>42.6</ele>
        <time>2022-06-10T14:19:01Z</time>
      </trkpt>
      <trkpt lat="48.67244" lon="-4.05328">
        <ele>42.7</ele>
        <time>2022-06-10T14:19:02Z</time>
      </trkpt>
      <trkpt lat="48.67244" lon="-4.05328">
        <ele>42.7</ele>
        <time>2022-06-10T14:19:03Z</time>
      </trkpt>
      <trkpt lat="48.67123" lon="-4.05058">
        <ele>34.6</ele>
        <time>2022-06-10T14:24:47Z</time>
      </trkpt>
      <trkpt lat="48.67125" lon="-4.05057">
        <ele>34.6</ele>
        <time>2022-06-10T14:24:48Z</time>
      </trkpt>
      <trkpt lat="48.67125" lon="-4.05056">
        <ele>34.6</ele>
        <time>2022-06-10T14:24:49Z</time>
      </trkpt>
      <trkpt lat="48.67125" lon="-4.05056">
        <ele>34.6</ele>
        <time>2022-06-10T14:24:50Z</time>
      </trkpt>
      <trkpt lat="48.67125" lon="-4.05057">
        <ele>34.6</ele>
        <time>2022-06-10T14:24:51Z</time>
      </trkpt>
      <trkpt lat="48.67124" lon="-4.05057">
        <ele>34.6</ele>
        <time>2022-06-10T14:24:52Z</time>
      </trkpt>
      <trkpt lat="48.67124" lon="-4.05057">
        <ele>34.6</ele>
        <time>2022-06-10T14:24:53Z</time>
      </trkpt>
      <trkpt lat="48.67124" lon="-4.05057">
        <ele>34.6</ele>
        <time>2022-06-10T14:24:54Z</time>
      </trkpt>
      <trkpt lat="48.67124" lon="-4.05057">
        <ele>34.6</ele>
        <time>2022-06-10T14:24:55Z</time>
      </trkpt>
      <trkpt lat="48.67124" lon="-4.05057">
        <ele>34.6</ele>
        <time>2022-06-10T14:24:56Z</time>
      </trkpt>
      <trkpt lat="48.67124" lon="-4.05057">
        <ele>34.6</ele>
        <time>2022-06-10T14:24:57Z</time>
      </trkpt>
      <trkpt lat="48.67124" lon="-4.05057">
        <ele>34.6</ele>
        <time>2022-06-10T14:24:58Z</time>
      </trkpt>
      <trkpt lat="48.67124" lon="-4.05057">
        <ele>34.6</ele>
        <time>2022-06-10T14:24:59Z</time>
      </trkpt>
      <trkpt lat="48.67124" lon="-4.05057">
        <ele>34.6</ele>
        <time>2022-06-10T14:25:00Z</time>
      </trkpt>
      <trkpt lat="48.67124" lon="-4.05057">
        <ele>34.6</ele>
        <time>2022-06-10T14:25:01Z</time>
      </trkpt>
      <trkpt lat="48.67124" lon="-4.05057">
        <ele>34.6</ele>
        <time>2022-06-10T14:25:02Z</time>
      </trkpt>
      <trkpt lat="48.67124" lon="-4.05057">
        <ele>34.6</ele>
        <time>2022-06-10T14:25:03Z</time>
      </trkpt>
      <trkpt lat="48.67124" lon="-4.05057">
        <ele>34.6</ele>
        <time>2022-06-10T14:25:04Z</time>
      </trkpt>
      <trkpt lat="48.67124" lon="-4.05057">
        <ele>34.6</ele>
        <time>2022-06-10T14:25:05Z</time>
      </trkpt>
      <trkpt lat="48.67124" lon="-4.05057">
        <ele>34.6</ele>
        <time>2022-06-10T14:25:06Z</time>
      </trkpt>
      <trkpt lat="48.67124" lon="-4.05057">
        <ele>34.6</ele>
        <time>2022-06-10T14:25:07Z</time>
      </trkpt>
      <trkpt lat="48.67124" lon="-4.05057">
        <ele>34.6</ele>
        <time>2022-06-10T14:25:08Z</time>
      </trkpt>
      <trkpt lat="48.67124" lon="-4.05057">
        <ele>34.6</ele>
        <time>2022-06-10T14:25:09Z</time>
      </trkpt>
      <trkpt lat="48.67124" lon="-4.05057">
        <ele>34.6</ele>
        <time>2022-06-10T14:25:10Z</time>
      </trkpt>
      <trkpt lat="48.67124" lon="-4.05057">
        <ele>34.6</ele>
        <time>2022-06-10T14:25:11Z</time>
      </trkpt>
      <trkpt lat="48.67124" lon="-4.05057">
        <ele>34.6</ele>
        <time>2022-06-10T14:25:12Z</time>
      </trkpt>
      <trkpt lat="48.67124" lon="-4.05057">
        <ele>34.6</ele>
        <time>2022-06-10T14:25:13Z</time>
      </trkpt>
      <trkpt lat="48.67124" lon="-4.05057">
        <ele>34.6</ele>
        <time>2022-06-10T14:25:14Z</time>
      </trkpt>
      <trkpt lat="48.67124" lon="-4.05057">
        <ele>34.6</ele>
        <time>2022-06-10T14:25:15Z</time>
      </trkpt>
      <trkpt lat="48.67124" lon="-4.05057">
        <ele>34.6</ele>
        <time>2022-06-10T14:25:16Z</time>
      </trkpt>
      <trkpt lat="48.67124" lon="-4.05057">
        <ele>34.6</ele>
        <time>2022-06-10T14:25:17Z</time>
      </trkpt>
      <trkpt lat="48.67124" lon="-4.05057">
        <ele>34.6</ele>
        <time>2022-06-10T14:25:18Z</time>
      </trkpt>
      <trkpt lat="48.67124" lon="-4.05057">
        <ele>34.6</ele>
        <time>2022-06-10T14:25:19Z</time>
      </trkpt>
      <trkpt lat="48.67124" lon="-4.05057">
        <ele>34.6</ele>
        <time>2022-06-10T14:25:20Z</time>
      </trkpt>
      <trkpt lat="48.67124" lon="-4.05057">
        <ele>34.6</ele>
        <time>2022-06-10T14:25:21Z</time>
      </trkpt>
      <trkpt lat="48.67124" lon="-4.05057">
        <ele>34.6</ele>
        <time>2022-06-10T14:25:22Z</time>
      </trkpt>
      <trkpt lat="48.67124" lon="-4.05057">
        <ele>34.6</ele>
        <time>2022-06-10T14:25:23Z</time>
      </trkpt>
      <trkpt lat="48.67124" lon="-4.05057">
        <ele>34.6</ele>
        <time>2022-06-10T14:25:24Z</time>
      </trkpt>
      <trkpt lat="48.67124" lon="-4.05057">
        <ele>34.6</ele>
        <time>2022-06-10T14:25:25Z</time>
      </trkpt>
      <trkpt lat="48.67124" lon="-4.05057">
        <ele>34.6</ele>
        <time>2022-06-10T14:25:26Z</time>
      </trkpt>
      <trkpt lat="48.67124" lon="-4.05057">
        <ele>34.6</ele>
        <time>2022-06-10T14:25:27Z</time>
      </trkpt>
      <trkpt lat="48.67124" lon="-4.05057">
        <ele>34.6</ele>
        <time>2022-06-10T14:25:28Z</time>
      </trkpt>
      <trkpt lat="48.67124" lon="-4.05057">
        <ele>34.6</ele>
        <time>2022-06-10T14:25:29Z</time>
      </trkpt>
      <trkpt lat="48.67124" lon="-4.05057">
        <ele>34.6</ele>
        <time>2022-06-10T14:25:30Z</time>
      </trkpt>
      <trkpt lat="48.67124" lon="-4.05057">
        <ele>34.6</ele>
        <time>2022-06-10T14:25:31Z</time>
      </trkpt>
      <trkpt lat="48.67124" lon="-4.05057">
        <ele>34.6</ele>
        <time>2022-06-10T14:25:32Z</time>
      </trkpt>
      <trkpt lat="48.67124" lon="-4.05057">
        <ele>34.6</ele>
        <time>2022-06-10T14:25:33Z</time>
      </trkpt>
      <trkpt lat="48.67124" lon="-4.05057">
        <ele>34.6</ele>
        <time>2022-06-10T14:25:34Z</time>
      </trkpt>
      <trkpt lat="48.67124" lon="-4.05057">
        <ele>34.6</ele>
        <time>2022-06-10T14:25:35Z</time>
      </trkpt>
      <trkpt lat="48.67124" lon="-4.05057">
        <ele>34.6</ele>
        <time>2022-06-10T14:25:36Z</time>
      </trkpt>
      <trkpt lat="48.67124" lon="-4.05057">
        <ele>34.6</ele>
        <time>2022-06-10T14:25:37Z</time>
      </trkpt>
      <trkpt lat="48.67124" lon="-4.05057">
        <ele>34.6</ele>
        <time>2022-06-10T14:25:38Z</time>
      </trkpt>
      <trkpt lat="48.67124" lon="-4.05057">
        <ele>34.6</ele>
        <time>2022-06-10T14:25:39Z</time>
      </trkpt>
      <trkpt lat="48.67124" lon="-4.05057">
        <ele>34.6</ele>
        <time>2022-06-10T14:25:40Z</time>
      </trkpt>
      <trkpt lat="48.67124" lon="-4.05057">
        <ele>34.6</ele>
        <time>2022-06-10T14:25:41Z</time>
      </trkpt>
      <trkpt lat="48.67124" lon="-4.05057">
        <ele>34.6</ele>
        <time>2022-06-10T14:25:42Z</time>
      </trkpt>
      <trkpt lat="48.67124" lon="-4.05057">
        <ele>34.6</ele>
        <time>2022-06-10T14:25:43Z</time>
      </trkpt>
      <trkpt lat="48.67124" lon="-4.05057">
        <ele>34.6</ele>
        <time>2022-06-10T14:25:44Z</time>
      </trkpt>
      <trkpt lat="48.67124" lon="-4.05057">
        <ele>34.6</ele>
        <time>2022-06-10T14:25:45Z</time>
      </trkpt>
      <trkpt lat="48.67124" lon="-4.05057">
        <ele>34.6</ele>
        <time>2022-06-10T14:25:46Z</time>
      </trkpt>
      <trkpt lat="48.67124" lon="-4.05057">
        <ele>34.6</ele>
        <time>2022-06-10T14:25:47Z</time>
      </trkpt>
      <trkpt lat="48.67124" lon="-4.05057">
        <ele>34.6</ele>
        <time>2022-06-10T14:25:48Z</time>
      </trkpt>
      <trkpt lat="48.67124" lon="-4.05057">
        <ele>34.6</ele>
        <time>2022-06-10T14:25:49Z</time>
      </trkpt>
      <trkpt lat="48.67124" lon="-4.05057">
        <ele>34.6</ele>
        <time>2022-06-10T14:25:50Z</time>
      </trkpt>
      <trkpt lat="48.67124" lon="-4.05057">
        <ele>34.6</ele>
        <time>2022-06-10T14:25:51Z</time>
      </trkpt>
      <trkpt lat="48.67124" lon="-4.05057">
        <ele>34.6</ele>
        <time>2022-06-10T14:25:52Z</time>
      </trkpt>
      <trkpt lat="48.67124" lon="-4.05057">
        <ele>34.6</ele>
        <time>2022-06-10T14:25:53Z</time>
      </trkpt>
      <trkpt lat="48.67124" lon="-4.05057">
        <ele>34.6</ele>
        <time>2022-06-10T14:25:54Z</time>
      </trkpt>
      <trkpt lat="48.67124" lon="-4.05057">
        <ele>34.6</ele>
        <time>2022-06-10T14:25:55Z</time>
      </trkpt>
      <trkpt lat="48.67124" lon="-4.05057">
        <ele>34.6</ele>
        <time>2022-06-10T14:25:56Z</time>
      </trkpt>
      <trkpt lat="48.67124" lon="-4.05057">
        <ele>34.6</ele>
        <time>2022-06-10T14:25:57Z</time>
      </trkpt>
      <trkpt lat="48.67124" lon="-4.05057">
        <ele>34.6</ele>
        <time>2022-06-10T14:25:58Z</time>
      </trkpt>
      <trkpt lat="48.67124" lon="-4.05057">
        <ele>34.6</ele>
        <time>2022-06-10T14:25:59Z</time>
      </trkpt>
      <trkpt lat="48.67124" lon="-4.05057">
        <ele>34.6</ele>
        <time>2022-06-10T14:26:00Z</time>
      </trkpt>
      <trkpt lat="48.67124" lon="-4.05057">
        <ele>34.6</ele>
        <time>2022-06-10T14:26:01Z</time>
      </trkpt>
      <trkpt lat="48.67124" lon="-4.05057">
        <ele>34.6</ele>
        <time>2022-06-10T14:26:02Z</time>
      </trkpt>
      <trkpt lat="48.67124" lon="-4.05057">
        <ele>34.6</ele>
        <time>2022-06-10T14:26:04Z</time>
      </trkpt>
      <trkpt lat="48.67124" lon="-4.05057">
        <ele>34.6</ele>
        <time>2022-06-10T14:26:05Z</time>
      </trkpt>
      <trkpt lat="48.67124" lon="-4.05057">
        <ele>34.6</ele>
        <time>2022-06-10T14:26:06Z</time>
      </trkpt>
      <trkpt lat="48.67124" lon="-4.05057">
        <ele>34.6</ele>
        <time>2022-06-10T14:26:07Z</time>
      </trkpt>
      <trkpt lat="48.67124" lon="-4.05057">
        <ele>34.6</ele>
        <time>2022-06-10T14:26:08Z</time>
      </trkpt>
      <trkpt lat="48.67124" lon="-4.05057">
        <ele>34.6</ele>
        <time>2022-06-10T14:26:09Z</time>
      </trkpt>
      <trkpt lat="48.67124" lon="-4.05057">
        <ele>34.6</ele>
        <time>2022-06-10T14:26:10Z</time>
      </trkpt>
      <trkpt lat="48.67124" lon="-4.05057">
        <ele>34.6</ele>
        <time>2022-06-10T14:26:11Z</time>
      </trkpt>
      <trkpt lat="48.67124" lon="-4.05057">
        <ele>34.6</ele>
        <time>2022-06-10T14:26:12Z</time>
      </trkpt>
      <trkpt lat="48.67124" lon="-4.05057">
        <ele>34.6</ele>
        <time>2022-06-10T14:26:13Z</time>
      </trkpt>
      <trkpt lat="48.67124" lon="-4.05057">
        <ele>34.6</ele>
        <time>2022-06-10T14:26:14Z</time>
      </trkpt>
      <trkpt lat="48.67124" lon="-4.05057">
        <ele>34.6</ele>
        <time>2022-06-10T14:26:15Z</time>
      </trkpt>
      <trkpt lat="48.67124" lon="-4.05057">
        <ele>34.6</ele>
        <time>2022-06-10T14:26:16Z</time>
      </trkpt>
      <trkpt lat="48.67124" lon="-4.05057">
        <ele>34.6</ele>
        <time>2022-06-10T14:26:17Z</time>
      </trkpt>
      <trkpt lat="48.67124" lon="-4.05057">
        <ele>34.6</ele>
        <time>2022-06-10T14:26:18Z</time>
      </trkpt>
      <trkpt lat="48.67124" lon="-4.05057">
        <ele>34.6</ele>
        <time>2022-06-10T14:26:19Z</time>
      </trkpt>
      <trkpt lat="48.67124" lon="-4.05057">
        <ele>34.6</ele>
        <time>2022-06-10T14:26:20Z</time>
      </trkpt>
      <trkpt lat="48.67124" lon="-4.05057">
        <ele>34.6</ele>
        <time>2022-06-10T14:26:21Z</time>
      </trkpt>
      <trkpt lat="48.67124" lon="-4.05057">
        <ele>34.6</ele>
        <time>2022-06-10T14:26:22Z</time>
      </trkpt>
      <trkpt lat="48.67124" lon="-4.05057">
        <ele>34.6</ele>
        <time>2022-06-10T14:26:23Z</time>
      </trkpt>
      <trkpt lat="48.67124" lon="-4.05057">
        <ele>34.6</ele>
        <time>2022-06-10T14:26:24Z</time>
      </trkpt>
      <trkpt lat="48.67124" lon="-4.05057">
        <ele>34.6</ele>
        <time>2022-06-10T14:26:25Z</time>
      </trkpt>
      <trkpt lat="48.67124" lon="-4.05057">
        <ele>34.6</ele>
        <time>2022-06-10T14:26:26Z</time>
      </trkpt>
      <trkpt lat="48.67124" lon="-4.05057">
        <ele>34.6</ele>
        <time>2022-06-10T14:26:27Z</time>
      </trkpt>
      <trkpt lat="48.67124" lon="-4.05057">
        <ele>34.6</ele>
        <time>2022-06-10T14:26:28Z</time>
      </trkpt>
      <trkpt lat="48.67124" lon="-4.05057">
        <ele>34.6</ele>
        <time>2022-06-10T14:26:29Z</time>
      </trkpt>
      <trkpt lat="48.67124" lon="-4.05057">
        <ele>34.6</ele>
        <time>2022-06-10T14:26:30Z</time>
      </trkpt>
      <trkpt lat="48.67124" lon="-4.05057">
        <ele>34.6</ele>
        <time>2022-06-10T14:26:31Z</time>
      </trkpt>
      <trkpt lat="48.67124" lon="-4.05057">
        <ele>34.6</ele>
        <time>2022-06-10T14:26:32Z</time>
      </trkpt>
      <trkpt lat="48.67124" lon="-4.05057">
        <ele>34.6</ele>
        <time>2022-06-10T14:26:33Z</time>
      </trkpt>
      <trkpt lat="48.67124" lon="-4.05057">
        <ele>34.6</ele>
        <time>2022-06-10T14:26:34Z</time>
      </trkpt>
      <trkpt lat="48.67124" lon="-4.05057">
        <ele>34.6</ele>
        <time>2022-06-10T14:26:35Z</time>
      </trkpt>
      <trkpt lat="48.67124" lon="-4.05057">
        <ele>34.6</ele>
        <time>2022-06-10T14:26:36Z</time>
      </trkpt>
      <trkpt lat="48.67124" lon="-4.05057">
        <ele>34.6</ele>
        <time>2022-06-10T14:26:37Z</time>
      </trkpt>
      <trkpt lat="48.67124" lon="-4.05057">
        <ele>34.6</ele>
        <time>2022-06-10T14:26:38Z</time>
      </trkpt>
      <trkpt lat="48.67124" lon="-4.05057">
        <ele>34.6</ele>
        <time>2022-06-10T14:26:39Z</time>
      </trkpt>
      <trkpt lat="48.67124" lon="-4.05057">
        <ele>34.6</ele>
        <time>2022-06-10T14:26:40Z</time>
      </trkpt>
      <trkpt lat="48.67124" lon="-4.05057">
        <ele>34.6</ele>
        <time>2022-06-10T14:26:41Z</time>
      </trkpt>
      <trkpt lat="48.67124" lon="-4.05057">
        <ele>34.6</ele>
        <time>2022-06-10T14:26:42Z</time>
      </trkpt>
      <trkpt lat="48.67124" lon="-4.05057">
        <ele>34.6</ele>
        <time>2022-06-10T14:26:43Z</time>
      </trkpt>
      <trkpt lat="48.67124" lon="-4.05057">
        <ele>34.6</ele>
        <time>2022-06-10T14:26:44Z</time>
      </trkpt>
      <trkpt lat="48.67124" lon="-4.05057">
        <ele>34.6</ele>
        <time>2022-06-10T14:26:45Z</time>
      </trkpt>
      <trkpt lat="48.67124" lon="-4.05057">
        <ele>34.6</ele>
        <time>2022-06-10T14:26:46Z</time>
      </trkpt>
      <trkpt lat="48.67124" lon="-4.05057">
        <ele>34.6</ele>
        <time>2022-06-10T14:26:47Z</time>
      </trkpt>
      <trkpt lat="48.67124" lon="-4.05057">
        <ele>34.6</ele>
        <time>2022-06-10T14:26:48Z</time>
      </trkpt>
      <trkpt lat="48.67124" lon="-4.05057">
        <ele>34.6</ele>
        <time>2022-06-10T14:26:49Z</time>
      </trkpt>
      <trkpt lat="48.67124" lon="-4.05057">
        <ele>34.6</ele>
        <time>2022-06-10T14:26:50Z</time>
      </trkpt>
      <trkpt lat="48.67124" lon="-4.05057">
        <ele>34.6</ele>
        <time>2022-06-10T14:26:51Z</time>
      </trkpt>
      <trkpt lat="48.67124" lon="-4.05057">
        <ele>34.6</ele>
        <time>2022-06-10T14:26:52Z</time>
      </trkpt>
      <trkpt lat="48.67124" lon="-4.05057">
        <ele>34.6</ele>
        <time>2022-06-10T14:26:53Z</time>
      </trkpt>
      <trkpt lat="48.67124" lon="-4.05057">
        <ele>34.6</ele>
        <time>2022-06-10T14:26:54Z</time>
      </trkpt>
      <trkpt lat="48.67124" lon="-4.05057">
        <ele>34.6</ele>
        <time>2022-06-10T14:26:55Z</time>
      </trkpt>
      <trkpt lat="48.67124" lon="-4.05057">
        <ele>34.6</ele>
        <time>2022-06-10T14:26:56Z</time>
      </trkpt>
      <trkpt lat="48.67124" lon="-4.05057">
        <ele>34.6</ele>
        <time>2022-06-10T14:26:57Z</time>
      </trkpt>
      <trkpt lat="48.67124" lon="-4.05057">
        <ele>34.6</ele>
        <time>2022-06-10T14:26:58Z</time>
      </trkpt>
      <trkpt lat="48.67124" lon="-4.05057">
        <ele>34.6</ele>
        <time>2022-06-10T14:26:59Z</time>
      </trkpt>
      <trkpt lat="48.67124" lon="-4.05057">
        <ele>34.6</ele>
        <time>2022-06-10T14:27:00Z</time>
      </trkpt>
      <trkpt lat="48.67124" lon="-4.05057">
        <ele>34.6</ele>
        <time>2022-06-10T14:27:01Z</time>
      </trkpt>
      <trkpt lat="48.67124" lon="-4.05057">
        <ele>34.6</ele>
        <time>2022-06-10T14:27:02Z</time>
      </trkpt>
      <trkpt lat="48.67124" lon="-4.05057">
        <ele>34.6</ele>
        <time>2022-06-10T14:27:03Z</time>
      </trkpt>
      <trkpt lat="48.67124" lon="-4.05057">
        <ele>34.6</ele>
        <time>2022-06-10T14:27:04Z</time>
      </trkpt>
      <trkpt lat="48.67124" lon="-4.05057">
        <ele>34.6</ele>
        <time>2022-06-10T14:27:05Z</time>
      </trkpt>
      <trkpt lat="48.67124" lon="-4.05057">
        <ele>34.6</ele>
        <time>2022-06-10T14:27:06Z</time>
      </trkpt>
      <trkpt lat="48.67124" lon="-4.05057">
        <ele>34.6</ele>
        <time>2022-06-10T14:27:07Z</time>
      </trkpt>
      <trkpt lat="48.67124" lon="-4.05057">
        <ele>34.6</ele>
        <time>2022-06-10T14:27:08Z</time>
      </trkpt>
      <trkpt lat="48.67124" lon="-4.05057">
        <ele>34.6</ele>
        <time>2022-06-10T14:27:09Z</time>
      </trkpt>
      <trkpt lat="48.67124" lon="-4.05057">
        <ele>34.6</ele>
        <time>2022-06-10T14:27:10Z</time>
      </trkpt>
      <trkpt lat="48.67124" lon="-4.05057">
        <ele>34.6</ele>
        <time>2022-06-10T14:27:11Z</time>
      </trkpt>
      <trkpt lat="48.67124" lon="-4.05057">
        <ele>34.6</ele>
        <time>2022-06-10T14:27:12Z</time>
      </trkpt>
      <trkpt lat="48.67124" lon="-4.05057">
        <ele>34.6</ele>
        <time>2022-06-10T14:27:13Z</time>
      </trkpt>
      <trkpt lat="48.67124" lon="-4.05057">
        <ele>34.6</ele>
        <time>2022-06-10T14:27:14Z</time>
      </trkpt>
      <trkpt lat="48.67124" lon="-4.05057">
        <ele>34.6</ele>
        <time>2022-06-10T14:27:15Z</time>
      </trkpt>
      <trkpt lat="48.67124" lon="-4.05057">
        <ele>34.6</ele>
        <time>2022-06-10T14:27:16Z</time>
      </trkpt>
      <trkpt lat="48.67124" lon="-4.05057">
        <ele>34.6</ele>
        <time>2022-06-10T14:27:17Z</time>
      </trkpt>
      <trkpt lat="48.67124" lon="-4.05057">
        <ele>34.6</ele>
        <time>2022-06-10T14:27:18Z</time>
      </trkpt>
      <trkpt lat="48.67124" lon="-4.05057">
        <ele>34.6</ele>
        <time>2022-06-10T14:27:19Z</time>
      </trkpt>
      <trkpt lat="48.67124" lon="-4.05057">
        <ele>34.6</ele>
        <time>2022-06-10T14:27:20Z</time>
      </trkpt>
      <trkpt lat="48.67124" lon="-4.05057">
        <ele>34.6</ele>
        <time>2022-06-10T14:27:21Z</time>
      </trkpt>
      <trkpt lat="48.67124" lon="-4.05057">
        <ele>34.6</ele>
        <time>2022-06-10T14:27:22Z</time>
      </trkpt>
      <trkpt lat="48.67124" lon="-4.05057">
        <ele>34.6</ele>
        <time>2022-06-10T14:27:23Z</time>
      </trkpt>
      <trkpt lat="48.67124" lon="-4.05057">
        <ele>34.6</ele>
        <time>2022-06-10T14:27:24Z</time>
      </trkpt>
      <trkpt lat="48.67124" lon="-4.05057">
        <ele>34.6</ele>
        <time>2022-06-10T14:27:25Z</time>
      </trkpt>
      <trkpt lat="48.67124" lon="-4.05057">
        <ele>34.6</ele>
        <time>2022-06-10T14:27:26Z</time>
      </trkpt>
      <trkpt lat="48.67124" lon="-4.05057">
        <ele>34.6</ele>
        <time>2022-06-10T14:27:27Z</time>
      </trkpt>
      <trkpt lat="48.67124" lon="-4.05057">
        <ele>34.6</ele>
        <time>2022-06-10T14:27:28Z</time>
      </trkpt>
      <trkpt lat="48.67124" lon="-4.05057">
        <ele>34.6</ele>
        <time>2022-06-10T14:27:29Z</time>
      </trkpt>
      <trkpt lat="48.67124" lon="-4.05057">
        <ele>34.6</ele>
        <time>2022-06-10T14:27:30Z</time>
      </trkpt>
      <trkpt lat="48.67124" lon="-4.05057">
        <ele>34.6</ele>
        <time>2022-06-10T14:27:31Z</time>
      </trkpt>
      <trkpt lat="48.67124" lon="-4.05057">
        <ele>34.6</ele>
        <time>2022-06-10T14:27:32Z</time>
      </trkpt>
      <trkpt lat="48.67124" lon="-4.05057">
        <ele>34.6</ele>
        <time>2022-06-10T14:27:33Z</time>
      </trkpt>
      <trkpt lat="48.67124" lon="-4.05057">
        <ele>34.6</ele>
        <time>2022-06-10T14:27:34Z</time>
      </trkpt>
      <trkpt lat="48.67124" lon="-4.05057">
        <ele>34.6</ele>
        <time>2022-06-10T14:27:35Z</time>
      </trkpt>
      <trkpt lat="48.67124" lon="-4.05057">
        <ele>34.6</ele>
        <time>2022-06-10T14:27:36Z</time>
      </trkpt>
      <trkpt lat="48.67124" lon="-4.05057">
        <ele>34.6</ele>
        <time>2022-06-10T14:27:37Z</time>
      </trkpt>
      <trkpt lat="48.67124" lon="-4.05057">
        <ele>34.6</ele>
        <time>2022-06-10T14:27:38Z</time>
      </trkpt>
      <trkpt lat="48.67124" lon="-4.05057">
        <ele>34.6</ele>
        <time>2022-06-10T14:27:39Z</time>
      </trkpt>
      <trkpt lat="48.67124" lon="-4.05057">
        <ele>34.6</ele>
        <time>2022-06-10T14:27:40Z</time>
      </trkpt>
      <trkpt lat="48.67124" lon="-4.05057">
        <ele>34.6</ele>
        <time>2022-06-10T14:27:41Z</time>
      </trkpt>
      <trkpt lat="48.67124" lon="-4.05057">
        <ele>34.6</ele>
        <time>2022-06-10T14:27:42Z</time>
      </trkpt>
      <trkpt lat="48.67124" lon="-4.05057">
        <ele>34.6</ele>
        <time>2022-06-10T14:27:43Z</time>
      </trkpt>
      <trkpt lat="48.67124" lon="-4.05057">
        <ele>34.6</ele>
        <time>2022-06-10T14:27:44Z</time>
      </trkpt>
      <trkpt lat="48.67124" lon="-4.05057">
        <ele>34.6</ele>
        <time>2022-06-10T14:27:45Z</time>
      </trkpt>
      <trkpt lat="48.67124" lon="-4.05057">
        <ele>34.6</ele>
        <time>2022-06-10T14:27:46Z</time>
      </trkpt>
      <trkpt lat="48.67124" lon="-4.05057">
        <ele>34.6</ele>
        <time>2022-06-10T14:27:47Z</time>
      </trkpt>
      <trkpt lat="48.67124" lon="-4.05057">
        <ele>34.6</ele>
        <time>2022-06-10T14:27:48Z</time>
      </trkpt>
      <trkpt lat="48.67124" lon="-4.05057">
        <ele>34.6</ele>
        <time>2022-06-10T14:27:49Z</time>
      </trkpt>
      <trkpt lat="48.67124" lon="-4.05057">
        <ele>34.6</ele>
        <time>2022-06-10T14:27:50Z</time>
      </trkpt>
      <trkpt lat="48.67124" lon="-4.05057">
        <ele>34.6</ele>
        <time>2022-06-10T14:27:51Z</time>
      </trkpt>
      <trkpt lat="48.67124" lon="-4.05057">
        <ele>34.6</ele>
        <time>2022-06-10T14:27:52Z</time>
      </trkpt>
      <trkpt lat="48.67124" lon="-4.05057">
        <ele>34.6</ele>
        <time>2022-06-10T14:27:53Z</time>
      </trkpt>
      <trkpt lat="48.67124" lon="-4.05057">
        <ele>34.6</ele>
        <time>2022-06-10T14:27:54Z</time>
      </trkpt>
      <trkpt lat="48.67124" lon="-4.05057">
        <ele>34.6</ele>
        <time>2022-06-10T14:27:55Z</time>
      </trkpt>
      <trkpt lat="48.67124" lon="-4.05057">
        <ele>34.6</ele>
        <time>2022-06-10T14:27:56Z</time>
      </trkpt>
      <trkpt lat="48.67124" lon="-4.05057">
        <ele>34.6</ele>
        <time>2022-06-10T14:27:57Z</time>
      </trkpt>
      <trkpt lat="48.67124" lon="-4.05057">
        <ele>34.6</ele>
        <time>2022-06-10T14:27:58Z</time>
      </trkpt>
      <trkpt lat="48.67124" lon="-4.05057">
        <ele>34.6</ele>
        <time>2022-06-10T14:27:59Z</time>
      </trkpt>
      <trkpt lat="48.67124" lon="-4.05057">
        <ele>34.6</ele>
        <time>2022-06-10T14:28:00Z</time>
      </trkpt>
      <trkpt lat="48.67124" lon="-4.05057">
        <ele>34.6</ele>
        <time>2022-06-10T14:28:01Z</time>
      </trkpt>
      <trkpt lat="48.67124" lon="-4.05057">
        <ele>34.6</ele>
        <time>2022-06-10T14:28:02Z</time>
      </trkpt>
      <trkpt lat="48.67124" lon="-4.05057">
        <ele>34.6</ele>
        <time>2022-06-10T14:28:03Z</time>
      </trkpt>
      <trkpt lat="48.67124" lon="-4.05057">
        <ele>34.6</ele>
        <time>2022-06-10T14:28:04Z</time>
      </trkpt>
      <trkpt lat="48.67124" lon="-4.05057">
        <ele>34.6</ele>
        <time>2022-06-10T14:28:05Z</time>
      </trkpt>
      <trkpt lat="48.67124" lon="-4.05057">
        <ele>34.6</ele>
        <time>2022-06-10T14:28:06Z</time>
      </trkpt>
      <trkpt lat="48.67124" lon="-4.05057">
        <ele>34.6</ele>
        <time>2022-06-10T14:28:07Z</time>
      </trkpt>
      <trkpt lat="48.67124" lon="-4.05057">
        <ele>34.6</ele>
        <time>2022-06-10T14:28:08Z</time>
      </trkpt>
      <trkpt lat="48.67124" lon="-4.05057">
        <ele>34.6</ele>
        <time>2022-06-10T14:28:09Z</time>
      </trkpt>
      <trkpt lat="48.67124" lon="-4.05057">
        <ele>34.6</ele>
        <time>2022-06-10T14:28:10Z</time>
      </trkpt>
      <trkpt lat="48.67124" lon="-4.05057">
        <ele>34.6</ele>
        <time>2022-06-10T14:28:11Z</time>
      </trkpt>
      <trkpt lat="48.67124" lon="-4.05057">
        <ele>34.6</ele>
        <time>2022-06-10T14:28:12Z</time>
      </trkpt>
      <trkpt lat="48.67124" lon="-4.05057">
        <ele>34.6</ele>
        <time>2022-06-10T14:28:13Z</time>
      </trkpt>
      <trkpt lat="48.67124" lon="-4.05057">
        <ele>34.6</ele>
        <time>2022-06-10T14:28:15Z</time>
      </trkpt>
      <trkpt lat="48.67124" lon="-4.05057">
        <ele>34.6</ele>
        <time>2022-06-10T14:28:16Z</time>
      </trkpt>
      <trkpt lat="48.67124" lon="-4.05057">
        <ele>34.6</ele>
        <time>2022-06-10T14:28:17Z</time>
      </trkpt>
      <trkpt lat="48.67124" lon="-4.05057">
        <ele>34.6</ele>
        <time>2022-06-10T14:28:18Z</time>
      </trkpt>
      <trkpt lat="48.67124" lon="-4.05057">
        <ele>34.6</ele>
        <time>2022-06-10T14:28:19Z</time>
      </trkpt>
      <trkpt lat="48.67124" lon="-4.05057">
        <ele>34.6</ele>
        <time>2022-06-10T14:28:20Z</time>
      </trkpt>
      <trkpt lat="48.67124" lon="-4.05057">
        <ele>34.6</ele>
        <time>2022-06-10T14:28:21Z</time>
      </trkpt>
      <trkpt lat="48.67124" lon="-4.05057">
        <ele>34.6</ele>
        <time>2022-06-10T14:28:23Z</time>
      </trkpt>
      <trkpt lat="48.67124" lon="-4.05057">
        <ele>34.6</ele>
        <time>2022-06-10T14:28:24Z</time>
      </trkpt>
      <trkpt lat="48.67124" lon="-4.05057">
        <ele>34.6</ele>
        <time>2022-06-10T14:28:25Z</time>
      </trkpt>
      <trkpt lat="48.67123" lon="-4.05057">
        <ele>34.6</ele>
        <time>2022-06-10T14:28:26Z</time>
      </trkpt>
      <trkpt lat="48.67123" lon="-4.05056">
        <ele>34.6</ele>
        <time>2022-06-10T14:28:27Z</time>
      </trkpt>
      <trkpt lat="48.67122" lon="-4.05056">
        <ele>34.6</ele>
        <time>2022-06-10T14:28:28Z</time>
      </trkpt>
      <trkpt lat="48.67121" lon="-4.05055">
        <ele>34.6</ele>
        <time>2022-06-10T14:28:29Z</time>
      </trkpt>
      <trkpt lat="48.6712" lon="-4.05054">
        <ele>34.6</ele>
        <time>2022-06-10T14:28:30Z</time>
      </trkpt>
      <trkpt lat="48.67119" lon="-4.05053">
        <ele>34.6</ele>
        <time>2022-06-10T14:28:31Z</time>
      </trkpt>
      <trkpt lat="48.67117" lon="-4.05052">
        <ele>34.6</ele>
        <time>2022-06-10T14:28:32Z</time>
      </trkpt>
      <trkpt lat="48.67115" lon="-4.05051">
        <ele>34.6</ele>
        <time>2022-06-10T14:28:33Z</time>
      </trkpt>
      <trkpt lat="48.67114" lon="-4.0505">
        <ele>34.6</ele>
        <time>2022-06-10T14:28:35Z</time>
      </trkpt>
      <trkpt lat="48.67113" lon="-4.0505">
        <ele>34.6</ele>
        <time>2022-06-10T14:28:36Z</time>
      </trkpt>
      <trkpt lat="48.67112" lon="-4.05049">
        <ele>34.5</ele>
        <time>2022-06-10T14:28:37Z</time>
      </trkpt>
      <trkpt lat="48.67111" lon="-4.05049">
        <ele>34.5</ele>
        <time>2022-06-10T14:28:38Z</time>
      </trkpt>
      <trkpt lat="48.6711" lon="-4.05048">
        <ele>34.5</ele>
        <time>2022-06-10T14:28:39Z</time>
      </trkpt>
      <trkpt lat="48.67109" lon="-4.05048">
        <ele>34.5</ele>
        <time>2022-06-10T14:28:40Z</time>
      </trkpt>
      <trkpt lat="48.67108" lon="-4.05048">
        <ele>34.5</ele>
        <time>2022-06-10T14:28:41Z</time>
      </trkpt>
      <trkpt lat="48.67107" lon="-4.05048">
        <ele>34.5</ele>
        <time>2022-06-10T14:28:43Z</time>
      </trkpt>
      <trkpt lat="48.67106" lon="-4.05048">
        <ele>34.4</ele>
        <time>2022-06-10T14:28:44Z</time>
      </trkpt>
      <trkpt lat="48.67105" lon="-4.05048">
        <ele>34.4</ele>
        <time>2022-06-10T14:28:45Z</time>
      </trkpt>
      <trkpt lat="48.67104" lon="-4.05047">
        <ele>34.4</ele>
        <time>2022-06-10T14:28:46Z</time>
      </trkpt>
      <trkpt lat="48.67104" lon="-4.05045">
        <ele>34.4</ele>
        <time>2022-06-10T14:28:47Z</time>
      </trkpt>
      <trkpt lat="48.67103" lon="-4.05045">
        <ele>34.4</ele>
        <time>2022-06-10T14:28:48Z</time>
      </trkpt>
      <trkpt lat="48.67102" lon="-4.05044">
        <ele>34.3</ele>
        <time>2022-06-10T14:28:49Z</time>
      </trkpt>
      <trkpt lat="48.67101" lon="-4.05043">
        <ele>34.3</ele>
        <time>2022-06-10T14:28:51Z</time>
      </trkpt>
      <trkpt lat="48.671" lon="-4.05042">
        <ele>34.3</ele>
        <time>2022-06-10T14:28:52Z</time>
      </trkpt>
      <trkpt lat="48.67099" lon="-4.0504">
        <ele>34.3</ele>
        <time>2022-06-10T14:28:53Z</time>
      </trkpt>
      <trkpt lat="48.67099" lon="-4.05039">
        <ele>34.2</ele>
        <time>2022-06-10T14:28:54Z</time>
      </trkpt>
      <trkpt lat="48.67099" lon="-4.05036">
        <ele>34.2</ele>
        <time>2022-06-10T14:28:55Z</time>
      </trkpt>
      <trkpt lat="48.67099" lon="-4.05034">
        <ele>34.2</ele>
        <time>2022-06-10T14:28:57Z</time>
      </trkpt>
      <trkpt lat="48.67098" lon="-4.05033">
        <ele>34.2</ele>
        <time>2022-06-10T14:28:58Z</time>
      </trkpt>
      <trkpt lat="48.67097" lon="-4.05032">
        <ele>34.1</ele>
        <time>2022-06-10T14:28:59Z</time>
      </trkpt>
      <trkpt lat="48.67096" lon="-4.05031">
        <ele>34.1</ele>
        <time>2022-06-10T14:29:00Z</time>
      </trkpt>
      <trkpt lat="48.67095" lon="-4.05031">
        <ele>34.1</ele>
        <time>2022-06-10T14:29:01Z</time>
      </trkpt>
      <trkpt lat="48.67094" lon="-4.0503">
        <ele>34.1</ele>
        <time>2022-06-10T14:29:02Z</time>
      </trkpt>
      <trkpt lat="48.67094" lon="-4.05029">
        <ele>34.1</ele>
        <time>2022-06-10T14:29:03Z</time>
      </trkpt>
      <trkpt lat="48.67093" lon="-4.05028">
        <ele>34</ele>
        <time>2022-06-10T14:29:04Z</time>
      </trkpt>
      <trkpt lat="48.67092" lon="-4.05026">
        <ele>34</ele>
        <time>2022-06-10T14:29:06Z</time>
      </trkpt>
      <trkpt lat="48.67092" lon="-4.05025">
        <ele>34</ele>
        <time>2022-06-10T14:29:07Z</time>
      </trkpt>
      <trkpt lat="48.67091" lon="-4.05024">
        <ele>34</ele>
        <time>2022-06-10T14:29:08Z</time>
      </trkpt>
      <trkpt lat="48.67091" lon="-4.05022">
        <ele>34</ele>
        <time>2022-06-10T14:29:09Z</time>
      </trkpt>
      <trkpt lat="48.6709" lon="-4.05021">
        <ele>34</ele>
        <time>2022-06-10T14:29:10Z</time>
      </trkpt>
      <trkpt lat="48.67091" lon="-4.0502">
        <ele>33.9</ele>
        <time>2022-06-10T14:29:11Z</time>
      </trkpt>
      <trkpt lat="48.67091" lon="-4.05018">
        <ele>33.9</ele>
        <time>2022-06-10T14:29:12Z</time>
      </trkpt>
      <trkpt lat="48.6709" lon="-4.05016">
        <ele>33.9</ele>
        <time>2022-06-10T14:29:13Z</time>
      </trkpt>
      <trkpt lat="48.6709" lon="-4.05013">
        <ele>33.9</ele>
        <time>2022-06-10T14:29:15Z</time>
      </trkpt>
      <trkpt lat="48.67089" lon="-4.05012">
        <ele>33.9</ele>
        <time>2022-06-10T14:29:16Z</time>
      </trkpt>
      <trkpt lat="48.67089" lon="-4.05011">
        <ele>33.9</ele>
        <time>2022-06-10T14:29:17Z</time>
      </trkpt>
      <trkpt lat="48.67089" lon="-4.0501">
        <ele>33.9</ele>
        <time>2022-06-10T14:29:18Z</time>
      </trkpt>
      <trkpt lat="48.67088" lon="-4.05009">
        <ele>33.9</ele>
        <time>2022-06-10T14:29:19Z</time>
      </trkpt>
      <trkpt lat="48.67088" lon="-4.05008">
        <ele>33.9</ele>
        <time>2022-06-10T14:29:20Z</time>
      </trkpt>
      <trkpt lat="48.67089" lon="-4.05005">
        <ele>33.9</ele>
        <time>2022-06-10T14:29:22Z</time>
      </trkpt>
      <trkpt lat="48.67089" lon="-4.05003">
        <ele>34</ele>
        <time>2022-06-10T14:29:23Z</time>
      </trkpt>
      <trkpt lat="48.67089" lon="-4.05">
        <ele>34</ele>
        <time>2022-06-10T14:29:24Z</time>
      </trkpt>
      <trkpt lat="48.67089" lon="-4.04998">
        <ele>34</ele>
        <time>2022-06-10T14:29:25Z</time>
      </trkpt>
      <trkpt lat="48.6709" lon="-4.04996">
        <ele>34</ele>
        <time>2022-06-10T14:29:26Z</time>
      </trkpt>
      <trkpt lat="48.6709" lon="-4.04993">
        <ele>34</ele>
        <time>2022-06-10T14:29:27Z</time>
      </trkpt>
      <trkpt lat="48.6709" lon="-4.04991">
        <ele>34.1</ele>
        <time>2022-06-10T14:29:28Z</time>
      </trkpt>
      <trkpt lat="48.67091" lon="-4.04989">
        <ele>34.1</ele>
        <time>2022-06-10T14:29:30Z</time>
      </trkpt>
      <trkpt lat="48.67091" lon="-4.04986">
        <ele>34.1</ele>
        <time>2022-06-10T14:29:31Z</time>
      </trkpt>
      <trkpt lat="48.67091" lon="-4.04984">
        <ele>34.1</ele>
        <time>2022-06-10T14:29:32Z</time>
      </trkpt>
      <trkpt lat="48.67091" lon="-4.04982">
        <ele>34.1</ele>
        <time>2022-06-10T14:29:33Z</time>
      </trkpt>
      <trkpt lat="48.67091" lon="-4.0498">
        <ele>34.2</ele>
        <time>2022-06-10T14:29:34Z</time>
      </trkpt>
      <trkpt lat="48.67091" lon="-4.04978">
        <ele>34.2</ele>
        <time>2022-06-10T14:29:35Z</time>
      </trkpt>
      <trkpt lat="48.67091" lon="-4.04976">
        <ele>34.2</ele>
        <time>2022-06-10T14:29:37Z</time>
      </trkpt>
      <trkpt lat="48.67091" lon="-4.04973">
        <ele>34.2</ele>
        <time>2022-06-10T14:29:38Z</time>
      </trkpt>
      <trkpt lat="48.67092" lon="-4.0497">
        <ele>34.3</ele>
        <time>2022-06-10T14:29:39Z</time>
      </trkpt>
      <trkpt lat="48.67093" lon="-4.04968">
        <ele>34.3</ele>
        <time>2022-06-10T14:29:41Z</time>
      </trkpt>
      <trkpt lat="48.67093" lon="-4.04964">
        <ele>34.4</ele>
        <time>2022-06-10T14:29:42Z</time>
      </trkpt>
      <trkpt lat="48.67094" lon="-4.04962">
        <ele>34.4</ele>
        <time>2022-06-10T14:29:43Z</time>
      </trkpt>
      <trkpt lat="48.67094" lon="-4.04961">
        <ele>34.4</ele>
        <time>2022-06-10T14:29:44Z</time>
      </trkpt>
      <trkpt lat="48.67094" lon="-4.04961">
        <ele>34.4</ele>
        <time>2022-06-10T14:29:45Z</time>
      </trkpt>
      <trkpt lat="48.67095" lon="-4.04959">
        <ele>34.4</ele>
        <time>2022-06-10T14:29:46Z</time>
      </trkpt>
      <trkpt lat="48.67095" lon="-4.04958">
        <ele>34.5</ele>
        <time>2022-06-10T14:29:47Z</time>
      </trkpt>
      <trkpt lat="48.67096" lon="-4.04956">
        <ele>34.5</ele>
        <time>2022-06-10T14:29:49Z</time>
      </trkpt>
      <trkpt lat="48.67096" lon="-4.04954">
        <ele>34.5</ele>
        <time>2022-06-10T14:29:50Z</time>
      </trkpt>
      <trkpt lat="48.67097" lon="-4.04953">
        <ele>34.5</ele>
        <time>2022-06-10T14:29:51Z</time>
      </trkpt>
      <trkpt lat="48.67097" lon="-4.04951">
        <ele>34.6</ele>
        <time>2022-06-10T14:29:52Z</time>
      </trkpt>
      <trkpt lat="48.67098" lon="-4.0495">
        <ele>34.6</ele>
        <time>2022-06-10T14:29:53Z</time>
      </trkpt>
      <trkpt lat="48.67099" lon="-4.04948">
        <ele>34.6</ele>
        <time>2022-06-10T14:29:54Z</time>
      </trkpt>
      <trkpt lat="48.67099" lon="-4.04947">
        <ele>34.6</ele>
        <time>2022-06-10T14:29:56Z</time>
      </trkpt>
      <trkpt lat="48.671" lon="-4.04946">
        <ele>34.6</ele>
        <time>2022-06-10T14:29:57Z</time>
      </trkpt>
      <trkpt lat="48.671" lon="-4.04945">
        <ele>34.7</ele>
        <time>2022-06-10T14:29:58Z</time>
      </trkpt>
      <trkpt lat="48.67101" lon="-4.04944">
        <ele>34.7</ele>
        <time>2022-06-10T14:29:59Z</time>
      </trkpt>
      <trkpt lat="48.67101" lon="-4.04942">
        <ele>34.7</ele>
        <time>2022-06-10T14:30:00Z</time>
      </trkpt>
      <trkpt lat="48.67102" lon="-4.0494">
        <ele>34.7</ele>
        <time>2022-06-10T14:30:01Z</time>
      </trkpt>
      <trkpt lat="48.67102" lon="-4.04939">
        <ele>34.8</ele>
        <time>2022-06-10T14:30:02Z</time>
      </trkpt>
      <trkpt lat="48.67103" lon="-4.04937">
        <ele>34.8</ele>
        <time>2022-06-10T14:30:04Z</time>
      </trkpt>
      <trkpt lat="48.67103" lon="-4.04936">
        <ele>34.8</ele>
        <time>2022-06-10T14:30:05Z</time>
      </trkpt>
      <trkpt lat="48.67103" lon="-4.04934">
        <ele>34.8</ele>
        <time>2022-06-10T14:30:06Z</time>
      </trkpt>
      <trkpt lat="48.67103" lon="-4.04933">
        <ele>34.8</ele>
        <time>2022-06-10T14:30:07Z</time>
      </trkpt>
      <trkpt lat="48.67103" lon="-4.04931">
        <ele>34.9</ele>
        <time>2022-06-10T14:30:08Z</time>
      </trkpt>
      <trkpt lat="48.67102" lon="-4.04929">
        <ele>34.9</ele>
        <time>2022-06-10T14:30:10Z</time>
      </trkpt>
      <trkpt lat="48.67102" lon="-4.04928">
        <ele>34.9</ele>
        <time>2022-06-10T14:30:11Z</time>
      </trkpt>
      <trkpt lat="48.67102" lon="-4.04926">
        <ele>34.9</ele>
        <time>2022-06-10T14:30:12Z</time>
      </trkpt>
      <trkpt lat="48.67102" lon="-4.04925">
        <ele>34.9</ele>
        <time>2022-06-10T14:30:13Z</time>
      </trkpt>
      <trkpt lat="48.67103" lon="-4.04922">
        <ele>35</ele>
        <time>2022-06-10T14:30:15Z</time>
      </trkpt>
      <trkpt lat="48.67103" lon="-4.04921">
        <ele>35</ele>
        <time>2022-06-10T14:30:16Z</time>
      </trkpt>
      <trkpt lat="48.67104" lon="-4.0492">
        <ele>35</ele>
        <time>2022-06-10T14:30:17Z</time>
      </trkpt>
      <trkpt lat="48.67104" lon="-4.04919">
        <ele>35</ele>
        <time>2022-06-10T14:30:18Z</time>
      </trkpt>
      <trkpt lat="48.67105" lon="-4.04917">
        <ele>35.1</ele>
        <time>2022-06-10T14:30:19Z</time>
      </trkpt>
      <trkpt lat="48.67105" lon="-4.04915">
        <ele>35.1</ele>
        <time>2022-06-10T14:30:21Z</time>
      </trkpt>
      <trkpt lat="48.67105" lon="-4.04914">
        <ele>35.1</ele>
        <time>2022-06-10T14:30:22Z</time>
      </trkpt>
      <trkpt lat="48.67106" lon="-4.04912">
        <ele>35.1</ele>
        <time>2022-06-10T14:30:23Z</time>
      </trkpt>
      <trkpt lat="48.67106" lon="-4.04911">
        <ele>35.2</ele>
        <time>2022-06-10T14:30:24Z</time>
      </trkpt>
      <trkpt lat="48.67107" lon="-4.0491">
        <ele>35.2</ele>
        <time>2022-06-10T14:30:25Z</time>
      </trkpt>
      <trkpt lat="48.67107" lon="-4.04908">
        <ele>35.2</ele>
        <time>2022-06-10T14:30:26Z</time>
      </trkpt>
      <trkpt lat="48.67107" lon="-4.04907">
        <ele>35.2</ele>
        <time>2022-06-10T14:30:28Z</time>
      </trkpt>
      <trkpt lat="48.67108" lon="-4.04905">
        <ele>35.3</ele>
        <time>2022-06-10T14:30:29Z</time>
      </trkpt>
      <trkpt lat="48.67109" lon="-4.04903">
        <ele>35.3</ele>
        <time>2022-06-10T14:30:30Z</time>
      </trkpt>
      <trkpt lat="48.67109" lon="-4.04902">
        <ele>35.3</ele>
        <time>2022-06-10T14:30:31Z</time>
      </trkpt>
      <trkpt lat="48.67109" lon="-4.04901">
        <ele>35.3</ele>
        <time>2022-06-10T14:30:32Z</time>
      </trkpt>
      <trkpt lat="48.6711" lon="-4.04899">
        <ele>35.4</ele>
        <time>2022-06-10T14:30:33Z</time>
      </trkpt>
      <trkpt lat="48.6711" lon="-4.04897">
        <ele>35.4</ele>
        <time>2022-06-10T14:30:35Z</time>
      </trkpt>
      <trkpt lat="48.67111" lon="-4.04896">
        <ele>35.4</ele>
        <time>2022-06-10T14:30:36Z</time>
      </trkpt>
      <trkpt lat="48.67111" lon="-4.04894">
        <ele>35.4</ele>
        <time>2022-06-10T14:30:37Z</time>
      </trkpt>
      <trkpt lat="48.67112" lon="-4.04893">
        <ele>35.5</ele>
        <time>2022-06-10T14:30:38Z</time>
      </trkpt>
      <trkpt lat="48.67112" lon="-4.04891">
        <ele>35.5</ele>
        <time>2022-06-10T14:30:39Z</time>
      </trkpt>
      <trkpt lat="48.67112" lon="-4.0489">
        <ele>35.5</ele>
        <time>2022-06-10T14:30:40Z</time>
      </trkpt>
      <trkpt lat="48.67113" lon="-4.04888">
        <ele>35.5</ele>
        <time>2022-06-10T14:30:42Z</time>
      </trkpt>
      <trkpt lat="48.67113" lon="-4.04886">
        <ele>35.5</ele>
        <time>2022-06-10T14:30:43Z</time>
      </trkpt>
      <trkpt lat="48.67114" lon="-4.04884">
        <ele>35.6</ele>
        <time>2022-06-10T14:30:44Z</time>
      </trkpt>
      <trkpt lat="48.67114" lon="-4.04883">
        <ele>35.6</ele>
        <time>2022-06-10T14:30:45Z</time>
      </trkpt>
      <trkpt lat="48.67115" lon="-4.04881">
        <ele>35.6</ele>
        <time>2022-06-10T14:30:46Z</time>
      </trkpt>
      <trkpt lat="48.67115" lon="-4.0488">
        <ele>35.6</ele>
        <time>2022-06-10T14:30:47Z</time>
      </trkpt>
      <trkpt lat="48.67116" lon="-4.04878">
        <ele>35.7</ele>
        <time>2022-06-10T14:30:48Z</time>
      </trkpt>
      <trkpt lat="48.67116" lon="-4.04876">
        <ele>35.7</ele>
        <time>2022-06-10T14:30:50Z</time>
      </trkpt>
      <trkpt lat="48.67117" lon="-4.04875">
        <ele>35.7</ele>
        <time>2022-06-10T14:30:51Z</time>
      </trkpt>
      <trkpt lat="48.67117" lon="-4.04873">
        <ele>35.7</ele>
        <time>2022-06-10T14:30:52Z</time>
      </trkpt>
      <trkpt lat="48.67118" lon="-4.04872">
        <ele>35.7</ele>
        <time>2022-06-10T14:30:53Z</time>
      </trkpt>
      <trkpt lat="48.67118" lon="-4.04869">
        <ele>35.8</ele>
        <time>2022-06-10T14:30:54Z</time>
      </trkpt>
      <trkpt lat="48.67118" lon="-4.04868">
        <ele>35.8</ele>
        <time>2022-06-10T14:30:55Z</time>
      </trkpt>
      <trkpt lat="48.67119" lon="-4.04866">
        <ele>35.8</ele>
        <time>2022-06-10T14:30:57Z</time>
      </trkpt>
      <trkpt lat="48.67119" lon="-4.04865">
        <ele>35.8</ele>
        <time>2022-06-10T14:30:58Z</time>
      </trkpt>
      <trkpt lat="48.67119" lon="-4.04863">
        <ele>35.8</ele>
        <time>2022-06-10T14:30:59Z</time>
      </trkpt>
      <trkpt lat="48.67119" lon="-4.04861">
        <ele>35.9</ele>
        <time>2022-06-10T14:31:00Z</time>
      </trkpt>
      <trkpt lat="48.67119" lon="-4.0486">
        <ele>35.9</ele>
        <time>2022-06-10T14:31:01Z</time>
      </trkpt>
      <trkpt lat="48.6712" lon="-4.04859">
        <ele>35.9</ele>
        <time>2022-06-10T14:31:02Z</time>
      </trkpt>
      <trkpt lat="48.6712" lon="-4.04857">
        <ele>35.9</ele>
        <time>2022-06-10T14:31:03Z</time>
      </trkpt>
      <trkpt lat="48.6712" lon="-4.04855">
        <ele>36</ele>
        <time>2022-06-10T14:31:05Z</time>
      </trkpt>
      <trkpt lat="48.67121" lon="-4.04854">
        <ele>36</ele>
        <time>2022-06-10T14:31:06Z</time>
      </trkpt>
      <trkpt lat="48.67121" lon="-4.04852">
        <ele>36</ele>
        <time>2022-06-10T14:31:07Z</time>
      </trkpt>
      <trkpt lat="48.67121" lon="-4.04851">
        <ele>36</ele>
        <time>2022-06-10T14:31:08Z</time>
      </trkpt>
      <trkpt lat="48.67122" lon="-4.04848">
        <ele>36.1</ele>
        <time>2022-06-10T14:31:09Z</time>
      </trkpt>
      <trkpt lat="48.67122" lon="-4.04847">
        <ele>36.1</ele>
        <time>2022-06-10T14:31:11Z</time>
      </trkpt>
      <trkpt lat="48.67122" lon="-4.04846">
        <ele>36.1</ele>
        <time>2022-06-10T14:31:12Z</time>
      </trkpt>
      <trkpt lat="48.67122" lon="-4.04845">
        <ele>36.1</ele>
        <time>2022-06-10T14:31:13Z</time>
      </trkpt>
      <trkpt lat="48.67123" lon="-4.04843">
        <ele>36.2</ele>
        <time>2022-06-10T14:31:14Z</time>
      </trkpt>
      <trkpt lat="48.67123" lon="-4.04842">
        <ele>36.2</ele>
        <time>2022-06-10T14:31:15Z</time>
      </trkpt>
      <trkpt lat="48.67124" lon="-4.0484">
        <ele>36.2</ele>
        <time>2022-06-10T14:31:16Z</time>
      </trkpt>
      <trkpt lat="48.67124" lon="-4.04838">
        <ele>36.3</ele>
        <time>2022-06-10T14:31:18Z</time>
      </trkpt>
      <trkpt lat="48.67124" lon="-4.04836">
        <ele>36.3</ele>
        <time>2022-06-10T14:31:19Z</time>
      </trkpt>
      <trkpt lat="48.67125" lon="-4.04835">
        <ele>36.3</ele>
        <time>2022-06-10T14:31:20Z</time>
      </trkpt>
      <trkpt lat="48.67125" lon="-4.04833">
        <ele>36.4</ele>
        <time>2022-06-10T14:31:21Z</time>
      </trkpt>
      <trkpt lat="48.67125" lon="-4.04832">
        <ele>36.4</ele>
        <time>2022-06-10T14:31:22Z</time>
      </trkpt>
      <trkpt lat="48.67125" lon="-4.0483">
        <ele>36.4</ele>
        <time>2022-06-10T14:31:24Z</time>
      </trkpt>
      <trkpt lat="48.67126" lon="-4.04828">
        <ele>36.5</ele>
        <time>2022-06-10T14:31:25Z</time>
      </trkpt>
      <trkpt lat="48.67126" lon="-4.04827">
        <ele>36.5</ele>
        <time>2022-06-10T14:31:26Z</time>
      </trkpt>
      <trkpt lat="48.67127" lon="-4.04825">
        <ele>36.5</ele>
        <time>2022-06-10T14:31:27Z</time>
      </trkpt>
      <trkpt lat="48.67127" lon="-4.04823">
        <ele>36.5</ele>
        <time>2022-06-10T14:31:28Z</time>
      </trkpt>
      <trkpt lat="48.67128" lon="-4.04822">
        <ele>36.6</ele>
        <time>2022-06-10T14:31:29Z</time>
      </trkpt>
      <trkpt lat="48.67128" lon="-4.0482">
        <ele>36.6</ele>
        <time>2022-06-10T14:31:31Z</time>
      </trkpt>
      <trkpt lat="48.67128" lon="-4.04819">
        <ele>36.6</ele>
        <time>2022-06-10T14:31:32Z</time>
      </trkpt>
      <trkpt lat="48.67128" lon="-4.04818">
        <ele>36.6</ele>
        <time>2022-06-10T14:31:33Z</time>
      </trkpt>
      <trkpt lat="48.67128" lon="-4.04816">
        <ele>36.6</ele>
        <time>2022-06-10T14:31:34Z</time>
      </trkpt>
      <trkpt lat="48.67128" lon="-4.04814">
        <ele>36.7</ele>
        <time>2022-06-10T14:31:36Z</time>
      </trkpt>
      <trkpt lat="48.67129" lon="-4.04812">
        <ele>36.7</ele>
        <time>2022-06-10T14:31:37Z</time>
      </trkpt>
      <trkpt lat="48.67129" lon="-4.04811">
        <ele>36.7</ele>
        <time>2022-06-10T14:31:38Z</time>
      </trkpt>
      <trkpt lat="48.67129" lon="-4.04809">
        <ele>36.7</ele>
        <time>2022-06-10T14:31:39Z</time>
      </trkpt>
      <trkpt lat="48.6713" lon="-4.04808">
        <ele>36.7</ele>
        <time>2022-06-10T14:31:40Z</time>
      </trkpt>
      <trkpt lat="48.6713" lon="-4.04806">
        <ele>36.8</ele>
        <time>2022-06-10T14:31:41Z</time>
      </trkpt>
      <trkpt lat="48.6713" lon="-4.04805">
        <ele>36.8</ele>
        <time>2022-06-10T14:31:42Z</time>
      </trkpt>
      <trkpt lat="48.6713" lon="-4.04804">
        <ele>36.8</ele>
        <time>2022-06-10T14:31:43Z</time>
      </trkpt>
      <trkpt lat="48.6713" lon="-4.04803">
        <ele>36.8</ele>
        <time>2022-06-10T14:31:44Z</time>
      </trkpt>
      <trkpt lat="48.6713" lon="-4.04801">
        <ele>36.8</ele>
        <time>2022-06-10T14:31:46Z</time>
      </trkpt>
      <trkpt lat="48.6713" lon="-4.04799">
        <ele>36.8</ele>
        <time>2022-06-10T14:31:47Z</time>
      </trkpt>
      <trkpt lat="48.6713" lon="-4.04797">
        <ele>36.8</ele>
        <time>2022-06-10T14:31:48Z</time>
      </trkpt>
      <trkpt lat="48.6713" lon="-4.04796">
        <ele>36.8</ele>
        <time>2022-06-10T14:31:49Z</time>
      </trkpt>
      <trkpt lat="48.6713" lon="-4.04794">
        <ele>36.8</ele>
        <time>2022-06-10T14:31:50Z</time>
      </trkpt>
      <trkpt lat="48.6713" lon="-4.04793">
        <ele>36.8</ele>
        <time>2022-06-10T14:31:51Z</time>
      </trkpt>
      <trkpt lat="48.6713" lon="-4.04791">
        <ele>36.8</ele>
        <time>2022-06-10T14:31:52Z</time>
      </trkpt>
      <trkpt lat="48.6713" lon="-4.0479">
        <ele>36.9</ele>
        <time>2022-06-10T14:31:53Z</time>
      </trkpt>
      <trkpt lat="48.67131" lon="-4.04789">
        <ele>36.9</ele>
        <time>2022-06-10T14:31:54Z</time>
      </trkpt>
      <trkpt lat="48.67131" lon="-4.04788">
        <ele>36.9</ele>
        <time>2022-06-10T14:31:55Z</time>
      </trkpt>
      <trkpt lat="48.67131" lon="-4.04786">
        <ele>36.9</ele>
        <time>2022-06-10T14:31:57Z</time>
      </trkpt>
      <trkpt lat="48.67131" lon="-4.04784">
        <ele>36.9</ele>
        <time>2022-06-10T14:31:58Z</time>
      </trkpt>
      <trkpt lat="48.67132" lon="-4.04781">
        <ele>36.9</ele>
        <time>2022-06-10T14:31:59Z</time>
      </trkpt>
      <trkpt lat="48.67133" lon="-4.0478">
        <ele>36.9</ele>
        <time>2022-06-10T14:32:00Z</time>
      </trkpt>
      <trkpt lat="48.67133" lon="-4.04779">
        <ele>36.9</ele>
        <time>2022-06-10T14:32:01Z</time>
      </trkpt>
      <trkpt lat="48.67133" lon="-4.04777">
        <ele>36.9</ele>
        <time>2022-06-10T14:32:02Z</time>
      </trkpt>
      <trkpt lat="48.67134" lon="-4.04776">
        <ele>36.9</ele>
        <time>2022-06-10T14:32:03Z</time>
      </trkpt>
      <trkpt lat="48.67134" lon="-4.04774">
        <ele>36.9</ele>
        <time>2022-06-10T14:32:04Z</time>
      </trkpt>
      <trkpt lat="48.67135" lon="-4.04772">
        <ele>36.9</ele>
        <time>2022-06-10T14:32:06Z</time>
      </trkpt>
      <trkpt lat="48.67135" lon="-4.0477">
        <ele>36.8</ele>
        <time>2022-06-10T14:32:07Z</time>
      </trkpt>
      <trkpt lat="48.67136" lon="-4.04768">
        <ele>36.8</ele>
        <time>2022-06-10T14:32:08Z</time>
      </trkpt>
      <trkpt lat="48.67136" lon="-4.04765">
        <ele>36.8</ele>
        <time>2022-06-10T14:32:09Z</time>
      </trkpt>
      <trkpt lat="48.67136" lon="-4.04763">
        <ele>36.8</ele>
        <time>2022-06-10T14:32:10Z</time>
      </trkpt>
      <trkpt lat="48.67136" lon="-4.04761">
        <ele>36.8</ele>
        <time>2022-06-10T14:32:11Z</time>
      </trkpt>
      <trkpt lat="48.67137" lon="-4.04758">
        <ele>36.8</ele>
        <time>2022-06-10T14:32:13Z</time>
      </trkpt>
      <trkpt lat="48.67137" lon="-4.04756">
        <ele>36.8</ele>
        <time>2022-06-10T14:32:14Z</time>
      </trkpt>
      <trkpt lat="48.67137" lon="-4.04755">
        <ele>36.8</ele>
        <time>2022-06-10T14:32:15Z</time>
      </trkpt>
      <trkpt lat="48.67137" lon="-4.04754">
        <ele>36.7</ele>
        <time>2022-06-10T14:32:16Z</time>
      </trkpt>
      <trkpt lat="48.67137" lon="-4.04753">
        <ele>36.7</ele>
        <time>2022-06-10T14:32:17Z</time>
      </trkpt>
      <trkpt lat="48.67137" lon="-4.04751">
        <ele>36.7</ele>
        <time>2022-06-10T14:32:18Z</time>
      </trkpt>
      <trkpt lat="48.67138" lon="-4.0475">
        <ele>36.7</ele>
        <time>2022-06-10T14:32:20Z</time>
      </trkpt>
      <trkpt lat="48.67138" lon="-4.04748">
        <ele>36.7</ele>
        <time>2022-06-10T14:32:21Z</time>
      </trkpt>
      <trkpt lat="48.67138" lon="-4.04747">
        <ele>36.7</ele>
        <time>2022-06-10T14:32:22Z</time>
      </trkpt>
      <trkpt lat="48.67138" lon="-4.04744">
        <ele>36.7</ele>
        <time>2022-06-10T14:32:23Z</time>
      </trkpt>
      <trkpt lat="48.67138" lon="-4.04741">
        <ele>36.7</ele>
        <time>2022-06-10T14:32:24Z</time>
      </trkpt>
      <trkpt lat="48.67138" lon="-4.0474">
        <ele>36.7</ele>
        <time>2022-06-10T14:32:25Z</time>
      </trkpt>
      <trkpt lat="48.67138" lon="-4.04738">
        <ele>36.7</ele>
        <time>2022-06-10T14:32:26Z</time>
      </trkpt>
      <trkpt lat="48.67138" lon="-4.04736">
        <ele>36.7</ele>
        <time>2022-06-10T14:32:28Z</time>
      </trkpt>
      <trkpt lat="48.67138" lon="-4.04735">
        <ele>36.7</ele>
        <time>2022-06-10T14:32:29Z</time>
      </trkpt>
      <trkpt lat="48.67138" lon="-4.04734">
        <ele>36.7</ele>
        <time>2022-06-10T14:32:30Z</time>
      </trkpt>
      <trkpt lat="48.67138" lon="-4.04731">
        <ele>36.7</ele>
        <time>2022-06-10T14:32:31Z</time>
      </trkpt>
      <trkpt lat="48.67139" lon="-4.0473">
        <ele>36.7</ele>
        <time>2022-06-10T14:32:32Z</time>
      </trkpt>
      <trkpt lat="48.67139" lon="-4.04729">
        <ele>36.6</ele>
        <time>2022-06-10T14:32:34Z</time>
      </trkpt>
      <trkpt lat="48.67139" lon="-4.04728">
        <ele>36.6</ele>
        <time>2022-06-10T14:32:35Z</time>
      </trkpt>
      <trkpt lat="48.67139" lon="-4.04726">
        <ele>36.6</ele>
        <time>2022-06-10T14:32:36Z</time>
      </trkpt>
      <trkpt lat="48.6714" lon="-4.04724">
        <ele>36.6</ele>
        <time>2022-06-10T14:32:37Z</time>
      </trkpt>
      <trkpt lat="48.6714" lon="-4.04723">
        <ele>36.6</ele>
        <time>2022-06-10T14:32:38Z</time>
      </trkpt>
      <trkpt lat="48.6714" lon="-4.04722">
        <ele>36.6</ele>
        <time>2022-06-10T14:32:39Z</time>
      </trkpt>
      <trkpt lat="48.6714" lon="-4.04721">
        <ele>36.6</ele>
        <time>2022-06-10T14:32:40Z</time>
      </trkpt>
      <trkpt lat="48.6714" lon="-4.0472">
        <ele>36.6</ele>
        <time>2022-06-10T14:32:41Z</time>
      </trkpt>
      <trkpt lat="48.6714" lon="-4.04718">
        <ele>36.6</ele>
        <time>2022-06-10T14:32:42Z</time>
      </trkpt>
      <trkpt lat="48.6714" lon="-4.04716">
        <ele>36.6</ele>
        <time>2022-06-10T14:32:44Z</time>
      </trkpt>
      <trkpt lat="48.6714" lon="-4.04715">
        <ele>36.6</ele>
        <time>2022-06-10T14:32:45Z</time>
      </trkpt>
      <trkpt lat="48.6714" lon="-4.04714">
        <ele>36.6</ele>
        <time>2022-06-10T14:32:46Z</time>
      </trkpt>
      <trkpt lat="48.67139" lon="-4.04715">
        <ele>36.6</ele>
        <time>2022-06-10T14:32:47Z</time>
      </trkpt>
      <trkpt lat="48.67139" lon="-4.04715">
        <ele>36.6</ele>
        <time>2022-06-10T14:32:48Z</time>
      </trkpt>
      <trkpt lat="48.67139" lon="-4.04713">
        <ele>36.6</ele>
        <time>2022-06-10T14:32:50Z</time>
      </trkpt>
      <trkpt lat="48.67139" lon="-4.04712">
        <ele>36.6</ele>
        <time>2022-06-10T14:32:51Z</time>
      </trkpt>
      <trkpt lat="48.67139" lon="-4.0471">
        <ele>36.6</ele>
        <time>2022-06-10T14:32:52Z</time>
      </trkpt>
      <trkpt lat="48.67139" lon="-4.04709">
        <ele>36.6</ele>
        <time>2022-06-10T14:32:53Z</time>
      </trkpt>
      <trkpt lat="48.6714" lon="-4.04707">
        <ele>36.6</ele>
        <time>2022-06-10T14:32:54Z</time>
      </trkpt>
      <trkpt lat="48.6714" lon="-4.04706">
        <ele>36.6</ele>
        <time>2022-06-10T14:32:55Z</time>
      </trkpt>
      <trkpt lat="48.6714" lon="-4.04704">
        <ele>36.6</ele>
        <time>2022-06-10T14:32:57Z</time>
      </trkpt>
      <trkpt lat="48.6714" lon="-4.04702">
        <ele>36.6</ele>
        <time>2022-06-10T14:32:58Z</time>
      </trkpt>
      <trkpt lat="48.67141" lon="-4.047">
        <ele>36.6</ele>
        <time>2022-06-10T14:32:59Z</time>
      </trkpt>
      <trkpt lat="48.67141" lon="-4.04698">
        <ele>36.6</ele>
        <time>2022-06-10T14:33:00Z</time>
      </trkpt>
      <trkpt lat="48.67141" lon="-4.04696">
        <ele>36.6</ele>
        <time>2022-06-10T14:33:01Z</time>
      </trkpt>
      <trkpt lat="48.67142" lon="-4.04693">
        <ele>36.6</ele>
        <time>2022-06-10T14:33:02Z</time>
      </trkpt>
      <trkpt lat="48.67142" lon="-4.04692">
        <ele>36.6</ele>
        <time>2022-06-10T14:33:04Z</time>
      </trkpt>
      <trkpt lat="48.67142" lon="-4.04691">
        <ele>36.6</ele>
        <time>2022-06-10T14:33:05Z</time>
      </trkpt>
      <trkpt lat="48.67142" lon="-4.04689">
        <ele>36.6</ele>
        <time>2022-06-10T14:33:06Z</time>
      </trkpt>
      <trkpt lat="48.67142" lon="-4.04687">
        <ele>36.6</ele>
        <time>2022-06-10T14:33:07Z</time>
      </trkpt>
      <trkpt lat="48.67142" lon="-4.04686">
        <ele>36.6</ele>
        <time>2022-06-10T14:33:08Z</time>
      </trkpt>
      <trkpt lat="48.67142" lon="-4.04685">
        <ele>36.6</ele>
        <time>2022-06-10T14:33:09Z</time>
      </trkpt>
      <trkpt lat="48.67142" lon="-4.04683">
        <ele>36.6</ele>
        <time>2022-06-10T14:33:11Z</time>
      </trkpt>
      <trkpt lat="48.67142" lon="-4.04681">
        <ele>36.6</ele>
        <time>2022-06-10T14:33:12Z</time>
      </trkpt>
      <trkpt lat="48.67143" lon="-4.04678">
        <ele>36.6</ele>
        <time>2022-06-10T14:33:13Z</time>
      </trkpt>
      <trkpt lat="48.67143" lon="-4.04676">
        <ele>36.6</ele>
        <time>2022-06-10T14:33:14Z</time>
      </trkpt>
      <trkpt lat="48.67143" lon="-4.04675">
        <ele>36.6</ele>
        <time>2022-06-10T14:33:15Z</time>
      </trkpt>
      <trkpt lat="48.67144" lon="-4.04673">
        <ele>36.6</ele>
        <time>2022-06-10T14:33:16Z</time>
      </trkpt>
      <trkpt lat="48.67144" lon="-4.04671">
        <ele>36.5</ele>
        <time>2022-06-10T14:33:18Z</time>
      </trkpt>
      <trkpt lat="48.67145" lon="-4.04669">
        <ele>36.5</ele>
        <time>2022-06-10T14:33:19Z</time>
      </trkpt>
      <trkpt lat="48.67146" lon="-4.04668">
        <ele>36.5</ele>
        <time>2022-06-10T14:33:20Z</time>
      </trkpt>
      <trkpt lat="48.67146" lon="-4.04666">
        <ele>36.5</ele>
        <time>2022-06-10T14:33:21Z</time>
      </trkpt>
      <trkpt lat="48.67147" lon="-4.04665">
        <ele>36.5</ele>
        <time>2022-06-10T14:33:22Z</time>
      </trkpt>
      <trkpt lat="48.67147" lon="-4.04664">
        <ele>36.5</ele>
        <time>2022-06-10T14:33:23Z</time>
      </trkpt>
      <trkpt lat="48.67147" lon="-4.04663">
        <ele>36.5</ele>
        <time>2022-06-10T14:33:25Z</time>
      </trkpt>
      <trkpt lat="48.67147" lon="-4.04662">
        <ele>36.5</ele>
        <time>2022-06-10T14:33:26Z</time>
      </trkpt>
      <trkpt lat="48.67147" lon="-4.04661">
        <ele>36.5</ele>
        <time>2022-06-10T14:33:27Z</time>
      </trkpt>
      <trkpt lat="48.67147" lon="-4.04659">
        <ele>36.5</ele>
        <time>2022-06-10T14:33:28Z</time>
      </trkpt>
      <trkpt lat="48.67146" lon="-4.0466">
        <ele>36.5</ele>
        <time>2022-06-10T14:33:29Z</time>
      </trkpt>
      <trkpt lat="48.67146" lon="-4.04658">
        <ele>36.5</ele>
        <time>2022-06-10T14:33:30Z</time>
      </trkpt>
      <trkpt lat="48.67145" lon="-4.04657">
        <ele>36.5</ele>
        <time>2022-06-10T14:33:32Z</time>
      </trkpt>
      <trkpt lat="48.67145" lon="-4.04655">
        <ele>36.5</ele>
        <time>2022-06-10T14:33:33Z</time>
      </trkpt>
      <trkpt lat="48.67145" lon="-4.04654">
        <ele>36.5</ele>
        <time>2022-06-10T14:33:34Z</time>
      </trkpt>
      <trkpt lat="48.67145" lon="-4.04652">
        <ele>36.5</ele>
        <time>2022-06-10T14:33:35Z</time>
      </trkpt>
      <trkpt lat="48.67145" lon="-4.04651">
        <ele>36.5</ele>
        <time>2022-06-10T14:33:36Z</time>
      </trkpt>
      <trkpt lat="48.67144" lon="-4.04649">
        <ele>36.5</ele>
        <time>2022-06-10T14:33:37Z</time>
      </trkpt>
      <trkpt lat="48.67144" lon="-4.04647">
        <ele>36.5</ele>
        <time>2022-06-10T14:33:39Z</time>
      </trkpt>
      <trkpt lat="48.67144" lon="-4.04645">
        <ele>36.5</ele>
        <time>2022-06-10T14:33:40Z</time>
      </trkpt>
      <trkpt lat="48.67144" lon="-4.04645">
        <ele>36.5</ele>
        <time>2022-06-10T14:33:42Z</time>
      </trkpt>
      <trkpt lat="48.67144" lon="-4.04645">
        <ele>36.5</ele>
        <time>2022-06-10T14:33:43Z</time>
      </trkpt>
      <trkpt lat="48.67144" lon="-4.04645">
        <ele>36.5</ele>
        <time>2022-06-10T14:33:45Z</time>
      </trkpt>
      <trkpt lat="48.67144" lon="-4.04645">
        <ele>36.5</ele>
        <time>2022-06-10T14:33:46Z</time>
      </trkpt>
      <trkpt lat="48.67144" lon="-4.04645">
        <ele>36.5</ele>
        <time>2022-06-10T14:33:47Z</time>
      </trkpt>
      <trkpt lat="48.67144" lon="-4.04645">
        <ele>36.5</ele>
        <time>2022-06-10T14:33:49Z</time>
      </trkpt>
      <trkpt lat="48.67144" lon="-4.04645">
        <ele>36.5</ele>
        <time>2022-06-10T14:33:50Z</time>
      </trkpt>
      <trkpt lat="48.67144" lon="-4.04645">
        <ele>36.5</ele>
        <time>2022-06-10T14:33:51Z</time>
      </trkpt>
      <trkpt lat="48.67144" lon="-4.04645">
        <ele>36.5</ele>
        <time>2022-06-10T14:33:53Z</time>
      </trkpt>
      <trkpt lat="48.67144" lon="-4.04645">
        <ele>36.5</ele>
        <time>2022-06-10T14:33:55Z</time>
      </trkpt>
      <trkpt lat="48.67144" lon="-4.04645">
        <ele>36.5</ele>
        <time>2022-06-10T14:33:56Z</time>
      </trkpt>
      <trkpt lat="48.67144" lon="-4.04645">
        <ele>36.5</ele>
        <time>2022-06-10T14:33:57Z</time>
      </trkpt>
      <trkpt lat="48.67144" lon="-4.04645">
        <ele>36.5</ele>
        <time>2022-06-10T14:33:58Z</time>
      </trkpt>
      <trkpt lat="48.67144" lon="-4.04645">
        <ele>36.5</ele>
        <time>2022-06-10T14:33:59Z</time>
      </trkpt>
      <trkpt lat="48.67144" lon="-4.04645">
        <ele>36.5</ele>
        <time>2022-06-10T14:34:00Z</time>
      </trkpt>
      <trkpt lat="48.67144" lon="-4.04645">
        <ele>36.5</ele>
        <time>2022-06-10T14:34:01Z</time>
      </trkpt>
      <trkpt lat="48.67144" lon="-4.04645">
        <ele>36.5</ele>
        <time>2022-06-10T14:34:02Z</time>
      </trkpt>
      <trkpt lat="48.67144" lon="-4.04644">
        <ele>36.5</ele>
        <time>2022-06-10T14:34:03Z</time>
      </trkpt>
      <trkpt lat="48.67144" lon="-4.04644">
        <ele>36.5</ele>
        <time>2022-06-10T14:34:05Z</time>
      </trkpt>
      <trkpt lat="48.67144" lon="-4.04644">
        <ele>36.5</ele>
        <time>2022-06-10T14:34:06Z</time>
      </trkpt>
      <trkpt lat="48.67144" lon="-4.04644">
        <ele>36.5</ele>
        <time>2022-06-10T14:34:07Z</time>
      </trkpt>
      <trkpt lat="48.67144" lon="-4.04644">
        <ele>36.5</ele>
        <time>2022-06-10T14:34:08Z</time>
      </trkpt>
      <trkpt lat="48.67144" lon="-4.04644">
        <ele>36.5</ele>
        <time>2022-06-10T14:34:09Z</time>
      </trkpt>
      <trkpt lat="48.67144" lon="-4.04644">
        <ele>36.5</ele>
        <time>2022-06-10T14:34:10Z</time>
      </trkpt>
      <trkpt lat="48.67144" lon="-4.04644">
        <ele>36.5</ele>
        <time>2022-06-10T14:34:11Z</time>
      </trkpt>
      <trkpt lat="48.67144" lon="-4.04644">
        <ele>36.5</ele>
        <time>2022-06-10T14:34:12Z</time>
      </trkpt>
      <trkpt lat="48.67144" lon="-4.04644">
        <ele>36.5</ele>
        <time>2022-06-10T14:34:13Z</time>
      </trkpt>
      <trkpt lat="48.67144" lon="-4.04644">
        <ele>36.5</ele>
        <time>2022-06-10T14:34:14Z</time>
      </trkpt>
      <trkpt lat="48.67144" lon="-4.04644">
        <ele>36.5</ele>
        <time>2022-06-10T14:34:15Z</time>
      </trkpt>
      <trkpt lat="48.67145" lon="-4.04644">
        <ele>36.5</ele>
        <time>2022-06-10T14:34:16Z</time>
      </trkpt>
      <trkpt lat="48.67145" lon="-4.04644">
        <ele>36.5</ele>
        <time>2022-06-10T14:34:17Z</time>
      </trkpt>
      <trkpt lat="48.67145" lon="-4.04644">
        <ele>36.5</ele>
        <time>2022-06-10T14:34:18Z</time>
      </trkpt>
      <trkpt lat="48.67145" lon="-4.04644">
        <ele>36.5</ele>
        <time>2022-06-10T14:34:19Z</time>
      </trkpt>
      <trkpt lat="48.67145" lon="-4.04644">
        <ele>36.5</ele>
        <time>2022-06-10T14:34:20Z</time>
      </trkpt>
      <trkpt lat="48.67145" lon="-4.04644">
        <ele>36.5</ele>
        <time>2022-06-10T14:34:21Z</time>
      </trkpt>
      <trkpt lat="48.67145" lon="-4.04644">
        <ele>36.5</ele>
        <time>2022-06-10T14:34:22Z</time>
      </trkpt>
      <trkpt lat="48.67145" lon="-4.04644">
        <ele>36.5</ele>
        <time>2022-06-10T14:34:23Z</time>
      </trkpt>
      <trkpt lat="48.67145" lon="-4.04644">
        <ele>36.5</ele>
        <time>2022-06-10T14:34:24Z</time>
      </trkpt>
      <trkpt lat="48.67145" lon="-4.04643">
        <ele>36.5</ele>
        <time>2022-06-10T14:34:25Z</time>
      </trkpt>
      <trkpt lat="48.67145" lon="-4.04643">
        <ele>36.5</ele>
        <time>2022-06-10T14:34:26Z</time>
      </trkpt>
      <trkpt lat="48.67145" lon="-4.04643">
        <ele>36.5</ele>
        <time>2022-06-10T14:34:27Z</time>
      </trkpt>
      <trkpt lat="48.67145" lon="-4.04643">
        <ele>36.5</ele>
        <time>2022-06-10T14:34:28Z</time>
      </trkpt>
      <trkpt lat="48.67145" lon="-4.04643">
        <ele>36.5</ele>
        <time>2022-06-10T14:34:29Z</time>
      </trkpt>
      <trkpt lat="48.67145" lon="-4.04643">
        <ele>36.5</ele>
        <time>2022-06-10T14:34:30Z</time>
      </trkpt>
      <trkpt lat="48.67145" lon="-4.04643">
        <ele>36.5</ele>
        <time>2022-06-10T14:34:31Z</time>
      </trkpt>
      <trkpt lat="48.67145" lon="-4.04643">
        <ele>36.5</ele>
        <time>2022-06-10T14:34:32Z</time>
      </trkpt>
      <trkpt lat="48.67145" lon="-4.04643">
        <ele>36.5</ele>
        <time>2022-06-10T14:34:33Z</time>
      </trkpt>
      <trkpt lat="48.67145" lon="-4.04643">
        <ele>36.5</ele>
        <time>2022-06-10T14:34:34Z</time>
      </trkpt>
      <trkpt lat="48.67145" lon="-4.04643">
        <ele>36.5</ele>
        <time>2022-06-10T14:34:35Z</time>
      </trkpt>
      <trkpt lat="48.67145" lon="-4.04643">
        <ele>36.5</ele>
        <time>2022-06-10T14:34:36Z</time>
      </trkpt>
      <trkpt lat="48.67145" lon="-4.04643">
        <ele>36.5</ele>
        <time>2022-06-10T14:34:37Z</time>
      </trkpt>
      <trkpt lat="48.67145" lon="-4.04643">
        <ele>36.5</ele>
        <time>2022-06-10T14:34:38Z</time>
      </trkpt>
      <trkpt lat="48.67145" lon="-4.04643">
        <ele>36.5</ele>
        <time>2022-06-10T14:34:39Z</time>
      </trkpt>
      <trkpt lat="48.67145" lon="-4.04643">
        <ele>36.5</ele>
        <time>2022-06-10T14:34:40Z</time>
      </trkpt>
      <trkpt lat="48.67145" lon="-4.04643">
        <ele>36.5</ele>
        <time>2022-06-10T14:34:41Z</time>
      </trkpt>
      <trkpt lat="48.67145" lon="-4.04643">
        <ele>36.5</ele>
        <time>2022-06-10T14:34:42Z</time>
      </trkpt>
      <trkpt lat="48.67145" lon="-4.04643">
        <ele>36.5</ele>
        <time>2022-06-10T14:34:43Z</time>
      </trkpt>
      <trkpt lat="48.67145" lon="-4.04643">
        <ele>36.5</ele>
        <time>2022-06-10T14:34:44Z</time>
      </trkpt>
      <trkpt lat="48.67145" lon="-4.04643">
        <ele>36.5</ele>
        <time>2022-06-10T14:34:45Z</time>
      </trkpt>
      <trkpt lat="48.67145" lon="-4.04643">
        <ele>36.5</ele>
        <time>2022-06-10T14:34:46Z</time>
      </trkpt>
      <trkpt lat="48.67145" lon="-4.04642">
        <ele>36.5</ele>
        <time>2022-06-10T14:34:47Z</time>
      </trkpt>
      <trkpt lat="48.67145" lon="-4.04642">
        <ele>36.5</ele>
        <time>2022-06-10T14:34:48Z</time>
      </trkpt>
      <trkpt lat="48.67145" lon="-4.04642">
        <ele>36.5</ele>
        <time>2022-06-10T14:34:49Z</time>
      </trkpt>
      <trkpt lat="48.67146" lon="-4.04639">
        <ele>36.5</ele>
        <time>2022-06-10T14:34:50Z</time>
      </trkpt>
      <trkpt lat="48.67147" lon="-4.04639">
        <ele>36.5</ele>
        <time>2022-06-10T14:34:51Z</time>
      </trkpt>
      <trkpt lat="48.67147" lon="-4.04639">
        <ele>36.5</ele>
        <time>2022-06-10T14:34:52Z</time>
      </trkpt>
      <trkpt lat="48.67147" lon="-4.04639">
        <ele>36.5</ele>
        <time>2022-06-10T14:34:53Z</time>
      </trkpt>
      <trkpt lat="48.67145" lon="-4.04641">
        <ele>36.5</ele>
        <time>2022-06-10T14:34:54Z</time>
      </trkpt>
      <trkpt lat="48.67145" lon="-4.04643">
        <ele>36.5</ele>
        <time>2022-06-10T14:34:55Z</time>
      </trkpt>
      <trkpt lat="48.67145" lon="-4.04642">
        <ele>36.5</ele>
        <time>2022-06-10T14:34:56Z</time>
      </trkpt>
      <trkpt lat="48.67145" lon="-4.04642">
        <ele>36.5</ele>
        <time>2022-06-10T14:34:57Z</time>
      </trkpt>
      <trkpt lat="48.67145" lon="-4.04642">
        <ele>36.5</ele>
        <time>2022-06-10T14:34:58Z</time>
      </trkpt>
      <trkpt lat="48.67145" lon="-4.04642">
        <ele>36.5</ele>
        <time>2022-06-10T14:34:59Z</time>
      </trkpt>
      <trkpt lat="48.67146" lon="-4.04642">
        <ele>36.5</ele>
        <time>2022-06-10T14:35:00Z</time>
      </trkpt>
      <trkpt lat="48.67146" lon="-4.04642">
        <ele>36.5</ele>
        <time>2022-06-10T14:35:01Z</time>
      </trkpt>
      <trkpt lat="48.67146" lon="-4.04642">
        <ele>36.5</ele>
        <time>2022-06-10T14:35:02Z</time>
      </trkpt>
      <trkpt lat="48.67146" lon="-4.04641">
        <ele>36.5</ele>
        <time>2022-06-10T14:35:03Z</time>
      </trkpt>
      <trkpt lat="48.67146" lon="-4.04641">
        <ele>36.5</ele>
        <time>2022-06-10T14:35:04Z</time>
      </trkpt>
      <trkpt lat="48.67146" lon="-4.04641">
        <ele>36.5</ele>
        <time>2022-06-10T14:35:05Z</time>
      </trkpt>
      <trkpt lat="48.67147" lon="-4.04641">
        <ele>36.5</ele>
        <time>2022-06-10T14:35:06Z</time>
      </trkpt>
      <trkpt lat="48.67147" lon="-4.04641">
        <ele>36.5</ele>
        <time>2022-06-10T14:35:07Z</time>
      </trkpt>
      <trkpt lat="48.67147" lon="-4.04641">
        <ele>36.5</ele>
        <time>2022-06-10T14:35:08Z</time>
      </trkpt>
      <trkpt lat="48.67147" lon="-4.04641">
        <ele>36.5</ele>
        <time>2022-06-10T14:35:09Z</time>
      </trkpt>
      <trkpt lat="48.67147" lon="-4.04641">
        <ele>36.5</ele>
        <time>2022-06-10T14:35:10Z</time>
      </trkpt>
      <trkpt lat="48.67147" lon="-4.0464">
        <ele>36.5</ele>
        <time>2022-06-10T14:35:11Z</time>
      </trkpt>
      <trkpt lat="48.67148" lon="-4.0464">
        <ele>36.5</ele>
        <time>2022-06-10T14:35:12Z</time>
      </trkpt>
      <trkpt lat="48.67148" lon="-4.0464">
        <ele>36.5</ele>
        <time>2022-06-10T14:35:13Z</time>
      </trkpt>
      <trkpt lat="48.67148" lon="-4.0464">
        <ele>36.5</ele>
        <time>2022-06-10T14:35:14Z</time>
      </trkpt>
      <trkpt lat="48.67148" lon="-4.0464">
        <ele>36.5</ele>
        <time>2022-06-10T14:35:15Z</time>
      </trkpt>
      <trkpt lat="48.67148" lon="-4.0464">
        <ele>36.5</ele>
        <time>2022-06-10T14:35:16Z</time>
      </trkpt>
      <trkpt lat="48.67148" lon="-4.0464">
        <ele>36.5</ele>
        <time>2022-06-10T14:35:17Z</time>
      </trkpt>
      <trkpt lat="48.67148" lon="-4.04639">
        <ele>36.5</ele>
        <time>2022-06-10T14:35:18Z</time>
      </trkpt>
      <trkpt lat="48.67149" lon="-4.04639">
        <ele>36.5</ele>
        <time>2022-06-10T14:35:19Z</time>
      </trkpt>
      <trkpt lat="48.67149" lon="-4.04639">
        <ele>36.5</ele>
        <time>2022-06-10T14:35:20Z</time>
      </trkpt>
      <trkpt lat="48.67149" lon="-4.04639">
        <ele>36.5</ele>
        <time>2022-06-10T14:35:21Z</time>
      </trkpt>
      <trkpt lat="48.67149" lon="-4.04639">
        <ele>36.5</ele>
        <time>2022-06-10T14:35:22Z</time>
      </trkpt>
      <trkpt lat="48.67149" lon="-4.04639">
        <ele>36.5</ele>
        <time>2022-06-10T14:35:23Z</time>
      </trkpt>
      <trkpt lat="48.67149" lon="-4.04639">
        <ele>36.5</ele>
        <time>2022-06-10T14:35:24Z</time>
      </trkpt>
      <trkpt lat="48.67149" lon="-4.04638">
        <ele>36.5</ele>
        <time>2022-06-10T14:35:25Z</time>
      </trkpt>
      <trkpt lat="48.67149" lon="-4.04638">
        <ele>36.5</ele>
        <time>2022-06-10T14:35:26Z</time>
      </trkpt>
      <trkpt lat="48.67149" lon="-4.04638">
        <ele>36.5</ele>
        <time>2022-06-10T14:35:27Z</time>
      </trkpt>
      <trkpt lat="48.67149" lon="-4.04638">
        <ele>36.5</ele>
        <time>2022-06-10T14:35:29Z</time>
      </trkpt>
      <trkpt lat="48.6715" lon="-4.04638">
        <ele>36.5</ele>
        <time>2022-06-10T14:35:30Z</time>
      </trkpt>
      <trkpt lat="48.6715" lon="-4.04637">
        <ele>36.5</ele>
        <time>2022-06-10T14:35:31Z</time>
      </trkpt>
      <trkpt lat="48.6715" lon="-4.04637">
        <ele>36.5</ele>
        <time>2022-06-10T14:35:32Z</time>
      </trkpt>
      <trkpt lat="48.6715" lon="-4.04637">
        <ele>36.5</ele>
        <time>2022-06-10T14:35:33Z</time>
      </trkpt>
      <trkpt lat="48.6715" lon="-4.04637">
        <ele>36.5</ele>
        <time>2022-06-10T14:35:35Z</time>
      </trkpt>
      <trkpt lat="48.6715" lon="-4.04637">
        <ele>36.5</ele>
        <time>2022-06-10T14:35:36Z</time>
      </trkpt>
      <trkpt lat="48.6715" lon="-4.04637">
        <ele>36.5</ele>
        <time>2022-06-10T14:35:37Z</time>
      </trkpt>
      <trkpt lat="48.6715" lon="-4.04636">
        <ele>36.5</ele>
        <time>2022-06-10T14:35:38Z</time>
      </trkpt>
      <trkpt lat="48.6715" lon="-4.04636">
        <ele>36.5</ele>
        <time>2022-06-10T14:35:39Z</time>
      </trkpt>
      <trkpt lat="48.6715" lon="-4.04636">
        <ele>36.5</ele>
        <time>2022-06-10T14:35:40Z</time>
      </trkpt>
      <trkpt lat="48.6715" lon="-4.04636">
        <ele>36.5</ele>
        <time>2022-06-10T14:35:41Z</time>
      </trkpt>
      <trkpt lat="48.6715" lon="-4.04636">
        <ele>36.5</ele>
        <time>2022-06-10T14:35:42Z</time>
      </trkpt>
      <trkpt lat="48.6715" lon="-4.04635">
        <ele>36.5</ele>
        <time>2022-06-10T14:35:43Z</time>
      </trkpt>
      <trkpt lat="48.6715" lon="-4.04635">
        <ele>36.5</ele>
        <time>2022-06-10T14:35:44Z</time>
      </trkpt>
      <trkpt lat="48.6715" lon="-4.04635">
        <ele>36.5</ele>
        <time>2022-06-10T14:35:45Z</time>
      </trkpt>
      <trkpt lat="48.67151" lon="-4.04635">
        <ele>36.5</ele>
        <time>2022-06-10T14:35:46Z</time>
      </trkpt>
      <trkpt lat="48.67151" lon="-4.04635">
        <ele>36.5</ele>
        <time>2022-06-10T14:35:47Z</time>
      </trkpt>
      <trkpt lat="48.67151" lon="-4.04635">
        <ele>36.5</ele>
        <time>2022-06-10T14:35:48Z</time>
      </trkpt>
      <trkpt lat="48.67151" lon="-4.04634">
        <ele>36.5</ele>
        <time>2022-06-10T14:35:49Z</time>
      </trkpt>
      <trkpt lat="48.67151" lon="-4.04634">
        <ele>36.5</ele>
        <time>2022-06-10T14:35:50Z</time>
      </trkpt>
      <trkpt lat="48.67151" lon="-4.04634">
        <ele>36.5</ele>
        <time>2022-06-10T14:35:51Z</time>
      </trkpt>
      <trkpt lat="48.67151" lon="-4.04634">
        <ele>36.5</ele>
        <time>2022-06-10T14:35:52Z</time>
      </trkpt>
      <trkpt lat="48.67151" lon="-4.04634">
        <ele>36.5</ele>
        <time>2022-06-10T14:35:53Z</time>
      </trkpt>
      <trkpt lat="48.67151" lon="-4.04633">
        <ele>36.5</ele>
        <time>2022-06-10T14:35:54Z</time>
      </trkpt>
      <trkpt lat="48.67151" lon="-4.04633">
        <ele>36.5</ele>
        <time>2022-06-10T14:35:55Z</time>
      </trkpt>
      <trkpt lat="48.67151" lon="-4.04633">
        <ele>36.5</ele>
        <time>2022-06-10T14:35:56Z</time>
      </trkpt>
      <trkpt lat="48.67151" lon="-4.04633">
        <ele>36.5</ele>
        <time>2022-06-10T14:35:57Z</time>
      </trkpt>
      <trkpt lat="48.67151" lon="-4.04633">
        <ele>36.5</ele>
        <time>2022-06-10T14:35:58Z</time>
      </trkpt>
      <trkpt lat="48.67151" lon="-4.04632">
        <ele>36.5</ele>
        <time>2022-06-10T14:35:59Z</time>
      </trkpt>
      <trkpt lat="48.67152" lon="-4.04632">
        <ele>36.5</ele>
        <time>2022-06-10T14:36:00Z</time>
      </trkpt>
      <trkpt lat="48.67152" lon="-4.04632">
        <ele>36.5</ele>
        <time>2022-06-10T14:36:01Z</time>
      </trkpt>
      <trkpt lat="48.67152" lon="-4.04632">
        <ele>36.5</ele>
        <time>2022-06-10T14:36:02Z</time>
      </trkpt>
      <trkpt lat="48.67152" lon="-4.04632">
        <ele>36.5</ele>
        <time>2022-06-10T14:36:03Z</time>
      </trkpt>
      <trkpt lat="48.67152" lon="-4.04632">
        <ele>36.5</ele>
        <time>2022-06-10T14:36:04Z</time>
      </trkpt>
      <trkpt lat="48.67152" lon="-4.04631">
        <ele>36.5</ele>
        <time>2022-06-10T14:36:05Z</time>
      </trkpt>
      <trkpt lat="48.67152" lon="-4.04631">
        <ele>36.5</ele>
        <time>2022-06-10T14:36:06Z</time>
      </trkpt>
      <trkpt lat="48.67152" lon="-4.04631">
        <ele>36.5</ele>
        <time>2022-06-10T14:36:07Z</time>
      </trkpt>
      <trkpt lat="48.67152" lon="-4.04631">
        <ele>36.5</ele>
        <time>2022-06-10T14:36:08Z</time>
      </trkpt>
      <trkpt lat="48.67152" lon="-4.04631">
        <ele>36.5</ele>
        <time>2022-06-10T14:36:09Z</time>
      </trkpt>
      <trkpt lat="48.67152" lon="-4.0463">
        <ele>36.5</ele>
        <time>2022-06-10T14:36:10Z</time>
      </trkpt>
      <trkpt lat="48.67152" lon="-4.0463">
        <ele>36.5</ele>
        <time>2022-06-10T14:36:11Z</time>
      </trkpt>
      <trkpt lat="48.67152" lon="-4.0463">
        <ele>36.5</ele>
        <time>2022-06-10T14:36:12Z</time>
      </trkpt>
      <trkpt lat="48.67152" lon="-4.0463">
        <ele>36.5</ele>
        <time>2022-06-10T14:36:13Z</time>
      </trkpt>
      <trkpt lat="48.67152" lon="-4.0463">
        <ele>36.5</ele>
        <time>2022-06-10T14:36:14Z</time>
      </trkpt>
      <trkpt lat="48.67153" lon="-4.0463">
        <ele>36.5</ele>
        <time>2022-06-10T14:36:15Z</time>
      </trkpt>
      <trkpt lat="48.67153" lon="-4.04629">
        <ele>36.5</ele>
        <time>2022-06-10T14:36:16Z</time>
      </trkpt>
      <trkpt lat="48.6715" lon="-4.04631">
        <ele>36.5</ele>
        <time>2022-06-10T14:36:17Z</time>
      </trkpt>
      <trkpt lat="48.67148" lon="-4.04633">
        <ele>36.6</ele>
        <time>2022-06-10T14:36:18Z</time>
      </trkpt>
      <trkpt lat="48.67147" lon="-4.04634">
        <ele>36.6</ele>
        <time>2022-06-10T14:36:19Z</time>
      </trkpt>
      <trkpt lat="48.67148" lon="-4.04634">
        <ele>36.6</ele>
        <time>2022-06-10T14:36:20Z</time>
      </trkpt>
      <trkpt lat="48.67149" lon="-4.04633">
        <ele>36.6</ele>
        <time>2022-06-10T14:36:21Z</time>
      </trkpt>
      <trkpt lat="48.67149" lon="-4.04633">
        <ele>36.6</ele>
        <time>2022-06-10T14:36:22Z</time>
      </trkpt>
      <trkpt lat="48.67149" lon="-4.04632">
        <ele>36.6</ele>
        <time>2022-06-10T14:36:23Z</time>
      </trkpt>
      <trkpt lat="48.67149" lon="-4.0463">
        <ele>36.6</ele>
        <time>2022-06-10T14:36:25Z</time>
      </trkpt>
      <trkpt lat="48.67148" lon="-4.04629">
        <ele>36.6</ele>
        <time>2022-06-10T14:36:26Z</time>
      </trkpt>
      <trkpt lat="48.67148" lon="-4.04628">
        <ele>36.6</ele>
        <time>2022-06-10T14:36:27Z</time>
      </trkpt>
      <trkpt lat="48.67148" lon="-4.04627">
        <ele>36.6</ele>
        <time>2022-06-10T14:36:28Z</time>
      </trkpt>
      <trkpt lat="48.67149" lon="-4.04625">
        <ele>36.6</ele>
        <time>2022-06-10T14:36:29Z</time>
      </trkpt>
      <trkpt lat="48.67149" lon="-4.04623">
        <ele>36.6</ele>
        <time>2022-06-10T14:36:30Z</time>
      </trkpt>
      <trkpt lat="48.6715" lon="-4.04621">
        <ele>36.6</ele>
        <time>2022-06-10T14:36:31Z</time>
      </trkpt>
      <trkpt lat="48.67151" lon="-4.04618">
        <ele>36.6</ele>
        <time>2022-06-10T14:36:32Z</time>
      </trkpt>
      <trkpt lat="48.67151" lon="-4.04616">
        <ele>36.6</ele>
        <time>2022-06-10T14:36:33Z</time>
      </trkpt>
      <trkpt lat="48.67153" lon="-4.04613">
        <ele>36.6</ele>
        <time>2022-06-10T14:36:34Z</time>
      </trkpt>
      <trkpt lat="48.67153" lon="-4.0461">
        <ele>36.6</ele>
        <time>2022-06-10T14:36:36Z</time>
      </trkpt>
      <trkpt lat="48.67154" lon="-4.04608">
        <ele>36.6</ele>
        <time>2022-06-10T14:36:37Z</time>
      </trkpt>
      <trkpt lat="48.67154" lon="-4.04606">
        <ele>36.6</ele>
        <time>2022-06-10T14:36:38Z</time>
      </trkpt>
      <trkpt lat="48.67154" lon="-4.04605">
        <ele>36.6</ele>
        <time>2022-06-10T14:36:39Z</time>
      </trkpt>
      <trkpt lat="48.67154" lon="-4.04604">
        <ele>36.6</ele>
        <time>2022-06-10T14:36:40Z</time>
      </trkpt>
      <trkpt lat="48.67155" lon="-4.04603">
        <ele>36.6</ele>
        <time>2022-06-10T14:36:41Z</time>
      </trkpt>
      <trkpt lat="48.67155" lon="-4.04601">
        <ele>36.6</ele>
        <time>2022-06-10T14:36:42Z</time>
      </trkpt>
      <trkpt lat="48.67155" lon="-4.04601">
        <ele>36.6</ele>
        <time>2022-06-10T14:36:43Z</time>
      </trkpt>
      <trkpt lat="48.67156" lon="-4.04602">
        <ele>36.6</ele>
        <time>2022-06-10T14:36:44Z</time>
      </trkpt>
      <trkpt lat="48.67156" lon="-4.04605">
        <ele>36.6</ele>
        <time>2022-06-10T14:36:45Z</time>
      </trkpt>
      <trkpt lat="48.67156" lon="-4.04607">
        <ele>36.6</ele>
        <time>2022-06-10T14:36:46Z</time>
      </trkpt>
      <trkpt lat="48.67156" lon="-4.04608">
        <ele>36.6</ele>
        <time>2022-06-10T14:36:48Z</time>
      </trkpt>
      <trkpt lat="48.67156" lon="-4.04609">
        <ele>36.6</ele>
        <time>2022-06-10T14:36:49Z</time>
      </trkpt>
      <trkpt lat="48.67156" lon="-4.04609">
        <ele>36.6</ele>
        <time>2022-06-10T14:36:50Z</time>
      </trkpt>
      <trkpt lat="48.67156" lon="-4.04609">
        <ele>36.6</ele>
        <time>2022-06-10T14:36:51Z</time>
      </trkpt>
      <trkpt lat="48.67156" lon="-4.04609">
        <ele>36.6</ele>
        <time>2022-06-10T14:36:53Z</time>
      </trkpt>
      <trkpt lat="48.67156" lon="-4.04609">
        <ele>36.6</ele>
        <time>2022-06-10T14:36:54Z</time>
      </trkpt>
      <trkpt lat="48.67156" lon="-4.04609">
        <ele>36.6</ele>
        <time>2022-06-10T14:36:55Z</time>
      </trkpt>
      <trkpt lat="48.67156" lon="-4.04609">
        <ele>36.6</ele>
        <time>2022-06-10T14:36:56Z</time>
      </trkpt>
      <trkpt lat="48.67156" lon="-4.04609">
        <ele>36.6</ele>
        <time>2022-06-10T14:36:58Z</time>
      </trkpt>
      <trkpt lat="48.67156" lon="-4.04608">
        <ele>36.6</ele>
        <time>2022-06-10T14:36:59Z</time>
      </trkpt>
      <trkpt lat="48.67156" lon="-4.04608">
        <ele>36.6</ele>
        <time>2022-06-10T14:37:00Z</time>
      </trkpt>
      <trkpt lat="48.67156" lon="-4.04608">
        <ele>36.6</ele>
        <time>2022-06-10T14:37:01Z</time>
      </trkpt>
      <trkpt lat="48.67156" lon="-4.04609">
        <ele>36.6</ele>
        <time>2022-06-10T14:37:02Z</time>
      </trkpt>
      <trkpt lat="48.67155" lon="-4.0461">
        <ele>36.6</ele>
        <time>2022-06-10T14:37:03Z</time>
      </trkpt>
      <trkpt lat="48.67155" lon="-4.0461">
        <ele>36.6</ele>
        <time>2022-06-10T14:37:04Z</time>
      </trkpt>
      <trkpt lat="48.67155" lon="-4.0461">
        <ele>36.6</ele>
        <time>2022-06-10T14:37:05Z</time>
      </trkpt>
      <trkpt lat="48.67155" lon="-4.0461">
        <ele>36.6</ele>
        <time>2022-06-10T14:37:06Z</time>
      </trkpt>
      <trkpt lat="48.67155" lon="-4.0461">
        <ele>36.6</ele>
        <time>2022-06-10T14:37:07Z</time>
      </trkpt>
      <trkpt lat="48.67155" lon="-4.0461">
        <ele>36.6</ele>
        <time>2022-06-10T14:37:08Z</time>
      </trkpt>
      <trkpt lat="48.67155" lon="-4.0461">
        <ele>36.6</ele>
        <time>2022-06-10T14:37:09Z</time>
      </trkpt>
      <trkpt lat="48.67155" lon="-4.0461">
        <ele>36.6</ele>
        <time>2022-06-10T14:37:10Z</time>
      </trkpt>
      <trkpt lat="48.67155" lon="-4.0461">
        <ele>36.6</ele>
        <time>2022-06-10T14:37:11Z</time>
      </trkpt>
      <trkpt lat="48.67155" lon="-4.0461">
        <ele>36.6</ele>
        <time>2022-06-10T14:37:12Z</time>
      </trkpt>
      <trkpt lat="48.67155" lon="-4.0461">
        <ele>36.6</ele>
        <time>2022-06-10T14:37:13Z</time>
      </trkpt>
      <trkpt lat="48.67155" lon="-4.0461">
        <ele>36.6</ele>
        <time>2022-06-10T14:37:14Z</time>
      </trkpt>
      <trkpt lat="48.67155" lon="-4.0461">
        <ele>36.6</ele>
        <time>2022-06-10T14:37:15Z</time>
      </trkpt>
      <trkpt lat="48.67155" lon="-4.0461">
        <ele>36.6</ele>
        <time>2022-06-10T14:37:16Z</time>
      </trkpt>
      <trkpt lat="48.67155" lon="-4.0461">
        <ele>36.6</ele>
        <time>2022-06-10T14:37:17Z</time>
      </trkpt>
      <trkpt lat="48.67155" lon="-4.0461">
        <ele>36.6</ele>
        <time>2022-06-10T14:37:18Z</time>
      </trkpt>
      <trkpt lat="48.67155" lon="-4.0461">
        <ele>36.6</ele>
        <time>2022-06-10T14:37:19Z</time>
      </trkpt>
      <trkpt lat="48.67155" lon="-4.0461">
        <ele>36.6</ele>
        <time>2022-06-10T14:37:20Z</time>
      </trkpt>
      <trkpt lat="48.67155" lon="-4.0461">
        <ele>36.6</ele>
        <time>2022-06-10T14:37:21Z</time>
      </trkpt>
      <trkpt lat="48.67156" lon="-4.04608">
        <ele>36.6</ele>
        <time>2022-06-10T14:37:22Z</time>
      </trkpt>
      <trkpt lat="48.67156" lon="-4.04606">
        <ele>36.6</ele>
        <time>2022-06-10T14:37:23Z</time>
      </trkpt>
      <trkpt lat="48.67155" lon="-4.04607">
        <ele>36.6</ele>
        <time>2022-06-10T14:37:24Z</time>
      </trkpt>
      <trkpt lat="48.67154" lon="-4.04606">
        <ele>36.6</ele>
        <time>2022-06-10T14:37:25Z</time>
      </trkpt>
      <trkpt lat="48.67154" lon="-4.04605">
        <ele>36.6</ele>
        <time>2022-06-10T14:37:26Z</time>
      </trkpt>
      <trkpt lat="48.67154" lon="-4.04603">
        <ele>36.6</ele>
        <time>2022-06-10T14:37:27Z</time>
      </trkpt>
      <trkpt lat="48.67155" lon="-4.04602">
        <ele>36.5</ele>
        <time>2022-06-10T14:37:28Z</time>
      </trkpt>
      <trkpt lat="48.67156" lon="-4.04604">
        <ele>36.5</ele>
        <time>2022-06-10T14:37:29Z</time>
      </trkpt>
      <trkpt lat="48.67156" lon="-4.04604">
        <ele>36.5</ele>
        <time>2022-06-10T14:37:30Z</time>
      </trkpt>
      <trkpt lat="48.67156" lon="-4.04604">
        <ele>36.5</ele>
        <time>2022-06-10T14:37:31Z</time>
      </trkpt>
      <trkpt lat="48.67156" lon="-4.04603">
        <ele>36.5</ele>
        <time>2022-06-10T14:37:32Z</time>
      </trkpt>
      <trkpt lat="48.67156" lon="-4.04602">
        <ele>36.5</ele>
        <time>2022-06-10T14:37:34Z</time>
      </trkpt>
      <trkpt lat="48.67156" lon="-4.046">
        <ele>36.5</ele>
        <time>2022-06-10T14:37:35Z</time>
      </trkpt>
      <trkpt lat="48.67156" lon="-4.04599">
        <ele>36.5</ele>
        <time>2022-06-10T14:37:36Z</time>
      </trkpt>
      <trkpt lat="48.67156" lon="-4.04597">
        <ele>36.5</ele>
        <time>2022-06-10T14:37:37Z</time>
      </trkpt>
      <trkpt lat="48.67156" lon="-4.04595">
        <ele>36.5</ele>
        <time>2022-06-10T14:37:38Z</time>
      </trkpt>
      <trkpt lat="48.67156" lon="-4.04594">
        <ele>36.5</ele>
        <time>2022-06-10T14:37:40Z</time>
      </trkpt>
      <trkpt lat="48.67156" lon="-4.04592">
        <ele>36.5</ele>
        <time>2022-06-10T14:37:41Z</time>
      </trkpt>
      <trkpt lat="48.67156" lon="-4.04591">
        <ele>36.5</ele>
        <time>2022-06-10T14:37:42Z</time>
      </trkpt>
      <trkpt lat="48.67156" lon="-4.04589">
        <ele>36.5</ele>
        <time>2022-06-10T14:37:43Z</time>
      </trkpt>
      <trkpt lat="48.67156" lon="-4.04588">
        <ele>36.5</ele>
        <time>2022-06-10T14:37:44Z</time>
      </trkpt>
      <trkpt lat="48.67156" lon="-4.04586">
        <ele>36.5</ele>
        <time>2022-06-10T14:37:46Z</time>
      </trkpt>
      <trkpt lat="48.67157" lon="-4.04585">
        <ele>36.5</ele>
        <time>2022-06-10T14:37:47Z</time>
      </trkpt>
      <trkpt lat="48.67157" lon="-4.04583">
        <ele>36.5</ele>
        <time>2022-06-10T14:37:48Z</time>
      </trkpt>
      <trkpt lat="48.67157" lon="-4.04581">
        <ele>36.5</ele>
        <time>2022-06-10T14:37:49Z</time>
      </trkpt>
      <trkpt lat="48.67158" lon="-4.04579">
        <ele>36.5</ele>
        <time>2022-06-10T14:37:50Z</time>
      </trkpt>
      <trkpt lat="48.67158" lon="-4.04577">
        <ele>36.5</ele>
        <time>2022-06-10T14:37:52Z</time>
      </trkpt>
      <trkpt lat="48.67158" lon="-4.04576">
        <ele>36.5</ele>
        <time>2022-06-10T14:37:53Z</time>
      </trkpt>
      <trkpt lat="48.67158" lon="-4.04576">
        <ele>36.5</ele>
        <time>2022-06-10T14:37:54Z</time>
      </trkpt>
      <trkpt lat="48.67158" lon="-4.04575">
        <ele>36.5</ele>
        <time>2022-06-10T14:37:55Z</time>
      </trkpt>
      <trkpt lat="48.67158" lon="-4.04573">
        <ele>36.5</ele>
        <time>2022-06-10T14:37:56Z</time>
      </trkpt>
      <trkpt lat="48.67158" lon="-4.04571">
        <ele>36.5</ele>
        <time>2022-06-10T14:37:58Z</time>
      </trkpt>
      <trkpt lat="48.67159" lon="-4.04569">
        <ele>36.5</ele>
        <time>2022-06-10T14:37:59Z</time>
      </trkpt>
      <trkpt lat="48.67159" lon="-4.04567">
        <ele>36.5</ele>
        <time>2022-06-10T14:38:00Z</time>
      </trkpt>
      <trkpt lat="48.67159" lon="-4.04566">
        <ele>36.5</ele>
        <time>2022-06-10T14:38:01Z</time>
      </trkpt>
      <trkpt lat="48.67159" lon="-4.04564">
        <ele>36.5</ele>
        <time>2022-06-10T14:38:02Z</time>
      </trkpt>
      <trkpt lat="48.67159" lon="-4.04562">
        <ele>36.5</ele>
        <time>2022-06-10T14:38:03Z</time>
      </trkpt>
      <trkpt lat="48.67159" lon="-4.04561">
        <ele>36.5</ele>
        <time>2022-06-10T14:38:05Z</time>
      </trkpt>
      <trkpt lat="48.67159" lon="-4.04559">
        <ele>36.5</ele>
        <time>2022-06-10T14:38:06Z</time>
      </trkpt>
      <trkpt lat="48.6716" lon="-4.04557">
        <ele>36.5</ele>
        <time>2022-06-10T14:38:07Z</time>
      </trkpt>
      <trkpt lat="48.6716" lon="-4.04555">
        <ele>36.5</ele>
        <time>2022-06-10T14:38:08Z</time>
      </trkpt>
      <trkpt lat="48.6716" lon="-4.04551">
        <ele>36.5</ele>
        <time>2022-06-10T14:38:09Z</time>
      </trkpt>
      <trkpt lat="48.67161" lon="-4.0455">
        <ele>36.5</ele>
        <time>2022-06-10T14:38:10Z</time>
      </trkpt>
      <trkpt lat="48.67161" lon="-4.04546">
        <ele>36.5</ele>
        <time>2022-06-10T14:38:12Z</time>
      </trkpt>
      <trkpt lat="48.67161" lon="-4.04545">
        <ele>36.5</ele>
        <time>2022-06-10T14:38:13Z</time>
      </trkpt>
      <trkpt lat="48.67161" lon="-4.04544">
        <ele>36.5</ele>
        <time>2022-06-10T14:38:14Z</time>
      </trkpt>
      <trkpt lat="48.67161" lon="-4.0454">
        <ele>36.5</ele>
        <time>2022-06-10T14:38:15Z</time>
      </trkpt>
      <trkpt lat="48.67162" lon="-4.04539">
        <ele>36.5</ele>
        <time>2022-06-10T14:38:16Z</time>
      </trkpt>
      <trkpt lat="48.67162" lon="-4.04537">
        <ele>36.5</ele>
        <time>2022-06-10T14:38:17Z</time>
      </trkpt>
      <trkpt lat="48.67162" lon="-4.04535">
        <ele>36.5</ele>
        <time>2022-06-10T14:38:19Z</time>
      </trkpt>
      <trkpt lat="48.67163" lon="-4.04531">
        <ele>36.5</ele>
        <time>2022-06-10T14:38:20Z</time>
      </trkpt>
      <trkpt lat="48.67163" lon="-4.0453">
        <ele>36.5</ele>
        <time>2022-06-10T14:38:21Z</time>
      </trkpt>
      <trkpt lat="48.67163" lon="-4.04529">
        <ele>36.5</ele>
        <time>2022-06-10T14:38:22Z</time>
      </trkpt>
      <trkpt lat="48.67164" lon="-4.04527">
        <ele>36.5</ele>
        <time>2022-06-10T14:38:23Z</time>
      </trkpt>
      <trkpt lat="48.67165" lon="-4.04525">
        <ele>36.5</ele>
        <time>2022-06-10T14:38:25Z</time>
      </trkpt>
      <trkpt lat="48.67166" lon="-4.04523">
        <ele>36.5</ele>
        <time>2022-06-10T14:38:26Z</time>
      </trkpt>
      <trkpt lat="48.67167" lon="-4.04522">
        <ele>36.6</ele>
        <time>2022-06-10T14:38:27Z</time>
      </trkpt>
      <trkpt lat="48.6717" lon="-4.04512">
        <ele>36.6</ele>
        <time>2022-06-10T14:38:28Z</time>
      </trkpt>
      <trkpt lat="48.67172" lon="-4.04504">
        <ele>36.6</ele>
        <time>2022-06-10T14:38:29Z</time>
      </trkpt>
      <trkpt lat="48.67174" lon="-4.04496">
        <ele>36.7</ele>
        <time>2022-06-10T14:38:31Z</time>
      </trkpt>
      <trkpt lat="48.67176" lon="-4.04488">
        <ele>36.7</ele>
        <time>2022-06-10T14:40:07Z</time>
      </trkpt>
      <trkpt lat="48.67177" lon="-4.04479">
        <ele>36.8</ele>
        <time>2022-06-10T14:40:08Z</time>
      </trkpt>
      <trkpt lat="48.67179" lon="-4.04475">
        <ele>36.8</ele>
        <time>2022-06-10T14:40:09Z</time>
      </trkpt>
      <trkpt lat="48.6718" lon="-4.04473">
        <ele>36.8</ele>
        <time>2022-06-10T14:40:10Z</time>
      </trkpt>
      <trkpt lat="48.67182" lon="-4.04467">
        <ele>36.8</ele>
        <time>2022-06-10T14:40:11Z</time>
      </trkpt>
      <trkpt lat="48.67182" lon="-4.04466">
        <ele>36.8</ele>
        <time>2022-06-10T14:40:12Z</time>
      </trkpt>
      <trkpt lat="48.67184" lon="-4.04456">
        <ele>36.9</ele>
        <time>2022-06-10T14:40:13Z</time>
      </trkpt>
      <trkpt lat="48.67186" lon="-4.04447">
        <ele>37</ele>
        <time>2022-06-10T14:40:14Z</time>
      </trkpt>
      <trkpt lat="48.67187" lon="-4.0444">
        <ele>37.1</ele>
        <time>2022-06-10T14:40:15Z</time>
      </trkpt>
      <trkpt lat="48.67191" lon="-4.04425">
        <ele>37.2</ele>
        <time>2022-06-10T14:40:16Z</time>
      </trkpt>
      <trkpt lat="48.67192" lon="-4.04421">
        <ele>37.2</ele>
        <time>2022-06-10T14:40:17Z</time>
      </trkpt>
      <trkpt lat="48.67192" lon="-4.0442">
        <ele>37.2</ele>
        <time>2022-06-10T14:40:18Z</time>
      </trkpt>
      <trkpt lat="48.67192" lon="-4.0442">
        <ele>37.2</ele>
        <time>2022-06-10T14:40:19Z</time>
      </trkpt>
      <trkpt lat="48.67192" lon="-4.0442">
        <ele>37.2</ele>
        <time>2022-06-10T14:40:20Z</time>
      </trkpt>
      <trkpt lat="48.67192" lon="-4.0442">
        <ele>37.2</ele>
        <time>2022-06-10T14:40:21Z</time>
      </trkpt>
      <trkpt lat="48.67192" lon="-4.0442">
        <ele>37.2</ele>
        <time>2022-06-10T14:40:22Z</time>
      </trkpt>
      <trkpt lat="48.67192" lon="-4.0442">
        <ele>37.2</ele>
        <time>2022-06-10T14:40:23Z</time>
      </trkpt>
      <trkpt lat="48.67192" lon="-4.0442">
        <ele>37.2</ele>
        <time>2022-06-10T14:40:24Z</time>
      </trkpt>
      <trkpt lat="48.67192" lon="-4.0442">
        <ele>37.2</ele>
        <time>2022-06-10T14:40:25Z</time>
      </trkpt>
      <trkpt lat="48.67192" lon="-4.0442">
        <ele>37.2</ele>
        <time>2022-06-10T14:40:26Z</time>
      </trkpt>
      <trkpt lat="48.67192" lon="-4.0442">
        <ele>37.2</ele>
        <time>2022-06-10T14:40:27Z</time>
      </trkpt>
      <trkpt lat="48.67192" lon="-4.0442">
        <ele>37.2</ele>
        <time>2022-06-10T14:40:28Z</time>
      </trkpt>
      <trkpt lat="48.67192" lon="-4.0442">
        <ele>37.2</ele>
        <time>2022-06-10T14:40:29Z</time>
      </trkpt>
      <trkpt lat="48.67192" lon="-4.0442">
        <ele>37.2</ele>
        <time>2022-06-10T14:40:30Z</time>
      </trkpt>
      <trkpt lat="48.67192" lon="-4.0442">
        <ele>37.2</ele>
        <time>2022-06-10T14:40:31Z</time>
      </trkpt>
      <trkpt lat="48.67192" lon="-4.0442">
        <ele>37.2</ele>
        <time>2022-06-10T14:40:32Z</time>
      </trkpt>
      <trkpt lat="48.67192" lon="-4.0442">
        <ele>37.2</ele>
        <time>2022-06-10T14:40:33Z</time>
      </trkpt>
      <trkpt lat="48.67192" lon="-4.0442">
        <ele>37.2</ele>
        <time>2022-06-10T14:40:34Z</time>
      </trkpt>
      <trkpt lat="48.67192" lon="-4.0442">
        <ele>37.2</ele>
        <time>2022-06-10T14:40:35Z</time>
      </trkpt>
      <trkpt lat="48.67192" lon="-4.0442">
        <ele>37.2</ele>
        <time>2022-06-10T14:40:36Z</time>
      </trkpt>
      <trkpt lat="48.67192" lon="-4.0442">
        <ele>37.2</ele>
        <time>2022-06-10T14:40:37Z</time>
      </trkpt>
      <trkpt lat="48.67192" lon="-4.0442">
        <ele>37.2</ele>
        <time>2022-06-10T14:40:38Z</time>
      </trkpt>
      <trkpt lat="48.67192" lon="-4.0442">
        <ele>37.2</ele>
        <time>2022-06-10T14:40:39Z</time>
      </trkpt>
      <trkpt lat="48.67192" lon="-4.0442">
        <ele>37.2</ele>
        <time>2022-06-10T14:40:40Z</time>
      </trkpt>
      <trkpt lat="48.67192" lon="-4.0442">
        <ele>37.2</ele>
        <time>2022-06-10T14:40:41Z</time>
      </trkpt>
      <trkpt lat="48.67192" lon="-4.0442">
        <ele>37.2</ele>
        <time>2022-06-10T14:40:42Z</time>
      </trkpt>
      <trkpt lat="48.67192" lon="-4.0442">
        <ele>37.2</ele>
        <time>2022-06-10T14:40:43Z</time>
      </trkpt>
      <trkpt lat="48.67192" lon="-4.0442">
        <ele>37.2</ele>
        <time>2022-06-10T14:40:44Z</time>
      </trkpt>
      <trkpt lat="48.67192" lon="-4.0442">
        <ele>37.2</ele>
        <time>2022-06-10T14:40:45Z</time>
      </trkpt>
      <trkpt lat="48.67192" lon="-4.0442">
        <ele>37.2</ele>
        <time>2022-06-10T14:40:46Z</time>
      </trkpt>
      <trkpt lat="48.67192" lon="-4.0442">
        <ele>37.2</ele>
        <time>2022-06-10T14:40:47Z</time>
      </trkpt>
      <trkpt lat="48.67192" lon="-4.0442">
        <ele>37.2</ele>
        <time>2022-06-10T14:40:48Z</time>
      </trkpt>
      <trkpt lat="48.67192" lon="-4.0442">
        <ele>37.2</ele>
        <time>2022-06-10T14:40:49Z</time>
      </trkpt>
      <trkpt lat="48.67192" lon="-4.0442">
        <ele>37.2</ele>
        <time>2022-06-10T14:40:50Z</time>
      </trkpt>
      <trkpt lat="48.67192" lon="-4.0442">
        <ele>37.2</ele>
        <time>2022-06-10T14:40:51Z</time>
      </trkpt>
      <trkpt lat="48.67192" lon="-4.0442">
        <ele>37.2</ele>
        <time>2022-06-10T14:40:52Z</time>
      </trkpt>
      <trkpt lat="48.67192" lon="-4.0442">
        <ele>37.2</ele>
        <time>2022-06-10T14:40:53Z</time>
      </trkpt>
      <trkpt lat="48.67192" lon="-4.0442">
        <ele>37.2</ele>
        <time>2022-06-10T14:40:54Z</time>
      </trkpt>
      <trkpt lat="48.67192" lon="-4.0442">
        <ele>37.2</ele>
        <time>2022-06-10T14:40:55Z</time>
      </trkpt>
      <trkpt lat="48.67192" lon="-4.0442">
        <ele>37.2</ele>
        <time>2022-06-10T14:40:56Z</time>
      </trkpt>
      <trkpt lat="48.67192" lon="-4.0442">
        <ele>37.2</ele>
        <time>2022-06-10T14:40:57Z</time>
      </trkpt>
      <trkpt lat="48.67192" lon="-4.0442">
        <ele>37.2</ele>
        <time>2022-06-10T14:40:58Z</time>
      </trkpt>
      <trkpt lat="48.67192" lon="-4.0442">
        <ele>37.2</ele>
        <time>2022-06-10T14:40:59Z</time>
      </trkpt>
      <trkpt lat="48.67192" lon="-4.0442">
        <ele>37.2</ele>
        <time>2022-06-10T14:41:00Z</time>
      </trkpt>
      <trkpt lat="48.67192" lon="-4.0442">
        <ele>37.2</ele>
        <time>2022-06-10T14:41:01Z</time>
      </trkpt>
      <trkpt lat="48.67192" lon="-4.0442">
        <ele>37.2</ele>
        <time>2022-06-10T14:41:02Z</time>
      </trkpt>
      <trkpt lat="48.67192" lon="-4.0442">
        <ele>37.2</ele>
        <time>2022-06-10T14:41:03Z</time>
      </trkpt>
      <trkpt lat="48.67192" lon="-4.0442">
        <ele>37.2</ele>
        <time>2022-06-10T14:41:04Z</time>
      </trkpt>
      <trkpt lat="48.67192" lon="-4.0442">
        <ele>37.2</ele>
        <time>2022-06-10T14:41:05Z</time>
      </trkpt>
      <trkpt lat="48.67192" lon="-4.0442">
        <ele>37.2</ele>
        <time>2022-06-10T14:41:06Z</time>
      </trkpt>
      <trkpt lat="48.67192" lon="-4.0442">
        <ele>37.2</ele>
        <time>2022-06-10T14:41:07Z</time>
      </trkpt>
      <trkpt lat="48.67192" lon="-4.0442">
        <ele>37.2</ele>
        <time>2022-06-10T14:41:08Z</time>
      </trkpt>
      <trkpt lat="48.67192" lon="-4.0442">
        <ele>37.2</ele>
        <time>2022-06-10T14:41:09Z</time>
      </trkpt>
      <trkpt lat="48.67192" lon="-4.0442">
        <ele>37.2</ele>
        <time>2022-06-10T14:41:10Z</time>
      </trkpt>
      <trkpt lat="48.67192" lon="-4.0442">
        <ele>37.2</ele>
        <time>2022-06-10T14:41:11Z</time>
      </trkpt>
      <trkpt lat="48.67192" lon="-4.0442">
        <ele>37.2</ele>
        <time>2022-06-10T14:41:12Z</time>
      </trkpt>
      <trkpt lat="48.67192" lon="-4.0442">
        <ele>37.2</ele>
        <time>2022-06-10T14:41:13Z</time>
      </trkpt>
      <trkpt lat="48.67192" lon="-4.0442">
        <ele>37.2</ele>
        <time>2022-06-10T14:41:14Z</time>
      </trkpt>
      <trkpt lat="48.67192" lon="-4.0442">
        <ele>37.2</ele>
        <time>2022-06-10T14:41:15Z</time>
      </trkpt>
      <trkpt lat="48.67192" lon="-4.0442">
        <ele>37.2</ele>
        <time>2022-06-10T14:41:16Z</time>
      </trkpt>
      <trkpt lat="48.67192" lon="-4.0442">
        <ele>37.2</ele>
        <time>2022-06-10T14:41:17Z</time>
      </trkpt>
      <trkpt lat="48.67192" lon="-4.0442">
        <ele>37.2</ele>
        <time>2022-06-10T14:41:18Z</time>
      </trkpt>
      <trkpt lat="48.67192" lon="-4.0442">
        <ele>37.2</ele>
        <time>2022-06-10T14:41:19Z</time>
      </trkpt>
      <trkpt lat="48.67192" lon="-4.0442">
        <ele>37.2</ele>
        <time>2022-06-10T14:41:21Z</time>
      </trkpt>
      <trkpt lat="48.67192" lon="-4.0442">
        <ele>37.2</ele>
        <time>2022-06-10T14:41:22Z</time>
      </trkpt>
      <trkpt lat="48.67192" lon="-4.0442">
        <ele>37.2</ele>
        <time>2022-06-10T14:41:23Z</time>
      </trkpt>
      <trkpt lat="48.67191" lon="-4.04422">
        <ele>37.2</ele>
        <time>2022-06-10T14:41:24Z</time>
      </trkpt>
      <trkpt lat="48.67191" lon="-4.04422">
        <ele>37.2</ele>
        <time>2022-06-10T14:41:25Z</time>
      </trkpt>
      <trkpt lat="48.67191" lon="-4.04422">
        <ele>37.2</ele>
        <time>2022-06-10T14:41:26Z</time>
      </trkpt>
      <trkpt lat="48.67191" lon="-4.04421">
        <ele>37.2</ele>
        <time>2022-06-10T14:41:27Z</time>
      </trkpt>
      <trkpt lat="48.67191" lon="-4.04421">
        <ele>37.2</ele>
        <time>2022-06-10T14:41:28Z</time>
      </trkpt>
      <trkpt lat="48.67192" lon="-4.0442">
        <ele>37.2</ele>
        <time>2022-06-10T14:41:29Z</time>
      </trkpt>
      <trkpt lat="48.67192" lon="-4.0442">
        <ele>37.2</ele>
        <time>2022-06-10T14:41:30Z</time>
      </trkpt>
      <trkpt lat="48.67192" lon="-4.04419">
        <ele>37.3</ele>
        <time>2022-06-10T14:41:31Z</time>
      </trkpt>
      <trkpt lat="48.67193" lon="-4.04418">
        <ele>37.3</ele>
        <time>2022-06-10T14:41:32Z</time>
      </trkpt>
      <trkpt lat="48.67193" lon="-4.04417">
        <ele>37.3</ele>
        <time>2022-06-10T14:41:33Z</time>
      </trkpt>
      <trkpt lat="48.67194" lon="-4.04417">
        <ele>37.3</ele>
        <time>2022-06-10T14:41:35Z</time>
      </trkpt>
      <trkpt lat="48.67194" lon="-4.04416">
        <ele>37.3</ele>
        <time>2022-06-10T14:41:36Z</time>
      </trkpt>
      <trkpt lat="48.67195" lon="-4.04415">
        <ele>37.3</ele>
        <time>2022-06-10T14:41:37Z</time>
      </trkpt>
      <trkpt lat="48.67196" lon="-4.04413">
        <ele>37.3</ele>
        <time>2022-06-10T14:41:38Z</time>
      </trkpt>
      <trkpt lat="48.67198" lon="-4.04409">
        <ele>37.3</ele>
        <time>2022-06-10T14:41:39Z</time>
      </trkpt>
      <trkpt lat="48.67198" lon="-4.04409">
        <ele>37.3</ele>
        <time>2022-06-10T14:41:40Z</time>
      </trkpt>
      <trkpt lat="48.67198" lon="-4.04407">
        <ele>37.3</ele>
        <time>2022-06-10T14:41:41Z</time>
      </trkpt>
      <trkpt lat="48.67199" lon="-4.04404">
        <ele>37.3</ele>
        <time>2022-06-10T14:41:43Z</time>
      </trkpt>
      <trkpt lat="48.67198" lon="-4.04402">
        <ele>37.3</ele>
        <time>2022-06-10T14:41:45Z</time>
      </trkpt>
      <trkpt lat="48.67198" lon="-4.04401">
        <ele>37.3</ele>
        <time>2022-06-10T14:41:46Z</time>
      </trkpt>
      <trkpt lat="48.67197" lon="-4.044">
        <ele>37.3</ele>
        <time>2022-06-10T14:41:47Z</time>
      </trkpt>
      <trkpt lat="48.67197" lon="-4.04398">
        <ele>37.3</ele>
        <time>2022-06-10T14:41:48Z</time>
      </trkpt>
      <trkpt lat="48.67196" lon="-4.04395">
        <ele>37.3</ele>
        <time>2022-06-10T14:41:49Z</time>
      </trkpt>
      <trkpt lat="48.67197" lon="-4.04394">
        <ele>37.3</ele>
        <time>2022-06-10T14:41:50Z</time>
      </trkpt>
      <trkpt lat="48.67198" lon="-4.04393">
        <ele>37.3</ele>
        <time>2022-06-10T14:41:52Z</time>
      </trkpt>
      <trkpt lat="48.67198" lon="-4.04392">
        <ele>37.3</ele>
        <time>2022-06-10T14:41:53Z</time>
      </trkpt>
      <trkpt lat="48.67199" lon="-4.04391">
        <ele>37.3</ele>
        <time>2022-06-10T14:41:54Z</time>
      </trkpt>
      <trkpt lat="48.672" lon="-4.0439">
        <ele>37.3</ele>
        <time>2022-06-10T14:41:56Z</time>
      </trkpt>
      <trkpt lat="48.67201" lon="-4.04389">
        <ele>37.3</ele>
        <time>2022-06-10T14:41:57Z</time>
      </trkpt>
      <trkpt lat="48.67201" lon="-4.04388">
        <ele>37.3</ele>
        <time>2022-06-10T14:41:58Z</time>
      </trkpt>
      <trkpt lat="48.67202" lon="-4.04388">
        <ele>37.3</ele>
        <time>2022-06-10T14:41:59Z</time>
      </trkpt>
      <trkpt lat="48.67203" lon="-4.04387">
        <ele>37.3</ele>
        <time>2022-06-10T14:42:00Z</time>
      </trkpt>
      <trkpt lat="48.67204" lon="-4.04386">
        <ele>37.3</ele>
        <time>2022-06-10T14:42:01Z</time>
      </trkpt>
      <trkpt lat="48.67205" lon="-4.04386">
        <ele>37.2</ele>
        <time>2022-06-10T14:42:03Z</time>
      </trkpt>
      <trkpt lat="48.67205" lon="-4.04385">
        <ele>37.2</ele>
        <time>2022-06-10T14:42:04Z</time>
      </trkpt>
      <trkpt lat="48.67206" lon="-4.04384">
        <ele>37.2</ele>
        <time>2022-06-10T14:42:05Z</time>
      </trkpt>
      <trkpt lat="48.67206" lon="-4.04383">
        <ele>37.2</ele>
        <time>2022-06-10T14:42:06Z</time>
      </trkpt>
      <trkpt lat="48.67207" lon="-4.04381">
        <ele>37.2</ele>
        <time>2022-06-10T14:42:07Z</time>
      </trkpt>
      <trkpt lat="48.67208" lon="-4.04379">
        <ele>37.2</ele>
        <time>2022-06-10T14:42:08Z</time>
      </trkpt>
      <trkpt lat="48.67208" lon="-4.04378">
        <ele>37.2</ele>
        <time>2022-06-10T14:42:09Z</time>
      </trkpt>
      <trkpt lat="48.67209" lon="-4.04377">
        <ele>37.2</ele>
        <time>2022-06-10T14:42:10Z</time>
      </trkpt>
      <trkpt lat="48.6721" lon="-4.04375">
        <ele>37.2</ele>
        <time>2022-06-10T14:42:12Z</time>
      </trkpt>
      <trkpt lat="48.67211" lon="-4.04373">
        <ele>37.2</ele>
        <time>2022-06-10T14:42:13Z</time>
      </trkpt>
      <trkpt lat="48.67212" lon="-4.04371">
        <ele>37.2</ele>
        <time>2022-06-10T14:42:14Z</time>
      </trkpt>
      <trkpt lat="48.67213" lon="-4.04369">
        <ele>37.2</ele>
        <time>2022-06-10T14:42:15Z</time>
      </trkpt>
      <trkpt lat="48.67214" lon="-4.04367">
        <ele>37.2</ele>
        <time>2022-06-10T14:42:16Z</time>
      </trkpt>
      <trkpt lat="48.67215" lon="-4.04365">
        <ele>37.2</ele>
        <time>2022-06-10T14:42:18Z</time>
      </trkpt>
      <trkpt lat="48.67216" lon="-4.04364">
        <ele>37.2</ele>
        <time>2022-06-10T14:42:19Z</time>
      </trkpt>
      <trkpt lat="48.67216" lon="-4.04363">
        <ele>37.2</ele>
        <time>2022-06-10T14:42:20Z</time>
      </trkpt>
      <trkpt lat="48.67217" lon="-4.04362">
        <ele>37.2</ele>
        <time>2022-06-10T14:42:21Z</time>
      </trkpt>
      <trkpt lat="48.67221" lon="-4.04353">
        <ele>37.2</ele>
        <time>2022-06-10T14:42:23Z</time>
      </trkpt>
      <trkpt lat="48.67224" lon="-4.04345">
        <ele>37.2</ele>
        <time>2022-06-10T14:42:31Z</time>
      </trkpt>
      <trkpt lat="48.67227" lon="-4.04337">
        <ele>37.2</ele>
        <time>2022-06-10T14:42:32Z</time>
      </trkpt>
      <trkpt lat="48.6723" lon="-4.0433">
        <ele>37.2</ele>
        <time>2022-06-10T14:42:33Z</time>
      </trkpt>
      <trkpt lat="48.67233" lon="-4.04322">
        <ele>37.2</ele>
        <time>2022-06-10T14:42:34Z</time>
      </trkpt>
      <trkpt lat="48.67236" lon="-4.04314">
        <ele>37.3</ele>
        <time>2022-06-10T14:45:36Z</time>
      </trkpt>
      <trkpt lat="48.67239" lon="-4.04306">
        <ele>37.3</ele>
        <time>2022-06-10T14:45:38Z</time>
      </trkpt>
      <trkpt lat="48.67242" lon="-4.04298">
        <ele>37.3</ele>
        <time>2022-06-10T14:45:39Z</time>
      </trkpt>
      <trkpt lat="48.67248" lon="-4.04283">
        <ele>37.4</ele>
        <time>2022-06-10T14:45:40Z</time>
      </trkpt>
      <trkpt lat="48.67253" lon="-4.04271">
        <ele>37.4</ele>
        <time>2022-06-10T14:45:41Z</time>
      </trkpt>
      <trkpt lat="48.67257" lon="-4.04259">
        <ele>37.5</ele>
        <time>2022-06-10T14:45:42Z</time>
      </trkpt>
      <trkpt lat="48.67261" lon="-4.04247">
        <ele>37.6</ele>
        <time>2022-06-10T14:45:43Z</time>
      </trkpt>
      <trkpt lat="48.67265" lon="-4.04236">
        <ele>37.7</ele>
        <time>2022-06-10T14:45:44Z</time>
      </trkpt>
      <trkpt lat="48.67269" lon="-4.04225">
        <ele>37.7</ele>
        <time>2022-06-10T14:45:45Z</time>
      </trkpt>
      <trkpt lat="48.67273" lon="-4.04214">
        <ele>37.8</ele>
        <time>2022-06-10T14:45:46Z</time>
      </trkpt>
      <trkpt lat="48.67276" lon="-4.04203">
        <ele>37.8</ele>
        <time>2022-06-10T14:45:47Z</time>
      </trkpt>
      <trkpt lat="48.67278" lon="-4.04198">
        <ele>37.8</ele>
        <time>2022-06-10T14:45:48Z</time>
      </trkpt>
      <trkpt lat="48.67278" lon="-4.04197">
        <ele>37.8</ele>
        <time>2022-06-10T14:45:49Z</time>
      </trkpt>
      <trkpt lat="48.67278" lon="-4.04197">
        <ele>37.8</ele>
        <time>2022-06-10T14:45:50Z</time>
      </trkpt>
      <trkpt lat="48.67278" lon="-4.04197">
        <ele>37.8</ele>
        <time>2022-06-10T14:45:52Z</time>
      </trkpt>
      <trkpt lat="48.67278" lon="-4.04197">
        <ele>37.8</ele>
        <time>2022-06-10T14:45:53Z</time>
      </trkpt>
      <trkpt lat="48.67278" lon="-4.04197">
        <ele>37.8</ele>
        <time>2022-06-10T14:45:54Z</time>
      </trkpt>
      <trkpt lat="48.67278" lon="-4.04196">
        <ele>37.8</ele>
        <time>2022-06-10T14:45:55Z</time>
      </trkpt>
      <trkpt lat="48.67278" lon="-4.04196">
        <ele>37.8</ele>
        <time>2022-06-10T14:45:56Z</time>
      </trkpt>
      <trkpt lat="48.67279" lon="-4.04196">
        <ele>37.8</ele>
        <time>2022-06-10T14:45:57Z</time>
      </trkpt>
      <trkpt lat="48.67279" lon="-4.04196">
        <ele>37.8</ele>
        <time>2022-06-10T14:45:58Z</time>
      </trkpt>
      <trkpt lat="48.67279" lon="-4.04196">
        <ele>37.8</ele>
        <time>2022-06-10T14:46:00Z</time>
      </trkpt>
      <trkpt lat="48.67279" lon="-4.04196">
        <ele>37.8</ele>
        <time>2022-06-10T14:46:01Z</time>
      </trkpt>
      <trkpt lat="48.67279" lon="-4.04196">
        <ele>37.8</ele>
        <time>2022-06-10T14:46:02Z</time>
      </trkpt>
      <trkpt lat="48.67279" lon="-4.04196">
        <ele>37.8</ele>
        <time>2022-06-10T14:46:03Z</time>
      </trkpt>
      <trkpt lat="48.67279" lon="-4.04196">
        <ele>37.8</ele>
        <time>2022-06-10T14:46:04Z</time>
      </trkpt>
      <trkpt lat="48.67279" lon="-4.04196">
        <ele>37.8</ele>
        <time>2022-06-10T14:46:05Z</time>
      </trkpt>
      <trkpt lat="48.67279" lon="-4.04196">
        <ele>37.8</ele>
        <time>2022-06-10T14:46:06Z</time>
      </trkpt>
      <trkpt lat="48.67279" lon="-4.04196">
        <ele>37.8</ele>
        <time>2022-06-10T14:46:07Z</time>
      </trkpt>
      <trkpt lat="48.67279" lon="-4.04196">
        <ele>37.8</ele>
        <time>2022-06-10T14:46:08Z</time>
      </trkpt>
      <trkpt lat="48.67279" lon="-4.04196">
        <ele>37.8</ele>
        <time>2022-06-10T14:46:09Z</time>
      </trkpt>
      <trkpt lat="48.67279" lon="-4.04196">
        <ele>37.8</ele>
        <time>2022-06-10T14:46:10Z</time>
      </trkpt>
      <trkpt lat="48.67279" lon="-4.04196">
        <ele>37.8</ele>
        <time>2022-06-10T14:46:11Z</time>
      </trkpt>
      <trkpt lat="48.67279" lon="-4.04196">
        <ele>37.8</ele>
        <time>2022-06-10T14:46:12Z</time>
      </trkpt>
      <trkpt lat="48.67279" lon="-4.04196">
        <ele>37.8</ele>
        <time>2022-06-10T14:46:14Z</time>
      </trkpt>
      <trkpt lat="48.67279" lon="-4.04197">
        <ele>37.8</ele>
        <time>2022-06-10T14:46:15Z</time>
      </trkpt>
      <trkpt lat="48.67279" lon="-4.04197">
        <ele>37.8</ele>
        <time>2022-06-10T14:46:16Z</time>
      </trkpt>
      <trkpt lat="48.67279" lon="-4.04196">
        <ele>37.8</ele>
        <time>2022-06-10T14:46:17Z</time>
      </trkpt>
      <trkpt lat="48.6728" lon="-4.04195">
        <ele>37.8</ele>
        <time>2022-06-10T14:46:18Z</time>
      </trkpt>
      <trkpt lat="48.67282" lon="-4.04193">
        <ele>37.8</ele>
        <time>2022-06-10T14:46:19Z</time>
      </trkpt>
      <trkpt lat="48.67283" lon="-4.04192">
        <ele>37.9</ele>
        <time>2022-06-10T14:46:20Z</time>
      </trkpt>
      <trkpt lat="48.67285" lon="-4.04191">
        <ele>37.7</ele>
        <time>2022-06-10T14:46:21Z</time>
      </trkpt>
      <trkpt lat="48.67286" lon="-4.04191">
        <ele>37.7</ele>
        <time>2022-06-10T14:46:23Z</time>
      </trkpt>
      <trkpt lat="48.67288" lon="-4.04191">
        <ele>37.7</ele>
        <time>2022-06-10T14:46:24Z</time>
      </trkpt>
      <trkpt lat="48.67289" lon="-4.04191">
        <ele>37.7</ele>
        <time>2022-06-10T14:46:25Z</time>
      </trkpt>
      <trkpt lat="48.6729" lon="-4.04191">
        <ele>37.7</ele>
        <time>2022-06-10T14:46:26Z</time>
      </trkpt>
      <trkpt lat="48.6729" lon="-4.04191">
        <ele>37.7</ele>
        <time>2022-06-10T14:46:27Z</time>
      </trkpt>
      <trkpt lat="48.67291" lon="-4.04192">
        <ele>37.7</ele>
        <time>2022-06-10T14:46:28Z</time>
      </trkpt>
      <trkpt lat="48.67291" lon="-4.04193">
        <ele>37.7</ele>
        <time>2022-06-10T14:46:29Z</time>
      </trkpt>
      <trkpt lat="48.67291" lon="-4.04193">
        <ele>37.7</ele>
        <time>2022-06-10T14:46:30Z</time>
      </trkpt>
      <trkpt lat="48.6729" lon="-4.04193">
        <ele>37.7</ele>
        <time>2022-06-10T14:46:31Z</time>
      </trkpt>
      <trkpt lat="48.67289" lon="-4.04193">
        <ele>37.7</ele>
        <time>2022-06-10T14:46:32Z</time>
      </trkpt>
      <trkpt lat="48.67289" lon="-4.04193">
        <ele>37.7</ele>
        <time>2022-06-10T14:46:33Z</time>
      </trkpt>
      <trkpt lat="48.67289" lon="-4.04193">
        <ele>37.7</ele>
        <time>2022-06-10T14:46:34Z</time>
      </trkpt>
      <trkpt lat="48.67289" lon="-4.04194">
        <ele>37.7</ele>
        <time>2022-06-10T14:46:36Z</time>
      </trkpt>
      <trkpt lat="48.67289" lon="-4.04194">
        <ele>37.7</ele>
        <time>2022-06-10T14:46:37Z</time>
      </trkpt>
      <trkpt lat="48.67289" lon="-4.04195">
        <ele>37.7</ele>
        <time>2022-06-10T14:46:38Z</time>
      </trkpt>
      <trkpt lat="48.67289" lon="-4.04196">
        <ele>37.7</ele>
        <time>2022-06-10T14:46:39Z</time>
      </trkpt>
      <trkpt lat="48.6729" lon="-4.04197">
        <ele>37.7</ele>
        <time>2022-06-10T14:46:40Z</time>
      </trkpt>
      <trkpt lat="48.67291" lon="-4.04199">
        <ele>37.7</ele>
        <time>2022-06-10T14:46:41Z</time>
      </trkpt>
      <trkpt lat="48.67291" lon="-4.042">
        <ele>37.6</ele>
        <time>2022-06-10T14:46:43Z</time>
      </trkpt>
      <trkpt lat="48.67292" lon="-4.04203">
        <ele>37.6</ele>
        <time>2022-06-10T14:46:44Z</time>
      </trkpt>
      <trkpt lat="48.67292" lon="-4.04204">
        <ele>37.6</ele>
        <time>2022-06-10T14:46:45Z</time>
      </trkpt>
      <trkpt lat="48.67292" lon="-4.04205">
        <ele>37.6</ele>
        <time>2022-06-10T14:46:47Z</time>
      </trkpt>
      <trkpt lat="48.67292" lon="-4.04206">
        <ele>37.6</ele>
        <time>2022-06-10T14:46:48Z</time>
      </trkpt>
      <trkpt lat="48.67292" lon="-4.04208">
        <ele>37.6</ele>
        <time>2022-06-10T14:46:49Z</time>
      </trkpt>
      <trkpt lat="48.67292" lon="-4.04208">
        <ele>37.6</ele>
        <time>2022-06-10T14:46:50Z</time>
      </trkpt>
      <trkpt lat="48.67292" lon="-4.04208">
        <ele>37.6</ele>
        <time>2022-06-10T14:46:51Z</time>
      </trkpt>
      <trkpt lat="48.67291" lon="-4.04207">
        <ele>37.6</ele>
        <time>2022-06-10T14:46:52Z</time>
      </trkpt>
      <trkpt lat="48.67291" lon="-4.04207">
        <ele>37.6</ele>
        <time>2022-06-10T14:46:53Z</time>
      </trkpt>
      <trkpt lat="48.67291" lon="-4.04206">
        <ele>37.6</ele>
        <time>2022-06-10T14:46:54Z</time>
      </trkpt>
      <trkpt lat="48.67291" lon="-4.04206">
        <ele>37.6</ele>
        <time>2022-06-10T14:46:55Z</time>
      </trkpt>
      <trkpt lat="48.67291" lon="-4.04206">
        <ele>37.6</ele>
        <time>2022-06-10T14:46:56Z</time>
      </trkpt>
      <trkpt lat="48.6729" lon="-4.04207">
        <ele>37.6</ele>
        <time>2022-06-10T14:46:57Z</time>
      </trkpt>
      <trkpt lat="48.6729" lon="-4.04206">
        <ele>37.6</ele>
        <time>2022-06-10T14:46:58Z</time>
      </trkpt>
      <trkpt lat="48.6729" lon="-4.04207">
        <ele>37.6</ele>
        <time>2022-06-10T14:46:59Z</time>
      </trkpt>
      <trkpt lat="48.6729" lon="-4.04207">
        <ele>37.6</ele>
        <time>2022-06-10T14:47:00Z</time>
      </trkpt>
      <trkpt lat="48.6729" lon="-4.04207">
        <ele>37.6</ele>
        <time>2022-06-10T14:47:01Z</time>
      </trkpt>
      <trkpt lat="48.67289" lon="-4.04206">
        <ele>37.6</ele>
        <time>2022-06-10T14:47:02Z</time>
      </trkpt>
      <trkpt lat="48.67289" lon="-4.04206">
        <ele>37.6</ele>
        <time>2022-06-10T14:47:03Z</time>
      </trkpt>
      <trkpt lat="48.67289" lon="-4.04205">
        <ele>37.6</ele>
        <time>2022-06-10T14:47:04Z</time>
      </trkpt>
      <trkpt lat="48.67289" lon="-4.04205">
        <ele>37.6</ele>
        <time>2022-06-10T14:47:05Z</time>
      </trkpt>
      <trkpt lat="48.67289" lon="-4.04205">
        <ele>37.6</ele>
        <time>2022-06-10T14:47:06Z</time>
      </trkpt>
      <trkpt lat="48.67289" lon="-4.04205">
        <ele>37.6</ele>
        <time>2022-06-10T14:47:07Z</time>
      </trkpt>
      <trkpt lat="48.67289" lon="-4.04202">
        <ele>37.6</ele>
        <time>2022-06-10T14:47:08Z</time>
      </trkpt>
      <trkpt lat="48.67289" lon="-4.042">
        <ele>37.6</ele>
        <time>2022-06-10T14:47:09Z</time>
      </trkpt>
      <trkpt lat="48.6729" lon="-4.042">
        <ele>37.6</ele>
        <time>2022-06-10T14:47:10Z</time>
      </trkpt>
      <trkpt lat="48.6729" lon="-4.04199">
        <ele>37.6</ele>
        <time>2022-06-10T14:47:11Z</time>
      </trkpt>
      <trkpt lat="48.6729" lon="-4.04199">
        <ele>37.6</ele>
        <time>2022-06-10T14:47:12Z</time>
      </trkpt>
      <trkpt lat="48.6729" lon="-4.04199">
        <ele>37.6</ele>
        <time>2022-06-10T14:47:14Z</time>
      </trkpt>
      <trkpt lat="48.67675" lon="-4.04078">
        <ele>34.5</ele>
        <time>2022-06-10T14:59:42Z</time>
      </trkpt>
      <trkpt lat="48.67663" lon="-4.04089">
        <ele>35</ele>
        <time>2022-06-10T14:59:43Z</time>
      </trkpt>
      <trkpt lat="48.67648" lon="-4.04089">
        <ele>35.1</ele>
        <time>2022-06-10T14:59:44Z</time>
      </trkpt>
      <trkpt lat="48.67639" lon="-4.04089">
        <ele>35.3</ele>
        <time>2022-06-10T14:59:45Z</time>
      </trkpt>
      <trkpt lat="48.67633" lon="-4.04089">
        <ele>35.3</ele>
        <time>2022-06-10T14:59:46Z</time>
      </trkpt>
      <trkpt lat="48.67628" lon="-4.04089">
        <ele>35.4</ele>
        <time>2022-06-10T14:59:47Z</time>
      </trkpt>
      <trkpt lat="48.67625" lon="-4.04088">
        <ele>35.4</ele>
        <time>2022-06-10T14:59:48Z</time>
      </trkpt>
      <trkpt lat="48.67623" lon="-4.04088">
        <ele>35.5</ele>
        <time>2022-06-10T14:59:49Z</time>
      </trkpt>
      <trkpt lat="48.67622" lon="-4.04088">
        <ele>35.5</ele>
        <time>2022-06-10T14:59:50Z</time>
      </trkpt>
      <trkpt lat="48.67622" lon="-4.04088">
        <ele>35.5</ele>
        <time>2022-06-10T14:59:51Z</time>
      </trkpt>
      <trkpt lat="48.67622" lon="-4.04088">
        <ele>35.5</ele>
        <time>2022-06-10T14:59:52Z</time>
      </trkpt>
      <trkpt lat="48.67622" lon="-4.04088">
        <ele>35.5</ele>
        <time>2022-06-10T14:59:53Z</time>
      </trkpt>
      <trkpt lat="48.67623" lon="-4.04088">
        <ele>35.5</ele>
        <time>2022-06-10T14:59:54Z</time>
      </trkpt>
      <trkpt lat="48.67623" lon="-4.04088">
        <ele>35.5</ele>
        <time>2022-06-10T14:59:55Z</time>
      </trkpt>
      <trkpt lat="48.67623" lon="-4.04088">
        <ele>35.5</ele>
        <time>2022-06-10T14:59:56Z</time>
      </trkpt>
      <trkpt lat="48.67623" lon="-4.04088">
        <ele>35.5</ele>
        <time>2022-06-10T14:59:57Z</time>
      </trkpt>
      <trkpt lat="48.67623" lon="-4.04088">
        <ele>35.5</ele>
        <time>2022-06-10T14:59:58Z</time>
      </trkpt>
      <trkpt lat="48.67623" lon="-4.04088">
        <ele>35.5</ele>
        <time>2022-06-10T14:59:59Z</time>
      </trkpt>
      <trkpt lat="48.67623" lon="-4.04088">
        <ele>35.5</ele>
        <time>2022-06-10T15:00:00Z</time>
      </trkpt>
      <trkpt lat="48.67623" lon="-4.04088">
        <ele>35.5</ele>
        <time>2022-06-10T15:00:01Z</time>
      </trkpt>
      <trkpt lat="48.67624" lon="-4.04088">
        <ele>35.5</ele>
        <time>2022-06-10T15:00:02Z</time>
      </trkpt>
      <trkpt lat="48.67624" lon="-4.04087">
        <ele>35.5</ele>
        <time>2022-06-10T15:00:03Z</time>
      </trkpt>
      <trkpt lat="48.67624" lon="-4.04087">
        <ele>35.5</ele>
        <time>2022-06-10T15:00:04Z</time>
      </trkpt>
      <trkpt lat="48.67624" lon="-4.04087">
        <ele>35.5</ele>
        <time>2022-06-10T15:00:05Z</time>
      </trkpt>
      <trkpt lat="48.67624" lon="-4.04087">
        <ele>35.5</ele>
        <time>2022-06-10T15:00:06Z</time>
      </trkpt>
      <trkpt lat="48.67624" lon="-4.04087">
        <ele>35.5</ele>
        <time>2022-06-10T15:00:07Z</time>
      </trkpt>
      <trkpt lat="48.67624" lon="-4.04087">
        <ele>35.5</ele>
        <time>2022-06-10T15:00:08Z</time>
      </trkpt>
      <trkpt lat="48.67624" lon="-4.04087">
        <ele>35.5</ele>
        <time>2022-06-10T15:00:09Z</time>
      </trkpt>
      <trkpt lat="48.67624" lon="-4.04087">
        <ele>35.5</ele>
        <time>2022-06-10T15:00:10Z</time>
      </trkpt>
      <trkpt lat="48.67625" lon="-4.04087">
        <ele>35.5</ele>
        <time>2022-06-10T15:00:11Z</time>
      </trkpt>
      <trkpt lat="48.67625" lon="-4.04087">
        <ele>35.5</ele>
        <time>2022-06-10T15:00:12Z</time>
      </trkpt>
      <trkpt lat="48.67625" lon="-4.04087">
        <ele>35.5</ele>
        <time>2022-06-10T15:00:14Z</time>
      </trkpt>
      <trkpt lat="48.67625" lon="-4.04087">
        <ele>35.5</ele>
        <time>2022-06-10T15:00:15Z</time>
      </trkpt>
      <trkpt lat="48.67625" lon="-4.04087">
        <ele>35.5</ele>
        <time>2022-06-10T15:00:16Z</time>
      </trkpt>
      <trkpt lat="48.67625" lon="-4.04087">
        <ele>35.5</ele>
        <time>2022-06-10T15:00:17Z</time>
      </trkpt>
      <trkpt lat="48.67625" lon="-4.04087">
        <ele>35.5</ele>
        <time>2022-06-10T15:00:19Z</time>
      </trkpt>
      <trkpt lat="48.67625" lon="-4.04087">
        <ele>35.5</ele>
        <time>2022-06-10T15:00:20Z</time>
      </trkpt>
      <trkpt lat="48.67626" lon="-4.04086">
        <ele>35.5</ele>
        <time>2022-06-10T15:00:21Z</time>
      </trkpt>
      <trkpt lat="48.67626" lon="-4.04086">
        <ele>35.5</ele>
        <time>2022-06-10T15:00:22Z</time>
      </trkpt>
      <trkpt lat="48.67626" lon="-4.04086">
        <ele>35.5</ele>
        <time>2022-06-10T15:00:24Z</time>
      </trkpt>
      <trkpt lat="48.67626" lon="-4.04086">
        <ele>35.5</ele>
        <time>2022-06-10T15:00:25Z</time>
      </trkpt>
      <trkpt lat="48.67626" lon="-4.04086">
        <ele>35.6</ele>
        <time>2022-06-10T15:00:26Z</time>
      </trkpt>
      <trkpt lat="48.67628" lon="-4.04085">
        <ele>35.6</ele>
        <time>2022-06-10T15:00:27Z</time>
      </trkpt>
      <trkpt lat="48.6763" lon="-4.04085">
        <ele>35.6</ele>
        <time>2022-06-10T15:00:28Z</time>
      </trkpt>
      <trkpt lat="48.67632" lon="-4.04084">
        <ele>35.6</ele>
        <time>2022-06-10T15:00:30Z</time>
      </trkpt>
      <trkpt lat="48.67633" lon="-4.04084">
        <ele>35.7</ele>
        <time>2022-06-10T15:00:31Z</time>
      </trkpt>
      <trkpt lat="48.67634" lon="-4.04084">
        <ele>35.7</ele>
        <time>2022-06-10T15:00:32Z</time>
      </trkpt>
      <trkpt lat="48.67635" lon="-4.04083">
        <ele>35.7</ele>
        <time>2022-06-10T15:00:33Z</time>
      </trkpt>
      <trkpt lat="48.67637" lon="-4.04082">
        <ele>35.6</ele>
        <time>2022-06-10T15:00:34Z</time>
      </trkpt>
      <trkpt lat="48.67638" lon="-4.04081">
        <ele>35.6</ele>
        <time>2022-06-10T15:00:35Z</time>
      </trkpt>
      <trkpt lat="48.67639" lon="-4.04081">
        <ele>35.6</ele>
        <time>2022-06-10T15:00:37Z</time>
      </trkpt>
      <trkpt lat="48.6764" lon="-4.0408">
        <ele>35.5</ele>
        <time>2022-06-10T15:00:38Z</time>
      </trkpt>
      <trkpt lat="48.6764" lon="-4.0408">
        <ele>35.5</ele>
        <time>2022-06-10T15:00:39Z</time>
      </trkpt>
      <trkpt lat="48.67641" lon="-4.04079">
        <ele>35.5</ele>
        <time>2022-06-10T15:00:40Z</time>
      </trkpt>
      <trkpt lat="48.67642" lon="-4.04078">
        <ele>35.4</ele>
        <time>2022-06-10T15:00:41Z</time>
      </trkpt>
      <trkpt lat="48.67643" lon="-4.04077">
        <ele>35.4</ele>
        <time>2022-06-10T15:00:42Z</time>
      </trkpt>
      <trkpt lat="48.67644" lon="-4.04076">
        <ele>35.4</ele>
        <time>2022-06-10T15:00:44Z</time>
      </trkpt>
      <trkpt lat="48.67644" lon="-4.04075">
        <ele>35.3</ele>
        <time>2022-06-10T15:00:45Z</time>
      </trkpt>
      <trkpt lat="48.67645" lon="-4.04075">
        <ele>35.3</ele>
        <time>2022-06-10T15:00:46Z</time>
      </trkpt>
      <trkpt lat="48.67645" lon="-4.04074">
        <ele>35.3</ele>
        <time>2022-06-10T15:00:47Z</time>
      </trkpt>
      <trkpt lat="48.67645" lon="-4.04073">
        <ele>35.3</ele>
        <time>2022-06-10T15:00:48Z</time>
      </trkpt>
      <trkpt lat="48.67647" lon="-4.04072">
        <ele>35.2</ele>
        <time>2022-06-10T15:00:49Z</time>
      </trkpt>
      <trkpt lat="48.67648" lon="-4.04072">
        <ele>35.2</ele>
        <time>2022-06-10T15:00:50Z</time>
      </trkpt>
      <trkpt lat="48.67649" lon="-4.04072">
        <ele>35.2</ele>
        <time>2022-06-10T15:00:52Z</time>
      </trkpt>
      <trkpt lat="48.6765" lon="-4.04071">
        <ele>35.2</ele>
        <time>2022-06-10T15:00:53Z</time>
      </trkpt>
      <trkpt lat="48.6765" lon="-4.04071">
        <ele>35.2</ele>
        <time>2022-06-10T15:00:54Z</time>
      </trkpt>
      <trkpt lat="48.67651" lon="-4.04071">
        <ele>35.1</ele>
        <time>2022-06-10T15:00:55Z</time>
      </trkpt>
      <trkpt lat="48.67652" lon="-4.0407">
        <ele>35.1</ele>
        <time>2022-06-10T15:00:56Z</time>
      </trkpt>
      <trkpt lat="48.67655" lon="-4.0407">
        <ele>35.1</ele>
        <time>2022-06-10T15:00:57Z</time>
      </trkpt>
      <trkpt lat="48.67656" lon="-4.04069">
        <ele>35</ele>
        <time>2022-06-10T15:00:59Z</time>
      </trkpt>
      <trkpt lat="48.67657" lon="-4.04068">
        <ele>35</ele>
        <time>2022-06-10T15:01:00Z</time>
      </trkpt>
      <trkpt lat="48.67658" lon="-4.04068">
        <ele>35</ele>
        <time>2022-06-10T15:01:01Z</time>
      </trkpt>
      <trkpt lat="48.67659" lon="-4.04067">
        <ele>35</ele>
        <time>2022-06-10T15:01:02Z</time>
      </trkpt>
      <trkpt lat="48.67661" lon="-4.04067">
        <ele>34.9</ele>
        <time>2022-06-10T15:01:03Z</time>
      </trkpt>
      <trkpt lat="48.67663" lon="-4.04067">
        <ele>34.9</ele>
        <time>2022-06-10T15:01:05Z</time>
      </trkpt>
      <trkpt lat="48.67664" lon="-4.04067">
        <ele>34.9</ele>
        <time>2022-06-10T15:01:06Z</time>
      </trkpt>
      <trkpt lat="48.67665" lon="-4.04066">
        <ele>34.8</ele>
        <time>2022-06-10T15:01:07Z</time>
      </trkpt>
      <trkpt lat="48.67667" lon="-4.04066">
        <ele>34.8</ele>
        <time>2022-06-10T15:01:08Z</time>
      </trkpt>
      <trkpt lat="48.67668" lon="-4.04066">
        <ele>34.8</ele>
        <time>2022-06-10T15:01:09Z</time>
      </trkpt>
      <trkpt lat="48.67669" lon="-4.04065">
        <ele>34.7</ele>
        <time>2022-06-10T15:01:10Z</time>
      </trkpt>
      <trkpt lat="48.6767" lon="-4.04065">
        <ele>34.7</ele>
        <time>2022-06-10T15:01:12Z</time>
      </trkpt>
      <trkpt lat="48.67672" lon="-4.04064">
        <ele>34.7</ele>
        <time>2022-06-10T15:01:13Z</time>
      </trkpt>
      <trkpt lat="48.67673" lon="-4.04063">
        <ele>34.6</ele>
        <time>2022-06-10T15:01:14Z</time>
      </trkpt>
      <trkpt lat="48.67674" lon="-4.04063">
        <ele>34.6</ele>
        <time>2022-06-10T15:01:15Z</time>
      </trkpt>
      <trkpt lat="48.67675" lon="-4.04062">
        <ele>34.6</ele>
        <time>2022-06-10T15:01:16Z</time>
      </trkpt>
      <trkpt lat="48.67676" lon="-4.04062">
        <ele>34.5</ele>
        <time>2022-06-10T15:01:18Z</time>
      </trkpt>
      <trkpt lat="48.67677" lon="-4.04061">
        <ele>34.5</ele>
        <time>2022-06-10T15:01:19Z</time>
      </trkpt>
      <trkpt lat="48.67678" lon="-4.0406">
        <ele>34.5</ele>
        <time>2022-06-10T15:01:20Z</time>
      </trkpt>
      <trkpt lat="48.67674" lon="-4.04062">
        <ele>34.3</ele>
        <time>2022-06-10T15:02:45Z</time>
      </trkpt>
      <trkpt lat="48.6768" lon="-4.04058">
        <ele>34.1</ele>
        <time>2022-06-10T15:02:47Z</time>
      </trkpt>
      <trkpt lat="48.67688" lon="-4.04052">
        <ele>33.8</ele>
        <time>2022-06-10T15:02:48Z</time>
      </trkpt>
      <trkpt lat="48.67692" lon="-4.04049">
        <ele>33.7</ele>
        <time>2022-06-10T15:02:49Z</time>
      </trkpt>
      <trkpt lat="48.67695" lon="-4.04047">
        <ele>33.6</ele>
        <time>2022-06-10T15:02:50Z</time>
      </trkpt>
      <trkpt lat="48.67698" lon="-4.04045">
        <ele>33.4</ele>
        <time>2022-06-10T15:02:51Z</time>
      </trkpt>
      <trkpt lat="48.67698" lon="-4.04044">
        <ele>33.4</ele>
        <time>2022-06-10T15:02:52Z</time>
      </trkpt>
      <trkpt lat="48.67698" lon="-4.04044">
        <ele>33.4</ele>
        <time>2022-06-10T15:02:53Z</time>
      </trkpt>
      <trkpt lat="48.67702" lon="-4.0404">
        <ele>33.3</ele>
        <time>2022-06-10T15:02:54Z</time>
      </trkpt>
      <trkpt lat="48.67706" lon="-4.04036">
        <ele>33</ele>
        <time>2022-06-10T15:02:55Z</time>
      </trkpt>
      <trkpt lat="48.67707" lon="-4.04035">
        <ele>33</ele>
        <time>2022-06-10T15:02:56Z</time>
      </trkpt>
      <trkpt lat="48.67708" lon="-4.04034">
        <ele>33</ele>
        <time>2022-06-10T15:02:57Z</time>
      </trkpt>
      <trkpt lat="48.67708" lon="-4.04034">
        <ele>32.9</ele>
        <time>2022-06-10T15:02:58Z</time>
      </trkpt>
      <trkpt lat="48.67708" lon="-4.04034">
        <ele>32.9</ele>
        <time>2022-06-10T15:02:59Z</time>
      </trkpt>
      <trkpt lat="48.67708" lon="-4.04034">
        <ele>32.9</ele>
        <time>2022-06-10T15:03:00Z</time>
      </trkpt>
      <trkpt lat="48.67708" lon="-4.04034">
        <ele>32.9</ele>
        <time>2022-06-10T15:03:01Z</time>
      </trkpt>
      <trkpt lat="48.67708" lon="-4.04034">
        <ele>32.9</ele>
        <time>2022-06-10T15:03:02Z</time>
      </trkpt>
      <trkpt lat="48.67708" lon="-4.04034">
        <ele>32.9</ele>
        <time>2022-06-10T15:03:03Z</time>
      </trkpt>
      <trkpt lat="48.67708" lon="-4.04034">
        <ele>32.9</ele>
        <time>2022-06-10T15:03:04Z</time>
      </trkpt>
      <trkpt lat="48.67708" lon="-4.04034">
        <ele>32.9</ele>
        <time>2022-06-10T15:03:05Z</time>
      </trkpt>
      <trkpt lat="48.67708" lon="-4.04034">
        <ele>32.9</ele>
        <time>2022-06-10T15:03:06Z</time>
      </trkpt>
      <trkpt lat="48.67708" lon="-4.04034">
        <ele>32.9</ele>
        <time>2022-06-10T15:03:07Z</time>
      </trkpt>
      <trkpt lat="48.67708" lon="-4.04034">
        <ele>32.9</ele>
        <time>2022-06-10T15:03:08Z</time>
      </trkpt>
      <trkpt lat="48.67708" lon="-4.04034">
        <ele>32.9</ele>
        <time>2022-06-10T15:03:09Z</time>
      </trkpt>
      <trkpt lat="48.67708" lon="-4.04034">
        <ele>32.9</ele>
        <time>2022-06-10T15:03:10Z</time>
      </trkpt>
      <trkpt lat="48.67708" lon="-4.04034">
        <ele>32.9</ele>
        <time>2022-06-10T15:03:11Z</time>
      </trkpt>
      <trkpt lat="48.67708" lon="-4.04034">
        <ele>32.9</ele>
        <time>2022-06-10T15:03:12Z</time>
      </trkpt>
      <trkpt lat="48.67708" lon="-4.04034">
        <ele>32.9</ele>
        <time>2022-06-10T15:03:13Z</time>
      </trkpt>
      <trkpt lat="48.67708" lon="-4.04034">
        <ele>32.9</ele>
        <time>2022-06-10T15:03:14Z</time>
      </trkpt>
      <trkpt lat="48.67708" lon="-4.04034">
        <ele>32.9</ele>
        <time>2022-06-10T15:03:15Z</time>
      </trkpt>
      <trkpt lat="48.67708" lon="-4.04034">
        <ele>32.9</ele>
        <time>2022-06-10T15:03:16Z</time>
      </trkpt>
      <trkpt lat="48.67708" lon="-4.04034">
        <ele>32.9</ele>
        <time>2022-06-10T15:03:17Z</time>
      </trkpt>
      <trkpt lat="48.67708" lon="-4.04034">
        <ele>32.9</ele>
        <time>2022-06-10T15:03:18Z</time>
      </trkpt>
      <trkpt lat="48.67708" lon="-4.04034">
        <ele>32.9</ele>
        <time>2022-06-10T15:03:19Z</time>
      </trkpt>
      <trkpt lat="48.67708" lon="-4.04034">
        <ele>32.9</ele>
        <time>2022-06-10T15:03:20Z</time>
      </trkpt>
      <trkpt lat="48.67709" lon="-4.04034">
        <ele>32.9</ele>
        <time>2022-06-10T15:03:22Z</time>
      </trkpt>
      <trkpt lat="48.67709" lon="-4.04034">
        <ele>32.9</ele>
        <time>2022-06-10T15:03:23Z</time>
      </trkpt>
      <trkpt lat="48.67709" lon="-4.04034">
        <ele>32.9</ele>
        <time>2022-06-10T15:03:24Z</time>
      </trkpt>
      <trkpt lat="48.67709" lon="-4.04034">
        <ele>32.9</ele>
        <time>2022-06-10T15:03:25Z</time>
      </trkpt>
      <trkpt lat="48.67709" lon="-4.04034">
        <ele>32.9</ele>
        <time>2022-06-10T15:03:26Z</time>
      </trkpt>
      <trkpt lat="48.6771" lon="-4.04033">
        <ele>32.9</ele>
        <time>2022-06-10T15:03:27Z</time>
      </trkpt>
      <trkpt lat="48.67711" lon="-4.04032">
        <ele>32.8</ele>
        <time>2022-06-10T15:03:28Z</time>
      </trkpt>
      <trkpt lat="48.67713" lon="-4.04029">
        <ele>32.7</ele>
        <time>2022-06-10T15:03:30Z</time>
      </trkpt>
      <trkpt lat="48.67714" lon="-4.04028">
        <ele>32.6</ele>
        <time>2022-06-10T15:03:32Z</time>
      </trkpt>
      <trkpt lat="48.67716" lon="-4.04026">
        <ele>32.5</ele>
        <time>2022-06-10T15:03:33Z</time>
      </trkpt>
      <trkpt lat="48.67717" lon="-4.04025">
        <ele>32.4</ele>
        <time>2022-06-10T15:03:34Z</time>
      </trkpt>
      <trkpt lat="48.67717" lon="-4.04025">
        <ele>32.4</ele>
        <time>2022-06-10T15:03:35Z</time>
      </trkpt>
      <trkpt lat="48.67718" lon="-4.04024">
        <ele>32.3</ele>
        <time>2022-06-10T15:03:36Z</time>
      </trkpt>
      <trkpt lat="48.6772" lon="-4.04022">
        <ele>32.2</ele>
        <time>2022-06-10T15:03:37Z</time>
      </trkpt>
      <trkpt lat="48.67721" lon="-4.0402">
        <ele>32.1</ele>
        <time>2022-06-10T15:03:39Z</time>
      </trkpt>
      <trkpt lat="48.67722" lon="-4.04019">
        <ele>32.1</ele>
        <time>2022-06-10T15:03:40Z</time>
      </trkpt>
      <trkpt lat="48.67722" lon="-4.04018">
        <ele>32</ele>
        <time>2022-06-10T15:03:41Z</time>
      </trkpt>
      <trkpt lat="48.67723" lon="-4.04018">
        <ele>32</ele>
        <time>2022-06-10T15:03:42Z</time>
      </trkpt>
      <trkpt lat="48.67723" lon="-4.04016">
        <ele>31.9</ele>
        <time>2022-06-10T15:03:44Z</time>
      </trkpt>
      <trkpt lat="48.67724" lon="-4.04015">
        <ele>31.9</ele>
        <time>2022-06-10T15:03:45Z</time>
      </trkpt>
      <trkpt lat="48.67724" lon="-4.04014">
        <ele>31.8</ele>
        <time>2022-06-10T15:03:46Z</time>
      </trkpt>
      <trkpt lat="48.67724" lon="-4.04014">
        <ele>31.8</ele>
        <time>2022-06-10T15:03:47Z</time>
      </trkpt>
      <trkpt lat="48.67725" lon="-4.04013">
        <ele>31.8</ele>
        <time>2022-06-10T15:03:49Z</time>
      </trkpt>
      <trkpt lat="48.67725" lon="-4.04012">
        <ele>31.7</ele>
        <time>2022-06-10T15:03:50Z</time>
      </trkpt>
      <trkpt lat="48.67726" lon="-4.04012">
        <ele>31.7</ele>
        <time>2022-06-10T15:03:51Z</time>
      </trkpt>
      <trkpt lat="48.67726" lon="-4.04012">
        <ele>31.7</ele>
        <time>2022-06-10T15:03:52Z</time>
      </trkpt>
      <trkpt lat="48.67727" lon="-4.04012">
        <ele>31.6</ele>
        <time>2022-06-10T15:03:53Z</time>
      </trkpt>
      <trkpt lat="48.67727" lon="-4.04012">
        <ele>31.6</ele>
        <time>2022-06-10T15:03:55Z</time>
      </trkpt>
      <trkpt lat="48.67727" lon="-4.04011">
        <ele>31.6</ele>
        <time>2022-06-10T15:03:56Z</time>
      </trkpt>
      <trkpt lat="48.67728" lon="-4.04011">
        <ele>31.5</ele>
        <time>2022-06-10T15:03:57Z</time>
      </trkpt>
      <trkpt lat="48.67728" lon="-4.0401">
        <ele>31.5</ele>
        <time>2022-06-10T15:03:59Z</time>
      </trkpt>
      <trkpt lat="48.67728" lon="-4.04011">
        <ele>31.5</ele>
        <time>2022-06-10T15:04:00Z</time>
      </trkpt>
      <trkpt lat="48.67728" lon="-4.04011">
        <ele>31.5</ele>
        <time>2022-06-10T15:04:01Z</time>
      </trkpt>
      <trkpt lat="48.67728" lon="-4.04011">
        <ele>31.5</ele>
        <time>2022-06-10T15:04:02Z</time>
      </trkpt>
      <trkpt lat="48.67729" lon="-4.0401">
        <ele>31.4</ele>
        <time>2022-06-10T15:04:04Z</time>
      </trkpt>
      <trkpt lat="48.67729" lon="-4.0401">
        <ele>31.4</ele>
        <time>2022-06-10T15:04:05Z</time>
      </trkpt>
      <trkpt lat="48.6773" lon="-4.0401">
        <ele>31.3</ele>
        <time>2022-06-10T15:04:06Z</time>
      </trkpt>
      <trkpt lat="48.67731" lon="-4.0401">
        <ele>31.3</ele>
        <time>2022-06-10T15:04:07Z</time>
      </trkpt>
      <trkpt lat="48.67732" lon="-4.0401">
        <ele>31.2</ele>
        <time>2022-06-10T15:04:08Z</time>
      </trkpt>
      <trkpt lat="48.67733" lon="-4.0401">
        <ele>31.2</ele>
        <time>2022-06-10T15:04:09Z</time>
      </trkpt>
      <trkpt lat="48.67734" lon="-4.0401">
        <ele>31.1</ele>
        <time>2022-06-10T15:04:10Z</time>
      </trkpt>
      <trkpt lat="48.67735" lon="-4.0401">
        <ele>31</ele>
        <time>2022-06-10T15:04:11Z</time>
      </trkpt>
      <trkpt lat="48.67736" lon="-4.0401">
        <ele>31</ele>
        <time>2022-06-10T15:04:12Z</time>
      </trkpt>
      <trkpt lat="48.67737" lon="-4.0401">
        <ele>31</ele>
        <time>2022-06-10T15:04:13Z</time>
      </trkpt>
      <trkpt lat="48.67738" lon="-4.0401">
        <ele>30.9</ele>
        <time>2022-06-10T15:04:14Z</time>
      </trkpt>
      <trkpt lat="48.67739" lon="-4.04009">
        <ele>30.8</ele>
        <time>2022-06-10T15:04:15Z</time>
      </trkpt>
      <trkpt lat="48.6774" lon="-4.04009">
        <ele>30.8</ele>
        <time>2022-06-10T15:04:16Z</time>
      </trkpt>
      <trkpt lat="48.6774" lon="-4.04009">
        <ele>30.8</ele>
        <time>2022-06-10T15:04:18Z</time>
      </trkpt>
      <trkpt lat="48.6774" lon="-4.04008">
        <ele>30.7</ele>
        <time>2022-06-10T15:04:19Z</time>
      </trkpt>
      <trkpt lat="48.67741" lon="-4.04008">
        <ele>30.7</ele>
        <time>2022-06-10T15:04:20Z</time>
      </trkpt>
      <trkpt lat="48.67741" lon="-4.04007">
        <ele>30.7</ele>
        <time>2022-06-10T15:04:21Z</time>
      </trkpt>
      <trkpt lat="48.67742" lon="-4.04007">
        <ele>30.6</ele>
        <time>2022-06-10T15:04:22Z</time>
      </trkpt>
      <trkpt lat="48.67743" lon="-4.04007">
        <ele>30.6</ele>
        <time>2022-06-10T15:04:23Z</time>
      </trkpt>
      <trkpt lat="48.67744" lon="-4.04007">
        <ele>30.5</ele>
        <time>2022-06-10T15:04:25Z</time>
      </trkpt>
      <trkpt lat="48.67745" lon="-4.04007">
        <ele>30.4</ele>
        <time>2022-06-10T15:04:26Z</time>
      </trkpt>
      <trkpt lat="48.67746" lon="-4.04007">
        <ele>30.4</ele>
        <time>2022-06-10T15:04:27Z</time>
      </trkpt>
      <trkpt lat="48.67746" lon="-4.04007">
        <ele>30.4</ele>
        <time>2022-06-10T15:04:28Z</time>
      </trkpt>
      <trkpt lat="48.67746" lon="-4.04007">
        <ele>30.4</ele>
        <time>2022-06-10T15:04:29Z</time>
      </trkpt>
      <trkpt lat="48.67747" lon="-4.04007">
        <ele>30.3</ele>
        <time>2022-06-10T15:04:31Z</time>
      </trkpt>
      <trkpt lat="48.67748" lon="-4.04007">
        <ele>30.2</ele>
        <time>2022-06-10T15:04:32Z</time>
      </trkpt>
      <trkpt lat="48.67749" lon="-4.04007">
        <ele>30.1</ele>
        <time>2022-06-10T15:04:33Z</time>
      </trkpt>
      <trkpt lat="48.67751" lon="-4.04006">
        <ele>30.1</ele>
        <time>2022-06-10T15:04:34Z</time>
      </trkpt>
      <trkpt lat="48.67752" lon="-4.04006">
        <ele>30</ele>
        <time>2022-06-10T15:04:35Z</time>
      </trkpt>
      <trkpt lat="48.67754" lon="-4.04005">
        <ele>29.9</ele>
        <time>2022-06-10T15:04:36Z</time>
      </trkpt>
      <trkpt lat="48.67756" lon="-4.04004">
        <ele>29.7</ele>
        <time>2022-06-10T15:04:38Z</time>
      </trkpt>
      <trkpt lat="48.67757" lon="-4.04004">
        <ele>29.7</ele>
        <time>2022-06-10T15:04:39Z</time>
      </trkpt>
      <trkpt lat="48.67758" lon="-4.04004">
        <ele>29.6</ele>
        <time>2022-06-10T15:04:40Z</time>
      </trkpt>
      <trkpt lat="48.67759" lon="-4.04003">
        <ele>29.6</ele>
        <time>2022-06-10T15:04:41Z</time>
      </trkpt>
      <trkpt lat="48.6776" lon="-4.04003">
        <ele>29.5</ele>
        <time>2022-06-10T15:04:42Z</time>
      </trkpt>
      <trkpt lat="48.67761" lon="-4.04002">
        <ele>29.4</ele>
        <time>2022-06-10T15:04:43Z</time>
      </trkpt>
      <trkpt lat="48.67761" lon="-4.04002">
        <ele>29.4</ele>
        <time>2022-06-10T15:04:44Z</time>
      </trkpt>
      <trkpt lat="48.67762" lon="-4.04001">
        <ele>29.3</ele>
        <time>2022-06-10T15:04:45Z</time>
      </trkpt>
      <trkpt lat="48.67764" lon="-4.04001">
        <ele>29.2</ele>
        <time>2022-06-10T15:04:46Z</time>
      </trkpt>
      <trkpt lat="48.67765" lon="-4.04">
        <ele>29.1</ele>
        <time>2022-06-10T15:04:48Z</time>
      </trkpt>
      <trkpt lat="48.67767" lon="-4.03999">
        <ele>29</ele>
        <time>2022-06-10T15:04:49Z</time>
      </trkpt>
      <trkpt lat="48.6777" lon="-4.03998">
        <ele>28.8</ele>
        <time>2022-06-10T15:04:50Z</time>
      </trkpt>
      <trkpt lat="48.67771" lon="-4.03997">
        <ele>28.7</ele>
        <time>2022-06-10T15:04:51Z</time>
      </trkpt>
      <trkpt lat="48.67774" lon="-4.03996">
        <ele>28.6</ele>
        <time>2022-06-10T15:04:52Z</time>
      </trkpt>
      <trkpt lat="48.67775" lon="-4.03996">
        <ele>28.5</ele>
        <time>2022-06-10T15:04:54Z</time>
      </trkpt>
      <trkpt lat="48.67776" lon="-4.03995">
        <ele>28.4</ele>
        <time>2022-06-10T15:04:55Z</time>
      </trkpt>
      <trkpt lat="48.67777" lon="-4.03995">
        <ele>28.3</ele>
        <time>2022-06-10T15:04:56Z</time>
      </trkpt>
      <trkpt lat="48.67778" lon="-4.03994">
        <ele>28.3</ele>
        <time>2022-06-10T15:04:57Z</time>
      </trkpt>
      <trkpt lat="48.67779" lon="-4.03994">
        <ele>28.2</ele>
        <time>2022-06-10T15:04:58Z</time>
      </trkpt>
      <trkpt lat="48.67781" lon="-4.03993">
        <ele>28.1</ele>
        <time>2022-06-10T15:05:00Z</time>
      </trkpt>
      <trkpt lat="48.67783" lon="-4.03993">
        <ele>28</ele>
        <time>2022-06-10T15:05:01Z</time>
      </trkpt>
      <trkpt lat="48.67784" lon="-4.03992">
        <ele>28</ele>
        <time>2022-06-10T15:05:02Z</time>
      </trkpt>
      <trkpt lat="48.67784" lon="-4.03992">
        <ele>27.9</ele>
        <time>2022-06-10T15:05:03Z</time>
      </trkpt>
      <trkpt lat="48.67785" lon="-4.03992">
        <ele>27.9</ele>
        <time>2022-06-10T15:05:04Z</time>
      </trkpt>
      <trkpt lat="48.67786" lon="-4.03991">
        <ele>27.8</ele>
        <time>2022-06-10T15:05:05Z</time>
      </trkpt>
      <trkpt lat="48.67786" lon="-4.03991">
        <ele>27.8</ele>
        <time>2022-06-10T15:05:06Z</time>
      </trkpt>
      <trkpt lat="48.67787" lon="-4.03991">
        <ele>27.8</ele>
        <time>2022-06-10T15:05:07Z</time>
      </trkpt>
      <trkpt lat="48.67789" lon="-4.0399">
        <ele>27.7</ele>
        <time>2022-06-10T15:05:08Z</time>
      </trkpt>
      <trkpt lat="48.6779" lon="-4.0399">
        <ele>27.6</ele>
        <time>2022-06-10T15:05:09Z</time>
      </trkpt>
      <trkpt lat="48.6779" lon="-4.03989">
        <ele>27.6</ele>
        <time>2022-06-10T15:05:11Z</time>
      </trkpt>
      <trkpt lat="48.67791" lon="-4.03989">
        <ele>27.5</ele>
        <time>2022-06-10T15:05:12Z</time>
      </trkpt>
      <trkpt lat="48.67792" lon="-4.03989">
        <ele>27.5</ele>
        <time>2022-06-10T15:05:13Z</time>
      </trkpt>
      <trkpt lat="48.67793" lon="-4.03988">
        <ele>27.4</ele>
        <time>2022-06-10T15:05:14Z</time>
      </trkpt>
      <trkpt lat="48.67794" lon="-4.03988">
        <ele>27.4</ele>
        <time>2022-06-10T15:05:15Z</time>
      </trkpt>
      <trkpt lat="48.67795" lon="-4.03987">
        <ele>27.3</ele>
        <time>2022-06-10T15:05:16Z</time>
      </trkpt>
      <trkpt lat="48.67796" lon="-4.03987">
        <ele>27.3</ele>
        <time>2022-06-10T15:05:18Z</time>
      </trkpt>
      <trkpt lat="48.67797" lon="-4.03986">
        <ele>27.2</ele>
        <time>2022-06-10T15:05:19Z</time>
      </trkpt>
      <trkpt lat="48.67799" lon="-4.03985">
        <ele>27.1</ele>
        <time>2022-06-10T15:05:20Z</time>
      </trkpt>
      <trkpt lat="48.678" lon="-4.03985">
        <ele>27</ele>
        <time>2022-06-10T15:05:21Z</time>
      </trkpt>
      <trkpt lat="48.67801" lon="-4.03984">
        <ele>27</ele>
        <time>2022-06-10T15:05:22Z</time>
      </trkpt>
      <trkpt lat="48.67802" lon="-4.03983">
        <ele>26.9</ele>
        <time>2022-06-10T15:05:23Z</time>
      </trkpt>
      <trkpt lat="48.67802" lon="-4.03983">
        <ele>26.8</ele>
        <time>2022-06-10T15:05:25Z</time>
      </trkpt>
      <trkpt lat="48.67803" lon="-4.03982">
        <ele>26.7</ele>
        <time>2022-06-10T15:05:26Z</time>
      </trkpt>
      <trkpt lat="48.67804" lon="-4.0398">
        <ele>26.6</ele>
        <time>2022-06-10T15:05:27Z</time>
      </trkpt>
      <trkpt lat="48.67805" lon="-4.03978">
        <ele>26.5</ele>
        <time>2022-06-10T15:05:28Z</time>
      </trkpt>
      <trkpt lat="48.67807" lon="-4.03977">
        <ele>26.5</ele>
        <time>2022-06-10T15:05:29Z</time>
      </trkpt>
      <trkpt lat="48.67808" lon="-4.03975">
        <ele>26.5</ele>
        <time>2022-06-10T15:05:31Z</time>
      </trkpt>
      <trkpt lat="48.67809" lon="-4.03974">
        <ele>26.6</ele>
        <time>2022-06-10T15:05:32Z</time>
      </trkpt>
      <trkpt lat="48.67809" lon="-4.03972">
        <ele>26.6</ele>
        <time>2022-06-10T15:05:33Z</time>
      </trkpt>
      <trkpt lat="48.67809" lon="-4.0397">
        <ele>26.6</ele>
        <time>2022-06-10T15:05:34Z</time>
      </trkpt>
      <trkpt lat="48.67809" lon="-4.03969">
        <ele>26.6</ele>
        <time>2022-06-10T15:05:35Z</time>
      </trkpt>
      <trkpt lat="48.67809" lon="-4.03968">
        <ele>26.6</ele>
        <time>2022-06-10T15:05:36Z</time>
      </trkpt>
      <trkpt lat="48.67809" lon="-4.03967">
        <ele>26.7</ele>
        <time>2022-06-10T15:05:37Z</time>
      </trkpt>
      <trkpt lat="48.67809" lon="-4.03966">
        <ele>26.7</ele>
        <time>2022-06-10T15:05:38Z</time>
      </trkpt>
      <trkpt lat="48.67809" lon="-4.03964">
        <ele>26.7</ele>
        <time>2022-06-10T15:05:40Z</time>
      </trkpt>
      <trkpt lat="48.67809" lon="-4.03963">
        <ele>26.7</ele>
        <time>2022-06-10T15:05:41Z</time>
      </trkpt>
      <trkpt lat="48.6781" lon="-4.03961">
        <ele>26.7</ele>
        <time>2022-06-10T15:05:42Z</time>
      </trkpt>
      <trkpt lat="48.6781" lon="-4.03958">
        <ele>26.8</ele>
        <time>2022-06-10T15:05:43Z</time>
      </trkpt>
      <trkpt lat="48.6781" lon="-4.03957">
        <ele>26.7</ele>
        <time>2022-06-10T15:05:44Z</time>
      </trkpt>
      <trkpt lat="48.6781" lon="-4.03956">
        <ele>26.7</ele>
        <time>2022-06-10T15:05:45Z</time>
      </trkpt>
      <trkpt lat="48.67813" lon="-4.03953">
        <ele>26.6</ele>
        <time>2022-06-10T15:05:46Z</time>
      </trkpt>
      <trkpt lat="48.67814" lon="-4.03953">
        <ele>26.6</ele>
        <time>2022-06-10T15:05:47Z</time>
      </trkpt>
      <trkpt lat="48.67815" lon="-4.03951">
        <ele>26.5</ele>
        <time>2022-06-10T15:05:48Z</time>
      </trkpt>
      <trkpt lat="48.67816" lon="-4.0395">
        <ele>26.5</ele>
        <time>2022-06-10T15:05:50Z</time>
      </trkpt>
      <trkpt lat="48.67817" lon="-4.03949">
        <ele>26.4</ele>
        <time>2022-06-10T15:05:51Z</time>
      </trkpt>
      <trkpt lat="48.67818" lon="-4.03948">
        <ele>26.4</ele>
        <time>2022-06-10T15:05:52Z</time>
      </trkpt>
      <trkpt lat="48.67819" lon="-4.03948">
        <ele>26.4</ele>
        <time>2022-06-10T15:05:53Z</time>
      </trkpt>
      <trkpt lat="48.67819" lon="-4.03949">
        <ele>26.4</ele>
        <time>2022-06-10T15:05:54Z</time>
      </trkpt>
      <trkpt lat="48.6782" lon="-4.03949">
        <ele>26.3</ele>
        <time>2022-06-10T15:05:55Z</time>
      </trkpt>
      <trkpt lat="48.6782" lon="-4.03949">
        <ele>26.3</ele>
        <time>2022-06-10T15:05:56Z</time>
      </trkpt>
      <trkpt lat="48.67821" lon="-4.03949">
        <ele>26.3</ele>
        <time>2022-06-10T15:05:58Z</time>
      </trkpt>
      <trkpt lat="48.67822" lon="-4.03948">
        <ele>26.3</ele>
        <time>2022-06-10T15:05:59Z</time>
      </trkpt>
      <trkpt lat="48.67823" lon="-4.03948">
        <ele>26.3</ele>
        <time>2022-06-10T15:06:00Z</time>
      </trkpt>
      <trkpt lat="48.67823" lon="-4.03947">
        <ele>26.2</ele>
        <time>2022-06-10T15:06:01Z</time>
      </trkpt>
      <trkpt lat="48.67825" lon="-4.03947">
        <ele>26.2</ele>
        <time>2022-06-10T15:06:02Z</time>
      </trkpt>
      <trkpt lat="48.67826" lon="-4.03947">
        <ele>26.2</ele>
        <time>2022-06-10T15:06:04Z</time>
      </trkpt>
      <trkpt lat="48.67827" lon="-4.03947">
        <ele>26.1</ele>
        <time>2022-06-10T15:06:05Z</time>
      </trkpt>
      <trkpt lat="48.67828" lon="-4.03947">
        <ele>26.1</ele>
        <time>2022-06-10T15:06:06Z</time>
      </trkpt>
      <trkpt lat="48.67828" lon="-4.03946">
        <ele>26.1</ele>
        <time>2022-06-10T15:06:07Z</time>
      </trkpt>
      <trkpt lat="48.67829" lon="-4.03947">
        <ele>26.1</ele>
        <time>2022-06-10T15:06:08Z</time>
      </trkpt>
      <trkpt lat="48.6783" lon="-4.03947">
        <ele>26</ele>
        <time>2022-06-10T15:06:09Z</time>
      </trkpt>
      <trkpt lat="48.67831" lon="-4.03947">
        <ele>26</ele>
        <time>2022-06-10T15:06:11Z</time>
      </trkpt>
      <trkpt lat="48.67834" lon="-4.03948">
        <ele>25.9</ele>
        <time>2022-06-10T15:06:13Z</time>
      </trkpt>
      <trkpt lat="48.67834" lon="-4.03949">
        <ele>25.9</ele>
        <time>2022-06-10T15:06:14Z</time>
      </trkpt>
      <trkpt lat="48.67835" lon="-4.0395">
        <ele>25.8</ele>
        <time>2022-06-10T15:06:16Z</time>
      </trkpt>
      <trkpt lat="48.67835" lon="-4.0395">
        <ele>25.8</ele>
        <time>2022-06-10T15:06:17Z</time>
      </trkpt>
      <trkpt lat="48.67836" lon="-4.0395">
        <ele>25.8</ele>
        <time>2022-06-10T15:06:18Z</time>
      </trkpt>
      <trkpt lat="48.67836" lon="-4.03951">
        <ele>25.8</ele>
        <time>2022-06-10T15:06:19Z</time>
      </trkpt>
      <trkpt lat="48.67835" lon="-4.03951">
        <ele>25.8</ele>
        <time>2022-06-10T15:06:20Z</time>
      </trkpt>
      <trkpt lat="48.67835" lon="-4.0395">
        <ele>25.8</ele>
        <time>2022-06-10T15:06:21Z</time>
      </trkpt>
      <trkpt lat="48.67835" lon="-4.0395">
        <ele>25.8</ele>
        <time>2022-06-10T15:06:22Z</time>
      </trkpt>
      <trkpt lat="48.67835" lon="-4.0395">
        <ele>25.7</ele>
        <time>2022-06-10T15:06:24Z</time>
      </trkpt>
      <trkpt lat="48.67836" lon="-4.0395">
        <ele>25.7</ele>
        <time>2022-06-10T15:06:25Z</time>
      </trkpt>
      <trkpt lat="48.67836" lon="-4.03949">
        <ele>25.7</ele>
        <time>2022-06-10T15:06:26Z</time>
      </trkpt>
      <trkpt lat="48.67837" lon="-4.03949">
        <ele>25.7</ele>
        <time>2022-06-10T15:06:28Z</time>
      </trkpt>
      <trkpt lat="48.67837" lon="-4.03949">
        <ele>25.7</ele>
        <time>2022-06-10T15:06:29Z</time>
      </trkpt>
      <trkpt lat="48.67838" lon="-4.03949">
        <ele>25.6</ele>
        <time>2022-06-10T15:06:30Z</time>
      </trkpt>
      <trkpt lat="48.67838" lon="-4.03948">
        <ele>25.6</ele>
        <time>2022-06-10T15:06:31Z</time>
      </trkpt>
      <trkpt lat="48.67839" lon="-4.03947">
        <ele>25.6</ele>
        <time>2022-06-10T15:06:33Z</time>
      </trkpt>
      <trkpt lat="48.6784" lon="-4.03947">
        <ele>25.5</ele>
        <time>2022-06-10T15:06:34Z</time>
      </trkpt>
      <trkpt lat="48.67841" lon="-4.03946">
        <ele>25.5</ele>
        <time>2022-06-10T15:06:35Z</time>
      </trkpt>
      <trkpt lat="48.67841" lon="-4.03945">
        <ele>25.5</ele>
        <time>2022-06-10T15:06:36Z</time>
      </trkpt>
      <trkpt lat="48.67842" lon="-4.03944">
        <ele>25.4</ele>
        <time>2022-06-10T15:06:38Z</time>
      </trkpt>
      <trkpt lat="48.67843" lon="-4.03943">
        <ele>25.4</ele>
        <time>2022-06-10T15:06:39Z</time>
      </trkpt>
      <trkpt lat="48.67843" lon="-4.03943">
        <ele>25.4</ele>
        <time>2022-06-10T15:06:40Z</time>
      </trkpt>
      <trkpt lat="48.67844" lon="-4.03943">
        <ele>25.3</ele>
        <time>2022-06-10T15:06:41Z</time>
      </trkpt>
      <trkpt lat="48.67844" lon="-4.03944">
        <ele>25.3</ele>
        <time>2022-06-10T15:06:43Z</time>
      </trkpt>
      <trkpt lat="48.67845" lon="-4.03944">
        <ele>25.3</ele>
        <time>2022-06-10T15:06:44Z</time>
      </trkpt>
      <trkpt lat="48.67845" lon="-4.03945">
        <ele>25.3</ele>
        <time>2022-06-10T15:06:45Z</time>
      </trkpt>
      <trkpt lat="48.67844" lon="-4.03945">
        <ele>25.3</ele>
        <time>2022-06-10T15:06:46Z</time>
      </trkpt>
      <trkpt lat="48.67844" lon="-4.03945">
        <ele>25.3</ele>
        <time>2022-06-10T15:06:47Z</time>
      </trkpt>
      <trkpt lat="48.67844" lon="-4.03945">
        <ele>25.3</ele>
        <time>2022-06-10T15:06:48Z</time>
      </trkpt>
      <trkpt lat="48.67844" lon="-4.03945">
        <ele>25.3</ele>
        <time>2022-06-10T15:06:49Z</time>
      </trkpt>
      <trkpt lat="48.67844" lon="-4.03945">
        <ele>25.3</ele>
        <time>2022-06-10T15:06:50Z</time>
      </trkpt>
      <trkpt lat="48.67844" lon="-4.03945">
        <ele>25.3</ele>
        <time>2022-06-10T15:06:51Z</time>
      </trkpt>
      <trkpt lat="48.67844" lon="-4.03946">
        <ele>25.2</ele>
        <time>2022-06-10T15:06:52Z</time>
      </trkpt>
      <trkpt lat="48.67844" lon="-4.03947">
        <ele>25.2</ele>
        <time>2022-06-10T15:06:53Z</time>
      </trkpt>
      <trkpt lat="48.67844" lon="-4.03948">
        <ele>25.2</ele>
        <time>2022-06-10T15:06:54Z</time>
      </trkpt>
      <trkpt lat="48.67843" lon="-4.03949">
        <ele>25.1</ele>
        <time>2022-06-10T15:06:55Z</time>
      </trkpt>
      <trkpt lat="48.67843" lon="-4.0395">
        <ele>25.1</ele>
        <time>2022-06-10T15:06:56Z</time>
      </trkpt>
      <trkpt lat="48.67843" lon="-4.03952">
        <ele>25.1</ele>
        <time>2022-06-10T15:06:58Z</time>
      </trkpt>
      <trkpt lat="48.67843" lon="-4.03952">
        <ele>25.1</ele>
        <time>2022-06-10T15:06:59Z</time>
      </trkpt>
      <trkpt lat="48.67843" lon="-4.03952">
        <ele>25.1</ele>
        <time>2022-06-10T15:07:00Z</time>
      </trkpt>
      <trkpt lat="48.67843" lon="-4.03952">
        <ele>25.1</ele>
        <time>2022-06-10T15:07:01Z</time>
      </trkpt>
      <trkpt lat="48.67842" lon="-4.03952">
        <ele>25.1</ele>
        <time>2022-06-10T15:07:03Z</time>
      </trkpt>
      <trkpt lat="48.67842" lon="-4.03952">
        <ele>25</ele>
        <time>2022-06-10T15:07:04Z</time>
      </trkpt>
      <trkpt lat="48.67842" lon="-4.03952">
        <ele>25</ele>
        <time>2022-06-10T15:07:05Z</time>
      </trkpt>
      <trkpt lat="48.67842" lon="-4.03952">
        <ele>25</ele>
        <time>2022-06-10T15:07:06Z</time>
      </trkpt>
      <trkpt lat="48.67842" lon="-4.03953">
        <ele>25</ele>
        <time>2022-06-10T15:07:08Z</time>
      </trkpt>
      <trkpt lat="48.67842" lon="-4.03953">
        <ele>25</ele>
        <time>2022-06-10T15:07:09Z</time>
      </trkpt>
      <trkpt lat="48.67842" lon="-4.03953">
        <ele>25</ele>
        <time>2022-06-10T15:07:10Z</time>
      </trkpt>
      <trkpt lat="48.67842" lon="-4.03953">
        <ele>25</ele>
        <time>2022-06-10T15:07:11Z</time>
      </trkpt>
      <trkpt lat="48.67842" lon="-4.03953">
        <ele>25</ele>
        <time>2022-06-10T15:07:13Z</time>
      </trkpt>
      <trkpt lat="48.67842" lon="-4.03953">
        <ele>25</ele>
        <time>2022-06-10T15:07:14Z</time>
      </trkpt>
      <trkpt lat="48.67842" lon="-4.03952">
        <ele>25</ele>
        <time>2022-06-10T15:07:15Z</time>
      </trkpt>
      <trkpt lat="48.67842" lon="-4.03952">
        <ele>25</ele>
        <time>2022-06-10T15:07:16Z</time>
      </trkpt>
      <trkpt lat="48.67842" lon="-4.03952">
        <ele>25</ele>
        <time>2022-06-10T15:07:17Z</time>
      </trkpt>
      <trkpt lat="48.67842" lon="-4.03952">
        <ele>25</ele>
        <time>2022-06-10T15:07:18Z</time>
      </trkpt>
      <trkpt lat="48.67842" lon="-4.03952">
        <ele>25</ele>
        <time>2022-06-10T15:07:19Z</time>
      </trkpt>
      <trkpt lat="48.67842" lon="-4.03952">
        <ele>25</ele>
        <time>2022-06-10T15:07:20Z</time>
      </trkpt>
      <trkpt lat="48.67842" lon="-4.03952">
        <ele>25</ele>
        <time>2022-06-10T15:07:21Z</time>
      </trkpt>
      <trkpt lat="48.67842" lon="-4.03952">
        <ele>25</ele>
        <time>2022-06-10T15:07:22Z</time>
      </trkpt>
      <trkpt lat="48.67842" lon="-4.03952">
        <ele>25</ele>
        <time>2022-06-10T15:07:23Z</time>
      </trkpt>
      <trkpt lat="48.67842" lon="-4.03952">
        <ele>25</ele>
        <time>2022-06-10T15:07:24Z</time>
      </trkpt>
      <trkpt lat="48.67842" lon="-4.03952">
        <ele>25</ele>
        <time>2022-06-10T15:07:25Z</time>
      </trkpt>
      <trkpt lat="48.67842" lon="-4.03952">
        <ele>25</ele>
        <time>2022-06-10T15:07:26Z</time>
      </trkpt>
      <trkpt lat="48.67842" lon="-4.03952">
        <ele>25</ele>
        <time>2022-06-10T15:07:27Z</time>
      </trkpt>
      <trkpt lat="48.67842" lon="-4.03952">
        <ele>25</ele>
        <time>2022-06-10T15:07:28Z</time>
      </trkpt>
      <trkpt lat="48.67842" lon="-4.03952">
        <ele>25</ele>
        <time>2022-06-10T15:07:29Z</time>
      </trkpt>
      <trkpt lat="48.67842" lon="-4.03952">
        <ele>25</ele>
        <time>2022-06-10T15:07:30Z</time>
      </trkpt>
      <trkpt lat="48.67842" lon="-4.03952">
        <ele>25</ele>
        <time>2022-06-10T15:07:31Z</time>
      </trkpt>
      <trkpt lat="48.67842" lon="-4.03952">
        <ele>25</ele>
        <time>2022-06-10T15:07:32Z</time>
      </trkpt>
      <trkpt lat="48.67842" lon="-4.03952">
        <ele>25</ele>
        <time>2022-06-10T15:07:33Z</time>
      </trkpt>
      <trkpt lat="48.67842" lon="-4.03952">
        <ele>25</ele>
        <time>2022-06-10T15:07:34Z</time>
      </trkpt>
      <trkpt lat="48.67842" lon="-4.03952">
        <ele>25</ele>
        <time>2022-06-10T15:07:35Z</time>
      </trkpt>
      <trkpt lat="48.67842" lon="-4.03952">
        <ele>25</ele>
        <time>2022-06-10T15:07:36Z</time>
      </trkpt>
      <trkpt lat="48.67842" lon="-4.03952">
        <ele>25</ele>
        <time>2022-06-10T15:07:37Z</time>
      </trkpt>
      <trkpt lat="48.67842" lon="-4.03952">
        <ele>25</ele>
        <time>2022-06-10T15:07:38Z</time>
      </trkpt>
      <trkpt lat="48.67842" lon="-4.03952">
        <ele>25</ele>
        <time>2022-06-10T15:07:39Z</time>
      </trkpt>
      <trkpt lat="48.67842" lon="-4.03952">
        <ele>25</ele>
        <time>2022-06-10T15:07:40Z</time>
      </trkpt>
      <trkpt lat="48.67842" lon="-4.03952">
        <ele>25</ele>
        <time>2022-06-10T15:07:41Z</time>
      </trkpt>
      <trkpt lat="48.67842" lon="-4.03952">
        <ele>25</ele>
        <time>2022-06-10T15:07:42Z</time>
      </trkpt>
      <trkpt lat="48.67842" lon="-4.03952">
        <ele>25</ele>
        <time>2022-06-10T15:07:43Z</time>
      </trkpt>
      <trkpt lat="48.67842" lon="-4.03952">
        <ele>25</ele>
        <time>2022-06-10T15:07:44Z</time>
      </trkpt>
      <trkpt lat="48.67842" lon="-4.03952">
        <ele>25</ele>
        <time>2022-06-10T15:07:45Z</time>
      </trkpt>
      <trkpt lat="48.67842" lon="-4.03952">
        <ele>25</ele>
        <time>2022-06-10T15:07:46Z</time>
      </trkpt>
      <trkpt lat="48.67842" lon="-4.03952">
        <ele>25</ele>
        <time>2022-06-10T15:07:47Z</time>
      </trkpt>
      <trkpt lat="48.67842" lon="-4.03952">
        <ele>25</ele>
        <time>2022-06-10T15:07:48Z</time>
      </trkpt>
      <trkpt lat="48.67842" lon="-4.03952">
        <ele>25</ele>
        <time>2022-06-10T15:07:49Z</time>
      </trkpt>
      <trkpt lat="48.67842" lon="-4.03952">
        <ele>25</ele>
        <time>2022-06-10T15:07:50Z</time>
      </trkpt>
      <trkpt lat="48.67842" lon="-4.03952">
        <ele>25</ele>
        <time>2022-06-10T15:07:51Z</time>
      </trkpt>
      <trkpt lat="48.67842" lon="-4.03952">
        <ele>25</ele>
        <time>2022-06-10T15:07:52Z</time>
      </trkpt>
      <trkpt lat="48.67842" lon="-4.03952">
        <ele>25</ele>
        <time>2022-06-10T15:07:53Z</time>
      </trkpt>
      <trkpt lat="48.67842" lon="-4.03952">
        <ele>25</ele>
        <time>2022-06-10T15:07:54Z</time>
      </trkpt>
      <trkpt lat="48.67842" lon="-4.03952">
        <ele>25</ele>
        <time>2022-06-10T15:07:55Z</time>
      </trkpt>
      <trkpt lat="48.67842" lon="-4.03952">
        <ele>25</ele>
        <time>2022-06-10T15:07:56Z</time>
      </trkpt>
      <trkpt lat="48.67842" lon="-4.03952">
        <ele>25</ele>
        <time>2022-06-10T15:07:57Z</time>
      </trkpt>
      <trkpt lat="48.67842" lon="-4.03952">
        <ele>25</ele>
        <time>2022-06-10T15:07:58Z</time>
      </trkpt>
      <trkpt lat="48.67842" lon="-4.03949">
        <ele>24.9</ele>
        <time>2022-06-10T15:07:59Z</time>
      </trkpt>
      <trkpt lat="48.67843" lon="-4.03951">
        <ele>24.9</ele>
        <time>2022-06-10T15:08:00Z</time>
      </trkpt>
      <trkpt lat="48.67843" lon="-4.0395">
        <ele>24.8</ele>
        <time>2022-06-10T15:08:01Z</time>
      </trkpt>
      <trkpt lat="48.67843" lon="-4.03948">
        <ele>24.8</ele>
        <time>2022-06-10T15:08:02Z</time>
      </trkpt>
      <trkpt lat="48.67844" lon="-4.03947">
        <ele>24.8</ele>
        <time>2022-06-10T15:08:03Z</time>
      </trkpt>
      <trkpt lat="48.67844" lon="-4.03946">
        <ele>24.8</ele>
        <time>2022-06-10T15:08:04Z</time>
      </trkpt>
      <trkpt lat="48.67845" lon="-4.03945">
        <ele>24.7</ele>
        <time>2022-06-10T15:08:05Z</time>
      </trkpt>
      <trkpt lat="48.67845" lon="-4.03944">
        <ele>24.7</ele>
        <time>2022-06-10T15:08:06Z</time>
      </trkpt>
      <trkpt lat="48.67847" lon="-4.03942">
        <ele>24.6</ele>
        <time>2022-06-10T15:08:08Z</time>
      </trkpt>
      <trkpt lat="48.67848" lon="-4.03941">
        <ele>24.6</ele>
        <time>2022-06-10T15:08:09Z</time>
      </trkpt>
      <trkpt lat="48.67848" lon="-4.03941">
        <ele>24.5</ele>
        <time>2022-06-10T15:08:10Z</time>
      </trkpt>
      <trkpt lat="48.67849" lon="-4.03941">
        <ele>24.5</ele>
        <time>2022-06-10T15:08:11Z</time>
      </trkpt>
      <trkpt lat="48.67849" lon="-4.03941">
        <ele>24.5</ele>
        <time>2022-06-10T15:08:12Z</time>
      </trkpt>
      <trkpt lat="48.6785" lon="-4.0394">
        <ele>24.5</ele>
        <time>2022-06-10T15:08:13Z</time>
      </trkpt>
      <trkpt lat="48.67851" lon="-4.0394">
        <ele>24.4</ele>
        <time>2022-06-10T15:08:14Z</time>
      </trkpt>
      <trkpt lat="48.67851" lon="-4.03939">
        <ele>24.4</ele>
        <time>2022-06-10T15:08:16Z</time>
      </trkpt>
      <trkpt lat="48.67852" lon="-4.03939">
        <ele>24.4</ele>
        <time>2022-06-10T15:08:17Z</time>
      </trkpt>
      <trkpt lat="48.67852" lon="-4.03939">
        <ele>24.3</ele>
        <time>2022-06-10T15:08:19Z</time>
      </trkpt>
      <trkpt lat="48.67853" lon="-4.0394">
        <ele>24.3</ele>
        <time>2022-06-10T15:08:20Z</time>
      </trkpt>
      <trkpt lat="48.67853" lon="-4.0394">
        <ele>24.3</ele>
        <time>2022-06-10T15:08:21Z</time>
      </trkpt>
      <trkpt lat="48.67853" lon="-4.03941">
        <ele>24.2</ele>
        <time>2022-06-10T15:08:23Z</time>
      </trkpt>
      <trkpt lat="48.67853" lon="-4.03941">
        <ele>24.2</ele>
        <time>2022-06-10T15:08:24Z</time>
      </trkpt>
      <trkpt lat="48.67853" lon="-4.03941">
        <ele>24.2</ele>
        <time>2022-06-10T15:08:25Z</time>
      </trkpt>
      <trkpt lat="48.67853" lon="-4.03941">
        <ele>24.2</ele>
        <time>2022-06-10T15:08:26Z</time>
      </trkpt>
      <trkpt lat="48.67854" lon="-4.03941">
        <ele>24.2</ele>
        <time>2022-06-10T15:08:27Z</time>
      </trkpt>
      <trkpt lat="48.67855" lon="-4.0394">
        <ele>24.1</ele>
        <time>2022-06-10T15:08:28Z</time>
      </trkpt>
      <trkpt lat="48.67856" lon="-4.0394">
        <ele>24.1</ele>
        <time>2022-06-10T15:08:29Z</time>
      </trkpt>
      <trkpt lat="48.67858" lon="-4.03939">
        <ele>24</ele>
        <time>2022-06-10T15:08:31Z</time>
      </trkpt>
      <trkpt lat="48.67859" lon="-4.03939">
        <ele>23.9</ele>
        <time>2022-06-10T15:08:32Z</time>
      </trkpt>
      <trkpt lat="48.6786" lon="-4.03939">
        <ele>23.9</ele>
        <time>2022-06-10T15:08:33Z</time>
      </trkpt>
      <trkpt lat="48.67861" lon="-4.03938">
        <ele>23.8</ele>
        <time>2022-06-10T15:08:35Z</time>
      </trkpt>
      <trkpt lat="48.67862" lon="-4.03939">
        <ele>23.8</ele>
        <time>2022-06-10T15:08:36Z</time>
      </trkpt>
      <trkpt lat="48.67862" lon="-4.03939">
        <ele>23.8</ele>
        <time>2022-06-10T15:08:37Z</time>
      </trkpt>
      <trkpt lat="48.67863" lon="-4.03939">
        <ele>23.7</ele>
        <time>2022-06-10T15:08:38Z</time>
      </trkpt>
      <trkpt lat="48.67863" lon="-4.03939">
        <ele>23.7</ele>
        <time>2022-06-10T15:08:39Z</time>
      </trkpt>
      <trkpt lat="48.67864" lon="-4.03938">
        <ele>23.7</ele>
        <time>2022-06-10T15:08:41Z</time>
      </trkpt>
      <trkpt lat="48.67864" lon="-4.03938">
        <ele>23.7</ele>
        <time>2022-06-10T15:08:42Z</time>
      </trkpt>
      <trkpt lat="48.67864" lon="-4.03938">
        <ele>23.7</ele>
        <time>2022-06-10T15:08:43Z</time>
      </trkpt>
      <trkpt lat="48.67864" lon="-4.03939">
        <ele>23.7</ele>
        <time>2022-06-10T15:08:44Z</time>
      </trkpt>
      <trkpt lat="48.67863" lon="-4.03939">
        <ele>23.6</ele>
        <time>2022-06-10T15:08:45Z</time>
      </trkpt>
      <trkpt lat="48.67863" lon="-4.0394">
        <ele>23.6</ele>
        <time>2022-06-10T15:08:46Z</time>
      </trkpt>
      <trkpt lat="48.67863" lon="-4.0394">
        <ele>23.6</ele>
        <time>2022-06-10T15:08:47Z</time>
      </trkpt>
      <trkpt lat="48.67863" lon="-4.03941">
        <ele>23.6</ele>
        <time>2022-06-10T15:08:48Z</time>
      </trkpt>
      <trkpt lat="48.67863" lon="-4.03941">
        <ele>23.6</ele>
        <time>2022-06-10T15:08:49Z</time>
      </trkpt>
      <trkpt lat="48.67863" lon="-4.03941">
        <ele>23.6</ele>
        <time>2022-06-10T15:08:50Z</time>
      </trkpt>
      <trkpt lat="48.67862" lon="-4.03941">
        <ele>23.6</ele>
        <time>2022-06-10T15:08:51Z</time>
      </trkpt>
      <trkpt lat="48.67862" lon="-4.03941">
        <ele>23.5</ele>
        <time>2022-06-10T15:08:52Z</time>
      </trkpt>
      <trkpt lat="48.67862" lon="-4.0394">
        <ele>23.5</ele>
        <time>2022-06-10T15:08:54Z</time>
      </trkpt>
      <trkpt lat="48.67863" lon="-4.03939">
        <ele>23.5</ele>
        <time>2022-06-10T15:08:55Z</time>
      </trkpt>
      <trkpt lat="48.67864" lon="-4.03938">
        <ele>23.4</ele>
        <time>2022-06-10T15:08:56Z</time>
      </trkpt>
      <trkpt lat="48.67865" lon="-4.03936">
        <ele>23.4</ele>
        <time>2022-06-10T15:08:57Z</time>
      </trkpt>
      <trkpt lat="48.67866" lon="-4.03935">
        <ele>23.3</ele>
        <time>2022-06-10T15:08:59Z</time>
      </trkpt>
      <trkpt lat="48.67867" lon="-4.03933">
        <ele>23.3</ele>
        <time>2022-06-10T15:09:00Z</time>
      </trkpt>
      <trkpt lat="48.67867" lon="-4.03932">
        <ele>23.2</ele>
        <time>2022-06-10T15:09:01Z</time>
      </trkpt>
      <trkpt lat="48.67868" lon="-4.03931">
        <ele>23.2</ele>
        <time>2022-06-10T15:09:02Z</time>
      </trkpt>
      <trkpt lat="48.67869" lon="-4.03929">
        <ele>23.2</ele>
        <time>2022-06-10T15:09:04Z</time>
      </trkpt>
      <trkpt lat="48.67869" lon="-4.03929">
        <ele>23.1</ele>
        <time>2022-06-10T15:09:05Z</time>
      </trkpt>
      <trkpt lat="48.6787" lon="-4.03928">
        <ele>23.1</ele>
        <time>2022-06-10T15:09:06Z</time>
      </trkpt>
      <trkpt lat="48.6787" lon="-4.03928">
        <ele>23.1</ele>
        <time>2022-06-10T15:09:07Z</time>
      </trkpt>
      <trkpt lat="48.67871" lon="-4.03927">
        <ele>23.1</ele>
        <time>2022-06-10T15:09:09Z</time>
      </trkpt>
      <trkpt lat="48.67871" lon="-4.03926">
        <ele>23.1</ele>
        <time>2022-06-10T15:09:10Z</time>
      </trkpt>
      <trkpt lat="48.67871" lon="-4.03926">
        <ele>23.1</ele>
        <time>2022-06-10T15:09:11Z</time>
      </trkpt>
      <trkpt lat="48.67871" lon="-4.03926">
        <ele>23.1</ele>
        <time>2022-06-10T15:09:12Z</time>
      </trkpt>
      <trkpt lat="48.67871" lon="-4.03926">
        <ele>23</ele>
        <time>2022-06-10T15:09:13Z</time>
      </trkpt>
      <trkpt lat="48.6787" lon="-4.03926">
        <ele>23</ele>
        <time>2022-06-10T15:09:15Z</time>
      </trkpt>
      <trkpt lat="48.6787" lon="-4.03925">
        <ele>23</ele>
        <time>2022-06-10T15:09:16Z</time>
      </trkpt>
      <trkpt lat="48.67871" lon="-4.03924">
        <ele>23</ele>
        <time>2022-06-10T15:09:17Z</time>
      </trkpt>
      <trkpt lat="48.67871" lon="-4.03922">
        <ele>23</ele>
        <time>2022-06-10T15:09:19Z</time>
      </trkpt>
      <trkpt lat="48.67871" lon="-4.03921">
        <ele>22.9</ele>
        <time>2022-06-10T15:09:20Z</time>
      </trkpt>
      <trkpt lat="48.67871" lon="-4.03919">
        <ele>22.9</ele>
        <time>2022-06-10T15:09:21Z</time>
      </trkpt>
      <trkpt lat="48.67871" lon="-4.03918">
        <ele>22.9</ele>
        <time>2022-06-10T15:09:22Z</time>
      </trkpt>
      <trkpt lat="48.67871" lon="-4.03917">
        <ele>22.9</ele>
        <time>2022-06-10T15:09:23Z</time>
      </trkpt>
      <trkpt lat="48.67871" lon="-4.03916">
        <ele>22.9</ele>
        <time>2022-06-10T15:09:24Z</time>
      </trkpt>
      <trkpt lat="48.67871" lon="-4.03915">
        <ele>22.8</ele>
        <time>2022-06-10T15:09:25Z</time>
      </trkpt>
      <trkpt lat="48.67871" lon="-4.03913">
        <ele>22.8</ele>
        <time>2022-06-10T15:09:27Z</time>
      </trkpt>
      <trkpt lat="48.67872" lon="-4.03912">
        <ele>22.8</ele>
        <time>2022-06-10T15:09:28Z</time>
      </trkpt>
      <trkpt lat="48.67872" lon="-4.03911">
        <ele>22.8</ele>
        <time>2022-06-10T15:09:29Z</time>
      </trkpt>
      <trkpt lat="48.67872" lon="-4.0391">
        <ele>22.8</ele>
        <time>2022-06-10T15:09:30Z</time>
      </trkpt>
      <trkpt lat="48.67872" lon="-4.03909">
        <ele>22.7</ele>
        <time>2022-06-10T15:09:31Z</time>
      </trkpt>
      <trkpt lat="48.67872" lon="-4.03908">
        <ele>22.7</ele>
        <time>2022-06-10T15:09:32Z</time>
      </trkpt>
      <trkpt lat="48.67873" lon="-4.03907">
        <ele>22.7</ele>
        <time>2022-06-10T15:09:33Z</time>
      </trkpt>
      <trkpt lat="48.67873" lon="-4.03906">
        <ele>22.7</ele>
        <time>2022-06-10T15:09:34Z</time>
      </trkpt>
      <trkpt lat="48.67873" lon="-4.03904">
        <ele>22.7</ele>
        <time>2022-06-10T15:09:35Z</time>
      </trkpt>
      <trkpt lat="48.67873" lon="-4.03902">
        <ele>22.6</ele>
        <time>2022-06-10T15:09:36Z</time>
      </trkpt>
      <trkpt lat="48.67874" lon="-4.03901">
        <ele>22.6</ele>
        <time>2022-06-10T15:09:37Z</time>
      </trkpt>
      <trkpt lat="48.67875" lon="-4.03896">
        <ele>22.5</ele>
        <time>2022-06-10T15:09:38Z</time>
      </trkpt>
      <trkpt lat="48.67875" lon="-4.03894">
        <ele>22.5</ele>
        <time>2022-06-10T15:09:40Z</time>
      </trkpt>
      <trkpt lat="48.67875" lon="-4.03893">
        <ele>22.5</ele>
        <time>2022-06-10T15:09:41Z</time>
      </trkpt>
      <trkpt lat="48.67876" lon="-4.03891">
        <ele>22.4</ele>
        <time>2022-06-10T15:09:42Z</time>
      </trkpt>
      <trkpt lat="48.67876" lon="-4.0389">
        <ele>22.4</ele>
        <time>2022-06-10T15:09:43Z</time>
      </trkpt>
      <trkpt lat="48.67877" lon="-4.03888">
        <ele>22.4</ele>
        <time>2022-06-10T15:09:44Z</time>
      </trkpt>
      <trkpt lat="48.67877" lon="-4.03887">
        <ele>22.4</ele>
        <time>2022-06-10T15:09:46Z</time>
      </trkpt>
      <trkpt lat="48.67878" lon="-4.03885">
        <ele>22.4</ele>
        <time>2022-06-10T15:09:47Z</time>
      </trkpt>
      <trkpt lat="48.67879" lon="-4.03884">
        <ele>22.3</ele>
        <time>2022-06-10T15:09:48Z</time>
      </trkpt>
      <trkpt lat="48.67879" lon="-4.03883">
        <ele>22.3</ele>
        <time>2022-06-10T15:09:49Z</time>
      </trkpt>
      <trkpt lat="48.6788" lon="-4.03881">
        <ele>22.3</ele>
        <time>2022-06-10T15:09:51Z</time>
      </trkpt>
      <trkpt lat="48.67881" lon="-4.0388">
        <ele>22.3</ele>
        <time>2022-06-10T15:09:52Z</time>
      </trkpt>
      <trkpt lat="48.67881" lon="-4.03878">
        <ele>22.2</ele>
        <time>2022-06-10T15:09:53Z</time>
      </trkpt>
      <trkpt lat="48.67882" lon="-4.03877">
        <ele>22.2</ele>
        <time>2022-06-10T15:09:54Z</time>
      </trkpt>
      <trkpt lat="48.67883" lon="-4.03875">
        <ele>22.2</ele>
        <time>2022-06-10T15:09:55Z</time>
      </trkpt>
      <trkpt lat="48.67884" lon="-4.03874">
        <ele>22.2</ele>
        <time>2022-06-10T15:09:56Z</time>
      </trkpt>
      <trkpt lat="48.67885" lon="-4.03873">
        <ele>22.2</ele>
        <time>2022-06-10T15:09:58Z</time>
      </trkpt>
      <trkpt lat="48.67886" lon="-4.03871">
        <ele>22.1</ele>
        <time>2022-06-10T15:09:59Z</time>
      </trkpt>
      <trkpt lat="48.67886" lon="-4.03869">
        <ele>22.1</ele>
        <time>2022-06-10T15:10:00Z</time>
      </trkpt>
      <trkpt lat="48.67887" lon="-4.03869">
        <ele>22.1</ele>
        <time>2022-06-10T15:10:01Z</time>
      </trkpt>
      <trkpt lat="48.67887" lon="-4.03869">
        <ele>22.1</ele>
        <time>2022-06-10T15:10:03Z</time>
      </trkpt>
      <trkpt lat="48.67888" lon="-4.03868">
        <ele>22.1</ele>
        <time>2022-06-10T15:10:04Z</time>
      </trkpt>
      <trkpt lat="48.67889" lon="-4.03867">
        <ele>22.1</ele>
        <time>2022-06-10T15:10:05Z</time>
      </trkpt>
      <trkpt lat="48.6789" lon="-4.03866">
        <ele>22.1</ele>
        <time>2022-06-10T15:10:06Z</time>
      </trkpt>
      <trkpt lat="48.67891" lon="-4.03865">
        <ele>22.1</ele>
        <time>2022-06-10T15:10:07Z</time>
      </trkpt>
      <trkpt lat="48.67893" lon="-4.03862">
        <ele>22</ele>
        <time>2022-06-10T15:10:08Z</time>
      </trkpt>
      <trkpt lat="48.67893" lon="-4.03861">
        <ele>22</ele>
        <time>2022-06-10T15:10:09Z</time>
      </trkpt>
      <trkpt lat="48.67894" lon="-4.03861">
        <ele>22</ele>
        <time>2022-06-10T15:10:10Z</time>
      </trkpt>
      <trkpt lat="48.67895" lon="-4.0386">
        <ele>22</ele>
        <time>2022-06-10T15:10:12Z</time>
      </trkpt>
      <trkpt lat="48.67895" lon="-4.0386">
        <ele>22</ele>
        <time>2022-06-10T15:10:13Z</time>
      </trkpt>
      <trkpt lat="48.67895" lon="-4.0386">
        <ele>22</ele>
        <time>2022-06-10T15:10:15Z</time>
      </trkpt>
      <trkpt lat="48.67895" lon="-4.0386">
        <ele>21.9</ele>
        <time>2022-06-10T15:10:16Z</time>
      </trkpt>
      <trkpt lat="48.67895" lon="-4.0386">
        <ele>21.9</ele>
        <time>2022-06-10T15:10:17Z</time>
      </trkpt>
      <trkpt lat="48.67895" lon="-4.0386">
        <ele>21.9</ele>
        <time>2022-06-10T15:10:19Z</time>
      </trkpt>
      <trkpt lat="48.67895" lon="-4.0386">
        <ele>21.9</ele>
        <time>2022-06-10T15:10:20Z</time>
      </trkpt>
      <trkpt lat="48.67895" lon="-4.0386">
        <ele>21.9</ele>
        <time>2022-06-10T15:10:22Z</time>
      </trkpt>
      <trkpt lat="48.67894" lon="-4.0386">
        <ele>21.9</ele>
        <time>2022-06-10T15:10:24Z</time>
      </trkpt>
      <trkpt lat="48.67894" lon="-4.0386">
        <ele>21.9</ele>
        <time>2022-06-10T15:10:25Z</time>
      </trkpt>
      <trkpt lat="48.67894" lon="-4.0386">
        <ele>21.9</ele>
        <time>2022-06-10T15:10:26Z</time>
      </trkpt>
      <trkpt lat="48.67894" lon="-4.0386">
        <ele>21.9</ele>
        <time>2022-06-10T15:10:27Z</time>
      </trkpt>
      <trkpt lat="48.67894" lon="-4.0386">
        <ele>21.9</ele>
        <time>2022-06-10T15:10:28Z</time>
      </trkpt>
      <trkpt lat="48.67894" lon="-4.0386">
        <ele>21.9</ele>
        <time>2022-06-10T15:10:29Z</time>
      </trkpt>
      <trkpt lat="48.67894" lon="-4.0386">
        <ele>21.9</ele>
        <time>2022-06-10T15:10:30Z</time>
      </trkpt>
      <trkpt lat="48.67894" lon="-4.0386">
        <ele>21.9</ele>
        <time>2022-06-10T15:10:31Z</time>
      </trkpt>
      <trkpt lat="48.67894" lon="-4.0386">
        <ele>21.9</ele>
        <time>2022-06-10T15:10:32Z</time>
      </trkpt>
      <trkpt lat="48.67894" lon="-4.0386">
        <ele>21.9</ele>
        <time>2022-06-10T15:10:33Z</time>
      </trkpt>
      <trkpt lat="48.67894" lon="-4.03861">
        <ele>21.9</ele>
        <time>2022-06-10T15:10:34Z</time>
      </trkpt>
      <trkpt lat="48.67894" lon="-4.03861">
        <ele>21.9</ele>
        <time>2022-06-10T15:10:35Z</time>
      </trkpt>
      <trkpt lat="48.67894" lon="-4.03861">
        <ele>21.9</ele>
        <time>2022-06-10T15:10:36Z</time>
      </trkpt>
      <trkpt lat="48.67894" lon="-4.03861">
        <ele>21.9</ele>
        <time>2022-06-10T15:10:37Z</time>
      </trkpt>
      <trkpt lat="48.67894" lon="-4.03861">
        <ele>21.9</ele>
        <time>2022-06-10T15:10:38Z</time>
      </trkpt>
      <trkpt lat="48.67894" lon="-4.03861">
        <ele>21.9</ele>
        <time>2022-06-10T15:10:39Z</time>
      </trkpt>
      <trkpt lat="48.67894" lon="-4.03861">
        <ele>21.9</ele>
        <time>2022-06-10T15:10:40Z</time>
      </trkpt>
      <trkpt lat="48.67894" lon="-4.03861">
        <ele>21.9</ele>
        <time>2022-06-10T15:10:41Z</time>
      </trkpt>
      <trkpt lat="48.67894" lon="-4.03861">
        <ele>21.9</ele>
        <time>2022-06-10T15:10:42Z</time>
      </trkpt>
      <trkpt lat="48.67894" lon="-4.03861">
        <ele>21.9</ele>
        <time>2022-06-10T15:10:43Z</time>
      </trkpt>
      <trkpt lat="48.67894" lon="-4.03861">
        <ele>21.9</ele>
        <time>2022-06-10T15:10:44Z</time>
      </trkpt>
      <trkpt lat="48.67894" lon="-4.03861">
        <ele>21.9</ele>
        <time>2022-06-10T15:10:45Z</time>
      </trkpt>
      <trkpt lat="48.67894" lon="-4.03861">
        <ele>21.9</ele>
        <time>2022-06-10T15:10:46Z</time>
      </trkpt>
      <trkpt lat="48.67894" lon="-4.03861">
        <ele>21.9</ele>
        <time>2022-06-10T15:10:47Z</time>
      </trkpt>
      <trkpt lat="48.67894" lon="-4.03861">
        <ele>21.9</ele>
        <time>2022-06-10T15:10:48Z</time>
      </trkpt>
      <trkpt lat="48.67894" lon="-4.03861">
        <ele>21.9</ele>
        <time>2022-06-10T15:10:49Z</time>
      </trkpt>
      <trkpt lat="48.67894" lon="-4.03861">
        <ele>21.9</ele>
        <time>2022-06-10T15:10:50Z</time>
      </trkpt>
      <trkpt lat="48.67894" lon="-4.03862">
        <ele>21.9</ele>
        <time>2022-06-10T15:10:51Z</time>
      </trkpt>
      <trkpt lat="48.67894" lon="-4.03862">
        <ele>21.9</ele>
        <time>2022-06-10T15:10:52Z</time>
      </trkpt>
      <trkpt lat="48.67894" lon="-4.03862">
        <ele>21.9</ele>
        <time>2022-06-10T15:10:53Z</time>
      </trkpt>
      <trkpt lat="48.67894" lon="-4.03862">
        <ele>21.9</ele>
        <time>2022-06-10T15:10:54Z</time>
      </trkpt>
      <trkpt lat="48.67894" lon="-4.03862">
        <ele>21.9</ele>
        <time>2022-06-10T15:10:55Z</time>
      </trkpt>
      <trkpt lat="48.67894" lon="-4.03862">
        <ele>21.9</ele>
        <time>2022-06-10T15:10:56Z</time>
      </trkpt>
      <trkpt lat="48.67894" lon="-4.03862">
        <ele>21.9</ele>
        <time>2022-06-10T15:10:57Z</time>
      </trkpt>
      <trkpt lat="48.67894" lon="-4.03862">
        <ele>21.9</ele>
        <time>2022-06-10T15:10:58Z</time>
      </trkpt>
      <trkpt lat="48.67894" lon="-4.03862">
        <ele>21.9</ele>
        <time>2022-06-10T15:10:59Z</time>
      </trkpt>
      <trkpt lat="48.67894" lon="-4.03862">
        <ele>21.9</ele>
        <time>2022-06-10T15:11:00Z</time>
      </trkpt>
      <trkpt lat="48.67894" lon="-4.03862">
        <ele>21.9</ele>
        <time>2022-06-10T15:11:01Z</time>
      </trkpt>
      <trkpt lat="48.67894" lon="-4.03861">
        <ele>21.9</ele>
        <time>2022-06-10T15:11:02Z</time>
      </trkpt>
      <trkpt lat="48.67894" lon="-4.03861">
        <ele>21.9</ele>
        <time>2022-06-10T15:11:03Z</time>
      </trkpt>
      <trkpt lat="48.67894" lon="-4.0386">
        <ele>21.9</ele>
        <time>2022-06-10T15:11:04Z</time>
      </trkpt>
      <trkpt lat="48.67894" lon="-4.0386">
        <ele>21.9</ele>
        <time>2022-06-10T15:11:05Z</time>
      </trkpt>
      <trkpt lat="48.67893" lon="-4.0386">
        <ele>21.8</ele>
        <time>2022-06-10T15:11:07Z</time>
      </trkpt>
      <trkpt lat="48.67893" lon="-4.03859">
        <ele>21.8</ele>
        <time>2022-06-10T15:11:08Z</time>
      </trkpt>
      <trkpt lat="48.67893" lon="-4.03858">
        <ele>21.8</ele>
        <time>2022-06-10T15:11:09Z</time>
      </trkpt>
      <trkpt lat="48.67893" lon="-4.03858">
        <ele>21.8</ele>
        <time>2022-06-10T15:11:10Z</time>
      </trkpt>
      <trkpt lat="48.67893" lon="-4.03858">
        <ele>21.8</ele>
        <time>2022-06-10T15:11:11Z</time>
      </trkpt>
      <trkpt lat="48.67894" lon="-4.03857">
        <ele>21.8</ele>
        <time>2022-06-10T15:11:12Z</time>
      </trkpt>
      <trkpt lat="48.67894" lon="-4.03857">
        <ele>21.7</ele>
        <time>2022-06-10T15:11:13Z</time>
      </trkpt>
      <trkpt lat="48.67895" lon="-4.03856">
        <ele>21.7</ele>
        <time>2022-06-10T15:11:14Z</time>
      </trkpt>
      <trkpt lat="48.67895" lon="-4.03855">
        <ele>21.7</ele>
        <time>2022-06-10T15:11:15Z</time>
      </trkpt>
      <trkpt lat="48.67895" lon="-4.03855">
        <ele>21.7</ele>
        <time>2022-06-10T15:11:16Z</time>
      </trkpt>
      <trkpt lat="48.67895" lon="-4.03855">
        <ele>21.7</ele>
        <time>2022-06-10T15:11:17Z</time>
      </trkpt>
      <trkpt lat="48.67896" lon="-4.03854">
        <ele>21.7</ele>
        <time>2022-06-10T15:11:18Z</time>
      </trkpt>
      <trkpt lat="48.67896" lon="-4.03854">
        <ele>21.7</ele>
        <time>2022-06-10T15:11:19Z</time>
      </trkpt>
      <trkpt lat="48.67897" lon="-4.03853">
        <ele>21.6</ele>
        <time>2022-06-10T15:11:20Z</time>
      </trkpt>
      <trkpt lat="48.67897" lon="-4.03853">
        <ele>21.6</ele>
        <time>2022-06-10T15:11:21Z</time>
      </trkpt>
      <trkpt lat="48.67897" lon="-4.03853">
        <ele>21.6</ele>
        <time>2022-06-10T15:11:22Z</time>
      </trkpt>
      <trkpt lat="48.67897" lon="-4.03853">
        <ele>21.6</ele>
        <time>2022-06-10T15:11:23Z</time>
      </trkpt>
      <trkpt lat="48.67897" lon="-4.03853">
        <ele>21.6</ele>
        <time>2022-06-10T15:11:24Z</time>
      </trkpt>
      <trkpt lat="48.67897" lon="-4.03853">
        <ele>21.6</ele>
        <time>2022-06-10T15:11:25Z</time>
      </trkpt>
      <trkpt lat="48.67897" lon="-4.03853">
        <ele>21.6</ele>
        <time>2022-06-10T15:11:26Z</time>
      </trkpt>
      <trkpt lat="48.67897" lon="-4.03853">
        <ele>21.6</ele>
        <time>2022-06-10T15:11:27Z</time>
      </trkpt>
      <trkpt lat="48.67897" lon="-4.03853">
        <ele>21.6</ele>
        <time>2022-06-10T15:11:28Z</time>
      </trkpt>
      <trkpt lat="48.67897" lon="-4.03853">
        <ele>21.6</ele>
        <time>2022-06-10T15:11:29Z</time>
      </trkpt>
      <trkpt lat="48.67897" lon="-4.03853">
        <ele>21.6</ele>
        <time>2022-06-10T15:11:30Z</time>
      </trkpt>
      <trkpt lat="48.67897" lon="-4.03853">
        <ele>21.6</ele>
        <time>2022-06-10T15:11:31Z</time>
      </trkpt>
      <trkpt lat="48.67897" lon="-4.03853">
        <ele>21.6</ele>
        <time>2022-06-10T15:11:32Z</time>
      </trkpt>
      <trkpt lat="48.67897" lon="-4.03853">
        <ele>21.6</ele>
        <time>2022-06-10T15:11:33Z</time>
      </trkpt>
      <trkpt lat="48.67897" lon="-4.03853">
        <ele>21.6</ele>
        <time>2022-06-10T15:11:34Z</time>
      </trkpt>
      <trkpt lat="48.67897" lon="-4.03853">
        <ele>21.6</ele>
        <time>2022-06-10T15:11:35Z</time>
      </trkpt>
      <trkpt lat="48.67897" lon="-4.03852">
        <ele>21.6</ele>
        <time>2022-06-10T15:11:36Z</time>
      </trkpt>
      <trkpt lat="48.67897" lon="-4.03852">
        <ele>21.6</ele>
        <time>2022-06-10T15:11:38Z</time>
      </trkpt>
      <trkpt lat="48.67897" lon="-4.03852">
        <ele>21.6</ele>
        <time>2022-06-10T15:11:39Z</time>
      </trkpt>
      <trkpt lat="48.67897" lon="-4.03852">
        <ele>21.6</ele>
        <time>2022-06-10T15:11:41Z</time>
      </trkpt>
      <trkpt lat="48.67897" lon="-4.03851">
        <ele>21.6</ele>
        <time>2022-06-10T15:11:42Z</time>
      </trkpt>
      <trkpt lat="48.67898" lon="-4.03851">
        <ele>21.6</ele>
        <time>2022-06-10T15:11:43Z</time>
      </trkpt>
      <trkpt lat="48.67898" lon="-4.03849">
        <ele>21.5</ele>
        <time>2022-06-10T15:11:44Z</time>
      </trkpt>
      <trkpt lat="48.67899" lon="-4.03849">
        <ele>21.5</ele>
        <time>2022-06-10T15:11:45Z</time>
      </trkpt>
      <trkpt lat="48.679" lon="-4.03847">
        <ele>21.4</ele>
        <time>2022-06-10T15:11:47Z</time>
      </trkpt>
      <trkpt lat="48.679" lon="-4.03846">
        <ele>21.4</ele>
        <time>2022-06-10T15:11:48Z</time>
      </trkpt>
      <trkpt lat="48.67901" lon="-4.03845">
        <ele>21.4</ele>
        <time>2022-06-10T15:11:49Z</time>
      </trkpt>
      <trkpt lat="48.67901" lon="-4.03844">
        <ele>21.4</ele>
        <time>2022-06-10T15:11:50Z</time>
      </trkpt>
      <trkpt lat="48.67901" lon="-4.03844">
        <ele>21.4</ele>
        <time>2022-06-10T15:11:52Z</time>
      </trkpt>
      <trkpt lat="48.67902" lon="-4.03843">
        <ele>21.3</ele>
        <time>2022-06-10T15:11:53Z</time>
      </trkpt>
      <trkpt lat="48.67902" lon="-4.03842">
        <ele>21.3</ele>
        <time>2022-06-10T15:11:54Z</time>
      </trkpt>
      <trkpt lat="48.67903" lon="-4.0384">
        <ele>21.3</ele>
        <time>2022-06-10T15:11:55Z</time>
      </trkpt>
      <trkpt lat="48.67903" lon="-4.0384">
        <ele>21.2</ele>
        <time>2022-06-10T15:11:56Z</time>
      </trkpt>
      <trkpt lat="48.67904" lon="-4.03839">
        <ele>21.2</ele>
        <time>2022-06-10T15:11:57Z</time>
      </trkpt>
      <trkpt lat="48.67905" lon="-4.03838">
        <ele>21.2</ele>
        <time>2022-06-10T15:11:59Z</time>
      </trkpt>
      <trkpt lat="48.67905" lon="-4.03838">
        <ele>21.2</ele>
        <time>2022-06-10T15:12:00Z</time>
      </trkpt>
      <trkpt lat="48.67905" lon="-4.03837">
        <ele>21.2</ele>
        <time>2022-06-10T15:12:01Z</time>
      </trkpt>
      <trkpt lat="48.67906" lon="-4.03837">
        <ele>21.1</ele>
        <time>2022-06-10T15:12:02Z</time>
      </trkpt>
      <trkpt lat="48.67907" lon="-4.03837">
        <ele>21.1</ele>
        <time>2022-06-10T15:12:03Z</time>
      </trkpt>
      <trkpt lat="48.67908" lon="-4.03836">
        <ele>21.1</ele>
        <time>2022-06-10T15:12:04Z</time>
      </trkpt>
      <trkpt lat="48.67909" lon="-4.03835">
        <ele>21</ele>
        <time>2022-06-10T15:12:06Z</time>
      </trkpt>
      <trkpt lat="48.6791" lon="-4.03834">
        <ele>21</ele>
        <time>2022-06-10T15:12:07Z</time>
      </trkpt>
      <trkpt lat="48.67911" lon="-4.03834">
        <ele>21</ele>
        <time>2022-06-10T15:12:08Z</time>
      </trkpt>
      <trkpt lat="48.67911" lon="-4.03834">
        <ele>21</ele>
        <time>2022-06-10T15:12:09Z</time>
      </trkpt>
      <trkpt lat="48.67913" lon="-4.03833">
        <ele>21</ele>
        <time>2022-06-10T15:12:11Z</time>
      </trkpt>
      <trkpt lat="48.67914" lon="-4.03832">
        <ele>20.9</ele>
        <time>2022-06-10T15:12:12Z</time>
      </trkpt>
      <trkpt lat="48.67914" lon="-4.03833">
        <ele>20.9</ele>
        <time>2022-06-10T15:12:13Z</time>
      </trkpt>
      <trkpt lat="48.67914" lon="-4.03833">
        <ele>20.9</ele>
        <time>2022-06-10T15:12:15Z</time>
      </trkpt>
      <trkpt lat="48.67915" lon="-4.03832">
        <ele>20.9</ele>
        <time>2022-06-10T15:12:16Z</time>
      </trkpt>
      <trkpt lat="48.67916" lon="-4.03831">
        <ele>20.9</ele>
        <time>2022-06-10T15:12:17Z</time>
      </trkpt>
      <trkpt lat="48.67917" lon="-4.0383">
        <ele>20.9</ele>
        <time>2022-06-10T15:12:18Z</time>
      </trkpt>
      <trkpt lat="48.67918" lon="-4.03829">
        <ele>20.8</ele>
        <time>2022-06-10T15:12:19Z</time>
      </trkpt>
      <trkpt lat="48.67919" lon="-4.03828">
        <ele>20.8</ele>
        <time>2022-06-10T15:12:21Z</time>
      </trkpt>
      <trkpt lat="48.67919" lon="-4.03827">
        <ele>20.8</ele>
        <time>2022-06-10T15:12:22Z</time>
      </trkpt>
      <trkpt lat="48.6792" lon="-4.03824">
        <ele>20.7</ele>
        <time>2022-06-10T15:12:24Z</time>
      </trkpt>
      <trkpt lat="48.67921" lon="-4.03824">
        <ele>20.7</ele>
        <time>2022-06-10T15:12:25Z</time>
      </trkpt>
      <trkpt lat="48.67921" lon="-4.03823">
        <ele>20.7</ele>
        <time>2022-06-10T15:12:26Z</time>
      </trkpt>
      <trkpt lat="48.67921" lon="-4.03822">
        <ele>20.7</ele>
        <time>2022-06-10T15:12:27Z</time>
      </trkpt>
      <trkpt lat="48.67922" lon="-4.03821">
        <ele>20.7</ele>
        <time>2022-06-10T15:12:28Z</time>
      </trkpt>
      <trkpt lat="48.67923" lon="-4.0382">
        <ele>20.6</ele>
        <time>2022-06-10T15:12:29Z</time>
      </trkpt>
      <trkpt lat="48.67924" lon="-4.03819">
        <ele>20.6</ele>
        <time>2022-06-10T15:12:30Z</time>
      </trkpt>
      <trkpt lat="48.67924" lon="-4.03818">
        <ele>20.6</ele>
        <time>2022-06-10T15:12:32Z</time>
      </trkpt>
      <trkpt lat="48.67925" lon="-4.03817">
        <ele>20.6</ele>
        <time>2022-06-10T15:12:33Z</time>
      </trkpt>
      <trkpt lat="48.67926" lon="-4.03816">
        <ele>20.5</ele>
        <time>2022-06-10T15:12:34Z</time>
      </trkpt>
      <trkpt lat="48.67927" lon="-4.03813">
        <ele>20.5</ele>
        <time>2022-06-10T15:12:36Z</time>
      </trkpt>
      <trkpt lat="48.67928" lon="-4.03812">
        <ele>20.4</ele>
        <time>2022-06-10T15:12:37Z</time>
      </trkpt>
      <trkpt lat="48.67929" lon="-4.0381">
        <ele>20.4</ele>
        <time>2022-06-10T15:12:39Z</time>
      </trkpt>
      <trkpt lat="48.6793" lon="-4.03809">
        <ele>20.3</ele>
        <time>2022-06-10T15:12:40Z</time>
      </trkpt>
      <trkpt lat="48.6793" lon="-4.03808">
        <ele>20.3</ele>
        <time>2022-06-10T15:12:41Z</time>
      </trkpt>
      <trkpt lat="48.67931" lon="-4.03806">
        <ele>20.2</ele>
        <time>2022-06-10T15:12:43Z</time>
      </trkpt>
      <trkpt lat="48.67932" lon="-4.03805">
        <ele>20.2</ele>
        <time>2022-06-10T15:12:44Z</time>
      </trkpt>
      <trkpt lat="48.68006" lon="-4.03651">
        <ele>16.8</ele>
        <time>2022-06-10T15:18:04Z</time>
      </trkpt>
      <trkpt lat="48.68048" lon="-4.03594">
        <ele>16.2</ele>
        <time>2022-06-10T15:18:05Z</time>
      </trkpt>
      <trkpt lat="48.68053" lon="-4.03583">
        <ele>16.2</ele>
        <time>2022-06-10T15:18:06Z</time>
      </trkpt>
      <trkpt lat="48.68059" lon="-4.03572">
        <ele>16.2</ele>
        <time>2022-06-10T15:18:07Z</time>
      </trkpt>
      <trkpt lat="48.68059" lon="-4.03561">
        <ele>16.1</ele>
        <time>2022-06-10T15:18:09Z</time>
      </trkpt>
      <trkpt lat="48.68059" lon="-4.03558">
        <ele>16.1</ele>
        <time>2022-06-10T15:18:10Z</time>
      </trkpt>
      <trkpt lat="48.6806" lon="-4.03556">
        <ele>16</ele>
        <time>2022-06-10T15:18:11Z</time>
      </trkpt>
      <trkpt lat="48.6806" lon="-4.03552">
        <ele>16</ele>
        <time>2022-06-10T15:18:12Z</time>
      </trkpt>
      <trkpt lat="48.6806" lon="-4.03551">
        <ele>16</ele>
        <time>2022-06-10T15:18:13Z</time>
      </trkpt>
      <trkpt lat="48.6806" lon="-4.03549">
        <ele>16</ele>
        <time>2022-06-10T15:18:14Z</time>
      </trkpt>
      <trkpt lat="48.6806" lon="-4.03548">
        <ele>16</ele>
        <time>2022-06-10T15:18:15Z</time>
      </trkpt>
      <trkpt lat="48.6806" lon="-4.03549">
        <ele>15.9</ele>
        <time>2022-06-10T15:18:16Z</time>
      </trkpt>
      <trkpt lat="48.6806" lon="-4.03549">
        <ele>15.9</ele>
        <time>2022-06-10T15:18:17Z</time>
      </trkpt>
      <trkpt lat="48.6806" lon="-4.03549">
        <ele>15.9</ele>
        <time>2022-06-10T15:18:18Z</time>
      </trkpt>
      <trkpt lat="48.6806" lon="-4.03549">
        <ele>15.9</ele>
        <time>2022-06-10T15:18:19Z</time>
      </trkpt>
      <trkpt lat="48.6806" lon="-4.03549">
        <ele>15.9</ele>
        <time>2022-06-10T15:18:20Z</time>
      </trkpt>
      <trkpt lat="48.6806" lon="-4.03549">
        <ele>15.9</ele>
        <time>2022-06-10T15:18:21Z</time>
      </trkpt>
      <trkpt lat="48.6806" lon="-4.03549">
        <ele>15.9</ele>
        <time>2022-06-10T15:18:22Z</time>
      </trkpt>
      <trkpt lat="48.68061" lon="-4.03549">
        <ele>15.9</ele>
        <time>2022-06-10T15:18:23Z</time>
      </trkpt>
      <trkpt lat="48.68061" lon="-4.03549">
        <ele>15.9</ele>
        <time>2022-06-10T15:18:24Z</time>
      </trkpt>
      <trkpt lat="48.68061" lon="-4.03549">
        <ele>15.9</ele>
        <time>2022-06-10T15:18:25Z</time>
      </trkpt>
      <trkpt lat="48.68061" lon="-4.03549">
        <ele>15.9</ele>
        <time>2022-06-10T15:18:26Z</time>
      </trkpt>
      <trkpt lat="48.68061" lon="-4.03549">
        <ele>15.9</ele>
        <time>2022-06-10T15:18:27Z</time>
      </trkpt>
      <trkpt lat="48.68061" lon="-4.03549">
        <ele>15.9</ele>
        <time>2022-06-10T15:18:28Z</time>
      </trkpt>
      <trkpt lat="48.68061" lon="-4.03549">
        <ele>15.9</ele>
        <time>2022-06-10T15:18:29Z</time>
      </trkpt>
      <trkpt lat="48.68061" lon="-4.03549">
        <ele>15.9</ele>
        <time>2022-06-10T15:18:30Z</time>
      </trkpt>
      <trkpt lat="48.68061" lon="-4.03549">
        <ele>15.9</ele>
        <time>2022-06-10T15:18:31Z</time>
      </trkpt>
      <trkpt lat="48.68061" lon="-4.03549">
        <ele>15.9</ele>
        <time>2022-06-10T15:18:32Z</time>
      </trkpt>
      <trkpt lat="48.68061" lon="-4.03549">
        <ele>15.9</ele>
        <time>2022-06-10T15:18:33Z</time>
      </trkpt>
      <trkpt lat="48.68062" lon="-4.03549">
        <ele>15.9</ele>
        <time>2022-06-10T15:18:34Z</time>
      </trkpt>
      <trkpt lat="48.68062" lon="-4.03549">
        <ele>15.9</ele>
        <time>2022-06-10T15:18:35Z</time>
      </trkpt>
      <trkpt lat="48.68062" lon="-4.03549">
        <ele>15.9</ele>
        <time>2022-06-10T15:18:36Z</time>
      </trkpt>
      <trkpt lat="48.68062" lon="-4.03549">
        <ele>15.9</ele>
        <time>2022-06-10T15:18:37Z</time>
      </trkpt>
      <trkpt lat="48.68062" lon="-4.03549">
        <ele>15.9</ele>
        <time>2022-06-10T15:18:38Z</time>
      </trkpt>
      <trkpt lat="48.68062" lon="-4.03549">
        <ele>15.9</ele>
        <time>2022-06-10T15:18:39Z</time>
      </trkpt>
      <trkpt lat="48.68062" lon="-4.03549">
        <ele>15.9</ele>
        <time>2022-06-10T15:18:40Z</time>
      </trkpt>
      <trkpt lat="48.68062" lon="-4.03549">
        <ele>15.9</ele>
        <time>2022-06-10T15:18:41Z</time>
      </trkpt>
      <trkpt lat="48.68062" lon="-4.03549">
        <ele>15.9</ele>
        <time>2022-06-10T15:18:42Z</time>
      </trkpt>
      <trkpt lat="48.68062" lon="-4.03549">
        <ele>15.9</ele>
        <time>2022-06-10T15:18:43Z</time>
      </trkpt>
      <trkpt lat="48.68062" lon="-4.03549">
        <ele>15.9</ele>
        <time>2022-06-10T15:18:44Z</time>
      </trkpt>
      <trkpt lat="48.68063" lon="-4.03549">
        <ele>15.9</ele>
        <time>2022-06-10T15:18:45Z</time>
      </trkpt>
      <trkpt lat="48.68063" lon="-4.03549">
        <ele>15.9</ele>
        <time>2022-06-10T15:18:46Z</time>
      </trkpt>
      <trkpt lat="48.68063" lon="-4.03549">
        <ele>15.9</ele>
        <time>2022-06-10T15:18:47Z</time>
      </trkpt>
      <trkpt lat="48.68063" lon="-4.03549">
        <ele>15.9</ele>
        <time>2022-06-10T15:18:49Z</time>
      </trkpt>
      <trkpt lat="48.68063" lon="-4.03549">
        <ele>15.9</ele>
        <time>2022-06-10T15:18:50Z</time>
      </trkpt>
      <trkpt lat="48.68063" lon="-4.03549">
        <ele>15.9</ele>
        <time>2022-06-10T15:18:51Z</time>
      </trkpt>
      <trkpt lat="48.68063" lon="-4.03549">
        <ele>15.9</ele>
        <time>2022-06-10T15:18:52Z</time>
      </trkpt>
      <trkpt lat="48.68063" lon="-4.03549">
        <ele>15.9</ele>
        <time>2022-06-10T15:18:53Z</time>
      </trkpt>
      <trkpt lat="48.68063" lon="-4.03549">
        <ele>15.9</ele>
        <time>2022-06-10T15:18:54Z</time>
      </trkpt>
      <trkpt lat="48.68063" lon="-4.03549">
        <ele>15.9</ele>
        <time>2022-06-10T15:18:55Z</time>
      </trkpt>
      <trkpt lat="48.68063" lon="-4.03549">
        <ele>15.9</ele>
        <time>2022-06-10T15:18:56Z</time>
      </trkpt>
      <trkpt lat="48.68063" lon="-4.03549">
        <ele>15.9</ele>
        <time>2022-06-10T15:18:57Z</time>
      </trkpt>
      <trkpt lat="48.68064" lon="-4.0355">
        <ele>15.9</ele>
        <time>2022-06-10T15:18:58Z</time>
      </trkpt>
      <trkpt lat="48.68065" lon="-4.0355">
        <ele>15.9</ele>
        <time>2022-06-10T15:18:59Z</time>
      </trkpt>
      <trkpt lat="48.68068" lon="-4.03552">
        <ele>15.8</ele>
        <time>2022-06-10T15:19:01Z</time>
      </trkpt>
      <trkpt lat="48.68068" lon="-4.03553">
        <ele>15.8</ele>
        <time>2022-06-10T15:19:02Z</time>
      </trkpt>
      <trkpt lat="48.6807" lon="-4.03554">
        <ele>15.8</ele>
        <time>2022-06-10T15:19:04Z</time>
      </trkpt>
      <trkpt lat="48.6807" lon="-4.03555">
        <ele>15.8</ele>
        <time>2022-06-10T15:19:05Z</time>
      </trkpt>
      <trkpt lat="48.68071" lon="-4.03556">
        <ele>15.8</ele>
        <time>2022-06-10T15:19:06Z</time>
      </trkpt>
      <trkpt lat="48.68072" lon="-4.03557">
        <ele>15.8</ele>
        <time>2022-06-10T15:19:07Z</time>
      </trkpt>
      <trkpt lat="48.68072" lon="-4.03557">
        <ele>15.8</ele>
        <time>2022-06-10T15:19:08Z</time>
      </trkpt>
      <trkpt lat="48.68073" lon="-4.03558">
        <ele>15.7</ele>
        <time>2022-06-10T15:19:09Z</time>
      </trkpt>
      <trkpt lat="48.68072" lon="-4.03558">
        <ele>15.7</ele>
        <time>2022-06-10T15:19:10Z</time>
      </trkpt>
      <trkpt lat="48.68072" lon="-4.03559">
        <ele>15.7</ele>
        <time>2022-06-10T15:19:11Z</time>
      </trkpt>
      <trkpt lat="48.68073" lon="-4.03559">
        <ele>15.7</ele>
        <time>2022-06-10T15:19:12Z</time>
      </trkpt>
      <trkpt lat="48.68074" lon="-4.0356">
        <ele>15.7</ele>
        <time>2022-06-10T15:19:13Z</time>
      </trkpt>
      <trkpt lat="48.68075" lon="-4.03561">
        <ele>15.7</ele>
        <time>2022-06-10T15:19:14Z</time>
      </trkpt>
      <trkpt lat="48.68077" lon="-4.03563">
        <ele>15.6</ele>
        <time>2022-06-10T15:19:15Z</time>
      </trkpt>
      <trkpt lat="48.68079" lon="-4.03564">
        <ele>15.6</ele>
        <time>2022-06-10T15:19:17Z</time>
      </trkpt>
      <trkpt lat="48.6808" lon="-4.03564">
        <ele>15.6</ele>
        <time>2022-06-10T15:19:18Z</time>
      </trkpt>
      <trkpt lat="48.68081" lon="-4.03565">
        <ele>15.6</ele>
        <time>2022-06-10T15:19:19Z</time>
      </trkpt>
      <trkpt lat="48.68084" lon="-4.03566">
        <ele>15.5</ele>
        <time>2022-06-10T15:19:20Z</time>
      </trkpt>
      <trkpt lat="48.68085" lon="-4.03566">
        <ele>15.5</ele>
        <time>2022-06-10T15:19:21Z</time>
      </trkpt>
      <trkpt lat="48.68088" lon="-4.03567">
        <ele>15.5</ele>
        <time>2022-06-10T15:19:22Z</time>
      </trkpt>
      <trkpt lat="48.68089" lon="-4.03568">
        <ele>15.5</ele>
        <time>2022-06-10T15:19:23Z</time>
      </trkpt>
      <trkpt lat="48.68091" lon="-4.03568">
        <ele>15.5</ele>
        <time>2022-06-10T15:19:25Z</time>
      </trkpt>
      <trkpt lat="48.68092" lon="-4.03569">
        <ele>15.4</ele>
        <time>2022-06-10T15:19:26Z</time>
      </trkpt>
      <trkpt lat="48.68094" lon="-4.03569">
        <ele>15.4</ele>
        <time>2022-06-10T15:19:27Z</time>
      </trkpt>
      <trkpt lat="48.68095" lon="-4.0357">
        <ele>15.4</ele>
        <time>2022-06-10T15:19:28Z</time>
      </trkpt>
      <trkpt lat="48.68096" lon="-4.0357">
        <ele>15.4</ele>
        <time>2022-06-10T15:19:29Z</time>
      </trkpt>
      <trkpt lat="48.68097" lon="-4.03571">
        <ele>15.4</ele>
        <time>2022-06-10T15:19:30Z</time>
      </trkpt>
      <trkpt lat="48.68098" lon="-4.03571">
        <ele>15.4</ele>
        <time>2022-06-10T15:19:32Z</time>
      </trkpt>
      <trkpt lat="48.68099" lon="-4.03571">
        <ele>15.4</ele>
        <time>2022-06-10T15:19:33Z</time>
      </trkpt>
      <trkpt lat="48.681" lon="-4.03572">
        <ele>15.4</ele>
        <time>2022-06-10T15:19:34Z</time>
      </trkpt>
      <trkpt lat="48.68101" lon="-4.03572">
        <ele>15.4</ele>
        <time>2022-06-10T15:19:35Z</time>
      </trkpt>
      <trkpt lat="48.68103" lon="-4.03573">
        <ele>15.3</ele>
        <time>2022-06-10T15:19:36Z</time>
      </trkpt>
      <trkpt lat="48.68104" lon="-4.03574">
        <ele>15.3</ele>
        <time>2022-06-10T15:19:37Z</time>
      </trkpt>
      <trkpt lat="48.68105" lon="-4.03574">
        <ele>15.3</ele>
        <time>2022-06-10T15:19:39Z</time>
      </trkpt>
      <trkpt lat="48.68106" lon="-4.03575">
        <ele>15.3</ele>
        <time>2022-06-10T15:19:40Z</time>
      </trkpt>
      <trkpt lat="48.68107" lon="-4.03575">
        <ele>15.3</ele>
        <time>2022-06-10T15:19:41Z</time>
      </trkpt>
      <trkpt lat="48.68108" lon="-4.03576">
        <ele>15.3</ele>
        <time>2022-06-10T15:19:42Z</time>
      </trkpt>
      <trkpt lat="48.68109" lon="-4.03577">
        <ele>15.3</ele>
        <time>2022-06-10T15:19:43Z</time>
      </trkpt>
      <trkpt lat="48.6811" lon="-4.03577">
        <ele>15.3</ele>
        <time>2022-06-10T15:19:44Z</time>
      </trkpt>
      <trkpt lat="48.68111" lon="-4.03577">
        <ele>15.3</ele>
        <time>2022-06-10T15:19:46Z</time>
      </trkpt>
      <trkpt lat="48.68113" lon="-4.03578">
        <ele>15.3</ele>
        <time>2022-06-10T15:19:47Z</time>
      </trkpt>
      <trkpt lat="48.68115" lon="-4.03579">
        <ele>15.2</ele>
        <time>2022-06-10T15:19:48Z</time>
      </trkpt>
      <trkpt lat="48.68116" lon="-4.0358">
        <ele>15.2</ele>
        <time>2022-06-10T15:19:49Z</time>
      </trkpt>
      <trkpt lat="48.68118" lon="-4.0358">
        <ele>15.2</ele>
        <time>2022-06-10T15:19:50Z</time>
      </trkpt>
      <trkpt lat="48.68119" lon="-4.03581">
        <ele>15.2</ele>
        <time>2022-06-10T15:19:51Z</time>
      </trkpt>
      <trkpt lat="48.68121" lon="-4.03582">
        <ele>15.2</ele>
        <time>2022-06-10T15:19:52Z</time>
      </trkpt>
      <trkpt lat="48.68122" lon="-4.03582">
        <ele>15.2</ele>
        <time>2022-06-10T15:19:54Z</time>
      </trkpt>
      <trkpt lat="48.68124" lon="-4.03583">
        <ele>15.2</ele>
        <time>2022-06-10T15:19:55Z</time>
      </trkpt>
      <trkpt lat="48.68125" lon="-4.03583">
        <ele>15.2</ele>
        <time>2022-06-10T15:19:56Z</time>
      </trkpt>
      <trkpt lat="48.68127" lon="-4.03584">
        <ele>15.1</ele>
        <time>2022-06-10T15:19:57Z</time>
      </trkpt>
      <trkpt lat="48.68367" lon="-4.03565">
        <ele>12.2</ele>
        <time>2022-06-10T15:24:53Z</time>
      </trkpt>
      <trkpt lat="48.68365" lon="-4.03571">
        <ele>12.2</ele>
        <time>2022-06-10T15:24:54Z</time>
      </trkpt>
      <trkpt lat="48.68363" lon="-4.03577">
        <ele>12.2</ele>
        <time>2022-06-10T15:24:55Z</time>
      </trkpt>
      <trkpt lat="48.68355" lon="-4.0358">
        <ele>12.2</ele>
        <time>2022-06-10T15:24:56Z</time>
      </trkpt>
      <trkpt lat="48.68351" lon="-4.03582">
        <ele>12.2</ele>
        <time>2022-06-10T15:24:57Z</time>
      </trkpt>
      <trkpt lat="48.68348" lon="-4.03583">
        <ele>12.2</ele>
        <time>2022-06-10T15:24:58Z</time>
      </trkpt>
      <trkpt lat="48.68346" lon="-4.03584">
        <ele>12.2</ele>
        <time>2022-06-10T15:24:59Z</time>
      </trkpt>
      <trkpt lat="48.68343" lon="-4.03584">
        <ele>12.2</ele>
        <time>2022-06-10T15:25:00Z</time>
      </trkpt>
      <trkpt lat="48.68336" lon="-4.03586">
        <ele>12.2</ele>
        <time>2022-06-10T15:25:01Z</time>
      </trkpt>
      <trkpt lat="48.68336" lon="-4.03586">
        <ele>12.2</ele>
        <time>2022-06-10T15:25:02Z</time>
      </trkpt>
      <trkpt lat="48.68336" lon="-4.03586">
        <ele>12.2</ele>
        <time>2022-06-10T15:25:03Z</time>
      </trkpt>
      <trkpt lat="48.68337" lon="-4.03586">
        <ele>12.2</ele>
        <time>2022-06-10T15:25:04Z</time>
      </trkpt>
      <trkpt lat="48.68338" lon="-4.03585">
        <ele>12.2</ele>
        <time>2022-06-10T15:25:05Z</time>
      </trkpt>
      <trkpt lat="48.68338" lon="-4.03585">
        <ele>12.2</ele>
        <time>2022-06-10T15:25:06Z</time>
      </trkpt>
      <trkpt lat="48.68339" lon="-4.03584">
        <ele>12.2</ele>
        <time>2022-06-10T15:25:07Z</time>
      </trkpt>
      <trkpt lat="48.68339" lon="-4.03584">
        <ele>12.2</ele>
        <time>2022-06-10T15:25:08Z</time>
      </trkpt>
      <trkpt lat="48.6834" lon="-4.03584">
        <ele>12.2</ele>
        <time>2022-06-10T15:25:09Z</time>
      </trkpt>
      <trkpt lat="48.6834" lon="-4.03583">
        <ele>12.2</ele>
        <time>2022-06-10T15:25:10Z</time>
      </trkpt>
      <trkpt lat="48.68341" lon="-4.03583">
        <ele>12.2</ele>
        <time>2022-06-10T15:25:11Z</time>
      </trkpt>
      <trkpt lat="48.68341" lon="-4.03583">
        <ele>12.2</ele>
        <time>2022-06-10T15:25:12Z</time>
      </trkpt>
      <trkpt lat="48.68342" lon="-4.03582">
        <ele>12.2</ele>
        <time>2022-06-10T15:25:13Z</time>
      </trkpt>
      <trkpt lat="48.68343" lon="-4.03582">
        <ele>12.2</ele>
        <time>2022-06-10T15:25:14Z</time>
      </trkpt>
      <trkpt lat="48.68343" lon="-4.03581">
        <ele>12.2</ele>
        <time>2022-06-10T15:25:15Z</time>
      </trkpt>
      <trkpt lat="48.68346" lon="-4.0358">
        <ele>12.2</ele>
        <time>2022-06-10T15:25:16Z</time>
      </trkpt>
      <trkpt lat="48.68347" lon="-4.03579">
        <ele>12.2</ele>
        <time>2022-06-10T15:25:17Z</time>
      </trkpt>
      <trkpt lat="48.68347" lon="-4.03579">
        <ele>12.2</ele>
        <time>2022-06-10T15:25:18Z</time>
      </trkpt>
      <trkpt lat="48.68347" lon="-4.03579">
        <ele>12.2</ele>
        <time>2022-06-10T15:25:19Z</time>
      </trkpt>
      <trkpt lat="48.68347" lon="-4.03579">
        <ele>12.2</ele>
        <time>2022-06-10T15:25:21Z</time>
      </trkpt>
      <trkpt lat="48.68347" lon="-4.03579">
        <ele>12.2</ele>
        <time>2022-06-10T15:25:22Z</time>
      </trkpt>
      <trkpt lat="48.68347" lon="-4.03579">
        <ele>12.2</ele>
        <time>2022-06-10T15:25:23Z</time>
      </trkpt>
      <trkpt lat="48.68348" lon="-4.03579">
        <ele>12.2</ele>
        <time>2022-06-10T15:25:24Z</time>
      </trkpt>
      <trkpt lat="48.68348" lon="-4.03579">
        <ele>12.2</ele>
        <time>2022-06-10T15:25:25Z</time>
      </trkpt>
      <trkpt lat="48.68348" lon="-4.03579">
        <ele>12.2</ele>
        <time>2022-06-10T15:25:26Z</time>
      </trkpt>
      <trkpt lat="48.68348" lon="-4.03578">
        <ele>12.2</ele>
        <time>2022-06-10T15:25:27Z</time>
      </trkpt>
      <trkpt lat="48.68349" lon="-4.03578">
        <ele>12.2</ele>
        <time>2022-06-10T15:25:29Z</time>
      </trkpt>
      <trkpt lat="48.68349" lon="-4.03578">
        <ele>12.2</ele>
        <time>2022-06-10T15:25:30Z</time>
      </trkpt>
      <trkpt lat="48.6835" lon="-4.03577">
        <ele>12.2</ele>
        <time>2022-06-10T15:25:31Z</time>
      </trkpt>
      <trkpt lat="48.68351" lon="-4.03577">
        <ele>12.2</ele>
        <time>2022-06-10T15:25:32Z</time>
      </trkpt>
      <trkpt lat="48.68352" lon="-4.03577">
        <ele>12.2</ele>
        <time>2022-06-10T15:25:33Z</time>
      </trkpt>
      <trkpt lat="48.68353" lon="-4.03576">
        <ele>12.2</ele>
        <time>2022-06-10T15:25:34Z</time>
      </trkpt>
      <trkpt lat="48.68353" lon="-4.03576">
        <ele>12.2</ele>
        <time>2022-06-10T15:25:35Z</time>
      </trkpt>
      <trkpt lat="48.68354" lon="-4.03575">
        <ele>12.2</ele>
        <time>2022-06-10T15:25:36Z</time>
      </trkpt>
      <trkpt lat="48.68355" lon="-4.03576">
        <ele>12.2</ele>
        <time>2022-06-10T15:25:37Z</time>
      </trkpt>
      <trkpt lat="48.68356" lon="-4.03576">
        <ele>12.2</ele>
        <time>2022-06-10T15:25:38Z</time>
      </trkpt>
      <trkpt lat="48.68356" lon="-4.03576">
        <ele>12.2</ele>
        <time>2022-06-10T15:25:40Z</time>
      </trkpt>
      <trkpt lat="48.68357" lon="-4.03576">
        <ele>12.2</ele>
        <time>2022-06-10T15:25:41Z</time>
      </trkpt>
      <trkpt lat="48.68357" lon="-4.03576">
        <ele>12.2</ele>
        <time>2022-06-10T15:25:42Z</time>
      </trkpt>
      <trkpt lat="48.68357" lon="-4.03576">
        <ele>12.2</ele>
        <time>2022-06-10T15:25:43Z</time>
      </trkpt>
      <trkpt lat="48.68357" lon="-4.03576">
        <ele>12.2</ele>
        <time>2022-06-10T15:25:44Z</time>
      </trkpt>
      <trkpt lat="48.68357" lon="-4.03576">
        <ele>12.2</ele>
        <time>2022-06-10T15:25:45Z</time>
      </trkpt>
      <trkpt lat="48.68358" lon="-4.03576">
        <ele>12.2</ele>
        <time>2022-06-10T15:25:46Z</time>
      </trkpt>
      <trkpt lat="48.68358" lon="-4.03576">
        <ele>12.2</ele>
        <time>2022-06-10T15:25:47Z</time>
      </trkpt>
      <trkpt lat="48.68358" lon="-4.03576">
        <ele>12.2</ele>
        <time>2022-06-10T15:25:49Z</time>
      </trkpt>
      <trkpt lat="48.68359" lon="-4.03576">
        <ele>12.2</ele>
        <time>2022-06-10T15:25:50Z</time>
      </trkpt>
      <trkpt lat="48.68359" lon="-4.03576">
        <ele>12.2</ele>
        <time>2022-06-10T15:25:51Z</time>
      </trkpt>
      <trkpt lat="48.6836" lon="-4.03576">
        <ele>12.2</ele>
        <time>2022-06-10T15:25:53Z</time>
      </trkpt>
      <trkpt lat="48.6836" lon="-4.03576">
        <ele>12.2</ele>
        <time>2022-06-10T15:25:54Z</time>
      </trkpt>
      <trkpt lat="48.6836" lon="-4.03575">
        <ele>12.2</ele>
        <time>2022-06-10T15:25:55Z</time>
      </trkpt>
      <trkpt lat="48.68361" lon="-4.03575">
        <ele>12.2</ele>
        <time>2022-06-10T15:25:56Z</time>
      </trkpt>
      <trkpt lat="48.68361" lon="-4.03575">
        <ele>12.2</ele>
        <time>2022-06-10T15:25:57Z</time>
      </trkpt>
      <trkpt lat="48.68361" lon="-4.03575">
        <ele>12.2</ele>
        <time>2022-06-10T15:25:59Z</time>
      </trkpt>
      <trkpt lat="48.68362" lon="-4.03574">
        <ele>12.2</ele>
        <time>2022-06-10T15:26:00Z</time>
      </trkpt>
      <trkpt lat="48.68363" lon="-4.03574">
        <ele>12.2</ele>
        <time>2022-06-10T15:26:01Z</time>
      </trkpt>
      <trkpt lat="48.68365" lon="-4.03573">
        <ele>12.2</ele>
        <time>2022-06-10T15:26:03Z</time>
      </trkpt>
      <trkpt lat="48.68366" lon="-4.03572">
        <ele>12.2</ele>
        <time>2022-06-10T15:26:04Z</time>
      </trkpt>
      <trkpt lat="48.68367" lon="-4.03572">
        <ele>12.2</ele>
        <time>2022-06-10T15:26:05Z</time>
      </trkpt>
      <trkpt lat="48.68368" lon="-4.03571">
        <ele>12.2</ele>
        <time>2022-06-10T15:26:07Z</time>
      </trkpt>
      <trkpt lat="48.68368" lon="-4.03569">
        <ele>12.2</ele>
        <time>2022-06-10T15:26:08Z</time>
      </trkpt>
      <trkpt lat="48.68368" lon="-4.03569">
        <ele>12.2</ele>
        <time>2022-06-10T15:26:09Z</time>
      </trkpt>
      <trkpt lat="48.68368" lon="-4.03568">
        <ele>12.2</ele>
        <time>2022-06-10T15:26:10Z</time>
      </trkpt>
      <trkpt lat="48.68367" lon="-4.03568">
        <ele>12.3</ele>
        <time>2022-06-10T15:26:11Z</time>
      </trkpt>
      <trkpt lat="48.68367" lon="-4.03567">
        <ele>12.3</ele>
        <time>2022-06-10T15:26:12Z</time>
      </trkpt>
      <trkpt lat="48.68366" lon="-4.03566">
        <ele>12.3</ele>
        <time>2022-06-10T15:26:13Z</time>
      </trkpt>
      <trkpt lat="48.68367" lon="-4.03565">
        <ele>12.3</ele>
        <time>2022-06-10T15:26:15Z</time>
      </trkpt>
      <trkpt lat="48.68367" lon="-4.03564">
        <ele>12.3</ele>
        <time>2022-06-10T15:26:16Z</time>
      </trkpt>
      <trkpt lat="48.68368" lon="-4.03563">
        <ele>12.3</ele>
        <time>2022-06-10T15:26:17Z</time>
      </trkpt>
      <trkpt lat="48.68368" lon="-4.03562">
        <ele>12.3</ele>
        <time>2022-06-10T15:26:18Z</time>
      </trkpt>
      <trkpt lat="48.68369" lon="-4.03561">
        <ele>12.3</ele>
        <time>2022-06-10T15:26:20Z</time>
      </trkpt>
      <trkpt lat="48.68369" lon="-4.0356">
        <ele>12.4</ele>
        <time>2022-06-10T15:26:21Z</time>
      </trkpt>
      <trkpt lat="48.6837" lon="-4.03558">
        <ele>12.4</ele>
        <time>2022-06-10T15:26:22Z</time>
      </trkpt>
      <trkpt lat="48.68371" lon="-4.03557">
        <ele>12.4</ele>
        <time>2022-06-10T15:26:24Z</time>
      </trkpt>
      <trkpt lat="48.68372" lon="-4.03556">
        <ele>12.4</ele>
        <time>2022-06-10T15:26:25Z</time>
      </trkpt>
      <trkpt lat="48.68372" lon="-4.03555">
        <ele>12.4</ele>
        <time>2022-06-10T15:26:26Z</time>
      </trkpt>
      <trkpt lat="48.68373" lon="-4.03554">
        <ele>12.4</ele>
        <time>2022-06-10T15:26:27Z</time>
      </trkpt>
      <trkpt lat="48.68374" lon="-4.03553">
        <ele>12.4</ele>
        <time>2022-06-10T15:26:28Z</time>
      </trkpt>
      <trkpt lat="48.68375" lon="-4.03553">
        <ele>12.5</ele>
        <time>2022-06-10T15:26:29Z</time>
      </trkpt>
      <trkpt lat="48.68376" lon="-4.03551">
        <ele>12.5</ele>
        <time>2022-06-10T15:26:31Z</time>
      </trkpt>
      <trkpt lat="48.68376" lon="-4.03551">
        <ele>12.5</ele>
        <time>2022-06-10T15:26:32Z</time>
      </trkpt>
      <trkpt lat="48.68376" lon="-4.03551">
        <ele>12.5</ele>
        <time>2022-06-10T15:26:33Z</time>
      </trkpt>
      <trkpt lat="48.68377" lon="-4.03551">
        <ele>12.5</ele>
        <time>2022-06-10T15:26:34Z</time>
      </trkpt>
      <trkpt lat="48.68377" lon="-4.0355">
        <ele>12.5</ele>
        <time>2022-06-10T15:26:35Z</time>
      </trkpt>
      <trkpt lat="48.68377" lon="-4.0355">
        <ele>12.5</ele>
        <time>2022-06-10T15:26:36Z</time>
      </trkpt>
      <trkpt lat="48.68377" lon="-4.0355">
        <ele>12.5</ele>
        <time>2022-06-10T15:26:37Z</time>
      </trkpt>
      <trkpt lat="48.68377" lon="-4.03549">
        <ele>12.5</ele>
        <time>2022-06-10T15:26:38Z</time>
      </trkpt>
      <trkpt lat="48.68377" lon="-4.03548">
        <ele>12.5</ele>
        <time>2022-06-10T15:26:40Z</time>
      </trkpt>
      <trkpt lat="48.68378" lon="-4.03546">
        <ele>12.5</ele>
        <time>2022-06-10T15:26:41Z</time>
      </trkpt>
      <trkpt lat="48.68377" lon="-4.03546">
        <ele>12.6</ele>
        <time>2022-06-10T15:26:42Z</time>
      </trkpt>
      <trkpt lat="48.68378" lon="-4.03545">
        <ele>12.6</ele>
        <time>2022-06-10T15:26:43Z</time>
      </trkpt>
      <trkpt lat="48.68378" lon="-4.03544">
        <ele>12.6</ele>
        <time>2022-06-10T15:26:44Z</time>
      </trkpt>
      <trkpt lat="48.68378" lon="-4.03542">
        <ele>12.6</ele>
        <time>2022-06-10T15:26:45Z</time>
      </trkpt>
      <trkpt lat="48.68378" lon="-4.03539">
        <ele>12.6</ele>
        <time>2022-06-10T15:26:47Z</time>
      </trkpt>
      <trkpt lat="48.68378" lon="-4.03538">
        <ele>12.6</ele>
        <time>2022-06-10T15:26:48Z</time>
      </trkpt>
      <trkpt lat="48.68378" lon="-4.03537">
        <ele>12.6</ele>
        <time>2022-06-10T15:26:49Z</time>
      </trkpt>
      <trkpt lat="48.68378" lon="-4.03536">
        <ele>12.6</ele>
        <time>2022-06-10T15:26:50Z</time>
      </trkpt>
      <trkpt lat="48.68379" lon="-4.03535">
        <ele>12.7</ele>
        <time>2022-06-10T15:26:51Z</time>
      </trkpt>
      <trkpt lat="48.68379" lon="-4.03535">
        <ele>12.7</ele>
        <time>2022-06-10T15:26:52Z</time>
      </trkpt>
      <trkpt lat="48.68379" lon="-4.03535">
        <ele>12.7</ele>
        <time>2022-06-10T15:26:53Z</time>
      </trkpt>
      <trkpt lat="48.68379" lon="-4.03535">
        <ele>12.7</ele>
        <time>2022-06-10T15:26:54Z</time>
      </trkpt>
      <trkpt lat="48.68378" lon="-4.03535">
        <ele>12.7</ele>
        <time>2022-06-10T15:26:55Z</time>
      </trkpt>
      <trkpt lat="48.68378" lon="-4.03536">
        <ele>12.7</ele>
        <time>2022-06-10T15:26:56Z</time>
      </trkpt>
      <trkpt lat="48.68378" lon="-4.03536">
        <ele>12.7</ele>
        <time>2022-06-10T15:26:57Z</time>
      </trkpt>
      <trkpt lat="48.68378" lon="-4.03536">
        <ele>12.7</ele>
        <time>2022-06-10T15:26:58Z</time>
      </trkpt>
      <trkpt lat="48.68378" lon="-4.03536">
        <ele>12.7</ele>
        <time>2022-06-10T15:26:59Z</time>
      </trkpt>
      <trkpt lat="48.68378" lon="-4.03536">
        <ele>12.7</ele>
        <time>2022-06-10T15:27:00Z</time>
      </trkpt>
      <trkpt lat="48.68378" lon="-4.03536">
        <ele>12.7</ele>
        <time>2022-06-10T15:27:01Z</time>
      </trkpt>
      <trkpt lat="48.68378" lon="-4.03536">
        <ele>12.7</ele>
        <time>2022-06-10T15:27:02Z</time>
      </trkpt>
      <trkpt lat="48.68378" lon="-4.03534">
        <ele>12.7</ele>
        <time>2022-06-10T15:27:03Z</time>
      </trkpt>
      <trkpt lat="48.68378" lon="-4.03533">
        <ele>12.7</ele>
        <time>2022-06-10T15:27:05Z</time>
      </trkpt>
      <trkpt lat="48.68378" lon="-4.03532">
        <ele>12.7</ele>
        <time>2022-06-10T15:27:06Z</time>
      </trkpt>
      <trkpt lat="48.68378" lon="-4.03531">
        <ele>12.7</ele>
        <time>2022-06-10T15:27:07Z</time>
      </trkpt>
      <trkpt lat="48.68378" lon="-4.0353">
        <ele>12.7</ele>
        <time>2022-06-10T15:27:08Z</time>
      </trkpt>
      <trkpt lat="48.68378" lon="-4.03529">
        <ele>12.8</ele>
        <time>2022-06-10T15:27:09Z</time>
      </trkpt>
      <trkpt lat="48.68378" lon="-4.03527">
        <ele>12.8</ele>
        <time>2022-06-10T15:27:10Z</time>
      </trkpt>
      <trkpt lat="48.68378" lon="-4.03525">
        <ele>12.8</ele>
        <time>2022-06-10T15:27:11Z</time>
      </trkpt>
      <trkpt lat="48.68378" lon="-4.03522">
        <ele>12.8</ele>
        <time>2022-06-10T15:27:13Z</time>
      </trkpt>
      <trkpt lat="48.68378" lon="-4.0352">
        <ele>12.8</ele>
        <time>2022-06-10T15:27:14Z</time>
      </trkpt>
      <trkpt lat="48.68378" lon="-4.03519">
        <ele>12.9</ele>
        <time>2022-06-10T15:27:15Z</time>
      </trkpt>
      <trkpt lat="48.68378" lon="-4.03517">
        <ele>12.9</ele>
        <time>2022-06-10T15:27:16Z</time>
      </trkpt>
      <trkpt lat="48.68378" lon="-4.03514">
        <ele>12.9</ele>
        <time>2022-06-10T15:27:18Z</time>
      </trkpt>
      <trkpt lat="48.68378" lon="-4.03513">
        <ele>12.9</ele>
        <time>2022-06-10T15:27:19Z</time>
      </trkpt>
      <trkpt lat="48.68378" lon="-4.03511">
        <ele>12.9</ele>
        <time>2022-06-10T15:27:20Z</time>
      </trkpt>
      <trkpt lat="48.68378" lon="-4.03509">
        <ele>12.9</ele>
        <time>2022-06-10T15:27:21Z</time>
      </trkpt>
      <trkpt lat="48.68378" lon="-4.03508">
        <ele>13</ele>
        <time>2022-06-10T15:27:22Z</time>
      </trkpt>
      <trkpt lat="48.68378" lon="-4.03506">
        <ele>13</ele>
        <time>2022-06-10T15:27:23Z</time>
      </trkpt>
      <trkpt lat="48.68378" lon="-4.03504">
        <ele>13</ele>
        <time>2022-06-10T15:27:25Z</time>
      </trkpt>
      <trkpt lat="48.68378" lon="-4.03502">
        <ele>13</ele>
        <time>2022-06-10T15:27:26Z</time>
      </trkpt>
      <trkpt lat="48.68377" lon="-4.03501">
        <ele>13</ele>
        <time>2022-06-10T15:27:27Z</time>
      </trkpt>
      <trkpt lat="48.68377" lon="-4.035">
        <ele>13</ele>
        <time>2022-06-10T15:27:28Z</time>
      </trkpt>
      <trkpt lat="48.68377" lon="-4.03499">
        <ele>13</ele>
        <time>2022-06-10T15:27:29Z</time>
      </trkpt>
      <trkpt lat="48.68377" lon="-4.035">
        <ele>13.1</ele>
        <time>2022-06-10T15:27:30Z</time>
      </trkpt>
      <trkpt lat="48.68377" lon="-4.035">
        <ele>13.1</ele>
        <time>2022-06-10T15:27:31Z</time>
      </trkpt>
      <trkpt lat="48.68377" lon="-4.03498">
        <ele>13.1</ele>
        <time>2022-06-10T15:27:32Z</time>
      </trkpt>
      <trkpt lat="48.68377" lon="-4.03496">
        <ele>13.1</ele>
        <time>2022-06-10T15:27:34Z</time>
      </trkpt>
      <trkpt lat="48.68377" lon="-4.03493">
        <ele>13.1</ele>
        <time>2022-06-10T15:27:35Z</time>
      </trkpt>
      <trkpt lat="48.68377" lon="-4.03492">
        <ele>13.1</ele>
        <time>2022-06-10T15:27:37Z</time>
      </trkpt>
      <trkpt lat="48.68377" lon="-4.03491">
        <ele>13.2</ele>
        <time>2022-06-10T15:27:38Z</time>
      </trkpt>
      <trkpt lat="48.68377" lon="-4.03489">
        <ele>13.2</ele>
        <time>2022-06-10T15:27:39Z</time>
      </trkpt>
      <trkpt lat="48.68377" lon="-4.03487">
        <ele>13.2</ele>
        <time>2022-06-10T15:27:40Z</time>
      </trkpt>
      <trkpt lat="48.68377" lon="-4.03486">
        <ele>13.2</ele>
        <time>2022-06-10T15:27:41Z</time>
      </trkpt>
      <trkpt lat="48.68377" lon="-4.03486">
        <ele>13.2</ele>
        <time>2022-06-10T15:27:42Z</time>
      </trkpt>
      <trkpt lat="48.68376" lon="-4.03484">
        <ele>13.2</ele>
        <time>2022-06-10T15:27:44Z</time>
      </trkpt>
      <trkpt lat="48.68376" lon="-4.03483">
        <ele>13.2</ele>
        <time>2022-06-10T15:27:45Z</time>
      </trkpt>
      <trkpt lat="48.68376" lon="-4.03481">
        <ele>13.2</ele>
        <time>2022-06-10T15:27:46Z</time>
      </trkpt>
      <trkpt lat="48.68375" lon="-4.03478">
        <ele>13.3</ele>
        <time>2022-06-10T15:27:47Z</time>
      </trkpt>
      <trkpt lat="48.68375" lon="-4.03476">
        <ele>13.3</ele>
        <time>2022-06-10T15:27:48Z</time>
      </trkpt>
      <trkpt lat="48.68374" lon="-4.03473">
        <ele>13.3</ele>
        <time>2022-06-10T15:27:50Z</time>
      </trkpt>
      <trkpt lat="48.68374" lon="-4.03471">
        <ele>13.3</ele>
        <time>2022-06-10T15:27:51Z</time>
      </trkpt>
      <trkpt lat="48.68373" lon="-4.03467">
        <ele>13.4</ele>
        <time>2022-06-10T15:27:53Z</time>
      </trkpt>
      <trkpt lat="48.68373" lon="-4.03464">
        <ele>13.4</ele>
        <time>2022-06-10T15:27:54Z</time>
      </trkpt>
      <trkpt lat="48.68373" lon="-4.03462">
        <ele>13.4</ele>
        <time>2022-06-10T15:27:55Z</time>
      </trkpt>
      <trkpt lat="48.68373" lon="-4.03461">
        <ele>13.5</ele>
        <time>2022-06-10T15:27:56Z</time>
      </trkpt>
      <trkpt lat="48.68372" lon="-4.03458">
        <ele>13.5</ele>
        <time>2022-06-10T15:27:57Z</time>
      </trkpt>
      <trkpt lat="48.68372" lon="-4.03457">
        <ele>13.5</ele>
        <time>2022-06-10T15:27:58Z</time>
      </trkpt>
      <trkpt lat="48.68371" lon="-4.03454">
        <ele>13.5</ele>
        <time>2022-06-10T15:28:00Z</time>
      </trkpt>
      <trkpt lat="48.68371" lon="-4.03453">
        <ele>13.5</ele>
        <time>2022-06-10T15:28:01Z</time>
      </trkpt>
      <trkpt lat="48.6837" lon="-4.03451">
        <ele>13.5</ele>
        <time>2022-06-10T15:28:02Z</time>
      </trkpt>
      <trkpt lat="48.6837" lon="-4.0345">
        <ele>13.6</ele>
        <time>2022-06-10T15:28:03Z</time>
      </trkpt>
      <trkpt lat="48.68369" lon="-4.03449">
        <ele>13.6</ele>
        <time>2022-06-10T15:28:04Z</time>
      </trkpt>
      <trkpt lat="48.68369" lon="-4.03447">
        <ele>13.6</ele>
        <time>2022-06-10T15:28:05Z</time>
      </trkpt>
      <trkpt lat="48.68368" lon="-4.03445">
        <ele>13.6</ele>
        <time>2022-06-10T15:28:06Z</time>
      </trkpt>
      <trkpt lat="48.68368" lon="-4.03444">
        <ele>13.6</ele>
        <time>2022-06-10T15:28:08Z</time>
      </trkpt>
      <trkpt lat="48.68367" lon="-4.03442">
        <ele>13.6</ele>
        <time>2022-06-10T15:28:09Z</time>
      </trkpt>
      <trkpt lat="48.68367" lon="-4.03441">
        <ele>13.7</ele>
        <time>2022-06-10T15:28:10Z</time>
      </trkpt>
      <trkpt lat="48.68366" lon="-4.0344">
        <ele>13.7</ele>
        <time>2022-06-10T15:28:11Z</time>
      </trkpt>
      <trkpt lat="48.68366" lon="-4.03438">
        <ele>13.7</ele>
        <time>2022-06-10T15:28:12Z</time>
      </trkpt>
      <trkpt lat="48.68365" lon="-4.03437">
        <ele>13.7</ele>
        <time>2022-06-10T15:28:13Z</time>
      </trkpt>
      <trkpt lat="48.68364" lon="-4.03436">
        <ele>13.7</ele>
        <time>2022-06-10T15:28:14Z</time>
      </trkpt>
      <trkpt lat="48.68363" lon="-4.03435">
        <ele>13.7</ele>
        <time>2022-06-10T15:28:16Z</time>
      </trkpt>
      <trkpt lat="48.68362" lon="-4.03434">
        <ele>13.7</ele>
        <time>2022-06-10T15:28:18Z</time>
      </trkpt>
      <trkpt lat="48.68361" lon="-4.03434">
        <ele>13.7</ele>
        <time>2022-06-10T15:28:19Z</time>
      </trkpt>
      <trkpt lat="48.68361" lon="-4.03434">
        <ele>13.7</ele>
        <time>2022-06-10T15:28:20Z</time>
      </trkpt>
      <trkpt lat="48.6836" lon="-4.03434">
        <ele>13.7</ele>
        <time>2022-06-10T15:28:21Z</time>
      </trkpt>
      <trkpt lat="48.68358" lon="-4.03435">
        <ele>13.7</ele>
        <time>2022-06-10T15:28:22Z</time>
      </trkpt>
      <trkpt lat="48.68357" lon="-4.03435">
        <ele>13.7</ele>
        <time>2022-06-10T15:28:24Z</time>
      </trkpt>
      <trkpt lat="48.68356" lon="-4.03434">
        <ele>13.8</ele>
        <time>2022-06-10T15:28:25Z</time>
      </trkpt>
      <trkpt lat="48.68354" lon="-4.03434">
        <ele>13.8</ele>
        <time>2022-06-10T15:28:27Z</time>
      </trkpt>
      <trkpt lat="48.68353" lon="-4.03433">
        <ele>13.8</ele>
        <time>2022-06-10T15:28:28Z</time>
      </trkpt>
      <trkpt lat="48.68352" lon="-4.03433">
        <ele>13.8</ele>
        <time>2022-06-10T15:28:29Z</time>
      </trkpt>
      <trkpt lat="48.68351" lon="-4.03432">
        <ele>13.8</ele>
        <time>2022-06-10T15:28:31Z</time>
      </trkpt>
      <trkpt lat="48.6835" lon="-4.03432">
        <ele>13.8</ele>
        <time>2022-06-10T15:28:32Z</time>
      </trkpt>
      <trkpt lat="48.68349" lon="-4.03431">
        <ele>13.8</ele>
        <time>2022-06-10T15:28:33Z</time>
      </trkpt>
      <trkpt lat="48.68348" lon="-4.03431">
        <ele>13.8</ele>
        <time>2022-06-10T15:28:34Z</time>
      </trkpt>
      <trkpt lat="48.68348" lon="-4.03431">
        <ele>13.8</ele>
        <time>2022-06-10T15:28:36Z</time>
      </trkpt>
      <trkpt lat="48.68347" lon="-4.03431">
        <ele>13.8</ele>
        <time>2022-06-10T15:28:37Z</time>
      </trkpt>
      <trkpt lat="48.68346" lon="-4.03431">
        <ele>13.8</ele>
        <time>2022-06-10T15:28:38Z</time>
      </trkpt>
      <trkpt lat="48.68345" lon="-4.03431">
        <ele>13.8</ele>
        <time>2022-06-10T15:28:39Z</time>
      </trkpt>
      <trkpt lat="48.68344" lon="-4.03431">
        <ele>13.8</ele>
        <time>2022-06-10T15:28:40Z</time>
      </trkpt>
      <trkpt lat="48.68343" lon="-4.03431">
        <ele>13.8</ele>
        <time>2022-06-10T15:28:42Z</time>
      </trkpt>
      <trkpt lat="48.68341" lon="-4.03431">
        <ele>13.8</ele>
        <time>2022-06-10T15:28:43Z</time>
      </trkpt>
      <trkpt lat="48.68341" lon="-4.03431">
        <ele>13.8</ele>
        <time>2022-06-10T15:28:44Z</time>
      </trkpt>
      <trkpt lat="48.6834" lon="-4.03431">
        <ele>13.8</ele>
        <time>2022-06-10T15:28:46Z</time>
      </trkpt>
      <trkpt lat="48.68339" lon="-4.0343">
        <ele>13.8</ele>
        <time>2022-06-10T15:28:47Z</time>
      </trkpt>
      <trkpt lat="48.68337" lon="-4.0343">
        <ele>13.9</ele>
        <time>2022-06-10T15:28:48Z</time>
      </trkpt>
      <trkpt lat="48.68336" lon="-4.0343">
        <ele>13.9</ele>
        <time>2022-06-10T15:28:49Z</time>
      </trkpt>
      <trkpt lat="48.68334" lon="-4.03429">
        <ele>13.9</ele>
        <time>2022-06-10T15:28:50Z</time>
      </trkpt>
      <trkpt lat="48.68333" lon="-4.03429">
        <ele>13.9</ele>
        <time>2022-06-10T15:28:52Z</time>
      </trkpt>
      <trkpt lat="48.68332" lon="-4.03428">
        <ele>13.9</ele>
        <time>2022-06-10T15:28:53Z</time>
      </trkpt>
      <trkpt lat="48.6833" lon="-4.03428">
        <ele>13.9</ele>
        <time>2022-06-10T15:28:54Z</time>
      </trkpt>
      <trkpt lat="48.68329" lon="-4.03427">
        <ele>13.9</ele>
        <time>2022-06-10T15:28:55Z</time>
      </trkpt>
      <trkpt lat="48.68328" lon="-4.03427">
        <ele>13.9</ele>
        <time>2022-06-10T15:28:57Z</time>
      </trkpt>
      <trkpt lat="48.68327" lon="-4.03427">
        <ele>13.9</ele>
        <time>2022-06-10T15:28:58Z</time>
      </trkpt>
      <trkpt lat="48.68326" lon="-4.03427">
        <ele>13.9</ele>
        <time>2022-06-10T15:28:59Z</time>
      </trkpt>
      <trkpt lat="48.68326" lon="-4.03426">
        <ele>13.9</ele>
        <time>2022-06-10T15:29:00Z</time>
      </trkpt>
      <trkpt lat="48.68325" lon="-4.03426">
        <ele>13.9</ele>
        <time>2022-06-10T15:29:01Z</time>
      </trkpt>
      <trkpt lat="48.68323" lon="-4.03426">
        <ele>13.9</ele>
        <time>2022-06-10T15:29:02Z</time>
      </trkpt>
      <trkpt lat="48.68322" lon="-4.03426">
        <ele>13.9</ele>
        <time>2022-06-10T15:29:04Z</time>
      </trkpt>
      <trkpt lat="48.68321" lon="-4.03426">
        <ele>13.9</ele>
        <time>2022-06-10T15:29:05Z</time>
      </trkpt>
      <trkpt lat="48.68319" lon="-4.03425">
        <ele>14</ele>
        <time>2022-06-10T15:29:07Z</time>
      </trkpt>
      <trkpt lat="48.68318" lon="-4.03425">
        <ele>14</ele>
        <time>2022-06-10T15:29:08Z</time>
      </trkpt>
      <trkpt lat="48.68317" lon="-4.03425">
        <ele>14</ele>
        <time>2022-06-10T15:29:09Z</time>
      </trkpt>
      <trkpt lat="48.68317" lon="-4.03425">
        <ele>14</ele>
        <time>2022-06-10T15:29:10Z</time>
      </trkpt>
      <trkpt lat="48.68316" lon="-4.03425">
        <ele>14</ele>
        <time>2022-06-10T15:29:11Z</time>
      </trkpt>
      <trkpt lat="48.68315" lon="-4.03425">
        <ele>14</ele>
        <time>2022-06-10T15:29:12Z</time>
      </trkpt>
      <trkpt lat="48.68314" lon="-4.03424">
        <ele>14</ele>
        <time>2022-06-10T15:29:13Z</time>
      </trkpt>
      <trkpt lat="48.68313" lon="-4.03423">
        <ele>14</ele>
        <time>2022-06-10T15:29:14Z</time>
      </trkpt>
      <trkpt lat="48.68313" lon="-4.03422">
        <ele>14</ele>
        <time>2022-06-10T15:29:16Z</time>
      </trkpt>
      <trkpt lat="48.68313" lon="-4.03421">
        <ele>14</ele>
        <time>2022-06-10T15:29:17Z</time>
      </trkpt>
      <trkpt lat="48.68313" lon="-4.0342">
        <ele>14</ele>
        <time>2022-06-10T15:29:18Z</time>
      </trkpt>
      <trkpt lat="48.68313" lon="-4.03419">
        <ele>14</ele>
        <time>2022-06-10T15:29:19Z</time>
      </trkpt>
      <trkpt lat="48.68314" lon="-4.03418">
        <ele>14</ele>
        <time>2022-06-10T15:29:21Z</time>
      </trkpt>
      <trkpt lat="48.68314" lon="-4.03417">
        <ele>14</ele>
        <time>2022-06-10T15:29:22Z</time>
      </trkpt>
      <trkpt lat="48.68314" lon="-4.03415">
        <ele>14</ele>
        <time>2022-06-10T15:29:23Z</time>
      </trkpt>
      <trkpt lat="48.68314" lon="-4.03414">
        <ele>14</ele>
        <time>2022-06-10T15:29:24Z</time>
      </trkpt>
      <trkpt lat="48.68314" lon="-4.03413">
        <ele>14.1</ele>
        <time>2022-06-10T15:29:25Z</time>
      </trkpt>
      <trkpt lat="48.68314" lon="-4.03412">
        <ele>14.1</ele>
        <time>2022-06-10T15:29:26Z</time>
      </trkpt>
      <trkpt lat="48.68314" lon="-4.03411">
        <ele>14.1</ele>
        <time>2022-06-10T15:29:27Z</time>
      </trkpt>
      <trkpt lat="48.68314" lon="-4.03409">
        <ele>14.1</ele>
        <time>2022-06-10T15:29:29Z</time>
      </trkpt>
      <trkpt lat="48.68314" lon="-4.03407">
        <ele>14.1</ele>
        <time>2022-06-10T15:29:30Z</time>
      </trkpt>
      <trkpt lat="48.68315" lon="-4.03406">
        <ele>14.1</ele>
        <time>2022-06-10T15:29:31Z</time>
      </trkpt>
      <trkpt lat="48.68315" lon="-4.03404">
        <ele>14.1</ele>
        <time>2022-06-10T15:29:33Z</time>
      </trkpt>
      <trkpt lat="48.68316" lon="-4.03403">
        <ele>14.1</ele>
        <time>2022-06-10T15:29:34Z</time>
      </trkpt>
      <trkpt lat="48.68316" lon="-4.03401">
        <ele>14.1</ele>
        <time>2022-06-10T15:29:35Z</time>
      </trkpt>
      <trkpt lat="48.68317" lon="-4.034">
        <ele>14.1</ele>
        <time>2022-06-10T15:29:36Z</time>
      </trkpt>
      <trkpt lat="48.68317" lon="-4.03398">
        <ele>14.1</ele>
        <time>2022-06-10T15:29:38Z</time>
      </trkpt>
      <trkpt lat="48.68318" lon="-4.03395">
        <ele>14.2</ele>
        <time>2022-06-10T15:29:40Z</time>
      </trkpt>
      <trkpt lat="48.68318" lon="-4.03393">
        <ele>14.2</ele>
        <time>2022-06-10T15:29:41Z</time>
      </trkpt>
      <trkpt lat="48.68318" lon="-4.03392">
        <ele>14.2</ele>
        <time>2022-06-10T15:29:42Z</time>
      </trkpt>
      <trkpt lat="48.68319" lon="-4.0339">
        <ele>14.2</ele>
        <time>2022-06-10T15:29:43Z</time>
      </trkpt>
      <trkpt lat="48.68319" lon="-4.03389">
        <ele>14.2</ele>
        <time>2022-06-10T15:29:45Z</time>
      </trkpt>
      <trkpt lat="48.68319" lon="-4.03387">
        <ele>14.2</ele>
        <time>2022-06-10T15:29:46Z</time>
      </trkpt>
      <trkpt lat="48.68319" lon="-4.03386">
        <ele>14.2</ele>
        <time>2022-06-10T15:29:47Z</time>
      </trkpt>
      <trkpt lat="48.68319" lon="-4.03385">
        <ele>14.2</ele>
        <time>2022-06-10T15:29:48Z</time>
      </trkpt>
      <trkpt lat="48.6832" lon="-4.03383">
        <ele>14.2</ele>
        <time>2022-06-10T15:29:50Z</time>
      </trkpt>
      <trkpt lat="48.6832" lon="-4.03381">
        <ele>14.2</ele>
        <time>2022-06-10T15:29:51Z</time>
      </trkpt>
      <trkpt lat="48.6832" lon="-4.0338">
        <ele>14.2</ele>
        <time>2022-06-10T15:29:52Z</time>
      </trkpt>
      <trkpt lat="48.6832" lon="-4.03379">
        <ele>14.3</ele>
        <time>2022-06-10T15:29:53Z</time>
      </trkpt>
      <trkpt lat="48.6832" lon="-4.03377">
        <ele>14.3</ele>
        <time>2022-06-10T15:29:54Z</time>
      </trkpt>
      <trkpt lat="48.68321" lon="-4.03376">
        <ele>14.3</ele>
        <time>2022-06-10T15:29:55Z</time>
      </trkpt>
      <trkpt lat="48.68321" lon="-4.03376">
        <ele>14.3</ele>
        <time>2022-06-10T15:29:56Z</time>
      </trkpt>
      <trkpt lat="48.68321" lon="-4.03375">
        <ele>14.3</ele>
        <time>2022-06-10T15:29:57Z</time>
      </trkpt>
      <trkpt lat="48.68321" lon="-4.03375">
        <ele>14.3</ele>
        <time>2022-06-10T15:29:58Z</time>
      </trkpt>
      <trkpt lat="48.68321" lon="-4.03376">
        <ele>14.3</ele>
        <time>2022-06-10T15:30:00Z</time>
      </trkpt>
      <trkpt lat="48.68321" lon="-4.03376">
        <ele>14.3</ele>
        <time>2022-06-10T15:30:01Z</time>
      </trkpt>
      <trkpt lat="48.68321" lon="-4.03376">
        <ele>14.3</ele>
        <time>2022-06-10T15:30:02Z</time>
      </trkpt>
      <trkpt lat="48.68321" lon="-4.03376">
        <ele>14.3</ele>
        <time>2022-06-10T15:30:03Z</time>
      </trkpt>
      <trkpt lat="48.68321" lon="-4.03376">
        <ele>14.3</ele>
        <time>2022-06-10T15:30:04Z</time>
      </trkpt>
      <trkpt lat="48.68321" lon="-4.03375">
        <ele>14.3</ele>
        <time>2022-06-10T15:30:06Z</time>
      </trkpt>
      <trkpt lat="48.68321" lon="-4.03373">
        <ele>14.3</ele>
        <time>2022-06-10T15:30:07Z</time>
      </trkpt>
      <trkpt lat="48.68321" lon="-4.03371">
        <ele>14.3</ele>
        <time>2022-06-10T15:30:08Z</time>
      </trkpt>
      <trkpt lat="48.68321" lon="-4.0337">
        <ele>14.3</ele>
        <time>2022-06-10T15:30:09Z</time>
      </trkpt>
      <trkpt lat="48.6832" lon="-4.03368">
        <ele>14.3</ele>
        <time>2022-06-10T15:30:10Z</time>
      </trkpt>
      <trkpt lat="48.6832" lon="-4.03366">
        <ele>14.3</ele>
        <time>2022-06-10T15:30:11Z</time>
      </trkpt>
      <trkpt lat="48.6832" lon="-4.03365">
        <ele>14.3</ele>
        <time>2022-06-10T15:30:13Z</time>
      </trkpt>
      <trkpt lat="48.6832" lon="-4.03363">
        <ele>14.3</ele>
        <time>2022-06-10T15:30:14Z</time>
      </trkpt>
      <trkpt lat="48.6832" lon="-4.03361">
        <ele>14.3</ele>
        <time>2022-06-10T15:30:15Z</time>
      </trkpt>
      <trkpt lat="48.6832" lon="-4.0336">
        <ele>14.4</ele>
        <time>2022-06-10T15:30:16Z</time>
      </trkpt>
      <trkpt lat="48.6832" lon="-4.03358">
        <ele>14.4</ele>
        <time>2022-06-10T15:30:17Z</time>
      </trkpt>
      <trkpt lat="48.6832" lon="-4.03357">
        <ele>14.4</ele>
        <time>2022-06-10T15:30:18Z</time>
      </trkpt>
      <trkpt lat="48.6832" lon="-4.03354">
        <ele>14.4</ele>
        <time>2022-06-10T15:30:20Z</time>
      </trkpt>
      <trkpt lat="48.68321" lon="-4.03352">
        <ele>14.4</ele>
        <time>2022-06-10T15:30:21Z</time>
      </trkpt>
      <trkpt lat="48.68321" lon="-4.0335">
        <ele>14.4</ele>
        <time>2022-06-10T15:30:22Z</time>
      </trkpt>
      <trkpt lat="48.68321" lon="-4.03349">
        <ele>14.4</ele>
        <time>2022-06-10T15:30:23Z</time>
      </trkpt>
      <trkpt lat="48.68322" lon="-4.03348">
        <ele>14.4</ele>
        <time>2022-06-10T15:30:24Z</time>
      </trkpt>
      <trkpt lat="48.68323" lon="-4.03347">
        <ele>14.4</ele>
        <time>2022-06-10T15:30:26Z</time>
      </trkpt>
      <trkpt lat="48.68323" lon="-4.03346">
        <ele>14.4</ele>
        <time>2022-06-10T15:30:27Z</time>
      </trkpt>
      <trkpt lat="48.68323" lon="-4.03345">
        <ele>14.4</ele>
        <time>2022-06-10T15:30:28Z</time>
      </trkpt>
      <trkpt lat="48.68323" lon="-4.03343">
        <ele>14.5</ele>
        <time>2022-06-10T15:30:30Z</time>
      </trkpt>
      <trkpt lat="48.68323" lon="-4.03342">
        <ele>14.5</ele>
        <time>2022-06-10T15:30:31Z</time>
      </trkpt>
      <trkpt lat="48.68323" lon="-4.0334">
        <ele>14.5</ele>
        <time>2022-06-10T15:30:32Z</time>
      </trkpt>
      <trkpt lat="48.68323" lon="-4.03338">
        <ele>14.5</ele>
        <time>2022-06-10T15:30:34Z</time>
      </trkpt>
      <trkpt lat="48.68324" lon="-4.03335">
        <ele>14.5</ele>
        <time>2022-06-10T15:30:35Z</time>
      </trkpt>
      <trkpt lat="48.68324" lon="-4.03334">
        <ele>14.5</ele>
        <time>2022-06-10T15:30:36Z</time>
      </trkpt>
      <trkpt lat="48.68324" lon="-4.03333">
        <ele>14.5</ele>
        <time>2022-06-10T15:30:37Z</time>
      </trkpt>
      <trkpt lat="48.68323" lon="-4.03332">
        <ele>14.5</ele>
        <time>2022-06-10T15:30:38Z</time>
      </trkpt>
      <trkpt lat="48.68323" lon="-4.03331">
        <ele>14.5</ele>
        <time>2022-06-10T15:30:39Z</time>
      </trkpt>
      <trkpt lat="48.68323" lon="-4.03329">
        <ele>14.5</ele>
        <time>2022-06-10T15:30:40Z</time>
      </trkpt>
      <trkpt lat="48.68323" lon="-4.03328">
        <ele>14.5</ele>
        <time>2022-06-10T15:30:41Z</time>
      </trkpt>
      <trkpt lat="48.68322" lon="-4.03327">
        <ele>14.5</ele>
        <time>2022-06-10T15:30:42Z</time>
      </trkpt>
      <trkpt lat="48.68322" lon="-4.03326">
        <ele>14.5</ele>
        <time>2022-06-10T15:30:43Z</time>
      </trkpt>
      <trkpt lat="48.68321" lon="-4.03323">
        <ele>14.6</ele>
        <time>2022-06-10T15:30:45Z</time>
      </trkpt>
      <trkpt lat="48.68321" lon="-4.03322">
        <ele>14.6</ele>
        <time>2022-06-10T15:30:46Z</time>
      </trkpt>
      <trkpt lat="48.6832" lon="-4.03321">
        <ele>14.6</ele>
        <time>2022-06-10T15:30:47Z</time>
      </trkpt>
      <trkpt lat="48.68319" lon="-4.0332">
        <ele>14.6</ele>
        <time>2022-06-10T15:30:48Z</time>
      </trkpt>
      <trkpt lat="48.68318" lon="-4.03318">
        <ele>14.6</ele>
        <time>2022-06-10T15:30:50Z</time>
      </trkpt>
      <trkpt lat="48.68317" lon="-4.03317">
        <ele>14.6</ele>
        <time>2022-06-10T15:30:51Z</time>
      </trkpt>
      <trkpt lat="48.68317" lon="-4.03316">
        <ele>14.6</ele>
        <time>2022-06-10T15:30:52Z</time>
      </trkpt>
      <trkpt lat="48.68316" lon="-4.03314">
        <ele>14.6</ele>
        <time>2022-06-10T15:30:53Z</time>
      </trkpt>
      <trkpt lat="48.68315" lon="-4.03312">
        <ele>14.6</ele>
        <time>2022-06-10T15:30:54Z</time>
      </trkpt>
      <trkpt lat="48.68315" lon="-4.03311">
        <ele>14.6</ele>
        <time>2022-06-10T15:30:56Z</time>
      </trkpt>
      <trkpt lat="48.68314" lon="-4.03309">
        <ele>14.7</ele>
        <time>2022-06-10T15:30:57Z</time>
      </trkpt>
      <trkpt lat="48.68314" lon="-4.03308">
        <ele>14.7</ele>
        <time>2022-06-10T15:30:58Z</time>
      </trkpt>
      <trkpt lat="48.68314" lon="-4.03307">
        <ele>14.7</ele>
        <time>2022-06-10T15:30:59Z</time>
      </trkpt>
      <trkpt lat="48.68313" lon="-4.03306">
        <ele>14.7</ele>
        <time>2022-06-10T15:31:00Z</time>
      </trkpt>
      <trkpt lat="48.68312" lon="-4.03304">
        <ele>14.7</ele>
        <time>2022-06-10T15:31:01Z</time>
      </trkpt>
      <trkpt lat="48.68311" lon="-4.03301">
        <ele>14.7</ele>
        <time>2022-06-10T15:31:03Z</time>
      </trkpt>
      <trkpt lat="48.68311" lon="-4.03299">
        <ele>14.7</ele>
        <time>2022-06-10T15:31:04Z</time>
      </trkpt>
      <trkpt lat="48.6831" lon="-4.03298">
        <ele>14.7</ele>
        <time>2022-06-10T15:31:05Z</time>
      </trkpt>
      <trkpt lat="48.6831" lon="-4.03297">
        <ele>14.7</ele>
        <time>2022-06-10T15:31:06Z</time>
      </trkpt>
      <trkpt lat="48.68309" lon="-4.03296">
        <ele>14.7</ele>
        <time>2022-06-10T15:31:07Z</time>
      </trkpt>
      <trkpt lat="48.68309" lon="-4.03294">
        <ele>14.7</ele>
        <time>2022-06-10T15:31:08Z</time>
      </trkpt>
      <trkpt lat="48.68308" lon="-4.03292">
        <ele>14.8</ele>
        <time>2022-06-10T15:31:10Z</time>
      </trkpt>
      <trkpt lat="48.68308" lon="-4.03292">
        <ele>14.8</ele>
        <time>2022-06-10T15:31:11Z</time>
      </trkpt>
      <trkpt lat="48.68308" lon="-4.03291">
        <ele>14.8</ele>
        <time>2022-06-10T15:31:12Z</time>
      </trkpt>
      <trkpt lat="48.68308" lon="-4.0329">
        <ele>14.8</ele>
        <time>2022-06-10T15:31:13Z</time>
      </trkpt>
      <trkpt lat="48.68307" lon="-4.03289">
        <ele>14.8</ele>
        <time>2022-06-10T15:31:14Z</time>
      </trkpt>
      <trkpt lat="48.68307" lon="-4.03288">
        <ele>14.8</ele>
        <time>2022-06-10T15:31:16Z</time>
      </trkpt>
      <trkpt lat="48.68307" lon="-4.03288">
        <ele>14.8</ele>
        <time>2022-06-10T15:31:17Z</time>
      </trkpt>
      <trkpt lat="48.68307" lon="-4.03287">
        <ele>14.8</ele>
        <time>2022-06-10T15:31:18Z</time>
      </trkpt>
      <trkpt lat="48.68306" lon="-4.03286">
        <ele>14.8</ele>
        <time>2022-06-10T15:31:19Z</time>
      </trkpt>
      <trkpt lat="48.68306" lon="-4.03285">
        <ele>14.8</ele>
        <time>2022-06-10T15:31:20Z</time>
      </trkpt>
      <trkpt lat="48.68306" lon="-4.03285">
        <ele>14.8</ele>
        <time>2022-06-10T15:31:21Z</time>
      </trkpt>
      <trkpt lat="48.68305" lon="-4.03285">
        <ele>14.8</ele>
        <time>2022-06-10T15:31:23Z</time>
      </trkpt>
      <trkpt lat="48.68305" lon="-4.03284">
        <ele>14.8</ele>
        <time>2022-06-10T15:31:24Z</time>
      </trkpt>
      <trkpt lat="48.68305" lon="-4.03283">
        <ele>14.8</ele>
        <time>2022-06-10T15:31:25Z</time>
      </trkpt>
      <trkpt lat="48.68305" lon="-4.03282">
        <ele>14.8</ele>
        <time>2022-06-10T15:31:26Z</time>
      </trkpt>
      <trkpt lat="48.68305" lon="-4.0328">
        <ele>14.8</ele>
        <time>2022-06-10T15:31:27Z</time>
      </trkpt>
      <trkpt lat="48.68306" lon="-4.03279">
        <ele>14.8</ele>
        <time>2022-06-10T15:31:29Z</time>
      </trkpt>
      <trkpt lat="48.68306" lon="-4.03277">
        <ele>14.8</ele>
        <time>2022-06-10T15:31:30Z</time>
      </trkpt>
      <trkpt lat="48.68306" lon="-4.03276">
        <ele>14.9</ele>
        <time>2022-06-10T15:31:31Z</time>
      </trkpt>
      <trkpt lat="48.68306" lon="-4.03274">
        <ele>14.9</ele>
        <time>2022-06-10T15:31:33Z</time>
      </trkpt>
      <trkpt lat="48.68306" lon="-4.03272">
        <ele>14.9</ele>
        <time>2022-06-10T15:31:34Z</time>
      </trkpt>
      <trkpt lat="48.68306" lon="-4.0327">
        <ele>14.9</ele>
        <time>2022-06-10T15:31:35Z</time>
      </trkpt>
      <trkpt lat="48.68306" lon="-4.03269">
        <ele>14.9</ele>
        <time>2022-06-10T15:31:36Z</time>
      </trkpt>
      <trkpt lat="48.68306" lon="-4.03269">
        <ele>14.9</ele>
        <time>2022-06-10T15:31:37Z</time>
      </trkpt>
      <trkpt lat="48.68306" lon="-4.03269">
        <ele>14.9</ele>
        <time>2022-06-10T15:31:38Z</time>
      </trkpt>
      <trkpt lat="48.68306" lon="-4.03269">
        <ele>14.9</ele>
        <time>2022-06-10T15:31:39Z</time>
      </trkpt>
      <trkpt lat="48.68306" lon="-4.03269">
        <ele>14.9</ele>
        <time>2022-06-10T15:31:40Z</time>
      </trkpt>
      <trkpt lat="48.68306" lon="-4.03269">
        <ele>14.9</ele>
        <time>2022-06-10T15:31:41Z</time>
      </trkpt>
      <trkpt lat="48.68306" lon="-4.03269">
        <ele>14.9</ele>
        <time>2022-06-10T15:31:42Z</time>
      </trkpt>
      <trkpt lat="48.68306" lon="-4.03269">
        <ele>14.9</ele>
        <time>2022-06-10T15:31:43Z</time>
      </trkpt>
      <trkpt lat="48.68306" lon="-4.03268">
        <ele>14.9</ele>
        <time>2022-06-10T15:31:45Z</time>
      </trkpt>
      <trkpt lat="48.68306" lon="-4.03267">
        <ele>14.9</ele>
        <time>2022-06-10T15:31:46Z</time>
      </trkpt>
      <trkpt lat="48.68306" lon="-4.03266">
        <ele>14.9</ele>
        <time>2022-06-10T15:31:47Z</time>
      </trkpt>
      <trkpt lat="48.68305" lon="-4.03264">
        <ele>14.9</ele>
        <time>2022-06-10T15:31:49Z</time>
      </trkpt>
      <trkpt lat="48.68305" lon="-4.03262">
        <ele>14.9</ele>
        <time>2022-06-10T15:31:50Z</time>
      </trkpt>
      <trkpt lat="48.68305" lon="-4.0326">
        <ele>15</ele>
        <time>2022-06-10T15:31:51Z</time>
      </trkpt>
      <trkpt lat="48.68305" lon="-4.03259">
        <ele>15</ele>
        <time>2022-06-10T15:31:52Z</time>
      </trkpt>
      <trkpt lat="48.68304" lon="-4.03258">
        <ele>15</ele>
        <time>2022-06-10T15:31:53Z</time>
      </trkpt>
      <trkpt lat="48.68304" lon="-4.03257">
        <ele>15</ele>
        <time>2022-06-10T15:31:54Z</time>
      </trkpt>
      <trkpt lat="48.68303" lon="-4.03255">
        <ele>15</ele>
        <time>2022-06-10T15:31:55Z</time>
      </trkpt>
      <trkpt lat="48.68303" lon="-4.03254">
        <ele>15</ele>
        <time>2022-06-10T15:31:57Z</time>
      </trkpt>
      <trkpt lat="48.68303" lon="-4.03253">
        <ele>15</ele>
        <time>2022-06-10T15:31:58Z</time>
      </trkpt>
      <trkpt lat="48.68303" lon="-4.03251">
        <ele>15</ele>
        <time>2022-06-10T15:31:59Z</time>
      </trkpt>
      <trkpt lat="48.68303" lon="-4.03249">
        <ele>15</ele>
        <time>2022-06-10T15:32:00Z</time>
      </trkpt>
      <trkpt lat="48.68303" lon="-4.03248">
        <ele>15</ele>
        <time>2022-06-10T15:32:01Z</time>
      </trkpt>
      <trkpt lat="48.68303" lon="-4.03246">
        <ele>15</ele>
        <time>2022-06-10T15:32:03Z</time>
      </trkpt>
      <trkpt lat="48.68303" lon="-4.03244">
        <ele>15</ele>
        <time>2022-06-10T15:32:04Z</time>
      </trkpt>
      <trkpt lat="48.68303" lon="-4.03243">
        <ele>15</ele>
        <time>2022-06-10T15:32:05Z</time>
      </trkpt>
      <trkpt lat="48.68303" lon="-4.03242">
        <ele>15.1</ele>
        <time>2022-06-10T15:32:07Z</time>
      </trkpt>
      <trkpt lat="48.68303" lon="-4.03241">
        <ele>15.1</ele>
        <time>2022-06-10T15:32:08Z</time>
      </trkpt>
      <trkpt lat="48.68302" lon="-4.0324">
        <ele>15.1</ele>
        <time>2022-06-10T15:32:09Z</time>
      </trkpt>
      <trkpt lat="48.68302" lon="-4.0324">
        <ele>15.1</ele>
        <time>2022-06-10T15:32:10Z</time>
      </trkpt>
      <trkpt lat="48.68302" lon="-4.0324">
        <ele>15.1</ele>
        <time>2022-06-10T15:32:11Z</time>
      </trkpt>
      <trkpt lat="48.68302" lon="-4.0324">
        <ele>15.1</ele>
        <time>2022-06-10T15:32:12Z</time>
      </trkpt>
      <trkpt lat="48.68302" lon="-4.0324">
        <ele>15.1</ele>
        <time>2022-06-10T15:32:13Z</time>
      </trkpt>
      <trkpt lat="48.68302" lon="-4.0324">
        <ele>15.1</ele>
        <time>2022-06-10T15:32:14Z</time>
      </trkpt>
      <trkpt lat="48.68302" lon="-4.03241">
        <ele>15.1</ele>
        <time>2022-06-10T15:32:15Z</time>
      </trkpt>
      <trkpt lat="48.68302" lon="-4.03241">
        <ele>15.1</ele>
        <time>2022-06-10T15:32:16Z</time>
      </trkpt>
      <trkpt lat="48.68302" lon="-4.03241">
        <ele>15.1</ele>
        <time>2022-06-10T15:32:17Z</time>
      </trkpt>
      <trkpt lat="48.68302" lon="-4.03241">
        <ele>15.1</ele>
        <time>2022-06-10T15:32:19Z</time>
      </trkpt>
      <trkpt lat="48.68302" lon="-4.0324">
        <ele>15.1</ele>
        <time>2022-06-10T15:32:20Z</time>
      </trkpt>
      <trkpt lat="48.68302" lon="-4.03239">
        <ele>15.1</ele>
        <time>2022-06-10T15:32:21Z</time>
      </trkpt>
      <trkpt lat="48.68302" lon="-4.03238">
        <ele>15.1</ele>
        <time>2022-06-10T15:32:23Z</time>
      </trkpt>
      <trkpt lat="48.68302" lon="-4.03236">
        <ele>15.1</ele>
        <time>2022-06-10T15:32:24Z</time>
      </trkpt>
      <trkpt lat="48.68302" lon="-4.03234">
        <ele>15.1</ele>
        <time>2022-06-10T15:32:25Z</time>
      </trkpt>
      <trkpt lat="48.68302" lon="-4.03232">
        <ele>15.1</ele>
        <time>2022-06-10T15:32:27Z</time>
      </trkpt>
      <trkpt lat="48.68302" lon="-4.0323">
        <ele>15.1</ele>
        <time>2022-06-10T15:32:28Z</time>
      </trkpt>
      <trkpt lat="48.68302" lon="-4.03228">
        <ele>15.1</ele>
        <time>2022-06-10T15:32:29Z</time>
      </trkpt>
      <trkpt lat="48.68302" lon="-4.03226">
        <ele>15.2</ele>
        <time>2022-06-10T15:32:30Z</time>
      </trkpt>
      <trkpt lat="48.68302" lon="-4.03225">
        <ele>15.2</ele>
        <time>2022-06-10T15:32:32Z</time>
      </trkpt>
      <trkpt lat="48.68302" lon="-4.03223">
        <ele>15.2</ele>
        <time>2022-06-10T15:32:33Z</time>
      </trkpt>
      <trkpt lat="48.68302" lon="-4.03222">
        <ele>15.2</ele>
        <time>2022-06-10T15:32:34Z</time>
      </trkpt>
      <trkpt lat="48.68301" lon="-4.0322">
        <ele>15.2</ele>
        <time>2022-06-10T15:32:35Z</time>
      </trkpt>
      <trkpt lat="48.683" lon="-4.03218">
        <ele>15.2</ele>
        <time>2022-06-10T15:32:37Z</time>
      </trkpt>
      <trkpt lat="48.68299" lon="-4.03216">
        <ele>15.2</ele>
        <time>2022-06-10T15:32:38Z</time>
      </trkpt>
      <trkpt lat="48.68298" lon="-4.03215">
        <ele>15.2</ele>
        <time>2022-06-10T15:32:39Z</time>
      </trkpt>
      <trkpt lat="48.68298" lon="-4.03214">
        <ele>15.2</ele>
        <time>2022-06-10T15:32:40Z</time>
      </trkpt>
      <trkpt lat="48.68298" lon="-4.03212">
        <ele>15.2</ele>
        <time>2022-06-10T15:32:42Z</time>
      </trkpt>
      <trkpt lat="48.68298" lon="-4.03211">
        <ele>15.2</ele>
        <time>2022-06-10T15:32:43Z</time>
      </trkpt>
      <trkpt lat="48.68298" lon="-4.03209">
        <ele>15.3</ele>
        <time>2022-06-10T15:32:44Z</time>
      </trkpt>
      <trkpt lat="48.68298" lon="-4.03208">
        <ele>15.3</ele>
        <time>2022-06-10T15:32:45Z</time>
      </trkpt>
      <trkpt lat="48.68299" lon="-4.03208">
        <ele>15.3</ele>
        <time>2022-06-10T15:32:46Z</time>
      </trkpt>
      <trkpt lat="48.68299" lon="-4.03207">
        <ele>15.3</ele>
        <time>2022-06-10T15:32:47Z</time>
      </trkpt>
      <trkpt lat="48.683" lon="-4.03205">
        <ele>15.3</ele>
        <time>2022-06-10T15:32:48Z</time>
      </trkpt>
      <trkpt lat="48.683" lon="-4.03203">
        <ele>15.3</ele>
        <time>2022-06-10T15:32:50Z</time>
      </trkpt>
      <trkpt lat="48.683" lon="-4.03202">
        <ele>15.3</ele>
        <time>2022-06-10T15:32:51Z</time>
      </trkpt>
      <trkpt lat="48.683" lon="-4.03201">
        <ele>15.3</ele>
        <time>2022-06-10T15:32:52Z</time>
      </trkpt>
      <trkpt lat="48.683" lon="-4.032">
        <ele>15.3</ele>
        <time>2022-06-10T15:32:53Z</time>
      </trkpt>
      <trkpt lat="48.683" lon="-4.03198">
        <ele>15.3</ele>
        <time>2022-06-10T15:32:55Z</time>
      </trkpt>
      <trkpt lat="48.68299" lon="-4.03196">
        <ele>15.3</ele>
        <time>2022-06-10T15:32:56Z</time>
      </trkpt>
      <trkpt lat="48.68299" lon="-4.03195">
        <ele>15.3</ele>
        <time>2022-06-10T15:32:57Z</time>
      </trkpt>
      <trkpt lat="48.68298" lon="-4.03193">
        <ele>15.3</ele>
        <time>2022-06-10T15:32:59Z</time>
      </trkpt>
      <trkpt lat="48.68298" lon="-4.03192">
        <ele>15.4</ele>
        <time>2022-06-10T15:33:00Z</time>
      </trkpt>
      <trkpt lat="48.68298" lon="-4.03191">
        <ele>15.4</ele>
        <time>2022-06-10T15:33:01Z</time>
      </trkpt>
      <trkpt lat="48.68298" lon="-4.0319">
        <ele>15.4</ele>
        <time>2022-06-10T15:33:02Z</time>
      </trkpt>
      <trkpt lat="48.68298" lon="-4.03189">
        <ele>15.4</ele>
        <time>2022-06-10T15:33:04Z</time>
      </trkpt>
      <trkpt lat="48.68298" lon="-4.03187">
        <ele>15.4</ele>
        <time>2022-06-10T15:33:06Z</time>
      </trkpt>
      <trkpt lat="48.68297" lon="-4.03185">
        <ele>15.4</ele>
        <time>2022-06-10T15:33:07Z</time>
      </trkpt>
      <trkpt lat="48.68298" lon="-4.03184">
        <ele>15.4</ele>
        <time>2022-06-10T15:33:09Z</time>
      </trkpt>
      <trkpt lat="48.68298" lon="-4.03182">
        <ele>15.4</ele>
        <time>2022-06-10T15:33:10Z</time>
      </trkpt>
      <trkpt lat="48.68298" lon="-4.03182">
        <ele>15.4</ele>
        <time>2022-06-10T15:33:11Z</time>
      </trkpt>
      <trkpt lat="48.68299" lon="-4.03181">
        <ele>15.4</ele>
        <time>2022-06-10T15:33:12Z</time>
      </trkpt>
      <trkpt lat="48.68299" lon="-4.03179">
        <ele>15.4</ele>
        <time>2022-06-10T15:33:14Z</time>
      </trkpt>
      <trkpt lat="48.68298" lon="-4.03178">
        <ele>15.4</ele>
        <time>2022-06-10T15:33:15Z</time>
      </trkpt>
      <trkpt lat="48.68298" lon="-4.03177">
        <ele>15.4</ele>
        <time>2022-06-10T15:33:16Z</time>
      </trkpt>
      <trkpt lat="48.68298" lon="-4.03176">
        <ele>15.4</ele>
        <time>2022-06-10T15:33:18Z</time>
      </trkpt>
      <trkpt lat="48.68298" lon="-4.03175">
        <ele>15.4</ele>
        <time>2022-06-10T15:33:19Z</time>
      </trkpt>
      <trkpt lat="48.68299" lon="-4.03174">
        <ele>15.5</ele>
        <time>2022-06-10T15:33:20Z</time>
      </trkpt>
      <trkpt lat="48.68299" lon="-4.03174">
        <ele>15.5</ele>
        <time>2022-06-10T15:33:21Z</time>
      </trkpt>
      <trkpt lat="48.68299" lon="-4.03173">
        <ele>15.5</ele>
        <time>2022-06-10T15:33:22Z</time>
      </trkpt>
      <trkpt lat="48.68299" lon="-4.03171">
        <ele>15.5</ele>
        <time>2022-06-10T15:33:24Z</time>
      </trkpt>
      <trkpt lat="48.68299" lon="-4.0317">
        <ele>15.5</ele>
        <time>2022-06-10T15:33:25Z</time>
      </trkpt>
      <trkpt lat="48.68298" lon="-4.03169">
        <ele>15.5</ele>
        <time>2022-06-10T15:33:26Z</time>
      </trkpt>
      <trkpt lat="48.68298" lon="-4.03167">
        <ele>15.5</ele>
        <time>2022-06-10T15:33:27Z</time>
      </trkpt>
      <trkpt lat="48.68298" lon="-4.03165">
        <ele>15.5</ele>
        <time>2022-06-10T15:33:29Z</time>
      </trkpt>
      <trkpt lat="48.68297" lon="-4.03164">
        <ele>15.5</ele>
        <time>2022-06-10T15:33:30Z</time>
      </trkpt>
      <trkpt lat="48.68297" lon="-4.03162">
        <ele>15.5</ele>
        <time>2022-06-10T15:33:31Z</time>
      </trkpt>
      <trkpt lat="48.68297" lon="-4.0316">
        <ele>15.5</ele>
        <time>2022-06-10T15:33:32Z</time>
      </trkpt>
      <trkpt lat="48.68297" lon="-4.03159">
        <ele>15.5</ele>
        <time>2022-06-10T15:33:33Z</time>
      </trkpt>
      <trkpt lat="48.68297" lon="-4.03158">
        <ele>15.5</ele>
        <time>2022-06-10T15:33:34Z</time>
      </trkpt>
      <trkpt lat="48.68298" lon="-4.03157">
        <ele>15.5</ele>
        <time>2022-06-10T15:33:35Z</time>
      </trkpt>
      <trkpt lat="48.68298" lon="-4.03156">
        <ele>15.6</ele>
        <time>2022-06-10T15:33:36Z</time>
      </trkpt>
      <trkpt lat="48.68299" lon="-4.03156">
        <ele>15.6</ele>
        <time>2022-06-10T15:33:37Z</time>
      </trkpt>
      <trkpt lat="48.68299" lon="-4.03156">
        <ele>15.6</ele>
        <time>2022-06-10T15:33:38Z</time>
      </trkpt>
      <trkpt lat="48.68299" lon="-4.03155">
        <ele>15.6</ele>
        <time>2022-06-10T15:33:39Z</time>
      </trkpt>
      <trkpt lat="48.68299" lon="-4.03155">
        <ele>15.6</ele>
        <time>2022-06-10T15:33:40Z</time>
      </trkpt>
      <trkpt lat="48.68299" lon="-4.03156">
        <ele>15.6</ele>
        <time>2022-06-10T15:33:41Z</time>
      </trkpt>
      <trkpt lat="48.68299" lon="-4.03155">
        <ele>15.6</ele>
        <time>2022-06-10T15:33:42Z</time>
      </trkpt>
      <trkpt lat="48.68299" lon="-4.03155">
        <ele>15.6</ele>
        <time>2022-06-10T15:33:43Z</time>
      </trkpt>
      <trkpt lat="48.68299" lon="-4.03155">
        <ele>15.6</ele>
        <time>2022-06-10T15:33:44Z</time>
      </trkpt>
      <trkpt lat="48.68299" lon="-4.03155">
        <ele>15.6</ele>
        <time>2022-06-10T15:33:46Z</time>
      </trkpt>
      <trkpt lat="48.68298" lon="-4.03155">
        <ele>15.6</ele>
        <time>2022-06-10T15:33:47Z</time>
      </trkpt>
      <trkpt lat="48.68299" lon="-4.03155">
        <ele>15.6</ele>
        <time>2022-06-10T15:33:48Z</time>
      </trkpt>
      <trkpt lat="48.68299" lon="-4.03154">
        <ele>15.6</ele>
        <time>2022-06-10T15:33:49Z</time>
      </trkpt>
      <trkpt lat="48.68299" lon="-4.03155">
        <ele>15.6</ele>
        <time>2022-06-10T15:33:51Z</time>
      </trkpt>
      <trkpt lat="48.68298" lon="-4.03154">
        <ele>15.6</ele>
        <time>2022-06-10T15:33:52Z</time>
      </trkpt>
      <trkpt lat="48.68298" lon="-4.03154">
        <ele>15.6</ele>
        <time>2022-06-10T15:33:53Z</time>
      </trkpt>
      <trkpt lat="48.68298" lon="-4.03152">
        <ele>15.6</ele>
        <time>2022-06-10T15:33:55Z</time>
      </trkpt>
      <trkpt lat="48.68298" lon="-4.03152">
        <ele>15.6</ele>
        <time>2022-06-10T15:33:56Z</time>
      </trkpt>
      <trkpt lat="48.68298" lon="-4.03151">
        <ele>15.6</ele>
        <time>2022-06-10T15:33:57Z</time>
      </trkpt>
      <trkpt lat="48.68298" lon="-4.03151">
        <ele>15.6</ele>
        <time>2022-06-10T15:33:58Z</time>
      </trkpt>
      <trkpt lat="48.68298" lon="-4.03149">
        <ele>15.6</ele>
        <time>2022-06-10T15:34:00Z</time>
      </trkpt>
      <trkpt lat="48.68298" lon="-4.03148">
        <ele>15.6</ele>
        <time>2022-06-10T15:34:01Z</time>
      </trkpt>
      <trkpt lat="48.68298" lon="-4.03147">
        <ele>15.6</ele>
        <time>2022-06-10T15:34:02Z</time>
      </trkpt>
      <trkpt lat="48.68298" lon="-4.03147">
        <ele>15.6</ele>
        <time>2022-06-10T15:34:04Z</time>
      </trkpt>
      <trkpt lat="48.68298" lon="-4.03146">
        <ele>15.6</ele>
        <time>2022-06-10T15:34:05Z</time>
      </trkpt>
      <trkpt lat="48.68298" lon="-4.03145">
        <ele>15.6</ele>
        <time>2022-06-10T15:34:06Z</time>
      </trkpt>
      <trkpt lat="48.68299" lon="-4.03144">
        <ele>15.6</ele>
        <time>2022-06-10T15:34:08Z</time>
      </trkpt>
      <trkpt lat="48.68299" lon="-4.03144">
        <ele>15.6</ele>
        <time>2022-06-10T15:34:09Z</time>
      </trkpt>
      <trkpt lat="48.68299" lon="-4.03143">
        <ele>15.6</ele>
        <time>2022-06-10T15:34:10Z</time>
      </trkpt>
      <trkpt lat="48.68299" lon="-4.03144">
        <ele>15.6</ele>
        <time>2022-06-10T15:34:11Z</time>
      </trkpt>
      <trkpt lat="48.68299" lon="-4.03144">
        <ele>15.6</ele>
        <time>2022-06-10T15:34:12Z</time>
      </trkpt>
      <trkpt lat="48.68299" lon="-4.03145">
        <ele>15.6</ele>
        <time>2022-06-10T15:34:13Z</time>
      </trkpt>
      <trkpt lat="48.68299" lon="-4.03145">
        <ele>15.6</ele>
        <time>2022-06-10T15:34:14Z</time>
      </trkpt>
      <trkpt lat="48.68299" lon="-4.03145">
        <ele>15.6</ele>
        <time>2022-06-10T15:34:15Z</time>
      </trkpt>
      <trkpt lat="48.68299" lon="-4.03146">
        <ele>15.7</ele>
        <time>2022-06-10T15:34:16Z</time>
      </trkpt>
      <trkpt lat="48.68299" lon="-4.03146">
        <ele>15.7</ele>
        <time>2022-06-10T15:34:17Z</time>
      </trkpt>
      <trkpt lat="48.68299" lon="-4.03146">
        <ele>15.7</ele>
        <time>2022-06-10T15:34:18Z</time>
      </trkpt>
      <trkpt lat="48.68299" lon="-4.03146">
        <ele>15.7</ele>
        <time>2022-06-10T15:34:19Z</time>
      </trkpt>
      <trkpt lat="48.68299" lon="-4.03146">
        <ele>15.7</ele>
        <time>2022-06-10T15:34:20Z</time>
      </trkpt>
      <trkpt lat="48.68299" lon="-4.03146">
        <ele>15.7</ele>
        <time>2022-06-10T15:34:21Z</time>
      </trkpt>
      <trkpt lat="48.68299" lon="-4.03146">
        <ele>15.7</ele>
        <time>2022-06-10T15:34:22Z</time>
      </trkpt>
      <trkpt lat="48.68299" lon="-4.03145">
        <ele>15.7</ele>
        <time>2022-06-10T15:34:23Z</time>
      </trkpt>
      <trkpt lat="48.68299" lon="-4.03145">
        <ele>15.7</ele>
        <time>2022-06-10T15:34:24Z</time>
      </trkpt>
      <trkpt lat="48.68299" lon="-4.03144">
        <ele>15.7</ele>
        <time>2022-06-10T15:34:25Z</time>
      </trkpt>
      <trkpt lat="48.68298" lon="-4.03142">
        <ele>15.7</ele>
        <time>2022-06-10T15:34:27Z</time>
      </trkpt>
      <trkpt lat="48.68297" lon="-4.03141">
        <ele>15.7</ele>
        <time>2022-06-10T15:34:28Z</time>
      </trkpt>
      <trkpt lat="48.68297" lon="-4.03139">
        <ele>15.7</ele>
        <time>2022-06-10T15:34:29Z</time>
      </trkpt>
      <trkpt lat="48.68296" lon="-4.03137">
        <ele>15.7</ele>
        <time>2022-06-10T15:34:31Z</time>
      </trkpt>
      <trkpt lat="48.68296" lon="-4.03136">
        <ele>15.7</ele>
        <time>2022-06-10T15:34:32Z</time>
      </trkpt>
      <trkpt lat="48.68296" lon="-4.03135">
        <ele>15.7</ele>
        <time>2022-06-10T15:34:33Z</time>
      </trkpt>
      <trkpt lat="48.68296" lon="-4.03133">
        <ele>15.7</ele>
        <time>2022-06-10T15:34:34Z</time>
      </trkpt>
      <trkpt lat="48.68296" lon="-4.03132">
        <ele>15.7</ele>
        <time>2022-06-10T15:34:35Z</time>
      </trkpt>
      <trkpt lat="48.68296" lon="-4.03131">
        <ele>15.7</ele>
        <time>2022-06-10T15:34:36Z</time>
      </trkpt>
      <trkpt lat="48.68296" lon="-4.0313">
        <ele>15.7</ele>
        <time>2022-06-10T15:34:37Z</time>
      </trkpt>
      <trkpt lat="48.68297" lon="-4.03129">
        <ele>15.8</ele>
        <time>2022-06-10T15:34:38Z</time>
      </trkpt>
      <trkpt lat="48.68297" lon="-4.03128">
        <ele>15.8</ele>
        <time>2022-06-10T15:34:39Z</time>
      </trkpt>
      <trkpt lat="48.68297" lon="-4.03128">
        <ele>15.8</ele>
        <time>2022-06-10T15:34:40Z</time>
      </trkpt>
      <trkpt lat="48.68297" lon="-4.03127">
        <ele>15.8</ele>
        <time>2022-06-10T15:34:41Z</time>
      </trkpt>
      <trkpt lat="48.68297" lon="-4.03126">
        <ele>15.8</ele>
        <time>2022-06-10T15:34:42Z</time>
      </trkpt>
      <trkpt lat="48.68297" lon="-4.03126">
        <ele>15.8</ele>
        <time>2022-06-10T15:34:43Z</time>
      </trkpt>
      <trkpt lat="48.68297" lon="-4.03125">
        <ele>15.8</ele>
        <time>2022-06-10T15:34:44Z</time>
      </trkpt>
      <trkpt lat="48.68297" lon="-4.03125">
        <ele>15.8</ele>
        <time>2022-06-10T15:34:46Z</time>
      </trkpt>
      <trkpt lat="48.68297" lon="-4.03124">
        <ele>15.8</ele>
        <time>2022-06-10T15:34:47Z</time>
      </trkpt>
      <trkpt lat="48.68297" lon="-4.03124">
        <ele>15.8</ele>
        <time>2022-06-10T15:34:48Z</time>
      </trkpt>
      <trkpt lat="48.68296" lon="-4.03122">
        <ele>15.8</ele>
        <time>2022-06-10T15:34:50Z</time>
      </trkpt>
      <trkpt lat="48.68296" lon="-4.03121">
        <ele>15.8</ele>
        <time>2022-06-10T15:34:51Z</time>
      </trkpt>
      <trkpt lat="48.68296" lon="-4.0312">
        <ele>15.8</ele>
        <time>2022-06-10T15:34:52Z</time>
      </trkpt>
      <trkpt lat="48.68296" lon="-4.03119">
        <ele>15.8</ele>
        <time>2022-06-10T15:34:53Z</time>
      </trkpt>
      <trkpt lat="48.68296" lon="-4.03118">
        <ele>15.8</ele>
        <time>2022-06-10T15:34:55Z</time>
      </trkpt>
      <trkpt lat="48.68295" lon="-4.03117">
        <ele>15.8</ele>
        <time>2022-06-10T15:34:56Z</time>
      </trkpt>
      <trkpt lat="48.68295" lon="-4.03116">
        <ele>15.8</ele>
        <time>2022-06-10T15:34:57Z</time>
      </trkpt>
      <trkpt lat="48.68295" lon="-4.03114">
        <ele>15.8</ele>
        <time>2022-06-10T15:34:59Z</time>
      </trkpt>
      <trkpt lat="48.68295" lon="-4.03112">
        <ele>15.8</ele>
        <time>2022-06-10T15:35:00Z</time>
      </trkpt>
      <trkpt lat="48.68295" lon="-4.03111">
        <ele>15.9</ele>
        <time>2022-06-10T15:35:01Z</time>
      </trkpt>
      <trkpt lat="48.68294" lon="-4.03109">
        <ele>15.9</ele>
        <time>2022-06-10T15:35:03Z</time>
      </trkpt>
      <trkpt lat="48.68294" lon="-4.03108">
        <ele>15.9</ele>
        <time>2022-06-10T15:35:04Z</time>
      </trkpt>
      <trkpt lat="48.68294" lon="-4.03106">
        <ele>15.9</ele>
        <time>2022-06-10T15:35:05Z</time>
      </trkpt>
      <trkpt lat="48.68294" lon="-4.03104">
        <ele>15.9</ele>
        <time>2022-06-10T15:35:06Z</time>
      </trkpt>
      <trkpt lat="48.68293" lon="-4.03103">
        <ele>15.9</ele>
        <time>2022-06-10T15:35:08Z</time>
      </trkpt>
      <trkpt lat="48.68293" lon="-4.03101">
        <ele>15.9</ele>
        <time>2022-06-10T15:35:09Z</time>
      </trkpt>
      <trkpt lat="48.68293" lon="-4.031">
        <ele>15.9</ele>
        <time>2022-06-10T15:35:10Z</time>
      </trkpt>
      <trkpt lat="48.68293" lon="-4.03098">
        <ele>15.9</ele>
        <time>2022-06-10T15:35:11Z</time>
      </trkpt>
      <trkpt lat="48.68292" lon="-4.03097">
        <ele>15.9</ele>
        <time>2022-06-10T15:35:12Z</time>
      </trkpt>
      <trkpt lat="48.68292" lon="-4.03098">
        <ele>15.9</ele>
        <time>2022-06-10T15:35:13Z</time>
      </trkpt>
      <trkpt lat="48.68292" lon="-4.03097">
        <ele>15.9</ele>
        <time>2022-06-10T15:35:15Z</time>
      </trkpt>
      <trkpt lat="48.68292" lon="-4.03096">
        <ele>15.9</ele>
        <time>2022-06-10T15:35:16Z</time>
      </trkpt>
      <trkpt lat="48.68292" lon="-4.03095">
        <ele>15.9</ele>
        <time>2022-06-10T15:35:17Z</time>
      </trkpt>
      <trkpt lat="48.68291" lon="-4.03093">
        <ele>16</ele>
        <time>2022-06-10T15:35:19Z</time>
      </trkpt>
      <trkpt lat="48.68291" lon="-4.03092">
        <ele>16</ele>
        <time>2022-06-10T15:35:20Z</time>
      </trkpt>
      <trkpt lat="48.68291" lon="-4.03091">
        <ele>16</ele>
        <time>2022-06-10T15:35:21Z</time>
      </trkpt>
      <trkpt lat="48.6829" lon="-4.0309">
        <ele>16</ele>
        <time>2022-06-10T15:35:22Z</time>
      </trkpt>
      <trkpt lat="48.6829" lon="-4.03088">
        <ele>16</ele>
        <time>2022-06-10T15:35:24Z</time>
      </trkpt>
      <trkpt lat="48.68289" lon="-4.03086">
        <ele>16</ele>
        <time>2022-06-10T15:35:25Z</time>
      </trkpt>
      <trkpt lat="48.68289" lon="-4.03084">
        <ele>16</ele>
        <time>2022-06-10T15:35:26Z</time>
      </trkpt>
      <trkpt lat="48.68288" lon="-4.0308">
        <ele>16</ele>
        <time>2022-06-10T15:35:27Z</time>
      </trkpt>
      <trkpt lat="48.68287" lon="-4.03077">
        <ele>16</ele>
        <time>2022-06-10T15:35:29Z</time>
      </trkpt>
      <trkpt lat="48.68287" lon="-4.03075">
        <ele>16.1</ele>
        <time>2022-06-10T15:35:30Z</time>
      </trkpt>
      <trkpt lat="48.68286" lon="-4.03072">
        <ele>16.1</ele>
        <time>2022-06-10T15:35:31Z</time>
      </trkpt>
      <trkpt lat="48.68284" lon="-4.03067">
        <ele>16.1</ele>
        <time>2022-06-10T15:35:33Z</time>
      </trkpt>
      <trkpt lat="48.68284" lon="-4.03065">
        <ele>16.1</ele>
        <time>2022-06-10T15:35:34Z</time>
      </trkpt>
      <trkpt lat="48.68283" lon="-4.03064">
        <ele>16.1</ele>
        <time>2022-06-10T15:35:35Z</time>
      </trkpt>
      <trkpt lat="48.68283" lon="-4.03063">
        <ele>16.1</ele>
        <time>2022-06-10T15:35:36Z</time>
      </trkpt>
      <trkpt lat="48.68282" lon="-4.03064">
        <ele>16.1</ele>
        <time>2022-06-10T15:35:37Z</time>
      </trkpt>
      <trkpt lat="48.68282" lon="-4.03064">
        <ele>16.1</ele>
        <time>2022-06-10T15:35:38Z</time>
      </trkpt>
      <trkpt lat="48.68281" lon="-4.03062">
        <ele>16.2</ele>
        <time>2022-06-10T15:35:40Z</time>
      </trkpt>
      <trkpt lat="48.6828" lon="-4.03061">
        <ele>16.2</ele>
        <time>2022-06-10T15:35:42Z</time>
      </trkpt>
      <trkpt lat="48.68279" lon="-4.0306">
        <ele>16.2</ele>
        <time>2022-06-10T15:35:43Z</time>
      </trkpt>
      <trkpt lat="48.68279" lon="-4.03059">
        <ele>16.2</ele>
        <time>2022-06-10T15:35:44Z</time>
      </trkpt>
      <trkpt lat="48.68278" lon="-4.03058">
        <ele>16.2</ele>
        <time>2022-06-10T15:35:45Z</time>
      </trkpt>
      <trkpt lat="48.68278" lon="-4.03057">
        <ele>16.2</ele>
        <time>2022-06-10T15:35:46Z</time>
      </trkpt>
      <trkpt lat="48.68277" lon="-4.03055">
        <ele>16.2</ele>
        <time>2022-06-10T15:35:47Z</time>
      </trkpt>
      <trkpt lat="48.68276" lon="-4.03054">
        <ele>16.2</ele>
        <time>2022-06-10T15:35:49Z</time>
      </trkpt>
      <trkpt lat="48.68276" lon="-4.03053">
        <ele>16.2</ele>
        <time>2022-06-10T15:35:50Z</time>
      </trkpt>
      <trkpt lat="48.68276" lon="-4.03052">
        <ele>16.2</ele>
        <time>2022-06-10T15:35:51Z</time>
      </trkpt>
      <trkpt lat="48.68275" lon="-4.03051">
        <ele>16.2</ele>
        <time>2022-06-10T15:35:52Z</time>
      </trkpt>
      <trkpt lat="48.68275" lon="-4.03049">
        <ele>16.2</ele>
        <time>2022-06-10T15:35:53Z</time>
      </trkpt>
      <trkpt lat="48.68274" lon="-4.03047">
        <ele>16.3</ele>
        <time>2022-06-10T15:35:55Z</time>
      </trkpt>
      <trkpt lat="48.68274" lon="-4.03046">
        <ele>16.3</ele>
        <time>2022-06-10T15:35:57Z</time>
      </trkpt>
      <trkpt lat="48.68273" lon="-4.03044">
        <ele>16.3</ele>
        <time>2022-06-10T15:35:58Z</time>
      </trkpt>
      <trkpt lat="48.68273" lon="-4.03043">
        <ele>16.3</ele>
        <time>2022-06-10T15:35:59Z</time>
      </trkpt>
      <trkpt lat="48.68272" lon="-4.03042">
        <ele>16.3</ele>
        <time>2022-06-10T15:36:00Z</time>
      </trkpt>
      <trkpt lat="48.68271" lon="-4.03041">
        <ele>16.3</ele>
        <time>2022-06-10T15:36:02Z</time>
      </trkpt>
      <trkpt lat="48.68271" lon="-4.0304">
        <ele>16.3</ele>
        <time>2022-06-10T15:36:03Z</time>
      </trkpt>
      <trkpt lat="48.6827" lon="-4.03039">
        <ele>16.3</ele>
        <time>2022-06-10T15:36:04Z</time>
      </trkpt>
      <trkpt lat="48.6827" lon="-4.03038">
        <ele>16.3</ele>
        <time>2022-06-10T15:36:05Z</time>
      </trkpt>
      <trkpt lat="48.6827" lon="-4.03037">
        <ele>16.3</ele>
        <time>2022-06-10T15:36:06Z</time>
      </trkpt>
      <trkpt lat="48.68269" lon="-4.03036">
        <ele>16.3</ele>
        <time>2022-06-10T15:36:07Z</time>
      </trkpt>
      <trkpt lat="48.68269" lon="-4.03035">
        <ele>16.3</ele>
        <time>2022-06-10T15:36:08Z</time>
      </trkpt>
      <trkpt lat="48.68268" lon="-4.03034">
        <ele>16.3</ele>
        <time>2022-06-10T15:36:09Z</time>
      </trkpt>
      <trkpt lat="48.68267" lon="-4.03033">
        <ele>16.3</ele>
        <time>2022-06-10T15:36:10Z</time>
      </trkpt>
      <trkpt lat="48.68267" lon="-4.03033">
        <ele>16.3</ele>
        <time>2022-06-10T15:36:11Z</time>
      </trkpt>
      <trkpt lat="48.68266" lon="-4.03032">
        <ele>16.4</ele>
        <time>2022-06-10T15:36:12Z</time>
      </trkpt>
      <trkpt lat="48.68266" lon="-4.03032">
        <ele>16.4</ele>
        <time>2022-06-10T15:36:13Z</time>
      </trkpt>
      <trkpt lat="48.68266" lon="-4.03031">
        <ele>16.4</ele>
        <time>2022-06-10T15:36:14Z</time>
      </trkpt>
      <trkpt lat="48.68265" lon="-4.03029">
        <ele>16.4</ele>
        <time>2022-06-10T15:36:15Z</time>
      </trkpt>
      <trkpt lat="48.68266" lon="-4.03028">
        <ele>16.4</ele>
        <time>2022-06-10T15:36:16Z</time>
      </trkpt>
      <trkpt lat="48.68266" lon="-4.03026">
        <ele>16.4</ele>
        <time>2022-06-10T15:36:18Z</time>
      </trkpt>
      <trkpt lat="48.68267" lon="-4.03025">
        <ele>16.3</ele>
        <time>2022-06-10T15:36:19Z</time>
      </trkpt>
      <trkpt lat="48.68268" lon="-4.03023">
        <ele>16.3</ele>
        <time>2022-06-10T15:36:20Z</time>
      </trkpt>
      <trkpt lat="48.68268" lon="-4.03022">
        <ele>16.3</ele>
        <time>2022-06-10T15:36:21Z</time>
      </trkpt>
      <trkpt lat="48.68269" lon="-4.03021">
        <ele>16.3</ele>
        <time>2022-06-10T15:36:22Z</time>
      </trkpt>
      <trkpt lat="48.6827" lon="-4.03019">
        <ele>16.3</ele>
        <time>2022-06-10T15:36:24Z</time>
      </trkpt>
      <trkpt lat="48.68271" lon="-4.03017">
        <ele>16.3</ele>
        <time>2022-06-10T15:36:25Z</time>
      </trkpt>
      <trkpt lat="48.68271" lon="-4.03015">
        <ele>16.3</ele>
        <time>2022-06-10T15:36:26Z</time>
      </trkpt>
      <trkpt lat="48.68272" lon="-4.03014">
        <ele>16.2</ele>
        <time>2022-06-10T15:36:27Z</time>
      </trkpt>
      <trkpt lat="48.68273" lon="-4.03012">
        <ele>16.2</ele>
        <time>2022-06-10T15:36:28Z</time>
      </trkpt>
      <trkpt lat="48.68273" lon="-4.0301">
        <ele>16.2</ele>
        <time>2022-06-10T15:36:29Z</time>
      </trkpt>
      <trkpt lat="48.68274" lon="-4.03009">
        <ele>16.2</ele>
        <time>2022-06-10T15:36:31Z</time>
      </trkpt>
      <trkpt lat="48.68274" lon="-4.03007">
        <ele>16.2</ele>
        <time>2022-06-10T15:36:32Z</time>
      </trkpt>
      <trkpt lat="48.68275" lon="-4.03006">
        <ele>16.2</ele>
        <time>2022-06-10T15:36:33Z</time>
      </trkpt>
      <trkpt lat="48.68275" lon="-4.03004">
        <ele>16.2</ele>
        <time>2022-06-10T15:36:34Z</time>
      </trkpt>
      <trkpt lat="48.68277" lon="-4.03">
        <ele>16.1</ele>
        <time>2022-06-10T15:36:35Z</time>
      </trkpt>
      <trkpt lat="48.68277" lon="-4.02999">
        <ele>16.1</ele>
        <time>2022-06-10T15:36:37Z</time>
      </trkpt>
      <trkpt lat="48.68278" lon="-4.02998">
        <ele>16.1</ele>
        <time>2022-06-10T15:36:38Z</time>
      </trkpt>
      <trkpt lat="48.68278" lon="-4.02997">
        <ele>16.1</ele>
        <time>2022-06-10T15:36:39Z</time>
      </trkpt>
      <trkpt lat="48.68279" lon="-4.02995">
        <ele>16.1</ele>
        <time>2022-06-10T15:36:40Z</time>
      </trkpt>
      <trkpt lat="48.68279" lon="-4.02995">
        <ele>16.1</ele>
        <time>2022-06-10T15:36:41Z</time>
      </trkpt>
      <trkpt lat="48.6828" lon="-4.02993">
        <ele>16.1</ele>
        <time>2022-06-10T15:36:42Z</time>
      </trkpt>
      <trkpt lat="48.6828" lon="-4.02992">
        <ele>16.1</ele>
        <time>2022-06-10T15:36:43Z</time>
      </trkpt>
      <trkpt lat="48.68281" lon="-4.02991">
        <ele>16</ele>
        <time>2022-06-10T15:36:44Z</time>
      </trkpt>
      <trkpt lat="48.68282" lon="-4.0299">
        <ele>16</ele>
        <time>2022-06-10T15:36:46Z</time>
      </trkpt>
      <trkpt lat="48.68282" lon="-4.02988">
        <ele>16</ele>
        <time>2022-06-10T15:36:47Z</time>
      </trkpt>
      <trkpt lat="48.68283" lon="-4.02987">
        <ele>16</ele>
        <time>2022-06-10T15:36:48Z</time>
      </trkpt>
      <trkpt lat="48.68284" lon="-4.02987">
        <ele>16</ele>
        <time>2022-06-10T15:36:49Z</time>
      </trkpt>
      <trkpt lat="48.68284" lon="-4.02986">
        <ele>16</ele>
        <time>2022-06-10T15:36:50Z</time>
      </trkpt>
      <trkpt lat="48.68285" lon="-4.02985">
        <ele>16</ele>
        <time>2022-06-10T15:36:51Z</time>
      </trkpt>
      <trkpt lat="48.68286" lon="-4.02984">
        <ele>16</ele>
        <time>2022-06-10T15:36:52Z</time>
      </trkpt>
      <trkpt lat="48.68286" lon="-4.02983">
        <ele>16</ele>
        <time>2022-06-10T15:36:53Z</time>
      </trkpt>
      <trkpt lat="48.68287" lon="-4.02982">
        <ele>15.9</ele>
        <time>2022-06-10T15:36:54Z</time>
      </trkpt>
      <trkpt lat="48.68287" lon="-4.02981">
        <ele>15.9</ele>
        <time>2022-06-10T15:36:55Z</time>
      </trkpt>
      <trkpt lat="48.68288" lon="-4.02979">
        <ele>15.9</ele>
        <time>2022-06-10T15:36:57Z</time>
      </trkpt>
      <trkpt lat="48.68289" lon="-4.02978">
        <ele>15.9</ele>
        <time>2022-06-10T15:36:58Z</time>
      </trkpt>
      <trkpt lat="48.6829" lon="-4.02977">
        <ele>15.9</ele>
        <time>2022-06-10T15:37:00Z</time>
      </trkpt>
      <trkpt lat="48.6829" lon="-4.02976">
        <ele>15.9</ele>
        <time>2022-06-10T15:37:01Z</time>
      </trkpt>
      <trkpt lat="48.68291" lon="-4.02975">
        <ele>15.9</ele>
        <time>2022-06-10T15:37:02Z</time>
      </trkpt>
      <trkpt lat="48.68291" lon="-4.02973">
        <ele>15.9</ele>
        <time>2022-06-10T15:37:03Z</time>
      </trkpt>
      <trkpt lat="48.68292" lon="-4.02972">
        <ele>15.8</ele>
        <time>2022-06-10T15:37:04Z</time>
      </trkpt>
      <trkpt lat="48.68293" lon="-4.0297">
        <ele>15.8</ele>
        <time>2022-06-10T15:37:06Z</time>
      </trkpt>
      <trkpt lat="48.68293" lon="-4.02969">
        <ele>15.8</ele>
        <time>2022-06-10T15:37:07Z</time>
      </trkpt>
      <trkpt lat="48.68294" lon="-4.02967">
        <ele>15.8</ele>
        <time>2022-06-10T15:37:08Z</time>
      </trkpt>
      <trkpt lat="48.68294" lon="-4.02966">
        <ele>15.8</ele>
        <time>2022-06-10T15:37:09Z</time>
      </trkpt>
      <trkpt lat="48.68295" lon="-4.02964">
        <ele>15.8</ele>
        <time>2022-06-10T15:37:10Z</time>
      </trkpt>
      <trkpt lat="48.68296" lon="-4.02963">
        <ele>15.8</ele>
        <time>2022-06-10T15:37:12Z</time>
      </trkpt>
      <trkpt lat="48.68296" lon="-4.02961">
        <ele>15.8</ele>
        <time>2022-06-10T15:37:13Z</time>
      </trkpt>
      <trkpt lat="48.68297" lon="-4.0296">
        <ele>15.7</ele>
        <time>2022-06-10T15:37:14Z</time>
      </trkpt>
      <trkpt lat="48.68298" lon="-4.02959">
        <ele>15.7</ele>
        <time>2022-06-10T15:37:15Z</time>
      </trkpt>
      <trkpt lat="48.68298" lon="-4.02958">
        <ele>15.7</ele>
        <time>2022-06-10T15:37:16Z</time>
      </trkpt>
      <trkpt lat="48.68299" lon="-4.02956">
        <ele>15.7</ele>
        <time>2022-06-10T15:37:18Z</time>
      </trkpt>
      <trkpt lat="48.683" lon="-4.02955">
        <ele>15.7</ele>
        <time>2022-06-10T15:37:19Z</time>
      </trkpt>
      <trkpt lat="48.68301" lon="-4.02954">
        <ele>15.7</ele>
        <time>2022-06-10T15:37:20Z</time>
      </trkpt>
      <trkpt lat="48.68301" lon="-4.02953">
        <ele>15.7</ele>
        <time>2022-06-10T15:37:21Z</time>
      </trkpt>
      <trkpt lat="48.68302" lon="-4.0295">
        <ele>15.7</ele>
        <time>2022-06-10T15:37:22Z</time>
      </trkpt>
      <trkpt lat="48.68303" lon="-4.02948">
        <ele>15.6</ele>
        <time>2022-06-10T15:37:24Z</time>
      </trkpt>
      <trkpt lat="48.68303" lon="-4.02947">
        <ele>15.6</ele>
        <time>2022-06-10T15:37:25Z</time>
      </trkpt>
      <trkpt lat="48.68304" lon="-4.02946">
        <ele>15.6</ele>
        <time>2022-06-10T15:37:26Z</time>
      </trkpt>
      <trkpt lat="48.68304" lon="-4.02945">
        <ele>15.6</ele>
        <time>2022-06-10T15:37:27Z</time>
      </trkpt>
      <trkpt lat="48.68304" lon="-4.02944">
        <ele>15.6</ele>
        <time>2022-06-10T15:37:28Z</time>
      </trkpt>
      <trkpt lat="48.68305" lon="-4.02943">
        <ele>15.6</ele>
        <time>2022-06-10T15:37:29Z</time>
      </trkpt>
      <trkpt lat="48.68305" lon="-4.02942">
        <ele>15.6</ele>
        <time>2022-06-10T15:37:30Z</time>
      </trkpt>
      <trkpt lat="48.68306" lon="-4.02941">
        <ele>15.6</ele>
        <time>2022-06-10T15:37:31Z</time>
      </trkpt>
      <trkpt lat="48.68306" lon="-4.0294">
        <ele>15.6</ele>
        <time>2022-06-10T15:37:33Z</time>
      </trkpt>
      <trkpt lat="48.68307" lon="-4.02939">
        <ele>15.6</ele>
        <time>2022-06-10T15:37:34Z</time>
      </trkpt>
      <trkpt lat="48.68307" lon="-4.02938">
        <ele>15.5</ele>
        <time>2022-06-10T15:37:35Z</time>
      </trkpt>
      <trkpt lat="48.68309" lon="-4.02936">
        <ele>15.5</ele>
        <time>2022-06-10T15:37:36Z</time>
      </trkpt>
      <trkpt lat="48.68309" lon="-4.02935">
        <ele>15.5</ele>
        <time>2022-06-10T15:37:37Z</time>
      </trkpt>
      <trkpt lat="48.6831" lon="-4.02935">
        <ele>15.5</ele>
        <time>2022-06-10T15:37:38Z</time>
      </trkpt>
      <trkpt lat="48.6831" lon="-4.02934">
        <ele>15.5</ele>
        <time>2022-06-10T15:37:39Z</time>
      </trkpt>
      <trkpt lat="48.68311" lon="-4.02932">
        <ele>15.5</ele>
        <time>2022-06-10T15:37:41Z</time>
      </trkpt>
      <trkpt lat="48.68312" lon="-4.02931">
        <ele>15.5</ele>
        <time>2022-06-10T15:37:42Z</time>
      </trkpt>
      <trkpt lat="48.68313" lon="-4.02929">
        <ele>15.5</ele>
        <time>2022-06-10T15:37:43Z</time>
      </trkpt>
      <trkpt lat="48.68314" lon="-4.02928">
        <ele>15.4</ele>
        <time>2022-06-10T15:37:45Z</time>
      </trkpt>
      <trkpt lat="48.68314" lon="-4.02927">
        <ele>15.4</ele>
        <time>2022-06-10T15:37:46Z</time>
      </trkpt>
      <trkpt lat="48.68314" lon="-4.02926">
        <ele>15.4</ele>
        <time>2022-06-10T15:37:48Z</time>
      </trkpt>
      <trkpt lat="48.68314" lon="-4.02924">
        <ele>15.4</ele>
        <time>2022-06-10T15:37:49Z</time>
      </trkpt>
      <trkpt lat="48.68315" lon="-4.02924">
        <ele>15.4</ele>
        <time>2022-06-10T15:37:50Z</time>
      </trkpt>
      <trkpt lat="48.68315" lon="-4.02923">
        <ele>15.4</ele>
        <time>2022-06-10T15:37:51Z</time>
      </trkpt>
      <trkpt lat="48.68316" lon="-4.02922">
        <ele>15.4</ele>
        <time>2022-06-10T15:37:52Z</time>
      </trkpt>
      <trkpt lat="48.68317" lon="-4.02922">
        <ele>15.4</ele>
        <time>2022-06-10T15:37:54Z</time>
      </trkpt>
      <trkpt lat="48.68318" lon="-4.0292">
        <ele>15.4</ele>
        <time>2022-06-10T15:37:55Z</time>
      </trkpt>
      <trkpt lat="48.68319" lon="-4.0292">
        <ele>15.3</ele>
        <time>2022-06-10T15:37:56Z</time>
      </trkpt>
      <trkpt lat="48.6832" lon="-4.02919">
        <ele>15.3</ele>
        <time>2022-06-10T15:37:57Z</time>
      </trkpt>
      <trkpt lat="48.6832" lon="-4.02918">
        <ele>15.3</ele>
        <time>2022-06-10T15:37:58Z</time>
      </trkpt>
      <trkpt lat="48.68322" lon="-4.02917">
        <ele>15.3</ele>
        <time>2022-06-10T15:38:00Z</time>
      </trkpt>
      <trkpt lat="48.68323" lon="-4.02915">
        <ele>15.3</ele>
        <time>2022-06-10T15:38:01Z</time>
      </trkpt>
      <trkpt lat="48.68324" lon="-4.02914">
        <ele>15.3</ele>
        <time>2022-06-10T15:38:02Z</time>
      </trkpt>
      <trkpt lat="48.68324" lon="-4.02913">
        <ele>15.3</ele>
        <time>2022-06-10T15:38:03Z</time>
      </trkpt>
      <trkpt lat="48.68325" lon="-4.02913">
        <ele>15.3</ele>
        <time>2022-06-10T15:38:04Z</time>
      </trkpt>
      <trkpt lat="48.68325" lon="-4.02911">
        <ele>15.2</ele>
        <time>2022-06-10T15:38:06Z</time>
      </trkpt>
      <trkpt lat="48.68326" lon="-4.0291">
        <ele>15.2</ele>
        <time>2022-06-10T15:38:07Z</time>
      </trkpt>
      <trkpt lat="48.68327" lon="-4.02909">
        <ele>15.2</ele>
        <time>2022-06-10T15:38:08Z</time>
      </trkpt>
      <trkpt lat="48.68328" lon="-4.02906">
        <ele>15.2</ele>
        <time>2022-06-10T15:38:09Z</time>
      </trkpt>
      <trkpt lat="48.68329" lon="-4.02905">
        <ele>15.2</ele>
        <time>2022-06-10T15:38:10Z</time>
      </trkpt>
      <trkpt lat="48.68329" lon="-4.02904">
        <ele>15.2</ele>
        <time>2022-06-10T15:38:12Z</time>
      </trkpt>
      <trkpt lat="48.6833" lon="-4.02903">
        <ele>15.2</ele>
        <time>2022-06-10T15:38:13Z</time>
      </trkpt>
      <trkpt lat="48.6833" lon="-4.02902">
        <ele>15.2</ele>
        <time>2022-06-10T15:38:14Z</time>
      </trkpt>
      <trkpt lat="48.68331" lon="-4.02901">
        <ele>15.2</ele>
        <time>2022-06-10T15:38:15Z</time>
      </trkpt>
      <trkpt lat="48.68331" lon="-4.02899">
        <ele>15.2</ele>
        <time>2022-06-10T15:38:16Z</time>
      </trkpt>
      <trkpt lat="48.68331" lon="-4.02898">
        <ele>15.2</ele>
        <time>2022-06-10T15:38:18Z</time>
      </trkpt>
      <trkpt lat="48.68331" lon="-4.02896">
        <ele>15.2</ele>
        <time>2022-06-10T15:38:19Z</time>
      </trkpt>
      <trkpt lat="48.6833" lon="-4.02893">
        <ele>15.2</ele>
        <time>2022-06-10T15:38:21Z</time>
      </trkpt>
      <trkpt lat="48.6833" lon="-4.02892">
        <ele>15.2</ele>
        <time>2022-06-10T15:38:22Z</time>
      </trkpt>
      <trkpt lat="48.68329" lon="-4.02889">
        <ele>15.2</ele>
        <time>2022-06-10T15:38:23Z</time>
      </trkpt>
      <trkpt lat="48.68328" lon="-4.02887">
        <ele>15.2</ele>
        <time>2022-06-10T15:38:24Z</time>
      </trkpt>
      <trkpt lat="48.68328" lon="-4.02886">
        <ele>15.2</ele>
        <time>2022-06-10T15:38:25Z</time>
      </trkpt>
      <trkpt lat="48.68327" lon="-4.02885">
        <ele>15.2</ele>
        <time>2022-06-10T15:38:26Z</time>
      </trkpt>
      <trkpt lat="48.68326" lon="-4.02883">
        <ele>15.3</ele>
        <time>2022-06-10T15:38:28Z</time>
      </trkpt>
      <trkpt lat="48.68324" lon="-4.02882">
        <ele>15.3</ele>
        <time>2022-06-10T15:38:29Z</time>
      </trkpt>
      <trkpt lat="48.68323" lon="-4.02881">
        <ele>15.3</ele>
        <time>2022-06-10T15:38:30Z</time>
      </trkpt>
      <trkpt lat="48.68322" lon="-4.0288">
        <ele>15.3</ele>
        <time>2022-06-10T15:38:31Z</time>
      </trkpt>
      <trkpt lat="48.68321" lon="-4.02879">
        <ele>15.3</ele>
        <time>2022-06-10T15:38:32Z</time>
      </trkpt>
      <trkpt lat="48.6832" lon="-4.02878">
        <ele>15.3</ele>
        <time>2022-06-10T15:38:34Z</time>
      </trkpt>
      <trkpt lat="48.68319" lon="-4.02876">
        <ele>15.4</ele>
        <time>2022-06-10T15:38:35Z</time>
      </trkpt>
      <trkpt lat="48.68318" lon="-4.02875">
        <ele>15.4</ele>
        <time>2022-06-10T15:38:36Z</time>
      </trkpt>
      <trkpt lat="48.68317" lon="-4.02874">
        <ele>15.4</ele>
        <time>2022-06-10T15:38:37Z</time>
      </trkpt>
      <trkpt lat="48.68317" lon="-4.02873">
        <ele>15.4</ele>
        <time>2022-06-10T15:38:38Z</time>
      </trkpt>
      <trkpt lat="48.68316" lon="-4.02871">
        <ele>15.4</ele>
        <time>2022-06-10T15:38:39Z</time>
      </trkpt>
      <trkpt lat="48.68316" lon="-4.0287">
        <ele>15.4</ele>
        <time>2022-06-10T15:38:40Z</time>
      </trkpt>
      <trkpt lat="48.68315" lon="-4.02869">
        <ele>15.5</ele>
        <time>2022-06-10T15:38:41Z</time>
      </trkpt>
      <trkpt lat="48.68314" lon="-4.02868">
        <ele>15.5</ele>
        <time>2022-06-10T15:38:42Z</time>
      </trkpt>
      <trkpt lat="48.68313" lon="-4.02866">
        <ele>15.5</ele>
        <time>2022-06-10T15:38:44Z</time>
      </trkpt>
      <trkpt lat="48.68312" lon="-4.02865">
        <ele>15.5</ele>
        <time>2022-06-10T15:38:45Z</time>
      </trkpt>
      <trkpt lat="48.68312" lon="-4.02864">
        <ele>15.5</ele>
        <time>2022-06-10T15:38:46Z</time>
      </trkpt>
      <trkpt lat="48.68311" lon="-4.02862">
        <ele>15.5</ele>
        <time>2022-06-10T15:38:47Z</time>
      </trkpt>
      <trkpt lat="48.68311" lon="-4.0286">
        <ele>15.6</ele>
        <time>2022-06-10T15:38:48Z</time>
      </trkpt>
      <trkpt lat="48.68311" lon="-4.02859">
        <ele>15.6</ele>
        <time>2022-06-10T15:38:49Z</time>
      </trkpt>
      <trkpt lat="48.68311" lon="-4.02857">
        <ele>15.7</ele>
        <time>2022-06-10T15:38:51Z</time>
      </trkpt>
      <trkpt lat="48.68311" lon="-4.02856">
        <ele>15.7</ele>
        <time>2022-06-10T15:38:52Z</time>
      </trkpt>
      <trkpt lat="48.68311" lon="-4.02854">
        <ele>15.8</ele>
        <time>2022-06-10T15:38:53Z</time>
      </trkpt>
      <trkpt lat="48.68311" lon="-4.02852">
        <ele>15.8</ele>
        <time>2022-06-10T15:38:54Z</time>
      </trkpt>
      <trkpt lat="48.68312" lon="-4.02849">
        <ele>15.8</ele>
        <time>2022-06-10T15:38:55Z</time>
      </trkpt>
      <trkpt lat="48.68312" lon="-4.02848">
        <ele>15.8</ele>
        <time>2022-06-10T15:38:56Z</time>
      </trkpt>
      <trkpt lat="48.68313" lon="-4.02847">
        <ele>15.8</ele>
        <time>2022-06-10T15:38:58Z</time>
      </trkpt>
      <trkpt lat="48.68313" lon="-4.02846">
        <ele>15.8</ele>
        <time>2022-06-10T15:38:59Z</time>
      </trkpt>
      <trkpt lat="48.68314" lon="-4.02844">
        <ele>15.8</ele>
        <time>2022-06-10T15:39:00Z</time>
      </trkpt>
      <trkpt lat="48.68314" lon="-4.02843">
        <ele>15.8</ele>
        <time>2022-06-10T15:39:01Z</time>
      </trkpt>
      <trkpt lat="48.68316" lon="-4.02841">
        <ele>15.7</ele>
        <time>2022-06-10T15:39:02Z</time>
      </trkpt>
      <trkpt lat="48.68317" lon="-4.02841">
        <ele>15.7</ele>
        <time>2022-06-10T15:39:03Z</time>
      </trkpt>
      <trkpt lat="48.68317" lon="-4.0284">
        <ele>15.7</ele>
        <time>2022-06-10T15:39:04Z</time>
      </trkpt>
      <trkpt lat="48.68319" lon="-4.02838">
        <ele>15.7</ele>
        <time>2022-06-10T15:39:06Z</time>
      </trkpt>
      <trkpt lat="48.6832" lon="-4.02837">
        <ele>15.7</ele>
        <time>2022-06-10T15:39:07Z</time>
      </trkpt>
      <trkpt lat="48.6832" lon="-4.02837">
        <ele>15.7</ele>
        <time>2022-06-10T15:39:08Z</time>
      </trkpt>
      <trkpt lat="48.68321" lon="-4.02835">
        <ele>15.7</ele>
        <time>2022-06-10T15:39:09Z</time>
      </trkpt>
      <trkpt lat="48.68322" lon="-4.02834">
        <ele>15.7</ele>
        <time>2022-06-10T15:39:10Z</time>
      </trkpt>
      <trkpt lat="48.68323" lon="-4.02833">
        <ele>15.7</ele>
        <time>2022-06-10T15:39:11Z</time>
      </trkpt>
      <trkpt lat="48.68325" lon="-4.02831">
        <ele>15.7</ele>
        <time>2022-06-10T15:39:12Z</time>
      </trkpt>
      <trkpt lat="48.68325" lon="-4.0283">
        <ele>15.7</ele>
        <time>2022-06-10T15:39:14Z</time>
      </trkpt>
      <trkpt lat="48.68326" lon="-4.0283">
        <ele>15.7</ele>
        <time>2022-06-10T15:39:15Z</time>
      </trkpt>
      <trkpt lat="48.68328" lon="-4.02828">
        <ele>15.7</ele>
        <time>2022-06-10T15:39:16Z</time>
      </trkpt>
      <trkpt lat="48.68328" lon="-4.02827">
        <ele>15.7</ele>
        <time>2022-06-10T15:39:17Z</time>
      </trkpt>
      <trkpt lat="48.68329" lon="-4.02826">
        <ele>15.7</ele>
        <time>2022-06-10T15:39:18Z</time>
      </trkpt>
      <trkpt lat="48.6833" lon="-4.02825">
        <ele>15.7</ele>
        <time>2022-06-10T15:39:19Z</time>
      </trkpt>
      <trkpt lat="48.68331" lon="-4.02824">
        <ele>15.7</ele>
        <time>2022-06-10T15:39:21Z</time>
      </trkpt>
      <trkpt lat="48.68332" lon="-4.02823">
        <ele>15.7</ele>
        <time>2022-06-10T15:39:22Z</time>
      </trkpt>
      <trkpt lat="48.68333" lon="-4.02822">
        <ele>15.7</ele>
        <time>2022-06-10T15:39:23Z</time>
      </trkpt>
      <trkpt lat="48.68334" lon="-4.02821">
        <ele>15.7</ele>
        <time>2022-06-10T15:39:24Z</time>
      </trkpt>
      <trkpt lat="48.68335" lon="-4.0282">
        <ele>15.7</ele>
        <time>2022-06-10T15:39:25Z</time>
      </trkpt>
      <trkpt lat="48.68336" lon="-4.02819">
        <ele>15.7</ele>
        <time>2022-06-10T15:39:26Z</time>
      </trkpt>
      <trkpt lat="48.68337" lon="-4.02818">
        <ele>15.7</ele>
        <time>2022-06-10T15:39:28Z</time>
      </trkpt>
      <trkpt lat="48.68338" lon="-4.02816">
        <ele>15.7</ele>
        <time>2022-06-10T15:39:29Z</time>
      </trkpt>
      <trkpt lat="48.68339" lon="-4.02815">
        <ele>15.7</ele>
        <time>2022-06-10T15:39:30Z</time>
      </trkpt>
      <trkpt lat="48.68339" lon="-4.02814">
        <ele>15.7</ele>
        <time>2022-06-10T15:39:31Z</time>
      </trkpt>
      <trkpt lat="48.6834" lon="-4.02812">
        <ele>15.7</ele>
        <time>2022-06-10T15:39:32Z</time>
      </trkpt>
      <trkpt lat="48.68341" lon="-4.02811">
        <ele>15.7</ele>
        <time>2022-06-10T15:39:33Z</time>
      </trkpt>
      <trkpt lat="48.68342" lon="-4.0281">
        <ele>15.7</ele>
        <time>2022-06-10T15:39:35Z</time>
      </trkpt>
      <trkpt lat="48.68344" lon="-4.02808">
        <ele>15.8</ele>
        <time>2022-06-10T15:39:36Z</time>
      </trkpt>
      <trkpt lat="48.68344" lon="-4.02807">
        <ele>15.8</ele>
        <time>2022-06-10T15:39:37Z</time>
      </trkpt>
      <trkpt lat="48.68345" lon="-4.02806">
        <ele>15.8</ele>
        <time>2022-06-10T15:39:38Z</time>
      </trkpt>
      <trkpt lat="48.68346" lon="-4.02805">
        <ele>15.8</ele>
        <time>2022-06-10T15:39:39Z</time>
      </trkpt>
      <trkpt lat="48.68347" lon="-4.02804">
        <ele>15.8</ele>
        <time>2022-06-10T15:39:41Z</time>
      </trkpt>
      <trkpt lat="48.68348" lon="-4.02803">
        <ele>15.8</ele>
        <time>2022-06-10T15:39:42Z</time>
      </trkpt>
      <trkpt lat="48.68348" lon="-4.02802">
        <ele>15.8</ele>
        <time>2022-06-10T15:39:43Z</time>
      </trkpt>
      <trkpt lat="48.68349" lon="-4.02801">
        <ele>15.8</ele>
        <time>2022-06-10T15:39:44Z</time>
      </trkpt>
      <trkpt lat="48.6835" lon="-4.028">
        <ele>15.8</ele>
        <time>2022-06-10T15:39:45Z</time>
      </trkpt>
      <trkpt lat="48.68351" lon="-4.02799">
        <ele>15.8</ele>
        <time>2022-06-10T15:39:46Z</time>
      </trkpt>
      <trkpt lat="48.68351" lon="-4.02797">
        <ele>15.8</ele>
        <time>2022-06-10T15:39:48Z</time>
      </trkpt>
      <trkpt lat="48.68352" lon="-4.02796">
        <ele>15.8</ele>
        <time>2022-06-10T15:39:49Z</time>
      </trkpt>
      <trkpt lat="48.68353" lon="-4.02795">
        <ele>15.8</ele>
        <time>2022-06-10T15:39:50Z</time>
      </trkpt>
      <trkpt lat="48.68354" lon="-4.02794">
        <ele>15.8</ele>
        <time>2022-06-10T15:39:51Z</time>
      </trkpt>
      <trkpt lat="48.68355" lon="-4.02793">
        <ele>15.8</ele>
        <time>2022-06-10T15:39:52Z</time>
      </trkpt>
      <trkpt lat="48.68355" lon="-4.02792">
        <ele>15.8</ele>
        <time>2022-06-10T15:39:53Z</time>
      </trkpt>
      <trkpt lat="48.68356" lon="-4.02792">
        <ele>15.8</ele>
        <time>2022-06-10T15:39:55Z</time>
      </trkpt>
      <trkpt lat="48.68357" lon="-4.02791">
        <ele>15.8</ele>
        <time>2022-06-10T15:39:56Z</time>
      </trkpt>
      <trkpt lat="48.68358" lon="-4.0279">
        <ele>15.8</ele>
        <time>2022-06-10T15:39:57Z</time>
      </trkpt>
      <trkpt lat="48.68359" lon="-4.02789">
        <ele>15.8</ele>
        <time>2022-06-10T15:39:58Z</time>
      </trkpt>
      <trkpt lat="48.68359" lon="-4.02788">
        <ele>15.8</ele>
        <time>2022-06-10T15:39:59Z</time>
      </trkpt>
      <trkpt lat="48.6836" lon="-4.02787">
        <ele>15.8</ele>
        <time>2022-06-10T15:40:00Z</time>
      </trkpt>
      <trkpt lat="48.68361" lon="-4.02786">
        <ele>15.8</ele>
        <time>2022-06-10T15:40:01Z</time>
      </trkpt>
      <trkpt lat="48.68362" lon="-4.02785">
        <ele>15.8</ele>
        <time>2022-06-10T15:40:03Z</time>
      </trkpt>
      <trkpt lat="48.68363" lon="-4.02783">
        <ele>15.8</ele>
        <time>2022-06-10T15:40:04Z</time>
      </trkpt>
      <trkpt lat="48.68363" lon="-4.02782">
        <ele>15.8</ele>
        <time>2022-06-10T15:40:05Z</time>
      </trkpt>
      <trkpt lat="48.68364" lon="-4.02781">
        <ele>15.8</ele>
        <time>2022-06-10T15:40:06Z</time>
      </trkpt>
      <trkpt lat="48.68365" lon="-4.0278">
        <ele>15.8</ele>
        <time>2022-06-10T15:40:07Z</time>
      </trkpt>
      <trkpt lat="48.68366" lon="-4.02779">
        <ele>15.8</ele>
        <time>2022-06-10T15:40:08Z</time>
      </trkpt>
      <trkpt lat="48.68366" lon="-4.02778">
        <ele>15.8</ele>
        <time>2022-06-10T15:40:10Z</time>
      </trkpt>
      <trkpt lat="48.68367" lon="-4.02777">
        <ele>15.8</ele>
        <time>2022-06-10T15:40:11Z</time>
      </trkpt>
      <trkpt lat="48.68368" lon="-4.02776">
        <ele>15.8</ele>
        <time>2022-06-10T15:40:12Z</time>
      </trkpt>
      <trkpt lat="48.68369" lon="-4.02775">
        <ele>15.8</ele>
        <time>2022-06-10T15:40:13Z</time>
      </trkpt>
      <trkpt lat="48.6837" lon="-4.02774">
        <ele>15.8</ele>
        <time>2022-06-10T15:40:14Z</time>
      </trkpt>
      <trkpt lat="48.68371" lon="-4.02773">
        <ele>15.8</ele>
        <time>2022-06-10T15:40:15Z</time>
      </trkpt>
      <trkpt lat="48.68372" lon="-4.02772">
        <ele>15.8</ele>
        <time>2022-06-10T15:40:17Z</time>
      </trkpt>
      <trkpt lat="48.68373" lon="-4.02772">
        <ele>15.9</ele>
        <time>2022-06-10T15:40:18Z</time>
      </trkpt>
      <trkpt lat="48.68374" lon="-4.02771">
        <ele>15.9</ele>
        <time>2022-06-10T15:40:19Z</time>
      </trkpt>
      <trkpt lat="48.68375" lon="-4.0277">
        <ele>15.9</ele>
        <time>2022-06-10T15:40:20Z</time>
      </trkpt>
      <trkpt lat="48.68375" lon="-4.0277">
        <ele>15.9</ele>
        <time>2022-06-10T15:40:21Z</time>
      </trkpt>
      <trkpt lat="48.68376" lon="-4.02769">
        <ele>15.9</ele>
        <time>2022-06-10T15:40:22Z</time>
      </trkpt>
      <trkpt lat="48.68378" lon="-4.02768">
        <ele>15.9</ele>
        <time>2022-06-10T15:40:24Z</time>
      </trkpt>
      <trkpt lat="48.68378" lon="-4.02768">
        <ele>15.9</ele>
        <time>2022-06-10T15:40:25Z</time>
      </trkpt>
      <trkpt lat="48.68379" lon="-4.02766">
        <ele>15.9</ele>
        <time>2022-06-10T15:40:26Z</time>
      </trkpt>
      <trkpt lat="48.6838" lon="-4.02765">
        <ele>15.9</ele>
        <time>2022-06-10T15:40:27Z</time>
      </trkpt>
      <trkpt lat="48.68381" lon="-4.02764">
        <ele>15.9</ele>
        <time>2022-06-10T15:40:28Z</time>
      </trkpt>
      <trkpt lat="48.68382" lon="-4.02763">
        <ele>15.9</ele>
        <time>2022-06-10T15:40:29Z</time>
      </trkpt>
      <trkpt lat="48.68383" lon="-4.02762">
        <ele>15.9</ele>
        <time>2022-06-10T15:40:30Z</time>
      </trkpt>
      <trkpt lat="48.68385" lon="-4.02761">
        <ele>15.9</ele>
        <time>2022-06-10T15:40:32Z</time>
      </trkpt>
      <trkpt lat="48.68385" lon="-4.0276">
        <ele>15.9</ele>
        <time>2022-06-10T15:40:33Z</time>
      </trkpt>
      <trkpt lat="48.68386" lon="-4.02759">
        <ele>15.9</ele>
        <time>2022-06-10T15:40:34Z</time>
      </trkpt>
      <trkpt lat="48.68387" lon="-4.02758">
        <ele>15.9</ele>
        <time>2022-06-10T15:40:35Z</time>
      </trkpt>
      <trkpt lat="48.68387" lon="-4.02757">
        <ele>15.9</ele>
        <time>2022-06-10T15:40:36Z</time>
      </trkpt>
      <trkpt lat="48.68388" lon="-4.02756">
        <ele>15.9</ele>
        <time>2022-06-10T15:40:37Z</time>
      </trkpt>
      <trkpt lat="48.68389" lon="-4.02755">
        <ele>15.9</ele>
        <time>2022-06-10T15:40:39Z</time>
      </trkpt>
      <trkpt lat="48.6839" lon="-4.02753">
        <ele>15.9</ele>
        <time>2022-06-10T15:40:40Z</time>
      </trkpt>
      <trkpt lat="48.68391" lon="-4.02752">
        <ele>15.9</ele>
        <time>2022-06-10T15:40:41Z</time>
      </trkpt>
      <trkpt lat="48.68391" lon="-4.02751">
        <ele>15.9</ele>
        <time>2022-06-10T15:40:42Z</time>
      </trkpt>
      <trkpt lat="48.68392" lon="-4.02749">
        <ele>15.9</ele>
        <time>2022-06-10T15:40:43Z</time>
      </trkpt>
      <trkpt lat="48.68393" lon="-4.02748">
        <ele>15.9</ele>
        <time>2022-06-10T15:40:44Z</time>
      </trkpt>
      <trkpt lat="48.68393" lon="-4.02746">
        <ele>15.9</ele>
        <time>2022-06-10T15:40:45Z</time>
      </trkpt>
      <trkpt lat="48.68394" lon="-4.02745">
        <ele>15.9</ele>
        <time>2022-06-10T15:40:46Z</time>
      </trkpt>
      <trkpt lat="48.68395" lon="-4.02744">
        <ele>15.9</ele>
        <time>2022-06-10T15:40:47Z</time>
      </trkpt>
      <trkpt lat="48.68395" lon="-4.02742">
        <ele>15.9</ele>
        <time>2022-06-10T15:40:49Z</time>
      </trkpt>
      <trkpt lat="48.68395" lon="-4.02741">
        <ele>15.9</ele>
        <time>2022-06-10T15:40:50Z</time>
      </trkpt>
      <trkpt lat="48.68396" lon="-4.02738">
        <ele>15.9</ele>
        <time>2022-06-10T15:40:51Z</time>
      </trkpt>
      <trkpt lat="48.68397" lon="-4.02737">
        <ele>15.9</ele>
        <time>2022-06-10T15:40:53Z</time>
      </trkpt>
      <trkpt lat="48.68397" lon="-4.02736">
        <ele>15.9</ele>
        <time>2022-06-10T15:40:54Z</time>
      </trkpt>
      <trkpt lat="48.68398" lon="-4.02735">
        <ele>15.9</ele>
        <time>2022-06-10T15:40:55Z</time>
      </trkpt>
      <trkpt lat="48.68398" lon="-4.02733">
        <ele>15.9</ele>
        <time>2022-06-10T15:40:56Z</time>
      </trkpt>
      <trkpt lat="48.68399" lon="-4.02731">
        <ele>15.9</ele>
        <time>2022-06-10T15:40:57Z</time>
      </trkpt>
      <trkpt lat="48.68399" lon="-4.0273">
        <ele>15.9</ele>
        <time>2022-06-10T15:40:59Z</time>
      </trkpt>
      <trkpt lat="48.68399" lon="-4.02729">
        <ele>15.9</ele>
        <time>2022-06-10T15:41:00Z</time>
      </trkpt>
      <trkpt lat="48.68399" lon="-4.02727">
        <ele>15.9</ele>
        <time>2022-06-10T15:41:01Z</time>
      </trkpt>
      <trkpt lat="48.684" lon="-4.02726">
        <ele>15.9</ele>
        <time>2022-06-10T15:41:02Z</time>
      </trkpt>
      <trkpt lat="48.684" lon="-4.02724">
        <ele>15.9</ele>
        <time>2022-06-10T15:41:03Z</time>
      </trkpt>
      <trkpt lat="48.684" lon="-4.02723">
        <ele>15.9</ele>
        <time>2022-06-10T15:41:04Z</time>
      </trkpt>
      <trkpt lat="48.684" lon="-4.02721">
        <ele>15.9</ele>
        <time>2022-06-10T15:41:06Z</time>
      </trkpt>
      <trkpt lat="48.684" lon="-4.02719">
        <ele>15.9</ele>
        <time>2022-06-10T15:41:07Z</time>
      </trkpt>
      <trkpt lat="48.68401" lon="-4.02718">
        <ele>15.9</ele>
        <time>2022-06-10T15:41:08Z</time>
      </trkpt>
      <trkpt lat="48.68401" lon="-4.02715">
        <ele>15.9</ele>
        <time>2022-06-10T15:41:09Z</time>
      </trkpt>
      <trkpt lat="48.68401" lon="-4.02714">
        <ele>15.9</ele>
        <time>2022-06-10T15:41:10Z</time>
      </trkpt>
      <trkpt lat="48.68401" lon="-4.02713">
        <ele>15.9</ele>
        <time>2022-06-10T15:41:12Z</time>
      </trkpt>
      <trkpt lat="48.68401" lon="-4.02712">
        <ele>15.9</ele>
        <time>2022-06-10T15:41:13Z</time>
      </trkpt>
      <trkpt lat="48.68402" lon="-4.02711">
        <ele>15.9</ele>
        <time>2022-06-10T15:41:14Z</time>
      </trkpt>
      <trkpt lat="48.68402" lon="-4.02709">
        <ele>15.9</ele>
        <time>2022-06-10T15:41:15Z</time>
      </trkpt>
      <trkpt lat="48.68402" lon="-4.02708">
        <ele>15.9</ele>
        <time>2022-06-10T15:41:16Z</time>
      </trkpt>
      <trkpt lat="48.68402" lon="-4.02706">
        <ele>15.9</ele>
        <time>2022-06-10T15:41:18Z</time>
      </trkpt>
      <trkpt lat="48.68403" lon="-4.02704">
        <ele>15.9</ele>
        <time>2022-06-10T15:41:19Z</time>
      </trkpt>
      <trkpt lat="48.68403" lon="-4.02703">
        <ele>15.9</ele>
        <time>2022-06-10T15:41:20Z</time>
      </trkpt>
      <trkpt lat="48.68403" lon="-4.02701">
        <ele>15.9</ele>
        <time>2022-06-10T15:41:21Z</time>
      </trkpt>
      <trkpt lat="48.68404" lon="-4.027">
        <ele>15.9</ele>
        <time>2022-06-10T15:41:22Z</time>
      </trkpt>
      <trkpt lat="48.68404" lon="-4.02698">
        <ele>15.9</ele>
        <time>2022-06-10T15:41:24Z</time>
      </trkpt>
      <trkpt lat="48.68405" lon="-4.02697">
        <ele>15.9</ele>
        <time>2022-06-10T15:41:25Z</time>
      </trkpt>
      <trkpt lat="48.68405" lon="-4.02696">
        <ele>15.9</ele>
        <time>2022-06-10T15:41:26Z</time>
      </trkpt>
      <trkpt lat="48.68406" lon="-4.02695">
        <ele>15.9</ele>
        <time>2022-06-10T15:41:27Z</time>
      </trkpt>
      <trkpt lat="48.68406" lon="-4.02693">
        <ele>15.9</ele>
        <time>2022-06-10T15:41:28Z</time>
      </trkpt>
      <trkpt lat="48.68407" lon="-4.02692">
        <ele>15.9</ele>
        <time>2022-06-10T15:41:29Z</time>
      </trkpt>
      <trkpt lat="48.68407" lon="-4.02691">
        <ele>15.9</ele>
        <time>2022-06-10T15:41:30Z</time>
      </trkpt>
      <trkpt lat="48.68408" lon="-4.02691">
        <ele>15.9</ele>
        <time>2022-06-10T15:41:31Z</time>
      </trkpt>
      <trkpt lat="48.68408" lon="-4.0269">
        <ele>15.9</ele>
        <time>2022-06-10T15:41:32Z</time>
      </trkpt>
      <trkpt lat="48.68408" lon="-4.02689">
        <ele>15.9</ele>
        <time>2022-06-10T15:41:33Z</time>
      </trkpt>
      <trkpt lat="48.68409" lon="-4.02687">
        <ele>15.9</ele>
        <time>2022-06-10T15:41:34Z</time>
      </trkpt>
      <trkpt lat="48.68409" lon="-4.02686">
        <ele>15.9</ele>
        <time>2022-06-10T15:41:36Z</time>
      </trkpt>
      <trkpt lat="48.68409" lon="-4.02685">
        <ele>15.9</ele>
        <time>2022-06-10T15:41:37Z</time>
      </trkpt>
      <trkpt lat="48.68409" lon="-4.02684">
        <ele>15.8</ele>
        <time>2022-06-10T15:41:38Z</time>
      </trkpt>
      <trkpt lat="48.68409" lon="-4.02683">
        <ele>15.8</ele>
        <time>2022-06-10T15:41:39Z</time>
      </trkpt>
      <trkpt lat="48.68409" lon="-4.02682">
        <ele>15.8</ele>
        <time>2022-06-10T15:41:40Z</time>
      </trkpt>
      <trkpt lat="48.68409" lon="-4.02682">
        <ele>15.8</ele>
        <time>2022-06-10T15:41:41Z</time>
      </trkpt>
      <trkpt lat="48.68409" lon="-4.02681">
        <ele>15.8</ele>
        <time>2022-06-10T15:41:42Z</time>
      </trkpt>
      <trkpt lat="48.68409" lon="-4.02681">
        <ele>15.8</ele>
        <time>2022-06-10T15:41:43Z</time>
      </trkpt>
      <trkpt lat="48.68409" lon="-4.02681">
        <ele>15.8</ele>
        <time>2022-06-10T15:41:44Z</time>
      </trkpt>
      <trkpt lat="48.68409" lon="-4.02681">
        <ele>15.8</ele>
        <time>2022-06-10T15:41:45Z</time>
      </trkpt>
      <trkpt lat="48.68409" lon="-4.02681">
        <ele>15.8</ele>
        <time>2022-06-10T15:41:46Z</time>
      </trkpt>
      <trkpt lat="48.68409" lon="-4.02681">
        <ele>15.8</ele>
        <time>2022-06-10T15:41:47Z</time>
      </trkpt>
      <trkpt lat="48.68409" lon="-4.02681">
        <ele>15.8</ele>
        <time>2022-06-10T15:41:49Z</time>
      </trkpt>
      <trkpt lat="48.68409" lon="-4.02681">
        <ele>15.8</ele>
        <time>2022-06-10T15:41:50Z</time>
      </trkpt>
      <trkpt lat="48.68409" lon="-4.02681">
        <ele>15.8</ele>
        <time>2022-06-10T15:41:51Z</time>
      </trkpt>
      <trkpt lat="48.68409" lon="-4.0268">
        <ele>15.8</ele>
        <time>2022-06-10T15:41:52Z</time>
      </trkpt>
      <trkpt lat="48.68409" lon="-4.02679">
        <ele>15.8</ele>
        <time>2022-06-10T15:41:53Z</time>
      </trkpt>
      <trkpt lat="48.6841" lon="-4.02678">
        <ele>15.8</ele>
        <time>2022-06-10T15:41:54Z</time>
      </trkpt>
      <trkpt lat="48.6841" lon="-4.02678">
        <ele>15.8</ele>
        <time>2022-06-10T15:41:55Z</time>
      </trkpt>
      <trkpt lat="48.6841" lon="-4.02677">
        <ele>15.8</ele>
        <time>2022-06-10T15:41:56Z</time>
      </trkpt>
      <trkpt lat="48.6841" lon="-4.02676">
        <ele>15.8</ele>
        <time>2022-06-10T15:41:57Z</time>
      </trkpt>
      <trkpt lat="48.68411" lon="-4.02674">
        <ele>15.7</ele>
        <time>2022-06-10T15:41:58Z</time>
      </trkpt>
      <trkpt lat="48.68411" lon="-4.02673">
        <ele>15.7</ele>
        <time>2022-06-10T15:42:00Z</time>
      </trkpt>
      <trkpt lat="48.68411" lon="-4.02671">
        <ele>15.7</ele>
        <time>2022-06-10T15:42:01Z</time>
      </trkpt>
      <trkpt lat="48.68412" lon="-4.0267">
        <ele>15.7</ele>
        <time>2022-06-10T15:42:02Z</time>
      </trkpt>
      <trkpt lat="48.68412" lon="-4.02669">
        <ele>15.7</ele>
        <time>2022-06-10T15:42:03Z</time>
      </trkpt>
      <trkpt lat="48.68412" lon="-4.02667">
        <ele>15.7</ele>
        <time>2022-06-10T15:42:04Z</time>
      </trkpt>
      <trkpt lat="48.68413" lon="-4.02665">
        <ele>15.6</ele>
        <time>2022-06-10T15:42:06Z</time>
      </trkpt>
      <trkpt lat="48.68413" lon="-4.02664">
        <ele>15.6</ele>
        <time>2022-06-10T15:42:07Z</time>
      </trkpt>
      <trkpt lat="48.68414" lon="-4.02662">
        <ele>15.6</ele>
        <time>2022-06-10T15:42:08Z</time>
      </trkpt>
      <trkpt lat="48.68414" lon="-4.0266">
        <ele>15.6</ele>
        <time>2022-06-10T15:42:09Z</time>
      </trkpt>
      <trkpt lat="48.68415" lon="-4.02659">
        <ele>15.6</ele>
        <time>2022-06-10T15:42:10Z</time>
      </trkpt>
      <trkpt lat="48.68416" lon="-4.02657">
        <ele>15.5</ele>
        <time>2022-06-10T15:42:11Z</time>
      </trkpt>
      <trkpt lat="48.68416" lon="-4.02656">
        <ele>15.5</ele>
        <time>2022-06-10T15:42:12Z</time>
      </trkpt>
      <trkpt lat="48.68417" lon="-4.02655">
        <ele>15.5</ele>
        <time>2022-06-10T15:42:13Z</time>
      </trkpt>
      <trkpt lat="48.68418" lon="-4.02653">
        <ele>15.5</ele>
        <time>2022-06-10T15:42:14Z</time>
      </trkpt>
      <trkpt lat="48.68418" lon="-4.02652">
        <ele>15.5</ele>
        <time>2022-06-10T15:42:16Z</time>
      </trkpt>
      <trkpt lat="48.68419" lon="-4.0265">
        <ele>15.5</ele>
        <time>2022-06-10T15:42:17Z</time>
      </trkpt>
      <trkpt lat="48.6842" lon="-4.02649">
        <ele>15.5</ele>
        <time>2022-06-10T15:42:18Z</time>
      </trkpt>
      <trkpt lat="48.68421" lon="-4.02648">
        <ele>15.4</ele>
        <time>2022-06-10T15:42:19Z</time>
      </trkpt>
      <trkpt lat="48.68421" lon="-4.02647">
        <ele>15.4</ele>
        <time>2022-06-10T15:42:20Z</time>
      </trkpt>
      <trkpt lat="48.68422" lon="-4.02646">
        <ele>15.4</ele>
        <time>2022-06-10T15:42:21Z</time>
      </trkpt>
      <trkpt lat="48.68423" lon="-4.02646">
        <ele>15.4</ele>
        <time>2022-06-10T15:42:22Z</time>
      </trkpt>
      <trkpt lat="48.68424" lon="-4.02645">
        <ele>15.4</ele>
        <time>2022-06-10T15:42:23Z</time>
      </trkpt>
      <trkpt lat="48.68425" lon="-4.02644">
        <ele>15.4</ele>
        <time>2022-06-10T15:42:24Z</time>
      </trkpt>
      <trkpt lat="48.68426" lon="-4.02643">
        <ele>15.4</ele>
        <time>2022-06-10T15:42:25Z</time>
      </trkpt>
      <trkpt lat="48.68426" lon="-4.02643">
        <ele>15.3</ele>
        <time>2022-06-10T15:42:26Z</time>
      </trkpt>
      <trkpt lat="48.68427" lon="-4.02642">
        <ele>15.3</ele>
        <time>2022-06-10T15:42:27Z</time>
      </trkpt>
      <trkpt lat="48.68429" lon="-4.02641">
        <ele>15.3</ele>
        <time>2022-06-10T15:42:28Z</time>
      </trkpt>
      <trkpt lat="48.6843" lon="-4.0264">
        <ele>15.3</ele>
        <time>2022-06-10T15:42:30Z</time>
      </trkpt>
      <trkpt lat="48.68431" lon="-4.02639">
        <ele>15.3</ele>
        <time>2022-06-10T15:42:31Z</time>
      </trkpt>
      <trkpt lat="48.68432" lon="-4.02639">
        <ele>15.2</ele>
        <time>2022-06-10T15:42:32Z</time>
      </trkpt>
      <trkpt lat="48.68433" lon="-4.02639">
        <ele>15.2</ele>
        <time>2022-06-10T15:42:33Z</time>
      </trkpt>
      <trkpt lat="48.68434" lon="-4.02638">
        <ele>15.2</ele>
        <time>2022-06-10T15:42:34Z</time>
      </trkpt>
      <trkpt lat="48.68435" lon="-4.02638">
        <ele>15.2</ele>
        <time>2022-06-10T15:42:35Z</time>
      </trkpt>
      <trkpt lat="48.68436" lon="-4.02637">
        <ele>15.2</ele>
        <time>2022-06-10T15:42:36Z</time>
      </trkpt>
      <trkpt lat="48.68437" lon="-4.02637">
        <ele>15.1</ele>
        <time>2022-06-10T15:42:37Z</time>
      </trkpt>
      <trkpt lat="48.68438" lon="-4.02636">
        <ele>15.1</ele>
        <time>2022-06-10T15:42:38Z</time>
      </trkpt>
      <trkpt lat="48.68439" lon="-4.02636">
        <ele>15.1</ele>
        <time>2022-06-10T15:42:39Z</time>
      </trkpt>
      <trkpt lat="48.6844" lon="-4.02635">
        <ele>15.1</ele>
        <time>2022-06-10T15:42:40Z</time>
      </trkpt>
      <trkpt lat="48.68441" lon="-4.02634">
        <ele>15</ele>
        <time>2022-06-10T15:42:41Z</time>
      </trkpt>
      <trkpt lat="48.68442" lon="-4.02634">
        <ele>15</ele>
        <time>2022-06-10T15:42:42Z</time>
      </trkpt>
      <trkpt lat="48.68443" lon="-4.02633">
        <ele>15</ele>
        <time>2022-06-10T15:42:43Z</time>
      </trkpt>
      <trkpt lat="48.68443" lon="-4.02632">
        <ele>15</ele>
        <time>2022-06-10T15:42:44Z</time>
      </trkpt>
      <trkpt lat="48.68444" lon="-4.02632">
        <ele>15</ele>
        <time>2022-06-10T15:42:45Z</time>
      </trkpt>
      <trkpt lat="48.68445" lon="-4.02631">
        <ele>14.9</ele>
        <time>2022-06-10T15:42:46Z</time>
      </trkpt>
      <trkpt lat="48.68446" lon="-4.0263">
        <ele>14.9</ele>
        <time>2022-06-10T15:42:47Z</time>
      </trkpt>
      <trkpt lat="48.68447" lon="-4.0263">
        <ele>14.9</ele>
        <time>2022-06-10T15:42:48Z</time>
      </trkpt>
      <trkpt lat="48.68447" lon="-4.02629">
        <ele>14.9</ele>
        <time>2022-06-10T15:42:49Z</time>
      </trkpt>
      <trkpt lat="48.68448" lon="-4.02629">
        <ele>14.9</ele>
        <time>2022-06-10T15:42:50Z</time>
      </trkpt>
      <trkpt lat="48.68449" lon="-4.02629">
        <ele>14.8</ele>
        <time>2022-06-10T15:42:51Z</time>
      </trkpt>
      <trkpt lat="48.68451" lon="-4.02629">
        <ele>14.8</ele>
        <time>2022-06-10T15:42:52Z</time>
      </trkpt>
      <trkpt lat="48.68453" lon="-4.02628">
        <ele>14.8</ele>
        <time>2022-06-10T15:42:53Z</time>
      </trkpt>
      <trkpt lat="48.68454" lon="-4.02628">
        <ele>14.8</ele>
        <time>2022-06-10T15:42:55Z</time>
      </trkpt>
      <trkpt lat="48.68454" lon="-4.02628">
        <ele>14.8</ele>
        <time>2022-06-10T15:42:56Z</time>
      </trkpt>
      <trkpt lat="48.68456" lon="-4.02628">
        <ele>14.7</ele>
        <time>2022-06-10T15:42:57Z</time>
      </trkpt>
      <trkpt lat="48.68457" lon="-4.02628">
        <ele>14.7</ele>
        <time>2022-06-10T15:42:58Z</time>
      </trkpt>
      <trkpt lat="48.68458" lon="-4.02628">
        <ele>14.7</ele>
        <time>2022-06-10T15:42:59Z</time>
      </trkpt>
      <trkpt lat="48.68459" lon="-4.02629">
        <ele>14.7</ele>
        <time>2022-06-10T15:43:00Z</time>
      </trkpt>
      <trkpt lat="48.68459" lon="-4.02629">
        <ele>14.7</ele>
        <time>2022-06-10T15:43:01Z</time>
      </trkpt>
      <trkpt lat="48.6846" lon="-4.02629">
        <ele>14.7</ele>
        <time>2022-06-10T15:43:02Z</time>
      </trkpt>
      <trkpt lat="48.68462" lon="-4.02629">
        <ele>14.7</ele>
        <time>2022-06-10T15:43:03Z</time>
      </trkpt>
      <trkpt lat="48.68463" lon="-4.02629">
        <ele>14.7</ele>
        <time>2022-06-10T15:43:04Z</time>
      </trkpt>
      <trkpt lat="48.68464" lon="-4.02629">
        <ele>14.6</ele>
        <time>2022-06-10T15:43:05Z</time>
      </trkpt>
      <trkpt lat="48.68465" lon="-4.02629">
        <ele>14.6</ele>
        <time>2022-06-10T15:43:06Z</time>
      </trkpt>
      <trkpt lat="48.68467" lon="-4.0263">
        <ele>14.6</ele>
        <time>2022-06-10T15:43:07Z</time>
      </trkpt>
      <trkpt lat="48.68468" lon="-4.0263">
        <ele>14.6</ele>
        <time>2022-06-10T15:43:09Z</time>
      </trkpt>
      <trkpt lat="48.6847" lon="-4.0263">
        <ele>14.6</ele>
        <time>2022-06-10T15:43:10Z</time>
      </trkpt>
      <trkpt lat="48.68471" lon="-4.0263">
        <ele>14.6</ele>
        <time>2022-06-10T15:43:11Z</time>
      </trkpt>
      <trkpt lat="48.68472" lon="-4.02631">
        <ele>14.5</ele>
        <time>2022-06-10T15:43:12Z</time>
      </trkpt>
      <trkpt lat="48.68473" lon="-4.02631">
        <ele>14.5</ele>
        <time>2022-06-10T15:43:13Z</time>
      </trkpt>
      <trkpt lat="48.68475" lon="-4.02631">
        <ele>14.5</ele>
        <time>2022-06-10T15:43:15Z</time>
      </trkpt>
      <trkpt lat="48.68477" lon="-4.02632">
        <ele>14.5</ele>
        <time>2022-06-10T15:43:16Z</time>
      </trkpt>
      <trkpt lat="48.68478" lon="-4.02633">
        <ele>14.4</ele>
        <time>2022-06-10T15:43:17Z</time>
      </trkpt>
      <trkpt lat="48.68479" lon="-4.02633">
        <ele>14.4</ele>
        <time>2022-06-10T15:43:18Z</time>
      </trkpt>
      <trkpt lat="48.6848" lon="-4.02633">
        <ele>14.4</ele>
        <time>2022-06-10T15:43:19Z</time>
      </trkpt>
      <trkpt lat="48.68481" lon="-4.02634">
        <ele>14.4</ele>
        <time>2022-06-10T15:43:20Z</time>
      </trkpt>
      <trkpt lat="48.68482" lon="-4.02635">
        <ele>14.4</ele>
        <time>2022-06-10T15:43:21Z</time>
      </trkpt>
      <trkpt lat="48.68483" lon="-4.02636">
        <ele>14.3</ele>
        <time>2022-06-10T15:43:22Z</time>
      </trkpt>
      <trkpt lat="48.68484" lon="-4.02636">
        <ele>14.3</ele>
        <time>2022-06-10T15:43:23Z</time>
      </trkpt>
      <trkpt lat="48.68484" lon="-4.02637">
        <ele>14.3</ele>
        <time>2022-06-10T15:43:24Z</time>
      </trkpt>
      <trkpt lat="48.68486" lon="-4.02637">
        <ele>14.3</ele>
        <time>2022-06-10T15:43:26Z</time>
      </trkpt>
      <trkpt lat="48.68487" lon="-4.02637">
        <ele>14.3</ele>
        <time>2022-06-10T15:43:27Z</time>
      </trkpt>
      <trkpt lat="48.68489" lon="-4.02637">
        <ele>14.2</ele>
        <time>2022-06-10T15:43:28Z</time>
      </trkpt>
      <trkpt lat="48.6849" lon="-4.02638">
        <ele>14.2</ele>
        <time>2022-06-10T15:43:29Z</time>
      </trkpt>
      <trkpt lat="48.68491" lon="-4.02638">
        <ele>14.2</ele>
        <time>2022-06-10T15:43:30Z</time>
      </trkpt>
      <trkpt lat="48.68492" lon="-4.02638">
        <ele>14.2</ele>
        <time>2022-06-10T15:43:31Z</time>
      </trkpt>
      <trkpt lat="48.68493" lon="-4.02639">
        <ele>14.2</ele>
        <time>2022-06-10T15:43:33Z</time>
      </trkpt>
      <trkpt lat="48.68495" lon="-4.02639">
        <ele>14.2</ele>
        <time>2022-06-10T15:43:34Z</time>
      </trkpt>
      <trkpt lat="48.68496" lon="-4.0264">
        <ele>14.1</ele>
        <time>2022-06-10T15:43:35Z</time>
      </trkpt>
      <trkpt lat="48.68497" lon="-4.0264">
        <ele>14.1</ele>
        <time>2022-06-10T15:43:36Z</time>
      </trkpt>
      <trkpt lat="48.68498" lon="-4.02641">
        <ele>14.1</ele>
        <time>2022-06-10T15:43:37Z</time>
      </trkpt>
      <trkpt lat="48.68499" lon="-4.02641">
        <ele>14.1</ele>
        <time>2022-06-10T15:43:38Z</time>
      </trkpt>
      <trkpt lat="48.68501" lon="-4.02642">
        <ele>14.1</ele>
        <time>2022-06-10T15:43:39Z</time>
      </trkpt>
      <trkpt lat="48.68502" lon="-4.02642">
        <ele>14.1</ele>
        <time>2022-06-10T15:43:41Z</time>
      </trkpt>
      <trkpt lat="48.68502" lon="-4.02642">
        <ele>14.1</ele>
        <time>2022-06-10T15:43:42Z</time>
      </trkpt>
      <trkpt lat="48.68503" lon="-4.02642">
        <ele>14.1</ele>
        <time>2022-06-10T15:43:43Z</time>
      </trkpt>
      <trkpt lat="48.68504" lon="-4.02643">
        <ele>14.1</ele>
        <time>2022-06-10T15:43:44Z</time>
      </trkpt>
      <trkpt lat="48.68505" lon="-4.02643">
        <ele>14</ele>
        <time>2022-06-10T15:43:45Z</time>
      </trkpt>
      <trkpt lat="48.68505" lon="-4.02643">
        <ele>14</ele>
        <time>2022-06-10T15:43:46Z</time>
      </trkpt>
      <trkpt lat="48.68506" lon="-4.02643">
        <ele>14</ele>
        <time>2022-06-10T15:43:47Z</time>
      </trkpt>
      <trkpt lat="48.68507" lon="-4.02643">
        <ele>14</ele>
        <time>2022-06-10T15:43:49Z</time>
      </trkpt>
      <trkpt lat="48.68508" lon="-4.02643">
        <ele>14</ele>
        <time>2022-06-10T15:43:50Z</time>
      </trkpt>
      <trkpt lat="48.68509" lon="-4.02643">
        <ele>14</ele>
        <time>2022-06-10T15:43:51Z</time>
      </trkpt>
      <trkpt lat="48.6851" lon="-4.02643">
        <ele>14</ele>
        <time>2022-06-10T15:43:52Z</time>
      </trkpt>
      <trkpt lat="48.68511" lon="-4.02643">
        <ele>14</ele>
        <time>2022-06-10T15:43:53Z</time>
      </trkpt>
      <trkpt lat="48.68511" lon="-4.02643">
        <ele>14</ele>
        <time>2022-06-10T15:43:54Z</time>
      </trkpt>
      <trkpt lat="48.68512" lon="-4.02643">
        <ele>13.9</ele>
        <time>2022-06-10T15:43:55Z</time>
      </trkpt>
      <trkpt lat="48.68513" lon="-4.02643">
        <ele>13.9</ele>
        <time>2022-06-10T15:43:56Z</time>
      </trkpt>
      <trkpt lat="48.68513" lon="-4.02643">
        <ele>13.9</ele>
        <time>2022-06-10T15:43:57Z</time>
      </trkpt>
      <trkpt lat="48.68514" lon="-4.02643">
        <ele>13.9</ele>
        <time>2022-06-10T15:43:58Z</time>
      </trkpt>
      <trkpt lat="48.68515" lon="-4.02643">
        <ele>13.9</ele>
        <time>2022-06-10T15:43:59Z</time>
      </trkpt>
      <trkpt lat="48.68516" lon="-4.02643">
        <ele>13.9</ele>
        <time>2022-06-10T15:44:00Z</time>
      </trkpt>
      <trkpt lat="48.68516" lon="-4.02643">
        <ele>13.9</ele>
        <time>2022-06-10T15:44:01Z</time>
      </trkpt>
      <trkpt lat="48.68517" lon="-4.02643">
        <ele>13.9</ele>
        <time>2022-06-10T15:44:02Z</time>
      </trkpt>
      <trkpt lat="48.68518" lon="-4.02642">
        <ele>13.9</ele>
        <time>2022-06-10T15:44:03Z</time>
      </trkpt>
      <trkpt lat="48.68518" lon="-4.02642">
        <ele>13.9</ele>
        <time>2022-06-10T15:44:04Z</time>
      </trkpt>
      <trkpt lat="48.68519" lon="-4.02641">
        <ele>13.8</ele>
        <time>2022-06-10T15:44:06Z</time>
      </trkpt>
      <trkpt lat="48.6852" lon="-4.0264">
        <ele>13.8</ele>
        <time>2022-06-10T15:44:07Z</time>
      </trkpt>
      <trkpt lat="48.68521" lon="-4.02638">
        <ele>13.8</ele>
        <time>2022-06-10T15:44:08Z</time>
      </trkpt>
      <trkpt lat="48.68521" lon="-4.02637">
        <ele>13.8</ele>
        <time>2022-06-10T15:44:09Z</time>
      </trkpt>
      <trkpt lat="48.68522" lon="-4.02636">
        <ele>13.8</ele>
        <time>2022-06-10T15:44:10Z</time>
      </trkpt>
      <trkpt lat="48.68522" lon="-4.02634">
        <ele>13.7</ele>
        <time>2022-06-10T15:44:12Z</time>
      </trkpt>
      <trkpt lat="48.68522" lon="-4.02633">
        <ele>13.7</ele>
        <time>2022-06-10T15:44:13Z</time>
      </trkpt>
      <trkpt lat="48.68522" lon="-4.02631">
        <ele>13.7</ele>
        <time>2022-06-10T15:44:14Z</time>
      </trkpt>
      <trkpt lat="48.68522" lon="-4.02629">
        <ele>13.7</ele>
        <time>2022-06-10T15:44:15Z</time>
      </trkpt>
      <trkpt lat="48.68522" lon="-4.02628">
        <ele>13.7</ele>
        <time>2022-06-10T15:44:16Z</time>
      </trkpt>
      <trkpt lat="48.68522" lon="-4.02626">
        <ele>13.6</ele>
        <time>2022-06-10T15:44:18Z</time>
      </trkpt>
      <trkpt lat="48.68522" lon="-4.02624">
        <ele>13.6</ele>
        <time>2022-06-10T15:44:19Z</time>
      </trkpt>
      <trkpt lat="48.68522" lon="-4.02622">
        <ele>13.6</ele>
        <time>2022-06-10T15:44:20Z</time>
      </trkpt>
      <trkpt lat="48.68523" lon="-4.02621">
        <ele>13.5</ele>
        <time>2022-06-10T15:44:21Z</time>
      </trkpt>
      <trkpt lat="48.68523" lon="-4.02619">
        <ele>13.5</ele>
        <time>2022-06-10T15:44:22Z</time>
      </trkpt>
      <trkpt lat="48.68523" lon="-4.02618">
        <ele>13.5</ele>
        <time>2022-06-10T15:44:23Z</time>
      </trkpt>
      <trkpt lat="48.68524" lon="-4.02616">
        <ele>13.5</ele>
        <time>2022-06-10T15:44:24Z</time>
      </trkpt>
      <trkpt lat="48.68524" lon="-4.02615">
        <ele>13.4</ele>
        <time>2022-06-10T15:44:26Z</time>
      </trkpt>
      <trkpt lat="48.68524" lon="-4.02613">
        <ele>13.4</ele>
        <time>2022-06-10T15:44:27Z</time>
      </trkpt>
      <trkpt lat="48.68524" lon="-4.02611">
        <ele>13.4</ele>
        <time>2022-06-10T15:44:28Z</time>
      </trkpt>
      <trkpt lat="48.68525" lon="-4.02609">
        <ele>13.3</ele>
        <time>2022-06-10T15:44:29Z</time>
      </trkpt>
      <trkpt lat="48.68525" lon="-4.02608">
        <ele>13.3</ele>
        <time>2022-06-10T15:44:30Z</time>
      </trkpt>
      <trkpt lat="48.68525" lon="-4.02607">
        <ele>13.3</ele>
        <time>2022-06-10T15:44:31Z</time>
      </trkpt>
      <trkpt lat="48.68525" lon="-4.02605">
        <ele>13.3</ele>
        <time>2022-06-10T15:44:33Z</time>
      </trkpt>
      <trkpt lat="48.68526" lon="-4.02603">
        <ele>13.2</ele>
        <time>2022-06-10T15:44:34Z</time>
      </trkpt>
      <trkpt lat="48.68526" lon="-4.02602">
        <ele>13.2</ele>
        <time>2022-06-10T15:44:35Z</time>
      </trkpt>
      <trkpt lat="48.68526" lon="-4.026">
        <ele>13.2</ele>
        <time>2022-06-10T15:44:36Z</time>
      </trkpt>
      <trkpt lat="48.68527" lon="-4.02599">
        <ele>13.1</ele>
        <time>2022-06-10T15:44:37Z</time>
      </trkpt>
      <trkpt lat="48.68527" lon="-4.02598">
        <ele>13.1</ele>
        <time>2022-06-10T15:44:38Z</time>
      </trkpt>
      <trkpt lat="48.68527" lon="-4.02596">
        <ele>13.1</ele>
        <time>2022-06-10T15:44:40Z</time>
      </trkpt>
      <trkpt lat="48.68528" lon="-4.02595">
        <ele>13.1</ele>
        <time>2022-06-10T15:44:41Z</time>
      </trkpt>
      <trkpt lat="48.68528" lon="-4.02594">
        <ele>13</ele>
        <time>2022-06-10T15:44:42Z</time>
      </trkpt>
      <trkpt lat="48.68528" lon="-4.02592">
        <ele>13</ele>
        <time>2022-06-10T15:44:43Z</time>
      </trkpt>
      <trkpt lat="48.68529" lon="-4.02591">
        <ele>13</ele>
        <time>2022-06-10T15:44:44Z</time>
      </trkpt>
      <trkpt lat="48.68529" lon="-4.0259">
        <ele>13</ele>
        <time>2022-06-10T15:44:45Z</time>
      </trkpt>
      <trkpt lat="48.68529" lon="-4.02588">
        <ele>12.9</ele>
        <time>2022-06-10T15:44:46Z</time>
      </trkpt>
      <trkpt lat="48.6853" lon="-4.02587">
        <ele>12.9</ele>
        <time>2022-06-10T15:44:48Z</time>
      </trkpt>
      <trkpt lat="48.6853" lon="-4.02585">
        <ele>12.9</ele>
        <time>2022-06-10T15:44:49Z</time>
      </trkpt>
      <trkpt lat="48.6853" lon="-4.02584">
        <ele>12.8</ele>
        <time>2022-06-10T15:44:50Z</time>
      </trkpt>
      <trkpt lat="48.68531" lon="-4.02582">
        <ele>12.8</ele>
        <time>2022-06-10T15:44:51Z</time>
      </trkpt>
      <trkpt lat="48.68531" lon="-4.0258">
        <ele>12.7</ele>
        <time>2022-06-10T15:44:52Z</time>
      </trkpt>
      <trkpt lat="48.68532" lon="-4.02579">
        <ele>12.7</ele>
        <time>2022-06-10T15:44:53Z</time>
      </trkpt>
      <trkpt lat="48.68532" lon="-4.02578">
        <ele>12.7</ele>
        <time>2022-06-10T15:44:54Z</time>
      </trkpt>
      <trkpt lat="48.68532" lon="-4.02577">
        <ele>12.7</ele>
        <time>2022-06-10T15:44:55Z</time>
      </trkpt>
      <trkpt lat="48.68533" lon="-4.02575">
        <ele>12.6</ele>
        <time>2022-06-10T15:44:56Z</time>
      </trkpt>
      <trkpt lat="48.68533" lon="-4.02573">
        <ele>12.6</ele>
        <time>2022-06-10T15:44:57Z</time>
      </trkpt>
      <trkpt lat="48.68534" lon="-4.02571">
        <ele>12.6</ele>
        <time>2022-06-10T15:44:59Z</time>
      </trkpt>
      <trkpt lat="48.68534" lon="-4.02569">
        <ele>12.5</ele>
        <time>2022-06-10T15:45:00Z</time>
      </trkpt>
      <trkpt lat="48.68535" lon="-4.02568">
        <ele>12.5</ele>
        <time>2022-06-10T15:45:01Z</time>
      </trkpt>
      <trkpt lat="48.68535" lon="-4.02567">
        <ele>12.5</ele>
        <time>2022-06-10T15:45:02Z</time>
      </trkpt>
      <trkpt lat="48.68535" lon="-4.02565">
        <ele>12.4</ele>
        <time>2022-06-10T15:45:03Z</time>
      </trkpt>
      <trkpt lat="48.68535" lon="-4.02562">
        <ele>12.4</ele>
        <time>2022-06-10T15:45:05Z</time>
      </trkpt>
      <trkpt lat="48.68536" lon="-4.02561">
        <ele>12.3</ele>
        <time>2022-06-10T15:45:06Z</time>
      </trkpt>
      <trkpt lat="48.68537" lon="-4.02559">
        <ele>12.3</ele>
        <time>2022-06-10T15:45:08Z</time>
      </trkpt>
      <trkpt lat="48.68538" lon="-4.02559">
        <ele>12.3</ele>
        <time>2022-06-10T15:45:09Z</time>
      </trkpt>
      <trkpt lat="48.68539" lon="-4.0256">
        <ele>12.2</ele>
        <time>2022-06-10T15:45:10Z</time>
      </trkpt>
      <trkpt lat="48.6854" lon="-4.02561">
        <ele>12.2</ele>
        <time>2022-06-10T15:45:11Z</time>
      </trkpt>
      <trkpt lat="48.6854" lon="-4.02561">
        <ele>12.2</ele>
        <time>2022-06-10T15:45:12Z</time>
      </trkpt>
      <trkpt lat="48.68541" lon="-4.02561">
        <ele>12.2</ele>
        <time>2022-06-10T15:45:13Z</time>
      </trkpt>
      <trkpt lat="48.68541" lon="-4.02561">
        <ele>12.1</ele>
        <time>2022-06-10T15:45:14Z</time>
      </trkpt>
      <trkpt lat="48.68541" lon="-4.02561">
        <ele>12.1</ele>
        <time>2022-06-10T15:45:15Z</time>
      </trkpt>
      <trkpt lat="48.68541" lon="-4.02562">
        <ele>12.1</ele>
        <time>2022-06-10T15:45:16Z</time>
      </trkpt>
      <trkpt lat="48.68541" lon="-4.02562">
        <ele>12.1</ele>
        <time>2022-06-10T15:45:17Z</time>
      </trkpt>
      <trkpt lat="48.68541" lon="-4.02562">
        <ele>12.1</ele>
        <time>2022-06-10T15:45:18Z</time>
      </trkpt>
      <trkpt lat="48.68541" lon="-4.02562">
        <ele>12.1</ele>
        <time>2022-06-10T15:45:19Z</time>
      </trkpt>
      <trkpt lat="48.68541" lon="-4.02562">
        <ele>12.1</ele>
        <time>2022-06-10T15:45:20Z</time>
      </trkpt>
      <trkpt lat="48.68541" lon="-4.02562">
        <ele>12.1</ele>
        <time>2022-06-10T15:45:21Z</time>
      </trkpt>
      <trkpt lat="48.68542" lon="-4.02562">
        <ele>12.1</ele>
        <time>2022-06-10T15:45:22Z</time>
      </trkpt>
      <trkpt lat="48.68542" lon="-4.02562">
        <ele>12.1</ele>
        <time>2022-06-10T15:45:23Z</time>
      </trkpt>
      <trkpt lat="48.68541" lon="-4.02562">
        <ele>12.1</ele>
        <time>2022-06-10T15:45:24Z</time>
      </trkpt>
      <trkpt lat="48.68542" lon="-4.02562">
        <ele>12.1</ele>
        <time>2022-06-10T15:45:25Z</time>
      </trkpt>
      <trkpt lat="48.68542" lon="-4.02562">
        <ele>12.1</ele>
        <time>2022-06-10T15:45:26Z</time>
      </trkpt>
      <trkpt lat="48.68542" lon="-4.02562">
        <ele>12.1</ele>
        <time>2022-06-10T15:45:27Z</time>
      </trkpt>
      <trkpt lat="48.68541" lon="-4.02562">
        <ele>12.1</ele>
        <time>2022-06-10T15:45:28Z</time>
      </trkpt>
      <trkpt lat="48.68541" lon="-4.02563">
        <ele>12.1</ele>
        <time>2022-06-10T15:45:29Z</time>
      </trkpt>
      <trkpt lat="48.68541" lon="-4.02563">
        <ele>12.1</ele>
        <time>2022-06-10T15:45:30Z</time>
      </trkpt>
      <trkpt lat="48.68541" lon="-4.02563">
        <ele>12.1</ele>
        <time>2022-06-10T15:45:31Z</time>
      </trkpt>
      <trkpt lat="48.68541" lon="-4.02563">
        <ele>12.1</ele>
        <time>2022-06-10T15:45:32Z</time>
      </trkpt>
      <trkpt lat="48.68541" lon="-4.02563">
        <ele>12.1</ele>
        <time>2022-06-10T15:45:33Z</time>
      </trkpt>
      <trkpt lat="48.68541" lon="-4.02563">
        <ele>12.1</ele>
        <time>2022-06-10T15:45:34Z</time>
      </trkpt>
      <trkpt lat="48.68541" lon="-4.02563">
        <ele>12.1</ele>
        <time>2022-06-10T15:45:35Z</time>
      </trkpt>
      <trkpt lat="48.68541" lon="-4.02563">
        <ele>12.1</ele>
        <time>2022-06-10T15:45:36Z</time>
      </trkpt>
      <trkpt lat="48.68541" lon="-4.02563">
        <ele>12.1</ele>
        <time>2022-06-10T15:45:37Z</time>
      </trkpt>
      <trkpt lat="48.68541" lon="-4.02563">
        <ele>12.1</ele>
        <time>2022-06-10T15:45:38Z</time>
      </trkpt>
      <trkpt lat="48.68541" lon="-4.02563">
        <ele>12.1</ele>
        <time>2022-06-10T15:45:39Z</time>
      </trkpt>
      <trkpt lat="48.68541" lon="-4.02563">
        <ele>12.1</ele>
        <time>2022-06-10T15:45:40Z</time>
      </trkpt>
      <trkpt lat="48.68541" lon="-4.02563">
        <ele>12.1</ele>
        <time>2022-06-10T15:45:41Z</time>
      </trkpt>
      <trkpt lat="48.68541" lon="-4.02563">
        <ele>12.1</ele>
        <time>2022-06-10T15:45:42Z</time>
      </trkpt>
      <trkpt lat="48.68541" lon="-4.02563">
        <ele>12.1</ele>
        <time>2022-06-10T15:45:43Z</time>
      </trkpt>
      <trkpt lat="48.68541" lon="-4.02563">
        <ele>12.1</ele>
        <time>2022-06-10T15:45:44Z</time>
      </trkpt>
      <trkpt lat="48.68541" lon="-4.02563">
        <ele>12.1</ele>
        <time>2022-06-10T15:45:45Z</time>
      </trkpt>
      <trkpt lat="48.68541" lon="-4.02563">
        <ele>12.1</ele>
        <time>2022-06-10T15:45:46Z</time>
      </trkpt>
      <trkpt lat="48.68541" lon="-4.02563">
        <ele>12.1</ele>
        <time>2022-06-10T15:45:47Z</time>
      </trkpt>
      <trkpt lat="48.68541" lon="-4.02563">
        <ele>12.1</ele>
        <time>2022-06-10T15:45:48Z</time>
      </trkpt>
      <trkpt lat="48.68541" lon="-4.02563">
        <ele>12.1</ele>
        <time>2022-06-10T15:45:49Z</time>
      </trkpt>
      <trkpt lat="48.68541" lon="-4.02563">
        <ele>12.1</ele>
        <time>2022-06-10T15:45:50Z</time>
      </trkpt>
      <trkpt lat="48.68541" lon="-4.02563">
        <ele>12.1</ele>
        <time>2022-06-10T15:45:51Z</time>
      </trkpt>
      <trkpt lat="48.68541" lon="-4.02563">
        <ele>12.1</ele>
        <time>2022-06-10T15:45:52Z</time>
      </trkpt>
      <trkpt lat="48.68541" lon="-4.02563">
        <ele>12.1</ele>
        <time>2022-06-10T15:45:53Z</time>
      </trkpt>
      <trkpt lat="48.68541" lon="-4.02563">
        <ele>12.1</ele>
        <time>2022-06-10T15:45:54Z</time>
      </trkpt>
      <trkpt lat="48.68541" lon="-4.02563">
        <ele>12.1</ele>
        <time>2022-06-10T15:45:55Z</time>
      </trkpt>
      <trkpt lat="48.68541" lon="-4.02563">
        <ele>12.1</ele>
        <time>2022-06-10T15:45:56Z</time>
      </trkpt>
      <trkpt lat="48.68541" lon="-4.02563">
        <ele>12.1</ele>
        <time>2022-06-10T15:45:57Z</time>
      </trkpt>
      <trkpt lat="48.68541" lon="-4.02563">
        <ele>12.1</ele>
        <time>2022-06-10T15:45:58Z</time>
      </trkpt>
      <trkpt lat="48.68541" lon="-4.02563">
        <ele>12.1</ele>
        <time>2022-06-10T15:45:59Z</time>
      </trkpt>
      <trkpt lat="48.68541" lon="-4.02563">
        <ele>12.1</ele>
        <time>2022-06-10T15:46:00Z</time>
      </trkpt>
      <trkpt lat="48.68541" lon="-4.02563">
        <ele>12.1</ele>
        <time>2022-06-10T15:46:01Z</time>
      </trkpt>
      <trkpt lat="48.68541" lon="-4.02563">
        <ele>12.1</ele>
        <time>2022-06-10T15:46:02Z</time>
      </trkpt>
      <trkpt lat="48.68541" lon="-4.02563">
        <ele>12.1</ele>
        <time>2022-06-10T15:46:03Z</time>
      </trkpt>
      <trkpt lat="48.68541" lon="-4.02563">
        <ele>12.1</ele>
        <time>2022-06-10T15:46:04Z</time>
      </trkpt>
      <trkpt lat="48.68541" lon="-4.02563">
        <ele>12.1</ele>
        <time>2022-06-10T15:46:05Z</time>
      </trkpt>
      <trkpt lat="48.68541" lon="-4.02563">
        <ele>12.1</ele>
        <time>2022-06-10T15:46:06Z</time>
      </trkpt>
      <trkpt lat="48.68541" lon="-4.02563">
        <ele>12.1</ele>
        <time>2022-06-10T15:46:07Z</time>
      </trkpt>
      <trkpt lat="48.68541" lon="-4.02563">
        <ele>12.1</ele>
        <time>2022-06-10T15:46:08Z</time>
      </trkpt>
      <trkpt lat="48.68541" lon="-4.02563">
        <ele>12.1</ele>
        <time>2022-06-10T15:46:09Z</time>
      </trkpt>
      <trkpt lat="48.68541" lon="-4.02563">
        <ele>12.1</ele>
        <time>2022-06-10T15:46:10Z</time>
      </trkpt>
      <trkpt lat="48.68541" lon="-4.02563">
        <ele>12.1</ele>
        <time>2022-06-10T15:46:11Z</time>
      </trkpt>
      <trkpt lat="48.68541" lon="-4.02563">
        <ele>12.1</ele>
        <time>2022-06-10T15:46:12Z</time>
      </trkpt>
      <trkpt lat="48.68541" lon="-4.02563">
        <ele>12.1</ele>
        <time>2022-06-10T15:46:13Z</time>
      </trkpt>
      <trkpt lat="48.68541" lon="-4.02563">
        <ele>12.1</ele>
        <time>2022-06-10T15:46:14Z</time>
      </trkpt>
      <trkpt lat="48.68541" lon="-4.02563">
        <ele>12.1</ele>
        <time>2022-06-10T15:46:15Z</time>
      </trkpt>
      <trkpt lat="48.68541" lon="-4.02563">
        <ele>12.1</ele>
        <time>2022-06-10T15:46:16Z</time>
      </trkpt>
      <trkpt lat="48.68541" lon="-4.02563">
        <ele>12.1</ele>
        <time>2022-06-10T15:46:17Z</time>
      </trkpt>
      <trkpt lat="48.68541" lon="-4.02563">
        <ele>12.1</ele>
        <time>2022-06-10T15:46:18Z</time>
      </trkpt>
      <trkpt lat="48.68541" lon="-4.02563">
        <ele>12.1</ele>
        <time>2022-06-10T15:46:19Z</time>
      </trkpt>
      <trkpt lat="48.68541" lon="-4.02563">
        <ele>12.1</ele>
        <time>2022-06-10T15:46:20Z</time>
      </trkpt>
      <trkpt lat="48.68541" lon="-4.02563">
        <ele>12.1</ele>
        <time>2022-06-10T15:46:21Z</time>
      </trkpt>
      <trkpt lat="48.68541" lon="-4.02563">
        <ele>12.1</ele>
        <time>2022-06-10T15:46:22Z</time>
      </trkpt>
      <trkpt lat="48.68541" lon="-4.02563">
        <ele>12.1</ele>
        <time>2022-06-10T15:46:23Z</time>
      </trkpt>
      <trkpt lat="48.68541" lon="-4.02563">
        <ele>12.1</ele>
        <time>2022-06-10T15:46:24Z</time>
      </trkpt>
      <trkpt lat="48.68541" lon="-4.02563">
        <ele>12.1</ele>
        <time>2022-06-10T15:46:25Z</time>
      </trkpt>
      <trkpt lat="48.68541" lon="-4.02563">
        <ele>12.1</ele>
        <time>2022-06-10T15:46:26Z</time>
      </trkpt>
      <trkpt lat="48.68541" lon="-4.02563">
        <ele>12.1</ele>
        <time>2022-06-10T15:46:27Z</time>
      </trkpt>
      <trkpt lat="48.68541" lon="-4.02563">
        <ele>12.1</ele>
        <time>2022-06-10T15:46:28Z</time>
      </trkpt>
      <trkpt lat="48.68541" lon="-4.02563">
        <ele>12.1</ele>
        <time>2022-06-10T15:46:29Z</time>
      </trkpt>
      <trkpt lat="48.68541" lon="-4.02563">
        <ele>12.1</ele>
        <time>2022-06-10T15:46:30Z</time>
      </trkpt>
      <trkpt lat="48.68541" lon="-4.02563">
        <ele>12.1</ele>
        <time>2022-06-10T15:46:31Z</time>
      </trkpt>
      <trkpt lat="48.68541" lon="-4.02563">
        <ele>12.1</ele>
        <time>2022-06-10T15:46:32Z</time>
      </trkpt>
      <trkpt lat="48.68541" lon="-4.02563">
        <ele>12.1</ele>
        <time>2022-06-10T15:46:33Z</time>
      </trkpt>
      <trkpt lat="48.68541" lon="-4.02563">
        <ele>12.1</ele>
        <time>2022-06-10T15:46:34Z</time>
      </trkpt>
      <trkpt lat="48.68541" lon="-4.02563">
        <ele>12.1</ele>
        <time>2022-06-10T15:46:35Z</time>
      </trkpt>
      <trkpt lat="48.68541" lon="-4.02563">
        <ele>12.1</ele>
        <time>2022-06-10T15:46:36Z</time>
      </trkpt>
      <trkpt lat="48.68541" lon="-4.02563">
        <ele>12.1</ele>
        <time>2022-06-10T15:46:37Z</time>
      </trkpt>
      <trkpt lat="48.68541" lon="-4.02563">
        <ele>12.1</ele>
        <time>2022-06-10T15:46:38Z</time>
      </trkpt>
      <trkpt lat="48.68541" lon="-4.02563">
        <ele>12.1</ele>
        <time>2022-06-10T15:46:39Z</time>
      </trkpt>
      <trkpt lat="48.68541" lon="-4.02563">
        <ele>12.1</ele>
        <time>2022-06-10T15:46:40Z</time>
      </trkpt>
      <trkpt lat="48.68541" lon="-4.02563">
        <ele>12.1</ele>
        <time>2022-06-10T15:46:41Z</time>
      </trkpt>
      <trkpt lat="48.68541" lon="-4.02563">
        <ele>12.1</ele>
        <time>2022-06-10T15:46:42Z</time>
      </trkpt>
      <trkpt lat="48.68541" lon="-4.02563">
        <ele>12.1</ele>
        <time>2022-06-10T15:46:43Z</time>
      </trkpt>
      <trkpt lat="48.68541" lon="-4.02563">
        <ele>12.1</ele>
        <time>2022-06-10T15:46:44Z</time>
      </trkpt>
      <trkpt lat="48.68541" lon="-4.02563">
        <ele>12.1</ele>
        <time>2022-06-10T15:46:45Z</time>
      </trkpt>
      <trkpt lat="48.68541" lon="-4.02563">
        <ele>12.1</ele>
        <time>2022-06-10T15:46:46Z</time>
      </trkpt>
      <trkpt lat="48.68541" lon="-4.02563">
        <ele>12.1</ele>
        <time>2022-06-10T15:46:47Z</time>
      </trkpt>
      <trkpt lat="48.68541" lon="-4.02563">
        <ele>12.1</ele>
        <time>2022-06-10T15:46:48Z</time>
      </trkpt>
      <trkpt lat="48.68541" lon="-4.02563">
        <ele>12.1</ele>
        <time>2022-06-10T15:46:49Z</time>
      </trkpt>
      <trkpt lat="48.68541" lon="-4.02563">
        <ele>12.1</ele>
        <time>2022-06-10T15:46:50Z</time>
      </trkpt>
      <trkpt lat="48.68541" lon="-4.02563">
        <ele>12.1</ele>
        <time>2022-06-10T15:46:51Z</time>
      </trkpt>
      <trkpt lat="48.68541" lon="-4.02563">
        <ele>12.1</ele>
        <time>2022-06-10T15:46:52Z</time>
      </trkpt>
      <trkpt lat="48.68541" lon="-4.02563">
        <ele>12.1</ele>
        <time>2022-06-10T15:46:53Z</time>
      </trkpt>
      <trkpt lat="48.68541" lon="-4.02563">
        <ele>12.1</ele>
        <time>2022-06-10T15:46:54Z</time>
      </trkpt>
      <trkpt lat="48.68541" lon="-4.02563">
        <ele>12.1</ele>
        <time>2022-06-10T15:46:55Z</time>
      </trkpt>
      <trkpt lat="48.68541" lon="-4.02563">
        <ele>12.1</ele>
        <time>2022-06-10T15:46:56Z</time>
      </trkpt>
      <trkpt lat="48.68541" lon="-4.02563">
        <ele>12.1</ele>
        <time>2022-06-10T15:46:57Z</time>
      </trkpt>
      <trkpt lat="48.68538" lon="-4.02564">
        <ele>12</ele>
        <time>2022-06-10T15:46:58Z</time>
      </trkpt>
      <trkpt lat="48.68538" lon="-4.02563">
        <ele>11.9</ele>
        <time>2022-06-10T15:46:59Z</time>
      </trkpt>
      <trkpt lat="48.68537" lon="-4.02563">
        <ele>11.9</ele>
        <time>2022-06-10T15:47:00Z</time>
      </trkpt>
      <trkpt lat="48.68537" lon="-4.02562">
        <ele>11.9</ele>
        <time>2022-06-10T15:47:01Z</time>
      </trkpt>
      <trkpt lat="48.68537" lon="-4.02561">
        <ele>11.9</ele>
        <time>2022-06-10T15:47:02Z</time>
      </trkpt>
      <trkpt lat="48.68537" lon="-4.0256">
        <ele>11.9</ele>
        <time>2022-06-10T15:47:03Z</time>
      </trkpt>
      <trkpt lat="48.68537" lon="-4.02559">
        <ele>11.8</ele>
        <time>2022-06-10T15:47:04Z</time>
      </trkpt>
      <trkpt lat="48.68537" lon="-4.02558">
        <ele>11.8</ele>
        <time>2022-06-10T15:47:05Z</time>
      </trkpt>
      <trkpt lat="48.68537" lon="-4.02558">
        <ele>11.8</ele>
        <time>2022-06-10T15:47:06Z</time>
      </trkpt>
      <trkpt lat="48.68537" lon="-4.02557">
        <ele>11.8</ele>
        <time>2022-06-10T15:47:08Z</time>
      </trkpt>
      <trkpt lat="48.68537" lon="-4.02556">
        <ele>11.8</ele>
        <time>2022-06-10T15:47:09Z</time>
      </trkpt>
      <trkpt lat="48.68537" lon="-4.02555">
        <ele>11.7</ele>
        <time>2022-06-10T15:47:10Z</time>
      </trkpt>
      <trkpt lat="48.68538" lon="-4.02553">
        <ele>11.7</ele>
        <time>2022-06-10T15:47:11Z</time>
      </trkpt>
      <trkpt lat="48.68538" lon="-4.02551">
        <ele>11.6</ele>
        <time>2022-06-10T15:47:12Z</time>
      </trkpt>
      <trkpt lat="48.68538" lon="-4.02549">
        <ele>11.6</ele>
        <time>2022-06-10T15:47:14Z</time>
      </trkpt>
      <trkpt lat="48.68539" lon="-4.02546">
        <ele>11.5</ele>
        <time>2022-06-10T15:47:15Z</time>
      </trkpt>
      <trkpt lat="48.6854" lon="-4.02545">
        <ele>11.5</ele>
        <time>2022-06-10T15:47:16Z</time>
      </trkpt>
      <trkpt lat="48.6854" lon="-4.02544">
        <ele>11.5</ele>
        <time>2022-06-10T15:47:17Z</time>
      </trkpt>
      <trkpt lat="48.68542" lon="-4.02541">
        <ele>11.4</ele>
        <time>2022-06-10T15:47:18Z</time>
      </trkpt>
      <trkpt lat="48.68542" lon="-4.02539">
        <ele>11.3</ele>
        <time>2022-06-10T15:47:20Z</time>
      </trkpt>
      <trkpt lat="48.68542" lon="-4.02538">
        <ele>11.3</ele>
        <time>2022-06-10T15:47:21Z</time>
      </trkpt>
      <trkpt lat="48.68543" lon="-4.02536">
        <ele>11.2</ele>
        <time>2022-06-10T15:47:22Z</time>
      </trkpt>
      <trkpt lat="48.68543" lon="-4.02535">
        <ele>11.2</ele>
        <time>2022-06-10T15:47:23Z</time>
      </trkpt>
      <trkpt lat="48.68544" lon="-4.02532">
        <ele>11.1</ele>
        <time>2022-06-10T15:47:24Z</time>
      </trkpt>
      <trkpt lat="48.68544" lon="-4.02531">
        <ele>11.1</ele>
        <time>2022-06-10T15:47:25Z</time>
      </trkpt>
      <trkpt lat="48.68544" lon="-4.02529">
        <ele>11</ele>
        <time>2022-06-10T15:47:26Z</time>
      </trkpt>
      <trkpt lat="48.68545" lon="-4.02527">
        <ele>10.9</ele>
        <time>2022-06-10T15:47:27Z</time>
      </trkpt>
      <trkpt lat="48.68546" lon="-4.02525">
        <ele>10.9</ele>
        <time>2022-06-10T15:47:28Z</time>
      </trkpt>
      <trkpt lat="48.68546" lon="-4.02524">
        <ele>10.8</ele>
        <time>2022-06-10T15:47:30Z</time>
      </trkpt>
      <trkpt lat="48.68547" lon="-4.02523">
        <ele>10.8</ele>
        <time>2022-06-10T15:47:31Z</time>
      </trkpt>
      <trkpt lat="48.68548" lon="-4.02522">
        <ele>10.8</ele>
        <time>2022-06-10T15:47:32Z</time>
      </trkpt>
      <trkpt lat="48.68548" lon="-4.02521">
        <ele>10.7</ele>
        <time>2022-06-10T15:47:33Z</time>
      </trkpt>
      <trkpt lat="48.68549" lon="-4.0252">
        <ele>10.7</ele>
        <time>2022-06-10T15:47:34Z</time>
      </trkpt>
      <trkpt lat="48.68549" lon="-4.02518">
        <ele>10.6</ele>
        <time>2022-06-10T15:47:35Z</time>
      </trkpt>
      <trkpt lat="48.68549" lon="-4.02517">
        <ele>10.6</ele>
        <time>2022-06-10T15:47:36Z</time>
      </trkpt>
      <trkpt lat="48.6855" lon="-4.02515">
        <ele>10.5</ele>
        <time>2022-06-10T15:47:38Z</time>
      </trkpt>
      <trkpt lat="48.6855" lon="-4.02515">
        <ele>10.5</ele>
        <time>2022-06-10T15:47:39Z</time>
      </trkpt>
      <trkpt lat="48.6855" lon="-4.02513">
        <ele>10.5</ele>
        <time>2022-06-10T15:47:40Z</time>
      </trkpt>
      <trkpt lat="48.68551" lon="-4.02512">
        <ele>10.5</ele>
        <time>2022-06-10T15:47:41Z</time>
      </trkpt>
      <trkpt lat="48.68551" lon="-4.02511">
        <ele>10.4</ele>
        <time>2022-06-10T15:47:42Z</time>
      </trkpt>
      <trkpt lat="48.68551" lon="-4.0251">
        <ele>10.4</ele>
        <time>2022-06-10T15:47:43Z</time>
      </trkpt>
      <trkpt lat="48.68552" lon="-4.02509">
        <ele>10.4</ele>
        <time>2022-06-10T15:47:44Z</time>
      </trkpt>
      <trkpt lat="48.68553" lon="-4.02507">
        <ele>10.3</ele>
        <time>2022-06-10T15:47:45Z</time>
      </trkpt>
      <trkpt lat="48.68553" lon="-4.02506">
        <ele>10.3</ele>
        <time>2022-06-10T15:47:46Z</time>
      </trkpt>
      <trkpt lat="48.68554" lon="-4.02505">
        <ele>10.3</ele>
        <time>2022-06-10T15:47:48Z</time>
      </trkpt>
      <trkpt lat="48.68554" lon="-4.02503">
        <ele>10.2</ele>
        <time>2022-06-10T15:47:49Z</time>
      </trkpt>
      <trkpt lat="48.68555" lon="-4.02502">
        <ele>10.2</ele>
        <time>2022-06-10T15:47:50Z</time>
      </trkpt>
      <trkpt lat="48.68555" lon="-4.025">
        <ele>10.1</ele>
        <time>2022-06-10T15:47:51Z</time>
      </trkpt>
      <trkpt lat="48.68556" lon="-4.02499">
        <ele>10.1</ele>
        <time>2022-06-10T15:47:52Z</time>
      </trkpt>
      <trkpt lat="48.68556" lon="-4.02498">
        <ele>10.1</ele>
        <time>2022-06-10T15:47:53Z</time>
      </trkpt>
      <trkpt lat="48.68557" lon="-4.02496">
        <ele>10</ele>
        <time>2022-06-10T15:47:55Z</time>
      </trkpt>
      <trkpt lat="48.68558" lon="-4.02494">
        <ele>10</ele>
        <time>2022-06-10T15:47:56Z</time>
      </trkpt>
      <trkpt lat="48.68558" lon="-4.02492">
        <ele>9.9</ele>
        <time>2022-06-10T15:47:57Z</time>
      </trkpt>
      <trkpt lat="48.68559" lon="-4.0249">
        <ele>9.9</ele>
        <time>2022-06-10T15:47:58Z</time>
      </trkpt>
      <trkpt lat="48.68559" lon="-4.02488">
        <ele>9.8</ele>
        <time>2022-06-10T15:47:59Z</time>
      </trkpt>
      <trkpt lat="48.6856" lon="-4.02487">
        <ele>9.8</ele>
        <time>2022-06-10T15:48:00Z</time>
      </trkpt>
      <trkpt lat="48.6856" lon="-4.02486">
        <ele>9.8</ele>
        <time>2022-06-10T15:48:01Z</time>
      </trkpt>
      <trkpt lat="48.6856" lon="-4.02484">
        <ele>9.7</ele>
        <time>2022-06-10T15:48:02Z</time>
      </trkpt>
      <trkpt lat="48.68561" lon="-4.02483">
        <ele>9.7</ele>
        <time>2022-06-10T15:48:03Z</time>
      </trkpt>
      <trkpt lat="48.68561" lon="-4.02481">
        <ele>9.7</ele>
        <time>2022-06-10T15:48:04Z</time>
      </trkpt>
      <trkpt lat="48.68562" lon="-4.0248">
        <ele>9.6</ele>
        <time>2022-06-10T15:48:05Z</time>
      </trkpt>
      <trkpt lat="48.68562" lon="-4.02478">
        <ele>9.6</ele>
        <time>2022-06-10T15:48:06Z</time>
      </trkpt>
      <trkpt lat="48.68562" lon="-4.02478">
        <ele>9.6</ele>
        <time>2022-06-10T15:48:07Z</time>
      </trkpt>
      <trkpt lat="48.68562" lon="-4.02477">
        <ele>9.5</ele>
        <time>2022-06-10T15:48:08Z</time>
      </trkpt>
      <trkpt lat="48.68563" lon="-4.02476">
        <ele>9.5</ele>
        <time>2022-06-10T15:48:09Z</time>
      </trkpt>
      <trkpt lat="48.68563" lon="-4.02475">
        <ele>9.5</ele>
        <time>2022-06-10T15:48:10Z</time>
      </trkpt>
      <trkpt lat="48.68564" lon="-4.02474">
        <ele>9.4</ele>
        <time>2022-06-10T15:48:11Z</time>
      </trkpt>
      <trkpt lat="48.68564" lon="-4.02473">
        <ele>9.4</ele>
        <time>2022-06-10T15:48:12Z</time>
      </trkpt>
      <trkpt lat="48.68565" lon="-4.02472">
        <ele>9.3</ele>
        <time>2022-06-10T15:48:13Z</time>
      </trkpt>
      <trkpt lat="48.68566" lon="-4.0247">
        <ele>9.3</ele>
        <time>2022-06-10T15:48:15Z</time>
      </trkpt>
      <trkpt lat="48.68566" lon="-4.02469">
        <ele>9.2</ele>
        <time>2022-06-10T15:48:16Z</time>
      </trkpt>
      <trkpt lat="48.68567" lon="-4.02468">
        <ele>9.2</ele>
        <time>2022-06-10T15:48:17Z</time>
      </trkpt>
      <trkpt lat="48.68568" lon="-4.02466">
        <ele>9.1</ele>
        <time>2022-06-10T15:48:18Z</time>
      </trkpt>
      <trkpt lat="48.68569" lon="-4.02464">
        <ele>9</ele>
        <time>2022-06-10T15:48:19Z</time>
      </trkpt>
      <trkpt lat="48.6857" lon="-4.02463">
        <ele>9</ele>
        <time>2022-06-10T15:48:21Z</time>
      </trkpt>
      <trkpt lat="48.6857" lon="-4.02462">
        <ele>8.9</ele>
        <time>2022-06-10T15:48:22Z</time>
      </trkpt>
      <trkpt lat="48.68571" lon="-4.0246">
        <ele>8.9</ele>
        <time>2022-06-10T15:48:23Z</time>
      </trkpt>
      <trkpt lat="48.68572" lon="-4.02459">
        <ele>8.8</ele>
        <time>2022-06-10T15:48:24Z</time>
      </trkpt>
      <trkpt lat="48.68573" lon="-4.02457">
        <ele>8.7</ele>
        <time>2022-06-10T15:48:25Z</time>
      </trkpt>
      <trkpt lat="48.68575" lon="-4.02456">
        <ele>8.6</ele>
        <time>2022-06-10T15:48:26Z</time>
      </trkpt>
      <trkpt lat="48.68576" lon="-4.02454">
        <ele>8.5</ele>
        <time>2022-06-10T15:48:28Z</time>
      </trkpt>
      <trkpt lat="48.68577" lon="-4.02453">
        <ele>8.5</ele>
        <time>2022-06-10T15:48:29Z</time>
      </trkpt>
      <trkpt lat="48.68578" lon="-4.02451">
        <ele>8.3</ele>
        <time>2022-06-10T15:48:30Z</time>
      </trkpt>
      <trkpt lat="48.68579" lon="-4.0245">
        <ele>8.3</ele>
        <time>2022-06-10T15:48:31Z</time>
      </trkpt>
      <trkpt lat="48.6858" lon="-4.02449">
        <ele>8.3</ele>
        <time>2022-06-10T15:48:32Z</time>
      </trkpt>
      <trkpt lat="48.68579" lon="-4.02449">
        <ele>8.3</ele>
        <time>2022-06-10T15:48:34Z</time>
      </trkpt>
      <trkpt lat="48.6858" lon="-4.02449">
        <ele>8.3</ele>
        <time>2022-06-10T15:48:35Z</time>
      </trkpt>
      <trkpt lat="48.68581" lon="-4.02448">
        <ele>8.3</ele>
        <time>2022-06-10T15:48:36Z</time>
      </trkpt>
      <trkpt lat="48.68582" lon="-4.02447">
        <ele>8.3</ele>
        <time>2022-06-10T15:48:37Z</time>
      </trkpt>
      <trkpt lat="48.68582" lon="-4.02446">
        <ele>8.2</ele>
        <time>2022-06-10T15:48:38Z</time>
      </trkpt>
      <trkpt lat="48.68583" lon="-4.02446">
        <ele>8.2</ele>
        <time>2022-06-10T15:48:39Z</time>
      </trkpt>
      <trkpt lat="48.68584" lon="-4.02445">
        <ele>8.2</ele>
        <time>2022-06-10T15:48:40Z</time>
      </trkpt>
      <trkpt lat="48.68585" lon="-4.02444">
        <ele>8.2</ele>
        <time>2022-06-10T15:48:41Z</time>
      </trkpt>
      <trkpt lat="48.68588" lon="-4.02443">
        <ele>8.1</ele>
        <time>2022-06-10T15:48:43Z</time>
      </trkpt>
      <trkpt lat="48.68588" lon="-4.02442">
        <ele>8.1</ele>
        <time>2022-06-10T15:48:44Z</time>
      </trkpt>
      <trkpt lat="48.6859" lon="-4.02441">
        <ele>8.1</ele>
        <time>2022-06-10T15:48:45Z</time>
      </trkpt>
      <trkpt lat="48.68592" lon="-4.0244">
        <ele>8.1</ele>
        <time>2022-06-10T15:48:46Z</time>
      </trkpt>
      <trkpt lat="48.68593" lon="-4.02439">
        <ele>8.1</ele>
        <time>2022-06-10T15:48:48Z</time>
      </trkpt>
      <trkpt lat="48.68594" lon="-4.02438">
        <ele>8</ele>
        <time>2022-06-10T15:48:49Z</time>
      </trkpt>
      <trkpt lat="48.68595" lon="-4.02437">
        <ele>8</ele>
        <time>2022-06-10T15:48:50Z</time>
      </trkpt>
      <trkpt lat="48.68596" lon="-4.02436">
        <ele>8</ele>
        <time>2022-06-10T15:48:51Z</time>
      </trkpt>
      <trkpt lat="48.68597" lon="-4.02436">
        <ele>8</ele>
        <time>2022-06-10T15:48:52Z</time>
      </trkpt>
      <trkpt lat="48.68598" lon="-4.02436">
        <ele>8</ele>
        <time>2022-06-10T15:48:53Z</time>
      </trkpt>
      <trkpt lat="48.68599" lon="-4.02439">
        <ele>7.9</ele>
        <time>2022-06-10T15:48:54Z</time>
      </trkpt>
      <trkpt lat="48.68599" lon="-4.0244">
        <ele>7.9</ele>
        <time>2022-06-10T15:48:56Z</time>
      </trkpt>
      <trkpt lat="48.686" lon="-4.02441">
        <ele>7.9</ele>
        <time>2022-06-10T15:48:57Z</time>
      </trkpt>
      <trkpt lat="48.68601" lon="-4.02441">
        <ele>7.9</ele>
        <time>2022-06-10T15:48:58Z</time>
      </trkpt>
      <trkpt lat="48.68601" lon="-4.02442">
        <ele>7.9</ele>
        <time>2022-06-10T15:48:59Z</time>
      </trkpt>
      <trkpt lat="48.68602" lon="-4.02443">
        <ele>7.9</ele>
        <time>2022-06-10T15:49:00Z</time>
      </trkpt>
      <trkpt lat="48.68604" lon="-4.02445">
        <ele>7.8</ele>
        <time>2022-06-10T15:49:01Z</time>
      </trkpt>
      <trkpt lat="48.68604" lon="-4.02445">
        <ele>7.8</ele>
        <time>2022-06-10T15:49:03Z</time>
      </trkpt>
      <trkpt lat="48.68605" lon="-4.02445">
        <ele>7.8</ele>
        <time>2022-06-10T15:49:04Z</time>
      </trkpt>
      <trkpt lat="48.68606" lon="-4.02446">
        <ele>7.8</ele>
        <time>2022-06-10T15:49:05Z</time>
      </trkpt>
      <trkpt lat="48.68605" lon="-4.02448">
        <ele>7.8</ele>
        <time>2022-06-10T15:49:06Z</time>
      </trkpt>
      <trkpt lat="48.68606" lon="-4.02449">
        <ele>7.8</ele>
        <time>2022-06-10T15:49:07Z</time>
      </trkpt>
      <trkpt lat="48.68607" lon="-4.0245">
        <ele>7.7</ele>
        <time>2022-06-10T15:49:09Z</time>
      </trkpt>
      <trkpt lat="48.68608" lon="-4.0245">
        <ele>7.7</ele>
        <time>2022-06-10T15:49:10Z</time>
      </trkpt>
      <trkpt lat="48.6861" lon="-4.0245">
        <ele>7.7</ele>
        <time>2022-06-10T15:49:11Z</time>
      </trkpt>
      <trkpt lat="48.68611" lon="-4.02451">
        <ele>7.7</ele>
        <time>2022-06-10T15:49:12Z</time>
      </trkpt>
      <trkpt lat="48.68612" lon="-4.02452">
        <ele>7.7</ele>
        <time>2022-06-10T15:49:13Z</time>
      </trkpt>
      <trkpt lat="48.68613" lon="-4.02452">
        <ele>7.6</ele>
        <time>2022-06-10T15:49:14Z</time>
      </trkpt>
      <trkpt lat="48.68614" lon="-4.02453">
        <ele>7.6</ele>
        <time>2022-06-10T15:49:15Z</time>
      </trkpt>
      <trkpt lat="48.68615" lon="-4.02453">
        <ele>7.6</ele>
        <time>2022-06-10T15:49:16Z</time>
      </trkpt>
      <trkpt lat="48.68617" lon="-4.02453">
        <ele>7.6</ele>
        <time>2022-06-10T15:49:18Z</time>
      </trkpt>
      <trkpt lat="48.68618" lon="-4.02453">
        <ele>7.6</ele>
        <time>2022-06-10T15:49:19Z</time>
      </trkpt>
      <trkpt lat="48.68619" lon="-4.02453">
        <ele>7.5</ele>
        <time>2022-06-10T15:49:20Z</time>
      </trkpt>
      <trkpt lat="48.68621" lon="-4.02453">
        <ele>7.5</ele>
        <time>2022-06-10T15:49:21Z</time>
      </trkpt>
      <trkpt lat="48.68622" lon="-4.02452">
        <ele>7.5</ele>
        <time>2022-06-10T15:49:22Z</time>
      </trkpt>
      <trkpt lat="48.68623" lon="-4.02451">
        <ele>7.5</ele>
        <time>2022-06-10T15:49:24Z</time>
      </trkpt>
      <trkpt lat="48.68625" lon="-4.0245">
        <ele>7.5</ele>
        <time>2022-06-10T15:49:25Z</time>
      </trkpt>
      <trkpt lat="48.68626" lon="-4.02449">
        <ele>7.4</ele>
        <time>2022-06-10T15:49:26Z</time>
      </trkpt>
      <trkpt lat="48.68626" lon="-4.02446">
        <ele>7.4</ele>
        <time>2022-06-10T15:49:28Z</time>
      </trkpt>
      <trkpt lat="48.68626" lon="-4.02444">
        <ele>7.4</ele>
        <time>2022-06-10T15:49:29Z</time>
      </trkpt>
      <trkpt lat="48.68626" lon="-4.02443">
        <ele>7.4</ele>
        <time>2022-06-10T15:49:30Z</time>
      </trkpt>
      <trkpt lat="48.68626" lon="-4.02442">
        <ele>7.4</ele>
        <time>2022-06-10T15:49:31Z</time>
      </trkpt>
      <trkpt lat="48.68626" lon="-4.02442">
        <ele>7.4</ele>
        <time>2022-06-10T15:49:32Z</time>
      </trkpt>
      <trkpt lat="48.68626" lon="-4.02441">
        <ele>7.4</ele>
        <time>2022-06-10T15:49:33Z</time>
      </trkpt>
      <trkpt lat="48.68626" lon="-4.02441">
        <ele>7.4</ele>
        <time>2022-06-10T15:49:34Z</time>
      </trkpt>
      <trkpt lat="48.68626" lon="-4.02441">
        <ele>7.4</ele>
        <time>2022-06-10T15:49:35Z</time>
      </trkpt>
      <trkpt lat="48.68625" lon="-4.02441">
        <ele>7.4</ele>
        <time>2022-06-10T15:49:36Z</time>
      </trkpt>
      <trkpt lat="48.68625" lon="-4.02441">
        <ele>7.4</ele>
        <time>2022-06-10T15:49:37Z</time>
      </trkpt>
      <trkpt lat="48.68625" lon="-4.02442">
        <ele>7.4</ele>
        <time>2022-06-10T15:49:38Z</time>
      </trkpt>
      <trkpt lat="48.68625" lon="-4.02442">
        <ele>7.4</ele>
        <time>2022-06-10T15:49:39Z</time>
      </trkpt>
      <trkpt lat="48.68625" lon="-4.02442">
        <ele>7.4</ele>
        <time>2022-06-10T15:49:40Z</time>
      </trkpt>
      <trkpt lat="48.68625" lon="-4.02442">
        <ele>7.4</ele>
        <time>2022-06-10T15:49:41Z</time>
      </trkpt>
      <trkpt lat="48.68625" lon="-4.02442">
        <ele>7.4</ele>
        <time>2022-06-10T15:49:43Z</time>
      </trkpt>
      <trkpt lat="48.68625" lon="-4.02442">
        <ele>7.4</ele>
        <time>2022-06-10T15:49:44Z</time>
      </trkpt>
      <trkpt lat="48.68625" lon="-4.02442">
        <ele>7.4</ele>
        <time>2022-06-10T15:49:45Z</time>
      </trkpt>
      <trkpt lat="48.68625" lon="-4.02442">
        <ele>7.4</ele>
        <time>2022-06-10T15:49:46Z</time>
      </trkpt>
      <trkpt lat="48.68624" lon="-4.02442">
        <ele>7.4</ele>
        <time>2022-06-10T15:49:47Z</time>
      </trkpt>
      <trkpt lat="48.68624" lon="-4.02442">
        <ele>7.4</ele>
        <time>2022-06-10T15:49:48Z</time>
      </trkpt>
      <trkpt lat="48.68624" lon="-4.02442">
        <ele>7.4</ele>
        <time>2022-06-10T15:49:49Z</time>
      </trkpt>
      <trkpt lat="48.68624" lon="-4.02442">
        <ele>7.3</ele>
        <time>2022-06-10T15:49:50Z</time>
      </trkpt>
      <trkpt lat="48.68624" lon="-4.02442">
        <ele>7.3</ele>
        <time>2022-06-10T15:49:51Z</time>
      </trkpt>
      <trkpt lat="48.68624" lon="-4.02442">
        <ele>7.3</ele>
        <time>2022-06-10T15:49:52Z</time>
      </trkpt>
      <trkpt lat="48.68624" lon="-4.02442">
        <ele>7.3</ele>
        <time>2022-06-10T15:49:53Z</time>
      </trkpt>
      <trkpt lat="48.68624" lon="-4.02442">
        <ele>7.3</ele>
        <time>2022-06-10T15:49:54Z</time>
      </trkpt>
      <trkpt lat="48.68624" lon="-4.02442">
        <ele>7.3</ele>
        <time>2022-06-10T15:49:55Z</time>
      </trkpt>
      <trkpt lat="48.68623" lon="-4.02442">
        <ele>7.3</ele>
        <time>2022-06-10T15:49:56Z</time>
      </trkpt>
      <trkpt lat="48.68623" lon="-4.02442">
        <ele>7.3</ele>
        <time>2022-06-10T15:49:57Z</time>
      </trkpt>
      <trkpt lat="48.68623" lon="-4.02442">
        <ele>7.3</ele>
        <time>2022-06-10T15:49:58Z</time>
      </trkpt>
      <trkpt lat="48.68623" lon="-4.02442">
        <ele>7.3</ele>
        <time>2022-06-10T15:49:59Z</time>
      </trkpt>
      <trkpt lat="48.68623" lon="-4.02442">
        <ele>7.3</ele>
        <time>2022-06-10T15:50:00Z</time>
      </trkpt>
      <trkpt lat="48.68623" lon="-4.02442">
        <ele>7.3</ele>
        <time>2022-06-10T15:50:01Z</time>
      </trkpt>
      <trkpt lat="48.68623" lon="-4.02442">
        <ele>7.3</ele>
        <time>2022-06-10T15:50:02Z</time>
      </trkpt>
      <trkpt lat="48.68623" lon="-4.02442">
        <ele>7.3</ele>
        <time>2022-06-10T15:50:03Z</time>
      </trkpt>
      <trkpt lat="48.68623" lon="-4.02442">
        <ele>7.3</ele>
        <time>2022-06-10T15:50:04Z</time>
      </trkpt>
      <trkpt lat="48.68623" lon="-4.02442">
        <ele>7.3</ele>
        <time>2022-06-10T15:50:05Z</time>
      </trkpt>
      <trkpt lat="48.68622" lon="-4.02442">
        <ele>7.3</ele>
        <time>2022-06-10T15:50:06Z</time>
      </trkpt>
      <trkpt lat="48.68622" lon="-4.02442">
        <ele>7.3</ele>
        <time>2022-06-10T15:50:07Z</time>
      </trkpt>
      <trkpt lat="48.68622" lon="-4.02442">
        <ele>7.3</ele>
        <time>2022-06-10T15:50:08Z</time>
      </trkpt>
      <trkpt lat="48.68622" lon="-4.02442">
        <ele>7.3</ele>
        <time>2022-06-10T15:50:09Z</time>
      </trkpt>
      <trkpt lat="48.68622" lon="-4.02442">
        <ele>7.3</ele>
        <time>2022-06-10T15:50:10Z</time>
      </trkpt>
      <trkpt lat="48.68622" lon="-4.02442">
        <ele>7.3</ele>
        <time>2022-06-10T15:50:11Z</time>
      </trkpt>
      <trkpt lat="48.68622" lon="-4.02442">
        <ele>7.3</ele>
        <time>2022-06-10T15:50:12Z</time>
      </trkpt>
      <trkpt lat="48.68622" lon="-4.02442">
        <ele>7.3</ele>
        <time>2022-06-10T15:50:13Z</time>
      </trkpt>
      <trkpt lat="48.68622" lon="-4.02442">
        <ele>7.3</ele>
        <time>2022-06-10T15:50:14Z</time>
      </trkpt>
      <trkpt lat="48.68622" lon="-4.02442">
        <ele>7.3</ele>
        <time>2022-06-10T15:50:15Z</time>
      </trkpt>
      <trkpt lat="48.68621" lon="-4.02442">
        <ele>7.3</ele>
        <time>2022-06-10T15:50:16Z</time>
      </trkpt>
      <trkpt lat="48.68618" lon="-4.02443">
        <ele>7.3</ele>
        <time>2022-06-10T15:50:17Z</time>
      </trkpt>
      <trkpt lat="48.6862" lon="-4.02443">
        <ele>7.2</ele>
        <time>2022-06-10T15:50:18Z</time>
      </trkpt>
      <trkpt lat="48.6862" lon="-4.02443">
        <ele>7.2</ele>
        <time>2022-06-10T15:50:19Z</time>
      </trkpt>
      <trkpt lat="48.6862" lon="-4.02443">
        <ele>7.2</ele>
        <time>2022-06-10T15:50:20Z</time>
      </trkpt>
      <trkpt lat="48.6862" lon="-4.02443">
        <ele>7.2</ele>
        <time>2022-06-10T15:50:21Z</time>
      </trkpt>
      <trkpt lat="48.6862" lon="-4.02443">
        <ele>7.2</ele>
        <time>2022-06-10T15:50:22Z</time>
      </trkpt>
      <trkpt lat="48.6862" lon="-4.02443">
        <ele>7.2</ele>
        <time>2022-06-10T15:50:23Z</time>
      </trkpt>
      <trkpt lat="48.68619" lon="-4.02444">
        <ele>7.2</ele>
        <time>2022-06-10T15:50:24Z</time>
      </trkpt>
      <trkpt lat="48.68619" lon="-4.02444">
        <ele>7.2</ele>
        <time>2022-06-10T15:50:25Z</time>
      </trkpt>
      <trkpt lat="48.68619" lon="-4.02444">
        <ele>7.2</ele>
        <time>2022-06-10T15:50:26Z</time>
      </trkpt>
      <trkpt lat="48.68619" lon="-4.02444">
        <ele>7.2</ele>
        <time>2022-06-10T15:50:27Z</time>
      </trkpt>
      <trkpt lat="48.68619" lon="-4.02444">
        <ele>7.2</ele>
        <time>2022-06-10T15:50:28Z</time>
      </trkpt>
      <trkpt lat="48.68619" lon="-4.02444">
        <ele>7.2</ele>
        <time>2022-06-10T15:50:29Z</time>
      </trkpt>
      <trkpt lat="48.68618" lon="-4.02445">
        <ele>7.2</ele>
        <time>2022-06-10T15:50:30Z</time>
      </trkpt>
      <trkpt lat="48.68618" lon="-4.02445">
        <ele>7.2</ele>
        <time>2022-06-10T15:50:31Z</time>
      </trkpt>
      <trkpt lat="48.68618" lon="-4.02445">
        <ele>7.2</ele>
        <time>2022-06-10T15:50:32Z</time>
      </trkpt>
      <trkpt lat="48.68618" lon="-4.02445">
        <ele>7.2</ele>
        <time>2022-06-10T15:50:33Z</time>
      </trkpt>
      <trkpt lat="48.68618" lon="-4.02445">
        <ele>7.2</ele>
        <time>2022-06-10T15:50:34Z</time>
      </trkpt>
      <trkpt lat="48.68618" lon="-4.02445">
        <ele>7.2</ele>
        <time>2022-06-10T15:50:35Z</time>
      </trkpt>
      <trkpt lat="48.68617" lon="-4.02446">
        <ele>7.2</ele>
        <time>2022-06-10T15:50:36Z</time>
      </trkpt>
      <trkpt lat="48.68617" lon="-4.02446">
        <ele>7.2</ele>
        <time>2022-06-10T15:50:37Z</time>
      </trkpt>
      <trkpt lat="48.68617" lon="-4.02446">
        <ele>7.2</ele>
        <time>2022-06-10T15:50:38Z</time>
      </trkpt>
      <trkpt lat="48.68617" lon="-4.02446">
        <ele>7.2</ele>
        <time>2022-06-10T15:50:39Z</time>
      </trkpt>
      <trkpt lat="48.68617" lon="-4.02446">
        <ele>7.2</ele>
        <time>2022-06-10T15:50:40Z</time>
      </trkpt>
      <trkpt lat="48.68617" lon="-4.02446">
        <ele>7.2</ele>
        <time>2022-06-10T15:50:41Z</time>
      </trkpt>
      <trkpt lat="48.68616" lon="-4.02446">
        <ele>7.2</ele>
        <time>2022-06-10T15:50:42Z</time>
      </trkpt>
      <trkpt lat="48.68616" lon="-4.02447">
        <ele>7.2</ele>
        <time>2022-06-10T15:50:43Z</time>
      </trkpt>
      <trkpt lat="48.68616" lon="-4.02447">
        <ele>7.2</ele>
        <time>2022-06-10T15:52:22Z</time>
      </trkpt>
      <trkpt lat="48.68616" lon="-4.02447">
        <ele>7.2</ele>
        <time>2022-06-10T15:52:23Z</time>
      </trkpt>
      <trkpt lat="48.68616" lon="-4.02447">
        <ele>7.2</ele>
        <time>2022-06-10T15:52:24Z</time>
      </trkpt>
      <trkpt lat="48.68616" lon="-4.02447">
        <ele>7.2</ele>
        <time>2022-06-10T15:52:25Z</time>
      </trkpt>
      <trkpt lat="48.68614" lon="-4.02451">
        <ele>7.2</ele>
        <time>2022-06-10T15:52:26Z</time>
      </trkpt>
      <trkpt lat="48.68614" lon="-4.02454">
        <ele>7.1</ele>
        <time>2022-06-10T15:52:27Z</time>
      </trkpt>
      <trkpt lat="48.68613" lon="-4.02456">
        <ele>7.1</ele>
        <time>2022-06-10T15:52:28Z</time>
      </trkpt>
      <trkpt lat="48.68613" lon="-4.02456">
        <ele>7.1</ele>
        <time>2022-06-10T15:52:29Z</time>
      </trkpt>
      <trkpt lat="48.68613" lon="-4.02456">
        <ele>7.1</ele>
        <time>2022-06-10T15:52:30Z</time>
      </trkpt>
    </trkseg>
  </trk>
</gpx>